<?xml version="1.0" encoding="UTF-8" standalone="no" ?>
<gpx xmlns="http://www.topografix.com/GPX/1/1" xmlns:xsi="http://www.w3.org/2001/XMLSchema-instance" xsi:schemaLocation="http://www.topografix.com/GPX/1/1 http://www.topografix.com/GPX/1/1/gpx.xsd" version="1.1" creator="VisuGPX - https://www.visugpx.com">
  <metadata>
    <name>Tour de la Thur 8&amp;amp;9juin 2025 avec Sacha</name>
  </metadata>
  <trk>
    <name><![CDATA[8 juin 2025 à 12:09:46]]></name>
    <extensions>
      <line xmlns="http://www.topografix.com/GPX/gpx_style/0/2">
        <color>0000FF</color>
        <width>4</width>
      </line>
    </extensions>
    <trkseg>
      <trkpt lat="47.88226" lon="6.95453">
        <ele>456</ele>
        <time>2025-06-08T10:09:47.000Z</time>
      </trkpt>
      <trkpt lat="47.88226" lon="6.95454">
        <ele>456</ele>
        <time>2025-06-08T10:09:48.000Z</time>
      </trkpt>
      <trkpt lat="47.88241" lon="6.95466">
        <ele>455</ele>
        <time>2025-06-08T10:10:04.000Z</time>
      </trkpt>
      <trkpt lat="47.88242" lon="6.95472">
        <ele>455</ele>
        <time>2025-06-08T10:10:07.000Z</time>
      </trkpt>
      <trkpt lat="47.88245" lon="6.95476">
        <ele>456</ele>
        <time>2025-06-08T10:10:11.000Z</time>
      </trkpt>
      <trkpt lat="47.88252" lon="6.95488">
        <ele>456</ele>
        <time>2025-06-08T10:10:19.000Z</time>
      </trkpt>
      <trkpt lat="47.88256" lon="6.95501">
        <ele>457</ele>
        <time>2025-06-08T10:10:27.000Z</time>
      </trkpt>
      <trkpt lat="47.88257" lon="6.95508">
        <ele>457</ele>
        <time>2025-06-08T10:10:31.000Z</time>
      </trkpt>
      <trkpt lat="47.88272" lon="6.95556">
        <ele>456</ele>
        <time>2025-06-08T10:11:00.000Z</time>
      </trkpt>
      <trkpt lat="47.88273" lon="6.95563">
        <ele>456</ele>
        <time>2025-06-08T10:11:04.000Z</time>
      </trkpt>
      <trkpt lat="47.88278" lon="6.95577">
        <ele>456</ele>
        <time>2025-06-08T10:11:12.000Z</time>
      </trkpt>
      <trkpt lat="47.88283" lon="6.95589">
        <ele>455</ele>
        <time>2025-06-08T10:11:19.000Z</time>
      </trkpt>
      <trkpt lat="47.88287" lon="6.95595">
        <ele>455</ele>
        <time>2025-06-08T10:11:23.000Z</time>
      </trkpt>
      <trkpt lat="47.88289" lon="6.95602">
        <ele>454</ele>
        <time>2025-06-08T10:11:28.000Z</time>
      </trkpt>
      <trkpt lat="47.88292" lon="6.95607">
        <ele>454</ele>
        <time>2025-06-08T10:11:31.000Z</time>
      </trkpt>
      <trkpt lat="47.88298" lon="6.95606">
        <ele>454</ele>
        <time>2025-06-08T10:11:35.000Z</time>
      </trkpt>
      <trkpt lat="47.88305" lon="6.95604">
        <ele>454</ele>
        <time>2025-06-08T10:11:41.000Z</time>
      </trkpt>
      <trkpt lat="47.88318" lon="6.95597">
        <ele>454</ele>
        <time>2025-06-08T10:11:52.000Z</time>
      </trkpt>
      <trkpt lat="47.88323" lon="6.95596">
        <ele>453</ele>
        <time>2025-06-08T10:11:56.000Z</time>
      </trkpt>
      <trkpt lat="47.88327" lon="6.95593">
        <ele>453</ele>
        <time>2025-06-08T10:12:00.000Z</time>
      </trkpt>
      <trkpt lat="47.88332" lon="6.95591">
        <ele>453</ele>
        <time>2025-06-08T10:12:04.000Z</time>
      </trkpt>
      <trkpt lat="47.88365" lon="6.95575">
        <ele>453</ele>
        <time>2025-06-08T10:12:30.000Z</time>
      </trkpt>
      <trkpt lat="47.8837" lon="6.95574">
        <ele>453</ele>
        <time>2025-06-08T10:12:34.000Z</time>
      </trkpt>
      <trkpt lat="47.88374" lon="6.95572">
        <ele>453</ele>
        <time>2025-06-08T10:12:37.000Z</time>
      </trkpt>
      <trkpt lat="47.88391" lon="6.9557">
        <ele>452</ele>
        <time>2025-06-08T10:12:49.000Z</time>
      </trkpt>
      <trkpt lat="47.88411" lon="6.95564">
        <ele>452</ele>
        <time>2025-06-08T10:13:05.000Z</time>
      </trkpt>
      <trkpt lat="47.88421" lon="6.95556">
        <ele>452</ele>
        <time>2025-06-08T10:13:13.000Z</time>
      </trkpt>
      <trkpt lat="47.88426" lon="6.95554">
        <ele>452</ele>
        <time>2025-06-08T10:13:17.000Z</time>
      </trkpt>
      <trkpt lat="47.8843" lon="6.95549">
        <ele>452</ele>
        <time>2025-06-08T10:13:21.000Z</time>
      </trkpt>
      <trkpt lat="47.88448" lon="6.95533">
        <ele>452</ele>
        <time>2025-06-08T10:13:36.000Z</time>
      </trkpt>
      <trkpt lat="47.88459" lon="6.9553">
        <ele>452</ele>
        <time>2025-06-08T10:13:44.000Z</time>
      </trkpt>
      <trkpt lat="47.88463" lon="6.95526">
        <ele>452</ele>
        <time>2025-06-08T10:13:49.000Z</time>
      </trkpt>
      <trkpt lat="47.88469" lon="6.95525">
        <ele>452</ele>
        <time>2025-06-08T10:13:53.000Z</time>
      </trkpt>
      <trkpt lat="47.88474" lon="6.95526">
        <ele>452</ele>
        <time>2025-06-08T10:13:57.000Z</time>
      </trkpt>
      <trkpt lat="47.88484" lon="6.95523">
        <ele>452</ele>
        <time>2025-06-08T10:14:04.000Z</time>
      </trkpt>
      <trkpt lat="47.88494" lon="6.95521">
        <ele>452</ele>
        <time>2025-06-08T10:14:11.000Z</time>
      </trkpt>
      <trkpt lat="47.88498" lon="6.95518">
        <ele>452</ele>
        <time>2025-06-08T10:14:14.000Z</time>
      </trkpt>
      <trkpt lat="47.88502" lon="6.95517">
        <ele>452</ele>
        <time>2025-06-08T10:14:17.000Z</time>
      </trkpt>
      <trkpt lat="47.88507" lon="6.95514">
        <ele>452</ele>
        <time>2025-06-08T10:14:21.000Z</time>
      </trkpt>
      <trkpt lat="47.88513" lon="6.95513">
        <ele>452</ele>
        <time>2025-06-08T10:14:25.000Z</time>
      </trkpt>
      <trkpt lat="47.88521" lon="6.95507">
        <ele>452</ele>
        <time>2025-06-08T10:14:32.000Z</time>
      </trkpt>
      <trkpt lat="47.88525" lon="6.95504">
        <ele>452</ele>
        <time>2025-06-08T10:14:35.000Z</time>
      </trkpt>
      <trkpt lat="47.8853" lon="6.95503">
        <ele>452</ele>
        <time>2025-06-08T10:14:39.000Z</time>
      </trkpt>
      <trkpt lat="47.88538" lon="6.95494">
        <ele>452</ele>
        <time>2025-06-08T10:14:45.000Z</time>
      </trkpt>
      <trkpt lat="47.88543" lon="6.95494">
        <ele>452</ele>
        <time>2025-06-08T10:14:49.000Z</time>
      </trkpt>
      <trkpt lat="47.88548" lon="6.95492">
        <ele>452</ele>
        <time>2025-06-08T10:14:53.000Z</time>
      </trkpt>
      <trkpt lat="47.88556" lon="6.95491">
        <ele>452</ele>
        <time>2025-06-08T10:15:01.000Z</time>
      </trkpt>
      <trkpt lat="47.88564" lon="6.95492">
        <ele>453</ele>
        <time>2025-06-08T10:15:11.000Z</time>
      </trkpt>
      <trkpt lat="47.88569" lon="6.95495">
        <ele>453</ele>
        <time>2025-06-08T10:15:15.000Z</time>
      </trkpt>
      <trkpt lat="47.88573" lon="6.95499">
        <ele>455</ele>
        <time>2025-06-08T10:15:20.000Z</time>
      </trkpt>
      <trkpt lat="47.88585" lon="6.95512">
        <ele>456</ele>
        <time>2025-06-08T10:15:32.000Z</time>
      </trkpt>
      <trkpt lat="47.88589" lon="6.95503">
        <ele>457</ele>
        <time>2025-06-08T10:15:39.000Z</time>
      </trkpt>
      <trkpt lat="47.88586" lon="6.95498">
        <ele>459</ele>
        <time>2025-06-08T10:15:46.000Z</time>
      </trkpt>
      <trkpt lat="47.88585" lon="6.95492">
        <ele>459</ele>
        <time>2025-06-08T10:15:51.000Z</time>
      </trkpt>
      <trkpt lat="47.88587" lon="6.95484">
        <ele>460</ele>
        <time>2025-06-08T10:15:56.000Z</time>
      </trkpt>
      <trkpt lat="47.88586" lon="6.95474">
        <ele>462</ele>
        <time>2025-06-08T10:16:03.000Z</time>
      </trkpt>
      <trkpt lat="47.88575" lon="6.95439">
        <ele>467</ele>
        <time>2025-06-08T10:16:29.000Z</time>
      </trkpt>
      <trkpt lat="47.88568" lon="6.95432">
        <ele>470</ele>
        <time>2025-06-08T10:16:49.000Z</time>
      </trkpt>
      <trkpt lat="47.88564" lon="6.95428">
        <ele>470</ele>
        <time>2025-06-08T10:16:53.000Z</time>
      </trkpt>
      <trkpt lat="47.88564" lon="6.95419">
        <ele>471</ele>
        <time>2025-06-08T10:16:58.000Z</time>
      </trkpt>
      <trkpt lat="47.88574" lon="6.95405">
        <ele>474</ele>
        <time>2025-06-08T10:17:14.000Z</time>
      </trkpt>
      <trkpt lat="47.88583" lon="6.95401">
        <ele>476</ele>
        <time>2025-06-08T10:17:20.000Z</time>
      </trkpt>
      <trkpt lat="47.88587" lon="6.95401">
        <ele>476</ele>
        <time>2025-06-08T10:17:25.000Z</time>
      </trkpt>
      <trkpt lat="47.88589" lon="6.95395">
        <ele>477</ele>
        <time>2025-06-08T10:17:33.000Z</time>
      </trkpt>
      <trkpt lat="47.88585" lon="6.95391">
        <ele>477</ele>
        <time>2025-06-08T10:17:37.000Z</time>
      </trkpt>
      <trkpt lat="47.88583" lon="6.95384">
        <ele>478</ele>
        <time>2025-06-08T10:17:42.000Z</time>
      </trkpt>
      <trkpt lat="47.88582" lon="6.95375">
        <ele>479</ele>
        <time>2025-06-08T10:17:46.000Z</time>
      </trkpt>
      <trkpt lat="47.88579" lon="6.95368">
        <ele>479</ele>
        <time>2025-06-08T10:17:49.000Z</time>
      </trkpt>
      <trkpt lat="47.88579" lon="6.95361">
        <ele>480</ele>
        <time>2025-06-08T10:17:53.000Z</time>
      </trkpt>
      <trkpt lat="47.88582" lon="6.95332">
        <ele>484</ele>
        <time>2025-06-08T10:18:17.000Z</time>
      </trkpt>
      <trkpt lat="47.88586" lon="6.95318">
        <ele>486</ele>
        <time>2025-06-08T10:18:27.000Z</time>
      </trkpt>
      <trkpt lat="47.88593" lon="6.95311">
        <ele>489</ele>
        <time>2025-06-08T10:18:45.000Z</time>
      </trkpt>
      <trkpt lat="47.88602" lon="6.95309">
        <ele>491</ele>
        <time>2025-06-08T10:18:55.000Z</time>
      </trkpt>
      <trkpt lat="47.88603" lon="6.95317">
        <ele>493</ele>
        <time>2025-06-08T10:19:01.000Z</time>
      </trkpt>
      <trkpt lat="47.88603" lon="6.95324">
        <ele>493</ele>
        <time>2025-06-08T10:19:04.000Z</time>
      </trkpt>
      <trkpt lat="47.88601" lon="6.95311">
        <ele>496</ele>
        <time>2025-06-08T10:19:18.000Z</time>
      </trkpt>
      <trkpt lat="47.88605" lon="6.9531">
        <ele>497</ele>
        <time>2025-06-08T10:19:22.000Z</time>
      </trkpt>
      <trkpt lat="47.88604" lon="6.95302">
        <ele>501</ele>
        <time>2025-06-08T10:19:36.000Z</time>
      </trkpt>
      <trkpt lat="47.8861" lon="6.95307">
        <ele>503</ele>
        <time>2025-06-08T10:19:46.000Z</time>
      </trkpt>
      <trkpt lat="47.88614" lon="6.9532">
        <ele>505</ele>
        <time>2025-06-08T10:19:55.000Z</time>
      </trkpt>
      <trkpt lat="47.8862" lon="6.95315">
        <ele>507</ele>
        <time>2025-06-08T10:20:03.000Z</time>
      </trkpt>
      <trkpt lat="47.88615" lon="6.95307">
        <ele>508</ele>
        <time>2025-06-08T10:20:11.000Z</time>
      </trkpt>
      <trkpt lat="47.88615" lon="6.953">
        <ele>509</ele>
        <time>2025-06-08T10:20:15.000Z</time>
      </trkpt>
      <trkpt lat="47.88618" lon="6.95292">
        <ele>509</ele>
        <time>2025-06-08T10:20:23.000Z</time>
      </trkpt>
      <trkpt lat="47.88619" lon="6.95283">
        <ele>509</ele>
        <time>2025-06-08T10:20:26.000Z</time>
      </trkpt>
      <trkpt lat="47.8862" lon="6.95273">
        <ele>509</ele>
        <time>2025-06-08T10:20:32.000Z</time>
      </trkpt>
      <trkpt lat="47.88622" lon="6.95268">
        <ele>510</ele>
        <time>2025-06-08T10:20:37.000Z</time>
      </trkpt>
      <trkpt lat="47.88623" lon="6.95217">
        <ele>517</ele>
        <time>2025-06-08T10:21:08.000Z</time>
      </trkpt>
      <trkpt lat="47.88629" lon="6.95211">
        <ele>521</ele>
        <time>2025-06-08T10:21:27.000Z</time>
      </trkpt>
      <trkpt lat="47.88635" lon="6.95219">
        <ele>521</ele>
        <time>2025-06-08T10:21:32.000Z</time>
      </trkpt>
      <trkpt lat="47.88641" lon="6.95234">
        <ele>522</ele>
        <time>2025-06-08T10:21:41.000Z</time>
      </trkpt>
      <trkpt lat="47.88652" lon="6.95285">
        <ele>526</ele>
        <time>2025-06-08T10:22:16.000Z</time>
      </trkpt>
      <trkpt lat="47.88658" lon="6.95288">
        <ele>527</ele>
        <time>2025-06-08T10:22:25.000Z</time>
      </trkpt>
      <trkpt lat="47.88662" lon="6.953">
        <ele>529</ele>
        <time>2025-06-08T10:22:37.000Z</time>
      </trkpt>
      <trkpt lat="47.88683" lon="6.95338">
        <ele>533</ele>
        <time>2025-06-08T10:23:06.000Z</time>
      </trkpt>
      <trkpt lat="47.88685" lon="6.95345">
        <ele>533</ele>
        <time>2025-06-08T10:23:10.000Z</time>
      </trkpt>
      <trkpt lat="47.88685" lon="6.95358">
        <ele>534</ele>
        <time>2025-06-08T10:23:21.000Z</time>
      </trkpt>
      <trkpt lat="47.88692" lon="6.95366">
        <ele>538</ele>
        <time>2025-06-08T10:23:38.000Z</time>
      </trkpt>
      <trkpt lat="47.88695" lon="6.95379">
        <ele>540</ele>
        <time>2025-06-08T10:23:47.000Z</time>
      </trkpt>
      <trkpt lat="47.88698" lon="6.95376">
        <ele>543</ele>
        <time>2025-06-08T10:24:06.000Z</time>
      </trkpt>
      <trkpt lat="47.88695" lon="6.95366">
        <ele>545</ele>
        <time>2025-06-08T10:24:14.000Z</time>
      </trkpt>
      <trkpt lat="47.88701" lon="6.9537">
        <ele>546</ele>
        <time>2025-06-08T10:24:24.000Z</time>
      </trkpt>
      <trkpt lat="47.88705" lon="6.95373">
        <ele>547</ele>
        <time>2025-06-08T10:24:28.000Z</time>
      </trkpt>
      <trkpt lat="47.88713" lon="6.95389">
        <ele>550</ele>
        <time>2025-06-08T10:24:40.000Z</time>
      </trkpt>
      <trkpt lat="47.88729" lon="6.95393">
        <ele>550</ele>
        <time>2025-06-08T10:24:54.000Z</time>
      </trkpt>
      <trkpt lat="47.88737" lon="6.95396">
        <ele>551</ele>
        <time>2025-06-08T10:24:59.000Z</time>
      </trkpt>
      <trkpt lat="47.88749" lon="6.95411">
        <ele>551</ele>
        <time>2025-06-08T10:25:11.000Z</time>
      </trkpt>
      <trkpt lat="47.88752" lon="6.95417">
        <ele>552</ele>
        <time>2025-06-08T10:25:16.000Z</time>
      </trkpt>
      <trkpt lat="47.88758" lon="6.95423">
        <ele>553</ele>
        <time>2025-06-08T10:25:21.000Z</time>
      </trkpt>
      <trkpt lat="47.8876" lon="6.95432">
        <ele>553</ele>
        <time>2025-06-08T10:25:24.000Z</time>
      </trkpt>
      <trkpt lat="47.88761" lon="6.9544">
        <ele>554</ele>
        <time>2025-06-08T10:25:28.000Z</time>
      </trkpt>
      <trkpt lat="47.88769" lon="6.95449">
        <ele>555</ele>
        <time>2025-06-08T10:25:40.000Z</time>
      </trkpt>
      <trkpt lat="47.88776" lon="6.95461">
        <ele>557</ele>
        <time>2025-06-08T10:25:50.000Z</time>
      </trkpt>
      <trkpt lat="47.88777" lon="6.95468">
        <ele>557</ele>
        <time>2025-06-08T10:25:54.000Z</time>
      </trkpt>
      <trkpt lat="47.88782" lon="6.95488">
        <ele>559</ele>
        <time>2025-06-08T10:26:04.000Z</time>
      </trkpt>
      <trkpt lat="47.88807" lon="6.95508">
        <ele>571</ele>
        <time>2025-06-08T10:26:58.000Z</time>
      </trkpt>
      <trkpt lat="47.8882" lon="6.9552">
        <ele>573</ele>
        <time>2025-06-08T10:27:15.000Z</time>
      </trkpt>
      <trkpt lat="47.88824" lon="6.95525">
        <ele>573</ele>
        <time>2025-06-08T10:27:19.000Z</time>
      </trkpt>
      <trkpt lat="47.8883" lon="6.95529">
        <ele>575</ele>
        <time>2025-06-08T10:27:28.000Z</time>
      </trkpt>
      <trkpt lat="47.88835" lon="6.95532">
        <ele>575</ele>
        <time>2025-06-08T10:27:32.000Z</time>
      </trkpt>
      <trkpt lat="47.88842" lon="6.95542">
        <ele>576</ele>
        <time>2025-06-08T10:27:39.000Z</time>
      </trkpt>
      <trkpt lat="47.88858" lon="6.95558">
        <ele>578</ele>
        <time>2025-06-08T10:27:56.000Z</time>
      </trkpt>
      <trkpt lat="47.88868" lon="6.95567">
        <ele>579</ele>
        <time>2025-06-08T10:28:07.000Z</time>
      </trkpt>
      <trkpt lat="47.88897" lon="6.95596">
        <ele>583</ele>
        <time>2025-06-08T10:28:39.000Z</time>
      </trkpt>
      <trkpt lat="47.88901" lon="6.95599">
        <ele>584</ele>
        <time>2025-06-08T10:28:43.000Z</time>
      </trkpt>
      <trkpt lat="47.88906" lon="6.95604">
        <ele>585</ele>
        <time>2025-06-08T10:28:51.000Z</time>
      </trkpt>
      <trkpt lat="47.88939" lon="6.95632">
        <ele>589</ele>
        <time>2025-06-08T10:29:23.000Z</time>
      </trkpt>
      <trkpt lat="47.88945" lon="6.95634">
        <ele>589</ele>
        <time>2025-06-08T10:29:27.000Z</time>
      </trkpt>
      <trkpt lat="47.88951" lon="6.95634">
        <ele>589</ele>
        <time>2025-06-08T10:29:30.000Z</time>
      </trkpt>
      <trkpt lat="47.88954" lon="6.9563">
        <ele>590</ele>
        <time>2025-06-08T10:29:33.000Z</time>
      </trkpt>
      <trkpt lat="47.88959" lon="6.95622">
        <ele>590</ele>
        <time>2025-06-08T10:29:39.000Z</time>
      </trkpt>
      <trkpt lat="47.88959" lon="6.95618">
        <ele>596</ele>
        <time>2025-06-08T10:30:11.000Z</time>
      </trkpt>
      <trkpt lat="47.88939" lon="6.95585">
        <ele>599</ele>
        <time>2025-06-08T10:30:41.000Z</time>
      </trkpt>
      <trkpt lat="47.88921" lon="6.95555">
        <ele>604</ele>
        <time>2025-06-08T10:31:12.000Z</time>
      </trkpt>
      <trkpt lat="47.88914" lon="6.95539">
        <ele>610</ele>
        <time>2025-06-08T10:31:39.000Z</time>
      </trkpt>
      <trkpt lat="47.88912" lon="6.95529">
        <ele>612</ele>
        <time>2025-06-08T10:31:47.000Z</time>
      </trkpt>
      <trkpt lat="47.88906" lon="6.95514">
        <ele>614</ele>
        <time>2025-06-08T10:31:57.000Z</time>
      </trkpt>
      <trkpt lat="47.88899" lon="6.95504">
        <ele>613</ele>
        <time>2025-06-08T10:32:05.000Z</time>
      </trkpt>
      <trkpt lat="47.88892" lon="6.95495">
        <ele>614</ele>
        <time>2025-06-08T10:32:16.000Z</time>
      </trkpt>
      <trkpt lat="47.8889" lon="6.95485">
        <ele>615</ele>
        <time>2025-06-08T10:32:21.000Z</time>
      </trkpt>
      <trkpt lat="47.88892" lon="6.9548">
        <ele>618</ele>
        <time>2025-06-08T10:32:30.000Z</time>
      </trkpt>
      <trkpt lat="47.88889" lon="6.95473">
        <ele>618</ele>
        <time>2025-06-08T10:32:40.000Z</time>
      </trkpt>
      <trkpt lat="47.88886" lon="6.95467">
        <ele>620</ele>
        <time>2025-06-08T10:32:50.000Z</time>
      </trkpt>
      <trkpt lat="47.8887" lon="6.9542">
        <ele>626</ele>
        <time>2025-06-08T10:33:25.000Z</time>
      </trkpt>
      <trkpt lat="47.88859" lon="6.95373">
        <ele>632</ele>
        <time>2025-06-08T10:33:57.000Z</time>
      </trkpt>
      <trkpt lat="47.88854" lon="6.9536">
        <ele>633</ele>
        <time>2025-06-08T10:34:04.000Z</time>
      </trkpt>
      <trkpt lat="47.88853" lon="6.9535">
        <ele>634</ele>
        <time>2025-06-08T10:34:10.000Z</time>
      </trkpt>
      <trkpt lat="47.88854" lon="6.95344">
        <ele>635</ele>
        <time>2025-06-08T10:34:15.000Z</time>
      </trkpt>
      <trkpt lat="47.88859" lon="6.95335">
        <ele>637</ele>
        <time>2025-06-08T10:34:21.000Z</time>
      </trkpt>
      <trkpt lat="47.88855" lon="6.9533">
        <ele>639</ele>
        <time>2025-06-08T10:34:29.000Z</time>
      </trkpt>
      <trkpt lat="47.88855" lon="6.95322">
        <ele>640</ele>
        <time>2025-06-08T10:34:33.000Z</time>
      </trkpt>
      <trkpt lat="47.88862" lon="6.95337">
        <ele>643</ele>
        <time>2025-06-08T10:34:50.000Z</time>
      </trkpt>
      <trkpt lat="47.88868" lon="6.95339">
        <ele>643</ele>
        <time>2025-06-08T10:34:53.000Z</time>
      </trkpt>
      <trkpt lat="47.88874" lon="6.9534">
        <ele>645</ele>
        <time>2025-06-08T10:35:01.000Z</time>
      </trkpt>
      <trkpt lat="47.88878" lon="6.95345">
        <ele>646</ele>
        <time>2025-06-08T10:35:04.000Z</time>
      </trkpt>
      <trkpt lat="47.8888" lon="6.95356">
        <ele>647</ele>
        <time>2025-06-08T10:35:12.000Z</time>
      </trkpt>
      <trkpt lat="47.88903" lon="6.95374">
        <ele>651</ele>
        <time>2025-06-08T10:35:30.000Z</time>
      </trkpt>
      <trkpt lat="47.88907" lon="6.95385">
        <ele>651</ele>
        <time>2025-06-08T10:35:36.000Z</time>
      </trkpt>
      <trkpt lat="47.88911" lon="6.95392">
        <ele>652</ele>
        <time>2025-06-08T10:35:45.000Z</time>
      </trkpt>
      <trkpt lat="47.88938" lon="6.9542">
        <ele>655</ele>
        <time>2025-06-08T10:36:15.000Z</time>
      </trkpt>
      <trkpt lat="47.88956" lon="6.95435">
        <ele>660</ele>
        <time>2025-06-08T10:36:43.000Z</time>
      </trkpt>
      <trkpt lat="47.88963" lon="6.95436">
        <ele>661</ele>
        <time>2025-06-08T10:36:47.000Z</time>
      </trkpt>
      <trkpt lat="47.88979" lon="6.95446">
        <ele>663</ele>
        <time>2025-06-08T10:37:02.000Z</time>
      </trkpt>
      <trkpt lat="47.88985" lon="6.95442">
        <ele>664</ele>
        <time>2025-06-08T10:37:09.000Z</time>
      </trkpt>
      <trkpt lat="47.88988" lon="6.95438">
        <ele>668</ele>
        <time>2025-06-08T10:37:34.000Z</time>
      </trkpt>
      <trkpt lat="47.88963" lon="6.95404">
        <ele>673</ele>
        <time>2025-06-08T10:38:10.000Z</time>
      </trkpt>
      <trkpt lat="47.88951" lon="6.95384">
        <ele>676</ele>
        <time>2025-06-08T10:38:27.000Z</time>
      </trkpt>
      <trkpt lat="47.88948" lon="6.95374">
        <ele>678</ele>
        <time>2025-06-08T10:38:35.000Z</time>
      </trkpt>
      <trkpt lat="47.88948" lon="6.95368">
        <ele>679</ele>
        <time>2025-06-08T10:38:39.000Z</time>
      </trkpt>
      <trkpt lat="47.88944" lon="6.95362">
        <ele>679</ele>
        <time>2025-06-08T10:38:44.000Z</time>
      </trkpt>
      <trkpt lat="47.88944" lon="6.95353">
        <ele>680</ele>
        <time>2025-06-08T10:38:50.000Z</time>
      </trkpt>
      <trkpt lat="47.88941" lon="6.95345">
        <ele>681</ele>
        <time>2025-06-08T10:38:54.000Z</time>
      </trkpt>
      <trkpt lat="47.88937" lon="6.95341">
        <ele>682</ele>
        <time>2025-06-08T10:38:58.000Z</time>
      </trkpt>
      <trkpt lat="47.88934" lon="6.95326">
        <ele>683</ele>
        <time>2025-06-08T10:39:09.000Z</time>
      </trkpt>
      <trkpt lat="47.88931" lon="6.95319">
        <ele>684</ele>
        <time>2025-06-08T10:39:13.000Z</time>
      </trkpt>
      <trkpt lat="47.88932" lon="6.95312">
        <ele>685</ele>
        <time>2025-06-08T10:39:17.000Z</time>
      </trkpt>
      <trkpt lat="47.88929" lon="6.95307">
        <ele>685</ele>
        <time>2025-06-08T10:39:21.000Z</time>
      </trkpt>
      <trkpt lat="47.88928" lon="6.95299">
        <ele>686</ele>
        <time>2025-06-08T10:39:25.000Z</time>
      </trkpt>
      <trkpt lat="47.88926" lon="6.95291">
        <ele>687</ele>
        <time>2025-06-08T10:39:33.000Z</time>
      </trkpt>
      <trkpt lat="47.88927" lon="6.95284">
        <ele>688</ele>
        <time>2025-06-08T10:39:37.000Z</time>
      </trkpt>
      <trkpt lat="47.88925" lon="6.95274">
        <ele>689</ele>
        <time>2025-06-08T10:39:43.000Z</time>
      </trkpt>
      <trkpt lat="47.88926" lon="6.9526">
        <ele>693</ele>
        <time>2025-06-08T10:39:54.000Z</time>
      </trkpt>
      <trkpt lat="47.88925" lon="6.9525">
        <ele>694</ele>
        <time>2025-06-08T10:40:00.000Z</time>
      </trkpt>
      <trkpt lat="47.88922" lon="6.95244">
        <ele>694</ele>
        <time>2025-06-08T10:40:05.000Z</time>
      </trkpt>
      <trkpt lat="47.88923" lon="6.95237">
        <ele>694</ele>
        <time>2025-06-08T10:40:09.000Z</time>
      </trkpt>
      <trkpt lat="47.88925" lon="6.95225">
        <ele>696</ele>
        <time>2025-06-08T10:40:17.000Z</time>
      </trkpt>
      <trkpt lat="47.88928" lon="6.9522">
        <ele>696</ele>
        <time>2025-06-08T10:40:20.000Z</time>
      </trkpt>
      <trkpt lat="47.88926" lon="6.95211">
        <ele>699</ele>
        <time>2025-06-08T10:40:29.000Z</time>
      </trkpt>
      <trkpt lat="47.88925" lon="6.95203">
        <ele>699</ele>
        <time>2025-06-08T10:40:33.000Z</time>
      </trkpt>
      <trkpt lat="47.8892" lon="6.95164">
        <ele>705</ele>
        <time>2025-06-08T10:41:04.000Z</time>
      </trkpt>
      <trkpt lat="47.88923" lon="6.95116">
        <ele>712</ele>
        <time>2025-06-08T10:41:39.000Z</time>
      </trkpt>
      <trkpt lat="47.88925" lon="6.95105">
        <ele>713</ele>
        <time>2025-06-08T10:41:47.000Z</time>
      </trkpt>
      <trkpt lat="47.88926" lon="6.95097">
        <ele>714</ele>
        <time>2025-06-08T10:41:53.000Z</time>
      </trkpt>
      <trkpt lat="47.88926" lon="6.95091">
        <ele>714</ele>
        <time>2025-06-08T10:41:57.000Z</time>
      </trkpt>
      <trkpt lat="47.88932" lon="6.95083">
        <ele>716</ele>
        <time>2025-06-08T10:42:05.000Z</time>
      </trkpt>
      <trkpt lat="47.88936" lon="6.95067">
        <ele>719</ele>
        <time>2025-06-08T10:42:17.000Z</time>
      </trkpt>
      <trkpt lat="47.8894" lon="6.9504">
        <ele>724</ele>
        <time>2025-06-08T10:42:39.000Z</time>
      </trkpt>
      <trkpt lat="47.88942" lon="6.95033">
        <ele>725</ele>
        <time>2025-06-08T10:42:43.000Z</time>
      </trkpt>
      <trkpt lat="47.88948" lon="6.95027">
        <ele>726</ele>
        <time>2025-06-08T10:42:49.000Z</time>
      </trkpt>
      <trkpt lat="47.88951" lon="6.95022">
        <ele>726</ele>
        <time>2025-06-08T10:42:53.000Z</time>
      </trkpt>
      <trkpt lat="47.88966" lon="6.94987">
        <ele>731</ele>
        <time>2025-06-08T10:43:24.000Z</time>
      </trkpt>
      <trkpt lat="47.88973" lon="6.94975">
        <ele>735</ele>
        <time>2025-06-08T10:43:37.000Z</time>
      </trkpt>
      <trkpt lat="47.88981" lon="6.94965">
        <ele>737</ele>
        <time>2025-06-08T10:43:49.000Z</time>
      </trkpt>
      <trkpt lat="47.88991" lon="6.94959">
        <ele>740</ele>
        <time>2025-06-08T10:44:01.000Z</time>
      </trkpt>
      <trkpt lat="47.88994" lon="6.94953">
        <ele>742</ele>
        <time>2025-06-08T10:44:09.000Z</time>
      </trkpt>
      <trkpt lat="47.88998" lon="6.94948">
        <ele>743</ele>
        <time>2025-06-08T10:44:13.000Z</time>
      </trkpt>
      <trkpt lat="47.89003" lon="6.94948">
        <ele>745</ele>
        <time>2025-06-08T10:44:17.000Z</time>
      </trkpt>
      <trkpt lat="47.89007" lon="6.94944">
        <ele>745</ele>
        <time>2025-06-08T10:44:20.000Z</time>
      </trkpt>
      <trkpt lat="47.8901" lon="6.94938">
        <ele>746</ele>
        <time>2025-06-08T10:44:24.000Z</time>
      </trkpt>
      <trkpt lat="47.89016" lon="6.94931">
        <ele>747</ele>
        <time>2025-06-08T10:44:33.000Z</time>
      </trkpt>
      <trkpt lat="47.89024" lon="6.9492">
        <ele>747</ele>
        <time>2025-06-08T10:44:41.000Z</time>
      </trkpt>
      <trkpt lat="47.89029" lon="6.94911">
        <ele>749</ele>
        <time>2025-06-08T10:44:49.000Z</time>
      </trkpt>
      <trkpt lat="47.89034" lon="6.9491">
        <ele>749</ele>
        <time>2025-06-08T10:44:54.000Z</time>
      </trkpt>
      <trkpt lat="47.89038" lon="6.949">
        <ele>752</ele>
        <time>2025-06-08T10:45:03.000Z</time>
      </trkpt>
      <trkpt lat="47.89044" lon="6.94896">
        <ele>753</ele>
        <time>2025-06-08T10:45:09.000Z</time>
      </trkpt>
      <trkpt lat="47.8905" lon="6.94878">
        <ele>757</ele>
        <time>2025-06-08T10:45:27.000Z</time>
      </trkpt>
      <trkpt lat="47.89052" lon="6.9489">
        <ele>759</ele>
        <time>2025-06-08T10:45:35.000Z</time>
      </trkpt>
      <trkpt lat="47.89051" lon="6.94913">
        <ele>763</ele>
        <time>2025-06-08T10:45:50.000Z</time>
      </trkpt>
      <trkpt lat="47.89052" lon="6.94925">
        <ele>765</ele>
        <time>2025-06-08T10:46:00.000Z</time>
      </trkpt>
      <trkpt lat="47.8906" lon="6.94941">
        <ele>767</ele>
        <time>2025-06-08T10:46:13.000Z</time>
      </trkpt>
      <trkpt lat="47.89058" lon="6.9495">
        <ele>768</ele>
        <time>2025-06-08T10:46:17.000Z</time>
      </trkpt>
      <trkpt lat="47.8906" lon="6.94968">
        <ele>771</ele>
        <time>2025-06-08T10:46:27.000Z</time>
      </trkpt>
      <trkpt lat="47.89058" lon="6.94978">
        <ele>772</ele>
        <time>2025-06-08T10:46:35.000Z</time>
      </trkpt>
      <trkpt lat="47.89059" lon="6.94986">
        <ele>773</ele>
        <time>2025-06-08T10:46:39.000Z</time>
      </trkpt>
      <trkpt lat="47.89066" lon="6.94985">
        <ele>774</ele>
        <time>2025-06-08T10:46:48.000Z</time>
      </trkpt>
      <trkpt lat="47.89082" lon="6.94956">
        <ele>779</ele>
        <time>2025-06-08T10:47:19.000Z</time>
      </trkpt>
      <trkpt lat="47.89086" lon="6.94949">
        <ele>782</ele>
        <time>2025-06-08T10:47:33.000Z</time>
      </trkpt>
      <trkpt lat="47.89095" lon="6.94932">
        <ele>784</ele>
        <time>2025-06-08T10:47:48.000Z</time>
      </trkpt>
      <trkpt lat="47.89098" lon="6.94928">
        <ele>784</ele>
        <time>2025-06-08T10:47:52.000Z</time>
      </trkpt>
      <trkpt lat="47.89096" lon="6.94915">
        <ele>786</ele>
        <time>2025-06-08T10:48:26.000Z</time>
      </trkpt>
      <trkpt lat="47.89103" lon="6.94921">
        <ele>784</ele>
        <time>2025-06-08T10:48:47.000Z</time>
      </trkpt>
      <trkpt lat="47.89102" lon="6.94918">
        <ele>785</ele>
        <time>2025-06-08T10:49:45.000Z</time>
      </trkpt>
      <trkpt lat="47.89104" lon="6.94913">
        <ele>786</ele>
        <time>2025-06-08T10:49:49.000Z</time>
      </trkpt>
      <trkpt lat="47.89108" lon="6.9491">
        <ele>786</ele>
        <time>2025-06-08T10:49:52.000Z</time>
      </trkpt>
      <trkpt lat="47.89111" lon="6.94903">
        <ele>786</ele>
        <time>2025-06-08T10:49:56.000Z</time>
      </trkpt>
      <trkpt lat="47.89115" lon="6.94897">
        <ele>786</ele>
        <time>2025-06-08T10:50:00.000Z</time>
      </trkpt>
      <trkpt lat="47.89121" lon="6.94883">
        <ele>787</ele>
        <time>2025-06-08T10:50:35.000Z</time>
      </trkpt>
      <trkpt lat="47.89129" lon="6.94865">
        <ele>789</ele>
        <time>2025-06-08T10:50:48.000Z</time>
      </trkpt>
      <trkpt lat="47.89131" lon="6.9486">
        <ele>790</ele>
        <time>2025-06-08T10:50:53.000Z</time>
      </trkpt>
      <trkpt lat="47.89137" lon="6.94848">
        <ele>791</ele>
        <time>2025-06-08T10:51:03.000Z</time>
      </trkpt>
      <trkpt lat="47.89139" lon="6.94841">
        <ele>792</ele>
        <time>2025-06-08T10:51:08.000Z</time>
      </trkpt>
      <trkpt lat="47.89141" lon="6.94834">
        <ele>792</ele>
        <time>2025-06-08T10:51:14.000Z</time>
      </trkpt>
      <trkpt lat="47.89146" lon="6.94816">
        <ele>793</ele>
        <time>2025-06-08T10:51:30.000Z</time>
      </trkpt>
      <trkpt lat="47.89145" lon="6.94805">
        <ele>795</ele>
        <time>2025-06-08T10:51:38.000Z</time>
      </trkpt>
      <trkpt lat="47.89148" lon="6.94798">
        <ele>796</ele>
        <time>2025-06-08T10:51:42.000Z</time>
      </trkpt>
      <trkpt lat="47.89153" lon="6.94794">
        <ele>795</ele>
        <time>2025-06-08T10:51:45.000Z</time>
      </trkpt>
      <trkpt lat="47.89154" lon="6.94786">
        <ele>796</ele>
        <time>2025-06-08T10:51:49.000Z</time>
      </trkpt>
      <trkpt lat="47.89156" lon="6.94771">
        <ele>797</ele>
        <time>2025-06-08T10:51:56.000Z</time>
      </trkpt>
      <trkpt lat="47.89159" lon="6.94757">
        <ele>798</ele>
        <time>2025-06-08T10:52:05.000Z</time>
      </trkpt>
      <trkpt lat="47.89161" lon="6.94741">
        <ele>800</ele>
        <time>2025-06-08T10:52:16.000Z</time>
      </trkpt>
      <trkpt lat="47.89162" lon="6.9473">
        <ele>800</ele>
        <time>2025-06-08T10:52:22.000Z</time>
      </trkpt>
      <trkpt lat="47.89165" lon="6.94724">
        <ele>800</ele>
        <time>2025-06-08T10:52:26.000Z</time>
      </trkpt>
      <trkpt lat="47.89167" lon="6.94716">
        <ele>800</ele>
        <time>2025-06-08T10:52:30.000Z</time>
      </trkpt>
      <trkpt lat="47.89169" lon="6.9469">
        <ele>803</ele>
        <time>2025-06-08T10:52:44.000Z</time>
      </trkpt>
      <trkpt lat="47.89169" lon="6.94681">
        <ele>803</ele>
        <time>2025-06-08T10:52:49.000Z</time>
      </trkpt>
      <trkpt lat="47.89167" lon="6.94648">
        <ele>808</ele>
        <time>2025-06-08T10:53:23.000Z</time>
      </trkpt>
      <trkpt lat="47.89168" lon="6.94662">
        <ele>809</ele>
        <time>2025-06-08T10:53:43.000Z</time>
      </trkpt>
      <trkpt lat="47.89174" lon="6.94656">
        <ele>809</ele>
        <time>2025-06-08T10:53:47.000Z</time>
      </trkpt>
      <trkpt lat="47.89188" lon="6.94659">
        <ele>808</ele>
        <time>2025-06-08T10:53:51.000Z</time>
      </trkpt>
      <trkpt lat="47.89191" lon="6.94654">
        <ele>811</ele>
        <time>2025-06-08T10:54:04.000Z</time>
      </trkpt>
      <trkpt lat="47.89219" lon="6.94635">
        <ele>815</ele>
        <time>2025-06-08T10:54:29.000Z</time>
      </trkpt>
      <trkpt lat="47.89225" lon="6.94628">
        <ele>816</ele>
        <time>2025-06-08T10:54:37.000Z</time>
      </trkpt>
      <trkpt lat="47.89229" lon="6.94623">
        <ele>816</ele>
        <time>2025-06-08T10:54:41.000Z</time>
      </trkpt>
      <trkpt lat="47.89253" lon="6.94585">
        <ele>818</ele>
        <time>2025-06-08T10:55:09.000Z</time>
      </trkpt>
      <trkpt lat="47.89256" lon="6.94577">
        <ele>819</ele>
        <time>2025-06-08T10:55:19.000Z</time>
      </trkpt>
      <trkpt lat="47.89269" lon="6.94532">
        <ele>823</ele>
        <time>2025-06-08T10:55:50.000Z</time>
      </trkpt>
      <trkpt lat="47.89282" lon="6.94487">
        <ele>826</ele>
        <time>2025-06-08T10:56:23.000Z</time>
      </trkpt>
      <trkpt lat="47.89284" lon="6.94481">
        <ele>827</ele>
        <time>2025-06-08T10:56:27.000Z</time>
      </trkpt>
      <trkpt lat="47.89287" lon="6.94465">
        <ele>828</ele>
        <time>2025-06-08T10:56:39.000Z</time>
      </trkpt>
      <trkpt lat="47.8929" lon="6.94458">
        <ele>829</ele>
        <time>2025-06-08T10:56:43.000Z</time>
      </trkpt>
      <trkpt lat="47.89294" lon="6.94427">
        <ele>832</ele>
        <time>2025-06-08T10:56:59.000Z</time>
      </trkpt>
      <trkpt lat="47.89298" lon="6.9442">
        <ele>833</ele>
        <time>2025-06-08T10:57:03.000Z</time>
      </trkpt>
      <trkpt lat="47.89301" lon="6.94408">
        <ele>833</ele>
        <time>2025-06-08T10:57:09.000Z</time>
      </trkpt>
      <trkpt lat="47.89301" lon="6.944">
        <ele>834</ele>
        <time>2025-06-08T10:57:14.000Z</time>
      </trkpt>
      <trkpt lat="47.89304" lon="6.94395">
        <ele>835</ele>
        <time>2025-06-08T10:57:18.000Z</time>
      </trkpt>
      <trkpt lat="47.89306" lon="6.94389">
        <ele>836</ele>
        <time>2025-06-08T10:57:21.000Z</time>
      </trkpt>
      <trkpt lat="47.89314" lon="6.9438">
        <ele>837</ele>
        <time>2025-06-08T10:57:27.000Z</time>
      </trkpt>
      <trkpt lat="47.89316" lon="6.94373">
        <ele>837</ele>
        <time>2025-06-08T10:57:31.000Z</time>
      </trkpt>
      <trkpt lat="47.89323" lon="6.94364">
        <ele>839</ele>
        <time>2025-06-08T10:57:39.000Z</time>
      </trkpt>
      <trkpt lat="47.89325" lon="6.94357">
        <ele>840</ele>
        <time>2025-06-08T10:57:45.000Z</time>
      </trkpt>
      <trkpt lat="47.89332" lon="6.94345">
        <ele>843</ele>
        <time>2025-06-08T10:57:55.000Z</time>
      </trkpt>
      <trkpt lat="47.89333" lon="6.94337">
        <ele>844</ele>
        <time>2025-06-08T10:58:00.000Z</time>
      </trkpt>
      <trkpt lat="47.89337" lon="6.94333">
        <ele>844</ele>
        <time>2025-06-08T10:58:02.000Z</time>
      </trkpt>
      <trkpt lat="47.89337" lon="6.94327">
        <ele>844</ele>
        <time>2025-06-08T10:58:07.000Z</time>
      </trkpt>
      <trkpt lat="47.89337" lon="6.94317">
        <ele>845</ele>
        <time>2025-06-08T10:58:16.000Z</time>
      </trkpt>
      <trkpt lat="47.89349" lon="6.94291">
        <ele>846</ele>
        <time>2025-06-08T10:58:28.000Z</time>
      </trkpt>
      <trkpt lat="47.89348" lon="6.94283">
        <ele>846</ele>
        <time>2025-06-08T10:58:32.000Z</time>
      </trkpt>
      <trkpt lat="47.89357" lon="6.94265">
        <ele>847</ele>
        <time>2025-06-08T10:58:47.000Z</time>
      </trkpt>
      <trkpt lat="47.89361" lon="6.94259">
        <ele>848</ele>
        <time>2025-06-08T10:58:52.000Z</time>
      </trkpt>
      <trkpt lat="47.89365" lon="6.94255">
        <ele>848</ele>
        <time>2025-06-08T10:58:56.000Z</time>
      </trkpt>
      <trkpt lat="47.89368" lon="6.94243">
        <ele>850</ele>
        <time>2025-06-08T10:59:05.000Z</time>
      </trkpt>
      <trkpt lat="47.89377" lon="6.94237">
        <ele>852</ele>
        <time>2025-06-08T10:59:11.000Z</time>
      </trkpt>
      <trkpt lat="47.89381" lon="6.94232">
        <ele>852</ele>
        <time>2025-06-08T10:59:14.000Z</time>
      </trkpt>
      <trkpt lat="47.89385" lon="6.94219">
        <ele>854</ele>
        <time>2025-06-08T10:59:23.000Z</time>
      </trkpt>
      <trkpt lat="47.89386" lon="6.94212">
        <ele>856</ele>
        <time>2025-06-08T10:59:31.000Z</time>
      </trkpt>
      <trkpt lat="47.89391" lon="6.94199">
        <ele>857</ele>
        <time>2025-06-08T10:59:37.000Z</time>
      </trkpt>
      <trkpt lat="47.89389" lon="6.94188">
        <ele>859</ele>
        <time>2025-06-08T10:59:44.000Z</time>
      </trkpt>
      <trkpt lat="47.89391" lon="6.94169">
        <ele>860</ele>
        <time>2025-06-08T10:59:55.000Z</time>
      </trkpt>
      <trkpt lat="47.89397" lon="6.9416">
        <ele>861</ele>
        <time>2025-06-08T11:00:02.000Z</time>
      </trkpt>
      <trkpt lat="47.894" lon="6.94155">
        <ele>862</ele>
        <time>2025-06-08T11:00:06.000Z</time>
      </trkpt>
      <trkpt lat="47.89402" lon="6.94132">
        <ele>865</ele>
        <time>2025-06-08T11:00:22.000Z</time>
      </trkpt>
      <trkpt lat="47.89403" lon="6.94126">
        <ele>866</ele>
        <time>2025-06-08T11:00:25.000Z</time>
      </trkpt>
      <trkpt lat="47.8941" lon="6.9411">
        <ele>867</ele>
        <time>2025-06-08T11:00:37.000Z</time>
      </trkpt>
      <trkpt lat="47.89409" lon="6.94103">
        <ele>868</ele>
        <time>2025-06-08T11:00:40.000Z</time>
      </trkpt>
      <trkpt lat="47.8942" lon="6.94077">
        <ele>869</ele>
        <time>2025-06-08T11:00:54.000Z</time>
      </trkpt>
      <trkpt lat="47.8942" lon="6.9407">
        <ele>870</ele>
        <time>2025-06-08T11:00:59.000Z</time>
      </trkpt>
      <trkpt lat="47.89424" lon="6.94063">
        <ele>870</ele>
        <time>2025-06-08T11:01:02.000Z</time>
      </trkpt>
      <trkpt lat="47.89424" lon="6.94036">
        <ele>872</ele>
        <time>2025-06-08T11:01:17.000Z</time>
      </trkpt>
      <trkpt lat="47.89431" lon="6.94022">
        <ele>873</ele>
        <time>2025-06-08T11:01:26.000Z</time>
      </trkpt>
      <trkpt lat="47.89441" lon="6.94016">
        <ele>874</ele>
        <time>2025-06-08T11:01:32.000Z</time>
      </trkpt>
      <trkpt lat="47.89444" lon="6.94008">
        <ele>876</ele>
        <time>2025-06-08T11:01:40.000Z</time>
      </trkpt>
      <trkpt lat="47.89449" lon="6.94">
        <ele>878</ele>
        <time>2025-06-08T11:01:50.000Z</time>
      </trkpt>
      <trkpt lat="47.89454" lon="6.93992">
        <ele>879</ele>
        <time>2025-06-08T11:01:56.000Z</time>
      </trkpt>
      <trkpt lat="47.89458" lon="6.9399">
        <ele>879</ele>
        <time>2025-06-08T11:01:58.000Z</time>
      </trkpt>
      <trkpt lat="47.89463" lon="6.93986">
        <ele>880</ele>
        <time>2025-06-08T11:02:02.000Z</time>
      </trkpt>
      <trkpt lat="47.89468" lon="6.93984">
        <ele>880</ele>
        <time>2025-06-08T11:02:04.000Z</time>
      </trkpt>
      <trkpt lat="47.89473" lon="6.93983">
        <ele>881</ele>
        <time>2025-06-08T11:02:09.000Z</time>
      </trkpt>
      <trkpt lat="47.89479" lon="6.93982">
        <ele>881</ele>
        <time>2025-06-08T11:02:10.000Z</time>
      </trkpt>
      <trkpt lat="47.89489" lon="6.93975">
        <ele>882</ele>
        <time>2025-06-08T11:02:15.000Z</time>
      </trkpt>
      <trkpt lat="47.89493" lon="6.93972">
        <ele>883</ele>
        <time>2025-06-08T11:02:17.000Z</time>
      </trkpt>
      <trkpt lat="47.89502" lon="6.9397">
        <ele>885</ele>
        <time>2025-06-08T11:02:30.000Z</time>
      </trkpt>
      <trkpt lat="47.89506" lon="6.93972">
        <ele>886</ele>
        <time>2025-06-08T11:02:36.000Z</time>
      </trkpt>
      <trkpt lat="47.8951" lon="6.93968">
        <ele>887</ele>
        <time>2025-06-08T11:02:42.000Z</time>
      </trkpt>
      <trkpt lat="47.89512" lon="6.93961">
        <ele>888</ele>
        <time>2025-06-08T11:02:46.000Z</time>
      </trkpt>
      <trkpt lat="47.8951" lon="6.93954">
        <ele>889</ele>
        <time>2025-06-08T11:02:49.000Z</time>
      </trkpt>
      <trkpt lat="47.89515" lon="6.93952">
        <ele>888</ele>
        <time>2025-06-08T11:02:58.000Z</time>
      </trkpt>
      <trkpt lat="47.89538" lon="6.93943">
        <ele>891</ele>
        <time>2025-06-08T11:03:23.000Z</time>
      </trkpt>
      <trkpt lat="47.89546" lon="6.9394">
        <ele>892</ele>
        <time>2025-06-08T11:03:31.000Z</time>
      </trkpt>
      <trkpt lat="47.89558" lon="6.93933">
        <ele>894</ele>
        <time>2025-06-08T11:03:43.000Z</time>
      </trkpt>
      <trkpt lat="47.89555" lon="6.93926">
        <ele>894</ele>
        <time>2025-06-08T11:03:47.000Z</time>
      </trkpt>
      <trkpt lat="47.89559" lon="6.93921">
        <ele>895</ele>
        <time>2025-06-08T11:03:51.000Z</time>
      </trkpt>
      <trkpt lat="47.89562" lon="6.93918">
        <ele>896</ele>
        <time>2025-06-08T11:03:56.000Z</time>
      </trkpt>
      <trkpt lat="47.89578" lon="6.93919">
        <ele>897</ele>
        <time>2025-06-08T11:04:07.000Z</time>
      </trkpt>
      <trkpt lat="47.896" lon="6.93917">
        <ele>898</ele>
        <time>2025-06-08T11:04:16.000Z</time>
      </trkpt>
      <trkpt lat="47.89605" lon="6.93912">
        <ele>899</ele>
        <time>2025-06-08T11:04:21.000Z</time>
      </trkpt>
      <trkpt lat="47.89609" lon="6.93912">
        <ele>900</ele>
        <time>2025-06-08T11:04:24.000Z</time>
      </trkpt>
      <trkpt lat="47.89616" lon="6.93908">
        <ele>902</ele>
        <time>2025-06-08T11:04:38.000Z</time>
      </trkpt>
      <trkpt lat="47.89624" lon="6.93907">
        <ele>902</ele>
        <time>2025-06-08T11:04:42.000Z</time>
      </trkpt>
      <trkpt lat="47.89635" lon="6.9391">
        <ele>904</ele>
        <time>2025-06-08T11:04:50.000Z</time>
      </trkpt>
      <trkpt lat="47.89651" lon="6.93916">
        <ele>907</ele>
        <time>2025-06-08T11:05:05.000Z</time>
      </trkpt>
      <trkpt lat="47.89656" lon="6.93915">
        <ele>908</ele>
        <time>2025-06-08T11:05:11.000Z</time>
      </trkpt>
      <trkpt lat="47.8966" lon="6.9391">
        <ele>908</ele>
        <time>2025-06-08T11:05:16.000Z</time>
      </trkpt>
      <trkpt lat="47.89664" lon="6.93917">
        <ele>907</ele>
        <time>2025-06-08T11:05:19.000Z</time>
      </trkpt>
      <trkpt lat="47.89672" lon="6.93913">
        <ele>910</ele>
        <time>2025-06-08T11:05:29.000Z</time>
      </trkpt>
      <trkpt lat="47.89675" lon="6.93907">
        <ele>910</ele>
        <time>2025-06-08T11:05:34.000Z</time>
      </trkpt>
      <trkpt lat="47.8969" lon="6.93893">
        <ele>915</ele>
        <time>2025-06-08T11:05:51.000Z</time>
      </trkpt>
      <trkpt lat="47.89693" lon="6.93888">
        <ele>915</ele>
        <time>2025-06-08T11:05:56.000Z</time>
      </trkpt>
      <trkpt lat="47.8969" lon="6.93872">
        <ele>916</ele>
        <time>2025-06-08T11:06:03.000Z</time>
      </trkpt>
      <trkpt lat="47.89685" lon="6.93866">
        <ele>917</ele>
        <time>2025-06-08T11:06:05.000Z</time>
      </trkpt>
      <trkpt lat="47.89685" lon="6.9386">
        <ele>918</ele>
        <time>2025-06-08T11:06:08.000Z</time>
      </trkpt>
      <trkpt lat="47.89687" lon="6.93854">
        <ele>918</ele>
        <time>2025-06-08T11:06:13.000Z</time>
      </trkpt>
      <trkpt lat="47.89684" lon="6.93826">
        <ele>919</ele>
        <time>2025-06-08T11:06:31.000Z</time>
      </trkpt>
      <trkpt lat="47.89677" lon="6.93791">
        <ele>923</ele>
        <time>2025-06-08T11:06:55.000Z</time>
      </trkpt>
      <trkpt lat="47.89663" lon="6.93774">
        <ele>925</ele>
        <time>2025-06-08T11:07:14.000Z</time>
      </trkpt>
      <trkpt lat="47.89656" lon="6.93744">
        <ele>929</ele>
        <time>2025-06-08T11:07:41.000Z</time>
      </trkpt>
      <trkpt lat="47.8965" lon="6.93738">
        <ele>930</ele>
        <time>2025-06-08T11:07:49.000Z</time>
      </trkpt>
      <trkpt lat="47.89644" lon="6.93733">
        <ele>932</ele>
        <time>2025-06-08T11:07:56.000Z</time>
      </trkpt>
      <trkpt lat="47.89645" lon="6.93726">
        <ele>932</ele>
        <time>2025-06-08T11:07:59.000Z</time>
      </trkpt>
      <trkpt lat="47.89637" lon="6.93683">
        <ele>937</ele>
        <time>2025-06-08T11:08:29.000Z</time>
      </trkpt>
      <trkpt lat="47.89632" lon="6.93671">
        <ele>939</ele>
        <time>2025-06-08T11:08:36.000Z</time>
      </trkpt>
      <trkpt lat="47.89629" lon="6.93666">
        <ele>939</ele>
        <time>2025-06-08T11:08:41.000Z</time>
      </trkpt>
      <trkpt lat="47.89625" lon="6.93657">
        <ele>940</ele>
        <time>2025-06-08T11:08:47.000Z</time>
      </trkpt>
      <trkpt lat="47.89622" lon="6.93643">
        <ele>941</ele>
        <time>2025-06-08T11:08:55.000Z</time>
      </trkpt>
      <trkpt lat="47.8962" lon="6.93637">
        <ele>942</ele>
        <time>2025-06-08T11:08:59.000Z</time>
      </trkpt>
      <trkpt lat="47.89618" lon="6.93626">
        <ele>944</ele>
        <time>2025-06-08T11:09:07.000Z</time>
      </trkpt>
      <trkpt lat="47.8961" lon="6.93614">
        <ele>945</ele>
        <time>2025-06-08T11:09:15.000Z</time>
      </trkpt>
      <trkpt lat="47.8961" lon="6.936">
        <ele>946</ele>
        <time>2025-06-08T11:09:24.000Z</time>
      </trkpt>
      <trkpt lat="47.89604" lon="6.93586">
        <ele>948</ele>
        <time>2025-06-08T11:09:34.000Z</time>
      </trkpt>
      <trkpt lat="47.89603" lon="6.93579">
        <ele>948</ele>
        <time>2025-06-08T11:09:38.000Z</time>
      </trkpt>
      <trkpt lat="47.89603" lon="6.93572">
        <ele>949</ele>
        <time>2025-06-08T11:09:41.000Z</time>
      </trkpt>
      <trkpt lat="47.89601" lon="6.93566">
        <ele>950</ele>
        <time>2025-06-08T11:09:45.000Z</time>
      </trkpt>
      <trkpt lat="47.89601" lon="6.93559">
        <ele>950</ele>
        <time>2025-06-08T11:09:48.000Z</time>
      </trkpt>
      <trkpt lat="47.89599" lon="6.93554">
        <ele>950</ele>
        <time>2025-06-08T11:09:51.000Z</time>
      </trkpt>
      <trkpt lat="47.89599" lon="6.93546">
        <ele>951</ele>
        <time>2025-06-08T11:09:55.000Z</time>
      </trkpt>
      <trkpt lat="47.89594" lon="6.93518">
        <ele>953</ele>
        <time>2025-06-08T11:10:11.000Z</time>
      </trkpt>
      <trkpt lat="47.89594" lon="6.93498">
        <ele>955</ele>
        <time>2025-06-08T11:10:23.000Z</time>
      </trkpt>
      <trkpt lat="47.89593" lon="6.93488">
        <ele>956</ele>
        <time>2025-06-08T11:10:31.000Z</time>
      </trkpt>
      <trkpt lat="47.89594" lon="6.93481">
        <ele>957</ele>
        <time>2025-06-08T11:10:35.000Z</time>
      </trkpt>
      <trkpt lat="47.89594" lon="6.93467">
        <ele>957</ele>
        <time>2025-06-08T11:10:43.000Z</time>
      </trkpt>
      <trkpt lat="47.89595" lon="6.9346">
        <ele>957</ele>
        <time>2025-06-08T11:10:47.000Z</time>
      </trkpt>
      <trkpt lat="47.89594" lon="6.93444">
        <ele>960</ele>
        <time>2025-06-08T11:10:56.000Z</time>
      </trkpt>
      <trkpt lat="47.89598" lon="6.9343">
        <ele>961</ele>
        <time>2025-06-08T11:11:04.000Z</time>
      </trkpt>
      <trkpt lat="47.896" lon="6.93409">
        <ele>963</ele>
        <time>2025-06-08T11:11:16.000Z</time>
      </trkpt>
      <trkpt lat="47.89597" lon="6.93387">
        <ele>964</ele>
        <time>2025-06-08T11:11:29.000Z</time>
      </trkpt>
      <trkpt lat="47.89602" lon="6.93357">
        <ele>966</ele>
        <time>2025-06-08T11:11:45.000Z</time>
      </trkpt>
      <trkpt lat="47.89595" lon="6.93333">
        <ele>969</ele>
        <time>2025-06-08T11:12:04.000Z</time>
      </trkpt>
      <trkpt lat="47.89576" lon="6.93295">
        <ele>974</ele>
        <time>2025-06-08T11:12:35.000Z</time>
      </trkpt>
      <trkpt lat="47.89571" lon="6.93288">
        <ele>975</ele>
        <time>2025-06-08T11:12:43.000Z</time>
      </trkpt>
      <trkpt lat="47.89559" lon="6.9327">
        <ele>977</ele>
        <time>2025-06-08T11:12:57.000Z</time>
      </trkpt>
      <trkpt lat="47.89554" lon="6.93259">
        <ele>978</ele>
        <time>2025-06-08T11:13:05.000Z</time>
      </trkpt>
      <trkpt lat="47.8955" lon="6.93249">
        <ele>980</ele>
        <time>2025-06-08T11:13:16.000Z</time>
      </trkpt>
      <trkpt lat="47.89547" lon="6.93242">
        <ele>980</ele>
        <time>2025-06-08T11:13:19.000Z</time>
      </trkpt>
      <trkpt lat="47.89546" lon="6.93236">
        <ele>981</ele>
        <time>2025-06-08T11:13:22.000Z</time>
      </trkpt>
      <trkpt lat="47.89543" lon="6.9323">
        <ele>981</ele>
        <time>2025-06-08T11:13:26.000Z</time>
      </trkpt>
      <trkpt lat="47.89542" lon="6.9322">
        <ele>982</ele>
        <time>2025-06-08T11:13:30.000Z</time>
      </trkpt>
      <trkpt lat="47.89538" lon="6.93217">
        <ele>982</ele>
        <time>2025-06-08T11:13:33.000Z</time>
      </trkpt>
      <trkpt lat="47.89534" lon="6.93195">
        <ele>984</ele>
        <time>2025-06-08T11:13:44.000Z</time>
      </trkpt>
      <trkpt lat="47.89531" lon="6.9319">
        <ele>984</ele>
        <time>2025-06-08T11:13:48.000Z</time>
      </trkpt>
      <trkpt lat="47.8953" lon="6.93184">
        <ele>984</ele>
        <time>2025-06-08T11:13:52.000Z</time>
      </trkpt>
      <trkpt lat="47.89529" lon="6.9317">
        <ele>987</ele>
        <time>2025-06-08T11:14:01.000Z</time>
      </trkpt>
      <trkpt lat="47.89526" lon="6.93161">
        <ele>988</ele>
        <time>2025-06-08T11:14:05.000Z</time>
      </trkpt>
      <trkpt lat="47.8953" lon="6.93137">
        <ele>990</ele>
        <time>2025-06-08T11:14:18.000Z</time>
      </trkpt>
      <trkpt lat="47.89525" lon="6.93094">
        <ele>992</ele>
        <time>2025-06-08T11:14:44.000Z</time>
      </trkpt>
      <trkpt lat="47.89526" lon="6.93086">
        <ele>992</ele>
        <time>2025-06-08T11:14:48.000Z</time>
      </trkpt>
      <trkpt lat="47.89523" lon="6.93079">
        <ele>992</ele>
        <time>2025-06-08T11:14:51.000Z</time>
      </trkpt>
      <trkpt lat="47.89523" lon="6.93052">
        <ele>992</ele>
        <time>2025-06-08T11:15:07.000Z</time>
      </trkpt>
      <trkpt lat="47.89524" lon="6.9304">
        <ele>993</ele>
        <time>2025-06-08T11:15:15.000Z</time>
      </trkpt>
      <trkpt lat="47.89522" lon="6.93018">
        <ele>998</ele>
        <time>2025-06-08T11:15:27.000Z</time>
      </trkpt>
      <trkpt lat="47.89523" lon="6.93009">
        <ele>1000</ele>
        <time>2025-06-08T11:15:31.000Z</time>
      </trkpt>
      <trkpt lat="47.89528" lon="6.92999">
        <ele>1002</ele>
        <time>2025-06-08T11:15:37.000Z</time>
      </trkpt>
      <trkpt lat="47.89526" lon="6.92993">
        <ele>1002</ele>
        <time>2025-06-08T11:15:41.000Z</time>
      </trkpt>
      <trkpt lat="47.89523" lon="6.92986">
        <ele>1002</ele>
        <time>2025-06-08T11:15:44.000Z</time>
      </trkpt>
      <trkpt lat="47.89522" lon="6.92979">
        <ele>1002</ele>
        <time>2025-06-08T11:15:47.000Z</time>
      </trkpt>
      <trkpt lat="47.89521" lon="6.92973">
        <ele>1003</ele>
        <time>2025-06-08T11:15:50.000Z</time>
      </trkpt>
      <trkpt lat="47.8952" lon="6.92954">
        <ele>1006</ele>
        <time>2025-06-08T11:16:04.000Z</time>
      </trkpt>
      <trkpt lat="47.89518" lon="6.92948">
        <ele>1006</ele>
        <time>2025-06-08T11:16:07.000Z</time>
      </trkpt>
      <trkpt lat="47.89515" lon="6.92942">
        <ele>1006</ele>
        <time>2025-06-08T11:16:10.000Z</time>
      </trkpt>
      <trkpt lat="47.89515" lon="6.92935">
        <ele>1006</ele>
        <time>2025-06-08T11:16:14.000Z</time>
      </trkpt>
      <trkpt lat="47.8951" lon="6.92917">
        <ele>1008</ele>
        <time>2025-06-08T11:16:26.000Z</time>
      </trkpt>
      <trkpt lat="47.8951" lon="6.92909">
        <ele>1008</ele>
        <time>2025-06-08T11:16:29.000Z</time>
      </trkpt>
      <trkpt lat="47.89512" lon="6.92903">
        <ele>1009</ele>
        <time>2025-06-08T11:16:32.000Z</time>
      </trkpt>
      <trkpt lat="47.89511" lon="6.92895">
        <ele>1010</ele>
        <time>2025-06-08T11:16:38.000Z</time>
      </trkpt>
      <trkpt lat="47.89514" lon="6.92885">
        <ele>1009</ele>
        <time>2025-06-08T11:16:43.000Z</time>
      </trkpt>
      <trkpt lat="47.89515" lon="6.92879">
        <ele>1009</ele>
        <time>2025-06-08T11:16:45.000Z</time>
      </trkpt>
      <trkpt lat="47.89518" lon="6.92872">
        <ele>1009</ele>
        <time>2025-06-08T11:16:50.000Z</time>
      </trkpt>
      <trkpt lat="47.8952" lon="6.92866">
        <ele>1009</ele>
        <time>2025-06-08T11:16:54.000Z</time>
      </trkpt>
      <trkpt lat="47.89519" lon="6.92859">
        <ele>1010</ele>
        <time>2025-06-08T11:16:57.000Z</time>
      </trkpt>
      <trkpt lat="47.8952" lon="6.92852">
        <ele>1010</ele>
        <time>2025-06-08T11:17:01.000Z</time>
      </trkpt>
      <trkpt lat="47.89519" lon="6.92845">
        <ele>1010</ele>
        <time>2025-06-08T11:17:04.000Z</time>
      </trkpt>
      <trkpt lat="47.89517" lon="6.9284">
        <ele>1011</ele>
        <time>2025-06-08T11:17:08.000Z</time>
      </trkpt>
      <trkpt lat="47.89515" lon="6.92834">
        <ele>1011</ele>
        <time>2025-06-08T11:17:12.000Z</time>
      </trkpt>
      <trkpt lat="47.89513" lon="6.92825">
        <ele>1012</ele>
        <time>2025-06-08T11:17:17.000Z</time>
      </trkpt>
      <trkpt lat="47.89509" lon="6.9282">
        <ele>1012</ele>
        <time>2025-06-08T11:17:21.000Z</time>
      </trkpt>
      <trkpt lat="47.89509" lon="6.92813">
        <ele>1013</ele>
        <time>2025-06-08T11:17:25.000Z</time>
      </trkpt>
      <trkpt lat="47.89508" lon="6.92807">
        <ele>1012</ele>
        <time>2025-06-08T11:17:29.000Z</time>
      </trkpt>
      <trkpt lat="47.89509" lon="6.928">
        <ele>1012</ele>
        <time>2025-06-08T11:17:32.000Z</time>
      </trkpt>
      <trkpt lat="47.89516" lon="6.92782">
        <ele>1013</ele>
        <time>2025-06-08T11:17:42.000Z</time>
      </trkpt>
      <trkpt lat="47.89518" lon="6.92776">
        <ele>1013</ele>
        <time>2025-06-08T11:17:45.000Z</time>
      </trkpt>
      <trkpt lat="47.89525" lon="6.92755">
        <ele>1014</ele>
        <time>2025-06-08T11:17:56.000Z</time>
      </trkpt>
      <trkpt lat="47.89528" lon="6.92748">
        <ele>1014</ele>
        <time>2025-06-08T11:18:00.000Z</time>
      </trkpt>
      <trkpt lat="47.8953" lon="6.92741">
        <ele>1016</ele>
        <time>2025-06-08T11:18:04.000Z</time>
      </trkpt>
      <trkpt lat="47.89531" lon="6.92733">
        <ele>1016</ele>
        <time>2025-06-08T11:18:08.000Z</time>
      </trkpt>
      <trkpt lat="47.89533" lon="6.92726">
        <ele>1017</ele>
        <time>2025-06-08T11:18:12.000Z</time>
      </trkpt>
      <trkpt lat="47.89533" lon="6.92719">
        <ele>1017</ele>
        <time>2025-06-08T11:18:15.000Z</time>
      </trkpt>
      <trkpt lat="47.89534" lon="6.92713">
        <ele>1017</ele>
        <time>2025-06-08T11:18:18.000Z</time>
      </trkpt>
      <trkpt lat="47.89535" lon="6.92705">
        <ele>1017</ele>
        <time>2025-06-08T11:18:22.000Z</time>
      </trkpt>
      <trkpt lat="47.8954" lon="6.92669">
        <ele>1021</ele>
        <time>2025-06-08T11:18:41.000Z</time>
      </trkpt>
      <trkpt lat="47.89542" lon="6.92663">
        <ele>1021</ele>
        <time>2025-06-08T11:18:45.000Z</time>
      </trkpt>
      <trkpt lat="47.89543" lon="6.92657">
        <ele>1021</ele>
        <time>2025-06-08T11:18:48.000Z</time>
      </trkpt>
      <trkpt lat="47.89545" lon="6.9265">
        <ele>1022</ele>
        <time>2025-06-08T11:18:52.000Z</time>
      </trkpt>
      <trkpt lat="47.89545" lon="6.92642">
        <ele>1023</ele>
        <time>2025-06-08T11:18:57.000Z</time>
      </trkpt>
      <trkpt lat="47.89547" lon="6.92636">
        <ele>1023</ele>
        <time>2025-06-08T11:19:01.000Z</time>
      </trkpt>
      <trkpt lat="47.89552" lon="6.9261">
        <ele>1025</ele>
        <time>2025-06-08T11:19:17.000Z</time>
      </trkpt>
      <trkpt lat="47.89554" lon="6.92603">
        <ele>1026</ele>
        <time>2025-06-08T11:19:22.000Z</time>
      </trkpt>
      <trkpt lat="47.89554" lon="6.92596">
        <ele>1027</ele>
        <time>2025-06-08T11:19:26.000Z</time>
      </trkpt>
      <trkpt lat="47.8956" lon="6.9257">
        <ele>1031</ele>
        <time>2025-06-08T11:19:47.000Z</time>
      </trkpt>
      <trkpt lat="47.89559" lon="6.92563">
        <ele>1033</ele>
        <time>2025-06-08T11:19:51.000Z</time>
      </trkpt>
      <trkpt lat="47.89563" lon="6.92549">
        <ele>1037</ele>
        <time>2025-06-08T11:20:02.000Z</time>
      </trkpt>
      <trkpt lat="47.89559" lon="6.92541">
        <ele>1039</ele>
        <time>2025-06-08T11:20:06.000Z</time>
      </trkpt>
      <trkpt lat="47.8956" lon="6.92531">
        <ele>1042</ele>
        <time>2025-06-08T11:20:19.000Z</time>
      </trkpt>
      <trkpt lat="47.89565" lon="6.92527">
        <ele>1044</ele>
        <time>2025-06-08T11:20:26.000Z</time>
      </trkpt>
      <trkpt lat="47.89575" lon="6.92521">
        <ele>1045</ele>
        <time>2025-06-08T11:20:35.000Z</time>
      </trkpt>
      <trkpt lat="47.89598" lon="6.92494">
        <ele>1051</ele>
        <time>2025-06-08T11:21:02.000Z</time>
      </trkpt>
      <trkpt lat="47.89607" lon="6.92485">
        <ele>1054</ele>
        <time>2025-06-08T11:21:16.000Z</time>
      </trkpt>
      <trkpt lat="47.89611" lon="6.92478">
        <ele>1056</ele>
        <time>2025-06-08T11:21:24.000Z</time>
      </trkpt>
      <trkpt lat="47.89615" lon="6.92468">
        <ele>1057</ele>
        <time>2025-06-08T11:21:29.000Z</time>
      </trkpt>
      <trkpt lat="47.89619" lon="6.92465">
        <ele>1057</ele>
        <time>2025-06-08T11:21:34.000Z</time>
      </trkpt>
      <trkpt lat="47.89626" lon="6.92453">
        <ele>1059</ele>
        <time>2025-06-08T11:21:46.000Z</time>
      </trkpt>
      <trkpt lat="47.89627" lon="6.92442">
        <ele>1061</ele>
        <time>2025-06-08T11:21:56.000Z</time>
      </trkpt>
      <trkpt lat="47.89635" lon="6.92429">
        <ele>1062</ele>
        <time>2025-06-08T11:22:06.000Z</time>
      </trkpt>
      <trkpt lat="47.89634" lon="6.92421">
        <ele>1063</ele>
        <time>2025-06-08T11:22:10.000Z</time>
      </trkpt>
      <trkpt lat="47.89637" lon="6.92411">
        <ele>1068</ele>
        <time>2025-06-08T11:22:24.000Z</time>
      </trkpt>
      <trkpt lat="47.89656" lon="6.92381">
        <ele>1076</ele>
        <time>2025-06-08T11:22:52.000Z</time>
      </trkpt>
      <trkpt lat="47.8966" lon="6.92372">
        <ele>1078</ele>
        <time>2025-06-08T11:22:59.000Z</time>
      </trkpt>
      <trkpt lat="47.89667" lon="6.92366">
        <ele>1080</ele>
        <time>2025-06-08T11:23:14.000Z</time>
      </trkpt>
      <trkpt lat="47.89674" lon="6.92366">
        <ele>1081</ele>
        <time>2025-06-08T11:23:17.000Z</time>
      </trkpt>
      <trkpt lat="47.89673" lon="6.92356">
        <ele>1082</ele>
        <time>2025-06-08T11:23:25.000Z</time>
      </trkpt>
      <trkpt lat="47.89693" lon="6.92327">
        <ele>1089</ele>
        <time>2025-06-08T11:23:57.000Z</time>
      </trkpt>
      <trkpt lat="47.89696" lon="6.92317">
        <ele>1089</ele>
        <time>2025-06-08T11:24:09.000Z</time>
      </trkpt>
      <trkpt lat="47.89705" lon="6.92293">
        <ele>1098</ele>
        <time>2025-06-08T11:24:30.000Z</time>
      </trkpt>
      <trkpt lat="47.89706" lon="6.92286">
        <ele>1098</ele>
        <time>2025-06-08T11:24:35.000Z</time>
      </trkpt>
      <trkpt lat="47.89709" lon="6.92276">
        <ele>1101</ele>
        <time>2025-06-08T11:24:43.000Z</time>
      </trkpt>
      <trkpt lat="47.89714" lon="6.92264">
        <ele>1104</ele>
        <time>2025-06-08T11:24:55.000Z</time>
      </trkpt>
      <trkpt lat="47.8972" lon="6.92256">
        <ele>1105</ele>
        <time>2025-06-08T11:25:06.000Z</time>
      </trkpt>
      <trkpt lat="47.89724" lon="6.92252">
        <ele>1107</ele>
        <time>2025-06-08T11:25:15.000Z</time>
      </trkpt>
      <trkpt lat="47.89733" lon="6.92226">
        <ele>1117</ele>
        <time>2025-06-08T11:25:40.000Z</time>
      </trkpt>
      <trkpt lat="47.89735" lon="6.92217">
        <ele>1118</ele>
        <time>2025-06-08T11:25:47.000Z</time>
      </trkpt>
      <trkpt lat="47.89735" lon="6.92211">
        <ele>1118</ele>
        <time>2025-06-08T11:25:51.000Z</time>
      </trkpt>
      <trkpt lat="47.89739" lon="6.92203">
        <ele>1121</ele>
        <time>2025-06-08T11:26:00.000Z</time>
      </trkpt>
      <trkpt lat="47.89741" lon="6.92195">
        <ele>1123</ele>
        <time>2025-06-08T11:26:04.000Z</time>
      </trkpt>
      <trkpt lat="47.89746" lon="6.92187">
        <ele>1123</ele>
        <time>2025-06-08T11:26:13.000Z</time>
      </trkpt>
      <trkpt lat="47.89751" lon="6.92184">
        <ele>1126</ele>
        <time>2025-06-08T11:26:16.000Z</time>
      </trkpt>
      <trkpt lat="47.89757" lon="6.92172">
        <ele>1124</ele>
        <time>2025-06-08T11:26:25.000Z</time>
      </trkpt>
      <trkpt lat="47.8976" lon="6.92166">
        <ele>1126</ele>
        <time>2025-06-08T11:26:30.000Z</time>
      </trkpt>
      <trkpt lat="47.89762" lon="6.9216">
        <ele>1127</ele>
        <time>2025-06-08T11:26:34.000Z</time>
      </trkpt>
      <trkpt lat="47.89766" lon="6.92153">
        <ele>1128</ele>
        <time>2025-06-08T11:26:39.000Z</time>
      </trkpt>
      <trkpt lat="47.89768" lon="6.92148">
        <ele>1128</ele>
        <time>2025-06-08T11:26:43.000Z</time>
      </trkpt>
      <trkpt lat="47.89778" lon="6.92116">
        <ele>1133</ele>
        <time>2025-06-08T11:27:06.000Z</time>
      </trkpt>
      <trkpt lat="47.89779" lon="6.92106">
        <ele>1135</ele>
        <time>2025-06-08T11:27:13.000Z</time>
      </trkpt>
      <trkpt lat="47.8978" lon="6.921">
        <ele>1136</ele>
        <time>2025-06-08T11:27:17.000Z</time>
      </trkpt>
      <trkpt lat="47.89782" lon="6.92091">
        <ele>1139</ele>
        <time>2025-06-08T11:27:26.000Z</time>
      </trkpt>
      <trkpt lat="47.89787" lon="6.92087">
        <ele>1141</ele>
        <time>2025-06-08T11:27:34.000Z</time>
      </trkpt>
      <trkpt lat="47.89798" lon="6.9207">
        <ele>1146</ele>
        <time>2025-06-08T11:27:55.000Z</time>
      </trkpt>
      <trkpt lat="47.89809" lon="6.92052">
        <ele>1152</ele>
        <time>2025-06-08T11:28:11.000Z</time>
      </trkpt>
      <trkpt lat="47.89813" lon="6.92047">
        <ele>1151</ele>
        <time>2025-06-08T11:28:18.000Z</time>
      </trkpt>
      <trkpt lat="47.89822" lon="6.92042">
        <ele>1154</ele>
        <time>2025-06-08T11:28:26.000Z</time>
      </trkpt>
      <trkpt lat="47.89823" lon="6.92033">
        <ele>1156</ele>
        <time>2025-06-08T11:28:34.000Z</time>
      </trkpt>
      <trkpt lat="47.89826" lon="6.92018">
        <ele>1156</ele>
        <time>2025-06-08T11:28:46.000Z</time>
      </trkpt>
      <trkpt lat="47.89834" lon="6.92004">
        <ele>1162</ele>
        <time>2025-06-08T11:28:57.000Z</time>
      </trkpt>
      <trkpt lat="47.89841" lon="6.91987">
        <ele>1163</ele>
        <time>2025-06-08T11:29:09.000Z</time>
      </trkpt>
      <trkpt lat="47.89843" lon="6.91981">
        <ele>1163</ele>
        <time>2025-06-08T11:29:13.000Z</time>
      </trkpt>
      <trkpt lat="47.89845" lon="6.91974">
        <ele>1165</ele>
        <time>2025-06-08T11:29:18.000Z</time>
      </trkpt>
      <trkpt lat="47.89853" lon="6.91958">
        <ele>1168</ele>
        <time>2025-06-08T11:29:31.000Z</time>
      </trkpt>
      <trkpt lat="47.89857" lon="6.9195">
        <ele>1168</ele>
        <time>2025-06-08T11:29:37.000Z</time>
      </trkpt>
      <trkpt lat="47.89863" lon="6.91935">
        <ele>1171</ele>
        <time>2025-06-08T11:29:47.000Z</time>
      </trkpt>
      <trkpt lat="47.89866" lon="6.91929">
        <ele>1171</ele>
        <time>2025-06-08T11:29:51.000Z</time>
      </trkpt>
      <trkpt lat="47.8987" lon="6.91923">
        <ele>1170</ele>
        <time>2025-06-08T11:29:57.000Z</time>
      </trkpt>
      <trkpt lat="47.89883" lon="6.91909">
        <ele>1172</ele>
        <time>2025-06-08T11:30:09.000Z</time>
      </trkpt>
      <trkpt lat="47.89887" lon="6.91904">
        <ele>1172</ele>
        <time>2025-06-08T11:30:13.000Z</time>
      </trkpt>
      <trkpt lat="47.8989" lon="6.91899">
        <ele>1173</ele>
        <time>2025-06-08T11:30:17.000Z</time>
      </trkpt>
      <trkpt lat="47.89894" lon="6.91894">
        <ele>1173</ele>
        <time>2025-06-08T11:30:21.000Z</time>
      </trkpt>
      <trkpt lat="47.89898" lon="6.91888">
        <ele>1172</ele>
        <time>2025-06-08T11:30:25.000Z</time>
      </trkpt>
      <trkpt lat="47.89902" lon="6.91883">
        <ele>1172</ele>
        <time>2025-06-08T11:30:29.000Z</time>
      </trkpt>
      <trkpt lat="47.89917" lon="6.9186">
        <ele>1172</ele>
        <time>2025-06-08T11:30:44.000Z</time>
      </trkpt>
      <trkpt lat="47.89921" lon="6.91854">
        <ele>1172</ele>
        <time>2025-06-08T11:30:48.000Z</time>
      </trkpt>
      <trkpt lat="47.89924" lon="6.91849">
        <ele>1173</ele>
        <time>2025-06-08T11:30:51.000Z</time>
      </trkpt>
      <trkpt lat="47.89931" lon="6.91839">
        <ele>1173</ele>
        <time>2025-06-08T11:30:58.000Z</time>
      </trkpt>
      <trkpt lat="47.89934" lon="6.91834">
        <ele>1174</ele>
        <time>2025-06-08T11:31:01.000Z</time>
      </trkpt>
      <trkpt lat="47.89937" lon="6.91829">
        <ele>1174</ele>
        <time>2025-06-08T11:31:04.000Z</time>
      </trkpt>
      <trkpt lat="47.8994" lon="6.91824">
        <ele>1173</ele>
        <time>2025-06-08T11:31:07.000Z</time>
      </trkpt>
      <trkpt lat="47.89943" lon="6.91818">
        <ele>1173</ele>
        <time>2025-06-08T11:31:11.000Z</time>
      </trkpt>
      <trkpt lat="47.89946" lon="6.91812">
        <ele>1173</ele>
        <time>2025-06-08T11:31:14.000Z</time>
      </trkpt>
      <trkpt lat="47.89953" lon="6.91801">
        <ele>1174</ele>
        <time>2025-06-08T11:31:21.000Z</time>
      </trkpt>
      <trkpt lat="47.89956" lon="6.91795">
        <ele>1173</ele>
        <time>2025-06-08T11:31:25.000Z</time>
      </trkpt>
      <trkpt lat="47.89959" lon="6.91788">
        <ele>1173</ele>
        <time>2025-06-08T11:31:29.000Z</time>
      </trkpt>
      <trkpt lat="47.89965" lon="6.91776">
        <ele>1170</ele>
        <time>2025-06-08T11:31:37.000Z</time>
      </trkpt>
      <trkpt lat="47.89972" lon="6.91763">
        <ele>1176</ele>
        <time>2025-06-08T11:31:48.000Z</time>
      </trkpt>
      <trkpt lat="47.89977" lon="6.9176">
        <ele>1177</ele>
        <time>2025-06-08T11:31:53.000Z</time>
      </trkpt>
      <trkpt lat="47.89982" lon="6.91761">
        <ele>1177</ele>
        <time>2025-06-08T11:31:57.000Z</time>
      </trkpt>
      <trkpt lat="47.89993" lon="6.91761">
        <ele>1175</ele>
        <time>2025-06-08T11:32:05.000Z</time>
      </trkpt>
      <trkpt lat="47.89998" lon="6.91761">
        <ele>1175</ele>
        <time>2025-06-08T11:32:09.000Z</time>
      </trkpt>
      <trkpt lat="47.90004" lon="6.91761">
        <ele>1177</ele>
        <time>2025-06-08T11:32:13.000Z</time>
      </trkpt>
      <trkpt lat="47.90009" lon="6.9176">
        <ele>1178</ele>
        <time>2025-06-08T11:32:17.000Z</time>
      </trkpt>
      <trkpt lat="47.90015" lon="6.9176">
        <ele>1178</ele>
        <time>2025-06-08T11:32:21.000Z</time>
      </trkpt>
      <trkpt lat="47.9002" lon="6.9176">
        <ele>1177</ele>
        <time>2025-06-08T11:32:25.000Z</time>
      </trkpt>
      <trkpt lat="47.90036" lon="6.91759">
        <ele>1182</ele>
        <time>2025-06-08T11:32:36.000Z</time>
      </trkpt>
      <trkpt lat="47.90042" lon="6.9176">
        <ele>1182</ele>
        <time>2025-06-08T11:32:40.000Z</time>
      </trkpt>
      <trkpt lat="47.90047" lon="6.91759">
        <ele>1183</ele>
        <time>2025-06-08T11:32:44.000Z</time>
      </trkpt>
      <trkpt lat="47.90058" lon="6.91759">
        <ele>1180</ele>
        <time>2025-06-08T11:32:52.000Z</time>
      </trkpt>
      <trkpt lat="47.90069" lon="6.91758">
        <ele>1183</ele>
        <time>2025-06-08T11:33:00.000Z</time>
      </trkpt>
      <trkpt lat="47.90074" lon="6.91759">
        <ele>1184</ele>
        <time>2025-06-08T11:33:04.000Z</time>
      </trkpt>
      <trkpt lat="47.90079" lon="6.91758">
        <ele>1185</ele>
        <time>2025-06-08T11:33:08.000Z</time>
      </trkpt>
      <trkpt lat="47.90084" lon="6.91756">
        <ele>1185</ele>
        <time>2025-06-08T11:33:12.000Z</time>
      </trkpt>
      <trkpt lat="47.90089" lon="6.91752">
        <ele>1184</ele>
        <time>2025-06-08T11:33:16.000Z</time>
      </trkpt>
      <trkpt lat="47.90097" lon="6.91744">
        <ele>1185</ele>
        <time>2025-06-08T11:33:24.000Z</time>
      </trkpt>
      <trkpt lat="47.901" lon="6.91738">
        <ele>1184</ele>
        <time>2025-06-08T11:33:27.000Z</time>
      </trkpt>
      <trkpt lat="47.90109" lon="6.91729">
        <ele>1185</ele>
        <time>2025-06-08T11:33:35.000Z</time>
      </trkpt>
      <trkpt lat="47.90117" lon="6.91718">
        <ele>1182</ele>
        <time>2025-06-08T11:33:44.000Z</time>
      </trkpt>
      <trkpt lat="47.90121" lon="6.91718">
        <ele>1183</ele>
        <time>2025-06-08T11:33:47.000Z</time>
      </trkpt>
      <trkpt lat="47.90126" lon="6.91715">
        <ele>1184</ele>
        <time>2025-06-08T11:33:51.000Z</time>
      </trkpt>
      <trkpt lat="47.9013" lon="6.9171">
        <ele>1184</ele>
        <time>2025-06-08T11:33:55.000Z</time>
      </trkpt>
      <trkpt lat="47.90138" lon="6.91702">
        <ele>1185</ele>
        <time>2025-06-08T11:34:02.000Z</time>
      </trkpt>
      <trkpt lat="47.90141" lon="6.91696">
        <ele>1186</ele>
        <time>2025-06-08T11:34:05.000Z</time>
      </trkpt>
      <trkpt lat="47.90174" lon="6.91683">
        <ele>1196</ele>
        <time>2025-06-08T11:34:33.000Z</time>
      </trkpt>
      <trkpt lat="47.90179" lon="6.91683">
        <ele>1195</ele>
        <time>2025-06-08T11:34:36.000Z</time>
      </trkpt>
      <trkpt lat="47.90184" lon="6.91681">
        <ele>1195</ele>
        <time>2025-06-08T11:34:40.000Z</time>
      </trkpt>
      <trkpt lat="47.90207" lon="6.91671">
        <ele>1202</ele>
        <time>2025-06-08T11:35:00.000Z</time>
      </trkpt>
      <trkpt lat="47.90213" lon="6.91674">
        <ele>1203</ele>
        <time>2025-06-08T11:35:05.000Z</time>
      </trkpt>
      <trkpt lat="47.90217" lon="6.91675">
        <ele>1209</ele>
        <time>2025-06-08T11:35:14.000Z</time>
      </trkpt>
      <trkpt lat="47.90218" lon="6.91684">
        <ele>1213</ele>
        <time>2025-06-08T11:35:30.000Z</time>
      </trkpt>
      <trkpt lat="47.90223" lon="6.91695">
        <ele>1207</ele>
        <time>2025-06-08T11:35:38.000Z</time>
      </trkpt>
      <trkpt lat="47.90251" lon="6.91723">
        <ele>1196</ele>
        <time>2025-06-08T11:36:08.000Z</time>
      </trkpt>
      <trkpt lat="47.90255" lon="6.91726">
        <ele>1196</ele>
        <time>2025-06-08T11:36:12.000Z</time>
      </trkpt>
      <trkpt lat="47.90267" lon="6.91737">
        <ele>1192</ele>
        <time>2025-06-08T11:36:24.000Z</time>
      </trkpt>
      <trkpt lat="47.90271" lon="6.91741">
        <ele>1192</ele>
        <time>2025-06-08T11:36:28.000Z</time>
      </trkpt>
      <trkpt lat="47.9028" lon="6.91748">
        <ele>1188</ele>
        <time>2025-06-08T11:36:36.000Z</time>
      </trkpt>
      <trkpt lat="47.90284" lon="6.91752">
        <ele>1189</ele>
        <time>2025-06-08T11:36:40.000Z</time>
      </trkpt>
      <trkpt lat="47.90289" lon="6.91756">
        <ele>1187</ele>
        <time>2025-06-08T11:36:43.000Z</time>
      </trkpt>
      <trkpt lat="47.90301" lon="6.91766">
        <ele>1186</ele>
        <time>2025-06-08T11:36:55.000Z</time>
      </trkpt>
      <trkpt lat="47.90308" lon="6.91776">
        <ele>1182</ele>
        <time>2025-06-08T11:37:03.000Z</time>
      </trkpt>
      <trkpt lat="47.90312" lon="6.91783">
        <ele>1182</ele>
        <time>2025-06-08T11:37:07.000Z</time>
      </trkpt>
      <trkpt lat="47.90317" lon="6.91794">
        <ele>1184</ele>
        <time>2025-06-08T11:37:15.000Z</time>
      </trkpt>
      <trkpt lat="47.90326" lon="6.91815">
        <ele>1178</ele>
        <time>2025-06-08T11:37:26.000Z</time>
      </trkpt>
      <trkpt lat="47.90328" lon="6.9182">
        <ele>1177</ele>
        <time>2025-06-08T11:37:29.000Z</time>
      </trkpt>
      <trkpt lat="47.90335" lon="6.91838">
        <ele>1175</ele>
        <time>2025-06-08T11:37:39.000Z</time>
      </trkpt>
      <trkpt lat="47.90338" lon="6.91843">
        <ele>1171</ele>
        <time>2025-06-08T11:37:43.000Z</time>
      </trkpt>
      <trkpt lat="47.90341" lon="6.9185">
        <ele>1171</ele>
        <time>2025-06-08T11:37:47.000Z</time>
      </trkpt>
      <trkpt lat="47.90343" lon="6.91857">
        <ele>1173</ele>
        <time>2025-06-08T11:37:52.000Z</time>
      </trkpt>
      <trkpt lat="47.90346" lon="6.91863">
        <ele>1173</ele>
        <time>2025-06-08T11:37:56.000Z</time>
      </trkpt>
      <trkpt lat="47.90351" lon="6.91876">
        <ele>1170</ele>
        <time>2025-06-08T11:38:03.000Z</time>
      </trkpt>
      <trkpt lat="47.90354" lon="6.91882">
        <ele>1171</ele>
        <time>2025-06-08T11:38:07.000Z</time>
      </trkpt>
      <trkpt lat="47.90357" lon="6.91889">
        <ele>1171</ele>
        <time>2025-06-08T11:38:11.000Z</time>
      </trkpt>
      <trkpt lat="47.90364" lon="6.91902">
        <ele>1169</ele>
        <time>2025-06-08T11:38:25.000Z</time>
      </trkpt>
      <trkpt lat="47.90362" lon="6.91893">
        <ele>1168</ele>
        <time>2025-06-08T11:38:29.000Z</time>
      </trkpt>
      <trkpt lat="47.90365" lon="6.91885">
        <ele>1167</ele>
        <time>2025-06-08T11:38:32.000Z</time>
      </trkpt>
      <trkpt lat="47.90368" lon="6.9188">
        <ele>1167</ele>
        <time>2025-06-08T11:38:33.000Z</time>
      </trkpt>
      <trkpt lat="47.9037" lon="6.91875">
        <ele>1167</ele>
        <time>2025-06-08T11:38:36.000Z</time>
      </trkpt>
      <trkpt lat="47.9037" lon="6.9188">
        <ele>1164</ele>
        <time>2025-06-08T11:39:14.000Z</time>
      </trkpt>
      <trkpt lat="47.90371" lon="6.91912">
        <ele>1169</ele>
        <time>2025-06-08T11:39:29.000Z</time>
      </trkpt>
      <trkpt lat="47.90371" lon="6.91919">
        <ele>1168</ele>
        <time>2025-06-08T11:39:32.000Z</time>
      </trkpt>
      <trkpt lat="47.90371" lon="6.91925">
        <ele>1168</ele>
        <time>2025-06-08T11:39:35.000Z</time>
      </trkpt>
      <trkpt lat="47.90374" lon="6.9193">
        <ele>1168</ele>
        <time>2025-06-08T11:39:39.000Z</time>
      </trkpt>
      <trkpt lat="47.90379" lon="6.91941">
        <ele>1167</ele>
        <time>2025-06-08T11:39:52.000Z</time>
      </trkpt>
      <trkpt lat="47.90382" lon="6.91948">
        <ele>1167</ele>
        <time>2025-06-08T11:39:57.000Z</time>
      </trkpt>
      <trkpt lat="47.90389" lon="6.9196">
        <ele>1166</ele>
        <time>2025-06-08T11:40:05.000Z</time>
      </trkpt>
      <trkpt lat="47.90393" lon="6.91965">
        <ele>1167</ele>
        <time>2025-06-08T11:40:10.000Z</time>
      </trkpt>
      <trkpt lat="47.90397" lon="6.91972">
        <ele>1165</ele>
        <time>2025-06-08T11:40:16.000Z</time>
      </trkpt>
      <trkpt lat="47.90399" lon="6.91978">
        <ele>1165</ele>
        <time>2025-06-08T11:40:20.000Z</time>
      </trkpt>
      <trkpt lat="47.90402" lon="6.91985">
        <ele>1164</ele>
        <time>2025-06-08T11:40:24.000Z</time>
      </trkpt>
      <trkpt lat="47.90405" lon="6.91991">
        <ele>1165</ele>
        <time>2025-06-08T11:40:28.000Z</time>
      </trkpt>
      <trkpt lat="47.90422" lon="6.92035">
        <ele>1157</ele>
        <time>2025-06-08T11:40:53.000Z</time>
      </trkpt>
      <trkpt lat="47.90423" lon="6.92041">
        <ele>1157</ele>
        <time>2025-06-08T11:40:57.000Z</time>
      </trkpt>
      <trkpt lat="47.90426" lon="6.92047">
        <ele>1157</ele>
        <time>2025-06-08T11:41:01.000Z</time>
      </trkpt>
      <trkpt lat="47.90428" lon="6.92053">
        <ele>1154</ele>
        <time>2025-06-08T11:41:06.000Z</time>
      </trkpt>
      <trkpt lat="47.90431" lon="6.92062">
        <ele>1154</ele>
        <time>2025-06-08T11:41:10.000Z</time>
      </trkpt>
      <trkpt lat="47.90434" lon="6.92077">
        <ele>1155</ele>
        <time>2025-06-08T11:41:17.000Z</time>
      </trkpt>
      <trkpt lat="47.90437" lon="6.92102">
        <ele>1154</ele>
        <time>2025-06-08T11:41:28.000Z</time>
      </trkpt>
      <trkpt lat="47.90439" lon="6.92116">
        <ele>1155</ele>
        <time>2025-06-08T11:41:35.000Z</time>
      </trkpt>
      <trkpt lat="47.90445" lon="6.92138">
        <ele>1160</ele>
        <time>2025-06-08T11:41:53.000Z</time>
      </trkpt>
      <trkpt lat="47.90447" lon="6.92144">
        <ele>1160</ele>
        <time>2025-06-08T11:41:57.000Z</time>
      </trkpt>
      <trkpt lat="47.90449" lon="6.92158">
        <ele>1160</ele>
        <time>2025-06-08T11:42:06.000Z</time>
      </trkpt>
      <trkpt lat="47.90461" lon="6.92172">
        <ele>1160</ele>
        <time>2025-06-08T11:42:17.000Z</time>
      </trkpt>
      <trkpt lat="47.90463" lon="6.92178">
        <ele>1159</ele>
        <time>2025-06-08T11:42:21.000Z</time>
      </trkpt>
      <trkpt lat="47.90473" lon="6.92194">
        <ele>1155</ele>
        <time>2025-06-08T11:42:33.000Z</time>
      </trkpt>
      <trkpt lat="47.90483" lon="6.92213">
        <ele>1153</ele>
        <time>2025-06-08T11:42:46.000Z</time>
      </trkpt>
      <trkpt lat="47.9049" lon="6.92221">
        <ele>1151</ele>
        <time>2025-06-08T11:42:51.000Z</time>
      </trkpt>
      <trkpt lat="47.90501" lon="6.92238">
        <ele>1151</ele>
        <time>2025-06-08T11:42:59.000Z</time>
      </trkpt>
      <trkpt lat="47.90503" lon="6.92245">
        <ele>1151</ele>
        <time>2025-06-08T11:43:02.000Z</time>
      </trkpt>
      <trkpt lat="47.90507" lon="6.9225">
        <ele>1151</ele>
        <time>2025-06-08T11:43:05.000Z</time>
      </trkpt>
      <trkpt lat="47.90516" lon="6.92271">
        <ele>1148</ele>
        <time>2025-06-08T11:43:20.000Z</time>
      </trkpt>
      <trkpt lat="47.9052" lon="6.92284">
        <ele>1147</ele>
        <time>2025-06-08T11:43:26.000Z</time>
      </trkpt>
      <trkpt lat="47.90521" lon="6.9229">
        <ele>1147</ele>
        <time>2025-06-08T11:43:29.000Z</time>
      </trkpt>
      <trkpt lat="47.90524" lon="6.92296">
        <ele>1147</ele>
        <time>2025-06-08T11:43:32.000Z</time>
      </trkpt>
      <trkpt lat="47.9053" lon="6.92309">
        <ele>1146</ele>
        <time>2025-06-08T11:43:38.000Z</time>
      </trkpt>
      <trkpt lat="47.90535" lon="6.92321">
        <ele>1147</ele>
        <time>2025-06-08T11:43:45.000Z</time>
      </trkpt>
      <trkpt lat="47.90545" lon="6.92333">
        <ele>1142</ele>
        <time>2025-06-08T11:43:57.000Z</time>
      </trkpt>
      <trkpt lat="47.90548" lon="6.92338">
        <ele>1142</ele>
        <time>2025-06-08T11:44:00.000Z</time>
      </trkpt>
      <trkpt lat="47.90554" lon="6.9235">
        <ele>1142</ele>
        <time>2025-06-08T11:44:08.000Z</time>
      </trkpt>
      <trkpt lat="47.9056" lon="6.92363">
        <ele>1140</ele>
        <time>2025-06-08T11:44:17.000Z</time>
      </trkpt>
      <trkpt lat="47.90562" lon="6.92369">
        <ele>1139</ele>
        <time>2025-06-08T11:44:21.000Z</time>
      </trkpt>
      <trkpt lat="47.90574" lon="6.92414">
        <ele>1145</ele>
        <time>2025-06-08T11:44:52.000Z</time>
      </trkpt>
      <trkpt lat="47.9058" lon="6.92445">
        <ele>1151</ele>
        <time>2025-06-08T11:45:13.000Z</time>
      </trkpt>
      <trkpt lat="47.90581" lon="6.92452">
        <ele>1152</ele>
        <time>2025-06-08T11:45:17.000Z</time>
      </trkpt>
      <trkpt lat="47.9058" lon="6.92465">
        <ele>1154</ele>
        <time>2025-06-08T11:45:26.000Z</time>
      </trkpt>
      <trkpt lat="47.90589" lon="6.92497">
        <ele>1160</ele>
        <time>2025-06-08T11:45:49.000Z</time>
      </trkpt>
      <trkpt lat="47.90595" lon="6.92502">
        <ele>1162</ele>
        <time>2025-06-08T11:45:57.000Z</time>
      </trkpt>
      <trkpt lat="47.90596" lon="6.9254">
        <ele>1170</ele>
        <time>2025-06-08T11:46:32.000Z</time>
      </trkpt>
      <trkpt lat="47.906" lon="6.92545">
        <ele>1173</ele>
        <time>2025-06-08T11:46:41.000Z</time>
      </trkpt>
      <trkpt lat="47.906" lon="6.9256">
        <ele>1177</ele>
        <time>2025-06-08T11:46:52.000Z</time>
      </trkpt>
      <trkpt lat="47.90605" lon="6.92567">
        <ele>1178</ele>
        <time>2025-06-08T11:47:01.000Z</time>
      </trkpt>
      <trkpt lat="47.90609" lon="6.92575">
        <ele>1181</ele>
        <time>2025-06-08T11:47:11.000Z</time>
      </trkpt>
      <trkpt lat="47.9061" lon="6.92582">
        <ele>1182</ele>
        <time>2025-06-08T11:47:15.000Z</time>
      </trkpt>
      <trkpt lat="47.90614" lon="6.92583">
        <ele>1182</ele>
        <time>2025-06-08T11:47:32.000Z</time>
      </trkpt>
      <trkpt lat="47.90618" lon="6.92586">
        <ele>1183</ele>
        <time>2025-06-08T11:47:36.000Z</time>
      </trkpt>
      <trkpt lat="47.90623" lon="6.9259">
        <ele>1183</ele>
        <time>2025-06-08T11:47:40.000Z</time>
      </trkpt>
      <trkpt lat="47.90628" lon="6.9259">
        <ele>1181</ele>
        <time>2025-06-08T11:47:43.000Z</time>
      </trkpt>
      <trkpt lat="47.90633" lon="6.9259">
        <ele>1183</ele>
        <time>2025-06-08T11:47:47.000Z</time>
      </trkpt>
      <trkpt lat="47.90637" lon="6.92595">
        <ele>1184</ele>
        <time>2025-06-08T11:47:51.000Z</time>
      </trkpt>
      <trkpt lat="47.90654" lon="6.9261">
        <ele>1179</ele>
        <time>2025-06-08T11:48:05.000Z</time>
      </trkpt>
      <trkpt lat="47.9066" lon="6.92613">
        <ele>1178</ele>
        <time>2025-06-08T11:48:09.000Z</time>
      </trkpt>
      <trkpt lat="47.90664" lon="6.92617">
        <ele>1178</ele>
        <time>2025-06-08T11:48:12.000Z</time>
      </trkpt>
      <trkpt lat="47.90668" lon="6.92621">
        <ele>1178</ele>
        <time>2025-06-08T11:48:15.000Z</time>
      </trkpt>
      <trkpt lat="47.90676" lon="6.92627">
        <ele>1177</ele>
        <time>2025-06-08T11:48:23.000Z</time>
      </trkpt>
      <trkpt lat="47.9068" lon="6.92631">
        <ele>1177</ele>
        <time>2025-06-08T11:48:26.000Z</time>
      </trkpt>
      <trkpt lat="47.90685" lon="6.92632">
        <ele>1178</ele>
        <time>2025-06-08T11:48:30.000Z</time>
      </trkpt>
      <trkpt lat="47.90689" lon="6.92635">
        <ele>1177</ele>
        <time>2025-06-08T11:48:33.000Z</time>
      </trkpt>
      <trkpt lat="47.90694" lon="6.92637">
        <ele>1177</ele>
        <time>2025-06-08T11:48:37.000Z</time>
      </trkpt>
      <trkpt lat="47.90697" lon="6.92643">
        <ele>1176</ele>
        <time>2025-06-08T11:48:41.000Z</time>
      </trkpt>
      <trkpt lat="47.90702" lon="6.92645">
        <ele>1175</ele>
        <time>2025-06-08T11:48:44.000Z</time>
      </trkpt>
      <trkpt lat="47.90707" lon="6.92648">
        <ele>1174</ele>
        <time>2025-06-08T11:48:48.000Z</time>
      </trkpt>
      <trkpt lat="47.90712" lon="6.92652">
        <ele>1175</ele>
        <time>2025-06-08T11:48:52.000Z</time>
      </trkpt>
      <trkpt lat="47.90716" lon="6.92651">
        <ele>1175</ele>
        <time>2025-06-08T11:48:55.000Z</time>
      </trkpt>
      <trkpt lat="47.90721" lon="6.92655">
        <ele>1173</ele>
        <time>2025-06-08T11:48:59.000Z</time>
      </trkpt>
      <trkpt lat="47.90725" lon="6.92658">
        <ele>1174</ele>
        <time>2025-06-08T11:49:03.000Z</time>
      </trkpt>
      <trkpt lat="47.90729" lon="6.92662">
        <ele>1174</ele>
        <time>2025-06-08T11:49:06.000Z</time>
      </trkpt>
      <trkpt lat="47.9073" lon="6.9267">
        <ele>1174</ele>
        <time>2025-06-08T11:49:09.000Z</time>
      </trkpt>
      <trkpt lat="47.90734" lon="6.92675">
        <ele>1173</ele>
        <time>2025-06-08T11:49:12.000Z</time>
      </trkpt>
      <trkpt lat="47.9074" lon="6.92675">
        <ele>1172</ele>
        <time>2025-06-08T11:49:15.000Z</time>
      </trkpt>
      <trkpt lat="47.90749" lon="6.92679">
        <ele>1171</ele>
        <time>2025-06-08T11:49:22.000Z</time>
      </trkpt>
      <trkpt lat="47.90755" lon="6.9268">
        <ele>1171</ele>
        <time>2025-06-08T11:49:26.000Z</time>
      </trkpt>
      <trkpt lat="47.90758" lon="6.92685">
        <ele>1170</ele>
        <time>2025-06-08T11:49:29.000Z</time>
      </trkpt>
      <trkpt lat="47.90763" lon="6.92687">
        <ele>1171</ele>
        <time>2025-06-08T11:49:33.000Z</time>
      </trkpt>
      <trkpt lat="47.90768" lon="6.9269">
        <ele>1171</ele>
        <time>2025-06-08T11:49:37.000Z</time>
      </trkpt>
      <trkpt lat="47.90773" lon="6.9269">
        <ele>1171</ele>
        <time>2025-06-08T11:49:40.000Z</time>
      </trkpt>
      <trkpt lat="47.90777" lon="6.92693">
        <ele>1172</ele>
        <time>2025-06-08T11:49:43.000Z</time>
      </trkpt>
      <trkpt lat="47.90787" lon="6.92692">
        <ele>1172</ele>
        <time>2025-06-08T11:49:50.000Z</time>
      </trkpt>
      <trkpt lat="47.90792" lon="6.92692">
        <ele>1172</ele>
        <time>2025-06-08T11:49:53.000Z</time>
      </trkpt>
      <trkpt lat="47.90799" lon="6.92701">
        <ele>1173</ele>
        <time>2025-06-08T11:49:59.000Z</time>
      </trkpt>
      <trkpt lat="47.90804" lon="6.92703">
        <ele>1173</ele>
        <time>2025-06-08T11:50:03.000Z</time>
      </trkpt>
      <trkpt lat="47.90813" lon="6.92702">
        <ele>1173</ele>
        <time>2025-06-08T11:50:10.000Z</time>
      </trkpt>
      <trkpt lat="47.90818" lon="6.92705">
        <ele>1174</ele>
        <time>2025-06-08T11:50:14.000Z</time>
      </trkpt>
      <trkpt lat="47.90824" lon="6.92705">
        <ele>1175</ele>
        <time>2025-06-08T11:50:18.000Z</time>
      </trkpt>
      <trkpt lat="47.90837" lon="6.92712">
        <ele>1178</ele>
        <time>2025-06-08T11:50:31.000Z</time>
      </trkpt>
      <trkpt lat="47.9084" lon="6.92717">
        <ele>1179</ele>
        <time>2025-06-08T11:50:36.000Z</time>
      </trkpt>
      <trkpt lat="47.90847" lon="6.92722">
        <ele>1181</ele>
        <time>2025-06-08T11:50:44.000Z</time>
      </trkpt>
      <trkpt lat="47.9085" lon="6.92728">
        <ele>1181</ele>
        <time>2025-06-08T11:50:48.000Z</time>
      </trkpt>
      <trkpt lat="47.90855" lon="6.9273">
        <ele>1182</ele>
        <time>2025-06-08T11:50:55.000Z</time>
      </trkpt>
      <trkpt lat="47.9086" lon="6.9273">
        <ele>1183</ele>
        <time>2025-06-08T11:50:59.000Z</time>
      </trkpt>
      <trkpt lat="47.90869" lon="6.92737">
        <ele>1186</ele>
        <time>2025-06-08T11:51:07.000Z</time>
      </trkpt>
      <trkpt lat="47.90873" lon="6.92743">
        <ele>1188</ele>
        <time>2025-06-08T11:51:16.000Z</time>
      </trkpt>
      <trkpt lat="47.9088" lon="6.92747">
        <ele>1190</ele>
        <time>2025-06-08T11:51:25.000Z</time>
      </trkpt>
      <trkpt lat="47.9089" lon="6.92754">
        <ele>1193</ele>
        <time>2025-06-08T11:51:36.000Z</time>
      </trkpt>
      <trkpt lat="47.90903" lon="6.92773">
        <ele>1198</ele>
        <time>2025-06-08T11:51:53.000Z</time>
      </trkpt>
      <trkpt lat="47.90912" lon="6.92802">
        <ele>1201</ele>
        <time>2025-06-08T11:52:13.000Z</time>
      </trkpt>
      <trkpt lat="47.90912" lon="6.92809">
        <ele>1202</ele>
        <time>2025-06-08T11:52:16.000Z</time>
      </trkpt>
      <trkpt lat="47.90917" lon="6.9282">
        <ele>1203</ele>
        <time>2025-06-08T11:52:23.000Z</time>
      </trkpt>
      <trkpt lat="47.9092" lon="6.92829">
        <ele>1203</ele>
        <time>2025-06-08T11:52:29.000Z</time>
      </trkpt>
      <trkpt lat="47.90923" lon="6.92834">
        <ele>1203</ele>
        <time>2025-06-08T11:52:33.000Z</time>
      </trkpt>
      <trkpt lat="47.90931" lon="6.92842">
        <ele>1204</ele>
        <time>2025-06-08T11:52:41.000Z</time>
      </trkpt>
      <trkpt lat="47.90936" lon="6.92842">
        <ele>1206</ele>
        <time>2025-06-08T11:52:49.000Z</time>
      </trkpt>
      <trkpt lat="47.90942" lon="6.92841">
        <ele>1207</ele>
        <time>2025-06-08T11:52:53.000Z</time>
      </trkpt>
      <trkpt lat="47.90957" lon="6.92849">
        <ele>1212</ele>
        <time>2025-06-08T11:53:13.000Z</time>
      </trkpt>
      <trkpt lat="47.90962" lon="6.9285">
        <ele>1213</ele>
        <time>2025-06-08T11:53:17.000Z</time>
      </trkpt>
      <trkpt lat="47.90968" lon="6.9285">
        <ele>1214</ele>
        <time>2025-06-08T11:53:23.000Z</time>
      </trkpt>
      <trkpt lat="47.90976" lon="6.92865">
        <ele>1216</ele>
        <time>2025-06-08T11:53:33.000Z</time>
      </trkpt>
      <trkpt lat="47.90981" lon="6.92869">
        <ele>1216</ele>
        <time>2025-06-08T11:53:38.000Z</time>
      </trkpt>
      <trkpt lat="47.90986" lon="6.92877">
        <ele>1216</ele>
        <time>2025-06-08T11:53:44.000Z</time>
      </trkpt>
      <trkpt lat="47.9099" lon="6.92883">
        <ele>1217</ele>
        <time>2025-06-08T11:53:49.000Z</time>
      </trkpt>
      <trkpt lat="47.90999" lon="6.92879">
        <ele>1217</ele>
        <time>2025-06-08T11:53:57.000Z</time>
      </trkpt>
      <trkpt lat="47.91004" lon="6.92878">
        <ele>1218</ele>
        <time>2025-06-08T11:54:01.000Z</time>
      </trkpt>
      <trkpt lat="47.91008" lon="6.92882">
        <ele>1219</ele>
        <time>2025-06-08T11:54:04.000Z</time>
      </trkpt>
      <trkpt lat="47.91013" lon="6.92883">
        <ele>1218</ele>
        <time>2025-06-08T11:54:09.000Z</time>
      </trkpt>
      <trkpt lat="47.91033" lon="6.92876">
        <ele>1217</ele>
        <time>2025-06-08T11:54:24.000Z</time>
      </trkpt>
      <trkpt lat="47.91038" lon="6.92877">
        <ele>1216</ele>
        <time>2025-06-08T11:54:27.000Z</time>
      </trkpt>
      <trkpt lat="47.91042" lon="6.92877">
        <ele>1216</ele>
        <time>2025-06-08T11:54:31.000Z</time>
      </trkpt>
      <trkpt lat="47.91061" lon="6.92873">
        <ele>1211</ele>
        <time>2025-06-08T11:54:53.000Z</time>
      </trkpt>
      <trkpt lat="47.91067" lon="6.92873">
        <ele>1208</ele>
        <time>2025-06-08T11:55:06.000Z</time>
      </trkpt>
      <trkpt lat="47.91073" lon="6.92867">
        <ele>1207</ele>
        <time>2025-06-08T11:55:12.000Z</time>
      </trkpt>
      <trkpt lat="47.91078" lon="6.92866">
        <ele>1206</ele>
        <time>2025-06-08T11:55:15.000Z</time>
      </trkpt>
      <trkpt lat="47.91086" lon="6.92862">
        <ele>1203</ele>
        <time>2025-06-08T11:55:25.000Z</time>
      </trkpt>
      <trkpt lat="47.91089" lon="6.92857">
        <ele>1203</ele>
        <time>2025-06-08T11:55:32.000Z</time>
      </trkpt>
      <trkpt lat="47.91094" lon="6.92845">
        <ele>1201</ele>
        <time>2025-06-08T11:55:40.000Z</time>
      </trkpt>
      <trkpt lat="47.91099" lon="6.92842">
        <ele>1197</ele>
        <time>2025-06-08T11:55:55.000Z</time>
      </trkpt>
      <trkpt lat="47.911" lon="6.92835">
        <ele>1195</ele>
        <time>2025-06-08T11:56:01.000Z</time>
      </trkpt>
      <trkpt lat="47.91122" lon="6.92812">
        <ele>1189</ele>
        <time>2025-06-08T11:56:24.000Z</time>
      </trkpt>
      <trkpt lat="47.91131" lon="6.92806">
        <ele>1187</ele>
        <time>2025-06-08T11:56:33.000Z</time>
      </trkpt>
      <trkpt lat="47.91135" lon="6.92806">
        <ele>1186</ele>
        <time>2025-06-08T11:56:37.000Z</time>
      </trkpt>
      <trkpt lat="47.9114" lon="6.92803">
        <ele>1184</ele>
        <time>2025-06-08T11:56:43.000Z</time>
      </trkpt>
      <trkpt lat="47.91146" lon="6.92796">
        <ele>1183</ele>
        <time>2025-06-08T11:56:51.000Z</time>
      </trkpt>
      <trkpt lat="47.91149" lon="6.9279">
        <ele>1182</ele>
        <time>2025-06-08T11:56:55.000Z</time>
      </trkpt>
      <trkpt lat="47.91162" lon="6.9278">
        <ele>1179</ele>
        <time>2025-06-08T11:57:08.000Z</time>
      </trkpt>
      <trkpt lat="47.91165" lon="6.92774">
        <ele>1178</ele>
        <time>2025-06-08T11:57:15.000Z</time>
      </trkpt>
      <trkpt lat="47.91175" lon="6.92766">
        <ele>1176</ele>
        <time>2025-06-08T11:57:25.000Z</time>
      </trkpt>
      <trkpt lat="47.9118" lon="6.92763">
        <ele>1176</ele>
        <time>2025-06-08T11:57:29.000Z</time>
      </trkpt>
      <trkpt lat="47.91186" lon="6.92758">
        <ele>1174</ele>
        <time>2025-06-08T11:57:36.000Z</time>
      </trkpt>
      <trkpt lat="47.91191" lon="6.92757">
        <ele>1174</ele>
        <time>2025-06-08T11:57:40.000Z</time>
      </trkpt>
      <trkpt lat="47.91195" lon="6.92753">
        <ele>1173</ele>
        <time>2025-06-08T11:57:44.000Z</time>
      </trkpt>
      <trkpt lat="47.912" lon="6.92751">
        <ele>1173</ele>
        <time>2025-06-08T11:57:48.000Z</time>
      </trkpt>
      <trkpt lat="47.91203" lon="6.92748">
        <ele>1172</ele>
        <time>2025-06-08T11:57:52.000Z</time>
      </trkpt>
      <trkpt lat="47.9121" lon="6.92744">
        <ele>1169</ele>
        <time>2025-06-08T11:58:03.000Z</time>
      </trkpt>
      <trkpt lat="47.9122" lon="6.9274">
        <ele>1168</ele>
        <time>2025-06-08T11:58:13.000Z</time>
      </trkpt>
      <trkpt lat="47.91225" lon="6.92737">
        <ele>1169</ele>
        <time>2025-06-08T11:58:18.000Z</time>
      </trkpt>
      <trkpt lat="47.9123" lon="6.92735">
        <ele>1167</ele>
        <time>2025-06-08T11:58:22.000Z</time>
      </trkpt>
      <trkpt lat="47.91236" lon="6.92738">
        <ele>1166</ele>
        <time>2025-06-08T11:58:28.000Z</time>
      </trkpt>
      <trkpt lat="47.9124" lon="6.92737">
        <ele>1165</ele>
        <time>2025-06-08T11:58:32.000Z</time>
      </trkpt>
      <trkpt lat="47.91246" lon="6.92735">
        <ele>1164</ele>
        <time>2025-06-08T11:58:39.000Z</time>
      </trkpt>
      <trkpt lat="47.91249" lon="6.92729">
        <ele>1162</ele>
        <time>2025-06-08T11:58:43.000Z</time>
      </trkpt>
      <trkpt lat="47.91264" lon="6.92722">
        <ele>1159</ele>
        <time>2025-06-08T11:58:58.000Z</time>
      </trkpt>
      <trkpt lat="47.91268" lon="6.92721">
        <ele>1158</ele>
        <time>2025-06-08T11:59:02.000Z</time>
      </trkpt>
      <trkpt lat="47.91274" lon="6.92726">
        <ele>1157</ele>
        <time>2025-06-08T11:59:08.000Z</time>
      </trkpt>
      <trkpt lat="47.91279" lon="6.92728">
        <ele>1155</ele>
        <time>2025-06-08T11:59:16.000Z</time>
      </trkpt>
      <trkpt lat="47.91283" lon="6.92717">
        <ele>1152</ele>
        <time>2025-06-08T11:59:30.000Z</time>
      </trkpt>
      <trkpt lat="47.91288" lon="6.92714">
        <ele>1151</ele>
        <time>2025-06-08T11:59:36.000Z</time>
      </trkpt>
      <trkpt lat="47.91293" lon="6.92713">
        <ele>1149</ele>
        <time>2025-06-08T11:59:41.000Z</time>
      </trkpt>
      <trkpt lat="47.91297" lon="6.92718">
        <ele>1148</ele>
        <time>2025-06-08T11:59:46.000Z</time>
      </trkpt>
      <trkpt lat="47.91307" lon="6.92709">
        <ele>1144</ele>
        <time>2025-06-08T12:00:03.000Z</time>
      </trkpt>
      <trkpt lat="47.91314" lon="6.92706">
        <ele>1141</ele>
        <time>2025-06-08T12:00:11.000Z</time>
      </trkpt>
      <trkpt lat="47.91316" lon="6.92713">
        <ele>1140</ele>
        <time>2025-06-08T12:00:16.000Z</time>
      </trkpt>
      <trkpt lat="47.91321" lon="6.92709">
        <ele>1137</ele>
        <time>2025-06-08T12:00:29.000Z</time>
      </trkpt>
      <trkpt lat="47.91325" lon="6.92707">
        <ele>1136</ele>
        <time>2025-06-08T12:00:32.000Z</time>
      </trkpt>
      <trkpt lat="47.91329" lon="6.92702">
        <ele>1136</ele>
        <time>2025-06-08T12:00:36.000Z</time>
      </trkpt>
      <trkpt lat="47.91337" lon="6.92701">
        <ele>1133</ele>
        <time>2025-06-08T12:00:45.000Z</time>
      </trkpt>
      <trkpt lat="47.91341" lon="6.92703">
        <ele>1132</ele>
        <time>2025-06-08T12:00:48.000Z</time>
      </trkpt>
      <trkpt lat="47.91341" lon="6.92712">
        <ele>1130</ele>
        <time>2025-06-08T12:00:58.000Z</time>
      </trkpt>
      <trkpt lat="47.91348" lon="6.92704">
        <ele>1127</ele>
        <time>2025-06-08T12:01:09.000Z</time>
      </trkpt>
      <trkpt lat="47.91358" lon="6.92708">
        <ele>1123</ele>
        <time>2025-06-08T12:01:22.000Z</time>
      </trkpt>
      <trkpt lat="47.91364" lon="6.92702">
        <ele>1121</ele>
        <time>2025-06-08T12:01:34.000Z</time>
      </trkpt>
      <trkpt lat="47.91369" lon="6.92699">
        <ele>1120</ele>
        <time>2025-06-08T12:01:38.000Z</time>
      </trkpt>
      <trkpt lat="47.91374" lon="6.92699">
        <ele>1119</ele>
        <time>2025-06-08T12:01:41.000Z</time>
      </trkpt>
      <trkpt lat="47.91381" lon="6.92702">
        <ele>1117</ele>
        <time>2025-06-08T12:01:50.000Z</time>
      </trkpt>
      <trkpt lat="47.91386" lon="6.92701">
        <ele>1116</ele>
        <time>2025-06-08T12:01:54.000Z</time>
      </trkpt>
      <trkpt lat="47.91404" lon="6.92704">
        <ele>1112</ele>
        <time>2025-06-08T12:02:08.000Z</time>
      </trkpt>
      <trkpt lat="47.91409" lon="6.92705">
        <ele>1112</ele>
        <time>2025-06-08T12:02:11.000Z</time>
      </trkpt>
      <trkpt lat="47.91414" lon="6.92708">
        <ele>1112</ele>
        <time>2025-06-08T12:02:15.000Z</time>
      </trkpt>
      <trkpt lat="47.91457" lon="6.92712">
        <ele>1107</ele>
        <time>2025-06-08T12:02:46.000Z</time>
      </trkpt>
      <trkpt lat="47.91467" lon="6.92714">
        <ele>1105</ele>
        <time>2025-06-08T12:02:53.000Z</time>
      </trkpt>
      <trkpt lat="47.91472" lon="6.92714">
        <ele>1106</ele>
        <time>2025-06-08T12:02:56.000Z</time>
      </trkpt>
      <trkpt lat="47.91477" lon="6.92715">
        <ele>1106</ele>
        <time>2025-06-08T12:02:59.000Z</time>
      </trkpt>
      <trkpt lat="47.91518" lon="6.92719">
        <ele>1101</ele>
        <time>2025-06-08T12:03:32.000Z</time>
      </trkpt>
      <trkpt lat="47.91528" lon="6.92719">
        <ele>1100</ele>
        <time>2025-06-08T12:03:40.000Z</time>
      </trkpt>
      <trkpt lat="47.91533" lon="6.92718">
        <ele>1100</ele>
        <time>2025-06-08T12:03:44.000Z</time>
      </trkpt>
      <trkpt lat="47.91577" lon="6.92713">
        <ele>1089</ele>
        <time>2025-06-08T12:04:14.000Z</time>
      </trkpt>
      <trkpt lat="47.91582" lon="6.92711">
        <ele>1088</ele>
        <time>2025-06-08T12:04:17.000Z</time>
      </trkpt>
      <trkpt lat="47.91593" lon="6.92707">
        <ele>1087</ele>
        <time>2025-06-08T12:04:24.000Z</time>
      </trkpt>
      <trkpt lat="47.91597" lon="6.92708">
        <ele>1086</ele>
        <time>2025-06-08T12:04:27.000Z</time>
      </trkpt>
      <trkpt lat="47.91633" lon="6.92689">
        <ele>1076</ele>
        <time>2025-06-08T12:05:01.000Z</time>
      </trkpt>
      <trkpt lat="47.91638" lon="6.92692">
        <ele>1075</ele>
        <time>2025-06-08T12:05:04.000Z</time>
      </trkpt>
      <trkpt lat="47.91647" lon="6.92687">
        <ele>1072</ele>
        <time>2025-06-08T12:05:12.000Z</time>
      </trkpt>
      <trkpt lat="47.91651" lon="6.92682">
        <ele>1071</ele>
        <time>2025-06-08T12:05:16.000Z</time>
      </trkpt>
      <trkpt lat="47.91661" lon="6.9268">
        <ele>1069</ele>
        <time>2025-06-08T12:05:23.000Z</time>
      </trkpt>
      <trkpt lat="47.9167" lon="6.92676">
        <ele>1069</ele>
        <time>2025-06-08T12:05:29.000Z</time>
      </trkpt>
      <trkpt lat="47.91674" lon="6.92676">
        <ele>1068</ele>
        <time>2025-06-08T12:05:32.000Z</time>
      </trkpt>
      <trkpt lat="47.91678" lon="6.92673">
        <ele>1067</ele>
        <time>2025-06-08T12:05:36.000Z</time>
      </trkpt>
      <trkpt lat="47.91716" lon="6.92657">
        <ele>1059</ele>
        <time>2025-06-08T12:06:06.000Z</time>
      </trkpt>
      <trkpt lat="47.9172" lon="6.92653">
        <ele>1059</ele>
        <time>2025-06-08T12:06:09.000Z</time>
      </trkpt>
      <trkpt lat="47.91742" lon="6.92627">
        <ele>1052</ele>
        <time>2025-06-08T12:06:30.000Z</time>
      </trkpt>
      <trkpt lat="47.91753" lon="6.92612">
        <ele>1053</ele>
        <time>2025-06-08T12:06:41.000Z</time>
      </trkpt>
      <trkpt lat="47.91756" lon="6.92607">
        <ele>1052</ele>
        <time>2025-06-08T12:06:45.000Z</time>
      </trkpt>
      <trkpt lat="47.91761" lon="6.92595">
        <ele>1048</ele>
        <time>2025-06-08T12:06:58.000Z</time>
      </trkpt>
      <trkpt lat="47.91776" lon="6.92571">
        <ele>1037</ele>
        <time>2025-06-08T12:07:33.000Z</time>
      </trkpt>
      <trkpt lat="47.91781" lon="6.92561">
        <ele>1035</ele>
        <time>2025-06-08T12:07:43.000Z</time>
      </trkpt>
      <trkpt lat="47.91776" lon="6.92553">
        <ele>1026</ele>
        <time>2025-06-08T12:08:05.000Z</time>
      </trkpt>
      <trkpt lat="47.91774" lon="6.92543">
        <ele>1024</ele>
        <time>2025-06-08T12:08:08.000Z</time>
      </trkpt>
      <trkpt lat="47.91772" lon="6.92537">
        <ele>1024</ele>
        <time>2025-06-08T12:08:10.000Z</time>
      </trkpt>
      <trkpt lat="47.91787" lon="6.92539">
        <ele>1020</ele>
        <time>2025-06-08T12:08:26.000Z</time>
      </trkpt>
      <trkpt lat="47.91803" lon="6.92533">
        <ele>1015</ele>
        <time>2025-06-08T12:08:46.000Z</time>
      </trkpt>
      <trkpt lat="47.918" lon="6.92532">
        <ele>1013</ele>
        <time>2025-06-08T12:08:54.000Z</time>
      </trkpt>
      <trkpt lat="47.91795" lon="6.92517">
        <ele>1010</ele>
        <time>2025-06-08T12:09:05.000Z</time>
      </trkpt>
      <trkpt lat="47.91795" lon="6.92502">
        <ele>1009</ele>
        <time>2025-06-08T12:09:11.000Z</time>
      </trkpt>
      <trkpt lat="47.91782" lon="6.92443">
        <ele>996</ele>
        <time>2025-06-08T12:09:42.000Z</time>
      </trkpt>
      <trkpt lat="47.9178" lon="6.92437">
        <ele>994</ele>
        <time>2025-06-08T12:09:45.000Z</time>
      </trkpt>
      <trkpt lat="47.91771" lon="6.92412">
        <ele>991</ele>
        <time>2025-06-08T12:10:01.000Z</time>
      </trkpt>
      <trkpt lat="47.91767" lon="6.92398">
        <ele>989</ele>
        <time>2025-06-08T12:10:09.000Z</time>
      </trkpt>
      <trkpt lat="47.91765" lon="6.92391">
        <ele>989</ele>
        <time>2025-06-08T12:10:11.000Z</time>
      </trkpt>
      <trkpt lat="47.9176" lon="6.92378">
        <ele>988</ele>
        <time>2025-06-08T12:10:17.000Z</time>
      </trkpt>
      <trkpt lat="47.91755" lon="6.92364">
        <ele>986</ele>
        <time>2025-06-08T12:10:26.000Z</time>
      </trkpt>
      <trkpt lat="47.91749" lon="6.9235">
        <ele>986</ele>
        <time>2025-06-08T12:10:35.000Z</time>
      </trkpt>
      <trkpt lat="47.91741" lon="6.92341">
        <ele>984</ele>
        <time>2025-06-08T12:10:42.000Z</time>
      </trkpt>
      <trkpt lat="47.91736" lon="6.9234">
        <ele>983</ele>
        <time>2025-06-08T12:10:47.000Z</time>
      </trkpt>
      <trkpt lat="47.9173" lon="6.92339">
        <ele>983</ele>
        <time>2025-06-08T12:10:50.000Z</time>
      </trkpt>
      <trkpt lat="47.91726" lon="6.92336">
        <ele>982</ele>
        <time>2025-06-08T12:10:53.000Z</time>
      </trkpt>
      <trkpt lat="47.91725" lon="6.92326">
        <ele>981</ele>
        <time>2025-06-08T12:10:56.000Z</time>
      </trkpt>
      <trkpt lat="47.91732" lon="6.92314">
        <ele>980</ele>
        <time>2025-06-08T12:11:03.000Z</time>
      </trkpt>
      <trkpt lat="47.9174" lon="6.92304">
        <ele>977</ele>
        <time>2025-06-08T12:11:11.000Z</time>
      </trkpt>
      <trkpt lat="47.91759" lon="6.92296">
        <ele>975</ele>
        <time>2025-06-08T12:11:26.000Z</time>
      </trkpt>
      <trkpt lat="47.91765" lon="6.92296">
        <ele>973</ele>
        <time>2025-06-08T12:11:32.000Z</time>
      </trkpt>
      <trkpt lat="47.9177" lon="6.92294">
        <ele>972</ele>
        <time>2025-06-08T12:11:37.000Z</time>
      </trkpt>
      <trkpt lat="47.91777" lon="6.92297">
        <ele>971</ele>
        <time>2025-06-08T12:11:40.000Z</time>
      </trkpt>
      <trkpt lat="47.91786" lon="6.92295">
        <ele>970</ele>
        <time>2025-06-08T12:11:46.000Z</time>
      </trkpt>
      <trkpt lat="47.91796" lon="6.92287">
        <ele>969</ele>
        <time>2025-06-08T12:11:51.000Z</time>
      </trkpt>
      <trkpt lat="47.91802" lon="6.92276">
        <ele>967</ele>
        <time>2025-06-08T12:11:59.000Z</time>
      </trkpt>
      <trkpt lat="47.9182" lon="6.92216">
        <ele>962</ele>
        <time>2025-06-08T12:12:32.000Z</time>
      </trkpt>
      <trkpt lat="47.91837" lon="6.92162">
        <ele>952</ele>
        <time>2025-06-08T12:13:05.000Z</time>
      </trkpt>
      <trkpt lat="47.91852" lon="6.92136">
        <ele>946</ele>
        <time>2025-06-08T12:13:22.000Z</time>
      </trkpt>
      <trkpt lat="47.91861" lon="6.92128">
        <ele>946</ele>
        <time>2025-06-08T12:13:32.000Z</time>
      </trkpt>
      <trkpt lat="47.91864" lon="6.92121">
        <ele>945</ele>
        <time>2025-06-08T12:13:35.000Z</time>
      </trkpt>
      <trkpt lat="47.91866" lon="6.92113">
        <ele>943</ele>
        <time>2025-06-08T12:13:40.000Z</time>
      </trkpt>
      <trkpt lat="47.91866" lon="6.92097">
        <ele>938</ele>
        <time>2025-06-08T12:13:56.000Z</time>
      </trkpt>
      <trkpt lat="47.91865" lon="6.9209">
        <ele>937</ele>
        <time>2025-06-08T12:14:00.000Z</time>
      </trkpt>
      <trkpt lat="47.91854" lon="6.92064">
        <ele>929</ele>
        <time>2025-06-08T12:14:17.000Z</time>
      </trkpt>
      <trkpt lat="47.91853" lon="6.92056">
        <ele>929</ele>
        <time>2025-06-08T12:14:19.000Z</time>
      </trkpt>
      <trkpt lat="47.91855" lon="6.92046">
        <ele>927</ele>
        <time>2025-06-08T12:14:25.000Z</time>
      </trkpt>
      <trkpt lat="47.9186" lon="6.9203">
        <ele>925</ele>
        <time>2025-06-08T12:14:32.000Z</time>
      </trkpt>
      <trkpt lat="47.91863" lon="6.92005">
        <ele>920</ele>
        <time>2025-06-08T12:14:47.000Z</time>
      </trkpt>
      <trkpt lat="47.91864" lon="6.91982">
        <ele>916</ele>
        <time>2025-06-08T12:15:01.000Z</time>
      </trkpt>
      <trkpt lat="47.9187" lon="6.91966">
        <ele>914</ele>
        <time>2025-06-08T12:15:13.000Z</time>
      </trkpt>
      <trkpt lat="47.91883" lon="6.91961">
        <ele>911</ele>
        <time>2025-06-08T12:15:25.000Z</time>
      </trkpt>
      <trkpt lat="47.91907" lon="6.9196">
        <ele>909</ele>
        <time>2025-06-08T12:15:41.000Z</time>
      </trkpt>
      <trkpt lat="47.91924" lon="6.91962">
        <ele>907</ele>
        <time>2025-06-08T12:15:51.000Z</time>
      </trkpt>
      <trkpt lat="47.91927" lon="6.91961">
        <ele>905</ele>
        <time>2025-06-08T12:16:06.000Z</time>
      </trkpt>
      <trkpt lat="47.91945" lon="6.91966">
        <ele>906</ele>
        <time>2025-06-08T12:16:15.000Z</time>
      </trkpt>
      <trkpt lat="47.9195" lon="6.91966">
        <ele>906</ele>
        <time>2025-06-08T12:16:17.000Z</time>
      </trkpt>
      <trkpt lat="47.91955" lon="6.91963">
        <ele>906</ele>
        <time>2025-06-08T12:16:20.000Z</time>
      </trkpt>
      <trkpt lat="47.91975" lon="6.9194">
        <ele>898</ele>
        <time>2025-06-08T12:16:44.000Z</time>
      </trkpt>
      <trkpt lat="47.92003" lon="6.91904">
        <ele>890</ele>
        <time>2025-06-08T12:17:16.000Z</time>
      </trkpt>
      <trkpt lat="47.92041" lon="6.91861">
        <ele>888</ele>
        <time>2025-06-08T12:17:48.000Z</time>
      </trkpt>
      <trkpt lat="47.92076" lon="6.9182">
        <ele>887</ele>
        <time>2025-06-08T12:18:19.000Z</time>
      </trkpt>
      <trkpt lat="47.9208" lon="6.91816">
        <ele>887</ele>
        <time>2025-06-08T12:18:23.000Z</time>
      </trkpt>
      <trkpt lat="47.92084" lon="6.91813">
        <ele>887</ele>
        <time>2025-06-08T12:18:26.000Z</time>
      </trkpt>
      <trkpt lat="47.92095" lon="6.91806">
        <ele>886</ele>
        <time>2025-06-08T12:18:36.000Z</time>
      </trkpt>
      <trkpt lat="47.92109" lon="6.91801">
        <ele>887</ele>
        <time>2025-06-08T12:18:48.000Z</time>
      </trkpt>
      <trkpt lat="47.92119" lon="6.91802">
        <ele>887</ele>
        <time>2025-06-08T12:18:58.000Z</time>
      </trkpt>
      <trkpt lat="47.92129" lon="6.91804">
        <ele>887</ele>
        <time>2025-06-08T12:19:05.000Z</time>
      </trkpt>
      <trkpt lat="47.92133" lon="6.91804">
        <ele>886</ele>
        <time>2025-06-08T12:19:09.000Z</time>
      </trkpt>
      <trkpt lat="47.92145" lon="6.91805">
        <ele>886</ele>
        <time>2025-06-08T12:19:17.000Z</time>
      </trkpt>
      <trkpt lat="47.9215" lon="6.91804">
        <ele>886</ele>
        <time>2025-06-08T12:19:20.000Z</time>
      </trkpt>
      <trkpt lat="47.92155" lon="6.91802">
        <ele>886</ele>
        <time>2025-06-08T12:19:23.000Z</time>
      </trkpt>
      <trkpt lat="47.9217" lon="6.91796">
        <ele>886</ele>
        <time>2025-06-08T12:19:36.000Z</time>
      </trkpt>
      <trkpt lat="47.92176" lon="6.91795">
        <ele>885</ele>
        <time>2025-06-08T12:19:40.000Z</time>
      </trkpt>
      <trkpt lat="47.9219" lon="6.918">
        <ele>885</ele>
        <time>2025-06-08T12:19:50.000Z</time>
      </trkpt>
      <trkpt lat="47.92194" lon="6.918">
        <ele>885</ele>
        <time>2025-06-08T12:19:54.000Z</time>
      </trkpt>
      <trkpt lat="47.92202" lon="6.918">
        <ele>885</ele>
        <time>2025-06-08T12:20:01.000Z</time>
      </trkpt>
      <trkpt lat="47.92207" lon="6.91795">
        <ele>885</ele>
        <time>2025-06-08T12:20:03.000Z</time>
      </trkpt>
      <trkpt lat="47.92212" lon="6.9178">
        <ele>884</ele>
        <time>2025-06-08T12:20:09.000Z</time>
      </trkpt>
      <trkpt lat="47.92215" lon="6.91776">
        <ele>883</ele>
        <time>2025-06-08T12:20:12.000Z</time>
      </trkpt>
      <trkpt lat="47.9222" lon="6.91763">
        <ele>883</ele>
        <time>2025-06-08T12:20:20.000Z</time>
      </trkpt>
      <trkpt lat="47.92226" lon="6.91752">
        <ele>882</ele>
        <time>2025-06-08T12:20:28.000Z</time>
      </trkpt>
      <trkpt lat="47.9223" lon="6.91747">
        <ele>882</ele>
        <time>2025-06-08T12:20:32.000Z</time>
      </trkpt>
      <trkpt lat="47.92242" lon="6.91738">
        <ele>880</ele>
        <time>2025-06-08T12:20:47.000Z</time>
      </trkpt>
      <trkpt lat="47.92246" lon="6.91737">
        <ele>880</ele>
        <time>2025-06-08T12:20:50.000Z</time>
      </trkpt>
      <trkpt lat="47.92256" lon="6.91739">
        <ele>880</ele>
        <time>2025-06-08T12:20:57.000Z</time>
      </trkpt>
      <trkpt lat="47.92261" lon="6.91741">
        <ele>880</ele>
        <time>2025-06-08T12:21:01.000Z</time>
      </trkpt>
      <trkpt lat="47.92266" lon="6.91742">
        <ele>880</ele>
        <time>2025-06-08T12:21:05.000Z</time>
      </trkpt>
      <trkpt lat="47.9227" lon="6.91743">
        <ele>881</ele>
        <time>2025-06-08T12:21:08.000Z</time>
      </trkpt>
      <trkpt lat="47.92274" lon="6.91741">
        <ele>881</ele>
        <time>2025-06-08T12:21:12.000Z</time>
      </trkpt>
      <trkpt lat="47.92279" lon="6.91738">
        <ele>881</ele>
        <time>2025-06-08T12:21:15.000Z</time>
      </trkpt>
      <trkpt lat="47.92284" lon="6.91733">
        <ele>881</ele>
        <time>2025-06-08T12:21:23.000Z</time>
      </trkpt>
      <trkpt lat="47.92287" lon="6.91729">
        <ele>882</ele>
        <time>2025-06-08T12:21:28.000Z</time>
      </trkpt>
      <trkpt lat="47.92314" lon="6.91708">
        <ele>887</ele>
        <time>2025-06-08T12:21:59.000Z</time>
      </trkpt>
      <trkpt lat="47.92328" lon="6.917">
        <ele>889</ele>
        <time>2025-06-08T12:22:10.000Z</time>
      </trkpt>
      <trkpt lat="47.92333" lon="6.91698">
        <ele>889</ele>
        <time>2025-06-08T12:22:15.000Z</time>
      </trkpt>
      <trkpt lat="47.92354" lon="6.91682">
        <ele>893</ele>
        <time>2025-06-08T12:22:38.000Z</time>
      </trkpt>
      <trkpt lat="47.92364" lon="6.91677">
        <ele>893</ele>
        <time>2025-06-08T12:22:43.000Z</time>
      </trkpt>
      <trkpt lat="47.92367" lon="6.91673">
        <ele>894</ele>
        <time>2025-06-08T12:22:48.000Z</time>
      </trkpt>
      <trkpt lat="47.92374" lon="6.91673">
        <ele>894</ele>
        <time>2025-06-08T12:22:54.000Z</time>
      </trkpt>
      <trkpt lat="47.92378" lon="6.9167">
        <ele>894</ele>
        <time>2025-06-08T12:22:57.000Z</time>
      </trkpt>
      <trkpt lat="47.92384" lon="6.91679">
        <ele>895</ele>
        <time>2025-06-08T12:23:03.000Z</time>
      </trkpt>
      <trkpt lat="47.92394" lon="6.9169">
        <ele>898</ele>
        <time>2025-06-08T12:23:11.000Z</time>
      </trkpt>
      <trkpt lat="47.92397" lon="6.91698">
        <ele>900</ele>
        <time>2025-06-08T12:23:17.000Z</time>
      </trkpt>
      <trkpt lat="47.92405" lon="6.91698">
        <ele>902</ele>
        <time>2025-06-08T12:23:24.000Z</time>
      </trkpt>
      <trkpt lat="47.92412" lon="6.91713">
        <ele>905</ele>
        <time>2025-06-08T12:23:35.000Z</time>
      </trkpt>
      <trkpt lat="47.92413" lon="6.91721">
        <ele>905</ele>
        <time>2025-06-08T12:23:40.000Z</time>
      </trkpt>
      <trkpt lat="47.92416" lon="6.91727">
        <ele>906</ele>
        <time>2025-06-08T12:23:43.000Z</time>
      </trkpt>
      <trkpt lat="47.92412" lon="6.91734">
        <ele>907</ele>
        <time>2025-06-08T12:23:47.000Z</time>
      </trkpt>
      <trkpt lat="47.92405" lon="6.91733">
        <ele>907</ele>
        <time>2025-06-08T12:23:50.000Z</time>
      </trkpt>
      <trkpt lat="47.92402" lon="6.9173">
        <ele>908</ele>
        <time>2025-06-08T12:23:52.000Z</time>
      </trkpt>
      <trkpt lat="47.92397" lon="6.9173">
        <ele>909</ele>
        <time>2025-06-08T12:23:56.000Z</time>
      </trkpt>
      <trkpt lat="47.92388" lon="6.91735">
        <ele>911</ele>
        <time>2025-06-08T12:24:06.000Z</time>
      </trkpt>
      <trkpt lat="47.92374" lon="6.91729">
        <ele>914</ele>
        <time>2025-06-08T12:24:16.000Z</time>
      </trkpt>
      <trkpt lat="47.92369" lon="6.91741">
        <ele>916</ele>
        <time>2025-06-08T12:24:25.000Z</time>
      </trkpt>
      <trkpt lat="47.92364" lon="6.91743">
        <ele>917</ele>
        <time>2025-06-08T12:24:28.000Z</time>
      </trkpt>
      <trkpt lat="47.92366" lon="6.91747">
        <ele>921</ele>
        <time>2025-06-08T12:24:54.000Z</time>
      </trkpt>
      <trkpt lat="47.92371" lon="6.91744">
        <ele>922</ele>
        <time>2025-06-08T12:25:00.000Z</time>
      </trkpt>
      <trkpt lat="47.92377" lon="6.9175">
        <ele>923</ele>
        <time>2025-06-08T12:25:03.000Z</time>
      </trkpt>
      <trkpt lat="47.92379" lon="6.91757">
        <ele>924</ele>
        <time>2025-06-08T12:25:07.000Z</time>
      </trkpt>
      <trkpt lat="47.92385" lon="6.91763">
        <ele>925</ele>
        <time>2025-06-08T12:25:11.000Z</time>
      </trkpt>
      <trkpt lat="47.92394" lon="6.91768">
        <ele>927</ele>
        <time>2025-06-08T12:25:17.000Z</time>
      </trkpt>
      <trkpt lat="47.92399" lon="6.91773">
        <ele>928</ele>
        <time>2025-06-08T12:25:24.000Z</time>
      </trkpt>
      <trkpt lat="47.92409" lon="6.91784">
        <ele>930</ele>
        <time>2025-06-08T12:25:34.000Z</time>
      </trkpt>
      <trkpt lat="47.92421" lon="6.91795">
        <ele>932</ele>
        <time>2025-06-08T12:25:48.000Z</time>
      </trkpt>
      <trkpt lat="47.92431" lon="6.91807">
        <ele>934</ele>
        <time>2025-06-08T12:26:00.000Z</time>
      </trkpt>
      <trkpt lat="47.92435" lon="6.91808">
        <ele>935</ele>
        <time>2025-06-08T12:26:03.000Z</time>
      </trkpt>
      <trkpt lat="47.92449" lon="6.91823">
        <ele>939</ele>
        <time>2025-06-08T12:26:26.000Z</time>
      </trkpt>
      <trkpt lat="47.92454" lon="6.91827">
        <ele>939</ele>
        <time>2025-06-08T12:26:31.000Z</time>
      </trkpt>
      <trkpt lat="47.92464" lon="6.91831">
        <ele>941</ele>
        <time>2025-06-08T12:26:38.000Z</time>
      </trkpt>
      <trkpt lat="47.92467" lon="6.91837">
        <ele>941</ele>
        <time>2025-06-08T12:26:42.000Z</time>
      </trkpt>
      <trkpt lat="47.92483" lon="6.91851">
        <ele>945</ele>
        <time>2025-06-08T12:26:58.000Z</time>
      </trkpt>
      <trkpt lat="47.92484" lon="6.91859">
        <ele>946</ele>
        <time>2025-06-08T12:27:01.000Z</time>
      </trkpt>
      <trkpt lat="47.92488" lon="6.91866">
        <ele>946</ele>
        <time>2025-06-08T12:27:08.000Z</time>
      </trkpt>
      <trkpt lat="47.92494" lon="6.91871">
        <ele>948</ele>
        <time>2025-06-08T12:27:16.000Z</time>
      </trkpt>
      <trkpt lat="47.92497" lon="6.91869">
        <ele>950</ele>
        <time>2025-06-08T12:27:39.000Z</time>
      </trkpt>
      <trkpt lat="47.92502" lon="6.91871">
        <ele>951</ele>
        <time>2025-06-08T12:27:43.000Z</time>
      </trkpt>
      <trkpt lat="47.92525" lon="6.9191">
        <ele>956</ele>
        <time>2025-06-08T12:28:12.000Z</time>
      </trkpt>
      <trkpt lat="47.92534" lon="6.91922">
        <ele>957</ele>
        <time>2025-06-08T12:28:23.000Z</time>
      </trkpt>
      <trkpt lat="47.92547" lon="6.9195">
        <ele>961</ele>
        <time>2025-06-08T12:28:41.000Z</time>
      </trkpt>
      <trkpt lat="47.92536" lon="6.91953">
        <ele>966</ele>
        <time>2025-06-08T12:29:02.000Z</time>
      </trkpt>
      <trkpt lat="47.92502" lon="6.91959">
        <ele>970</ele>
        <time>2025-06-08T12:29:26.000Z</time>
      </trkpt>
      <trkpt lat="47.9248" lon="6.91953">
        <ele>973</ele>
        <time>2025-06-08T12:29:43.000Z</time>
      </trkpt>
      <trkpt lat="47.92475" lon="6.91958">
        <ele>973</ele>
        <time>2025-06-08T12:29:48.000Z</time>
      </trkpt>
      <trkpt lat="47.92487" lon="6.91968">
        <ele>977</ele>
        <time>2025-06-08T12:30:06.000Z</time>
      </trkpt>
      <trkpt lat="47.92495" lon="6.91988">
        <ele>979</ele>
        <time>2025-06-08T12:30:16.000Z</time>
      </trkpt>
      <trkpt lat="47.92504" lon="6.91994">
        <ele>979</ele>
        <time>2025-06-08T12:30:21.000Z</time>
      </trkpt>
      <trkpt lat="47.92511" lon="6.91998">
        <ele>980</ele>
        <time>2025-06-08T12:30:30.000Z</time>
      </trkpt>
      <trkpt lat="47.92524" lon="6.91998">
        <ele>982</ele>
        <time>2025-06-08T12:30:40.000Z</time>
      </trkpt>
      <trkpt lat="47.92536" lon="6.92003">
        <ele>983</ele>
        <time>2025-06-08T12:30:51.000Z</time>
      </trkpt>
      <trkpt lat="47.92543" lon="6.92004">
        <ele>983</ele>
        <time>2025-06-08T12:30:54.000Z</time>
      </trkpt>
      <trkpt lat="47.92552" lon="6.92014">
        <ele>984</ele>
        <time>2025-06-08T12:31:03.000Z</time>
      </trkpt>
      <trkpt lat="47.92559" lon="6.92014">
        <ele>985</ele>
        <time>2025-06-08T12:31:07.000Z</time>
      </trkpt>
      <trkpt lat="47.92568" lon="6.92028">
        <ele>989</ele>
        <time>2025-06-08T12:31:24.000Z</time>
      </trkpt>
      <trkpt lat="47.9258" lon="6.92035">
        <ele>989</ele>
        <time>2025-06-08T12:31:29.000Z</time>
      </trkpt>
      <trkpt lat="47.92588" lon="6.92037">
        <ele>990</ele>
        <time>2025-06-08T12:31:35.000Z</time>
      </trkpt>
      <trkpt lat="47.92597" lon="6.92037">
        <ele>992</ele>
        <time>2025-06-08T12:31:45.000Z</time>
      </trkpt>
      <trkpt lat="47.92609" lon="6.92048">
        <ele>995</ele>
        <time>2025-06-08T12:31:58.000Z</time>
      </trkpt>
      <trkpt lat="47.9261" lon="6.92058">
        <ele>996</ele>
        <time>2025-06-08T12:32:05.000Z</time>
      </trkpt>
      <trkpt lat="47.92592" lon="6.92064">
        <ele>998</ele>
        <time>2025-06-08T12:32:17.000Z</time>
      </trkpt>
      <trkpt lat="47.92587" lon="6.9206">
        <ele>999</ele>
        <time>2025-06-08T12:32:20.000Z</time>
      </trkpt>
      <trkpt lat="47.9258" lon="6.92061">
        <ele>1000</ele>
        <time>2025-06-08T12:32:22.000Z</time>
      </trkpt>
      <trkpt lat="47.92576" lon="6.9206">
        <ele>1000</ele>
        <time>2025-06-08T12:32:26.000Z</time>
      </trkpt>
      <trkpt lat="47.92571" lon="6.92062">
        <ele>1001</ele>
        <time>2025-06-08T12:32:30.000Z</time>
      </trkpt>
      <trkpt lat="47.92567" lon="6.92061">
        <ele>1001</ele>
        <time>2025-06-08T12:32:33.000Z</time>
      </trkpt>
      <trkpt lat="47.9256" lon="6.92062">
        <ele>1003</ele>
        <time>2025-06-08T12:32:42.000Z</time>
      </trkpt>
      <trkpt lat="47.92556" lon="6.92065">
        <ele>1004</ele>
        <time>2025-06-08T12:32:46.000Z</time>
      </trkpt>
      <trkpt lat="47.92566" lon="6.92072">
        <ele>1006</ele>
        <time>2025-06-08T12:32:58.000Z</time>
      </trkpt>
      <trkpt lat="47.92572" lon="6.92072">
        <ele>1006</ele>
        <time>2025-06-08T12:33:03.000Z</time>
      </trkpt>
      <trkpt lat="47.92586" lon="6.92079">
        <ele>1009</ele>
        <time>2025-06-08T12:33:12.000Z</time>
      </trkpt>
      <trkpt lat="47.92592" lon="6.92083">
        <ele>1009</ele>
        <time>2025-06-08T12:33:16.000Z</time>
      </trkpt>
      <trkpt lat="47.92615" lon="6.92101">
        <ele>1013</ele>
        <time>2025-06-08T12:33:40.000Z</time>
      </trkpt>
      <trkpt lat="47.92628" lon="6.92109">
        <ele>1014</ele>
        <time>2025-06-08T12:33:49.000Z</time>
      </trkpt>
      <trkpt lat="47.92653" lon="6.9213">
        <ele>1020</ele>
        <time>2025-06-08T12:34:19.000Z</time>
      </trkpt>
      <trkpt lat="47.9266" lon="6.92131">
        <ele>1022</ele>
        <time>2025-06-08T12:34:32.000Z</time>
      </trkpt>
      <trkpt lat="47.92672" lon="6.92134">
        <ele>1023</ele>
        <time>2025-06-08T12:34:37.000Z</time>
      </trkpt>
      <trkpt lat="47.92672" lon="6.92145">
        <ele>1024</ele>
        <time>2025-06-08T12:34:41.000Z</time>
      </trkpt>
      <trkpt lat="47.92661" lon="6.92149">
        <ele>1026</ele>
        <time>2025-06-08T12:34:48.000Z</time>
      </trkpt>
      <trkpt lat="47.92651" lon="6.92148">
        <ele>1027</ele>
        <time>2025-06-08T12:34:52.000Z</time>
      </trkpt>
      <trkpt lat="47.92646" lon="6.9214">
        <ele>1027</ele>
        <time>2025-06-08T12:34:54.000Z</time>
      </trkpt>
      <trkpt lat="47.92642" lon="6.92141">
        <ele>1027</ele>
        <time>2025-06-08T12:34:56.000Z</time>
      </trkpt>
      <trkpt lat="47.92603" lon="6.92159">
        <ele>1033</ele>
        <time>2025-06-08T12:35:27.000Z</time>
      </trkpt>
      <trkpt lat="47.92593" lon="6.92169">
        <ele>1034</ele>
        <time>2025-06-08T12:35:35.000Z</time>
      </trkpt>
      <trkpt lat="47.92583" lon="6.92188">
        <ele>1038</ele>
        <time>2025-06-08T12:35:52.000Z</time>
      </trkpt>
      <trkpt lat="47.92577" lon="6.92207">
        <ele>1040</ele>
        <time>2025-06-08T12:36:05.000Z</time>
      </trkpt>
      <trkpt lat="47.92576" lon="6.92214">
        <ele>1041</ele>
        <time>2025-06-08T12:36:09.000Z</time>
      </trkpt>
      <trkpt lat="47.92577" lon="6.9222">
        <ele>1042</ele>
        <time>2025-06-08T12:36:14.000Z</time>
      </trkpt>
      <trkpt lat="47.92585" lon="6.92226">
        <ele>1044</ele>
        <time>2025-06-08T12:36:28.000Z</time>
      </trkpt>
      <trkpt lat="47.92604" lon="6.92232">
        <ele>1046</ele>
        <time>2025-06-08T12:36:46.000Z</time>
      </trkpt>
      <trkpt lat="47.92608" lon="6.92234">
        <ele>1046</ele>
        <time>2025-06-08T12:36:49.000Z</time>
      </trkpt>
      <trkpt lat="47.92612" lon="6.92238">
        <ele>1046</ele>
        <time>2025-06-08T12:36:53.000Z</time>
      </trkpt>
      <trkpt lat="47.92617" lon="6.92245">
        <ele>1046</ele>
        <time>2025-06-08T12:36:59.000Z</time>
      </trkpt>
      <trkpt lat="47.9263" lon="6.92241">
        <ele>1048</ele>
        <time>2025-06-08T12:37:08.000Z</time>
      </trkpt>
      <trkpt lat="47.92636" lon="6.92243">
        <ele>1048</ele>
        <time>2025-06-08T12:37:11.000Z</time>
      </trkpt>
      <trkpt lat="47.92646" lon="6.92248">
        <ele>1052</ele>
        <time>2025-06-08T12:37:25.000Z</time>
      </trkpt>
      <trkpt lat="47.9265" lon="6.92255">
        <ele>1053</ele>
        <time>2025-06-08T12:37:30.000Z</time>
      </trkpt>
      <trkpt lat="47.92652" lon="6.92263">
        <ele>1055</ele>
        <time>2025-06-08T12:37:37.000Z</time>
      </trkpt>
      <trkpt lat="47.92655" lon="6.92273">
        <ele>1057</ele>
        <time>2025-06-08T12:37:47.000Z</time>
      </trkpt>
      <trkpt lat="47.92671" lon="6.92277">
        <ele>1063</ele>
        <time>2025-06-08T12:38:16.000Z</time>
      </trkpt>
      <trkpt lat="47.92672" lon="6.92287">
        <ele>1065</ele>
        <time>2025-06-08T12:38:22.000Z</time>
      </trkpt>
      <trkpt lat="47.9267" lon="6.92295">
        <ele>1065</ele>
        <time>2025-06-08T12:38:26.000Z</time>
      </trkpt>
      <trkpt lat="47.9267" lon="6.92302">
        <ele>1066</ele>
        <time>2025-06-08T12:38:29.000Z</time>
      </trkpt>
      <trkpt lat="47.92669" lon="6.92317">
        <ele>1067</ele>
        <time>2025-06-08T12:38:37.000Z</time>
      </trkpt>
      <trkpt lat="47.92668" lon="6.92324">
        <ele>1067</ele>
        <time>2025-06-08T12:38:42.000Z</time>
      </trkpt>
      <trkpt lat="47.92674" lon="6.92331">
        <ele>1070</ele>
        <time>2025-06-08T12:38:56.000Z</time>
      </trkpt>
      <trkpt lat="47.92686" lon="6.92324">
        <ele>1074</ele>
        <time>2025-06-08T12:39:21.000Z</time>
      </trkpt>
      <trkpt lat="47.92696" lon="6.92326">
        <ele>1076</ele>
        <time>2025-06-08T12:39:31.000Z</time>
      </trkpt>
      <trkpt lat="47.92717" lon="6.92349">
        <ele>1083</ele>
        <time>2025-06-08T12:39:54.000Z</time>
      </trkpt>
      <trkpt lat="47.92721" lon="6.92352">
        <ele>1083</ele>
        <time>2025-06-08T12:39:58.000Z</time>
      </trkpt>
      <trkpt lat="47.92735" lon="6.92369">
        <ele>1086</ele>
        <time>2025-06-08T12:40:13.000Z</time>
      </trkpt>
      <trkpt lat="47.92751" lon="6.92396">
        <ele>1094</ele>
        <time>2025-06-08T12:40:48.000Z</time>
      </trkpt>
      <trkpt lat="47.92759" lon="6.924">
        <ele>1097</ele>
        <time>2025-06-08T12:41:00.000Z</time>
      </trkpt>
      <trkpt lat="47.92764" lon="6.92407">
        <ele>1098</ele>
        <time>2025-06-08T12:41:04.000Z</time>
      </trkpt>
      <trkpt lat="47.9277" lon="6.92415">
        <ele>1100</ele>
        <time>2025-06-08T12:41:13.000Z</time>
      </trkpt>
      <trkpt lat="47.92778" lon="6.9242">
        <ele>1101</ele>
        <time>2025-06-08T12:41:19.000Z</time>
      </trkpt>
      <trkpt lat="47.92782" lon="6.92425">
        <ele>1102</ele>
        <time>2025-06-08T12:41:27.000Z</time>
      </trkpt>
      <trkpt lat="47.92811" lon="6.92443">
        <ele>1108</ele>
        <time>2025-06-08T12:41:57.000Z</time>
      </trkpt>
      <trkpt lat="47.92816" lon="6.92445">
        <ele>1109</ele>
        <time>2025-06-08T12:42:01.000Z</time>
      </trkpt>
      <trkpt lat="47.9283" lon="6.92451">
        <ele>1110</ele>
        <time>2025-06-08T12:42:13.000Z</time>
      </trkpt>
      <trkpt lat="47.92835" lon="6.92453">
        <ele>1111</ele>
        <time>2025-06-08T12:42:17.000Z</time>
      </trkpt>
      <trkpt lat="47.92839" lon="6.92455">
        <ele>1111</ele>
        <time>2025-06-08T12:42:20.000Z</time>
      </trkpt>
      <trkpt lat="47.92872" lon="6.92463">
        <ele>1118</ele>
        <time>2025-06-08T12:42:52.000Z</time>
      </trkpt>
      <trkpt lat="47.92885" lon="6.92468">
        <ele>1122</ele>
        <time>2025-06-08T12:43:13.000Z</time>
      </trkpt>
      <trkpt lat="47.92895" lon="6.92464">
        <ele>1123</ele>
        <time>2025-06-08T12:43:20.000Z</time>
      </trkpt>
      <trkpt lat="47.92898" lon="6.9248">
        <ele>1125</ele>
        <time>2025-06-08T12:43:29.000Z</time>
      </trkpt>
      <trkpt lat="47.92901" lon="6.92484">
        <ele>1126</ele>
        <time>2025-06-08T12:43:33.000Z</time>
      </trkpt>
      <trkpt lat="47.9291" lon="6.92489">
        <ele>1127</ele>
        <time>2025-06-08T12:43:42.000Z</time>
      </trkpt>
      <trkpt lat="47.92919" lon="6.92495">
        <ele>1128</ele>
        <time>2025-06-08T12:43:49.000Z</time>
      </trkpt>
      <trkpt lat="47.92924" lon="6.92498">
        <ele>1130</ele>
        <time>2025-06-08T12:43:54.000Z</time>
      </trkpt>
      <trkpt lat="47.92957" lon="6.92517">
        <ele>1136</ele>
        <time>2025-06-08T12:44:25.000Z</time>
      </trkpt>
      <trkpt lat="47.9296" lon="6.92524">
        <ele>1138</ele>
        <time>2025-06-08T12:44:32.000Z</time>
      </trkpt>
      <trkpt lat="47.92973" lon="6.92538">
        <ele>1141</ele>
        <time>2025-06-08T12:44:46.000Z</time>
      </trkpt>
      <trkpt lat="47.92982" lon="6.92537">
        <ele>1142</ele>
        <time>2025-06-08T12:44:51.000Z</time>
      </trkpt>
      <trkpt lat="47.92998" lon="6.92541">
        <ele>1146</ele>
        <time>2025-06-08T12:45:07.000Z</time>
      </trkpt>
      <trkpt lat="47.93023" lon="6.9256">
        <ele>1152</ele>
        <time>2025-06-08T12:45:34.000Z</time>
      </trkpt>
      <trkpt lat="47.93042" lon="6.92571">
        <ele>1155</ele>
        <time>2025-06-08T12:45:51.000Z</time>
      </trkpt>
      <trkpt lat="47.93048" lon="6.92578">
        <ele>1157</ele>
        <time>2025-06-08T12:45:57.000Z</time>
      </trkpt>
      <trkpt lat="47.93052" lon="6.9258">
        <ele>1157</ele>
        <time>2025-06-08T12:46:01.000Z</time>
      </trkpt>
      <trkpt lat="47.93057" lon="6.9258">
        <ele>1158</ele>
        <time>2025-06-08T12:46:05.000Z</time>
      </trkpt>
      <trkpt lat="47.93061" lon="6.92584">
        <ele>1159</ele>
        <time>2025-06-08T12:46:16.000Z</time>
      </trkpt>
      <trkpt lat="47.93067" lon="6.92588">
        <ele>1159</ele>
        <time>2025-06-08T12:46:32.000Z</time>
      </trkpt>
      <trkpt lat="47.93081" lon="6.92591">
        <ele>1160</ele>
        <time>2025-06-08T12:46:44.000Z</time>
      </trkpt>
      <trkpt lat="47.93084" lon="6.92589">
        <ele>1159</ele>
        <time>2025-06-08T12:46:49.000Z</time>
      </trkpt>
      <trkpt lat="47.93089" lon="6.92588">
        <ele>1160</ele>
        <time>2025-06-08T12:47:19.000Z</time>
      </trkpt>
      <trkpt lat="47.93096" lon="6.92548">
        <ele>1154</ele>
        <time>2025-06-08T12:48:36.000Z</time>
      </trkpt>
      <trkpt lat="47.93104" lon="6.92524">
        <ele>1149</ele>
        <time>2025-06-08T12:48:52.000Z</time>
      </trkpt>
      <trkpt lat="47.93119" lon="6.92497">
        <ele>1145</ele>
        <time>2025-06-08T12:49:10.000Z</time>
      </trkpt>
      <trkpt lat="47.93123" lon="6.92485">
        <ele>1144</ele>
        <time>2025-06-08T12:49:19.000Z</time>
      </trkpt>
      <trkpt lat="47.93126" lon="6.9248">
        <ele>1143</ele>
        <time>2025-06-08T12:49:22.000Z</time>
      </trkpt>
      <trkpt lat="47.93141" lon="6.9246">
        <ele>1140</ele>
        <time>2025-06-08T12:49:37.000Z</time>
      </trkpt>
      <trkpt lat="47.93146" lon="6.92455">
        <ele>1141</ele>
        <time>2025-06-08T12:49:41.000Z</time>
      </trkpt>
      <trkpt lat="47.93154" lon="6.92445">
        <ele>1141</ele>
        <time>2025-06-08T12:49:49.000Z</time>
      </trkpt>
      <trkpt lat="47.93158" lon="6.92442">
        <ele>1141</ele>
        <time>2025-06-08T12:49:52.000Z</time>
      </trkpt>
      <trkpt lat="47.93168" lon="6.92439">
        <ele>1139</ele>
        <time>2025-06-08T12:49:59.000Z</time>
      </trkpt>
      <trkpt lat="47.93172" lon="6.92436">
        <ele>1140</ele>
        <time>2025-06-08T12:50:03.000Z</time>
      </trkpt>
      <trkpt lat="47.93175" lon="6.92431">
        <ele>1140</ele>
        <time>2025-06-08T12:50:07.000Z</time>
      </trkpt>
      <trkpt lat="47.93181" lon="6.92428">
        <ele>1139</ele>
        <time>2025-06-08T12:50:12.000Z</time>
      </trkpt>
      <trkpt lat="47.93185" lon="6.92424">
        <ele>1139</ele>
        <time>2025-06-08T12:50:16.000Z</time>
      </trkpt>
      <trkpt lat="47.93189" lon="6.92423">
        <ele>1139</ele>
        <time>2025-06-08T12:50:20.000Z</time>
      </trkpt>
      <trkpt lat="47.93198" lon="6.92417">
        <ele>1139</ele>
        <time>2025-06-08T12:50:28.000Z</time>
      </trkpt>
      <trkpt lat="47.93208" lon="6.92411">
        <ele>1137</ele>
        <time>2025-06-08T12:50:36.000Z</time>
      </trkpt>
      <trkpt lat="47.93212" lon="6.92408">
        <ele>1137</ele>
        <time>2025-06-08T12:50:40.000Z</time>
      </trkpt>
      <trkpt lat="47.93222" lon="6.92402">
        <ele>1140</ele>
        <time>2025-06-08T12:50:48.000Z</time>
      </trkpt>
      <trkpt lat="47.93237" lon="6.92397">
        <ele>1139</ele>
        <time>2025-06-08T12:51:00.000Z</time>
      </trkpt>
      <trkpt lat="47.93242" lon="6.92396">
        <ele>1139</ele>
        <time>2025-06-08T12:51:04.000Z</time>
      </trkpt>
      <trkpt lat="47.93251" lon="6.92391">
        <ele>1137</ele>
        <time>2025-06-08T12:51:13.000Z</time>
      </trkpt>
      <trkpt lat="47.93261" lon="6.9239">
        <ele>1140</ele>
        <time>2025-06-08T12:51:22.000Z</time>
      </trkpt>
      <trkpt lat="47.9327" lon="6.92395">
        <ele>1138</ele>
        <time>2025-06-08T12:51:29.000Z</time>
      </trkpt>
      <trkpt lat="47.93274" lon="6.92396">
        <ele>1138</ele>
        <time>2025-06-08T12:51:32.000Z</time>
      </trkpt>
      <trkpt lat="47.93279" lon="6.92399">
        <ele>1138</ele>
        <time>2025-06-08T12:51:35.000Z</time>
      </trkpt>
      <trkpt lat="47.93284" lon="6.92399">
        <ele>1138</ele>
        <time>2025-06-08T12:51:38.000Z</time>
      </trkpt>
      <trkpt lat="47.93307" lon="6.92411">
        <ele>1135</ele>
        <time>2025-06-08T12:51:54.000Z</time>
      </trkpt>
      <trkpt lat="47.93315" lon="6.9242">
        <ele>1133</ele>
        <time>2025-06-08T12:52:00.000Z</time>
      </trkpt>
      <trkpt lat="47.93344" lon="6.9244">
        <ele>1131</ele>
        <time>2025-06-08T12:52:21.000Z</time>
      </trkpt>
      <trkpt lat="47.93348" lon="6.92442">
        <ele>1131</ele>
        <time>2025-06-08T12:52:24.000Z</time>
      </trkpt>
      <trkpt lat="47.93352" lon="6.92445">
        <ele>1131</ele>
        <time>2025-06-08T12:52:27.000Z</time>
      </trkpt>
      <trkpt lat="47.93356" lon="6.92449">
        <ele>1130</ele>
        <time>2025-06-08T12:52:30.000Z</time>
      </trkpt>
      <trkpt lat="47.9336" lon="6.92452">
        <ele>1130</ele>
        <time>2025-06-08T12:52:33.000Z</time>
      </trkpt>
      <trkpt lat="47.93367" lon="6.92462">
        <ele>1130</ele>
        <time>2025-06-08T12:52:39.000Z</time>
      </trkpt>
      <trkpt lat="47.93375" lon="6.92471">
        <ele>1131</ele>
        <time>2025-06-08T12:52:47.000Z</time>
      </trkpt>
      <trkpt lat="47.9338" lon="6.92476">
        <ele>1131</ele>
        <time>2025-06-08T12:52:51.000Z</time>
      </trkpt>
      <trkpt lat="47.93389" lon="6.92481">
        <ele>1132</ele>
        <time>2025-06-08T12:52:57.000Z</time>
      </trkpt>
      <trkpt lat="47.93394" lon="6.92481">
        <ele>1133</ele>
        <time>2025-06-08T12:53:00.000Z</time>
      </trkpt>
      <trkpt lat="47.93397" lon="6.92486">
        <ele>1133</ele>
        <time>2025-06-08T12:53:04.000Z</time>
      </trkpt>
      <trkpt lat="47.93402" lon="6.9249">
        <ele>1134</ele>
        <time>2025-06-08T12:53:08.000Z</time>
      </trkpt>
      <trkpt lat="47.93409" lon="6.92496">
        <ele>1136</ele>
        <time>2025-06-08T12:53:16.000Z</time>
      </trkpt>
      <trkpt lat="47.93413" lon="6.92501">
        <ele>1137</ele>
        <time>2025-06-08T12:53:21.000Z</time>
      </trkpt>
      <trkpt lat="47.93423" lon="6.925">
        <ele>1138</ele>
        <time>2025-06-08T12:53:28.000Z</time>
      </trkpt>
      <trkpt lat="47.93428" lon="6.92502">
        <ele>1139</ele>
        <time>2025-06-08T12:53:32.000Z</time>
      </trkpt>
      <trkpt lat="47.93433" lon="6.925">
        <ele>1139</ele>
        <time>2025-06-08T12:53:35.000Z</time>
      </trkpt>
      <trkpt lat="47.93441" lon="6.92501">
        <ele>1139</ele>
        <time>2025-06-08T12:53:41.000Z</time>
      </trkpt>
      <trkpt lat="47.93447" lon="6.925">
        <ele>1140</ele>
        <time>2025-06-08T12:53:45.000Z</time>
      </trkpt>
      <trkpt lat="47.93451" lon="6.92501">
        <ele>1140</ele>
        <time>2025-06-08T12:53:48.000Z</time>
      </trkpt>
      <trkpt lat="47.93461" lon="6.92501">
        <ele>1141</ele>
        <time>2025-06-08T12:53:55.000Z</time>
      </trkpt>
      <trkpt lat="47.93466" lon="6.92501">
        <ele>1141</ele>
        <time>2025-06-08T12:53:59.000Z</time>
      </trkpt>
      <trkpt lat="47.93471" lon="6.92498">
        <ele>1141</ele>
        <time>2025-06-08T12:54:03.000Z</time>
      </trkpt>
      <trkpt lat="47.93481" lon="6.92496">
        <ele>1142</ele>
        <time>2025-06-08T12:54:10.000Z</time>
      </trkpt>
      <trkpt lat="47.93485" lon="6.92492">
        <ele>1142</ele>
        <time>2025-06-08T12:54:13.000Z</time>
      </trkpt>
      <trkpt lat="47.93501" lon="6.92489">
        <ele>1141</ele>
        <time>2025-06-08T12:54:24.000Z</time>
      </trkpt>
      <trkpt lat="47.93512" lon="6.92485">
        <ele>1141</ele>
        <time>2025-06-08T12:54:32.000Z</time>
      </trkpt>
      <trkpt lat="47.93516" lon="6.92483">
        <ele>1142</ele>
        <time>2025-06-08T12:54:35.000Z</time>
      </trkpt>
      <trkpt lat="47.93521" lon="6.92482">
        <ele>1142</ele>
        <time>2025-06-08T12:54:39.000Z</time>
      </trkpt>
      <trkpt lat="47.93532" lon="6.92481">
        <ele>1141</ele>
        <time>2025-06-08T12:54:47.000Z</time>
      </trkpt>
      <trkpt lat="47.93537" lon="6.92481">
        <ele>1141</ele>
        <time>2025-06-08T12:54:51.000Z</time>
      </trkpt>
      <trkpt lat="47.93543" lon="6.92479">
        <ele>1140</ele>
        <time>2025-06-08T12:54:55.000Z</time>
      </trkpt>
      <trkpt lat="47.93552" lon="6.9248">
        <ele>1140</ele>
        <time>2025-06-08T12:55:01.000Z</time>
      </trkpt>
      <trkpt lat="47.93557" lon="6.92482">
        <ele>1140</ele>
        <time>2025-06-08T12:55:05.000Z</time>
      </trkpt>
      <trkpt lat="47.93561" lon="6.92479">
        <ele>1139</ele>
        <time>2025-06-08T12:55:08.000Z</time>
      </trkpt>
      <trkpt lat="47.93577" lon="6.92478">
        <ele>1138</ele>
        <time>2025-06-08T12:55:19.000Z</time>
      </trkpt>
      <trkpt lat="47.93585" lon="6.92469">
        <ele>1138</ele>
        <time>2025-06-08T12:55:25.000Z</time>
      </trkpt>
      <trkpt lat="47.93594" lon="6.92465">
        <ele>1139</ele>
        <time>2025-06-08T12:55:32.000Z</time>
      </trkpt>
      <trkpt lat="47.93599" lon="6.92463">
        <ele>1139</ele>
        <time>2025-06-08T12:55:35.000Z</time>
      </trkpt>
      <trkpt lat="47.93614" lon="6.92459">
        <ele>1136</ele>
        <time>2025-06-08T12:55:45.000Z</time>
      </trkpt>
      <trkpt lat="47.93618" lon="6.92459">
        <ele>1137</ele>
        <time>2025-06-08T12:55:48.000Z</time>
      </trkpt>
      <trkpt lat="47.93623" lon="6.92455">
        <ele>1138</ele>
        <time>2025-06-08T12:55:52.000Z</time>
      </trkpt>
      <trkpt lat="47.9363" lon="6.92444">
        <ele>1136</ele>
        <time>2025-06-08T12:55:59.000Z</time>
      </trkpt>
      <trkpt lat="47.93632" lon="6.92437">
        <ele>1135</ele>
        <time>2025-06-08T12:56:02.000Z</time>
      </trkpt>
      <trkpt lat="47.93635" lon="6.92431">
        <ele>1135</ele>
        <time>2025-06-08T12:56:05.000Z</time>
      </trkpt>
      <trkpt lat="47.93637" lon="6.92426">
        <ele>1134</ele>
        <time>2025-06-08T12:56:08.000Z</time>
      </trkpt>
      <trkpt lat="47.93641" lon="6.92413">
        <ele>1130</ele>
        <time>2025-06-08T12:56:15.000Z</time>
      </trkpt>
      <trkpt lat="47.93652" lon="6.92391">
        <ele>1124</ele>
        <time>2025-06-08T12:56:28.000Z</time>
      </trkpt>
      <trkpt lat="47.93663" lon="6.92377">
        <ele>1121</ele>
        <time>2025-06-08T12:56:38.000Z</time>
      </trkpt>
      <trkpt lat="47.93668" lon="6.92377">
        <ele>1121</ele>
        <time>2025-06-08T12:56:41.000Z</time>
      </trkpt>
      <trkpt lat="47.93671" lon="6.92371">
        <ele>1120</ele>
        <time>2025-06-08T12:56:44.000Z</time>
      </trkpt>
      <trkpt lat="47.93667" lon="6.92365">
        <ele>1119</ele>
        <time>2025-06-08T12:56:47.000Z</time>
      </trkpt>
      <trkpt lat="47.93654" lon="6.92349">
        <ele>1118</ele>
        <time>2025-06-08T12:57:00.000Z</time>
      </trkpt>
      <trkpt lat="47.93655" lon="6.92342">
        <ele>1117</ele>
        <time>2025-06-08T12:57:04.000Z</time>
      </trkpt>
      <trkpt lat="47.9366" lon="6.92341">
        <ele>1115</ele>
        <time>2025-06-08T12:57:08.000Z</time>
      </trkpt>
      <trkpt lat="47.93672" lon="6.92344">
        <ele>1114</ele>
        <time>2025-06-08T12:57:16.000Z</time>
      </trkpt>
      <trkpt lat="47.93685" lon="6.92351">
        <ele>1111</ele>
        <time>2025-06-08T12:57:25.000Z</time>
      </trkpt>
      <trkpt lat="47.93692" lon="6.92361">
        <ele>1110</ele>
        <time>2025-06-08T12:57:32.000Z</time>
      </trkpt>
      <trkpt lat="47.9369" lon="6.92352">
        <ele>1107</ele>
        <time>2025-06-08T12:57:45.000Z</time>
      </trkpt>
      <trkpt lat="47.93681" lon="6.92287">
        <ele>1100</ele>
        <time>2025-06-08T12:58:19.000Z</time>
      </trkpt>
      <trkpt lat="47.93681" lon="6.92281">
        <ele>1099</ele>
        <time>2025-06-08T12:58:23.000Z</time>
      </trkpt>
      <trkpt lat="47.93687" lon="6.92279">
        <ele>1099</ele>
        <time>2025-06-08T12:58:28.000Z</time>
      </trkpt>
      <trkpt lat="47.93692" lon="6.92282">
        <ele>1098</ele>
        <time>2025-06-08T12:58:32.000Z</time>
      </trkpt>
      <trkpt lat="47.93703" lon="6.92298">
        <ele>1095</ele>
        <time>2025-06-08T12:58:41.000Z</time>
      </trkpt>
      <trkpt lat="47.93706" lon="6.92302">
        <ele>1094</ele>
        <time>2025-06-08T12:58:43.000Z</time>
      </trkpt>
      <trkpt lat="47.93709" lon="6.92309">
        <ele>1093</ele>
        <time>2025-06-08T12:58:47.000Z</time>
      </trkpt>
      <trkpt lat="47.93711" lon="6.92299">
        <ele>1091</ele>
        <time>2025-06-08T12:58:58.000Z</time>
      </trkpt>
      <trkpt lat="47.93711" lon="6.92292">
        <ele>1090</ele>
        <time>2025-06-08T12:59:00.000Z</time>
      </trkpt>
      <trkpt lat="47.93701" lon="6.92257">
        <ele>1087</ele>
        <time>2025-06-08T12:59:19.000Z</time>
      </trkpt>
      <trkpt lat="47.93702" lon="6.9225">
        <ele>1086</ele>
        <time>2025-06-08T12:59:22.000Z</time>
      </trkpt>
      <trkpt lat="47.93703" lon="6.92243">
        <ele>1085</ele>
        <time>2025-06-08T12:59:25.000Z</time>
      </trkpt>
      <trkpt lat="47.93706" lon="6.92236">
        <ele>1084</ele>
        <time>2025-06-08T12:59:28.000Z</time>
      </trkpt>
      <trkpt lat="47.93709" lon="6.92231">
        <ele>1084</ele>
        <time>2025-06-08T12:59:31.000Z</time>
      </trkpt>
      <trkpt lat="47.93721" lon="6.92222">
        <ele>1081</ele>
        <time>2025-06-08T12:59:42.000Z</time>
      </trkpt>
      <trkpt lat="47.93726" lon="6.92221">
        <ele>1080</ele>
        <time>2025-06-08T12:59:46.000Z</time>
      </trkpt>
      <trkpt lat="47.93733" lon="6.92224">
        <ele>1077</ele>
        <time>2025-06-08T12:59:53.000Z</time>
      </trkpt>
      <trkpt lat="47.93741" lon="6.92241">
        <ele>1076</ele>
        <time>2025-06-08T13:00:02.000Z</time>
      </trkpt>
      <trkpt lat="47.93744" lon="6.92253">
        <ele>1075</ele>
        <time>2025-06-08T13:00:10.000Z</time>
      </trkpt>
      <trkpt lat="47.93741" lon="6.92269">
        <ele>1074</ele>
        <time>2025-06-08T13:00:16.000Z</time>
      </trkpt>
      <trkpt lat="47.93747" lon="6.92259">
        <ele>1071</ele>
        <time>2025-06-08T13:00:32.000Z</time>
      </trkpt>
      <trkpt lat="47.9375" lon="6.92254">
        <ele>1071</ele>
        <time>2025-06-08T13:00:35.000Z</time>
      </trkpt>
      <trkpt lat="47.93752" lon="6.92248">
        <ele>1070</ele>
        <time>2025-06-08T13:00:39.000Z</time>
      </trkpt>
      <trkpt lat="47.93752" lon="6.9224">
        <ele>1070</ele>
        <time>2025-06-08T13:00:42.000Z</time>
      </trkpt>
      <trkpt lat="47.93754" lon="6.92234">
        <ele>1069</ele>
        <time>2025-06-08T13:00:46.000Z</time>
      </trkpt>
      <trkpt lat="47.93756" lon="6.92219">
        <ele>1068</ele>
        <time>2025-06-08T13:00:52.000Z</time>
      </trkpt>
      <trkpt lat="47.93759" lon="6.92211">
        <ele>1067</ele>
        <time>2025-06-08T13:00:58.000Z</time>
      </trkpt>
      <trkpt lat="47.93765" lon="6.92215">
        <ele>1065</ele>
        <time>2025-06-08T13:01:05.000Z</time>
      </trkpt>
      <trkpt lat="47.93769" lon="6.92228">
        <ele>1064</ele>
        <time>2025-06-08T13:01:11.000Z</time>
      </trkpt>
      <trkpt lat="47.93769" lon="6.92239">
        <ele>1063</ele>
        <time>2025-06-08T13:01:17.000Z</time>
      </trkpt>
      <trkpt lat="47.93774" lon="6.92255">
        <ele>1061</ele>
        <time>2025-06-08T13:01:25.000Z</time>
      </trkpt>
      <trkpt lat="47.93777" lon="6.92259">
        <ele>1060</ele>
        <time>2025-06-08T13:01:28.000Z</time>
      </trkpt>
      <trkpt lat="47.93779" lon="6.92247">
        <ele>1057</ele>
        <time>2025-06-08T13:01:45.000Z</time>
      </trkpt>
      <trkpt lat="47.93783" lon="6.92234">
        <ele>1055</ele>
        <time>2025-06-08T13:01:53.000Z</time>
      </trkpt>
      <trkpt lat="47.93783" lon="6.92227">
        <ele>1055</ele>
        <time>2025-06-08T13:01:56.000Z</time>
      </trkpt>
      <trkpt lat="47.9378" lon="6.9222">
        <ele>1054</ele>
        <time>2025-06-08T13:01:59.000Z</time>
      </trkpt>
      <trkpt lat="47.93779" lon="6.92214">
        <ele>1054</ele>
        <time>2025-06-08T13:02:02.000Z</time>
      </trkpt>
      <trkpt lat="47.93785" lon="6.92201">
        <ele>1052</ele>
        <time>2025-06-08T13:02:10.000Z</time>
      </trkpt>
      <trkpt lat="47.93793" lon="6.92196">
        <ele>1050</ele>
        <time>2025-06-08T13:02:16.000Z</time>
      </trkpt>
      <trkpt lat="47.93804" lon="6.92197">
        <ele>1049</ele>
        <time>2025-06-08T13:02:21.000Z</time>
      </trkpt>
      <trkpt lat="47.93813" lon="6.92195">
        <ele>1048</ele>
        <time>2025-06-08T13:02:28.000Z</time>
      </trkpt>
      <trkpt lat="47.93817" lon="6.92198">
        <ele>1048</ele>
        <time>2025-06-08T13:02:31.000Z</time>
      </trkpt>
      <trkpt lat="47.93829" lon="6.92196">
        <ele>1046</ele>
        <time>2025-06-08T13:02:38.000Z</time>
      </trkpt>
      <trkpt lat="47.93834" lon="6.92199">
        <ele>1046</ele>
        <time>2025-06-08T13:02:40.000Z</time>
      </trkpt>
      <trkpt lat="47.93829" lon="6.92207">
        <ele>1046</ele>
        <time>2025-06-08T13:03:09.000Z</time>
      </trkpt>
      <trkpt lat="47.93838" lon="6.922">
        <ele>1046</ele>
        <time>2025-06-08T13:03:19.000Z</time>
      </trkpt>
      <trkpt lat="47.93843" lon="6.92202">
        <ele>1046</ele>
        <time>2025-06-08T13:03:22.000Z</time>
      </trkpt>
      <trkpt lat="47.93849" lon="6.922">
        <ele>1045</ele>
        <time>2025-06-08T13:03:31.000Z</time>
      </trkpt>
      <trkpt lat="47.93861" lon="6.92203">
        <ele>1045</ele>
        <time>2025-06-08T13:03:45.000Z</time>
      </trkpt>
      <trkpt lat="47.93868" lon="6.92203">
        <ele>1045</ele>
        <time>2025-06-08T13:03:49.000Z</time>
      </trkpt>
      <trkpt lat="47.93879" lon="6.92207">
        <ele>1046</ele>
        <time>2025-06-08T13:03:57.000Z</time>
      </trkpt>
      <trkpt lat="47.93878" lon="6.92198">
        <ele>1045</ele>
        <time>2025-06-08T13:04:04.000Z</time>
      </trkpt>
      <trkpt lat="47.93883" lon="6.92186">
        <ele>1045</ele>
        <time>2025-06-08T13:04:11.000Z</time>
      </trkpt>
      <trkpt lat="47.9388" lon="6.92179">
        <ele>1046</ele>
        <time>2025-06-08T13:04:14.000Z</time>
      </trkpt>
      <trkpt lat="47.93881" lon="6.92172">
        <ele>1046</ele>
        <time>2025-06-08T13:04:17.000Z</time>
      </trkpt>
      <trkpt lat="47.93885" lon="6.9216">
        <ele>1047</ele>
        <time>2025-06-08T13:04:24.000Z</time>
      </trkpt>
      <trkpt lat="47.93889" lon="6.92146">
        <ele>1046</ele>
        <time>2025-06-08T13:04:30.000Z</time>
      </trkpt>
      <trkpt lat="47.93887" lon="6.92136">
        <ele>1047</ele>
        <time>2025-06-08T13:04:37.000Z</time>
      </trkpt>
      <trkpt lat="47.93889" lon="6.92129">
        <ele>1048</ele>
        <time>2025-06-08T13:04:40.000Z</time>
      </trkpt>
      <trkpt lat="47.93886" lon="6.92123">
        <ele>1048</ele>
        <time>2025-06-08T13:04:43.000Z</time>
      </trkpt>
      <trkpt lat="47.93892" lon="6.92112">
        <ele>1048</ele>
        <time>2025-06-08T13:04:54.000Z</time>
      </trkpt>
      <trkpt lat="47.93901" lon="6.92104">
        <ele>1047</ele>
        <time>2025-06-08T13:04:57.000Z</time>
      </trkpt>
      <trkpt lat="47.93905" lon="6.921">
        <ele>1048</ele>
        <time>2025-06-08T13:04:59.000Z</time>
      </trkpt>
      <trkpt lat="47.93909" lon="6.92093">
        <ele>1048</ele>
        <time>2025-06-08T13:05:04.000Z</time>
      </trkpt>
      <trkpt lat="47.93913" lon="6.9209">
        <ele>1048</ele>
        <time>2025-06-08T13:05:07.000Z</time>
      </trkpt>
      <trkpt lat="47.93917" lon="6.92085">
        <ele>1048</ele>
        <time>2025-06-08T13:05:10.000Z</time>
      </trkpt>
      <trkpt lat="47.93931" lon="6.92066">
        <ele>1051</ele>
        <time>2025-06-08T13:05:25.000Z</time>
      </trkpt>
      <trkpt lat="47.93936" lon="6.92062">
        <ele>1051</ele>
        <time>2025-06-08T13:05:29.000Z</time>
      </trkpt>
      <trkpt lat="47.93941" lon="6.92059">
        <ele>1051</ele>
        <time>2025-06-08T13:05:33.000Z</time>
      </trkpt>
      <trkpt lat="47.93947" lon="6.92059">
        <ele>1052</ele>
        <time>2025-06-08T13:05:37.000Z</time>
      </trkpt>
      <trkpt lat="47.93951" lon="6.9206">
        <ele>1052</ele>
        <time>2025-06-08T13:05:40.000Z</time>
      </trkpt>
      <trkpt lat="47.93955" lon="6.92056">
        <ele>1052</ele>
        <time>2025-06-08T13:05:44.000Z</time>
      </trkpt>
      <trkpt lat="47.9396" lon="6.92055">
        <ele>1052</ele>
        <time>2025-06-08T13:05:47.000Z</time>
      </trkpt>
      <trkpt lat="47.93965" lon="6.92051">
        <ele>1053</ele>
        <time>2025-06-08T13:05:51.000Z</time>
      </trkpt>
      <trkpt lat="47.9397" lon="6.9205">
        <ele>1054</ele>
        <time>2025-06-08T13:05:55.000Z</time>
      </trkpt>
      <trkpt lat="47.9399" lon="6.92039">
        <ele>1053</ele>
        <time>2025-06-08T13:06:12.000Z</time>
      </trkpt>
      <trkpt lat="47.94004" lon="6.92036">
        <ele>1054</ele>
        <time>2025-06-08T13:06:22.000Z</time>
      </trkpt>
      <trkpt lat="47.94009" lon="6.92038">
        <ele>1054</ele>
        <time>2025-06-08T13:06:26.000Z</time>
      </trkpt>
      <trkpt lat="47.94019" lon="6.92038">
        <ele>1054</ele>
        <time>2025-06-08T13:06:34.000Z</time>
      </trkpt>
      <trkpt lat="47.9404" lon="6.92047">
        <ele>1057</ele>
        <time>2025-06-08T13:06:51.000Z</time>
      </trkpt>
      <trkpt lat="47.94049" lon="6.92047">
        <ele>1059</ele>
        <time>2025-06-08T13:06:58.000Z</time>
      </trkpt>
      <trkpt lat="47.94059" lon="6.92053">
        <ele>1061</ele>
        <time>2025-06-08T13:07:07.000Z</time>
      </trkpt>
      <trkpt lat="47.94069" lon="6.92054">
        <ele>1062</ele>
        <time>2025-06-08T13:07:15.000Z</time>
      </trkpt>
      <trkpt lat="47.94073" lon="6.92053">
        <ele>1062</ele>
        <time>2025-06-08T13:07:19.000Z</time>
      </trkpt>
      <trkpt lat="47.94079" lon="6.92052">
        <ele>1063</ele>
        <time>2025-06-08T13:07:23.000Z</time>
      </trkpt>
      <trkpt lat="47.94084" lon="6.92053">
        <ele>1064</ele>
        <time>2025-06-08T13:07:27.000Z</time>
      </trkpt>
      <trkpt lat="47.94088" lon="6.92057">
        <ele>1064</ele>
        <time>2025-06-08T13:07:30.000Z</time>
      </trkpt>
      <trkpt lat="47.94093" lon="6.92059">
        <ele>1065</ele>
        <time>2025-06-08T13:07:34.000Z</time>
      </trkpt>
      <trkpt lat="47.94103" lon="6.92065">
        <ele>1066</ele>
        <time>2025-06-08T13:07:42.000Z</time>
      </trkpt>
      <trkpt lat="47.94111" lon="6.92074">
        <ele>1066</ele>
        <time>2025-06-08T13:07:49.000Z</time>
      </trkpt>
      <trkpt lat="47.94114" lon="6.92079">
        <ele>1066</ele>
        <time>2025-06-08T13:07:53.000Z</time>
      </trkpt>
      <trkpt lat="47.94126" lon="6.92092">
        <ele>1065</ele>
        <time>2025-06-08T13:08:03.000Z</time>
      </trkpt>
      <trkpt lat="47.94134" lon="6.92101">
        <ele>1065</ele>
        <time>2025-06-08T13:08:11.000Z</time>
      </trkpt>
      <trkpt lat="47.9414" lon="6.92112">
        <ele>1065</ele>
        <time>2025-06-08T13:08:19.000Z</time>
      </trkpt>
      <trkpt lat="47.94148" lon="6.92118">
        <ele>1065</ele>
        <time>2025-06-08T13:08:25.000Z</time>
      </trkpt>
      <trkpt lat="47.9415" lon="6.92123">
        <ele>1065</ele>
        <time>2025-06-08T13:08:28.000Z</time>
      </trkpt>
      <trkpt lat="47.94159" lon="6.9213">
        <ele>1065</ele>
        <time>2025-06-08T13:08:35.000Z</time>
      </trkpt>
      <trkpt lat="47.94172" lon="6.92155">
        <ele>1067</ele>
        <time>2025-06-08T13:08:51.000Z</time>
      </trkpt>
      <trkpt lat="47.94175" lon="6.92162">
        <ele>1066</ele>
        <time>2025-06-08T13:08:56.000Z</time>
      </trkpt>
      <trkpt lat="47.94178" lon="6.92168">
        <ele>1066</ele>
        <time>2025-06-08T13:09:01.000Z</time>
      </trkpt>
      <trkpt lat="47.94183" lon="6.9217">
        <ele>1066</ele>
        <time>2025-06-08T13:09:05.000Z</time>
      </trkpt>
      <trkpt lat="47.94186" lon="6.92163">
        <ele>1066</ele>
        <time>2025-06-08T13:09:11.000Z</time>
      </trkpt>
      <trkpt lat="47.94191" lon="6.92153">
        <ele>1067</ele>
        <time>2025-06-08T13:09:18.000Z</time>
      </trkpt>
      <trkpt lat="47.94198" lon="6.92151">
        <ele>1067</ele>
        <time>2025-06-08T13:09:24.000Z</time>
      </trkpt>
      <trkpt lat="47.94219" lon="6.9216">
        <ele>1071</ele>
        <time>2025-06-08T13:09:39.000Z</time>
      </trkpt>
      <trkpt lat="47.9423" lon="6.92157">
        <ele>1073</ele>
        <time>2025-06-08T13:09:49.000Z</time>
      </trkpt>
      <trkpt lat="47.94235" lon="6.92154">
        <ele>1073</ele>
        <time>2025-06-08T13:09:54.000Z</time>
      </trkpt>
      <trkpt lat="47.94241" lon="6.9215">
        <ele>1073</ele>
        <time>2025-06-08T13:10:00.000Z</time>
      </trkpt>
      <trkpt lat="47.94248" lon="6.92145">
        <ele>1072</ele>
        <time>2025-06-08T13:10:08.000Z</time>
      </trkpt>
      <trkpt lat="47.94252" lon="6.92141">
        <ele>1073</ele>
        <time>2025-06-08T13:10:13.000Z</time>
      </trkpt>
      <trkpt lat="47.94257" lon="6.9214">
        <ele>1073</ele>
        <time>2025-06-08T13:10:16.000Z</time>
      </trkpt>
      <trkpt lat="47.94265" lon="6.9214">
        <ele>1074</ele>
        <time>2025-06-08T13:10:23.000Z</time>
      </trkpt>
      <trkpt lat="47.94274" lon="6.92138">
        <ele>1075</ele>
        <time>2025-06-08T13:10:29.000Z</time>
      </trkpt>
      <trkpt lat="47.94281" lon="6.92143">
        <ele>1076</ele>
        <time>2025-06-08T13:10:34.000Z</time>
      </trkpt>
      <trkpt lat="47.94293" lon="6.9214">
        <ele>1077</ele>
        <time>2025-06-08T13:10:42.000Z</time>
      </trkpt>
      <trkpt lat="47.94298" lon="6.92142">
        <ele>1078</ele>
        <time>2025-06-08T13:10:45.000Z</time>
      </trkpt>
      <trkpt lat="47.94292" lon="6.92133">
        <ele>1080</ele>
        <time>2025-06-08T13:10:58.000Z</time>
      </trkpt>
      <trkpt lat="47.94293" lon="6.92127">
        <ele>1080</ele>
        <time>2025-06-08T13:11:02.000Z</time>
      </trkpt>
      <trkpt lat="47.94299" lon="6.92116">
        <ele>1082</ele>
        <time>2025-06-08T13:11:12.000Z</time>
      </trkpt>
      <trkpt lat="47.94304" lon="6.92114">
        <ele>1082</ele>
        <time>2025-06-08T13:11:14.000Z</time>
      </trkpt>
      <trkpt lat="47.94308" lon="6.92115">
        <ele>1083</ele>
        <time>2025-06-08T13:11:17.000Z</time>
      </trkpt>
      <trkpt lat="47.94322" lon="6.92109">
        <ele>1085</ele>
        <time>2025-06-08T13:11:29.000Z</time>
      </trkpt>
      <trkpt lat="47.94329" lon="6.92104">
        <ele>1086</ele>
        <time>2025-06-08T13:11:35.000Z</time>
      </trkpt>
      <trkpt lat="47.94333" lon="6.92097">
        <ele>1088</ele>
        <time>2025-06-08T13:11:42.000Z</time>
      </trkpt>
      <trkpt lat="47.94335" lon="6.9209">
        <ele>1088</ele>
        <time>2025-06-08T13:11:47.000Z</time>
      </trkpt>
      <trkpt lat="47.94337" lon="6.9206">
        <ele>1091</ele>
        <time>2025-06-08T13:12:06.000Z</time>
      </trkpt>
      <trkpt lat="47.94333" lon="6.92055">
        <ele>1092</ele>
        <time>2025-06-08T13:12:10.000Z</time>
      </trkpt>
      <trkpt lat="47.94332" lon="6.92048">
        <ele>1093</ele>
        <time>2025-06-08T13:12:13.000Z</time>
      </trkpt>
      <trkpt lat="47.94333" lon="6.92033">
        <ele>1094</ele>
        <time>2025-06-08T13:12:23.000Z</time>
      </trkpt>
      <trkpt lat="47.94343" lon="6.9203">
        <ele>1095</ele>
        <time>2025-06-08T13:12:31.000Z</time>
      </trkpt>
      <trkpt lat="47.94356" lon="6.92037">
        <ele>1096</ele>
        <time>2025-06-08T13:12:36.000Z</time>
      </trkpt>
      <trkpt lat="47.9436" lon="6.9205">
        <ele>1098</ele>
        <time>2025-06-08T13:12:44.000Z</time>
      </trkpt>
      <trkpt lat="47.94366" lon="6.92051">
        <ele>1099</ele>
        <time>2025-06-08T13:12:48.000Z</time>
      </trkpt>
      <trkpt lat="47.9437" lon="6.92054">
        <ele>1100</ele>
        <time>2025-06-08T13:12:52.000Z</time>
      </trkpt>
      <trkpt lat="47.94374" lon="6.92052">
        <ele>1101</ele>
        <time>2025-06-08T13:13:00.000Z</time>
      </trkpt>
      <trkpt lat="47.94378" lon="6.92048">
        <ele>1101</ele>
        <time>2025-06-08T13:13:04.000Z</time>
      </trkpt>
      <trkpt lat="47.94371" lon="6.9204">
        <ele>1104</ele>
        <time>2025-06-08T13:13:22.000Z</time>
      </trkpt>
      <trkpt lat="47.94375" lon="6.92036">
        <ele>1105</ele>
        <time>2025-06-08T13:13:29.000Z</time>
      </trkpt>
      <trkpt lat="47.94381" lon="6.92031">
        <ele>1109</ele>
        <time>2025-06-08T13:13:44.000Z</time>
      </trkpt>
      <trkpt lat="47.94385" lon="6.92028">
        <ele>1109</ele>
        <time>2025-06-08T13:13:48.000Z</time>
      </trkpt>
      <trkpt lat="47.94391" lon="6.92024">
        <ele>1109</ele>
        <time>2025-06-08T13:13:54.000Z</time>
      </trkpt>
      <trkpt lat="47.94394" lon="6.9202">
        <ele>1110</ele>
        <time>2025-06-08T13:13:59.000Z</time>
      </trkpt>
      <trkpt lat="47.94385" lon="6.92028">
        <ele>1114</ele>
        <time>2025-06-08T13:14:23.000Z</time>
      </trkpt>
      <trkpt lat="47.94387" lon="6.92017">
        <ele>1114</ele>
        <time>2025-06-08T13:14:26.000Z</time>
      </trkpt>
      <trkpt lat="47.94391" lon="6.92014">
        <ele>1115</ele>
        <time>2025-06-08T13:14:30.000Z</time>
      </trkpt>
      <trkpt lat="47.9439" lon="6.92013">
        <ele>1119</ele>
        <time>2025-06-08T13:14:50.000Z</time>
      </trkpt>
      <trkpt lat="47.94384" lon="6.92011">
        <ele>1120</ele>
        <time>2025-06-08T13:14:55.000Z</time>
      </trkpt>
      <trkpt lat="47.94386" lon="6.92">
        <ele>1121</ele>
        <time>2025-06-08T13:15:04.000Z</time>
      </trkpt>
      <trkpt lat="47.94391" lon="6.92002">
        <ele>1123</ele>
        <time>2025-06-08T13:15:08.000Z</time>
      </trkpt>
      <trkpt lat="47.94401" lon="6.92001">
        <ele>1124</ele>
        <time>2025-06-08T13:15:18.000Z</time>
      </trkpt>
      <trkpt lat="47.94395" lon="6.92">
        <ele>1125</ele>
        <time>2025-06-08T13:15:23.000Z</time>
      </trkpt>
      <trkpt lat="47.9439" lon="6.91991">
        <ele>1126</ele>
        <time>2025-06-08T13:15:31.000Z</time>
      </trkpt>
      <trkpt lat="47.9439" lon="6.91984">
        <ele>1127</ele>
        <time>2025-06-08T13:15:35.000Z</time>
      </trkpt>
      <trkpt lat="47.94396" lon="6.91986">
        <ele>1128</ele>
        <time>2025-06-08T13:15:38.000Z</time>
      </trkpt>
      <trkpt lat="47.94405" lon="6.91985">
        <ele>1129</ele>
        <time>2025-06-08T13:15:50.000Z</time>
      </trkpt>
      <trkpt lat="47.94412" lon="6.9199">
        <ele>1129</ele>
        <time>2025-06-08T13:15:56.000Z</time>
      </trkpt>
      <trkpt lat="47.94417" lon="6.91988">
        <ele>1132</ele>
        <time>2025-06-08T13:16:05.000Z</time>
      </trkpt>
      <trkpt lat="47.94418" lon="6.91976">
        <ele>1132</ele>
        <time>2025-06-08T13:16:18.000Z</time>
      </trkpt>
      <trkpt lat="47.94419" lon="6.91961">
        <ele>1134</ele>
        <time>2025-06-08T13:16:30.000Z</time>
      </trkpt>
      <trkpt lat="47.94423" lon="6.9195">
        <ele>1135</ele>
        <time>2025-06-08T13:16:40.000Z</time>
      </trkpt>
      <trkpt lat="47.94427" lon="6.91947">
        <ele>1135</ele>
        <time>2025-06-08T13:16:44.000Z</time>
      </trkpt>
      <trkpt lat="47.94432" lon="6.91944">
        <ele>1136</ele>
        <time>2025-06-08T13:16:50.000Z</time>
      </trkpt>
      <trkpt lat="47.94436" lon="6.91943">
        <ele>1137</ele>
        <time>2025-06-08T13:16:54.000Z</time>
      </trkpt>
      <trkpt lat="47.94442" lon="6.91944">
        <ele>1137</ele>
        <time>2025-06-08T13:16:58.000Z</time>
      </trkpt>
      <trkpt lat="47.94457" lon="6.91948">
        <ele>1138</ele>
        <time>2025-06-08T13:17:10.000Z</time>
      </trkpt>
      <trkpt lat="47.94467" lon="6.91957">
        <ele>1138</ele>
        <time>2025-06-08T13:17:20.000Z</time>
      </trkpt>
      <trkpt lat="47.9447" lon="6.91962">
        <ele>1138</ele>
        <time>2025-06-08T13:17:23.000Z</time>
      </trkpt>
      <trkpt lat="47.94473" lon="6.91966">
        <ele>1137</ele>
        <time>2025-06-08T13:17:27.000Z</time>
      </trkpt>
      <trkpt lat="47.94498" lon="6.91991">
        <ele>1139</ele>
        <time>2025-06-08T13:17:50.000Z</time>
      </trkpt>
      <trkpt lat="47.94515" lon="6.91996">
        <ele>1138</ele>
        <time>2025-06-08T13:18:07.000Z</time>
      </trkpt>
      <trkpt lat="47.9453" lon="6.92003">
        <ele>1139</ele>
        <time>2025-06-08T13:18:22.000Z</time>
      </trkpt>
      <trkpt lat="47.94534" lon="6.92003">
        <ele>1139</ele>
        <time>2025-06-08T13:18:26.000Z</time>
      </trkpt>
      <trkpt lat="47.94539" lon="6.92005">
        <ele>1139</ele>
        <time>2025-06-08T13:18:30.000Z</time>
      </trkpt>
      <trkpt lat="47.94544" lon="6.92004">
        <ele>1138</ele>
        <time>2025-06-08T13:18:36.000Z</time>
      </trkpt>
      <trkpt lat="47.9455" lon="6.92001">
        <ele>1138</ele>
        <time>2025-06-08T13:18:42.000Z</time>
      </trkpt>
      <trkpt lat="47.94553" lon="6.91997">
        <ele>1138</ele>
        <time>2025-06-08T13:18:45.000Z</time>
      </trkpt>
      <trkpt lat="47.94559" lon="6.91995">
        <ele>1138</ele>
        <time>2025-06-08T13:18:51.000Z</time>
      </trkpt>
      <trkpt lat="47.94563" lon="6.91998">
        <ele>1138</ele>
        <time>2025-06-08T13:18:54.000Z</time>
      </trkpt>
      <trkpt lat="47.94566" lon="6.92003">
        <ele>1139</ele>
        <time>2025-06-08T13:18:57.000Z</time>
      </trkpt>
      <trkpt lat="47.94569" lon="6.92011">
        <ele>1140</ele>
        <time>2025-06-08T13:19:03.000Z</time>
      </trkpt>
      <trkpt lat="47.9457" lon="6.92018">
        <ele>1142</ele>
        <time>2025-06-08T13:19:12.000Z</time>
      </trkpt>
      <trkpt lat="47.94573" lon="6.92031">
        <ele>1143</ele>
        <time>2025-06-08T13:19:20.000Z</time>
      </trkpt>
      <trkpt lat="47.94576" lon="6.92039">
        <ele>1143</ele>
        <time>2025-06-08T13:19:30.000Z</time>
      </trkpt>
      <trkpt lat="47.94588" lon="6.92046">
        <ele>1143</ele>
        <time>2025-06-08T13:19:41.000Z</time>
      </trkpt>
      <trkpt lat="47.94593" lon="6.92048">
        <ele>1142</ele>
        <time>2025-06-08T13:19:45.000Z</time>
      </trkpt>
      <trkpt lat="47.94603" lon="6.92049">
        <ele>1142</ele>
        <time>2025-06-08T13:19:51.000Z</time>
      </trkpt>
      <trkpt lat="47.94623" lon="6.92051">
        <ele>1141</ele>
        <time>2025-06-08T13:20:05.000Z</time>
      </trkpt>
      <trkpt lat="47.94627" lon="6.92053">
        <ele>1140</ele>
        <time>2025-06-08T13:20:10.000Z</time>
      </trkpt>
      <trkpt lat="47.94637" lon="6.92053">
        <ele>1140</ele>
        <time>2025-06-08T13:20:18.000Z</time>
      </trkpt>
      <trkpt lat="47.94647" lon="6.92057">
        <ele>1139</ele>
        <time>2025-06-08T13:20:24.000Z</time>
      </trkpt>
      <trkpt lat="47.94651" lon="6.92057">
        <ele>1139</ele>
        <time>2025-06-08T13:20:29.000Z</time>
      </trkpt>
      <trkpt lat="47.94678" lon="6.92067">
        <ele>1137</ele>
        <time>2025-06-08T13:20:49.000Z</time>
      </trkpt>
      <trkpt lat="47.94683" lon="6.92071">
        <ele>1138</ele>
        <time>2025-06-08T13:20:53.000Z</time>
      </trkpt>
      <trkpt lat="47.94698" lon="6.92091">
        <ele>1136</ele>
        <time>2025-06-08T13:21:08.000Z</time>
      </trkpt>
      <trkpt lat="47.94704" lon="6.92096">
        <ele>1136</ele>
        <time>2025-06-08T13:21:16.000Z</time>
      </trkpt>
      <trkpt lat="47.94711" lon="6.921">
        <ele>1137</ele>
        <time>2025-06-08T13:21:19.000Z</time>
      </trkpt>
      <trkpt lat="47.94737" lon="6.92105">
        <ele>1134</ele>
        <time>2025-06-08T13:21:40.000Z</time>
      </trkpt>
      <trkpt lat="47.94746" lon="6.92114">
        <ele>1133</ele>
        <time>2025-06-08T13:21:47.000Z</time>
      </trkpt>
      <trkpt lat="47.94758" lon="6.92134">
        <ele>1132</ele>
        <time>2025-06-08T13:22:00.000Z</time>
      </trkpt>
      <trkpt lat="47.94762" lon="6.92137">
        <ele>1131</ele>
        <time>2025-06-08T13:22:03.000Z</time>
      </trkpt>
      <trkpt lat="47.94769" lon="6.92149">
        <ele>1131</ele>
        <time>2025-06-08T13:22:11.000Z</time>
      </trkpt>
      <trkpt lat="47.94772" lon="6.92156">
        <ele>1131</ele>
        <time>2025-06-08T13:22:16.000Z</time>
      </trkpt>
      <trkpt lat="47.94773" lon="6.92164">
        <ele>1131</ele>
        <time>2025-06-08T13:22:19.000Z</time>
      </trkpt>
      <trkpt lat="47.94775" lon="6.9217">
        <ele>1130</ele>
        <time>2025-06-08T13:22:23.000Z</time>
      </trkpt>
      <trkpt lat="47.94779" lon="6.92183">
        <ele>1130</ele>
        <time>2025-06-08T13:22:30.000Z</time>
      </trkpt>
      <trkpt lat="47.94779" lon="6.9219">
        <ele>1130</ele>
        <time>2025-06-08T13:22:33.000Z</time>
      </trkpt>
      <trkpt lat="47.94784" lon="6.92196">
        <ele>1130</ele>
        <time>2025-06-08T13:22:39.000Z</time>
      </trkpt>
      <trkpt lat="47.94787" lon="6.92202">
        <ele>1129</ele>
        <time>2025-06-08T13:22:43.000Z</time>
      </trkpt>
      <trkpt lat="47.94791" lon="6.92207">
        <ele>1128</ele>
        <time>2025-06-08T13:22:47.000Z</time>
      </trkpt>
      <trkpt lat="47.94799" lon="6.92217">
        <ele>1129</ele>
        <time>2025-06-08T13:22:54.000Z</time>
      </trkpt>
      <trkpt lat="47.94802" lon="6.92223">
        <ele>1128</ele>
        <time>2025-06-08T13:22:59.000Z</time>
      </trkpt>
      <trkpt lat="47.94803" lon="6.92229">
        <ele>1128</ele>
        <time>2025-06-08T13:23:02.000Z</time>
      </trkpt>
      <trkpt lat="47.94808" lon="6.92232">
        <ele>1128</ele>
        <time>2025-06-08T13:23:06.000Z</time>
      </trkpt>
      <trkpt lat="47.9481" lon="6.92239">
        <ele>1128</ele>
        <time>2025-06-08T13:23:10.000Z</time>
      </trkpt>
      <trkpt lat="47.94811" lon="6.92246">
        <ele>1127</ele>
        <time>2025-06-08T13:23:13.000Z</time>
      </trkpt>
      <trkpt lat="47.94815" lon="6.92248">
        <ele>1127</ele>
        <time>2025-06-08T13:23:17.000Z</time>
      </trkpt>
      <trkpt lat="47.94819" lon="6.92253">
        <ele>1126</ele>
        <time>2025-06-08T13:23:20.000Z</time>
      </trkpt>
      <trkpt lat="47.94823" lon="6.92262">
        <ele>1125</ele>
        <time>2025-06-08T13:23:28.000Z</time>
      </trkpt>
      <trkpt lat="47.94827" lon="6.92266">
        <ele>1125</ele>
        <time>2025-06-08T13:23:32.000Z</time>
      </trkpt>
      <trkpt lat="47.9483" lon="6.92271">
        <ele>1125</ele>
        <time>2025-06-08T13:23:37.000Z</time>
      </trkpt>
      <trkpt lat="47.94834" lon="6.92276">
        <ele>1125</ele>
        <time>2025-06-08T13:23:39.000Z</time>
      </trkpt>
      <trkpt lat="47.94838" lon="6.92277">
        <ele>1125</ele>
        <time>2025-06-08T13:23:42.000Z</time>
      </trkpt>
      <trkpt lat="47.94843" lon="6.92281">
        <ele>1123</ele>
        <time>2025-06-08T13:23:46.000Z</time>
      </trkpt>
      <trkpt lat="47.94847" lon="6.92283">
        <ele>1122</ele>
        <time>2025-06-08T13:23:54.000Z</time>
      </trkpt>
      <trkpt lat="47.94856" lon="6.92276">
        <ele>1121</ele>
        <time>2025-06-08T13:24:04.000Z</time>
      </trkpt>
      <trkpt lat="47.94864" lon="6.92271">
        <ele>1119</ele>
        <time>2025-06-08T13:24:12.000Z</time>
      </trkpt>
      <trkpt lat="47.94868" lon="6.92267">
        <ele>1118</ele>
        <time>2025-06-08T13:24:15.000Z</time>
      </trkpt>
      <trkpt lat="47.94871" lon="6.92262">
        <ele>1118</ele>
        <time>2025-06-08T13:24:19.000Z</time>
      </trkpt>
      <trkpt lat="47.94874" lon="6.92258">
        <ele>1117</ele>
        <time>2025-06-08T13:24:23.000Z</time>
      </trkpt>
      <trkpt lat="47.94879" lon="6.92256">
        <ele>1116</ele>
        <time>2025-06-08T13:24:27.000Z</time>
      </trkpt>
      <trkpt lat="47.9489" lon="6.92241">
        <ele>1114</ele>
        <time>2025-06-08T13:24:38.000Z</time>
      </trkpt>
      <trkpt lat="47.94894" lon="6.92243">
        <ele>1112</ele>
        <time>2025-06-08T13:24:46.000Z</time>
      </trkpt>
      <trkpt lat="47.94899" lon="6.92247">
        <ele>1110</ele>
        <time>2025-06-08T13:24:49.000Z</time>
      </trkpt>
      <trkpt lat="47.94903" lon="6.92252">
        <ele>1110</ele>
        <time>2025-06-08T13:24:53.000Z</time>
      </trkpt>
      <trkpt lat="47.94901" lon="6.92259">
        <ele>1109</ele>
        <time>2025-06-08T13:24:56.000Z</time>
      </trkpt>
      <trkpt lat="47.94902" lon="6.92264">
        <ele>1109</ele>
        <time>2025-06-08T13:24:59.000Z</time>
      </trkpt>
      <trkpt lat="47.94902" lon="6.92272">
        <ele>1108</ele>
        <time>2025-06-08T13:25:03.000Z</time>
      </trkpt>
      <trkpt lat="47.949" lon="6.92277">
        <ele>1108</ele>
        <time>2025-06-08T13:25:07.000Z</time>
      </trkpt>
      <trkpt lat="47.949" lon="6.92285">
        <ele>1107</ele>
        <time>2025-06-08T13:25:09.000Z</time>
      </trkpt>
      <trkpt lat="47.94893" lon="6.92324">
        <ele>1103</ele>
        <time>2025-06-08T13:25:26.000Z</time>
      </trkpt>
      <trkpt lat="47.94901" lon="6.92327">
        <ele>1100</ele>
        <time>2025-06-08T13:25:37.000Z</time>
      </trkpt>
      <trkpt lat="47.94905" lon="6.92322">
        <ele>1099</ele>
        <time>2025-06-08T13:25:41.000Z</time>
      </trkpt>
      <trkpt lat="47.94908" lon="6.92315">
        <ele>1098</ele>
        <time>2025-06-08T13:25:44.000Z</time>
      </trkpt>
      <trkpt lat="47.9491" lon="6.92303">
        <ele>1098</ele>
        <time>2025-06-08T13:25:49.000Z</time>
      </trkpt>
      <trkpt lat="47.94913" lon="6.92288">
        <ele>1096</ele>
        <time>2025-06-08T13:25:57.000Z</time>
      </trkpt>
      <trkpt lat="47.94933" lon="6.92246">
        <ele>1093</ele>
        <time>2025-06-08T13:26:21.000Z</time>
      </trkpt>
      <trkpt lat="47.94937" lon="6.92241">
        <ele>1092</ele>
        <time>2025-06-08T13:26:25.000Z</time>
      </trkpt>
      <trkpt lat="47.94941" lon="6.92238">
        <ele>1091</ele>
        <time>2025-06-08T13:26:28.000Z</time>
      </trkpt>
      <trkpt lat="47.94945" lon="6.92238">
        <ele>1090</ele>
        <time>2025-06-08T13:26:31.000Z</time>
      </trkpt>
      <trkpt lat="47.94955" lon="6.92243">
        <ele>1089</ele>
        <time>2025-06-08T13:26:38.000Z</time>
      </trkpt>
      <trkpt lat="47.94963" lon="6.92256">
        <ele>1088</ele>
        <time>2025-06-08T13:26:48.000Z</time>
      </trkpt>
      <trkpt lat="47.94966" lon="6.92263">
        <ele>1089</ele>
        <time>2025-06-08T13:26:53.000Z</time>
      </trkpt>
      <trkpt lat="47.94967" lon="6.9227">
        <ele>1089</ele>
        <time>2025-06-08T13:27:01.000Z</time>
      </trkpt>
      <trkpt lat="47.94968" lon="6.92278">
        <ele>1090</ele>
        <time>2025-06-08T13:27:12.000Z</time>
      </trkpt>
      <trkpt lat="47.94967" lon="6.92285">
        <ele>1090</ele>
        <time>2025-06-08T13:27:17.000Z</time>
      </trkpt>
      <trkpt lat="47.94966" lon="6.92302">
        <ele>1091</ele>
        <time>2025-06-08T13:27:26.000Z</time>
      </trkpt>
      <trkpt lat="47.9496" lon="6.92324">
        <ele>1093</ele>
        <time>2025-06-08T13:27:40.000Z</time>
      </trkpt>
      <trkpt lat="47.94961" lon="6.9233">
        <ele>1093</ele>
        <time>2025-06-08T13:27:44.000Z</time>
      </trkpt>
      <trkpt lat="47.94958" lon="6.92338">
        <ele>1093</ele>
        <time>2025-06-08T13:27:48.000Z</time>
      </trkpt>
      <trkpt lat="47.9496" lon="6.92345">
        <ele>1094</ele>
        <time>2025-06-08T13:27:52.000Z</time>
      </trkpt>
      <trkpt lat="47.94958" lon="6.92356">
        <ele>1096</ele>
        <time>2025-06-08T13:27:57.000Z</time>
      </trkpt>
      <trkpt lat="47.94957" lon="6.92367">
        <ele>1096</ele>
        <time>2025-06-08T13:28:02.000Z</time>
      </trkpt>
      <trkpt lat="47.94958" lon="6.92396">
        <ele>1099</ele>
        <time>2025-06-08T13:28:17.000Z</time>
      </trkpt>
      <trkpt lat="47.94961" lon="6.92383">
        <ele>1102</ele>
        <time>2025-06-08T13:28:29.000Z</time>
      </trkpt>
      <trkpt lat="47.9496" lon="6.92376">
        <ele>1102</ele>
        <time>2025-06-08T13:28:32.000Z</time>
      </trkpt>
      <trkpt lat="47.94963" lon="6.92367">
        <ele>1103</ele>
        <time>2025-06-08T13:28:38.000Z</time>
      </trkpt>
      <trkpt lat="47.94968" lon="6.92355">
        <ele>1105</ele>
        <time>2025-06-08T13:28:45.000Z</time>
      </trkpt>
      <trkpt lat="47.9497" lon="6.92348">
        <ele>1105</ele>
        <time>2025-06-08T13:28:49.000Z</time>
      </trkpt>
      <trkpt lat="47.94975" lon="6.92345">
        <ele>1105</ele>
        <time>2025-06-08T13:28:53.000Z</time>
      </trkpt>
      <trkpt lat="47.94982" lon="6.92338">
        <ele>1107</ele>
        <time>2025-06-08T13:29:02.000Z</time>
      </trkpt>
      <trkpt lat="47.94986" lon="6.92333">
        <ele>1108</ele>
        <time>2025-06-08T13:29:06.000Z</time>
      </trkpt>
      <trkpt lat="47.94991" lon="6.92332">
        <ele>1108</ele>
        <time>2025-06-08T13:29:11.000Z</time>
      </trkpt>
      <trkpt lat="47.94996" lon="6.92335">
        <ele>1108</ele>
        <time>2025-06-08T13:29:13.000Z</time>
      </trkpt>
      <trkpt lat="47.95" lon="6.92332">
        <ele>1109</ele>
        <time>2025-06-08T13:29:15.000Z</time>
      </trkpt>
      <trkpt lat="47.95003" lon="6.92328">
        <ele>1109</ele>
        <time>2025-06-08T13:29:19.000Z</time>
      </trkpt>
      <trkpt lat="47.95008" lon="6.92325">
        <ele>1110</ele>
        <time>2025-06-08T13:29:22.000Z</time>
      </trkpt>
      <trkpt lat="47.95004" lon="6.92342">
        <ele>1111</ele>
        <time>2025-06-08T13:29:28.000Z</time>
      </trkpt>
      <trkpt lat="47.95004" lon="6.9235">
        <ele>1112</ele>
        <time>2025-06-08T13:29:31.000Z</time>
      </trkpt>
      <trkpt lat="47.95001" lon="6.92364">
        <ele>1113</ele>
        <time>2025-06-08T13:29:39.000Z</time>
      </trkpt>
      <trkpt lat="47.94997" lon="6.92361">
        <ele>1113</ele>
        <time>2025-06-08T13:29:41.000Z</time>
      </trkpt>
      <trkpt lat="47.94995" lon="6.92367">
        <ele>1114</ele>
        <time>2025-06-08T13:29:46.000Z</time>
      </trkpt>
      <trkpt lat="47.94994" lon="6.92376">
        <ele>1114</ele>
        <time>2025-06-08T13:29:51.000Z</time>
      </trkpt>
      <trkpt lat="47.94987" lon="6.92392">
        <ele>1116</ele>
        <time>2025-06-08T13:30:02.000Z</time>
      </trkpt>
      <trkpt lat="47.94986" lon="6.92399">
        <ele>1116</ele>
        <time>2025-06-08T13:30:07.000Z</time>
      </trkpt>
      <trkpt lat="47.94985" lon="6.92407">
        <ele>1117</ele>
        <time>2025-06-08T13:30:11.000Z</time>
      </trkpt>
      <trkpt lat="47.94983" lon="6.92415">
        <ele>1118</ele>
        <time>2025-06-08T13:30:15.000Z</time>
      </trkpt>
      <trkpt lat="47.94982" lon="6.92422">
        <ele>1119</ele>
        <time>2025-06-08T13:30:19.000Z</time>
      </trkpt>
      <trkpt lat="47.94981" lon="6.92429">
        <ele>1119</ele>
        <time>2025-06-08T13:30:22.000Z</time>
      </trkpt>
      <trkpt lat="47.94983" lon="6.92436">
        <ele>1120</ele>
        <time>2025-06-08T13:30:26.000Z</time>
      </trkpt>
      <trkpt lat="47.94982" lon="6.9245">
        <ele>1120</ele>
        <time>2025-06-08T13:30:33.000Z</time>
      </trkpt>
      <trkpt lat="47.94984" lon="6.92459">
        <ele>1121</ele>
        <time>2025-06-08T13:30:39.000Z</time>
      </trkpt>
      <trkpt lat="47.94984" lon="6.92467">
        <ele>1122</ele>
        <time>2025-06-08T13:30:47.000Z</time>
      </trkpt>
      <trkpt lat="47.94984" lon="6.92476">
        <ele>1122</ele>
        <time>2025-06-08T13:30:52.000Z</time>
      </trkpt>
      <trkpt lat="47.94985" lon="6.92483">
        <ele>1122</ele>
        <time>2025-06-08T13:30:56.000Z</time>
      </trkpt>
      <trkpt lat="47.94986" lon="6.92497">
        <ele>1123</ele>
        <time>2025-06-08T13:31:06.000Z</time>
      </trkpt>
      <trkpt lat="47.94988" lon="6.92503">
        <ele>1123</ele>
        <time>2025-06-08T13:31:13.000Z</time>
      </trkpt>
      <trkpt lat="47.94989" lon="6.92511">
        <ele>1125</ele>
        <time>2025-06-08T13:31:17.000Z</time>
      </trkpt>
      <trkpt lat="47.94991" lon="6.9252">
        <ele>1125</ele>
        <time>2025-06-08T13:31:21.000Z</time>
      </trkpt>
      <trkpt lat="47.9499" lon="6.92526">
        <ele>1125</ele>
        <time>2025-06-08T13:31:24.000Z</time>
      </trkpt>
      <trkpt lat="47.94993" lon="6.92539">
        <ele>1126</ele>
        <time>2025-06-08T13:31:31.000Z</time>
      </trkpt>
      <trkpt lat="47.94996" lon="6.9255">
        <ele>1126</ele>
        <time>2025-06-08T13:31:40.000Z</time>
      </trkpt>
      <trkpt lat="47.95004" lon="6.92551">
        <ele>1128</ele>
        <time>2025-06-08T13:31:47.000Z</time>
      </trkpt>
      <trkpt lat="47.95011" lon="6.92555">
        <ele>1128</ele>
        <time>2025-06-08T13:31:54.000Z</time>
      </trkpt>
      <trkpt lat="47.95017" lon="6.9256">
        <ele>1129</ele>
        <time>2025-06-08T13:32:00.000Z</time>
      </trkpt>
      <trkpt lat="47.95021" lon="6.92562">
        <ele>1130</ele>
        <time>2025-06-08T13:32:04.000Z</time>
      </trkpt>
      <trkpt lat="47.95025" lon="6.92564">
        <ele>1132</ele>
        <time>2025-06-08T13:32:11.000Z</time>
      </trkpt>
      <trkpt lat="47.95033" lon="6.92554">
        <ele>1133</ele>
        <time>2025-06-08T13:32:20.000Z</time>
      </trkpt>
      <trkpt lat="47.95036" lon="6.92545">
        <ele>1133</ele>
        <time>2025-06-08T13:32:22.000Z</time>
      </trkpt>
      <trkpt lat="47.95041" lon="6.92541">
        <ele>1134</ele>
        <time>2025-06-08T13:32:24.000Z</time>
      </trkpt>
      <trkpt lat="47.95045" lon="6.92536">
        <ele>1135</ele>
        <time>2025-06-08T13:32:32.000Z</time>
      </trkpt>
      <trkpt lat="47.9505" lon="6.92534">
        <ele>1135</ele>
        <time>2025-06-08T13:32:36.000Z</time>
      </trkpt>
      <trkpt lat="47.95057" lon="6.92532">
        <ele>1135</ele>
        <time>2025-06-08T13:32:43.000Z</time>
      </trkpt>
      <trkpt lat="47.95061" lon="6.92529">
        <ele>1136</ele>
        <time>2025-06-08T13:32:46.000Z</time>
      </trkpt>
      <trkpt lat="47.95066" lon="6.92529">
        <ele>1136</ele>
        <time>2025-06-08T13:32:50.000Z</time>
      </trkpt>
      <trkpt lat="47.9507" lon="6.9253">
        <ele>1137</ele>
        <time>2025-06-08T13:32:54.000Z</time>
      </trkpt>
      <trkpt lat="47.95075" lon="6.92529">
        <ele>1138</ele>
        <time>2025-06-08T13:32:57.000Z</time>
      </trkpt>
      <trkpt lat="47.9508" lon="6.92531">
        <ele>1138</ele>
        <time>2025-06-08T13:33:00.000Z</time>
      </trkpt>
      <trkpt lat="47.95091" lon="6.92528">
        <ele>1139</ele>
        <time>2025-06-08T13:33:12.000Z</time>
      </trkpt>
      <trkpt lat="47.95101" lon="6.92523">
        <ele>1138</ele>
        <time>2025-06-08T13:33:23.000Z</time>
      </trkpt>
      <trkpt lat="47.95105" lon="6.92522">
        <ele>1139</ele>
        <time>2025-06-08T13:33:27.000Z</time>
      </trkpt>
      <trkpt lat="47.95117" lon="6.9252">
        <ele>1139</ele>
        <time>2025-06-08T13:33:34.000Z</time>
      </trkpt>
      <trkpt lat="47.95121" lon="6.92519">
        <ele>1140</ele>
        <time>2025-06-08T13:33:38.000Z</time>
      </trkpt>
      <trkpt lat="47.95126" lon="6.9252">
        <ele>1140</ele>
        <time>2025-06-08T13:33:43.000Z</time>
      </trkpt>
      <trkpt lat="47.95132" lon="6.92519">
        <ele>1141</ele>
        <time>2025-06-08T13:33:46.000Z</time>
      </trkpt>
      <trkpt lat="47.95136" lon="6.92517">
        <ele>1141</ele>
        <time>2025-06-08T13:33:49.000Z</time>
      </trkpt>
      <trkpt lat="47.9514" lon="6.92518">
        <ele>1141</ele>
        <time>2025-06-08T13:33:53.000Z</time>
      </trkpt>
      <trkpt lat="47.95147" lon="6.9252">
        <ele>1142</ele>
        <time>2025-06-08T13:34:03.000Z</time>
      </trkpt>
      <trkpt lat="47.9515" lon="6.92514">
        <ele>1143</ele>
        <time>2025-06-08T13:34:07.000Z</time>
      </trkpt>
      <trkpt lat="47.95151" lon="6.92506">
        <ele>1142</ele>
        <time>2025-06-08T13:34:10.000Z</time>
      </trkpt>
      <trkpt lat="47.95157" lon="6.92487">
        <ele>1142</ele>
        <time>2025-06-08T13:34:20.000Z</time>
      </trkpt>
      <trkpt lat="47.95158" lon="6.9248">
        <ele>1142</ele>
        <time>2025-06-08T13:34:24.000Z</time>
      </trkpt>
      <trkpt lat="47.95162" lon="6.92445">
        <ele>1143</ele>
        <time>2025-06-08T13:34:42.000Z</time>
      </trkpt>
      <trkpt lat="47.95164" lon="6.9244">
        <ele>1143</ele>
        <time>2025-06-08T13:34:45.000Z</time>
      </trkpt>
      <trkpt lat="47.95166" lon="6.92435">
        <ele>1142</ele>
        <time>2025-06-08T13:34:49.000Z</time>
      </trkpt>
      <trkpt lat="47.9517" lon="6.92431">
        <ele>1142</ele>
        <time>2025-06-08T13:34:53.000Z</time>
      </trkpt>
      <trkpt lat="47.95175" lon="6.92429">
        <ele>1141</ele>
        <time>2025-06-08T13:34:56.000Z</time>
      </trkpt>
      <trkpt lat="47.95182" lon="6.9242">
        <ele>1142</ele>
        <time>2025-06-08T13:35:03.000Z</time>
      </trkpt>
      <trkpt lat="47.95186" lon="6.92414">
        <ele>1141</ele>
        <time>2025-06-08T13:35:07.000Z</time>
      </trkpt>
      <trkpt lat="47.95189" lon="6.92408">
        <ele>1141</ele>
        <time>2025-06-08T13:35:11.000Z</time>
      </trkpt>
      <trkpt lat="47.95199" lon="6.92395">
        <ele>1140</ele>
        <time>2025-06-08T13:35:20.000Z</time>
      </trkpt>
      <trkpt lat="47.95202" lon="6.92389">
        <ele>1139</ele>
        <time>2025-06-08T13:35:24.000Z</time>
      </trkpt>
      <trkpt lat="47.95207" lon="6.92385">
        <ele>1139</ele>
        <time>2025-06-08T13:35:28.000Z</time>
      </trkpt>
      <trkpt lat="47.95217" lon="6.92372">
        <ele>1139</ele>
        <time>2025-06-08T13:35:39.000Z</time>
      </trkpt>
      <trkpt lat="47.9522" lon="6.92367">
        <ele>1138</ele>
        <time>2025-06-08T13:35:43.000Z</time>
      </trkpt>
      <trkpt lat="47.95225" lon="6.92366">
        <ele>1139</ele>
        <time>2025-06-08T13:35:47.000Z</time>
      </trkpt>
      <trkpt lat="47.95242" lon="6.92356">
        <ele>1141</ele>
        <time>2025-06-08T13:36:03.000Z</time>
      </trkpt>
      <trkpt lat="47.95273" lon="6.92342">
        <ele>1144</ele>
        <time>2025-06-08T13:36:27.000Z</time>
      </trkpt>
      <trkpt lat="47.95279" lon="6.92341">
        <ele>1144</ele>
        <time>2025-06-08T13:36:31.000Z</time>
      </trkpt>
      <trkpt lat="47.95295" lon="6.92347">
        <ele>1145</ele>
        <time>2025-06-08T13:36:44.000Z</time>
      </trkpt>
      <trkpt lat="47.95298" lon="6.92351">
        <ele>1144</ele>
        <time>2025-06-08T13:36:47.000Z</time>
      </trkpt>
      <trkpt lat="47.95308" lon="6.92354">
        <ele>1143</ele>
        <time>2025-06-08T13:36:55.000Z</time>
      </trkpt>
      <trkpt lat="47.95314" lon="6.92354">
        <ele>1142</ele>
        <time>2025-06-08T13:36:59.000Z</time>
      </trkpt>
      <trkpt lat="47.95318" lon="6.92351">
        <ele>1142</ele>
        <time>2025-06-08T13:37:02.000Z</time>
      </trkpt>
      <trkpt lat="47.95334" lon="6.92355">
        <ele>1140</ele>
        <time>2025-06-08T13:37:14.000Z</time>
      </trkpt>
      <trkpt lat="47.95338" lon="6.92355">
        <ele>1140</ele>
        <time>2025-06-08T13:37:18.000Z</time>
      </trkpt>
      <trkpt lat="47.95364" lon="6.92355">
        <ele>1139</ele>
        <time>2025-06-08T13:37:38.000Z</time>
      </trkpt>
      <trkpt lat="47.95374" lon="6.92357">
        <ele>1139</ele>
        <time>2025-06-08T13:37:45.000Z</time>
      </trkpt>
      <trkpt lat="47.95378" lon="6.92358">
        <ele>1139</ele>
        <time>2025-06-08T13:37:49.000Z</time>
      </trkpt>
      <trkpt lat="47.95383" lon="6.92359">
        <ele>1139</ele>
        <time>2025-06-08T13:37:52.000Z</time>
      </trkpt>
      <trkpt lat="47.95387" lon="6.9236">
        <ele>1138</ele>
        <time>2025-06-08T13:37:57.000Z</time>
      </trkpt>
      <trkpt lat="47.95393" lon="6.92361">
        <ele>1137</ele>
        <time>2025-06-08T13:38:01.000Z</time>
      </trkpt>
      <trkpt lat="47.95397" lon="6.92362">
        <ele>1138</ele>
        <time>2025-06-08T13:38:04.000Z</time>
      </trkpt>
      <trkpt lat="47.95408" lon="6.92366">
        <ele>1134</ele>
        <time>2025-06-08T13:38:15.000Z</time>
      </trkpt>
      <trkpt lat="47.95414" lon="6.92369">
        <ele>1136</ele>
        <time>2025-06-08T13:38:24.000Z</time>
      </trkpt>
      <trkpt lat="47.95426" lon="6.92373">
        <ele>1133</ele>
        <time>2025-06-08T13:38:52.000Z</time>
      </trkpt>
      <trkpt lat="47.95432" lon="6.92374">
        <ele>1133</ele>
        <time>2025-06-08T13:38:57.000Z</time>
      </trkpt>
      <trkpt lat="47.95444" lon="6.92379">
        <ele>1130</ele>
        <time>2025-06-08T13:39:07.000Z</time>
      </trkpt>
      <trkpt lat="47.95468" lon="6.92383">
        <ele>1132</ele>
        <time>2025-06-08T13:39:27.000Z</time>
      </trkpt>
      <trkpt lat="47.95484" lon="6.9239">
        <ele>1131</ele>
        <time>2025-06-08T13:39:40.000Z</time>
      </trkpt>
      <trkpt lat="47.95494" lon="6.92394">
        <ele>1133</ele>
        <time>2025-06-08T13:39:48.000Z</time>
      </trkpt>
      <trkpt lat="47.95498" lon="6.92397">
        <ele>1134</ele>
        <time>2025-06-08T13:39:52.000Z</time>
      </trkpt>
      <trkpt lat="47.95531" lon="6.92414">
        <ele>1139</ele>
        <time>2025-06-08T13:40:21.000Z</time>
      </trkpt>
      <trkpt lat="47.95561" lon="6.92436">
        <ele>1144</ele>
        <time>2025-06-08T13:40:51.000Z</time>
      </trkpt>
      <trkpt lat="47.95578" lon="6.92454">
        <ele>1147</ele>
        <time>2025-06-08T13:41:09.000Z</time>
      </trkpt>
      <trkpt lat="47.95581" lon="6.92457">
        <ele>1148</ele>
        <time>2025-06-08T13:41:18.000Z</time>
      </trkpt>
      <trkpt lat="47.95585" lon="6.92449">
        <ele>1148</ele>
        <time>2025-06-08T13:41:22.000Z</time>
      </trkpt>
      <trkpt lat="47.95593" lon="6.92437">
        <ele>1148</ele>
        <time>2025-06-08T13:41:25.000Z</time>
      </trkpt>
      <trkpt lat="47.95596" lon="6.92433">
        <ele>1148</ele>
        <time>2025-06-08T13:41:28.000Z</time>
      </trkpt>
      <trkpt lat="47.95604" lon="6.9243">
        <ele>1148</ele>
        <time>2025-06-08T13:41:36.000Z</time>
      </trkpt>
      <trkpt lat="47.95614" lon="6.9243">
        <ele>1148</ele>
        <time>2025-06-08T13:41:46.000Z</time>
      </trkpt>
      <trkpt lat="47.95644" lon="6.92422">
        <ele>1150</ele>
        <time>2025-06-08T13:42:07.000Z</time>
      </trkpt>
      <trkpt lat="47.95648" lon="6.9242">
        <ele>1150</ele>
        <time>2025-06-08T13:42:10.000Z</time>
      </trkpt>
      <trkpt lat="47.95653" lon="6.92418">
        <ele>1149</ele>
        <time>2025-06-08T13:42:14.000Z</time>
      </trkpt>
      <trkpt lat="47.95691" lon="6.92405">
        <ele>1151</ele>
        <time>2025-06-08T13:42:42.000Z</time>
      </trkpt>
      <trkpt lat="47.95697" lon="6.92402">
        <ele>1152</ele>
        <time>2025-06-08T13:42:48.000Z</time>
      </trkpt>
      <trkpt lat="47.95706" lon="6.92396">
        <ele>1152</ele>
        <time>2025-06-08T13:42:55.000Z</time>
      </trkpt>
      <trkpt lat="47.95713" lon="6.92386">
        <ele>1153</ele>
        <time>2025-06-08T13:43:02.000Z</time>
      </trkpt>
      <trkpt lat="47.95716" lon="6.92381">
        <ele>1153</ele>
        <time>2025-06-08T13:43:05.000Z</time>
      </trkpt>
      <trkpt lat="47.95724" lon="6.92371">
        <ele>1155</ele>
        <time>2025-06-08T13:43:14.000Z</time>
      </trkpt>
      <trkpt lat="47.95731" lon="6.92359">
        <ele>1155</ele>
        <time>2025-06-08T13:43:22.000Z</time>
      </trkpt>
      <trkpt lat="47.95764" lon="6.92328">
        <ele>1157</ele>
        <time>2025-06-08T13:43:52.000Z</time>
      </trkpt>
      <trkpt lat="47.95768" lon="6.92324">
        <ele>1156</ele>
        <time>2025-06-08T13:43:56.000Z</time>
      </trkpt>
      <trkpt lat="47.95771" lon="6.92318">
        <ele>1156</ele>
        <time>2025-06-08T13:44:00.000Z</time>
      </trkpt>
      <trkpt lat="47.95787" lon="6.92295">
        <ele>1156</ele>
        <time>2025-06-08T13:44:17.000Z</time>
      </trkpt>
      <trkpt lat="47.95792" lon="6.92282">
        <ele>1155</ele>
        <time>2025-06-08T13:44:22.000Z</time>
      </trkpt>
      <trkpt lat="47.95794" lon="6.92276">
        <ele>1155</ele>
        <time>2025-06-08T13:44:25.000Z</time>
      </trkpt>
      <trkpt lat="47.95798" lon="6.92262">
        <ele>1154</ele>
        <time>2025-06-08T13:44:33.000Z</time>
      </trkpt>
      <trkpt lat="47.95805" lon="6.92244">
        <ele>1152</ele>
        <time>2025-06-08T13:44:45.000Z</time>
      </trkpt>
      <trkpt lat="47.95809" lon="6.92237">
        <ele>1152</ele>
        <time>2025-06-08T13:44:48.000Z</time>
      </trkpt>
      <trkpt lat="47.95812" lon="6.92232">
        <ele>1152</ele>
        <time>2025-06-08T13:44:51.000Z</time>
      </trkpt>
      <trkpt lat="47.9582" lon="6.92216">
        <ele>1151</ele>
        <time>2025-06-08T13:45:01.000Z</time>
      </trkpt>
      <trkpt lat="47.95823" lon="6.92209">
        <ele>1152</ele>
        <time>2025-06-08T13:45:05.000Z</time>
      </trkpt>
      <trkpt lat="47.95826" lon="6.92201">
        <ele>1151</ele>
        <time>2025-06-08T13:45:09.000Z</time>
      </trkpt>
      <trkpt lat="47.95834" lon="6.92182">
        <ele>1151</ele>
        <time>2025-06-08T13:45:20.000Z</time>
      </trkpt>
      <trkpt lat="47.95845" lon="6.92158">
        <ele>1148</ele>
        <time>2025-06-08T13:45:35.000Z</time>
      </trkpt>
      <trkpt lat="47.95848" lon="6.92153">
        <ele>1148</ele>
        <time>2025-06-08T13:45:38.000Z</time>
      </trkpt>
      <trkpt lat="47.9585" lon="6.92146">
        <ele>1148</ele>
        <time>2025-06-08T13:45:42.000Z</time>
      </trkpt>
      <trkpt lat="47.95854" lon="6.9214">
        <ele>1147</ele>
        <time>2025-06-08T13:45:46.000Z</time>
      </trkpt>
      <trkpt lat="47.95867" lon="6.92119">
        <ele>1147</ele>
        <time>2025-06-08T13:46:03.000Z</time>
      </trkpt>
      <trkpt lat="47.95872" lon="6.92113">
        <ele>1147</ele>
        <time>2025-06-08T13:46:07.000Z</time>
      </trkpt>
      <trkpt lat="47.9588" lon="6.92102">
        <ele>1146</ele>
        <time>2025-06-08T13:46:14.000Z</time>
      </trkpt>
      <trkpt lat="47.95884" lon="6.92096">
        <ele>1145</ele>
        <time>2025-06-08T13:46:18.000Z</time>
      </trkpt>
      <trkpt lat="47.95891" lon="6.92085">
        <ele>1145</ele>
        <time>2025-06-08T13:46:26.000Z</time>
      </trkpt>
      <trkpt lat="47.95895" lon="6.9208">
        <ele>1145</ele>
        <time>2025-06-08T13:46:29.000Z</time>
      </trkpt>
      <trkpt lat="47.959" lon="6.9208">
        <ele>1146</ele>
        <time>2025-06-08T13:46:32.000Z</time>
      </trkpt>
      <trkpt lat="47.95904" lon="6.92083">
        <ele>1146</ele>
        <time>2025-06-08T13:46:34.000Z</time>
      </trkpt>
      <trkpt lat="47.95911" lon="6.9208">
        <ele>1146</ele>
        <time>2025-06-08T13:46:51.000Z</time>
      </trkpt>
      <trkpt lat="47.95917" lon="6.92079">
        <ele>1147</ele>
        <time>2025-06-08T13:46:55.000Z</time>
      </trkpt>
      <trkpt lat="47.95922" lon="6.92078">
        <ele>1146</ele>
        <time>2025-06-08T13:46:59.000Z</time>
      </trkpt>
      <trkpt lat="47.95928" lon="6.92077">
        <ele>1147</ele>
        <time>2025-06-08T13:47:03.000Z</time>
      </trkpt>
      <trkpt lat="47.95937" lon="6.92079">
        <ele>1145</ele>
        <time>2025-06-08T13:47:10.000Z</time>
      </trkpt>
      <trkpt lat="47.95943" lon="6.92078">
        <ele>1145</ele>
        <time>2025-06-08T13:47:14.000Z</time>
      </trkpt>
      <trkpt lat="47.95947" lon="6.92078">
        <ele>1144</ele>
        <time>2025-06-08T13:47:17.000Z</time>
      </trkpt>
      <trkpt lat="47.95953" lon="6.92077">
        <ele>1145</ele>
        <time>2025-06-08T13:47:21.000Z</time>
      </trkpt>
      <trkpt lat="47.95958" lon="6.92078">
        <ele>1144</ele>
        <time>2025-06-08T13:47:25.000Z</time>
      </trkpt>
      <trkpt lat="47.95974" lon="6.92081">
        <ele>1145</ele>
        <time>2025-06-08T13:47:37.000Z</time>
      </trkpt>
      <trkpt lat="47.95979" lon="6.92079">
        <ele>1144</ele>
        <time>2025-06-08T13:47:41.000Z</time>
      </trkpt>
      <trkpt lat="47.95984" lon="6.92078">
        <ele>1144</ele>
        <time>2025-06-08T13:47:44.000Z</time>
      </trkpt>
      <trkpt lat="47.95988" lon="6.92079">
        <ele>1144</ele>
        <time>2025-06-08T13:47:48.000Z</time>
      </trkpt>
      <trkpt lat="47.95993" lon="6.92082">
        <ele>1144</ele>
        <time>2025-06-08T13:47:52.000Z</time>
      </trkpt>
      <trkpt lat="47.95989" lon="6.92083">
        <ele>1144</ele>
        <time>2025-06-08T13:48:10.000Z</time>
      </trkpt>
      <trkpt lat="47.95986" lon="6.92091">
        <ele>1144</ele>
        <time>2025-06-08T13:48:16.000Z</time>
      </trkpt>
      <trkpt lat="47.96001" lon="6.921">
        <ele>1147</ele>
        <time>2025-06-08T13:48:32.000Z</time>
      </trkpt>
      <trkpt lat="47.96011" lon="6.92108">
        <ele>1148</ele>
        <time>2025-06-08T13:48:41.000Z</time>
      </trkpt>
      <trkpt lat="47.96015" lon="6.92111">
        <ele>1148</ele>
        <time>2025-06-08T13:48:45.000Z</time>
      </trkpt>
      <trkpt lat="47.96023" lon="6.9212">
        <ele>1149</ele>
        <time>2025-06-08T13:48:54.000Z</time>
      </trkpt>
      <trkpt lat="47.96027" lon="6.92125">
        <ele>1149</ele>
        <time>2025-06-08T13:48:57.000Z</time>
      </trkpt>
      <trkpt lat="47.96032" lon="6.92128">
        <ele>1148</ele>
        <time>2025-06-08T13:49:01.000Z</time>
      </trkpt>
      <trkpt lat="47.9604" lon="6.92136">
        <ele>1148</ele>
        <time>2025-06-08T13:49:09.000Z</time>
      </trkpt>
      <trkpt lat="47.96044" lon="6.9214">
        <ele>1148</ele>
        <time>2025-06-08T13:49:13.000Z</time>
      </trkpt>
      <trkpt lat="47.96048" lon="6.92142">
        <ele>1148</ele>
        <time>2025-06-08T13:49:16.000Z</time>
      </trkpt>
      <trkpt lat="47.96051" lon="6.92148">
        <ele>1149</ele>
        <time>2025-06-08T13:49:20.000Z</time>
      </trkpt>
      <trkpt lat="47.96046" lon="6.92155">
        <ele>1150</ele>
        <time>2025-06-08T13:49:25.000Z</time>
      </trkpt>
      <trkpt lat="47.96042" lon="6.92166">
        <ele>1154</ele>
        <time>2025-06-08T13:49:38.000Z</time>
      </trkpt>
      <trkpt lat="47.96042" lon="6.92172">
        <ele>1155</ele>
        <time>2025-06-08T13:49:41.000Z</time>
      </trkpt>
      <trkpt lat="47.96043" lon="6.92181">
        <ele>1157</ele>
        <time>2025-06-08T13:49:51.000Z</time>
      </trkpt>
      <trkpt lat="47.96036" lon="6.92175">
        <ele>1157</ele>
        <time>2025-06-08T14:22:09.000Z</time>
      </trkpt>
      <trkpt lat="47.96037" lon="6.92176">
        <ele>1157</ele>
        <time>2025-06-08T14:22:10.000Z</time>
      </trkpt>
      <trkpt lat="47.96026" lon="6.92166">
        <ele>1157</ele>
        <time>2025-06-08T14:22:27.000Z</time>
      </trkpt>
      <trkpt lat="47.9602" lon="6.9217">
        <ele>1156</ele>
        <time>2025-06-08T14:22:35.000Z</time>
      </trkpt>
      <trkpt lat="47.9602" lon="6.92179">
        <ele>1159</ele>
        <time>2025-06-08T14:22:46.000Z</time>
      </trkpt>
      <trkpt lat="47.96018" lon="6.92186">
        <ele>1160</ele>
        <time>2025-06-08T14:22:50.000Z</time>
      </trkpt>
      <trkpt lat="47.96013" lon="6.92188">
        <ele>1161</ele>
        <time>2025-06-08T14:22:55.000Z</time>
      </trkpt>
      <trkpt lat="47.96009" lon="6.92203">
        <ele>1163</ele>
        <time>2025-06-08T14:23:11.000Z</time>
      </trkpt>
      <trkpt lat="47.96007" lon="6.92217">
        <ele>1166</ele>
        <time>2025-06-08T14:23:23.000Z</time>
      </trkpt>
      <trkpt lat="47.95997" lon="6.92249">
        <ele>1172</ele>
        <time>2025-06-08T14:23:53.000Z</time>
      </trkpt>
      <trkpt lat="47.95988" lon="6.92292">
        <ele>1179</ele>
        <time>2025-06-08T14:24:27.000Z</time>
      </trkpt>
      <trkpt lat="47.95979" lon="6.92336">
        <ele>1184</ele>
        <time>2025-06-08T14:25:00.000Z</time>
      </trkpt>
      <trkpt lat="47.95976" lon="6.92352">
        <ele>1187</ele>
        <time>2025-06-08T14:25:12.000Z</time>
      </trkpt>
      <trkpt lat="47.95972" lon="6.92363">
        <ele>1189</ele>
        <time>2025-06-08T14:25:21.000Z</time>
      </trkpt>
      <trkpt lat="47.95971" lon="6.9237">
        <ele>1190</ele>
        <time>2025-06-08T14:25:25.000Z</time>
      </trkpt>
      <trkpt lat="47.95971" lon="6.92377">
        <ele>1190</ele>
        <time>2025-06-08T14:25:30.000Z</time>
      </trkpt>
      <trkpt lat="47.95966" lon="6.9242">
        <ele>1196</ele>
        <time>2025-06-08T14:25:59.000Z</time>
      </trkpt>
      <trkpt lat="47.95964" lon="6.92431">
        <ele>1197</ele>
        <time>2025-06-08T14:26:07.000Z</time>
      </trkpt>
      <trkpt lat="47.9596" lon="6.92437">
        <ele>1198</ele>
        <time>2025-06-08T14:26:11.000Z</time>
      </trkpt>
      <trkpt lat="47.95958" lon="6.92451">
        <ele>1199</ele>
        <time>2025-06-08T14:26:21.000Z</time>
      </trkpt>
      <trkpt lat="47.95956" lon="6.92464">
        <ele>1199</ele>
        <time>2025-06-08T14:26:29.000Z</time>
      </trkpt>
      <trkpt lat="47.95948" lon="6.92514">
        <ele>1203</ele>
        <time>2025-06-08T14:27:00.000Z</time>
      </trkpt>
      <trkpt lat="47.95948" lon="6.92521">
        <ele>1203</ele>
        <time>2025-06-08T14:27:04.000Z</time>
      </trkpt>
      <trkpt lat="47.95947" lon="6.92528">
        <ele>1204</ele>
        <time>2025-06-08T14:27:08.000Z</time>
      </trkpt>
      <trkpt lat="47.95947" lon="6.92538">
        <ele>1203</ele>
        <time>2025-06-08T14:27:15.000Z</time>
      </trkpt>
      <trkpt lat="47.95947" lon="6.92554">
        <ele>1203</ele>
        <time>2025-06-08T14:27:26.000Z</time>
      </trkpt>
      <trkpt lat="47.95947" lon="6.92561">
        <ele>1203</ele>
        <time>2025-06-08T14:27:32.000Z</time>
      </trkpt>
      <trkpt lat="47.95949" lon="6.92555">
        <ele>1202</ele>
        <time>2025-06-08T14:28:53.000Z</time>
      </trkpt>
      <trkpt lat="47.95955" lon="6.92552">
        <ele>1202</ele>
        <time>2025-06-08T14:28:58.000Z</time>
      </trkpt>
      <trkpt lat="47.95959" lon="6.92551">
        <ele>1202</ele>
        <time>2025-06-08T14:29:02.000Z</time>
      </trkpt>
      <trkpt lat="47.95964" lon="6.92551">
        <ele>1202</ele>
        <time>2025-06-08T14:29:06.000Z</time>
      </trkpt>
      <trkpt lat="47.95969" lon="6.92551">
        <ele>1202</ele>
        <time>2025-06-08T14:29:10.000Z</time>
      </trkpt>
      <trkpt lat="47.96001" lon="6.9255">
        <ele>1200</ele>
        <time>2025-06-08T14:29:33.000Z</time>
      </trkpt>
      <trkpt lat="47.96033" lon="6.9257">
        <ele>1196</ele>
        <time>2025-06-08T14:30:09.000Z</time>
      </trkpt>
      <trkpt lat="47.96038" lon="6.92572">
        <ele>1194</ele>
        <time>2025-06-08T14:30:14.000Z</time>
      </trkpt>
      <trkpt lat="47.9605" lon="6.92574">
        <ele>1191</ele>
        <time>2025-06-08T14:30:30.000Z</time>
      </trkpt>
      <trkpt lat="47.96054" lon="6.92576">
        <ele>1189</ele>
        <time>2025-06-08T14:30:38.000Z</time>
      </trkpt>
      <trkpt lat="47.96075" lon="6.92607">
        <ele>1184</ele>
        <time>2025-06-08T14:31:09.000Z</time>
      </trkpt>
      <trkpt lat="47.96087" lon="6.92628">
        <ele>1181</ele>
        <time>2025-06-08T14:31:25.000Z</time>
      </trkpt>
      <trkpt lat="47.96093" lon="6.92645">
        <ele>1180</ele>
        <time>2025-06-08T14:31:36.000Z</time>
      </trkpt>
      <trkpt lat="47.96096" lon="6.92653">
        <ele>1178</ele>
        <time>2025-06-08T14:31:43.000Z</time>
      </trkpt>
      <trkpt lat="47.96109" lon="6.92677">
        <ele>1175</ele>
        <time>2025-06-08T14:32:08.000Z</time>
      </trkpt>
      <trkpt lat="47.9612" lon="6.92691">
        <ele>1172</ele>
        <time>2025-06-08T14:32:20.000Z</time>
      </trkpt>
      <trkpt lat="47.96135" lon="6.92727">
        <ele>1169</ele>
        <time>2025-06-08T14:32:52.000Z</time>
      </trkpt>
      <trkpt lat="47.96142" lon="6.92739">
        <ele>1169</ele>
        <time>2025-06-08T14:32:58.000Z</time>
      </trkpt>
      <trkpt lat="47.96158" lon="6.92768">
        <ele>1166</ele>
        <time>2025-06-08T14:33:17.000Z</time>
      </trkpt>
      <trkpt lat="47.96167" lon="6.92791">
        <ele>1166</ele>
        <time>2025-06-08T14:33:30.000Z</time>
      </trkpt>
      <trkpt lat="47.96171" lon="6.92797">
        <ele>1166</ele>
        <time>2025-06-08T14:33:34.000Z</time>
      </trkpt>
      <trkpt lat="47.96174" lon="6.92803">
        <ele>1166</ele>
        <time>2025-06-08T14:33:38.000Z</time>
      </trkpt>
      <trkpt lat="47.96177" lon="6.92809">
        <ele>1166</ele>
        <time>2025-06-08T14:33:42.000Z</time>
      </trkpt>
      <trkpt lat="47.96188" lon="6.92821">
        <ele>1163</ele>
        <time>2025-06-08T14:33:57.000Z</time>
      </trkpt>
      <trkpt lat="47.96193" lon="6.92824">
        <ele>1162</ele>
        <time>2025-06-08T14:34:01.000Z</time>
      </trkpt>
      <trkpt lat="47.96223" lon="6.92819">
        <ele>1156</ele>
        <time>2025-06-08T14:34:33.000Z</time>
      </trkpt>
      <trkpt lat="47.96237" lon="6.92823">
        <ele>1153</ele>
        <time>2025-06-08T14:34:47.000Z</time>
      </trkpt>
      <trkpt lat="47.96249" lon="6.92821">
        <ele>1150</ele>
        <time>2025-06-08T14:35:03.000Z</time>
      </trkpt>
      <trkpt lat="47.96275" lon="6.92817">
        <ele>1142</ele>
        <time>2025-06-08T14:35:32.000Z</time>
      </trkpt>
      <trkpt lat="47.96283" lon="6.92815">
        <ele>1139</ele>
        <time>2025-06-08T14:35:39.000Z</time>
      </trkpt>
      <trkpt lat="47.9629" lon="6.92808">
        <ele>1138</ele>
        <time>2025-06-08T14:35:47.000Z</time>
      </trkpt>
      <trkpt lat="47.96294" lon="6.92805">
        <ele>1138</ele>
        <time>2025-06-08T14:35:51.000Z</time>
      </trkpt>
      <trkpt lat="47.96299" lon="6.92806">
        <ele>1138</ele>
        <time>2025-06-08T14:35:55.000Z</time>
      </trkpt>
      <trkpt lat="47.96304" lon="6.9281">
        <ele>1138</ele>
        <time>2025-06-08T14:35:59.000Z</time>
      </trkpt>
      <trkpt lat="47.96311" lon="6.92811">
        <ele>1137</ele>
        <time>2025-06-08T14:36:06.000Z</time>
      </trkpt>
      <trkpt lat="47.96316" lon="6.92811">
        <ele>1137</ele>
        <time>2025-06-08T14:36:10.000Z</time>
      </trkpt>
      <trkpt lat="47.9632" lon="6.92812">
        <ele>1137</ele>
        <time>2025-06-08T14:36:13.000Z</time>
      </trkpt>
      <trkpt lat="47.96361" lon="6.92826">
        <ele>1132</ele>
        <time>2025-06-08T14:36:48.000Z</time>
      </trkpt>
      <trkpt lat="47.96378" lon="6.92831">
        <ele>1129</ele>
        <time>2025-06-08T14:37:04.000Z</time>
      </trkpt>
      <trkpt lat="47.96384" lon="6.92833">
        <ele>1129</ele>
        <time>2025-06-08T14:37:09.000Z</time>
      </trkpt>
      <trkpt lat="47.96418" lon="6.92838">
        <ele>1124</ele>
        <time>2025-06-08T14:37:41.000Z</time>
      </trkpt>
      <trkpt lat="47.96423" lon="6.92839">
        <ele>1124</ele>
        <time>2025-06-08T14:37:44.000Z</time>
      </trkpt>
      <trkpt lat="47.96428" lon="6.92839">
        <ele>1123</ele>
        <time>2025-06-08T14:37:48.000Z</time>
      </trkpt>
      <trkpt lat="47.96433" lon="6.9284">
        <ele>1123</ele>
        <time>2025-06-08T14:37:52.000Z</time>
      </trkpt>
      <trkpt lat="47.96438" lon="6.92839">
        <ele>1122</ele>
        <time>2025-06-08T14:37:57.000Z</time>
      </trkpt>
      <trkpt lat="47.96451" lon="6.9284">
        <ele>1120</ele>
        <time>2025-06-08T14:38:09.000Z</time>
      </trkpt>
      <trkpt lat="47.96456" lon="6.92839">
        <ele>1120</ele>
        <time>2025-06-08T14:38:13.000Z</time>
      </trkpt>
      <trkpt lat="47.96467" lon="6.92839">
        <ele>1119</ele>
        <time>2025-06-08T14:38:21.000Z</time>
      </trkpt>
      <trkpt lat="47.96471" lon="6.92839">
        <ele>1120</ele>
        <time>2025-06-08T14:38:24.000Z</time>
      </trkpt>
      <trkpt lat="47.96486" lon="6.92839">
        <ele>1119</ele>
        <time>2025-06-08T14:38:36.000Z</time>
      </trkpt>
      <trkpt lat="47.96495" lon="6.92838">
        <ele>1119</ele>
        <time>2025-06-08T14:38:42.000Z</time>
      </trkpt>
      <trkpt lat="47.96506" lon="6.92837">
        <ele>1118</ele>
        <time>2025-06-08T14:38:49.000Z</time>
      </trkpt>
      <trkpt lat="47.96527" lon="6.92835">
        <ele>1119</ele>
        <time>2025-06-08T14:39:07.000Z</time>
      </trkpt>
      <trkpt lat="47.96532" lon="6.92835">
        <ele>1117</ele>
        <time>2025-06-08T14:39:11.000Z</time>
      </trkpt>
      <trkpt lat="47.96536" lon="6.92835">
        <ele>1118</ele>
        <time>2025-06-08T14:39:14.000Z</time>
      </trkpt>
      <trkpt lat="47.9654" lon="6.92836">
        <ele>1118</ele>
        <time>2025-06-08T14:39:19.000Z</time>
      </trkpt>
      <trkpt lat="47.96556" lon="6.92842">
        <ele>1117</ele>
        <time>2025-06-08T14:39:32.000Z</time>
      </trkpt>
      <trkpt lat="47.9657" lon="6.9285">
        <ele>1117</ele>
        <time>2025-06-08T14:39:44.000Z</time>
      </trkpt>
      <trkpt lat="47.96588" lon="6.92865">
        <ele>1117</ele>
        <time>2025-06-08T14:39:59.000Z</time>
      </trkpt>
      <trkpt lat="47.96591" lon="6.92866">
        <ele>1119</ele>
        <time>2025-06-08T14:40:08.000Z</time>
      </trkpt>
      <trkpt lat="47.966" lon="6.92872">
        <ele>1121</ele>
        <time>2025-06-08T14:40:18.000Z</time>
      </trkpt>
      <trkpt lat="47.96608" lon="6.92877">
        <ele>1121</ele>
        <time>2025-06-08T14:40:29.000Z</time>
      </trkpt>
      <trkpt lat="47.96621" lon="6.92887">
        <ele>1128</ele>
        <time>2025-06-08T14:41:02.000Z</time>
      </trkpt>
      <trkpt lat="47.96627" lon="6.92889">
        <ele>1130</ele>
        <time>2025-06-08T14:41:14.000Z</time>
      </trkpt>
      <trkpt lat="47.96633" lon="6.92892">
        <ele>1129</ele>
        <time>2025-06-08T14:41:20.000Z</time>
      </trkpt>
      <trkpt lat="47.96642" lon="6.92899">
        <ele>1131</ele>
        <time>2025-06-08T14:41:34.000Z</time>
      </trkpt>
      <trkpt lat="47.96646" lon="6.92903">
        <ele>1131</ele>
        <time>2025-06-08T14:41:39.000Z</time>
      </trkpt>
      <trkpt lat="47.96651" lon="6.92907">
        <ele>1131</ele>
        <time>2025-06-08T14:41:43.000Z</time>
      </trkpt>
      <trkpt lat="47.96678" lon="6.92932">
        <ele>1124</ele>
        <time>2025-06-08T14:42:14.000Z</time>
      </trkpt>
      <trkpt lat="47.96702" lon="6.92953">
        <ele>1116</ele>
        <time>2025-06-08T14:42:52.000Z</time>
      </trkpt>
      <trkpt lat="47.96717" lon="6.92973">
        <ele>1112</ele>
        <time>2025-06-08T14:43:13.000Z</time>
      </trkpt>
      <trkpt lat="47.96729" lon="6.9301">
        <ele>1104</ele>
        <time>2025-06-08T14:43:47.000Z</time>
      </trkpt>
      <trkpt lat="47.96732" lon="6.93019">
        <ele>1103</ele>
        <time>2025-06-08T14:43:54.000Z</time>
      </trkpt>
      <trkpt lat="47.96737" lon="6.93025">
        <ele>1102</ele>
        <time>2025-06-08T14:43:59.000Z</time>
      </trkpt>
      <trkpt lat="47.96741" lon="6.93022">
        <ele>1100</ele>
        <time>2025-06-08T14:44:12.000Z</time>
      </trkpt>
      <trkpt lat="47.96743" lon="6.93015">
        <ele>1099</ele>
        <time>2025-06-08T14:44:17.000Z</time>
      </trkpt>
      <trkpt lat="47.96745" lon="6.93009">
        <ele>1100</ele>
        <time>2025-06-08T14:44:21.000Z</time>
      </trkpt>
      <trkpt lat="47.96748" lon="6.93002">
        <ele>1099</ele>
        <time>2025-06-08T14:44:25.000Z</time>
      </trkpt>
      <trkpt lat="47.96753" lon="6.92995">
        <ele>1098</ele>
        <time>2025-06-08T14:44:34.000Z</time>
      </trkpt>
      <trkpt lat="47.96761" lon="6.92988">
        <ele>1097</ele>
        <time>2025-06-08T14:44:46.000Z</time>
      </trkpt>
      <trkpt lat="47.96766" lon="6.92987">
        <ele>1095</ele>
        <time>2025-06-08T14:44:52.000Z</time>
      </trkpt>
      <trkpt lat="47.96771" lon="6.92991">
        <ele>1094</ele>
        <time>2025-06-08T14:44:56.000Z</time>
      </trkpt>
      <trkpt lat="47.96776" lon="6.93002">
        <ele>1094</ele>
        <time>2025-06-08T14:45:03.000Z</time>
      </trkpt>
      <trkpt lat="47.96784" lon="6.93035">
        <ele>1090</ele>
        <time>2025-06-08T14:45:25.000Z</time>
      </trkpt>
      <trkpt lat="47.96784" lon="6.93028">
        <ele>1086</ele>
        <time>2025-06-08T14:45:39.000Z</time>
      </trkpt>
      <trkpt lat="47.96797" lon="6.93017">
        <ele>1085</ele>
        <time>2025-06-08T14:45:50.000Z</time>
      </trkpt>
      <trkpt lat="47.96803" lon="6.93026">
        <ele>1083</ele>
        <time>2025-06-08T14:45:57.000Z</time>
      </trkpt>
      <trkpt lat="47.96802" lon="6.93033">
        <ele>1083</ele>
        <time>2025-06-08T14:46:00.000Z</time>
      </trkpt>
      <trkpt lat="47.96794" lon="6.93075">
        <ele>1080</ele>
        <time>2025-06-08T14:46:22.000Z</time>
      </trkpt>
      <trkpt lat="47.968" lon="6.93066">
        <ele>1079</ele>
        <time>2025-06-08T14:46:34.000Z</time>
      </trkpt>
      <trkpt lat="47.96804" lon="6.93062">
        <ele>1078</ele>
        <time>2025-06-08T14:46:39.000Z</time>
      </trkpt>
      <trkpt lat="47.96818" lon="6.93063">
        <ele>1074</ele>
        <time>2025-06-08T14:46:53.000Z</time>
      </trkpt>
      <trkpt lat="47.96832" lon="6.93058">
        <ele>1071</ele>
        <time>2025-06-08T14:47:08.000Z</time>
      </trkpt>
      <trkpt lat="47.96837" lon="6.93059">
        <ele>1070</ele>
        <time>2025-06-08T14:47:15.000Z</time>
      </trkpt>
      <trkpt lat="47.96841" lon="6.93057">
        <ele>1070</ele>
        <time>2025-06-08T14:47:17.000Z</time>
      </trkpt>
      <trkpt lat="47.96852" lon="6.93045">
        <ele>1069</ele>
        <time>2025-06-08T14:47:34.000Z</time>
      </trkpt>
      <trkpt lat="47.96857" lon="6.9304">
        <ele>1069</ele>
        <time>2025-06-08T14:47:42.000Z</time>
      </trkpt>
      <trkpt lat="47.96872" lon="6.93019">
        <ele>1067</ele>
        <time>2025-06-08T14:48:00.000Z</time>
      </trkpt>
      <trkpt lat="47.96876" lon="6.93009">
        <ele>1065</ele>
        <time>2025-06-08T14:48:13.000Z</time>
      </trkpt>
      <trkpt lat="47.96878" lon="6.93003">
        <ele>1065</ele>
        <time>2025-06-08T14:48:17.000Z</time>
      </trkpt>
      <trkpt lat="47.96884" lon="6.93002">
        <ele>1065</ele>
        <time>2025-06-08T14:48:20.000Z</time>
      </trkpt>
      <trkpt lat="47.9689" lon="6.93015">
        <ele>1065</ele>
        <time>2025-06-08T14:48:27.000Z</time>
      </trkpt>
      <trkpt lat="47.96917" lon="6.93044">
        <ele>1063</ele>
        <time>2025-06-08T14:48:58.000Z</time>
      </trkpt>
      <trkpt lat="47.96922" lon="6.93052">
        <ele>1062</ele>
        <time>2025-06-08T14:49:06.000Z</time>
      </trkpt>
      <trkpt lat="47.96929" lon="6.93064">
        <ele>1062</ele>
        <time>2025-06-08T14:49:17.000Z</time>
      </trkpt>
      <trkpt lat="47.96936" lon="6.93078">
        <ele>1061</ele>
        <time>2025-06-08T14:49:32.000Z</time>
      </trkpt>
      <trkpt lat="47.96954" lon="6.93133">
        <ele>1061</ele>
        <time>2025-06-08T14:50:04.000Z</time>
      </trkpt>
      <trkpt lat="47.96958" lon="6.93145">
        <ele>1059</ele>
        <time>2025-06-08T14:50:15.000Z</time>
      </trkpt>
      <trkpt lat="47.96964" lon="6.93158">
        <ele>1058</ele>
        <time>2025-06-08T14:50:21.000Z</time>
      </trkpt>
      <trkpt lat="47.96971" lon="6.93167">
        <ele>1058</ele>
        <time>2025-06-08T14:50:29.000Z</time>
      </trkpt>
      <trkpt lat="47.96976" lon="6.93171">
        <ele>1057</ele>
        <time>2025-06-08T14:50:33.000Z</time>
      </trkpt>
      <trkpt lat="47.96982" lon="6.93171">
        <ele>1058</ele>
        <time>2025-06-08T14:50:41.000Z</time>
      </trkpt>
      <trkpt lat="47.9699" lon="6.93171">
        <ele>1057</ele>
        <time>2025-06-08T14:50:48.000Z</time>
      </trkpt>
      <trkpt lat="47.97012" lon="6.93166">
        <ele>1053</ele>
        <time>2025-06-08T14:51:06.000Z</time>
      </trkpt>
      <trkpt lat="47.97016" lon="6.93163">
        <ele>1052</ele>
        <time>2025-06-08T14:51:09.000Z</time>
      </trkpt>
      <trkpt lat="47.97026" lon="6.9316">
        <ele>1051</ele>
        <time>2025-06-08T14:51:17.000Z</time>
      </trkpt>
      <trkpt lat="47.97032" lon="6.93159">
        <ele>1051</ele>
        <time>2025-06-08T14:51:21.000Z</time>
      </trkpt>
      <trkpt lat="47.97036" lon="6.93156">
        <ele>1051</ele>
        <time>2025-06-08T14:51:25.000Z</time>
      </trkpt>
      <trkpt lat="47.97043" lon="6.93155">
        <ele>1050</ele>
        <time>2025-06-08T14:51:28.000Z</time>
      </trkpt>
      <trkpt lat="47.97052" lon="6.93154">
        <ele>1048</ele>
        <time>2025-06-08T14:51:37.000Z</time>
      </trkpt>
      <trkpt lat="47.97063" lon="6.93155">
        <ele>1048</ele>
        <time>2025-06-08T14:51:43.000Z</time>
      </trkpt>
      <trkpt lat="47.97077" lon="6.9316">
        <ele>1048</ele>
        <time>2025-06-08T14:51:54.000Z</time>
      </trkpt>
      <trkpt lat="47.97081" lon="6.93162">
        <ele>1048</ele>
        <time>2025-06-08T14:51:58.000Z</time>
      </trkpt>
      <trkpt lat="47.97094" lon="6.93174">
        <ele>1043</ele>
        <time>2025-06-08T14:52:10.000Z</time>
      </trkpt>
      <trkpt lat="47.9711" lon="6.93194">
        <ele>1038</ele>
        <time>2025-06-08T14:52:27.000Z</time>
      </trkpt>
      <trkpt lat="47.97112" lon="6.93202">
        <ele>1037</ele>
        <time>2025-06-08T14:52:34.000Z</time>
      </trkpt>
      <trkpt lat="47.97115" lon="6.93206">
        <ele>1035</ele>
        <time>2025-06-08T14:52:38.000Z</time>
      </trkpt>
      <trkpt lat="47.97124" lon="6.93227">
        <ele>1033</ele>
        <time>2025-06-08T14:52:53.000Z</time>
      </trkpt>
      <trkpt lat="47.97129" lon="6.93245">
        <ele>1032</ele>
        <time>2025-06-08T14:53:02.000Z</time>
      </trkpt>
      <trkpt lat="47.97141" lon="6.93295">
        <ele>1026</ele>
        <time>2025-06-08T14:53:35.000Z</time>
      </trkpt>
      <trkpt lat="47.97142" lon="6.93302">
        <ele>1026</ele>
        <time>2025-06-08T14:53:40.000Z</time>
      </trkpt>
      <trkpt lat="47.97145" lon="6.93326">
        <ele>1022</ele>
        <time>2025-06-08T14:53:55.000Z</time>
      </trkpt>
      <trkpt lat="47.97151" lon="6.9338">
        <ele>1018</ele>
        <time>2025-06-08T14:54:23.000Z</time>
      </trkpt>
      <trkpt lat="47.97153" lon="6.93348">
        <ele>1015</ele>
        <time>2025-06-08T14:54:43.000Z</time>
      </trkpt>
      <trkpt lat="47.97157" lon="6.93344">
        <ele>1014</ele>
        <time>2025-06-08T14:54:46.000Z</time>
      </trkpt>
      <trkpt lat="47.97159" lon="6.93335">
        <ele>1014</ele>
        <time>2025-06-08T14:54:50.000Z</time>
      </trkpt>
      <trkpt lat="47.97159" lon="6.93279">
        <ele>1012</ele>
        <time>2025-06-08T14:55:20.000Z</time>
      </trkpt>
      <trkpt lat="47.97163" lon="6.93265">
        <ele>1012</ele>
        <time>2025-06-08T14:55:28.000Z</time>
      </trkpt>
      <trkpt lat="47.97168" lon="6.93253">
        <ele>1012</ele>
        <time>2025-06-08T14:55:36.000Z</time>
      </trkpt>
      <trkpt lat="47.97171" lon="6.93247">
        <ele>1011</ele>
        <time>2025-06-08T14:55:41.000Z</time>
      </trkpt>
      <trkpt lat="47.97179" lon="6.93238">
        <ele>1009</ele>
        <time>2025-06-08T14:55:55.000Z</time>
      </trkpt>
      <trkpt lat="47.97187" lon="6.93235">
        <ele>1009</ele>
        <time>2025-06-08T14:56:04.000Z</time>
      </trkpt>
      <trkpt lat="47.97193" lon="6.93236">
        <ele>1008</ele>
        <time>2025-06-08T14:56:11.000Z</time>
      </trkpt>
      <trkpt lat="47.97206" lon="6.93243">
        <ele>1008</ele>
        <time>2025-06-08T14:56:24.000Z</time>
      </trkpt>
      <trkpt lat="47.97212" lon="6.93245">
        <ele>1007</ele>
        <time>2025-06-08T14:56:32.000Z</time>
      </trkpt>
      <trkpt lat="47.97221" lon="6.93247">
        <ele>1006</ele>
        <time>2025-06-08T14:56:38.000Z</time>
      </trkpt>
      <trkpt lat="47.97227" lon="6.93245">
        <ele>1006</ele>
        <time>2025-06-08T14:56:41.000Z</time>
      </trkpt>
      <trkpt lat="47.97235" lon="6.93237">
        <ele>1006</ele>
        <time>2025-06-08T14:56:47.000Z</time>
      </trkpt>
      <trkpt lat="47.97239" lon="6.93232">
        <ele>1006</ele>
        <time>2025-06-08T14:56:50.000Z</time>
      </trkpt>
      <trkpt lat="47.97247" lon="6.93224">
        <ele>1007</ele>
        <time>2025-06-08T14:56:58.000Z</time>
      </trkpt>
      <trkpt lat="47.97252" lon="6.93223">
        <ele>1008</ele>
        <time>2025-06-08T14:57:05.000Z</time>
      </trkpt>
      <trkpt lat="47.97285" lon="6.93236">
        <ele>1011</ele>
        <time>2025-06-08T14:57:37.000Z</time>
      </trkpt>
      <trkpt lat="47.97295" lon="6.93235">
        <ele>1011</ele>
        <time>2025-06-08T14:57:45.000Z</time>
      </trkpt>
      <trkpt lat="47.97299" lon="6.93233">
        <ele>1012</ele>
        <time>2025-06-08T14:57:48.000Z</time>
      </trkpt>
      <trkpt lat="47.97307" lon="6.9322">
        <ele>1014</ele>
        <time>2025-06-08T14:57:59.000Z</time>
      </trkpt>
      <trkpt lat="47.9732" lon="6.93202">
        <ele>1014</ele>
        <time>2025-06-08T14:58:13.000Z</time>
      </trkpt>
      <trkpt lat="47.97328" lon="6.93193">
        <ele>1014</ele>
        <time>2025-06-08T14:58:22.000Z</time>
      </trkpt>
      <trkpt lat="47.97335" lon="6.93185">
        <ele>1014</ele>
        <time>2025-06-08T14:58:28.000Z</time>
      </trkpt>
      <trkpt lat="47.97337" lon="6.93191">
        <ele>1014</ele>
        <time>2025-06-08T14:58:33.000Z</time>
      </trkpt>
      <trkpt lat="47.97344" lon="6.93206">
        <ele>1014</ele>
        <time>2025-06-08T14:58:37.000Z</time>
      </trkpt>
      <trkpt lat="47.97354" lon="6.9322">
        <ele>1015</ele>
        <time>2025-06-08T14:58:45.000Z</time>
      </trkpt>
      <trkpt lat="47.97358" lon="6.93227">
        <ele>1014</ele>
        <time>2025-06-08T14:58:49.000Z</time>
      </trkpt>
      <trkpt lat="47.97363" lon="6.93238">
        <ele>1015</ele>
        <time>2025-06-08T14:58:56.000Z</time>
      </trkpt>
      <trkpt lat="47.9737" lon="6.93251">
        <ele>1014</ele>
        <time>2025-06-08T14:59:04.000Z</time>
      </trkpt>
      <trkpt lat="47.9738" lon="6.93279">
        <ele>1014</ele>
        <time>2025-06-08T14:59:20.000Z</time>
      </trkpt>
      <trkpt lat="47.97385" lon="6.93285">
        <ele>1013</ele>
        <time>2025-06-08T14:59:24.000Z</time>
      </trkpt>
      <trkpt lat="47.9739" lon="6.93288">
        <ele>1014</ele>
        <time>2025-06-08T14:59:28.000Z</time>
      </trkpt>
      <trkpt lat="47.97424" lon="6.93308">
        <ele>1012</ele>
        <time>2025-06-08T14:59:58.000Z</time>
      </trkpt>
      <trkpt lat="47.97436" lon="6.93323">
        <ele>1010</ele>
        <time>2025-06-08T15:00:09.000Z</time>
      </trkpt>
      <trkpt lat="47.9744" lon="6.93334">
        <ele>1010</ele>
        <time>2025-06-08T15:00:16.000Z</time>
      </trkpt>
      <trkpt lat="47.97447" lon="6.93353">
        <ele>1010</ele>
        <time>2025-06-08T15:00:26.000Z</time>
      </trkpt>
      <trkpt lat="47.97453" lon="6.93365">
        <ele>1010</ele>
        <time>2025-06-08T15:00:33.000Z</time>
      </trkpt>
      <trkpt lat="47.97457" lon="6.9338">
        <ele>1009</ele>
        <time>2025-06-08T15:00:41.000Z</time>
      </trkpt>
      <trkpt lat="47.97458" lon="6.93387">
        <ele>1009</ele>
        <time>2025-06-08T15:00:45.000Z</time>
      </trkpt>
      <trkpt lat="47.97463" lon="6.93391">
        <ele>1009</ele>
        <time>2025-06-08T15:00:49.000Z</time>
      </trkpt>
      <trkpt lat="47.97469" lon="6.93404">
        <ele>1009</ele>
        <time>2025-06-08T15:00:57.000Z</time>
      </trkpt>
      <trkpt lat="47.97474" lon="6.9341">
        <ele>1008</ele>
        <time>2025-06-08T15:01:02.000Z</time>
      </trkpt>
      <trkpt lat="47.97477" lon="6.93413">
        <ele>1008</ele>
        <time>2025-06-08T15:01:05.000Z</time>
      </trkpt>
      <trkpt lat="47.97481" lon="6.93418">
        <ele>1008</ele>
        <time>2025-06-08T15:01:09.000Z</time>
      </trkpt>
      <trkpt lat="47.97485" lon="6.93423">
        <ele>1008</ele>
        <time>2025-06-08T15:01:13.000Z</time>
      </trkpt>
      <trkpt lat="47.97489" lon="6.93425">
        <ele>1008</ele>
        <time>2025-06-08T15:01:16.000Z</time>
      </trkpt>
      <trkpt lat="47.97497" lon="6.93435">
        <ele>1008</ele>
        <time>2025-06-08T15:01:24.000Z</time>
      </trkpt>
      <trkpt lat="47.97504" lon="6.93447">
        <ele>1009</ele>
        <time>2025-06-08T15:01:32.000Z</time>
      </trkpt>
      <trkpt lat="47.97514" lon="6.93462">
        <ele>1009</ele>
        <time>2025-06-08T15:01:44.000Z</time>
      </trkpt>
      <trkpt lat="47.97519" lon="6.93466">
        <ele>1008</ele>
        <time>2025-06-08T15:01:49.000Z</time>
      </trkpt>
      <trkpt lat="47.97523" lon="6.93471">
        <ele>1008</ele>
        <time>2025-06-08T15:01:53.000Z</time>
      </trkpt>
      <trkpt lat="47.97527" lon="6.93474">
        <ele>1008</ele>
        <time>2025-06-08T15:01:56.000Z</time>
      </trkpt>
      <trkpt lat="47.97531" lon="6.9348">
        <ele>1007</ele>
        <time>2025-06-08T15:02:02.000Z</time>
      </trkpt>
      <trkpt lat="47.97534" lon="6.93485">
        <ele>1007</ele>
        <time>2025-06-08T15:02:05.000Z</time>
      </trkpt>
      <trkpt lat="47.97542" lon="6.93503">
        <ele>1008</ele>
        <time>2025-06-08T15:02:15.000Z</time>
      </trkpt>
      <trkpt lat="47.97543" lon="6.9351">
        <ele>1009</ele>
        <time>2025-06-08T15:02:19.000Z</time>
      </trkpt>
      <trkpt lat="47.97547" lon="6.93523">
        <ele>1009</ele>
        <time>2025-06-08T15:02:26.000Z</time>
      </trkpt>
      <trkpt lat="47.97548" lon="6.9353">
        <ele>1009</ele>
        <time>2025-06-08T15:02:29.000Z</time>
      </trkpt>
      <trkpt lat="47.9755" lon="6.93535">
        <ele>1009</ele>
        <time>2025-06-08T15:02:32.000Z</time>
      </trkpt>
      <trkpt lat="47.97554" lon="6.93542">
        <ele>1009</ele>
        <time>2025-06-08T15:02:36.000Z</time>
      </trkpt>
      <trkpt lat="47.97556" lon="6.93549">
        <ele>1008</ele>
        <time>2025-06-08T15:02:41.000Z</time>
      </trkpt>
      <trkpt lat="47.97571" lon="6.93555">
        <ele>1009</ele>
        <time>2025-06-08T15:02:52.000Z</time>
      </trkpt>
      <trkpt lat="47.97584" lon="6.9355">
        <ele>1008</ele>
        <time>2025-06-08T15:03:03.000Z</time>
      </trkpt>
      <trkpt lat="47.97587" lon="6.93547">
        <ele>1008</ele>
        <time>2025-06-08T15:03:07.000Z</time>
      </trkpt>
      <trkpt lat="47.97592" lon="6.93546">
        <ele>1007</ele>
        <time>2025-06-08T15:03:10.000Z</time>
      </trkpt>
      <trkpt lat="47.97601" lon="6.93539">
        <ele>1007</ele>
        <time>2025-06-08T15:03:17.000Z</time>
      </trkpt>
      <trkpt lat="47.97603" lon="6.93533">
        <ele>1007</ele>
        <time>2025-06-08T15:03:20.000Z</time>
      </trkpt>
      <trkpt lat="47.97608" lon="6.93529">
        <ele>1006</ele>
        <time>2025-06-08T15:03:25.000Z</time>
      </trkpt>
      <trkpt lat="47.97622" lon="6.93521">
        <ele>1006</ele>
        <time>2025-06-08T15:03:37.000Z</time>
      </trkpt>
      <trkpt lat="47.97626" lon="6.93516">
        <ele>1006</ele>
        <time>2025-06-08T15:03:41.000Z</time>
      </trkpt>
      <trkpt lat="47.97631" lon="6.93512">
        <ele>1006</ele>
        <time>2025-06-08T15:03:45.000Z</time>
      </trkpt>
      <trkpt lat="47.97642" lon="6.93505">
        <ele>1005</ele>
        <time>2025-06-08T15:03:56.000Z</time>
      </trkpt>
      <trkpt lat="47.97647" lon="6.93502">
        <ele>1005</ele>
        <time>2025-06-08T15:04:00.000Z</time>
      </trkpt>
      <trkpt lat="47.97652" lon="6.93502">
        <ele>1005</ele>
        <time>2025-06-08T15:04:04.000Z</time>
      </trkpt>
      <trkpt lat="47.97656" lon="6.93501">
        <ele>1005</ele>
        <time>2025-06-08T15:04:08.000Z</time>
      </trkpt>
      <trkpt lat="47.97661" lon="6.93498">
        <ele>1005</ele>
        <time>2025-06-08T15:04:12.000Z</time>
      </trkpt>
      <trkpt lat="47.97666" lon="6.93493">
        <ele>1005</ele>
        <time>2025-06-08T15:04:17.000Z</time>
      </trkpt>
      <trkpt lat="47.97671" lon="6.93492">
        <ele>1005</ele>
        <time>2025-06-08T15:04:21.000Z</time>
      </trkpt>
      <trkpt lat="47.97675" lon="6.93489">
        <ele>1006</ele>
        <time>2025-06-08T15:04:24.000Z</time>
      </trkpt>
      <trkpt lat="47.97681" lon="6.93486">
        <ele>1006</ele>
        <time>2025-06-08T15:04:29.000Z</time>
      </trkpt>
      <trkpt lat="47.97684" lon="6.93482">
        <ele>1006</ele>
        <time>2025-06-08T15:04:33.000Z</time>
      </trkpt>
      <trkpt lat="47.97689" lon="6.9348">
        <ele>1005</ele>
        <time>2025-06-08T15:04:36.000Z</time>
      </trkpt>
      <trkpt lat="47.97693" lon="6.9348">
        <ele>1005</ele>
        <time>2025-06-08T15:04:39.000Z</time>
      </trkpt>
      <trkpt lat="47.97698" lon="6.93476">
        <ele>1006</ele>
        <time>2025-06-08T15:04:43.000Z</time>
      </trkpt>
      <trkpt lat="47.97703" lon="6.93475">
        <ele>1006</ele>
        <time>2025-06-08T15:04:47.000Z</time>
      </trkpt>
      <trkpt lat="47.97707" lon="6.93469">
        <ele>1006</ele>
        <time>2025-06-08T15:04:51.000Z</time>
      </trkpt>
      <trkpt lat="47.97711" lon="6.93464">
        <ele>1006</ele>
        <time>2025-06-08T15:04:55.000Z</time>
      </trkpt>
      <trkpt lat="47.97719" lon="6.93452">
        <ele>1006</ele>
        <time>2025-06-08T15:05:01.000Z</time>
      </trkpt>
      <trkpt lat="47.97727" lon="6.93445">
        <ele>1006</ele>
        <time>2025-06-08T15:05:09.000Z</time>
      </trkpt>
      <trkpt lat="47.97731" lon="6.93443">
        <ele>1006</ele>
        <time>2025-06-08T15:05:13.000Z</time>
      </trkpt>
      <trkpt lat="47.9774" lon="6.93435">
        <ele>1007</ele>
        <time>2025-06-08T15:05:21.000Z</time>
      </trkpt>
      <trkpt lat="47.97745" lon="6.93433">
        <ele>1007</ele>
        <time>2025-06-08T15:05:25.000Z</time>
      </trkpt>
      <trkpt lat="47.9776" lon="6.93417">
        <ele>1006</ele>
        <time>2025-06-08T15:05:39.000Z</time>
      </trkpt>
      <trkpt lat="47.97773" lon="6.93409">
        <ele>1009</ele>
        <time>2025-06-08T15:05:50.000Z</time>
      </trkpt>
      <trkpt lat="47.97777" lon="6.93407">
        <ele>1009</ele>
        <time>2025-06-08T15:05:54.000Z</time>
      </trkpt>
      <trkpt lat="47.97786" lon="6.93403">
        <ele>1008</ele>
        <time>2025-06-08T15:06:01.000Z</time>
      </trkpt>
      <trkpt lat="47.978" lon="6.93398">
        <ele>1009</ele>
        <time>2025-06-08T15:06:12.000Z</time>
      </trkpt>
      <trkpt lat="47.97805" lon="6.93395">
        <ele>1009</ele>
        <time>2025-06-08T15:06:17.000Z</time>
      </trkpt>
      <trkpt lat="47.97821" lon="6.93395">
        <ele>1009</ele>
        <time>2025-06-08T15:06:29.000Z</time>
      </trkpt>
      <trkpt lat="47.97825" lon="6.93397">
        <ele>1009</ele>
        <time>2025-06-08T15:06:32.000Z</time>
      </trkpt>
      <trkpt lat="47.9783" lon="6.93397">
        <ele>1009</ele>
        <time>2025-06-08T15:06:35.000Z</time>
      </trkpt>
      <trkpt lat="47.97845" lon="6.93395">
        <ele>1010</ele>
        <time>2025-06-08T15:06:47.000Z</time>
      </trkpt>
      <trkpt lat="47.9785" lon="6.93398">
        <ele>1010</ele>
        <time>2025-06-08T15:06:51.000Z</time>
      </trkpt>
      <trkpt lat="47.97869" lon="6.93402">
        <ele>1011</ele>
        <time>2025-06-08T15:07:06.000Z</time>
      </trkpt>
      <trkpt lat="47.97875" lon="6.93407">
        <ele>1011</ele>
        <time>2025-06-08T15:07:11.000Z</time>
      </trkpt>
      <trkpt lat="47.97891" lon="6.9342">
        <ele>1013</ele>
        <time>2025-06-08T15:07:31.000Z</time>
      </trkpt>
      <trkpt lat="47.97896" lon="6.93421">
        <ele>1013</ele>
        <time>2025-06-08T15:07:35.000Z</time>
      </trkpt>
      <trkpt lat="47.97901" lon="6.93426">
        <ele>1015</ele>
        <time>2025-06-08T15:07:43.000Z</time>
      </trkpt>
      <trkpt lat="47.97902" lon="6.93436">
        <ele>1015</ele>
        <time>2025-06-08T15:07:46.000Z</time>
      </trkpt>
      <trkpt lat="47.97917" lon="6.93476">
        <ele>1019</ele>
        <time>2025-06-08T15:08:18.000Z</time>
      </trkpt>
      <trkpt lat="47.97922" lon="6.93492">
        <ele>1022</ele>
        <time>2025-06-08T15:08:33.000Z</time>
      </trkpt>
      <trkpt lat="47.97922" lon="6.93502">
        <ele>1023</ele>
        <time>2025-06-08T15:08:37.000Z</time>
      </trkpt>
      <trkpt lat="47.97926" lon="6.93505">
        <ele>1024</ele>
        <time>2025-06-08T15:08:41.000Z</time>
      </trkpt>
      <trkpt lat="47.97928" lon="6.93513">
        <ele>1024</ele>
        <time>2025-06-08T15:08:46.000Z</time>
      </trkpt>
      <trkpt lat="47.97928" lon="6.9352">
        <ele>1025</ele>
        <time>2025-06-08T15:08:49.000Z</time>
      </trkpt>
      <trkpt lat="47.97927" lon="6.93528">
        <ele>1025</ele>
        <time>2025-06-08T15:08:54.000Z</time>
      </trkpt>
      <trkpt lat="47.97928" lon="6.93534">
        <ele>1025</ele>
        <time>2025-06-08T15:08:57.000Z</time>
      </trkpt>
      <trkpt lat="47.97935" lon="6.93559">
        <ele>1027</ele>
        <time>2025-06-08T15:09:14.000Z</time>
      </trkpt>
      <trkpt lat="47.97938" lon="6.93577">
        <ele>1029</ele>
        <time>2025-06-08T15:09:25.000Z</time>
      </trkpt>
      <trkpt lat="47.97946" lon="6.93604">
        <ele>1032</ele>
        <time>2025-06-08T15:09:44.000Z</time>
      </trkpt>
      <trkpt lat="47.97961" lon="6.93644">
        <ele>1033</ele>
        <time>2025-06-08T15:10:11.000Z</time>
      </trkpt>
      <trkpt lat="47.97966" lon="6.93668">
        <ele>1033</ele>
        <time>2025-06-08T15:10:24.000Z</time>
      </trkpt>
      <trkpt lat="47.97966" lon="6.93691">
        <ele>1033</ele>
        <time>2025-06-08T15:10:37.000Z</time>
      </trkpt>
      <trkpt lat="47.97963" lon="6.93708">
        <ele>1033</ele>
        <time>2025-06-08T15:10:44.000Z</time>
      </trkpt>
      <trkpt lat="47.9796" lon="6.93722">
        <ele>1033</ele>
        <time>2025-06-08T15:10:51.000Z</time>
      </trkpt>
      <trkpt lat="47.97952" lon="6.93756">
        <ele>1037</ele>
        <time>2025-06-08T15:11:16.000Z</time>
      </trkpt>
      <trkpt lat="47.97949" lon="6.93803">
        <ele>1041</ele>
        <time>2025-06-08T15:11:45.000Z</time>
      </trkpt>
      <trkpt lat="47.97952" lon="6.93851">
        <ele>1045</ele>
        <time>2025-06-08T15:12:18.000Z</time>
      </trkpt>
      <trkpt lat="47.97953" lon="6.93867">
        <ele>1047</ele>
        <time>2025-06-08T15:12:32.000Z</time>
      </trkpt>
      <trkpt lat="47.9796" lon="6.93926">
        <ele>1048</ele>
        <time>2025-06-08T15:13:04.000Z</time>
      </trkpt>
      <trkpt lat="47.97971" lon="6.93985">
        <ele>1050</ele>
        <time>2025-06-08T15:13:34.000Z</time>
      </trkpt>
      <trkpt lat="47.97972" lon="6.93991">
        <ele>1050</ele>
        <time>2025-06-08T15:13:37.000Z</time>
      </trkpt>
      <trkpt lat="47.97976" lon="6.94004">
        <ele>1051</ele>
        <time>2025-06-08T15:13:46.000Z</time>
      </trkpt>
      <trkpt lat="47.97978" lon="6.9401">
        <ele>1051</ele>
        <time>2025-06-08T15:13:50.000Z</time>
      </trkpt>
      <trkpt lat="47.9798" lon="6.94016">
        <ele>1050</ele>
        <time>2025-06-08T15:13:57.000Z</time>
      </trkpt>
      <trkpt lat="47.97985" lon="6.94029">
        <ele>1050</ele>
        <time>2025-06-08T15:14:06.000Z</time>
      </trkpt>
      <trkpt lat="47.98001" lon="6.94052">
        <ele>1054</ele>
        <time>2025-06-08T15:14:27.000Z</time>
      </trkpt>
      <trkpt lat="47.98005" lon="6.94056">
        <ele>1054</ele>
        <time>2025-06-08T15:14:32.000Z</time>
      </trkpt>
      <trkpt lat="47.98013" lon="6.9405">
        <ele>1055</ele>
        <time>2025-06-08T15:14:45.000Z</time>
      </trkpt>
      <trkpt lat="47.98028" lon="6.94052">
        <ele>1057</ele>
        <time>2025-06-08T15:14:56.000Z</time>
      </trkpt>
      <trkpt lat="47.98033" lon="6.94049">
        <ele>1057</ele>
        <time>2025-06-08T15:15:01.000Z</time>
      </trkpt>
      <trkpt lat="47.98036" lon="6.94043">
        <ele>1057</ele>
        <time>2025-06-08T15:15:05.000Z</time>
      </trkpt>
      <trkpt lat="47.9805" lon="6.94028">
        <ele>1055</ele>
        <time>2025-06-08T15:15:20.000Z</time>
      </trkpt>
      <trkpt lat="47.9807" lon="6.94009">
        <ele>1054</ele>
        <time>2025-06-08T15:15:37.000Z</time>
      </trkpt>
      <trkpt lat="47.98086" lon="6.94004">
        <ele>1056</ele>
        <time>2025-06-08T15:15:50.000Z</time>
      </trkpt>
      <trkpt lat="47.98097" lon="6.94005">
        <ele>1057</ele>
        <time>2025-06-08T15:16:00.000Z</time>
      </trkpt>
      <trkpt lat="47.98101" lon="6.94007">
        <ele>1057</ele>
        <time>2025-06-08T15:16:04.000Z</time>
      </trkpt>
      <trkpt lat="47.98108" lon="6.9401">
        <ele>1059</ele>
        <time>2025-06-08T15:16:41.000Z</time>
      </trkpt>
      <trkpt lat="47.98141" lon="6.94029">
        <ele>1062</ele>
        <time>2025-06-08T15:17:16.000Z</time>
      </trkpt>
      <trkpt lat="47.98163" lon="6.94046">
        <ele>1067</ele>
        <time>2025-06-08T15:17:42.000Z</time>
      </trkpt>
      <trkpt lat="47.98193" lon="6.94081">
        <ele>1071</ele>
        <time>2025-06-08T15:18:14.000Z</time>
      </trkpt>
      <trkpt lat="47.98198" lon="6.94086">
        <ele>1072</ele>
        <time>2025-06-08T15:18:21.000Z</time>
      </trkpt>
      <trkpt lat="47.98206" lon="6.94092">
        <ele>1073</ele>
        <time>2025-06-08T15:18:28.000Z</time>
      </trkpt>
      <trkpt lat="47.98215" lon="6.941">
        <ele>1074</ele>
        <time>2025-06-08T15:18:36.000Z</time>
      </trkpt>
      <trkpt lat="47.98223" lon="6.94103">
        <ele>1075</ele>
        <time>2025-06-08T15:18:43.000Z</time>
      </trkpt>
      <trkpt lat="47.98228" lon="6.9411">
        <ele>1075</ele>
        <time>2025-06-08T15:18:50.000Z</time>
      </trkpt>
      <trkpt lat="47.98242" lon="6.94117">
        <ele>1077</ele>
        <time>2025-06-08T15:19:02.000Z</time>
      </trkpt>
      <trkpt lat="47.98269" lon="6.94126">
        <ele>1078</ele>
        <time>2025-06-08T15:19:25.000Z</time>
      </trkpt>
      <trkpt lat="47.98282" lon="6.94122">
        <ele>1079</ele>
        <time>2025-06-08T15:19:35.000Z</time>
      </trkpt>
      <trkpt lat="47.98286" lon="6.94122">
        <ele>1079</ele>
        <time>2025-06-08T15:19:38.000Z</time>
      </trkpt>
      <trkpt lat="47.98291" lon="6.94126">
        <ele>1079</ele>
        <time>2025-06-08T15:19:42.000Z</time>
      </trkpt>
      <trkpt lat="47.98301" lon="6.94126">
        <ele>1079</ele>
        <time>2025-06-08T15:19:48.000Z</time>
      </trkpt>
      <trkpt lat="47.98306" lon="6.94128">
        <ele>1079</ele>
        <time>2025-06-08T15:19:52.000Z</time>
      </trkpt>
      <trkpt lat="47.98311" lon="6.94128">
        <ele>1080</ele>
        <time>2025-06-08T15:19:56.000Z</time>
      </trkpt>
      <trkpt lat="47.9832" lon="6.94133">
        <ele>1080</ele>
        <time>2025-06-08T15:20:02.000Z</time>
      </trkpt>
      <trkpt lat="47.98348" lon="6.94138">
        <ele>1083</ele>
        <time>2025-06-08T15:20:26.000Z</time>
      </trkpt>
      <trkpt lat="47.98353" lon="6.94135">
        <ele>1084</ele>
        <time>2025-06-08T15:20:31.000Z</time>
      </trkpt>
      <trkpt lat="47.98358" lon="6.94136">
        <ele>1084</ele>
        <time>2025-06-08T15:20:34.000Z</time>
      </trkpt>
      <trkpt lat="47.98368" lon="6.94139">
        <ele>1084</ele>
        <time>2025-06-08T15:20:41.000Z</time>
      </trkpt>
      <trkpt lat="47.98373" lon="6.94142">
        <ele>1084</ele>
        <time>2025-06-08T15:20:44.000Z</time>
      </trkpt>
      <trkpt lat="47.98377" lon="6.94144">
        <ele>1084</ele>
        <time>2025-06-08T15:20:47.000Z</time>
      </trkpt>
      <trkpt lat="47.98386" lon="6.94152">
        <ele>1085</ele>
        <time>2025-06-08T15:20:54.000Z</time>
      </trkpt>
      <trkpt lat="47.98398" lon="6.94155">
        <ele>1085</ele>
        <time>2025-06-08T15:21:04.000Z</time>
      </trkpt>
      <trkpt lat="47.98409" lon="6.9416">
        <ele>1085</ele>
        <time>2025-06-08T15:21:14.000Z</time>
      </trkpt>
      <trkpt lat="47.98413" lon="6.94164">
        <ele>1086</ele>
        <time>2025-06-08T15:21:17.000Z</time>
      </trkpt>
      <trkpt lat="47.98417" lon="6.94165">
        <ele>1086</ele>
        <time>2025-06-08T15:21:19.000Z</time>
      </trkpt>
      <trkpt lat="47.98422" lon="6.94163">
        <ele>1086</ele>
        <time>2025-06-08T15:21:22.000Z</time>
      </trkpt>
      <trkpt lat="47.98437" lon="6.9417">
        <ele>1086</ele>
        <time>2025-06-08T15:21:34.000Z</time>
      </trkpt>
      <trkpt lat="47.98442" lon="6.94174">
        <ele>1086</ele>
        <time>2025-06-08T15:21:36.000Z</time>
      </trkpt>
      <trkpt lat="47.9845" lon="6.94178">
        <ele>1086</ele>
        <time>2025-06-08T15:21:44.000Z</time>
      </trkpt>
      <trkpt lat="47.98455" lon="6.94181">
        <ele>1086</ele>
        <time>2025-06-08T15:21:49.000Z</time>
      </trkpt>
      <trkpt lat="47.98465" lon="6.94184">
        <ele>1085</ele>
        <time>2025-06-08T15:21:55.000Z</time>
      </trkpt>
      <trkpt lat="47.98469" lon="6.94186">
        <ele>1085</ele>
        <time>2025-06-08T15:21:59.000Z</time>
      </trkpt>
      <trkpt lat="47.98476" lon="6.94195">
        <ele>1085</ele>
        <time>2025-06-08T15:22:05.000Z</time>
      </trkpt>
      <trkpt lat="47.98484" lon="6.94205">
        <ele>1086</ele>
        <time>2025-06-08T15:22:12.000Z</time>
      </trkpt>
      <trkpt lat="47.98497" lon="6.94237">
        <ele>1086</ele>
        <time>2025-06-08T15:22:28.000Z</time>
      </trkpt>
      <trkpt lat="47.98497" lon="6.94244">
        <ele>1086</ele>
        <time>2025-06-08T15:22:32.000Z</time>
      </trkpt>
      <trkpt lat="47.98507" lon="6.94258">
        <ele>1085</ele>
        <time>2025-06-08T15:22:44.000Z</time>
      </trkpt>
      <trkpt lat="47.9851" lon="6.94265">
        <ele>1085</ele>
        <time>2025-06-08T15:22:48.000Z</time>
      </trkpt>
      <trkpt lat="47.98513" lon="6.9427">
        <ele>1085</ele>
        <time>2025-06-08T15:22:52.000Z</time>
      </trkpt>
      <trkpt lat="47.98525" lon="6.94276">
        <ele>1085</ele>
        <time>2025-06-08T15:22:59.000Z</time>
      </trkpt>
      <trkpt lat="47.98533" lon="6.94287">
        <ele>1085</ele>
        <time>2025-06-08T15:23:08.000Z</time>
      </trkpt>
      <trkpt lat="47.98541" lon="6.94295">
        <ele>1085</ele>
        <time>2025-06-08T15:23:16.000Z</time>
      </trkpt>
      <trkpt lat="47.98549" lon="6.94304">
        <ele>1085</ele>
        <time>2025-06-08T15:23:24.000Z</time>
      </trkpt>
      <trkpt lat="47.98552" lon="6.94308">
        <ele>1085</ele>
        <time>2025-06-08T15:23:28.000Z</time>
      </trkpt>
      <trkpt lat="47.98561" lon="6.94318">
        <ele>1084</ele>
        <time>2025-06-08T15:23:37.000Z</time>
      </trkpt>
      <trkpt lat="47.98569" lon="6.94328">
        <ele>1085</ele>
        <time>2025-06-08T15:23:45.000Z</time>
      </trkpt>
      <trkpt lat="47.98573" lon="6.94333">
        <ele>1085</ele>
        <time>2025-06-08T15:23:49.000Z</time>
      </trkpt>
      <trkpt lat="47.98577" lon="6.94335">
        <ele>1085</ele>
        <time>2025-06-08T15:23:52.000Z</time>
      </trkpt>
      <trkpt lat="47.9858" lon="6.94341">
        <ele>1084</ele>
        <time>2025-06-08T15:23:55.000Z</time>
      </trkpt>
      <trkpt lat="47.98584" lon="6.94347">
        <ele>1084</ele>
        <time>2025-06-08T15:23:57.000Z</time>
      </trkpt>
      <trkpt lat="47.98587" lon="6.94352">
        <ele>1084</ele>
        <time>2025-06-08T15:24:01.000Z</time>
      </trkpt>
      <trkpt lat="47.98588" lon="6.9436">
        <ele>1084</ele>
        <time>2025-06-08T15:24:05.000Z</time>
      </trkpt>
      <trkpt lat="47.98592" lon="6.94367">
        <ele>1085</ele>
        <time>2025-06-08T15:24:09.000Z</time>
      </trkpt>
      <trkpt lat="47.98607" lon="6.94383">
        <ele>1086</ele>
        <time>2025-06-08T15:24:22.000Z</time>
      </trkpt>
      <trkpt lat="47.98612" lon="6.94386">
        <ele>1087</ele>
        <time>2025-06-08T15:24:26.000Z</time>
      </trkpt>
      <trkpt lat="47.98623" lon="6.94399">
        <ele>1088</ele>
        <time>2025-06-08T15:24:36.000Z</time>
      </trkpt>
      <trkpt lat="47.98643" lon="6.94422">
        <ele>1090</ele>
        <time>2025-06-08T15:24:58.000Z</time>
      </trkpt>
      <trkpt lat="47.98647" lon="6.94428">
        <ele>1091</ele>
        <time>2025-06-08T15:25:03.000Z</time>
      </trkpt>
      <trkpt lat="47.98648" lon="6.94435">
        <ele>1091</ele>
        <time>2025-06-08T15:25:08.000Z</time>
      </trkpt>
      <trkpt lat="47.98653" lon="6.94442">
        <ele>1093</ele>
        <time>2025-06-08T15:25:13.000Z</time>
      </trkpt>
      <trkpt lat="47.98657" lon="6.94444">
        <ele>1093</ele>
        <time>2025-06-08T15:25:16.000Z</time>
      </trkpt>
      <trkpt lat="47.98661" lon="6.94449">
        <ele>1093</ele>
        <time>2025-06-08T15:25:20.000Z</time>
      </trkpt>
      <trkpt lat="47.98666" lon="6.94452">
        <ele>1094</ele>
        <time>2025-06-08T15:25:24.000Z</time>
      </trkpt>
      <trkpt lat="47.98673" lon="6.9446">
        <ele>1094</ele>
        <time>2025-06-08T15:25:30.000Z</time>
      </trkpt>
      <trkpt lat="47.98678" lon="6.9446">
        <ele>1095</ele>
        <time>2025-06-08T15:25:33.000Z</time>
      </trkpt>
      <trkpt lat="47.98701" lon="6.94478">
        <ele>1095</ele>
        <time>2025-06-08T15:25:55.000Z</time>
      </trkpt>
      <trkpt lat="47.98705" lon="6.94482">
        <ele>1096</ele>
        <time>2025-06-08T15:25:59.000Z</time>
      </trkpt>
      <trkpt lat="47.98731" lon="6.94511">
        <ele>1097</ele>
        <time>2025-06-08T15:26:23.000Z</time>
      </trkpt>
      <trkpt lat="47.98738" lon="6.94515">
        <ele>1098</ele>
        <time>2025-06-08T15:26:30.000Z</time>
      </trkpt>
      <trkpt lat="47.98744" lon="6.94516">
        <ele>1097</ele>
        <time>2025-06-08T15:26:36.000Z</time>
      </trkpt>
      <trkpt lat="47.98748" lon="6.94514">
        <ele>1097</ele>
        <time>2025-06-08T15:26:39.000Z</time>
      </trkpt>
      <trkpt lat="47.98759" lon="6.94518">
        <ele>1097</ele>
        <time>2025-06-08T15:26:48.000Z</time>
      </trkpt>
      <trkpt lat="47.98763" lon="6.9452">
        <ele>1096</ele>
        <time>2025-06-08T15:26:53.000Z</time>
      </trkpt>
      <trkpt lat="47.98768" lon="6.94522">
        <ele>1096</ele>
        <time>2025-06-08T15:26:57.000Z</time>
      </trkpt>
      <trkpt lat="47.98773" lon="6.94522">
        <ele>1095</ele>
        <time>2025-06-08T15:27:01.000Z</time>
      </trkpt>
      <trkpt lat="47.98778" lon="6.94519">
        <ele>1096</ele>
        <time>2025-06-08T15:27:05.000Z</time>
      </trkpt>
      <trkpt lat="47.98789" lon="6.94524">
        <ele>1094</ele>
        <time>2025-06-08T15:27:15.000Z</time>
      </trkpt>
      <trkpt lat="47.98794" lon="6.9452">
        <ele>1093</ele>
        <time>2025-06-08T15:27:19.000Z</time>
      </trkpt>
      <trkpt lat="47.98799" lon="6.94519">
        <ele>1093</ele>
        <time>2025-06-08T15:27:23.000Z</time>
      </trkpt>
      <trkpt lat="47.98803" lon="6.94517">
        <ele>1093</ele>
        <time>2025-06-08T15:27:26.000Z</time>
      </trkpt>
      <trkpt lat="47.98808" lon="6.94519">
        <ele>1093</ele>
        <time>2025-06-08T15:27:30.000Z</time>
      </trkpt>
      <trkpt lat="47.98818" lon="6.94517">
        <ele>1093</ele>
        <time>2025-06-08T15:27:37.000Z</time>
      </trkpt>
      <trkpt lat="47.98823" lon="6.94515">
        <ele>1093</ele>
        <time>2025-06-08T15:27:41.000Z</time>
      </trkpt>
      <trkpt lat="47.98834" lon="6.94512">
        <ele>1092</ele>
        <time>2025-06-08T15:27:53.000Z</time>
      </trkpt>
      <trkpt lat="47.98838" lon="6.94508">
        <ele>1092</ele>
        <time>2025-06-08T15:27:56.000Z</time>
      </trkpt>
      <trkpt lat="47.98849" lon="6.94503">
        <ele>1093</ele>
        <time>2025-06-08T15:28:05.000Z</time>
      </trkpt>
      <trkpt lat="47.98859" lon="6.94507">
        <ele>1093</ele>
        <time>2025-06-08T15:28:12.000Z</time>
      </trkpt>
      <trkpt lat="47.98864" lon="6.94507">
        <ele>1093</ele>
        <time>2025-06-08T15:28:15.000Z</time>
      </trkpt>
      <trkpt lat="47.98868" lon="6.94495">
        <ele>1095</ele>
        <time>2025-06-08T15:28:30.000Z</time>
      </trkpt>
      <trkpt lat="47.98884" lon="6.9449">
        <ele>1102</ele>
        <time>2025-06-08T15:28:52.000Z</time>
      </trkpt>
      <trkpt lat="47.98891" lon="6.94493">
        <ele>1103</ele>
        <time>2025-06-08T15:28:57.000Z</time>
      </trkpt>
      <trkpt lat="47.98894" lon="6.94498">
        <ele>1103</ele>
        <time>2025-06-08T15:28:59.000Z</time>
      </trkpt>
      <trkpt lat="47.98896" lon="6.94506">
        <ele>1104</ele>
        <time>2025-06-08T15:29:05.000Z</time>
      </trkpt>
      <trkpt lat="47.989" lon="6.94514">
        <ele>1105</ele>
        <time>2025-06-08T15:29:09.000Z</time>
      </trkpt>
      <trkpt lat="47.989" lon="6.94521">
        <ele>1105</ele>
        <time>2025-06-08T15:29:12.000Z</time>
      </trkpt>
      <trkpt lat="47.98907" lon="6.94533">
        <ele>1108</ele>
        <time>2025-06-08T15:29:26.000Z</time>
      </trkpt>
      <trkpt lat="47.98912" lon="6.94535">
        <ele>1108</ele>
        <time>2025-06-08T15:29:28.000Z</time>
      </trkpt>
      <trkpt lat="47.98919" lon="6.94546">
        <ele>1109</ele>
        <time>2025-06-08T15:29:35.000Z</time>
      </trkpt>
      <trkpt lat="47.98921" lon="6.94552">
        <ele>1109</ele>
        <time>2025-06-08T15:29:39.000Z</time>
      </trkpt>
      <trkpt lat="47.98922" lon="6.9456">
        <ele>1110</ele>
        <time>2025-06-08T15:29:44.000Z</time>
      </trkpt>
      <trkpt lat="47.98923" lon="6.94558">
        <ele>1110</ele>
        <time>2025-06-08T15:29:55.000Z</time>
      </trkpt>
      <trkpt lat="47.98921" lon="6.94551">
        <ele>1111</ele>
        <time>2025-06-08T15:29:57.000Z</time>
      </trkpt>
      <trkpt lat="47.98917" lon="6.94543">
        <ele>1111</ele>
        <time>2025-06-08T15:30:01.000Z</time>
      </trkpt>
      <trkpt lat="47.98916" lon="6.94538">
        <ele>1112</ele>
        <time>2025-06-08T15:30:03.000Z</time>
      </trkpt>
      <trkpt lat="47.98913" lon="6.94527">
        <ele>1113</ele>
        <time>2025-06-08T15:30:10.000Z</time>
      </trkpt>
      <trkpt lat="47.98915" lon="6.94521">
        <ele>1114</ele>
        <time>2025-06-08T15:30:13.000Z</time>
      </trkpt>
      <trkpt lat="47.9892" lon="6.94529">
        <ele>1115</ele>
        <time>2025-06-08T15:30:16.000Z</time>
      </trkpt>
      <trkpt lat="47.98926" lon="6.94539">
        <ele>1116</ele>
        <time>2025-06-08T15:30:21.000Z</time>
      </trkpt>
      <trkpt lat="47.9893" lon="6.94544">
        <ele>1116</ele>
        <time>2025-06-08T15:30:25.000Z</time>
      </trkpt>
      <trkpt lat="47.98954" lon="6.94558">
        <ele>1119</ele>
        <time>2025-06-08T15:30:42.000Z</time>
      </trkpt>
      <trkpt lat="47.98957" lon="6.94565">
        <ele>1120</ele>
        <time>2025-06-08T15:30:46.000Z</time>
      </trkpt>
      <trkpt lat="47.98962" lon="6.9457">
        <ele>1121</ele>
        <time>2025-06-08T15:30:55.000Z</time>
      </trkpt>
      <trkpt lat="47.98972" lon="6.94575">
        <ele>1123</ele>
        <time>2025-06-08T15:31:05.000Z</time>
      </trkpt>
      <trkpt lat="47.98974" lon="6.94583">
        <ele>1125</ele>
        <time>2025-06-08T15:31:12.000Z</time>
      </trkpt>
      <trkpt lat="47.98977" lon="6.94589">
        <ele>1125</ele>
        <time>2025-06-08T15:31:15.000Z</time>
      </trkpt>
      <trkpt lat="47.98983" lon="6.94594">
        <ele>1126</ele>
        <time>2025-06-08T15:31:21.000Z</time>
      </trkpt>
      <trkpt lat="47.98995" lon="6.94592">
        <ele>1128</ele>
        <time>2025-06-08T15:31:37.000Z</time>
      </trkpt>
      <trkpt lat="47.99008" lon="6.94593">
        <ele>1130</ele>
        <time>2025-06-08T15:31:46.000Z</time>
      </trkpt>
      <trkpt lat="47.99012" lon="6.94599">
        <ele>1131</ele>
        <time>2025-06-08T15:31:49.000Z</time>
      </trkpt>
      <trkpt lat="47.99017" lon="6.94596">
        <ele>1132</ele>
        <time>2025-06-08T15:31:57.000Z</time>
      </trkpt>
      <trkpt lat="47.9902" lon="6.9459">
        <ele>1132</ele>
        <time>2025-06-08T15:31:59.000Z</time>
      </trkpt>
      <trkpt lat="47.99015" lon="6.94584">
        <ele>1132</ele>
        <time>2025-06-08T15:32:01.000Z</time>
      </trkpt>
      <trkpt lat="47.99019" lon="6.94572">
        <ele>1133</ele>
        <time>2025-06-08T15:32:10.000Z</time>
      </trkpt>
      <trkpt lat="47.99023" lon="6.94575">
        <ele>1135</ele>
        <time>2025-06-08T15:32:13.000Z</time>
      </trkpt>
      <trkpt lat="47.99025" lon="6.94582">
        <ele>1135</ele>
        <time>2025-06-08T15:32:15.000Z</time>
      </trkpt>
      <trkpt lat="47.99028" lon="6.94587">
        <ele>1136</ele>
        <time>2025-06-08T15:32:18.000Z</time>
      </trkpt>
      <trkpt lat="47.99031" lon="6.94595">
        <ele>1136</ele>
        <time>2025-06-08T15:32:21.000Z</time>
      </trkpt>
      <trkpt lat="47.99037" lon="6.94607">
        <ele>1136</ele>
        <time>2025-06-08T15:32:28.000Z</time>
      </trkpt>
      <trkpt lat="47.99044" lon="6.94618">
        <ele>1138</ele>
        <time>2025-06-08T15:32:38.000Z</time>
      </trkpt>
      <trkpt lat="47.99048" lon="6.94633">
        <ele>1138</ele>
        <time>2025-06-08T15:32:48.000Z</time>
      </trkpt>
      <trkpt lat="47.9905" lon="6.9464">
        <ele>1139</ele>
        <time>2025-06-08T15:32:57.000Z</time>
      </trkpt>
      <trkpt lat="47.99056" lon="6.94647">
        <ele>1143</ele>
        <time>2025-06-08T15:33:10.000Z</time>
      </trkpt>
      <trkpt lat="47.9906" lon="6.94651">
        <ele>1143</ele>
        <time>2025-06-08T15:33:14.000Z</time>
      </trkpt>
      <trkpt lat="47.99065" lon="6.9466">
        <ele>1144</ele>
        <time>2025-06-08T15:33:27.000Z</time>
      </trkpt>
      <trkpt lat="47.99092" lon="6.94695">
        <ele>1150</ele>
        <time>2025-06-08T15:34:03.000Z</time>
      </trkpt>
      <trkpt lat="47.99097" lon="6.94699">
        <ele>1151</ele>
        <time>2025-06-08T15:34:13.000Z</time>
      </trkpt>
      <trkpt lat="47.99111" lon="6.94711">
        <ele>1155</ele>
        <time>2025-06-08T15:34:29.000Z</time>
      </trkpt>
      <trkpt lat="47.99115" lon="6.94714">
        <ele>1155</ele>
        <time>2025-06-08T15:34:34.000Z</time>
      </trkpt>
      <trkpt lat="47.99121" lon="6.94714">
        <ele>1155</ele>
        <time>2025-06-08T15:34:38.000Z</time>
      </trkpt>
      <trkpt lat="47.99121" lon="6.94706">
        <ele>1155</ele>
        <time>2025-06-08T15:34:42.000Z</time>
      </trkpt>
      <trkpt lat="47.99126" lon="6.94704">
        <ele>1155</ele>
        <time>2025-06-08T15:34:45.000Z</time>
      </trkpt>
      <trkpt lat="47.99133" lon="6.94702">
        <ele>1154</ele>
        <time>2025-06-08T15:34:54.000Z</time>
      </trkpt>
      <trkpt lat="47.99135" lon="6.9471">
        <ele>1153</ele>
        <time>2025-06-08T15:34:57.000Z</time>
      </trkpt>
      <trkpt lat="47.99131" lon="6.94715">
        <ele>1153</ele>
        <time>2025-06-08T15:35:00.000Z</time>
      </trkpt>
      <trkpt lat="47.99128" lon="6.94718">
        <ele>1152</ele>
        <time>2025-06-08T15:35:05.000Z</time>
      </trkpt>
      <trkpt lat="47.99131" lon="6.94719">
        <ele>1148</ele>
        <time>2025-06-08T15:35:22.000Z</time>
      </trkpt>
      <trkpt lat="47.99134" lon="6.94715">
        <ele>1147</ele>
        <time>2025-06-08T15:35:26.000Z</time>
      </trkpt>
      <trkpt lat="47.99139" lon="6.94711">
        <ele>1147</ele>
        <time>2025-06-08T15:35:34.000Z</time>
      </trkpt>
      <trkpt lat="47.99146" lon="6.94701">
        <ele>1145</ele>
        <time>2025-06-08T15:35:46.000Z</time>
      </trkpt>
      <trkpt lat="47.99149" lon="6.94695">
        <ele>1144</ele>
        <time>2025-06-08T15:35:52.000Z</time>
      </trkpt>
      <trkpt lat="47.99153" lon="6.94687">
        <ele>1143</ele>
        <time>2025-06-08T15:35:55.000Z</time>
      </trkpt>
      <trkpt lat="47.99156" lon="6.94683">
        <ele>1143</ele>
        <time>2025-06-08T15:35:58.000Z</time>
      </trkpt>
      <trkpt lat="47.99158" lon="6.94677">
        <ele>1143</ele>
        <time>2025-06-08T15:36:02.000Z</time>
      </trkpt>
      <trkpt lat="47.9916" lon="6.94671">
        <ele>1143</ele>
        <time>2025-06-08T15:36:06.000Z</time>
      </trkpt>
      <trkpt lat="47.99172" lon="6.94646">
        <ele>1139</ele>
        <time>2025-06-08T15:36:23.000Z</time>
      </trkpt>
      <trkpt lat="47.99175" lon="6.94638">
        <ele>1139</ele>
        <time>2025-06-08T15:36:30.000Z</time>
      </trkpt>
      <trkpt lat="47.99177" lon="6.94633">
        <ele>1139</ele>
        <time>2025-06-08T15:36:35.000Z</time>
      </trkpt>
      <trkpt lat="47.99182" lon="6.94615">
        <ele>1134</ele>
        <time>2025-06-08T15:36:53.000Z</time>
      </trkpt>
      <trkpt lat="47.99187" lon="6.94605">
        <ele>1136</ele>
        <time>2025-06-08T15:37:07.000Z</time>
      </trkpt>
      <trkpt lat="47.99191" lon="6.946">
        <ele>1136</ele>
        <time>2025-06-08T15:37:11.000Z</time>
      </trkpt>
      <trkpt lat="47.99214" lon="6.94576">
        <ele>1134</ele>
        <time>2025-06-08T15:37:34.000Z</time>
      </trkpt>
      <trkpt lat="47.99223" lon="6.9457">
        <ele>1133</ele>
        <time>2025-06-08T15:37:44.000Z</time>
      </trkpt>
      <trkpt lat="47.9923" lon="6.94567">
        <ele>1132</ele>
        <time>2025-06-08T15:37:56.000Z</time>
      </trkpt>
      <trkpt lat="47.99241" lon="6.94561">
        <ele>1130</ele>
        <time>2025-06-08T15:38:11.000Z</time>
      </trkpt>
      <trkpt lat="47.99245" lon="6.94559">
        <ele>1129</ele>
        <time>2025-06-08T15:38:15.000Z</time>
      </trkpt>
      <trkpt lat="47.99256" lon="6.94556">
        <ele>1127</ele>
        <time>2025-06-08T15:38:26.000Z</time>
      </trkpt>
      <trkpt lat="47.99275" lon="6.94551">
        <ele>1126</ele>
        <time>2025-06-08T15:38:42.000Z</time>
      </trkpt>
      <trkpt lat="47.99279" lon="6.94551">
        <ele>1124</ele>
        <time>2025-06-08T15:38:51.000Z</time>
      </trkpt>
      <trkpt lat="47.99287" lon="6.9455">
        <ele>1124</ele>
        <time>2025-06-08T15:39:03.000Z</time>
      </trkpt>
      <trkpt lat="47.99294" lon="6.94551">
        <ele>1124</ele>
        <time>2025-06-08T15:39:10.000Z</time>
      </trkpt>
      <trkpt lat="47.99309" lon="6.94552">
        <ele>1122</ele>
        <time>2025-06-08T15:39:20.000Z</time>
      </trkpt>
      <trkpt lat="47.99316" lon="6.94555">
        <ele>1122</ele>
        <time>2025-06-08T15:39:26.000Z</time>
      </trkpt>
      <trkpt lat="47.9933" lon="6.9456">
        <ele>1119</ele>
        <time>2025-06-08T15:39:40.000Z</time>
      </trkpt>
      <trkpt lat="47.99336" lon="6.94564">
        <ele>1120</ele>
        <time>2025-06-08T15:39:46.000Z</time>
      </trkpt>
      <trkpt lat="47.99341" lon="6.94568">
        <ele>1120</ele>
        <time>2025-06-08T15:39:51.000Z</time>
      </trkpt>
      <trkpt lat="47.99355" lon="6.94587">
        <ele>1116</ele>
        <time>2025-06-08T15:40:06.000Z</time>
      </trkpt>
      <trkpt lat="47.99359" lon="6.94591">
        <ele>1116</ele>
        <time>2025-06-08T15:40:09.000Z</time>
      </trkpt>
      <trkpt lat="47.99364" lon="6.94594">
        <ele>1116</ele>
        <time>2025-06-08T15:40:12.000Z</time>
      </trkpt>
      <trkpt lat="47.9937" lon="6.94595">
        <ele>1114</ele>
        <time>2025-06-08T15:40:26.000Z</time>
      </trkpt>
      <trkpt lat="47.99379" lon="6.94591">
        <ele>1112</ele>
        <time>2025-06-08T15:40:36.000Z</time>
      </trkpt>
      <trkpt lat="47.99388" lon="6.94585">
        <ele>1111</ele>
        <time>2025-06-08T15:40:43.000Z</time>
      </trkpt>
      <trkpt lat="47.99413" lon="6.94564">
        <ele>1104</ele>
        <time>2025-06-08T15:41:16.000Z</time>
      </trkpt>
      <trkpt lat="47.99418" lon="6.94557">
        <ele>1102</ele>
        <time>2025-06-08T15:41:23.000Z</time>
      </trkpt>
      <trkpt lat="47.99426" lon="6.94548">
        <ele>1102</ele>
        <time>2025-06-08T15:41:30.000Z</time>
      </trkpt>
      <trkpt lat="47.99437" lon="6.94525">
        <ele>1099</ele>
        <time>2025-06-08T15:41:47.000Z</time>
      </trkpt>
      <trkpt lat="47.99437" lon="6.94516">
        <ele>1097</ele>
        <time>2025-06-08T15:41:56.000Z</time>
      </trkpt>
      <trkpt lat="47.99434" lon="6.9451">
        <ele>1097</ele>
        <time>2025-06-08T15:41:59.000Z</time>
      </trkpt>
      <trkpt lat="47.99432" lon="6.94501">
        <ele>1096</ele>
        <time>2025-06-08T15:42:02.000Z</time>
      </trkpt>
      <trkpt lat="47.99434" lon="6.94493">
        <ele>1096</ele>
        <time>2025-06-08T15:42:05.000Z</time>
      </trkpt>
      <trkpt lat="47.99436" lon="6.94479">
        <ele>1095</ele>
        <time>2025-06-08T15:42:13.000Z</time>
      </trkpt>
      <trkpt lat="47.99439" lon="6.94474">
        <ele>1094</ele>
        <time>2025-06-08T15:42:17.000Z</time>
      </trkpt>
      <trkpt lat="47.99449" lon="6.94478">
        <ele>1093</ele>
        <time>2025-06-08T15:42:23.000Z</time>
      </trkpt>
      <trkpt lat="47.99452" lon="6.94484">
        <ele>1092</ele>
        <time>2025-06-08T15:42:25.000Z</time>
      </trkpt>
      <trkpt lat="47.99464" lon="6.94521">
        <ele>1087</ele>
        <time>2025-06-08T15:42:51.000Z</time>
      </trkpt>
      <trkpt lat="47.99467" lon="6.94536">
        <ele>1086</ele>
        <time>2025-06-08T15:42:57.000Z</time>
      </trkpt>
      <trkpt lat="47.99468" lon="6.94543">
        <ele>1085</ele>
        <time>2025-06-08T15:43:01.000Z</time>
      </trkpt>
      <trkpt lat="47.99468" lon="6.9455">
        <ele>1085</ele>
        <time>2025-06-08T15:43:04.000Z</time>
      </trkpt>
      <trkpt lat="47.99465" lon="6.94564">
        <ele>1084</ele>
        <time>2025-06-08T15:43:13.000Z</time>
      </trkpt>
      <trkpt lat="47.99463" lon="6.94571">
        <ele>1083</ele>
        <time>2025-06-08T15:43:17.000Z</time>
      </trkpt>
      <trkpt lat="47.9946" lon="6.94578">
        <ele>1083</ele>
        <time>2025-06-08T15:43:21.000Z</time>
      </trkpt>
      <trkpt lat="47.99455" lon="6.94598">
        <ele>1080</ele>
        <time>2025-06-08T15:43:34.000Z</time>
      </trkpt>
      <trkpt lat="47.99455" lon="6.94605">
        <ele>1080</ele>
        <time>2025-06-08T15:43:37.000Z</time>
      </trkpt>
      <trkpt lat="47.99461" lon="6.94633">
        <ele>1075</ele>
        <time>2025-06-08T15:44:02.000Z</time>
      </trkpt>
      <trkpt lat="47.9946" lon="6.9464">
        <ele>1075</ele>
        <time>2025-06-08T15:44:08.000Z</time>
      </trkpt>
      <trkpt lat="47.99456" lon="6.94647">
        <ele>1074</ele>
        <time>2025-06-08T15:44:12.000Z</time>
      </trkpt>
      <trkpt lat="47.99443" lon="6.94663">
        <ele>1072</ele>
        <time>2025-06-08T15:44:23.000Z</time>
      </trkpt>
      <trkpt lat="47.99442" lon="6.94669">
        <ele>1071</ele>
        <time>2025-06-08T15:44:26.000Z</time>
      </trkpt>
      <trkpt lat="47.99445" lon="6.94675">
        <ele>1070</ele>
        <time>2025-06-08T15:44:34.000Z</time>
      </trkpt>
      <trkpt lat="47.99449" lon="6.94678">
        <ele>1070</ele>
        <time>2025-06-08T15:44:38.000Z</time>
      </trkpt>
      <trkpt lat="47.99458" lon="6.94682">
        <ele>1068</ele>
        <time>2025-06-08T15:44:51.000Z</time>
      </trkpt>
      <trkpt lat="47.99467" lon="6.94702">
        <ele>1069</ele>
        <time>2025-06-08T15:45:00.000Z</time>
      </trkpt>
      <trkpt lat="47.99469" lon="6.94707">
        <ele>1069</ele>
        <time>2025-06-08T15:45:05.000Z</time>
      </trkpt>
      <trkpt lat="47.99478" lon="6.94709">
        <ele>1065</ele>
        <time>2025-06-08T15:45:17.000Z</time>
      </trkpt>
      <trkpt lat="47.99483" lon="6.94704">
        <ele>1063</ele>
        <time>2025-06-08T15:45:21.000Z</time>
      </trkpt>
      <trkpt lat="47.99489" lon="6.94685">
        <ele>1059</ele>
        <time>2025-06-08T15:45:34.000Z</time>
      </trkpt>
      <trkpt lat="47.9949" lon="6.94672">
        <ele>1056</ele>
        <time>2025-06-08T15:45:44.000Z</time>
      </trkpt>
      <trkpt lat="47.99493" lon="6.94658">
        <ele>1054</ele>
        <time>2025-06-08T15:46:16.000Z</time>
      </trkpt>
      <trkpt lat="47.99495" lon="6.94656">
        <ele>1053</ele>
        <time>2025-06-08T15:46:37.000Z</time>
      </trkpt>
      <trkpt lat="47.99506" lon="6.94649">
        <ele>1052</ele>
        <time>2025-06-08T15:46:43.000Z</time>
      </trkpt>
      <trkpt lat="47.99509" lon="6.94645">
        <ele>1051</ele>
        <time>2025-06-08T15:46:46.000Z</time>
      </trkpt>
      <trkpt lat="47.99518" lon="6.94643">
        <ele>1050</ele>
        <time>2025-06-08T15:46:56.000Z</time>
      </trkpt>
      <trkpt lat="47.99522" lon="6.94644">
        <ele>1049</ele>
        <time>2025-06-08T15:47:00.000Z</time>
      </trkpt>
      <trkpt lat="47.99543" lon="6.94635">
        <ele>1045</ele>
        <time>2025-06-08T15:47:18.000Z</time>
      </trkpt>
      <trkpt lat="47.99547" lon="6.94635">
        <ele>1044</ele>
        <time>2025-06-08T15:47:21.000Z</time>
      </trkpt>
      <trkpt lat="47.99552" lon="6.9463">
        <ele>1043</ele>
        <time>2025-06-08T15:47:25.000Z</time>
      </trkpt>
      <trkpt lat="47.99557" lon="6.94621">
        <ele>1041</ele>
        <time>2025-06-08T15:47:31.000Z</time>
      </trkpt>
      <trkpt lat="47.99561" lon="6.94611">
        <ele>1039</ele>
        <time>2025-06-08T15:47:40.000Z</time>
      </trkpt>
      <trkpt lat="47.99564" lon="6.94605">
        <ele>1038</ele>
        <time>2025-06-08T15:47:44.000Z</time>
      </trkpt>
      <trkpt lat="47.99572" lon="6.94594">
        <ele>1036</ele>
        <time>2025-06-08T15:47:53.000Z</time>
      </trkpt>
      <trkpt lat="47.99576" lon="6.94598">
        <ele>1035</ele>
        <time>2025-06-08T15:47:57.000Z</time>
      </trkpt>
      <trkpt lat="47.99574" lon="6.94587">
        <ele>1032</ele>
        <time>2025-06-08T15:48:07.000Z</time>
      </trkpt>
      <trkpt lat="47.99574" lon="6.94574">
        <ele>1030</ele>
        <time>2025-06-08T15:48:17.000Z</time>
      </trkpt>
      <trkpt lat="47.99581" lon="6.94574">
        <ele>1030</ele>
        <time>2025-06-08T15:48:26.000Z</time>
      </trkpt>
      <trkpt lat="47.99586" lon="6.94575">
        <ele>1030</ele>
        <time>2025-06-08T15:48:28.000Z</time>
      </trkpt>
      <trkpt lat="47.99592" lon="6.94573">
        <ele>1030</ele>
        <time>2025-06-08T15:48:31.000Z</time>
      </trkpt>
      <trkpt lat="47.99596" lon="6.94569">
        <ele>1030</ele>
        <time>2025-06-08T15:48:34.000Z</time>
      </trkpt>
      <trkpt lat="47.996" lon="6.94567">
        <ele>1030</ele>
        <time>2025-06-08T15:48:38.000Z</time>
      </trkpt>
      <trkpt lat="47.99604" lon="6.94564">
        <ele>1030</ele>
        <time>2025-06-08T15:48:42.000Z</time>
      </trkpt>
      <trkpt lat="47.99615" lon="6.94571">
        <ele>1026</ele>
        <time>2025-06-08T15:48:54.000Z</time>
      </trkpt>
      <trkpt lat="47.99616" lon="6.94577">
        <ele>1025</ele>
        <time>2025-06-08T15:48:58.000Z</time>
      </trkpt>
      <trkpt lat="47.99625" lon="6.94581">
        <ele>1020</ele>
        <time>2025-06-08T15:49:22.000Z</time>
      </trkpt>
      <trkpt lat="47.99629" lon="6.94584">
        <ele>1020</ele>
        <time>2025-06-08T15:49:26.000Z</time>
      </trkpt>
      <trkpt lat="47.99636" lon="6.94588">
        <ele>1019</ele>
        <time>2025-06-08T15:49:36.000Z</time>
      </trkpt>
      <trkpt lat="47.99642" lon="6.94593">
        <ele>1017</ele>
        <time>2025-06-08T15:49:46.000Z</time>
      </trkpt>
      <trkpt lat="47.99646" lon="6.94583">
        <ele>1015</ele>
        <time>2025-06-08T15:49:59.000Z</time>
      </trkpt>
      <trkpt lat="47.99658" lon="6.94578">
        <ele>1012</ele>
        <time>2025-06-08T15:50:14.000Z</time>
      </trkpt>
      <trkpt lat="47.99656" lon="6.94587">
        <ele>1011</ele>
        <time>2025-06-08T15:50:21.000Z</time>
      </trkpt>
      <trkpt lat="47.99662" lon="6.94575">
        <ele>1008</ele>
        <time>2025-06-08T15:50:34.000Z</time>
      </trkpt>
      <trkpt lat="47.99664" lon="6.94568">
        <ele>1006</ele>
        <time>2025-06-08T15:50:42.000Z</time>
      </trkpt>
      <trkpt lat="47.99667" lon="6.9456">
        <ele>1007</ele>
        <time>2025-06-08T15:50:46.000Z</time>
      </trkpt>
      <trkpt lat="47.99671" lon="6.94557">
        <ele>1007</ele>
        <time>2025-06-08T15:50:50.000Z</time>
      </trkpt>
      <trkpt lat="47.99674" lon="6.94551">
        <ele>1007</ele>
        <time>2025-06-08T15:50:53.000Z</time>
      </trkpt>
      <trkpt lat="47.99699" lon="6.94543">
        <ele>1005</ele>
        <time>2025-06-08T15:51:15.000Z</time>
      </trkpt>
      <trkpt lat="47.99706" lon="6.94545">
        <ele>1002</ele>
        <time>2025-06-08T15:51:23.000Z</time>
      </trkpt>
      <trkpt lat="47.99712" lon="6.94547">
        <ele>999</ele>
        <time>2025-06-08T15:51:40.000Z</time>
      </trkpt>
      <trkpt lat="47.99722" lon="6.94548">
        <ele>996</ele>
        <time>2025-06-08T15:51:52.000Z</time>
      </trkpt>
      <trkpt lat="47.9974" lon="6.94538">
        <ele>992</ele>
        <time>2025-06-08T15:52:19.000Z</time>
      </trkpt>
      <trkpt lat="47.99745" lon="6.94533">
        <ele>991</ele>
        <time>2025-06-08T15:52:24.000Z</time>
      </trkpt>
      <trkpt lat="47.99749" lon="6.9453">
        <ele>991</ele>
        <time>2025-06-08T15:52:28.000Z</time>
      </trkpt>
      <trkpt lat="47.99757" lon="6.9452">
        <ele>992</ele>
        <time>2025-06-08T15:52:35.000Z</time>
      </trkpt>
      <trkpt lat="47.99762" lon="6.94516">
        <ele>992</ele>
        <time>2025-06-08T15:52:40.000Z</time>
      </trkpt>
      <trkpt lat="47.99767" lon="6.94518">
        <ele>992</ele>
        <time>2025-06-08T15:52:47.000Z</time>
      </trkpt>
      <trkpt lat="47.99775" lon="6.94517">
        <ele>990</ele>
        <time>2025-06-08T15:52:56.000Z</time>
      </trkpt>
      <trkpt lat="47.99779" lon="6.9452">
        <ele>990</ele>
        <time>2025-06-08T15:53:02.000Z</time>
      </trkpt>
      <trkpt lat="47.99786" lon="6.94518">
        <ele>989</ele>
        <time>2025-06-08T15:53:13.000Z</time>
      </trkpt>
      <trkpt lat="47.99793" lon="6.94515">
        <ele>988</ele>
        <time>2025-06-08T15:53:21.000Z</time>
      </trkpt>
      <trkpt lat="47.99798" lon="6.94516">
        <ele>987</ele>
        <time>2025-06-08T15:53:25.000Z</time>
      </trkpt>
      <trkpt lat="47.99803" lon="6.94511">
        <ele>987</ele>
        <time>2025-06-08T15:53:30.000Z</time>
      </trkpt>
      <trkpt lat="47.99807" lon="6.9451">
        <ele>987</ele>
        <time>2025-06-08T15:53:35.000Z</time>
      </trkpt>
      <trkpt lat="47.99812" lon="6.94511">
        <ele>987</ele>
        <time>2025-06-08T15:53:37.000Z</time>
      </trkpt>
      <trkpt lat="47.99816" lon="6.94506">
        <ele>985</ele>
        <time>2025-06-08T15:53:45.000Z</time>
      </trkpt>
      <trkpt lat="47.99823" lon="6.94507">
        <ele>985</ele>
        <time>2025-06-08T15:53:54.000Z</time>
      </trkpt>
      <trkpt lat="47.99828" lon="6.94506">
        <ele>984</ele>
        <time>2025-06-08T15:53:58.000Z</time>
      </trkpt>
      <trkpt lat="47.99833" lon="6.94498">
        <ele>985</ele>
        <time>2025-06-08T15:54:08.000Z</time>
      </trkpt>
      <trkpt lat="47.99838" lon="6.94498">
        <ele>985</ele>
        <time>2025-06-08T15:54:11.000Z</time>
      </trkpt>
      <trkpt lat="47.99846" lon="6.94507">
        <ele>984</ele>
        <time>2025-06-08T15:54:17.000Z</time>
      </trkpt>
      <trkpt lat="47.99853" lon="6.94518">
        <ele>983</ele>
        <time>2025-06-08T15:54:25.000Z</time>
      </trkpt>
      <trkpt lat="47.99857" lon="6.94528">
        <ele>981</ele>
        <time>2025-06-08T15:54:36.000Z</time>
      </trkpt>
      <trkpt lat="47.99861" lon="6.94532">
        <ele>980</ele>
        <time>2025-06-08T15:54:43.000Z</time>
      </trkpt>
      <trkpt lat="47.99865" lon="6.94534">
        <ele>980</ele>
        <time>2025-06-08T15:54:46.000Z</time>
      </trkpt>
      <trkpt lat="47.99872" lon="6.94539">
        <ele>980</ele>
        <time>2025-06-08T15:54:54.000Z</time>
      </trkpt>
      <trkpt lat="47.99876" lon="6.94542">
        <ele>980</ele>
        <time>2025-06-08T15:54:58.000Z</time>
      </trkpt>
      <trkpt lat="47.99881" lon="6.94546">
        <ele>980</ele>
        <time>2025-06-08T15:55:01.000Z</time>
      </trkpt>
      <trkpt lat="47.99884" lon="6.94553">
        <ele>980</ele>
        <time>2025-06-08T15:55:05.000Z</time>
      </trkpt>
      <trkpt lat="47.9991" lon="6.94528">
        <ele>976</ele>
        <time>2025-06-08T15:55:34.000Z</time>
      </trkpt>
      <trkpt lat="47.99921" lon="6.94522">
        <ele>975</ele>
        <time>2025-06-08T15:55:46.000Z</time>
      </trkpt>
      <trkpt lat="47.9993" lon="6.94518">
        <ele>973</ele>
        <time>2025-06-08T15:55:54.000Z</time>
      </trkpt>
      <trkpt lat="47.99941" lon="6.94504">
        <ele>973</ele>
        <time>2025-06-08T15:56:09.000Z</time>
      </trkpt>
      <trkpt lat="47.99961" lon="6.94498">
        <ele>968</ele>
        <time>2025-06-08T15:56:28.000Z</time>
      </trkpt>
      <trkpt lat="47.99964" lon="6.94504">
        <ele>967</ele>
        <time>2025-06-08T15:56:31.000Z</time>
      </trkpt>
      <trkpt lat="47.99967" lon="6.9452">
        <ele>966</ele>
        <time>2025-06-08T15:56:38.000Z</time>
      </trkpt>
      <trkpt lat="47.99971" lon="6.94524">
        <ele>965</ele>
        <time>2025-06-08T15:56:42.000Z</time>
      </trkpt>
      <trkpt lat="47.99976" lon="6.94536">
        <ele>966</ele>
        <time>2025-06-08T15:56:51.000Z</time>
      </trkpt>
      <trkpt lat="47.9998" lon="6.94541">
        <ele>966</ele>
        <time>2025-06-08T15:56:56.000Z</time>
      </trkpt>
      <trkpt lat="47.99983" lon="6.94547">
        <ele>966</ele>
        <time>2025-06-08T15:57:03.000Z</time>
      </trkpt>
      <trkpt lat="47.99988" lon="6.94549">
        <ele>965</ele>
        <time>2025-06-08T15:57:08.000Z</time>
      </trkpt>
      <trkpt lat="47.9999" lon="6.94557">
        <ele>964</ele>
        <time>2025-06-08T15:57:16.000Z</time>
      </trkpt>
      <trkpt lat="47.9999" lon="6.94566">
        <ele>964</ele>
        <time>2025-06-08T15:57:20.000Z</time>
      </trkpt>
      <trkpt lat="47.99998" lon="6.94566">
        <ele>962</ele>
        <time>2025-06-08T15:57:29.000Z</time>
      </trkpt>
      <trkpt lat="48.00001" lon="6.94561">
        <ele>962</ele>
        <time>2025-06-08T15:57:32.000Z</time>
      </trkpt>
      <trkpt lat="48.00006" lon="6.94557">
        <ele>961</ele>
        <time>2025-06-08T15:57:36.000Z</time>
      </trkpt>
      <trkpt lat="48.0001" lon="6.94552">
        <ele>961</ele>
        <time>2025-06-08T15:57:39.000Z</time>
      </trkpt>
      <trkpt lat="48.0002" lon="6.94547">
        <ele>962</ele>
        <time>2025-06-08T15:57:48.000Z</time>
      </trkpt>
      <trkpt lat="48.00025" lon="6.9455">
        <ele>962</ele>
        <time>2025-06-08T15:57:52.000Z</time>
      </trkpt>
      <trkpt lat="48.00035" lon="6.94576">
        <ele>962</ele>
        <time>2025-06-08T15:57:59.000Z</time>
      </trkpt>
      <trkpt lat="48.00033" lon="6.94582">
        <ele>962</ele>
        <time>2025-06-08T15:58:02.000Z</time>
      </trkpt>
      <trkpt lat="48.00025" lon="6.9459">
        <ele>963</ele>
        <time>2025-06-08T15:58:09.000Z</time>
      </trkpt>
      <trkpt lat="48.00023" lon="6.94599">
        <ele>964</ele>
        <time>2025-06-08T15:58:15.000Z</time>
      </trkpt>
      <trkpt lat="48.00029" lon="6.94612">
        <ele>965</ele>
        <time>2025-06-08T15:58:21.000Z</time>
      </trkpt>
      <trkpt lat="48.00033" lon="6.94614">
        <ele>969</ele>
        <time>2025-06-08T15:58:38.000Z</time>
      </trkpt>
      <trkpt lat="48.00032" lon="6.94623">
        <ele>970</ele>
        <time>2025-06-08T15:58:41.000Z</time>
      </trkpt>
      <trkpt lat="48.00029" lon="6.94628">
        <ele>970</ele>
        <time>2025-06-08T15:58:45.000Z</time>
      </trkpt>
      <trkpt lat="48.00023" lon="6.94632">
        <ele>972</ele>
        <time>2025-06-08T15:58:53.000Z</time>
      </trkpt>
      <trkpt lat="48.00017" lon="6.94635">
        <ele>974</ele>
        <time>2025-06-08T15:59:04.000Z</time>
      </trkpt>
      <trkpt lat="48.00013" lon="6.94644">
        <ele>976</ele>
        <time>2025-06-08T15:59:16.000Z</time>
      </trkpt>
      <trkpt lat="48.00007" lon="6.94654">
        <ele>978</ele>
        <time>2025-06-08T15:59:26.000Z</time>
      </trkpt>
      <trkpt lat="48.00001" lon="6.9466">
        <ele>980</ele>
        <time>2025-06-08T15:59:33.000Z</time>
      </trkpt>
      <trkpt lat="47.99997" lon="6.94665">
        <ele>981</ele>
        <time>2025-06-08T15:59:42.000Z</time>
      </trkpt>
      <trkpt lat="47.99997" lon="6.94677">
        <ele>983</ele>
        <time>2025-06-08T15:59:52.000Z</time>
      </trkpt>
      <trkpt lat="47.99995" lon="6.94684">
        <ele>983</ele>
        <time>2025-06-08T15:59:56.000Z</time>
      </trkpt>
      <trkpt lat="47.99996" lon="6.94698">
        <ele>984</ele>
        <time>2025-06-08T16:00:03.000Z</time>
      </trkpt>
      <trkpt lat="47.99998" lon="6.94706">
        <ele>985</ele>
        <time>2025-06-08T16:00:08.000Z</time>
      </trkpt>
      <trkpt lat="47.99996" lon="6.94714">
        <ele>985</ele>
        <time>2025-06-08T16:00:11.000Z</time>
      </trkpt>
      <trkpt lat="48.00005" lon="6.94722">
        <ele>986</ele>
        <time>2025-06-08T16:00:20.000Z</time>
      </trkpt>
      <trkpt lat="48.00007" lon="6.94729">
        <ele>987</ele>
        <time>2025-06-08T16:00:29.000Z</time>
      </trkpt>
      <trkpt lat="48.00001" lon="6.94759">
        <ele>991</ele>
        <time>2025-06-08T16:00:51.000Z</time>
      </trkpt>
      <trkpt lat="48.00006" lon="6.94753">
        <ele>991</ele>
        <time>2025-06-08T16:00:56.000Z</time>
      </trkpt>
      <trkpt lat="48.0001" lon="6.94753">
        <ele>993</ele>
        <time>2025-06-08T16:01:03.000Z</time>
      </trkpt>
      <trkpt lat="48.00008" lon="6.94761">
        <ele>993</ele>
        <time>2025-06-08T16:01:05.000Z</time>
      </trkpt>
      <trkpt lat="47.99998" lon="6.94798">
        <ele>999</ele>
        <time>2025-06-08T16:01:32.000Z</time>
      </trkpt>
      <trkpt lat="47.99995" lon="6.94803">
        <ele>1000</ele>
        <time>2025-06-08T16:01:36.000Z</time>
      </trkpt>
      <trkpt lat="47.99994" lon="6.94814">
        <ele>1000</ele>
        <time>2025-06-08T16:01:44.000Z</time>
      </trkpt>
      <trkpt lat="47.99993" lon="6.94823">
        <ele>999</ele>
        <time>2025-06-08T16:01:50.000Z</time>
      </trkpt>
      <trkpt lat="47.99989" lon="6.94831">
        <ele>999</ele>
        <time>2025-06-08T16:01:57.000Z</time>
      </trkpt>
      <trkpt lat="47.99982" lon="6.94854">
        <ele>1000</ele>
        <time>2025-06-08T16:02:10.000Z</time>
      </trkpt>
      <trkpt lat="47.99987" lon="6.94863">
        <ele>1000</ele>
        <time>2025-06-08T16:02:18.000Z</time>
      </trkpt>
      <trkpt lat="47.99985" lon="6.94873">
        <ele>1001</ele>
        <time>2025-06-08T16:02:26.000Z</time>
      </trkpt>
      <trkpt lat="47.99989" lon="6.94885">
        <ele>1004</ele>
        <time>2025-06-08T16:02:36.000Z</time>
      </trkpt>
      <trkpt lat="47.99992" lon="6.94889">
        <ele>1004</ele>
        <time>2025-06-08T16:02:40.000Z</time>
      </trkpt>
      <trkpt lat="47.99992" lon="6.94899">
        <ele>1005</ele>
        <time>2025-06-08T16:02:47.000Z</time>
      </trkpt>
      <trkpt lat="47.99992" lon="6.94914">
        <ele>1007</ele>
        <time>2025-06-08T16:03:00.000Z</time>
      </trkpt>
      <trkpt lat="48" lon="6.94949">
        <ele>1010</ele>
        <time>2025-06-08T16:03:24.000Z</time>
      </trkpt>
      <trkpt lat="48.00007" lon="6.94952">
        <ele>1011</ele>
        <time>2025-06-08T16:03:29.000Z</time>
      </trkpt>
      <trkpt lat="48.00015" lon="6.94956">
        <ele>1012</ele>
        <time>2025-06-08T16:03:37.000Z</time>
      </trkpt>
      <trkpt lat="48.00019" lon="6.94956">
        <ele>1013</ele>
        <time>2025-06-08T16:03:42.000Z</time>
      </trkpt>
      <trkpt lat="48.00023" lon="6.9497">
        <ele>1014</ele>
        <time>2025-06-08T16:03:47.000Z</time>
      </trkpt>
      <trkpt lat="48.00023" lon="6.94978">
        <ele>1014</ele>
        <time>2025-06-08T16:03:49.000Z</time>
      </trkpt>
      <trkpt lat="48.00022" lon="6.94983">
        <ele>1015</ele>
        <time>2025-06-08T16:03:54.000Z</time>
      </trkpt>
      <trkpt lat="48.00016" lon="6.94995">
        <ele>1015</ele>
        <time>2025-06-08T16:03:59.000Z</time>
      </trkpt>
      <trkpt lat="48.0001" lon="6.95002">
        <ele>1017</ele>
        <time>2025-06-08T16:04:06.000Z</time>
      </trkpt>
      <trkpt lat="48.00003" lon="6.95004">
        <ele>1017</ele>
        <time>2025-06-08T16:04:09.000Z</time>
      </trkpt>
      <trkpt lat="47.99989" lon="6.95039">
        <ele>1023</ele>
        <time>2025-06-08T16:04:42.000Z</time>
      </trkpt>
      <trkpt lat="47.99989" lon="6.95046">
        <ele>1024</ele>
        <time>2025-06-08T16:04:45.000Z</time>
      </trkpt>
      <trkpt lat="47.99991" lon="6.95057">
        <ele>1025</ele>
        <time>2025-06-08T16:04:54.000Z</time>
      </trkpt>
      <trkpt lat="47.9999" lon="6.95065">
        <ele>1025</ele>
        <time>2025-06-08T16:04:59.000Z</time>
      </trkpt>
      <trkpt lat="47.99994" lon="6.95069">
        <ele>1026</ele>
        <time>2025-06-08T16:05:04.000Z</time>
      </trkpt>
      <trkpt lat="47.99998" lon="6.95073">
        <ele>1026</ele>
        <time>2025-06-08T16:05:08.000Z</time>
      </trkpt>
      <trkpt lat="47.99998" lon="6.95081">
        <ele>1026</ele>
        <time>2025-06-08T16:05:11.000Z</time>
      </trkpt>
      <trkpt lat="47.99998" lon="6.9509">
        <ele>1027</ele>
        <time>2025-06-08T16:05:16.000Z</time>
      </trkpt>
      <trkpt lat="47.99992" lon="6.95101">
        <ele>1027</ele>
        <time>2025-06-08T16:05:21.000Z</time>
      </trkpt>
      <trkpt lat="47.99993" lon="6.95109">
        <ele>1028</ele>
        <time>2025-06-08T16:05:25.000Z</time>
      </trkpt>
      <trkpt lat="47.99994" lon="6.95116">
        <ele>1028</ele>
        <time>2025-06-08T16:05:30.000Z</time>
      </trkpt>
      <trkpt lat="48.00002" lon="6.95126">
        <ele>1030</ele>
        <time>2025-06-08T16:05:40.000Z</time>
      </trkpt>
      <trkpt lat="48.00004" lon="6.95133">
        <ele>1030</ele>
        <time>2025-06-08T16:05:44.000Z</time>
      </trkpt>
      <trkpt lat="48.00005" lon="6.95144">
        <ele>1031</ele>
        <time>2025-06-08T16:05:53.000Z</time>
      </trkpt>
      <trkpt lat="48.00002" lon="6.9515">
        <ele>1032</ele>
        <time>2025-06-08T16:05:54.000Z</time>
      </trkpt>
      <trkpt lat="48.00002" lon="6.95162">
        <ele>1033</ele>
        <time>2025-06-08T16:06:02.000Z</time>
      </trkpt>
      <trkpt lat="48.00002" lon="6.95173">
        <ele>1034</ele>
        <time>2025-06-08T16:06:08.000Z</time>
      </trkpt>
      <trkpt lat="48.00005" lon="6.95178">
        <ele>1034</ele>
        <time>2025-06-08T16:06:12.000Z</time>
      </trkpt>
      <trkpt lat="48.00001" lon="6.95182">
        <ele>1035</ele>
        <time>2025-06-08T16:06:17.000Z</time>
      </trkpt>
      <trkpt lat="48" lon="6.95189">
        <ele>1035</ele>
        <time>2025-06-08T16:06:20.000Z</time>
      </trkpt>
      <trkpt lat="47.99997" lon="6.95196">
        <ele>1036</ele>
        <time>2025-06-08T16:06:23.000Z</time>
      </trkpt>
      <trkpt lat="47.99998" lon="6.95203">
        <ele>1037</ele>
        <time>2025-06-08T16:06:28.000Z</time>
      </trkpt>
      <trkpt lat="47.99995" lon="6.95215">
        <ele>1038</ele>
        <time>2025-06-08T16:06:34.000Z</time>
      </trkpt>
      <trkpt lat="47.99999" lon="6.95239">
        <ele>1041</ele>
        <time>2025-06-08T16:06:57.000Z</time>
      </trkpt>
      <trkpt lat="47.99999" lon="6.95256">
        <ele>1043</ele>
        <time>2025-06-08T16:07:10.000Z</time>
      </trkpt>
      <trkpt lat="48.00002" lon="6.95277">
        <ele>1044</ele>
        <time>2025-06-08T16:07:18.000Z</time>
      </trkpt>
      <trkpt lat="48.00006" lon="6.95285">
        <ele>1045</ele>
        <time>2025-06-08T16:07:27.000Z</time>
      </trkpt>
      <trkpt lat="48.00007" lon="6.95296">
        <ele>1046</ele>
        <time>2025-06-08T16:07:32.000Z</time>
      </trkpt>
      <trkpt lat="48.00012" lon="6.953">
        <ele>1046</ele>
        <time>2025-06-08T16:07:36.000Z</time>
      </trkpt>
      <trkpt lat="48.00018" lon="6.95324">
        <ele>1049</ele>
        <time>2025-06-08T16:07:53.000Z</time>
      </trkpt>
      <trkpt lat="48.00016" lon="6.95338">
        <ele>1049</ele>
        <time>2025-06-08T16:07:58.000Z</time>
      </trkpt>
      <trkpt lat="48.00015" lon="6.95358">
        <ele>1051</ele>
        <time>2025-06-08T16:08:10.000Z</time>
      </trkpt>
      <trkpt lat="48.00012" lon="6.95364">
        <ele>1052</ele>
        <time>2025-06-08T16:08:14.000Z</time>
      </trkpt>
      <trkpt lat="48.00012" lon="6.95372">
        <ele>1052</ele>
        <time>2025-06-08T16:08:20.000Z</time>
      </trkpt>
      <trkpt lat="48.00011" lon="6.95385">
        <ele>1054</ele>
        <time>2025-06-08T16:08:28.000Z</time>
      </trkpt>
      <trkpt lat="48.00007" lon="6.95409">
        <ele>1056</ele>
        <time>2025-06-08T16:08:43.000Z</time>
      </trkpt>
      <trkpt lat="48.00007" lon="6.95419">
        <ele>1057</ele>
        <time>2025-06-08T16:08:50.000Z</time>
      </trkpt>
      <trkpt lat="48.00011" lon="6.95424">
        <ele>1057</ele>
        <time>2025-06-08T16:08:54.000Z</time>
      </trkpt>
      <trkpt lat="48.00015" lon="6.95437">
        <ele>1058</ele>
        <time>2025-06-08T16:09:03.000Z</time>
      </trkpt>
      <trkpt lat="48.00015" lon="6.95452">
        <ele>1059</ele>
        <time>2025-06-08T16:09:15.000Z</time>
      </trkpt>
      <trkpt lat="48.00012" lon="6.95462">
        <ele>1059</ele>
        <time>2025-06-08T16:09:20.000Z</time>
      </trkpt>
      <trkpt lat="48.00015" lon="6.95489">
        <ele>1061</ele>
        <time>2025-06-08T16:09:35.000Z</time>
      </trkpt>
      <trkpt lat="48.00018" lon="6.95496">
        <ele>1062</ele>
        <time>2025-06-08T16:09:41.000Z</time>
      </trkpt>
      <trkpt lat="48.00022" lon="6.95501">
        <ele>1062</ele>
        <time>2025-06-08T16:09:45.000Z</time>
      </trkpt>
      <trkpt lat="48.00022" lon="6.95508">
        <ele>1063</ele>
        <time>2025-06-08T16:09:48.000Z</time>
      </trkpt>
      <trkpt lat="48.00025" lon="6.95513">
        <ele>1063</ele>
        <time>2025-06-08T16:09:52.000Z</time>
      </trkpt>
      <trkpt lat="48.00026" lon="6.9552">
        <ele>1063</ele>
        <time>2025-06-08T16:09:57.000Z</time>
      </trkpt>
      <trkpt lat="48.00031" lon="6.95524">
        <ele>1064</ele>
        <time>2025-06-08T16:10:02.000Z</time>
      </trkpt>
      <trkpt lat="48.00038" lon="6.95534">
        <ele>1065</ele>
        <time>2025-06-08T16:10:11.000Z</time>
      </trkpt>
      <trkpt lat="48.00041" lon="6.95541">
        <ele>1066</ele>
        <time>2025-06-08T16:10:14.000Z</time>
      </trkpt>
      <trkpt lat="48.00041" lon="6.95548">
        <ele>1066</ele>
        <time>2025-06-08T16:10:18.000Z</time>
      </trkpt>
      <trkpt lat="48.00044" lon="6.95554">
        <ele>1066</ele>
        <time>2025-06-08T16:10:21.000Z</time>
      </trkpt>
      <trkpt lat="48.00048" lon="6.95558">
        <ele>1067</ele>
        <time>2025-06-08T16:10:26.000Z</time>
      </trkpt>
      <trkpt lat="48.00048" lon="6.95575">
        <ele>1068</ele>
        <time>2025-06-08T16:10:34.000Z</time>
      </trkpt>
      <trkpt lat="48.00052" lon="6.9558">
        <ele>1069</ele>
        <time>2025-06-08T16:10:39.000Z</time>
      </trkpt>
      <trkpt lat="48.00058" lon="6.95583">
        <ele>1070</ele>
        <time>2025-06-08T16:10:44.000Z</time>
      </trkpt>
      <trkpt lat="48.00065" lon="6.95595">
        <ele>1071</ele>
        <time>2025-06-08T16:10:54.000Z</time>
      </trkpt>
      <trkpt lat="48.00063" lon="6.95623">
        <ele>1072</ele>
        <time>2025-06-08T16:11:10.000Z</time>
      </trkpt>
      <trkpt lat="48.00066" lon="6.95629">
        <ele>1072</ele>
        <time>2025-06-08T16:11:14.000Z</time>
      </trkpt>
      <trkpt lat="48.00067" lon="6.95636">
        <ele>1072</ele>
        <time>2025-06-08T16:11:18.000Z</time>
      </trkpt>
      <trkpt lat="48.00065" lon="6.95642">
        <ele>1073</ele>
        <time>2025-06-08T16:11:23.000Z</time>
      </trkpt>
      <trkpt lat="48.00066" lon="6.9565">
        <ele>1073</ele>
        <time>2025-06-08T16:11:27.000Z</time>
      </trkpt>
      <trkpt lat="48.00065" lon="6.95655">
        <ele>1074</ele>
        <time>2025-06-08T16:11:32.000Z</time>
      </trkpt>
      <trkpt lat="48.00062" lon="6.95662">
        <ele>1074</ele>
        <time>2025-06-08T16:11:35.000Z</time>
      </trkpt>
      <trkpt lat="48.00063" lon="6.95671">
        <ele>1075</ele>
        <time>2025-06-08T16:11:41.000Z</time>
      </trkpt>
      <trkpt lat="48.00052" lon="6.95688">
        <ele>1077</ele>
        <time>2025-06-08T16:11:53.000Z</time>
      </trkpt>
      <trkpt lat="48.00051" lon="6.95696">
        <ele>1078</ele>
        <time>2025-06-08T16:12:01.000Z</time>
      </trkpt>
      <trkpt lat="48.00039" lon="6.95723">
        <ele>1080</ele>
        <time>2025-06-08T16:12:14.000Z</time>
      </trkpt>
      <trkpt lat="48.00038" lon="6.95729">
        <ele>1081</ele>
        <time>2025-06-08T16:12:18.000Z</time>
      </trkpt>
      <trkpt lat="48.00034" lon="6.95733">
        <ele>1082</ele>
        <time>2025-06-08T16:12:27.000Z</time>
      </trkpt>
      <trkpt lat="48.0003" lon="6.9574">
        <ele>1082</ele>
        <time>2025-06-08T16:12:31.000Z</time>
      </trkpt>
      <trkpt lat="48.00027" lon="6.95743">
        <ele>1083</ele>
        <time>2025-06-08T16:12:35.000Z</time>
      </trkpt>
      <trkpt lat="48.00015" lon="6.95763">
        <ele>1084</ele>
        <time>2025-06-08T16:12:46.000Z</time>
      </trkpt>
      <trkpt lat="48.00004" lon="6.95774">
        <ele>1085</ele>
        <time>2025-06-08T16:12:54.000Z</time>
      </trkpt>
      <trkpt lat="48" lon="6.9578">
        <ele>1086</ele>
        <time>2025-06-08T16:13:03.000Z</time>
      </trkpt>
      <trkpt lat="47.99988" lon="6.95798">
        <ele>1088</ele>
        <time>2025-06-08T16:13:16.000Z</time>
      </trkpt>
      <trkpt lat="47.99984" lon="6.95812">
        <ele>1089</ele>
        <time>2025-06-08T16:13:30.000Z</time>
      </trkpt>
      <trkpt lat="47.99981" lon="6.95817">
        <ele>1089</ele>
        <time>2025-06-08T16:13:33.000Z</time>
      </trkpt>
      <trkpt lat="47.99978" lon="6.95829">
        <ele>1092</ele>
        <time>2025-06-08T16:13:44.000Z</time>
      </trkpt>
      <trkpt lat="47.99972" lon="6.95839">
        <ele>1093</ele>
        <time>2025-06-08T16:13:53.000Z</time>
      </trkpt>
      <trkpt lat="47.99963" lon="6.95857">
        <ele>1094</ele>
        <time>2025-06-08T16:14:01.000Z</time>
      </trkpt>
      <trkpt lat="47.99959" lon="6.95868">
        <ele>1095</ele>
        <time>2025-06-08T16:14:09.000Z</time>
      </trkpt>
      <trkpt lat="47.99955" lon="6.95871">
        <ele>1095</ele>
        <time>2025-06-08T16:14:12.000Z</time>
      </trkpt>
      <trkpt lat="47.99945" lon="6.95874">
        <ele>1096</ele>
        <time>2025-06-08T16:14:20.000Z</time>
      </trkpt>
      <trkpt lat="47.99942" lon="6.9588">
        <ele>1096</ele>
        <time>2025-06-08T16:14:23.000Z</time>
      </trkpt>
      <trkpt lat="47.99936" lon="6.95882">
        <ele>1096</ele>
        <time>2025-06-08T16:14:29.000Z</time>
      </trkpt>
      <trkpt lat="47.99932" lon="6.95887">
        <ele>1096</ele>
        <time>2025-06-08T16:14:35.000Z</time>
      </trkpt>
      <trkpt lat="47.99912" lon="6.95903">
        <ele>1101</ele>
        <time>2025-06-08T16:14:56.000Z</time>
      </trkpt>
      <trkpt lat="47.99906" lon="6.95912">
        <ele>1101</ele>
        <time>2025-06-08T16:15:04.000Z</time>
      </trkpt>
      <trkpt lat="47.99902" lon="6.95917">
        <ele>1102</ele>
        <time>2025-06-08T16:15:07.000Z</time>
      </trkpt>
      <trkpt lat="47.99885" lon="6.95951">
        <ele>1108</ele>
        <time>2025-06-08T16:15:42.000Z</time>
      </trkpt>
      <trkpt lat="47.99869" lon="6.95992">
        <ele>1111</ele>
        <time>2025-06-08T16:16:10.000Z</time>
      </trkpt>
      <trkpt lat="47.99859" lon="6.96006">
        <ele>1112</ele>
        <time>2025-06-08T16:16:22.000Z</time>
      </trkpt>
      <trkpt lat="47.99855" lon="6.96011">
        <ele>1113</ele>
        <time>2025-06-08T16:16:26.000Z</time>
      </trkpt>
      <trkpt lat="47.99834" lon="6.96031">
        <ele>1113</ele>
        <time>2025-06-08T16:16:44.000Z</time>
      </trkpt>
      <trkpt lat="47.99816" lon="6.96053">
        <ele>1110</ele>
        <time>2025-06-08T16:17:04.000Z</time>
      </trkpt>
      <trkpt lat="47.99806" lon="6.9607">
        <ele>1107</ele>
        <time>2025-06-08T16:17:18.000Z</time>
      </trkpt>
      <trkpt lat="47.99801" lon="6.96085">
        <ele>1107</ele>
        <time>2025-06-08T16:17:29.000Z</time>
      </trkpt>
      <trkpt lat="47.99792" lon="6.96126">
        <ele>1100</ele>
        <time>2025-06-08T16:18:01.000Z</time>
      </trkpt>
      <trkpt lat="47.9979" lon="6.96133">
        <ele>1099</ele>
        <time>2025-06-08T16:18:07.000Z</time>
      </trkpt>
      <trkpt lat="47.99784" lon="6.96137">
        <ele>1096</ele>
        <time>2025-06-08T16:18:49.000Z</time>
      </trkpt>
      <trkpt lat="47.99784" lon="6.96134">
        <ele>1096</ele>
        <time>2025-06-08T16:19:07.000Z</time>
      </trkpt>
      <trkpt lat="47.99783" lon="6.96131">
        <ele>1096</ele>
        <time>2025-06-08T16:19:30.000Z</time>
      </trkpt>
      <trkpt lat="47.99778" lon="6.96132">
        <ele>1094</ele>
        <time>2025-06-08T16:19:53.000Z</time>
      </trkpt>
      <trkpt lat="47.99778" lon="6.96133">
        <ele>1094</ele>
        <time>2025-06-08T16:20:51.000Z</time>
      </trkpt>
      <trkpt lat="47.99774" lon="6.96128">
        <ele>1094</ele>
        <time>2025-06-08T16:21:09.000Z</time>
      </trkpt>
      <trkpt lat="47.99786" lon="6.96166">
        <ele>1091</ele>
        <time>2025-06-08T16:25:23.000Z</time>
      </trkpt>
      <trkpt lat="47.99786" lon="6.96183">
        <ele>1090</ele>
        <time>2025-06-08T16:25:32.000Z</time>
      </trkpt>
      <trkpt lat="47.99786" lon="6.96188">
        <ele>1091</ele>
        <time>2025-06-08T16:25:37.000Z</time>
      </trkpt>
      <trkpt lat="47.99785" lon="6.96204">
        <ele>1089</ele>
        <time>2025-06-08T16:25:46.000Z</time>
      </trkpt>
      <trkpt lat="47.99786" lon="6.96213">
        <ele>1088</ele>
        <time>2025-06-08T16:25:53.000Z</time>
      </trkpt>
      <trkpt lat="47.99788" lon="6.96232">
        <ele>1087</ele>
        <time>2025-06-08T16:26:05.000Z</time>
      </trkpt>
      <trkpt lat="47.9979" lon="6.96241">
        <ele>1085</ele>
        <time>2025-06-08T16:26:14.000Z</time>
      </trkpt>
      <trkpt lat="47.99795" lon="6.96254">
        <ele>1085</ele>
        <time>2025-06-08T16:26:22.000Z</time>
      </trkpt>
      <trkpt lat="47.99807" lon="6.96273">
        <ele>1083</ele>
        <time>2025-06-08T16:26:37.000Z</time>
      </trkpt>
      <trkpt lat="47.99812" lon="6.96272">
        <ele>1083</ele>
        <time>2025-06-08T16:26:40.000Z</time>
      </trkpt>
      <trkpt lat="47.99814" lon="6.96278">
        <ele>1083</ele>
        <time>2025-06-08T16:26:44.000Z</time>
      </trkpt>
      <trkpt lat="47.99859" lon="6.96299">
        <ele>1078</ele>
        <time>2025-06-08T16:27:19.000Z</time>
      </trkpt>
      <trkpt lat="47.99874" lon="6.96308">
        <ele>1077</ele>
        <time>2025-06-08T16:27:30.000Z</time>
      </trkpt>
      <trkpt lat="47.99879" lon="6.96312">
        <ele>1075</ele>
        <time>2025-06-08T16:27:34.000Z</time>
      </trkpt>
      <trkpt lat="47.99883" lon="6.96315">
        <ele>1076</ele>
        <time>2025-06-08T16:27:38.000Z</time>
      </trkpt>
      <trkpt lat="47.99887" lon="6.96318">
        <ele>1074</ele>
        <time>2025-06-08T16:27:43.000Z</time>
      </trkpt>
      <trkpt lat="47.99925" lon="6.9635">
        <ele>1069</ele>
        <time>2025-06-08T16:28:16.000Z</time>
      </trkpt>
      <trkpt lat="47.99934" lon="6.96359">
        <ele>1068</ele>
        <time>2025-06-08T16:28:25.000Z</time>
      </trkpt>
      <trkpt lat="47.99972" lon="6.9639">
        <ele>1061</ele>
        <time>2025-06-08T16:28:58.000Z</time>
      </trkpt>
      <trkpt lat="47.99976" lon="6.96394">
        <ele>1060</ele>
        <time>2025-06-08T16:29:02.000Z</time>
      </trkpt>
      <trkpt lat="47.99982" lon="6.96398">
        <ele>1059</ele>
        <time>2025-06-08T16:29:08.000Z</time>
      </trkpt>
      <trkpt lat="48.00016" lon="6.96425">
        <ele>1054</ele>
        <time>2025-06-08T16:29:35.000Z</time>
      </trkpt>
      <trkpt lat="48.00041" lon="6.96434">
        <ele>1051</ele>
        <time>2025-06-08T16:29:54.000Z</time>
      </trkpt>
      <trkpt lat="48.00061" lon="6.96437">
        <ele>1049</ele>
        <time>2025-06-08T16:30:07.000Z</time>
      </trkpt>
      <trkpt lat="48.00067" lon="6.96437">
        <ele>1049</ele>
        <time>2025-06-08T16:30:10.000Z</time>
      </trkpt>
      <trkpt lat="48.00106" lon="6.96435">
        <ele>1053</ele>
        <time>2025-06-08T16:30:41.000Z</time>
      </trkpt>
      <trkpt lat="48.00144" lon="6.96432">
        <ele>1057</ele>
        <time>2025-06-08T16:31:16.000Z</time>
      </trkpt>
      <trkpt lat="48.0016" lon="6.9643">
        <ele>1055</ele>
        <time>2025-06-08T16:31:27.000Z</time>
      </trkpt>
      <trkpt lat="48.00171" lon="6.9643">
        <ele>1055</ele>
        <time>2025-06-08T16:31:36.000Z</time>
      </trkpt>
      <trkpt lat="48.00186" lon="6.96432">
        <ele>1055</ele>
        <time>2025-06-08T16:31:48.000Z</time>
      </trkpt>
      <trkpt lat="48.00232" lon="6.96455">
        <ele>1052</ele>
        <time>2025-06-08T16:32:23.000Z</time>
      </trkpt>
      <trkpt lat="48.00248" lon="6.96464">
        <ele>1050</ele>
        <time>2025-06-08T16:32:39.000Z</time>
      </trkpt>
      <trkpt lat="48.00256" lon="6.96474">
        <ele>1048</ele>
        <time>2025-06-08T16:32:45.000Z</time>
      </trkpt>
      <trkpt lat="48.0026" lon="6.96481">
        <ele>1048</ele>
        <time>2025-06-08T16:32:50.000Z</time>
      </trkpt>
      <trkpt lat="48.00266" lon="6.96495">
        <ele>1047</ele>
        <time>2025-06-08T16:32:59.000Z</time>
      </trkpt>
      <trkpt lat="48.00286" lon="6.96526">
        <ele>1041</ele>
        <time>2025-06-08T16:33:28.000Z</time>
      </trkpt>
      <trkpt lat="48.00291" lon="6.96529">
        <ele>1041</ele>
        <time>2025-06-08T16:33:31.000Z</time>
      </trkpt>
      <trkpt lat="48.00314" lon="6.96547">
        <ele>1035</ele>
        <time>2025-06-08T16:33:58.000Z</time>
      </trkpt>
      <trkpt lat="48.00335" lon="6.96575">
        <ele>1029</ele>
        <time>2025-06-08T16:34:26.000Z</time>
      </trkpt>
      <trkpt lat="48.00337" lon="6.96581">
        <ele>1029</ele>
        <time>2025-06-08T16:34:30.000Z</time>
      </trkpt>
      <trkpt lat="48.00344" lon="6.96592">
        <ele>1027</ele>
        <time>2025-06-08T16:34:40.000Z</time>
      </trkpt>
      <trkpt lat="48.00363" lon="6.96648">
        <ele>1022</ele>
        <time>2025-06-08T16:35:11.000Z</time>
      </trkpt>
      <trkpt lat="48.00369" lon="6.96667">
        <ele>1021</ele>
        <time>2025-06-08T16:35:23.000Z</time>
      </trkpt>
      <trkpt lat="48.0038" lon="6.96682">
        <ele>1021</ele>
        <time>2025-06-08T16:35:34.000Z</time>
      </trkpt>
      <trkpt lat="48.00385" lon="6.96688">
        <ele>1020</ele>
        <time>2025-06-08T16:35:40.000Z</time>
      </trkpt>
      <trkpt lat="48.00388" lon="6.96697">
        <ele>1020</ele>
        <time>2025-06-08T16:35:46.000Z</time>
      </trkpt>
      <trkpt lat="48.00391" lon="6.96709">
        <ele>1020</ele>
        <time>2025-06-08T16:35:51.000Z</time>
      </trkpt>
      <trkpt lat="48.00394" lon="6.96714">
        <ele>1020</ele>
        <time>2025-06-08T16:35:53.000Z</time>
      </trkpt>
      <trkpt lat="48.00394" lon="6.96728">
        <ele>1021</ele>
        <time>2025-06-08T16:35:59.000Z</time>
      </trkpt>
      <trkpt lat="48.00395" lon="6.96734">
        <ele>1022</ele>
        <time>2025-06-08T16:36:03.000Z</time>
      </trkpt>
      <trkpt lat="48.00414" lon="6.96765">
        <ele>1024</ele>
        <time>2025-06-08T16:36:32.000Z</time>
      </trkpt>
      <trkpt lat="48.00422" lon="6.96796">
        <ele>1027</ele>
        <time>2025-06-08T16:36:50.000Z</time>
      </trkpt>
      <trkpt lat="48.00421" lon="6.96805">
        <ele>1028</ele>
        <time>2025-06-08T16:36:57.000Z</time>
      </trkpt>
      <trkpt lat="48.00424" lon="6.96813">
        <ele>1029</ele>
        <time>2025-06-08T16:37:08.000Z</time>
      </trkpt>
      <trkpt lat="48.00428" lon="6.96816">
        <ele>1029</ele>
        <time>2025-06-08T16:37:12.000Z</time>
      </trkpt>
      <trkpt lat="48.00437" lon="6.96818">
        <ele>1029</ele>
        <time>2025-06-08T16:37:20.000Z</time>
      </trkpt>
      <trkpt lat="48.00445" lon="6.96818">
        <ele>1029</ele>
        <time>2025-06-08T16:37:26.000Z</time>
      </trkpt>
      <trkpt lat="48.00449" lon="6.96815">
        <ele>1029</ele>
        <time>2025-06-08T16:37:29.000Z</time>
      </trkpt>
      <trkpt lat="48.00454" lon="6.96813">
        <ele>1030</ele>
        <time>2025-06-08T16:37:33.000Z</time>
      </trkpt>
      <trkpt lat="48.00462" lon="6.96816">
        <ele>1031</ele>
        <time>2025-06-08T16:37:39.000Z</time>
      </trkpt>
      <trkpt lat="48.00465" lon="6.96824">
        <ele>1033</ele>
        <time>2025-06-08T16:37:47.000Z</time>
      </trkpt>
      <trkpt lat="48.00473" lon="6.96817">
        <ele>1036</ele>
        <time>2025-06-08T16:38:03.000Z</time>
      </trkpt>
      <trkpt lat="48.00478" lon="6.96812">
        <ele>1037</ele>
        <time>2025-06-08T16:38:06.000Z</time>
      </trkpt>
      <trkpt lat="48.00482" lon="6.96816">
        <ele>1038</ele>
        <time>2025-06-08T16:38:10.000Z</time>
      </trkpt>
      <trkpt lat="48.00481" lon="6.96827">
        <ele>1038</ele>
        <time>2025-06-08T16:38:13.000Z</time>
      </trkpt>
      <trkpt lat="48.00476" lon="6.96841">
        <ele>1040</ele>
        <time>2025-06-08T16:38:19.000Z</time>
      </trkpt>
      <trkpt lat="48.00483" lon="6.96861">
        <ele>1043</ele>
        <time>2025-06-08T16:38:32.000Z</time>
      </trkpt>
      <trkpt lat="48.00492" lon="6.96869">
        <ele>1047</ele>
        <time>2025-06-08T16:38:49.000Z</time>
      </trkpt>
      <trkpt lat="48.00497" lon="6.96872">
        <ele>1047</ele>
        <time>2025-06-08T16:38:53.000Z</time>
      </trkpt>
      <trkpt lat="48.00513" lon="6.96886">
        <ele>1050</ele>
        <time>2025-06-08T16:39:07.000Z</time>
      </trkpt>
      <trkpt lat="48.00513" lon="6.96895">
        <ele>1051</ele>
        <time>2025-06-08T16:39:11.000Z</time>
      </trkpt>
      <trkpt lat="48.00522" lon="6.96918">
        <ele>1057</ele>
        <time>2025-06-08T16:39:34.000Z</time>
      </trkpt>
      <trkpt lat="48.0052" lon="6.96911">
        <ele>1060</ele>
        <time>2025-06-08T16:39:48.000Z</time>
      </trkpt>
      <trkpt lat="48.00517" lon="6.96904">
        <ele>1061</ele>
        <time>2025-06-08T16:39:51.000Z</time>
      </trkpt>
      <trkpt lat="48.00515" lon="6.96894">
        <ele>1062</ele>
        <time>2025-06-08T16:39:57.000Z</time>
      </trkpt>
      <trkpt lat="48.00516" lon="6.96889">
        <ele>1063</ele>
        <time>2025-06-08T16:40:01.000Z</time>
      </trkpt>
      <trkpt lat="48.00521" lon="6.96893">
        <ele>1065</ele>
        <time>2025-06-08T16:40:06.000Z</time>
      </trkpt>
      <trkpt lat="48.00527" lon="6.96908">
        <ele>1066</ele>
        <time>2025-06-08T16:40:12.000Z</time>
      </trkpt>
      <trkpt lat="48.00532" lon="6.96931">
        <ele>1069</ele>
        <time>2025-06-08T16:40:27.000Z</time>
      </trkpt>
      <trkpt lat="48.00536" lon="6.9694">
        <ele>1070</ele>
        <time>2025-06-08T16:40:35.000Z</time>
      </trkpt>
      <trkpt lat="48.00539" lon="6.96929">
        <ele>1074</ele>
        <time>2025-06-08T16:40:47.000Z</time>
      </trkpt>
      <trkpt lat="48.00541" lon="6.96923">
        <ele>1075</ele>
        <time>2025-06-08T16:40:53.000Z</time>
      </trkpt>
      <trkpt lat="48.0054" lon="6.96916">
        <ele>1076</ele>
        <time>2025-06-08T16:40:57.000Z</time>
      </trkpt>
      <trkpt lat="48.0054" lon="6.96908">
        <ele>1077</ele>
        <time>2025-06-08T16:41:04.000Z</time>
      </trkpt>
      <trkpt lat="48.00547" lon="6.96912">
        <ele>1079</ele>
        <time>2025-06-08T16:41:12.000Z</time>
      </trkpt>
      <trkpt lat="48.0055" lon="6.96929">
        <ele>1080</ele>
        <time>2025-06-08T16:41:17.000Z</time>
      </trkpt>
      <trkpt lat="48.00554" lon="6.96922">
        <ele>1081</ele>
        <time>2025-06-08T16:41:25.000Z</time>
      </trkpt>
      <trkpt lat="48.00557" lon="6.96907">
        <ele>1083</ele>
        <time>2025-06-08T16:41:32.000Z</time>
      </trkpt>
      <trkpt lat="48.00561" lon="6.96916">
        <ele>1086</ele>
        <time>2025-06-08T16:41:43.000Z</time>
      </trkpt>
      <trkpt lat="48.00561" lon="6.96922">
        <ele>1086</ele>
        <time>2025-06-08T16:41:45.000Z</time>
      </trkpt>
      <trkpt lat="48.00563" lon="6.96932">
        <ele>1087</ele>
        <time>2025-06-08T16:41:50.000Z</time>
      </trkpt>
      <trkpt lat="48.00568" lon="6.96926">
        <ele>1090</ele>
        <time>2025-06-08T16:42:04.000Z</time>
      </trkpt>
      <trkpt lat="48.00568" lon="6.96918">
        <ele>1091</ele>
        <time>2025-06-08T16:42:09.000Z</time>
      </trkpt>
      <trkpt lat="48.00571" lon="6.96909">
        <ele>1092</ele>
        <time>2025-06-08T16:42:19.000Z</time>
      </trkpt>
      <trkpt lat="48.00573" lon="6.969">
        <ele>1094</ele>
        <time>2025-06-08T16:42:27.000Z</time>
      </trkpt>
      <trkpt lat="48.00577" lon="6.96896">
        <ele>1096</ele>
        <time>2025-06-08T16:42:33.000Z</time>
      </trkpt>
      <trkpt lat="48.00581" lon="6.96903">
        <ele>1097</ele>
        <time>2025-06-08T16:42:38.000Z</time>
      </trkpt>
      <trkpt lat="48.00584" lon="6.96915">
        <ele>1098</ele>
        <time>2025-06-08T16:42:41.000Z</time>
      </trkpt>
      <trkpt lat="48.00582" lon="6.96928">
        <ele>1098</ele>
        <time>2025-06-08T16:42:45.000Z</time>
      </trkpt>
      <trkpt lat="48.00581" lon="6.96934">
        <ele>1099</ele>
        <time>2025-06-08T16:42:49.000Z</time>
      </trkpt>
      <trkpt lat="48.00581" lon="6.96942">
        <ele>1100</ele>
        <time>2025-06-08T16:42:57.000Z</time>
      </trkpt>
      <trkpt lat="48.00579" lon="6.96955">
        <ele>1102</ele>
        <time>2025-06-08T16:43:04.000Z</time>
      </trkpt>
      <trkpt lat="48.00577" lon="6.96963">
        <ele>1102</ele>
        <time>2025-06-08T16:43:06.000Z</time>
      </trkpt>
      <trkpt lat="48.00587" lon="6.96944">
        <ele>1104</ele>
        <time>2025-06-08T16:43:15.000Z</time>
      </trkpt>
      <trkpt lat="48.00588" lon="6.96937">
        <ele>1105</ele>
        <time>2025-06-08T16:43:17.000Z</time>
      </trkpt>
      <trkpt lat="48.00593" lon="6.96925">
        <ele>1106</ele>
        <time>2025-06-08T16:43:26.000Z</time>
      </trkpt>
      <trkpt lat="48.00596" lon="6.96921">
        <ele>1107</ele>
        <time>2025-06-08T16:43:30.000Z</time>
      </trkpt>
      <trkpt lat="48.00597" lon="6.96913">
        <ele>1108</ele>
        <time>2025-06-08T16:43:35.000Z</time>
      </trkpt>
      <trkpt lat="48.006" lon="6.96905">
        <ele>1109</ele>
        <time>2025-06-08T16:43:42.000Z</time>
      </trkpt>
      <trkpt lat="48.00604" lon="6.96898">
        <ele>1111</ele>
        <time>2025-06-08T16:43:50.000Z</time>
      </trkpt>
      <trkpt lat="48.00607" lon="6.96884">
        <ele>1112</ele>
        <time>2025-06-08T16:43:57.000Z</time>
      </trkpt>
      <trkpt lat="48.0061" lon="6.96875">
        <ele>1113</ele>
        <time>2025-06-08T16:44:05.000Z</time>
      </trkpt>
      <trkpt lat="48.00616" lon="6.96882">
        <ele>1114</ele>
        <time>2025-06-08T16:44:12.000Z</time>
      </trkpt>
      <trkpt lat="48.0062" lon="6.96886">
        <ele>1115</ele>
        <time>2025-06-08T16:44:16.000Z</time>
      </trkpt>
      <trkpt lat="48.00626" lon="6.96897">
        <ele>1117</ele>
        <time>2025-06-08T16:44:24.000Z</time>
      </trkpt>
      <trkpt lat="48.0063" lon="6.96898">
        <ele>1118</ele>
        <time>2025-06-08T16:44:28.000Z</time>
      </trkpt>
      <trkpt lat="48.00634" lon="6.96902">
        <ele>1119</ele>
        <time>2025-06-08T16:44:33.000Z</time>
      </trkpt>
      <trkpt lat="48.00636" lon="6.9691">
        <ele>1120</ele>
        <time>2025-06-08T16:44:38.000Z</time>
      </trkpt>
      <trkpt lat="48.00637" lon="6.96916">
        <ele>1121</ele>
        <time>2025-06-08T16:44:42.000Z</time>
      </trkpt>
      <trkpt lat="48.00636" lon="6.96923">
        <ele>1121</ele>
        <time>2025-06-08T16:44:45.000Z</time>
      </trkpt>
      <trkpt lat="48.00638" lon="6.96928">
        <ele>1121</ele>
        <time>2025-06-08T16:44:49.000Z</time>
      </trkpt>
      <trkpt lat="48.0064" lon="6.96934">
        <ele>1122</ele>
        <time>2025-06-08T16:44:55.000Z</time>
      </trkpt>
      <trkpt lat="48.00641" lon="6.96943">
        <ele>1124</ele>
        <time>2025-06-08T16:45:01.000Z</time>
      </trkpt>
      <trkpt lat="48.0064" lon="6.9695">
        <ele>1125</ele>
        <time>2025-06-08T16:45:04.000Z</time>
      </trkpt>
      <trkpt lat="48.00642" lon="6.96964">
        <ele>1127</ele>
        <time>2025-06-08T16:45:14.000Z</time>
      </trkpt>
      <trkpt lat="48.00651" lon="6.96976">
        <ele>1130</ele>
        <time>2025-06-08T16:45:28.000Z</time>
      </trkpt>
      <trkpt lat="48.00652" lon="6.96983">
        <ele>1130</ele>
        <time>2025-06-08T16:45:32.000Z</time>
      </trkpt>
      <trkpt lat="48.0065" lon="6.96994">
        <ele>1132</ele>
        <time>2025-06-08T16:45:41.000Z</time>
      </trkpt>
      <trkpt lat="48.00652" lon="6.97002">
        <ele>1134</ele>
        <time>2025-06-08T16:45:48.000Z</time>
      </trkpt>
      <trkpt lat="48.00654" lon="6.9701">
        <ele>1135</ele>
        <time>2025-06-08T16:45:53.000Z</time>
      </trkpt>
      <trkpt lat="48.00652" lon="6.97016">
        <ele>1135</ele>
        <time>2025-06-08T16:45:56.000Z</time>
      </trkpt>
      <trkpt lat="48.00652" lon="6.97031">
        <ele>1136</ele>
        <time>2025-06-08T16:46:06.000Z</time>
      </trkpt>
      <trkpt lat="48.00665" lon="6.9705">
        <ele>1141</ele>
        <time>2025-06-08T16:46:29.000Z</time>
      </trkpt>
      <trkpt lat="48.00668" lon="6.97057">
        <ele>1141</ele>
        <time>2025-06-08T16:46:32.000Z</time>
      </trkpt>
      <trkpt lat="48.00667" lon="6.97066">
        <ele>1142</ele>
        <time>2025-06-08T16:46:38.000Z</time>
      </trkpt>
      <trkpt lat="48.00675" lon="6.97065">
        <ele>1142</ele>
        <time>2025-06-08T16:46:49.000Z</time>
      </trkpt>
      <trkpt lat="48.00691" lon="6.97094">
        <ele>1144</ele>
        <time>2025-06-08T16:47:10.000Z</time>
      </trkpt>
      <trkpt lat="48.00687" lon="6.97101">
        <ele>1146</ele>
        <time>2025-06-08T16:47:17.000Z</time>
      </trkpt>
      <trkpt lat="48.00695" lon="6.97105">
        <ele>1146</ele>
        <time>2025-06-08T16:47:27.000Z</time>
      </trkpt>
      <trkpt lat="48.00702" lon="6.9712">
        <ele>1148</ele>
        <time>2025-06-08T16:47:38.000Z</time>
      </trkpt>
      <trkpt lat="48.0071" lon="6.9713">
        <ele>1150</ele>
        <time>2025-06-08T16:47:47.000Z</time>
      </trkpt>
      <trkpt lat="48.00711" lon="6.97137">
        <ele>1151</ele>
        <time>2025-06-08T16:47:53.000Z</time>
      </trkpt>
      <trkpt lat="48.00715" lon="6.97142">
        <ele>1152</ele>
        <time>2025-06-08T16:47:57.000Z</time>
      </trkpt>
      <trkpt lat="48.0072" lon="6.97146">
        <ele>1153</ele>
        <time>2025-06-08T16:48:01.000Z</time>
      </trkpt>
      <trkpt lat="48.00725" lon="6.97153">
        <ele>1154</ele>
        <time>2025-06-08T16:48:07.000Z</time>
      </trkpt>
      <trkpt lat="48.00729" lon="6.97156">
        <ele>1154</ele>
        <time>2025-06-08T16:48:10.000Z</time>
      </trkpt>
      <trkpt lat="48.00732" lon="6.97161">
        <ele>1154</ele>
        <time>2025-06-08T16:48:14.000Z</time>
      </trkpt>
      <trkpt lat="48.00742" lon="6.9717">
        <ele>1155</ele>
        <time>2025-06-08T16:48:25.000Z</time>
      </trkpt>
      <trkpt lat="48.00747" lon="6.97174">
        <ele>1156</ele>
        <time>2025-06-08T16:48:28.000Z</time>
      </trkpt>
      <trkpt lat="48.00749" lon="6.9718">
        <ele>1156</ele>
        <time>2025-06-08T16:48:32.000Z</time>
      </trkpt>
      <trkpt lat="48.00753" lon="6.97184">
        <ele>1157</ele>
        <time>2025-06-08T16:48:37.000Z</time>
      </trkpt>
      <trkpt lat="48.00757" lon="6.97188">
        <ele>1157</ele>
        <time>2025-06-08T16:48:41.000Z</time>
      </trkpt>
      <trkpt lat="48.00749" lon="6.972">
        <ele>1159</ele>
        <time>2025-06-08T16:48:51.000Z</time>
      </trkpt>
      <trkpt lat="48.00748" lon="6.97207">
        <ele>1161</ele>
        <time>2025-06-08T16:49:00.000Z</time>
      </trkpt>
      <trkpt lat="48.00744" lon="6.97214">
        <ele>1162</ele>
        <time>2025-06-08T16:49:02.000Z</time>
      </trkpt>
      <trkpt lat="48.00749" lon="6.97226">
        <ele>1163</ele>
        <time>2025-06-08T16:49:11.000Z</time>
      </trkpt>
      <trkpt lat="48.00751" lon="6.97235">
        <ele>1164</ele>
        <time>2025-06-08T16:49:16.000Z</time>
      </trkpt>
      <trkpt lat="48.00756" lon="6.97247">
        <ele>1166</ele>
        <time>2025-06-08T16:49:25.000Z</time>
      </trkpt>
      <trkpt lat="48.00761" lon="6.9725">
        <ele>1166</ele>
        <time>2025-06-08T16:49:29.000Z</time>
      </trkpt>
      <trkpt lat="48.00767" lon="6.97249">
        <ele>1167</ele>
        <time>2025-06-08T16:49:33.000Z</time>
      </trkpt>
      <trkpt lat="48.00771" lon="6.97254">
        <ele>1167</ele>
        <time>2025-06-08T16:49:37.000Z</time>
      </trkpt>
      <trkpt lat="48.00782" lon="6.97283">
        <ele>1172</ele>
        <time>2025-06-08T16:49:59.000Z</time>
      </trkpt>
      <trkpt lat="48.00789" lon="6.97287">
        <ele>1174</ele>
        <time>2025-06-08T16:50:04.000Z</time>
      </trkpt>
      <trkpt lat="48.00789" lon="6.97297">
        <ele>1175</ele>
        <time>2025-06-08T16:50:10.000Z</time>
      </trkpt>
      <trkpt lat="48.00791" lon="6.97312">
        <ele>1178</ele>
        <time>2025-06-08T16:50:22.000Z</time>
      </trkpt>
      <trkpt lat="48.00804" lon="6.97316">
        <ele>1182</ele>
        <time>2025-06-08T16:50:48.000Z</time>
      </trkpt>
      <trkpt lat="48.00813" lon="6.97314">
        <ele>1183</ele>
        <time>2025-06-08T16:51:00.000Z</time>
      </trkpt>
      <trkpt lat="48.00813" lon="6.9732">
        <ele>1184</ele>
        <time>2025-06-08T16:51:04.000Z</time>
      </trkpt>
      <trkpt lat="48.00804" lon="6.97337">
        <ele>1185</ele>
        <time>2025-06-08T16:51:14.000Z</time>
      </trkpt>
      <trkpt lat="48.00798" lon="6.97367">
        <ele>1187</ele>
        <time>2025-06-08T16:51:30.000Z</time>
      </trkpt>
      <trkpt lat="48.00796" lon="6.9739">
        <ele>1188</ele>
        <time>2025-06-08T16:51:44.000Z</time>
      </trkpt>
      <trkpt lat="48.00793" lon="6.974">
        <ele>1188</ele>
        <time>2025-06-08T16:51:50.000Z</time>
      </trkpt>
      <trkpt lat="48.00792" lon="6.97408">
        <ele>1189</ele>
        <time>2025-06-08T16:51:53.000Z</time>
      </trkpt>
      <trkpt lat="48.00792" lon="6.97415">
        <ele>1189</ele>
        <time>2025-06-08T16:51:57.000Z</time>
      </trkpt>
      <trkpt lat="48.00798" lon="6.9742">
        <ele>1190</ele>
        <time>2025-06-08T16:52:01.000Z</time>
      </trkpt>
      <trkpt lat="48.00801" lon="6.9743">
        <ele>1191</ele>
        <time>2025-06-08T16:52:09.000Z</time>
      </trkpt>
      <trkpt lat="48.008" lon="6.97445">
        <ele>1193</ele>
        <time>2025-06-08T16:52:16.000Z</time>
      </trkpt>
      <trkpt lat="48.00798" lon="6.97453">
        <ele>1193</ele>
        <time>2025-06-08T16:52:19.000Z</time>
      </trkpt>
      <trkpt lat="48.00795" lon="6.97457">
        <ele>1193</ele>
        <time>2025-06-08T16:52:21.000Z</time>
      </trkpt>
      <trkpt lat="48.00795" lon="6.97464">
        <ele>1194</ele>
        <time>2025-06-08T16:52:24.000Z</time>
      </trkpt>
      <trkpt lat="48.00793" lon="6.97475">
        <ele>1194</ele>
        <time>2025-06-08T16:52:30.000Z</time>
      </trkpt>
      <trkpt lat="48.00786" lon="6.97487">
        <ele>1195</ele>
        <time>2025-06-08T16:52:37.000Z</time>
      </trkpt>
      <trkpt lat="48.00783" lon="6.97491">
        <ele>1195</ele>
        <time>2025-06-08T16:52:40.000Z</time>
      </trkpt>
      <trkpt lat="48.00781" lon="6.975">
        <ele>1195</ele>
        <time>2025-06-08T16:52:45.000Z</time>
      </trkpt>
      <trkpt lat="48.00778" lon="6.97503">
        <ele>1196</ele>
        <time>2025-06-08T16:52:49.000Z</time>
      </trkpt>
      <trkpt lat="48.00775" lon="6.97509">
        <ele>1196</ele>
        <time>2025-06-08T16:53:41.000Z</time>
      </trkpt>
      <trkpt lat="48.00755" lon="6.97548">
        <ele>1196</ele>
        <time>2025-06-08T17:02:38.000Z</time>
      </trkpt>
      <trkpt lat="48.00754" lon="6.97549">
        <ele>1196</ele>
        <time>2025-06-08T17:02:39.000Z</time>
      </trkpt>
      <trkpt lat="48.00747" lon="6.97563">
        <ele>1197</ele>
        <time>2025-06-08T17:02:49.000Z</time>
      </trkpt>
      <trkpt lat="48.00747" lon="6.97573">
        <ele>1197</ele>
        <time>2025-06-08T17:02:53.000Z</time>
      </trkpt>
      <trkpt lat="48.00745" lon="6.97582">
        <ele>1197</ele>
        <time>2025-06-08T17:02:59.000Z</time>
      </trkpt>
      <trkpt lat="48.00739" lon="6.97587">
        <ele>1198</ele>
        <time>2025-06-08T17:03:04.000Z</time>
      </trkpt>
      <trkpt lat="48.00736" lon="6.97592">
        <ele>1198</ele>
        <time>2025-06-08T17:03:06.000Z</time>
      </trkpt>
      <trkpt lat="48.00735" lon="6.97598">
        <ele>1199</ele>
        <time>2025-06-08T17:03:10.000Z</time>
      </trkpt>
      <trkpt lat="48.00734" lon="6.97614">
        <ele>1201</ele>
        <time>2025-06-08T17:03:21.000Z</time>
      </trkpt>
      <trkpt lat="48.00732" lon="6.97619">
        <ele>1201</ele>
        <time>2025-06-08T17:03:25.000Z</time>
      </trkpt>
      <trkpt lat="48.00729" lon="6.97625">
        <ele>1202</ele>
        <time>2025-06-08T17:03:29.000Z</time>
      </trkpt>
      <trkpt lat="48.00723" lon="6.9764">
        <ele>1201</ele>
        <time>2025-06-08T17:03:39.000Z</time>
      </trkpt>
      <trkpt lat="48.00721" lon="6.97646">
        <ele>1201</ele>
        <time>2025-06-08T17:03:43.000Z</time>
      </trkpt>
      <trkpt lat="48.007" lon="6.97699">
        <ele>1199</ele>
        <time>2025-06-08T17:04:17.000Z</time>
      </trkpt>
      <trkpt lat="48.00698" lon="6.97706">
        <ele>1199</ele>
        <time>2025-06-08T17:04:21.000Z</time>
      </trkpt>
      <trkpt lat="48.00677" lon="6.97766">
        <ele>1198</ele>
        <time>2025-06-08T17:04:54.000Z</time>
      </trkpt>
      <trkpt lat="48.00674" lon="6.97772">
        <ele>1198</ele>
        <time>2025-06-08T17:04:58.000Z</time>
      </trkpt>
      <trkpt lat="48.00667" lon="6.97785">
        <ele>1197</ele>
        <time>2025-06-08T17:05:06.000Z</time>
      </trkpt>
      <trkpt lat="48.00661" lon="6.97798">
        <ele>1197</ele>
        <time>2025-06-08T17:05:14.000Z</time>
      </trkpt>
      <trkpt lat="48.00642" lon="6.97827">
        <ele>1196</ele>
        <time>2025-06-08T17:05:34.000Z</time>
      </trkpt>
      <trkpt lat="48.00638" lon="6.97832">
        <ele>1196</ele>
        <time>2025-06-08T17:05:38.000Z</time>
      </trkpt>
      <trkpt lat="48.00635" lon="6.97837">
        <ele>1196</ele>
        <time>2025-06-08T17:05:41.000Z</time>
      </trkpt>
      <trkpt lat="48.00632" lon="6.97841">
        <ele>1196</ele>
        <time>2025-06-08T17:05:44.000Z</time>
      </trkpt>
      <trkpt lat="48.00628" lon="6.97845">
        <ele>1196</ele>
        <time>2025-06-08T17:05:47.000Z</time>
      </trkpt>
      <trkpt lat="48.00624" lon="6.9785">
        <ele>1196</ele>
        <time>2025-06-08T17:05:51.000Z</time>
      </trkpt>
      <trkpt lat="48.00616" lon="6.97858">
        <ele>1196</ele>
        <time>2025-06-08T17:05:59.000Z</time>
      </trkpt>
      <trkpt lat="48.00611" lon="6.97862">
        <ele>1195</ele>
        <time>2025-06-08T17:06:03.000Z</time>
      </trkpt>
      <trkpt lat="48.0059" lon="6.97874">
        <ele>1195</ele>
        <time>2025-06-08T17:06:21.000Z</time>
      </trkpt>
      <trkpt lat="48.00574" lon="6.97877">
        <ele>1196</ele>
        <time>2025-06-08T17:06:33.000Z</time>
      </trkpt>
      <trkpt lat="48.0057" lon="6.97877">
        <ele>1195</ele>
        <time>2025-06-08T17:06:37.000Z</time>
      </trkpt>
      <trkpt lat="48.00564" lon="6.97875">
        <ele>1196</ele>
        <time>2025-06-08T17:06:41.000Z</time>
      </trkpt>
      <trkpt lat="48.00544" lon="6.97872">
        <ele>1195</ele>
        <time>2025-06-08T17:06:56.000Z</time>
      </trkpt>
      <trkpt lat="48.00518" lon="6.97862">
        <ele>1197</ele>
        <time>2025-06-08T17:07:16.000Z</time>
      </trkpt>
      <trkpt lat="48.00508" lon="6.97855">
        <ele>1197</ele>
        <time>2025-06-08T17:07:24.000Z</time>
      </trkpt>
      <trkpt lat="48.00504" lon="6.97859">
        <ele>1197</ele>
        <time>2025-06-08T17:07:27.000Z</time>
      </trkpt>
      <trkpt lat="48.00499" lon="6.97863">
        <ele>1197</ele>
        <time>2025-06-08T17:07:31.000Z</time>
      </trkpt>
      <trkpt lat="48.00499" lon="6.9787">
        <ele>1197</ele>
        <time>2025-06-08T17:07:34.000Z</time>
      </trkpt>
      <trkpt lat="48.00503" lon="6.97874">
        <ele>1197</ele>
        <time>2025-06-08T17:07:36.000Z</time>
      </trkpt>
      <trkpt lat="48.00516" lon="6.97887">
        <ele>1199</ele>
        <time>2025-06-08T17:07:47.000Z</time>
      </trkpt>
      <trkpt lat="48.00523" lon="6.97899">
        <ele>1200</ele>
        <time>2025-06-08T17:07:55.000Z</time>
      </trkpt>
      <trkpt lat="48.00535" lon="6.97955">
        <ele>1205</ele>
        <time>2025-06-08T17:08:28.000Z</time>
      </trkpt>
      <trkpt lat="48.00538" lon="6.97962">
        <ele>1204</ele>
        <time>2025-06-08T17:08:32.000Z</time>
      </trkpt>
      <trkpt lat="48.00541" lon="6.97976">
        <ele>1205</ele>
        <time>2025-06-08T17:08:40.000Z</time>
      </trkpt>
      <trkpt lat="48.00543" lon="6.9799">
        <ele>1205</ele>
        <time>2025-06-08T17:08:48.000Z</time>
      </trkpt>
      <trkpt lat="48.00543" lon="6.97996">
        <ele>1205</ele>
        <time>2025-06-08T17:08:51.000Z</time>
      </trkpt>
      <trkpt lat="48.00537" lon="6.97999">
        <ele>1206</ele>
        <time>2025-06-08T17:08:56.000Z</time>
      </trkpt>
      <trkpt lat="48.00521" lon="6.97999">
        <ele>1206</ele>
        <time>2025-06-08T17:09:07.000Z</time>
      </trkpt>
      <trkpt lat="48.00476" lon="6.98002">
        <ele>1213</ele>
        <time>2025-06-08T17:09:40.000Z</time>
      </trkpt>
      <trkpt lat="48.00471" lon="6.98002">
        <ele>1213</ele>
        <time>2025-06-08T17:09:44.000Z</time>
      </trkpt>
      <trkpt lat="48.00461" lon="6.98001">
        <ele>1216</ele>
        <time>2025-06-08T17:09:52.000Z</time>
      </trkpt>
      <trkpt lat="48.00456" lon="6.98001">
        <ele>1215</ele>
        <time>2025-06-08T17:09:56.000Z</time>
      </trkpt>
      <trkpt lat="48.00423" lon="6.97998">
        <ele>1221</ele>
        <time>2025-06-08T17:10:27.000Z</time>
      </trkpt>
      <trkpt lat="48.00388" lon="6.97998">
        <ele>1228</ele>
        <time>2025-06-08T17:11:02.000Z</time>
      </trkpt>
      <trkpt lat="48.00383" lon="6.97998">
        <ele>1229</ele>
        <time>2025-06-08T17:11:06.000Z</time>
      </trkpt>
      <trkpt lat="48.00378" lon="6.97993">
        <ele>1231</ele>
        <time>2025-06-08T17:11:13.000Z</time>
      </trkpt>
      <trkpt lat="48.00371" lon="6.97992">
        <ele>1232</ele>
        <time>2025-06-08T17:11:21.000Z</time>
      </trkpt>
      <trkpt lat="48.00355" lon="6.9799">
        <ele>1237</ele>
        <time>2025-06-08T17:11:41.000Z</time>
      </trkpt>
      <trkpt lat="48.00339" lon="6.97992">
        <ele>1242</ele>
        <time>2025-06-08T17:11:59.000Z</time>
      </trkpt>
      <trkpt lat="48.00331" lon="6.97988">
        <ele>1244</ele>
        <time>2025-06-08T17:12:08.000Z</time>
      </trkpt>
      <trkpt lat="48.00313" lon="6.97985">
        <ele>1249</ele>
        <time>2025-06-08T17:12:30.000Z</time>
      </trkpt>
      <trkpt lat="48.00309" lon="6.97987">
        <ele>1250</ele>
        <time>2025-06-08T17:12:35.000Z</time>
      </trkpt>
      <trkpt lat="48.00283" lon="6.97981">
        <ele>1257</ele>
        <time>2025-06-08T17:13:05.000Z</time>
      </trkpt>
      <trkpt lat="48.00271" lon="6.97977">
        <ele>1261</ele>
        <time>2025-06-08T17:13:18.000Z</time>
      </trkpt>
      <trkpt lat="48.00266" lon="6.97976">
        <ele>1261</ele>
        <time>2025-06-08T17:13:24.000Z</time>
      </trkpt>
      <trkpt lat="48.0025" lon="6.97974">
        <ele>1265</ele>
        <time>2025-06-08T17:13:41.000Z</time>
      </trkpt>
      <trkpt lat="48.00245" lon="6.97973">
        <ele>1265</ele>
        <time>2025-06-08T17:13:45.000Z</time>
      </trkpt>
      <trkpt lat="48.00239" lon="6.97972">
        <ele>1267</ele>
        <time>2025-06-08T17:13:52.000Z</time>
      </trkpt>
      <trkpt lat="48.00233" lon="6.97971">
        <ele>1267</ele>
        <time>2025-06-08T17:13:59.000Z</time>
      </trkpt>
      <trkpt lat="48.00201" lon="6.97966">
        <ele>1275</ele>
        <time>2025-06-08T17:14:35.000Z</time>
      </trkpt>
      <trkpt lat="48.00167" lon="6.97967">
        <ele>1283</ele>
        <time>2025-06-08T17:15:08.000Z</time>
      </trkpt>
      <trkpt lat="48.00162" lon="6.97967">
        <ele>1284</ele>
        <time>2025-06-08T17:15:13.000Z</time>
      </trkpt>
      <trkpt lat="48.0014" lon="6.97972">
        <ele>1287</ele>
        <time>2025-06-08T17:15:32.000Z</time>
      </trkpt>
      <trkpt lat="48.00136" lon="6.97975">
        <ele>1287</ele>
        <time>2025-06-08T17:15:37.000Z</time>
      </trkpt>
      <trkpt lat="48.00135" lon="6.97983">
        <ele>1286</ele>
        <time>2025-06-08T17:15:42.000Z</time>
      </trkpt>
      <trkpt lat="48.00125" lon="6.98008">
        <ele>1289</ele>
        <time>2025-06-08T17:15:59.000Z</time>
      </trkpt>
      <trkpt lat="48.00124" lon="6.98013">
        <ele>1289</ele>
        <time>2025-06-08T17:16:03.000Z</time>
      </trkpt>
      <trkpt lat="48.00119" lon="6.98031">
        <ele>1292</ele>
        <time>2025-06-08T17:16:18.000Z</time>
      </trkpt>
      <trkpt lat="48.00113" lon="6.98037">
        <ele>1294</ele>
        <time>2025-06-08T17:16:27.000Z</time>
      </trkpt>
      <trkpt lat="48.00108" lon="6.98039">
        <ele>1296</ele>
        <time>2025-06-08T17:16:35.000Z</time>
      </trkpt>
      <trkpt lat="48.00102" lon="6.98046">
        <ele>1298</ele>
        <time>2025-06-08T17:16:47.000Z</time>
      </trkpt>
      <trkpt lat="48.00101" lon="6.98058">
        <ele>1302</ele>
        <time>2025-06-08T17:16:59.000Z</time>
      </trkpt>
      <trkpt lat="48.00098" lon="6.98063">
        <ele>1304</ele>
        <time>2025-06-08T17:17:05.000Z</time>
      </trkpt>
      <trkpt lat="48.00091" lon="6.98077">
        <ele>1308</ele>
        <time>2025-06-08T17:17:22.000Z</time>
      </trkpt>
      <trkpt lat="48.00084" lon="6.98091">
        <ele>1314</ele>
        <time>2025-06-08T17:17:41.000Z</time>
      </trkpt>
      <trkpt lat="48.00079" lon="6.98091">
        <ele>1314</ele>
        <time>2025-06-08T17:17:47.000Z</time>
      </trkpt>
      <trkpt lat="48.00077" lon="6.98097">
        <ele>1316</ele>
        <time>2025-06-08T17:17:53.000Z</time>
      </trkpt>
      <trkpt lat="48.00072" lon="6.9809">
        <ele>1314</ele>
        <time>2025-06-08T17:18:58.000Z</time>
      </trkpt>
      <trkpt lat="48.00067" lon="6.9809">
        <ele>1312</ele>
        <time>2025-06-08T17:19:02.000Z</time>
      </trkpt>
      <trkpt lat="48.00064" lon="6.98085">
        <ele>1311</ele>
        <time>2025-06-08T17:19:06.000Z</time>
      </trkpt>
      <trkpt lat="48.00059" lon="6.98085">
        <ele>1309</ele>
        <time>2025-06-08T17:19:10.000Z</time>
      </trkpt>
      <trkpt lat="48.00055" lon="6.98083">
        <ele>1308</ele>
        <time>2025-06-08T17:19:14.000Z</time>
      </trkpt>
      <trkpt lat="48.0004" lon="6.98077">
        <ele>1308</ele>
        <time>2025-06-08T17:19:26.000Z</time>
      </trkpt>
      <trkpt lat="48.00035" lon="6.98075">
        <ele>1307</ele>
        <time>2025-06-08T17:19:30.000Z</time>
      </trkpt>
      <trkpt lat="48.0003" lon="6.98072">
        <ele>1308</ele>
        <time>2025-06-08T17:19:34.000Z</time>
      </trkpt>
      <trkpt lat="48.00005" lon="6.9806">
        <ele>1304</ele>
        <time>2025-06-08T17:19:54.000Z</time>
      </trkpt>
      <trkpt lat="48.00001" lon="6.98057">
        <ele>1304</ele>
        <time>2025-06-08T17:19:57.000Z</time>
      </trkpt>
      <trkpt lat="47.99987" lon="6.98048">
        <ele>1303</ele>
        <time>2025-06-08T17:20:08.000Z</time>
      </trkpt>
      <trkpt lat="47.99968" lon="6.98038">
        <ele>1305</ele>
        <time>2025-06-08T17:20:23.000Z</time>
      </trkpt>
      <trkpt lat="47.99953" lon="6.9803">
        <ele>1304</ele>
        <time>2025-06-08T17:20:35.000Z</time>
      </trkpt>
      <trkpt lat="47.99948" lon="6.98028">
        <ele>1305</ele>
        <time>2025-06-08T17:20:40.000Z</time>
      </trkpt>
      <trkpt lat="47.99937" lon="6.98029">
        <ele>1305</ele>
        <time>2025-06-08T17:20:48.000Z</time>
      </trkpt>
      <trkpt lat="47.99932" lon="6.98029">
        <ele>1307</ele>
        <time>2025-06-08T17:20:52.000Z</time>
      </trkpt>
      <trkpt lat="47.99926" lon="6.98029">
        <ele>1307</ele>
        <time>2025-06-08T17:20:56.000Z</time>
      </trkpt>
      <trkpt lat="47.99907" lon="6.98027">
        <ele>1303</ele>
        <time>2025-06-08T17:21:12.000Z</time>
      </trkpt>
      <trkpt lat="47.99902" lon="6.98027">
        <ele>1303</ele>
        <time>2025-06-08T17:21:16.000Z</time>
      </trkpt>
      <trkpt lat="47.99897" lon="6.98025">
        <ele>1303</ele>
        <time>2025-06-08T17:21:21.000Z</time>
      </trkpt>
      <trkpt lat="47.99869" lon="6.9802">
        <ele>1296</ele>
        <time>2025-06-08T17:21:45.000Z</time>
      </trkpt>
      <trkpt lat="47.99865" lon="6.9802">
        <ele>1295</ele>
        <time>2025-06-08T17:21:48.000Z</time>
      </trkpt>
      <trkpt lat="47.99859" lon="6.9802">
        <ele>1294</ele>
        <time>2025-06-08T17:21:52.000Z</time>
      </trkpt>
      <trkpt lat="47.99854" lon="6.98019">
        <ele>1295</ele>
        <time>2025-06-08T17:21:56.000Z</time>
      </trkpt>
      <trkpt lat="47.99844" lon="6.98017">
        <ele>1294</ele>
        <time>2025-06-08T17:22:02.000Z</time>
      </trkpt>
      <trkpt lat="47.9984" lon="6.98017">
        <ele>1294</ele>
        <time>2025-06-08T17:22:05.000Z</time>
      </trkpt>
      <trkpt lat="47.9983" lon="6.98014">
        <ele>1295</ele>
        <time>2025-06-08T17:22:11.000Z</time>
      </trkpt>
      <trkpt lat="47.99817" lon="6.98012">
        <ele>1294</ele>
        <time>2025-06-08T17:22:20.000Z</time>
      </trkpt>
      <trkpt lat="47.99812" lon="6.98012">
        <ele>1294</ele>
        <time>2025-06-08T17:22:23.000Z</time>
      </trkpt>
      <trkpt lat="47.99807" lon="6.98011">
        <ele>1294</ele>
        <time>2025-06-08T17:22:26.000Z</time>
      </trkpt>
      <trkpt lat="47.99789" lon="6.98011">
        <ele>1291</ele>
        <time>2025-06-08T17:22:38.000Z</time>
      </trkpt>
      <trkpt lat="47.99761" lon="6.98021">
        <ele>1289</ele>
        <time>2025-06-08T17:22:57.000Z</time>
      </trkpt>
      <trkpt lat="47.99755" lon="6.98022">
        <ele>1287</ele>
        <time>2025-06-08T17:23:01.000Z</time>
      </trkpt>
      <trkpt lat="47.99751" lon="6.98023">
        <ele>1287</ele>
        <time>2025-06-08T17:23:04.000Z</time>
      </trkpt>
      <trkpt lat="47.99735" lon="6.98028">
        <ele>1285</ele>
        <time>2025-06-08T17:23:13.000Z</time>
      </trkpt>
      <trkpt lat="47.9973" lon="6.9803">
        <ele>1285</ele>
        <time>2025-06-08T17:23:16.000Z</time>
      </trkpt>
      <trkpt lat="47.99716" lon="6.98035">
        <ele>1284</ele>
        <time>2025-06-08T17:23:25.000Z</time>
      </trkpt>
      <trkpt lat="47.99712" lon="6.98037">
        <ele>1283</ele>
        <time>2025-06-08T17:23:28.000Z</time>
      </trkpt>
      <trkpt lat="47.99666" lon="6.98052">
        <ele>1280</ele>
        <time>2025-06-08T17:23:59.000Z</time>
      </trkpt>
      <trkpt lat="47.9962" lon="6.9807">
        <ele>1279</ele>
        <time>2025-06-08T17:24:30.000Z</time>
      </trkpt>
      <trkpt lat="47.99602" lon="6.98076">
        <ele>1280</ele>
        <time>2025-06-08T17:24:42.000Z</time>
      </trkpt>
      <trkpt lat="47.99598" lon="6.98077">
        <ele>1280</ele>
        <time>2025-06-08T17:24:45.000Z</time>
      </trkpt>
      <trkpt lat="47.99589" lon="6.98079">
        <ele>1281</ele>
        <time>2025-06-08T17:24:52.000Z</time>
      </trkpt>
      <trkpt lat="47.99556" lon="6.98087">
        <ele>1286</ele>
        <time>2025-06-08T17:25:17.000Z</time>
      </trkpt>
      <trkpt lat="47.99551" lon="6.98087">
        <ele>1287</ele>
        <time>2025-06-08T17:25:21.000Z</time>
      </trkpt>
      <trkpt lat="47.99524" lon="6.98083">
        <ele>1288</ele>
        <time>2025-06-08T17:25:40.000Z</time>
      </trkpt>
      <trkpt lat="47.99519" lon="6.98082">
        <ele>1289</ele>
        <time>2025-06-08T17:25:44.000Z</time>
      </trkpt>
      <trkpt lat="47.99514" lon="6.98081">
        <ele>1289</ele>
        <time>2025-06-08T17:25:48.000Z</time>
      </trkpt>
      <trkpt lat="47.99508" lon="6.9808">
        <ele>1291</ele>
        <time>2025-06-08T17:25:52.000Z</time>
      </trkpt>
      <trkpt lat="47.99503" lon="6.98079">
        <ele>1291</ele>
        <time>2025-06-08T17:25:56.000Z</time>
      </trkpt>
      <trkpt lat="47.99497" lon="6.98077">
        <ele>1291</ele>
        <time>2025-06-08T17:26:00.000Z</time>
      </trkpt>
      <trkpt lat="47.99492" lon="6.98076">
        <ele>1291</ele>
        <time>2025-06-08T17:26:04.000Z</time>
      </trkpt>
      <trkpt lat="47.99487" lon="6.98074">
        <ele>1291</ele>
        <time>2025-06-08T17:26:08.000Z</time>
      </trkpt>
      <trkpt lat="47.99476" lon="6.98071">
        <ele>1291</ele>
        <time>2025-06-08T17:26:16.000Z</time>
      </trkpt>
      <trkpt lat="47.99462" lon="6.98066">
        <ele>1293</ele>
        <time>2025-06-08T17:26:28.000Z</time>
      </trkpt>
      <trkpt lat="47.99453" lon="6.98069">
        <ele>1293</ele>
        <time>2025-06-08T17:26:36.000Z</time>
      </trkpt>
      <trkpt lat="47.99448" lon="6.98069">
        <ele>1294</ele>
        <time>2025-06-08T17:26:41.000Z</time>
      </trkpt>
      <trkpt lat="47.99443" lon="6.98066">
        <ele>1295</ele>
        <time>2025-06-08T17:26:46.000Z</time>
      </trkpt>
      <trkpt lat="47.99436" lon="6.98066">
        <ele>1298</ele>
        <time>2025-06-08T17:26:56.000Z</time>
      </trkpt>
      <trkpt lat="47.9943" lon="6.98062">
        <ele>1301</ele>
        <time>2025-06-08T17:27:07.000Z</time>
      </trkpt>
      <trkpt lat="47.99427" lon="6.98058">
        <ele>1303</ele>
        <time>2025-06-08T17:27:13.000Z</time>
      </trkpt>
      <trkpt lat="47.99422" lon="6.98059">
        <ele>1305</ele>
        <time>2025-06-08T17:27:19.000Z</time>
      </trkpt>
      <trkpt lat="47.99414" lon="6.9806">
        <ele>1307</ele>
        <time>2025-06-08T17:27:31.000Z</time>
      </trkpt>
      <trkpt lat="47.99402" lon="6.98054">
        <ele>1310</ele>
        <time>2025-06-08T17:27:46.000Z</time>
      </trkpt>
      <trkpt lat="47.99392" lon="6.98052">
        <ele>1311</ele>
        <time>2025-06-08T17:27:55.000Z</time>
      </trkpt>
      <trkpt lat="47.99382" lon="6.9805">
        <ele>1311</ele>
        <time>2025-06-08T17:28:03.000Z</time>
      </trkpt>
      <trkpt lat="47.99378" lon="6.98052">
        <ele>1311</ele>
        <time>2025-06-08T17:28:07.000Z</time>
      </trkpt>
      <trkpt lat="47.99349" lon="6.9806">
        <ele>1300</ele>
        <time>2025-06-08T17:28:41.000Z</time>
      </trkpt>
      <trkpt lat="47.99315" lon="6.98068">
        <ele>1296</ele>
        <time>2025-06-08T17:29:14.000Z</time>
      </trkpt>
      <trkpt lat="47.99311" lon="6.98068">
        <ele>1295</ele>
        <time>2025-06-08T17:29:18.000Z</time>
      </trkpt>
      <trkpt lat="47.99306" lon="6.98069">
        <ele>1295</ele>
        <time>2025-06-08T17:29:23.000Z</time>
      </trkpt>
      <trkpt lat="47.99301" lon="6.98069">
        <ele>1294</ele>
        <time>2025-06-08T17:29:28.000Z</time>
      </trkpt>
      <trkpt lat="47.99297" lon="6.9807">
        <ele>1294</ele>
        <time>2025-06-08T17:29:32.000Z</time>
      </trkpt>
      <trkpt lat="47.99292" lon="6.9807">
        <ele>1294</ele>
        <time>2025-06-08T17:29:36.000Z</time>
      </trkpt>
      <trkpt lat="47.99287" lon="6.9807">
        <ele>1293</ele>
        <time>2025-06-08T17:29:40.000Z</time>
      </trkpt>
      <trkpt lat="47.99249" lon="6.98076">
        <ele>1286</ele>
        <time>2025-06-08T17:30:11.000Z</time>
      </trkpt>
      <trkpt lat="47.99245" lon="6.98077">
        <ele>1286</ele>
        <time>2025-06-08T17:30:15.000Z</time>
      </trkpt>
      <trkpt lat="47.9924" lon="6.98078">
        <ele>1286</ele>
        <time>2025-06-08T17:30:19.000Z</time>
      </trkpt>
      <trkpt lat="47.99202" lon="6.98083">
        <ele>1277</ele>
        <time>2025-06-08T17:30:50.000Z</time>
      </trkpt>
      <trkpt lat="47.99163" lon="6.98089">
        <ele>1269</ele>
        <time>2025-06-08T17:31:21.000Z</time>
      </trkpt>
      <trkpt lat="47.99124" lon="6.98088">
        <ele>1264</ele>
        <time>2025-06-08T17:31:48.000Z</time>
      </trkpt>
      <trkpt lat="47.99119" lon="6.98087">
        <ele>1263</ele>
        <time>2025-06-08T17:31:51.000Z</time>
      </trkpt>
      <trkpt lat="47.99109" lon="6.98085">
        <ele>1263</ele>
        <time>2025-06-08T17:31:58.000Z</time>
      </trkpt>
      <trkpt lat="47.99067" lon="6.98073">
        <ele>1259</ele>
        <time>2025-06-08T17:32:29.000Z</time>
      </trkpt>
      <trkpt lat="47.99062" lon="6.98072">
        <ele>1258</ele>
        <time>2025-06-08T17:32:32.000Z</time>
      </trkpt>
      <trkpt lat="47.99058" lon="6.98072">
        <ele>1257</ele>
        <time>2025-06-08T17:32:35.000Z</time>
      </trkpt>
      <trkpt lat="47.99038" lon="6.98068">
        <ele>1254</ele>
        <time>2025-06-08T17:32:48.000Z</time>
      </trkpt>
      <trkpt lat="47.99034" lon="6.98067">
        <ele>1255</ele>
        <time>2025-06-08T17:32:51.000Z</time>
      </trkpt>
      <trkpt lat="47.99019" lon="6.98064">
        <ele>1255</ele>
        <time>2025-06-08T17:33:02.000Z</time>
      </trkpt>
      <trkpt lat="47.99013" lon="6.98063">
        <ele>1254</ele>
        <time>2025-06-08T17:33:06.000Z</time>
      </trkpt>
      <trkpt lat="47.99009" lon="6.98063">
        <ele>1255</ele>
        <time>2025-06-08T17:33:09.000Z</time>
      </trkpt>
      <trkpt lat="47.98998" lon="6.98061">
        <ele>1255</ele>
        <time>2025-06-08T17:33:18.000Z</time>
      </trkpt>
      <trkpt lat="47.98993" lon="6.9806">
        <ele>1255</ele>
        <time>2025-06-08T17:33:22.000Z</time>
      </trkpt>
      <trkpt lat="47.98977" lon="6.98059">
        <ele>1251</ele>
        <time>2025-06-08T17:33:34.000Z</time>
      </trkpt>
      <trkpt lat="47.98972" lon="6.98059">
        <ele>1250</ele>
        <time>2025-06-08T17:33:37.000Z</time>
      </trkpt>
      <trkpt lat="47.98957" lon="6.98057">
        <ele>1248</ele>
        <time>2025-06-08T17:33:48.000Z</time>
      </trkpt>
      <trkpt lat="47.98952" lon="6.98056">
        <ele>1248</ele>
        <time>2025-06-08T17:33:52.000Z</time>
      </trkpt>
      <trkpt lat="47.98947" lon="6.98055">
        <ele>1247</ele>
        <time>2025-06-08T17:33:56.000Z</time>
      </trkpt>
      <trkpt lat="47.98942" lon="6.98056">
        <ele>1247</ele>
        <time>2025-06-08T17:34:00.000Z</time>
      </trkpt>
      <trkpt lat="47.98922" lon="6.98051">
        <ele>1249</ele>
        <time>2025-06-08T17:34:13.000Z</time>
      </trkpt>
      <trkpt lat="47.98909" lon="6.98051">
        <ele>1249</ele>
        <time>2025-06-08T17:34:22.000Z</time>
      </trkpt>
      <trkpt lat="47.98878" lon="6.98048">
        <ele>1245</ele>
        <time>2025-06-08T17:34:44.000Z</time>
      </trkpt>
      <trkpt lat="47.98873" lon="6.98048">
        <ele>1246</ele>
        <time>2025-06-08T17:34:47.000Z</time>
      </trkpt>
      <trkpt lat="47.98868" lon="6.98048">
        <ele>1245</ele>
        <time>2025-06-08T17:34:50.000Z</time>
      </trkpt>
      <trkpt lat="47.98864" lon="6.98047">
        <ele>1245</ele>
        <time>2025-06-08T17:34:53.000Z</time>
      </trkpt>
      <trkpt lat="47.98855" lon="6.98046">
        <ele>1246</ele>
        <time>2025-06-08T17:34:59.000Z</time>
      </trkpt>
      <trkpt lat="47.98851" lon="6.98045">
        <ele>1246</ele>
        <time>2025-06-08T17:35:02.000Z</time>
      </trkpt>
      <trkpt lat="47.98846" lon="6.98045">
        <ele>1246</ele>
        <time>2025-06-08T17:35:05.000Z</time>
      </trkpt>
      <trkpt lat="47.98838" lon="6.98044">
        <ele>1246</ele>
        <time>2025-06-08T17:35:11.000Z</time>
      </trkpt>
      <trkpt lat="47.98827" lon="6.98042">
        <ele>1246</ele>
        <time>2025-06-08T17:35:19.000Z</time>
      </trkpt>
      <trkpt lat="47.98823" lon="6.98041">
        <ele>1245</ele>
        <time>2025-06-08T17:35:22.000Z</time>
      </trkpt>
      <trkpt lat="47.98803" lon="6.98035">
        <ele>1245</ele>
        <time>2025-06-08T17:35:36.000Z</time>
      </trkpt>
      <trkpt lat="47.98773" lon="6.98024">
        <ele>1241</ele>
        <time>2025-06-08T17:35:57.000Z</time>
      </trkpt>
      <trkpt lat="47.98769" lon="6.98022">
        <ele>1241</ele>
        <time>2025-06-08T17:36:00.000Z</time>
      </trkpt>
      <trkpt lat="47.98756" lon="6.98015">
        <ele>1240</ele>
        <time>2025-06-08T17:36:08.000Z</time>
      </trkpt>
      <trkpt lat="47.98751" lon="6.98011">
        <ele>1239</ele>
        <time>2025-06-08T17:36:12.000Z</time>
      </trkpt>
      <trkpt lat="47.98745" lon="6.9801">
        <ele>1238</ele>
        <time>2025-06-08T17:36:16.000Z</time>
      </trkpt>
      <trkpt lat="47.9873" lon="6.98008">
        <ele>1238</ele>
        <time>2025-06-08T17:36:26.000Z</time>
      </trkpt>
      <trkpt lat="47.9872" lon="6.98007">
        <ele>1237</ele>
        <time>2025-06-08T17:36:33.000Z</time>
      </trkpt>
      <trkpt lat="47.98715" lon="6.98006">
        <ele>1238</ele>
        <time>2025-06-08T17:36:37.000Z</time>
      </trkpt>
      <trkpt lat="47.9871" lon="6.98005">
        <ele>1238</ele>
        <time>2025-06-08T17:36:41.000Z</time>
      </trkpt>
      <trkpt lat="47.98704" lon="6.98005">
        <ele>1238</ele>
        <time>2025-06-08T17:36:45.000Z</time>
      </trkpt>
      <trkpt lat="47.98699" lon="6.98004">
        <ele>1239</ele>
        <time>2025-06-08T17:36:49.000Z</time>
      </trkpt>
      <trkpt lat="47.98694" lon="6.98003">
        <ele>1239</ele>
        <time>2025-06-08T17:36:53.000Z</time>
      </trkpt>
      <trkpt lat="47.98688" lon="6.98002">
        <ele>1239</ele>
        <time>2025-06-08T17:36:57.000Z</time>
      </trkpt>
      <trkpt lat="47.98684" lon="6.98001">
        <ele>1238</ele>
        <time>2025-06-08T17:37:01.000Z</time>
      </trkpt>
      <trkpt lat="47.98678" lon="6.97999">
        <ele>1241</ele>
        <time>2025-06-08T17:37:09.000Z</time>
      </trkpt>
      <trkpt lat="47.98672" lon="6.97997">
        <ele>1241</ele>
        <time>2025-06-08T17:37:12.000Z</time>
      </trkpt>
      <trkpt lat="47.98668" lon="6.98">
        <ele>1241</ele>
        <time>2025-06-08T17:37:14.000Z</time>
      </trkpt>
      <trkpt lat="47.98663" lon="6.98004">
        <ele>1239</ele>
        <time>2025-06-08T17:37:18.000Z</time>
      </trkpt>
      <trkpt lat="47.98648" lon="6.98009">
        <ele>1238</ele>
        <time>2025-06-08T17:37:31.000Z</time>
      </trkpt>
      <trkpt lat="47.98603" lon="6.98017">
        <ele>1233</ele>
        <time>2025-06-08T17:38:03.000Z</time>
      </trkpt>
      <trkpt lat="47.98589" lon="6.9802">
        <ele>1232</ele>
        <time>2025-06-08T17:38:13.000Z</time>
      </trkpt>
      <trkpt lat="47.98578" lon="6.98022">
        <ele>1232</ele>
        <time>2025-06-08T17:38:19.000Z</time>
      </trkpt>
      <trkpt lat="47.98573" lon="6.98023">
        <ele>1232</ele>
        <time>2025-06-08T17:38:22.000Z</time>
      </trkpt>
      <trkpt lat="47.98569" lon="6.98024">
        <ele>1232</ele>
        <time>2025-06-08T17:38:25.000Z</time>
      </trkpt>
      <trkpt lat="47.9855" lon="6.98028">
        <ele>1233</ele>
        <time>2025-06-08T17:38:38.000Z</time>
      </trkpt>
      <trkpt lat="47.98546" lon="6.9803">
        <ele>1232</ele>
        <time>2025-06-08T17:38:41.000Z</time>
      </trkpt>
      <trkpt lat="47.98541" lon="6.98031">
        <ele>1231</ele>
        <time>2025-06-08T17:38:44.000Z</time>
      </trkpt>
      <trkpt lat="47.98534" lon="6.9804">
        <ele>1230</ele>
        <time>2025-06-08T17:38:50.000Z</time>
      </trkpt>
      <trkpt lat="47.98527" lon="6.9805">
        <ele>1227</ele>
        <time>2025-06-08T17:38:57.000Z</time>
      </trkpt>
      <trkpt lat="47.98524" lon="6.98055">
        <ele>1227</ele>
        <time>2025-06-08T17:39:00.000Z</time>
      </trkpt>
      <trkpt lat="47.98513" lon="6.98069">
        <ele>1225</ele>
        <time>2025-06-08T17:39:09.000Z</time>
      </trkpt>
      <trkpt lat="47.9851" lon="6.98074">
        <ele>1225</ele>
        <time>2025-06-08T17:39:12.000Z</time>
      </trkpt>
      <trkpt lat="47.98506" lon="6.98079">
        <ele>1224</ele>
        <time>2025-06-08T17:39:15.000Z</time>
      </trkpt>
      <trkpt lat="47.98502" lon="6.98084">
        <ele>1224</ele>
        <time>2025-06-08T17:39:18.000Z</time>
      </trkpt>
      <trkpt lat="47.98499" lon="6.98089">
        <ele>1223</ele>
        <time>2025-06-08T17:39:21.000Z</time>
      </trkpt>
      <trkpt lat="47.98496" lon="6.98094">
        <ele>1223</ele>
        <time>2025-06-08T17:39:24.000Z</time>
      </trkpt>
      <trkpt lat="47.98492" lon="6.98099">
        <ele>1223</ele>
        <time>2025-06-08T17:39:27.000Z</time>
      </trkpt>
      <trkpt lat="47.98479" lon="6.9812">
        <ele>1222</ele>
        <time>2025-06-08T17:39:41.000Z</time>
      </trkpt>
      <trkpt lat="47.98476" lon="6.98125">
        <ele>1222</ele>
        <time>2025-06-08T17:39:44.000Z</time>
      </trkpt>
      <trkpt lat="47.98473" lon="6.9813">
        <ele>1222</ele>
        <time>2025-06-08T17:39:47.000Z</time>
      </trkpt>
      <trkpt lat="47.9847" lon="6.98135">
        <ele>1222</ele>
        <time>2025-06-08T17:39:50.000Z</time>
      </trkpt>
      <trkpt lat="47.98466" lon="6.98141">
        <ele>1221</ele>
        <time>2025-06-08T17:39:54.000Z</time>
      </trkpt>
      <trkpt lat="47.98462" lon="6.98146">
        <ele>1222</ele>
        <time>2025-06-08T17:39:58.000Z</time>
      </trkpt>
      <trkpt lat="47.98434" lon="6.98178">
        <ele>1223</ele>
        <time>2025-06-08T17:40:23.000Z</time>
      </trkpt>
      <trkpt lat="47.98427" lon="6.98187">
        <ele>1223</ele>
        <time>2025-06-08T17:40:29.000Z</time>
      </trkpt>
      <trkpt lat="47.9842" lon="6.98194">
        <ele>1222</ele>
        <time>2025-06-08T17:40:35.000Z</time>
      </trkpt>
      <trkpt lat="47.98412" lon="6.98204">
        <ele>1222</ele>
        <time>2025-06-08T17:40:42.000Z</time>
      </trkpt>
      <trkpt lat="47.98408" lon="6.98206">
        <ele>1222</ele>
        <time>2025-06-08T17:40:46.000Z</time>
      </trkpt>
      <trkpt lat="47.98398" lon="6.98215">
        <ele>1222</ele>
        <time>2025-06-08T17:40:57.000Z</time>
      </trkpt>
      <trkpt lat="47.98394" lon="6.98219">
        <ele>1222</ele>
        <time>2025-06-08T17:41:01.000Z</time>
      </trkpt>
      <trkpt lat="47.9838" lon="6.98253">
        <ele>1226</ele>
        <time>2025-06-08T17:41:26.000Z</time>
      </trkpt>
      <trkpt lat="47.98375" lon="6.98264">
        <ele>1226</ele>
        <time>2025-06-08T17:41:34.000Z</time>
      </trkpt>
      <trkpt lat="47.98371" lon="6.98268">
        <ele>1226</ele>
        <time>2025-06-08T17:41:39.000Z</time>
      </trkpt>
      <trkpt lat="47.98367" lon="6.98272">
        <ele>1227</ele>
        <time>2025-06-08T17:41:43.000Z</time>
      </trkpt>
      <trkpt lat="47.98363" lon="6.98275">
        <ele>1227</ele>
        <time>2025-06-08T17:41:47.000Z</time>
      </trkpt>
      <trkpt lat="47.98349" lon="6.98286">
        <ele>1227</ele>
        <time>2025-06-08T17:41:59.000Z</time>
      </trkpt>
      <trkpt lat="47.9834" lon="6.98294">
        <ele>1227</ele>
        <time>2025-06-08T17:42:06.000Z</time>
      </trkpt>
      <trkpt lat="47.98337" lon="6.98299">
        <ele>1227</ele>
        <time>2025-06-08T17:42:10.000Z</time>
      </trkpt>
      <trkpt lat="47.98333" lon="6.98306">
        <ele>1226</ele>
        <time>2025-06-08T17:42:14.000Z</time>
      </trkpt>
      <trkpt lat="47.9833" lon="6.98312">
        <ele>1226</ele>
        <time>2025-06-08T17:42:18.000Z</time>
      </trkpt>
      <trkpt lat="47.98311" lon="6.98333">
        <ele>1223</ele>
        <time>2025-06-08T17:42:33.000Z</time>
      </trkpt>
      <trkpt lat="47.98301" lon="6.98338">
        <ele>1222</ele>
        <time>2025-06-08T17:42:41.000Z</time>
      </trkpt>
      <trkpt lat="47.98295" lon="6.98338">
        <ele>1222</ele>
        <time>2025-06-08T17:42:45.000Z</time>
      </trkpt>
      <trkpt lat="47.98287" lon="6.98336">
        <ele>1221</ele>
        <time>2025-06-08T17:42:51.000Z</time>
      </trkpt>
      <trkpt lat="47.98281" lon="6.98335">
        <ele>1220</ele>
        <time>2025-06-08T17:42:55.000Z</time>
      </trkpt>
      <trkpt lat="47.98276" lon="6.98337">
        <ele>1220</ele>
        <time>2025-06-08T17:42:59.000Z</time>
      </trkpt>
      <trkpt lat="47.98272" lon="6.98339">
        <ele>1220</ele>
        <time>2025-06-08T17:43:02.000Z</time>
      </trkpt>
      <trkpt lat="47.98253" lon="6.98347">
        <ele>1219</ele>
        <time>2025-06-08T17:43:15.000Z</time>
      </trkpt>
      <trkpt lat="47.98249" lon="6.98349">
        <ele>1219</ele>
        <time>2025-06-08T17:43:19.000Z</time>
      </trkpt>
      <trkpt lat="47.98244" lon="6.98351">
        <ele>1220</ele>
        <time>2025-06-08T17:43:23.000Z</time>
      </trkpt>
      <trkpt lat="47.98239" lon="6.98354">
        <ele>1219</ele>
        <time>2025-06-08T17:43:27.000Z</time>
      </trkpt>
      <trkpt lat="47.98222" lon="6.98361">
        <ele>1217</ele>
        <time>2025-06-08T17:43:39.000Z</time>
      </trkpt>
      <trkpt lat="47.98216" lon="6.98363">
        <ele>1217</ele>
        <time>2025-06-08T17:43:44.000Z</time>
      </trkpt>
      <trkpt lat="47.98171" lon="6.98379">
        <ele>1212</ele>
        <time>2025-06-08T17:44:16.000Z</time>
      </trkpt>
      <trkpt lat="47.98152" lon="6.98384">
        <ele>1209</ele>
        <time>2025-06-08T17:44:30.000Z</time>
      </trkpt>
      <trkpt lat="47.98147" lon="6.98385">
        <ele>1209</ele>
        <time>2025-06-08T17:44:33.000Z</time>
      </trkpt>
      <trkpt lat="47.98141" lon="6.98387">
        <ele>1208</ele>
        <time>2025-06-08T17:44:37.000Z</time>
      </trkpt>
      <trkpt lat="47.98132" lon="6.9839">
        <ele>1208</ele>
        <time>2025-06-08T17:44:44.000Z</time>
      </trkpt>
      <trkpt lat="47.98118" lon="6.98396">
        <ele>1206</ele>
        <time>2025-06-08T17:44:54.000Z</time>
      </trkpt>
      <trkpt lat="47.98113" lon="6.98398">
        <ele>1206</ele>
        <time>2025-06-08T17:44:57.000Z</time>
      </trkpt>
      <trkpt lat="47.98076" lon="6.98424">
        <ele>1201</ele>
        <time>2025-06-08T17:45:28.000Z</time>
      </trkpt>
      <trkpt lat="47.98035" lon="6.98455">
        <ele>1195</ele>
        <time>2025-06-08T17:45:59.000Z</time>
      </trkpt>
      <trkpt lat="47.98005" lon="6.98475">
        <ele>1192</ele>
        <time>2025-06-08T17:46:22.000Z</time>
      </trkpt>
      <trkpt lat="47.97999" lon="6.98478">
        <ele>1192</ele>
        <time>2025-06-08T17:46:26.000Z</time>
      </trkpt>
      <trkpt lat="47.97989" lon="6.98484">
        <ele>1191</ele>
        <time>2025-06-08T17:46:34.000Z</time>
      </trkpt>
      <trkpt lat="47.97984" lon="6.98487">
        <ele>1191</ele>
        <time>2025-06-08T17:46:38.000Z</time>
      </trkpt>
      <trkpt lat="47.97979" lon="6.9849">
        <ele>1191</ele>
        <time>2025-06-08T17:46:42.000Z</time>
      </trkpt>
      <trkpt lat="47.97965" lon="6.98501">
        <ele>1191</ele>
        <time>2025-06-08T17:46:53.000Z</time>
      </trkpt>
      <trkpt lat="47.9796" lon="6.98504">
        <ele>1191</ele>
        <time>2025-06-08T17:46:57.000Z</time>
      </trkpt>
      <trkpt lat="47.97925" lon="6.98527">
        <ele>1195</ele>
        <time>2025-06-08T17:47:30.000Z</time>
      </trkpt>
      <trkpt lat="47.97912" lon="6.98537">
        <ele>1196</ele>
        <time>2025-06-08T17:47:43.000Z</time>
      </trkpt>
      <trkpt lat="47.97908" lon="6.9854">
        <ele>1196</ele>
        <time>2025-06-08T17:47:47.000Z</time>
      </trkpt>
      <trkpt lat="47.97883" lon="6.98557">
        <ele>1200</ele>
        <time>2025-06-08T17:48:13.000Z</time>
      </trkpt>
      <trkpt lat="47.97877" lon="6.98558">
        <ele>1201</ele>
        <time>2025-06-08T17:48:20.000Z</time>
      </trkpt>
      <trkpt lat="47.97872" lon="6.9856">
        <ele>1201</ele>
        <time>2025-06-08T17:48:24.000Z</time>
      </trkpt>
      <trkpt lat="47.97863" lon="6.98569">
        <ele>1203</ele>
        <time>2025-06-08T17:48:34.000Z</time>
      </trkpt>
      <trkpt lat="47.97857" lon="6.98575">
        <ele>1203</ele>
        <time>2025-06-08T17:48:41.000Z</time>
      </trkpt>
      <trkpt lat="47.97853" lon="6.98579">
        <ele>1204</ele>
        <time>2025-06-08T17:48:44.000Z</time>
      </trkpt>
      <trkpt lat="47.97821" lon="6.98608">
        <ele>1207</ele>
        <time>2025-06-08T17:49:16.000Z</time>
      </trkpt>
      <trkpt lat="47.97817" lon="6.98612">
        <ele>1207</ele>
        <time>2025-06-08T17:49:20.000Z</time>
      </trkpt>
      <trkpt lat="47.97812" lon="6.98616">
        <ele>1208</ele>
        <time>2025-06-08T17:49:25.000Z</time>
      </trkpt>
      <trkpt lat="47.97781" lon="6.98644">
        <ele>1212</ele>
        <time>2025-06-08T17:49:58.000Z</time>
      </trkpt>
      <trkpt lat="47.97753" lon="6.9867">
        <ele>1216</ele>
        <time>2025-06-08T17:50:31.000Z</time>
      </trkpt>
      <trkpt lat="47.9772" lon="6.98703">
        <ele>1222</ele>
        <time>2025-06-08T17:51:04.000Z</time>
      </trkpt>
      <trkpt lat="47.97709" lon="6.98716">
        <ele>1223</ele>
        <time>2025-06-08T17:51:16.000Z</time>
      </trkpt>
      <trkpt lat="47.97706" lon="6.98721">
        <ele>1224</ele>
        <time>2025-06-08T17:51:20.000Z</time>
      </trkpt>
      <trkpt lat="47.97704" lon="6.98729">
        <ele>1225</ele>
        <time>2025-06-08T17:51:24.000Z</time>
      </trkpt>
      <trkpt lat="47.977" lon="6.98735">
        <ele>1225</ele>
        <time>2025-06-08T17:51:28.000Z</time>
      </trkpt>
      <trkpt lat="47.97691" lon="6.98731">
        <ele>1227</ele>
        <time>2025-06-08T17:51:36.000Z</time>
      </trkpt>
      <trkpt lat="47.97684" lon="6.98732">
        <ele>1227</ele>
        <time>2025-06-08T17:51:43.000Z</time>
      </trkpt>
      <trkpt lat="47.9767" lon="6.98732">
        <ele>1230</ele>
        <time>2025-06-08T17:51:55.000Z</time>
      </trkpt>
      <trkpt lat="47.97656" lon="6.98736">
        <ele>1232</ele>
        <time>2025-06-08T17:52:08.000Z</time>
      </trkpt>
      <trkpt lat="47.97618" lon="6.98762">
        <ele>1237</ele>
        <time>2025-06-08T17:52:40.000Z</time>
      </trkpt>
      <trkpt lat="47.97601" lon="6.98783">
        <ele>1239</ele>
        <time>2025-06-08T17:52:56.000Z</time>
      </trkpt>
      <trkpt lat="47.97598" lon="6.98787">
        <ele>1241</ele>
        <time>2025-06-08T17:53:00.000Z</time>
      </trkpt>
      <trkpt lat="47.97586" lon="6.98801">
        <ele>1243</ele>
        <time>2025-06-08T17:53:12.000Z</time>
      </trkpt>
      <trkpt lat="47.97582" lon="6.98806">
        <ele>1243</ele>
        <time>2025-06-08T17:53:16.000Z</time>
      </trkpt>
      <trkpt lat="47.97573" lon="6.98814">
        <ele>1244</ele>
        <time>2025-06-08T17:53:24.000Z</time>
      </trkpt>
      <trkpt lat="47.9757" lon="6.98819">
        <ele>1245</ele>
        <time>2025-06-08T17:53:28.000Z</time>
      </trkpt>
      <trkpt lat="47.97566" lon="6.98824">
        <ele>1246</ele>
        <time>2025-06-08T17:53:33.000Z</time>
      </trkpt>
      <trkpt lat="47.97552" lon="6.98845">
        <ele>1249</ele>
        <time>2025-06-08T17:53:52.000Z</time>
      </trkpt>
      <trkpt lat="47.97566" lon="6.98893">
        <ele>1257</ele>
        <time>2025-06-08T17:54:27.000Z</time>
      </trkpt>
      <trkpt lat="47.97568" lon="6.98898">
        <ele>1257</ele>
        <time>2025-06-08T17:54:30.000Z</time>
      </trkpt>
      <trkpt lat="47.9757" lon="6.98906">
        <ele>1258</ele>
        <time>2025-06-08T17:54:35.000Z</time>
      </trkpt>
      <trkpt lat="47.9757" lon="6.9892">
        <ele>1260</ele>
        <time>2025-06-08T17:54:43.000Z</time>
      </trkpt>
      <trkpt lat="47.97567" lon="6.98925">
        <ele>1261</ele>
        <time>2025-06-08T17:54:47.000Z</time>
      </trkpt>
      <trkpt lat="47.97559" lon="6.98932">
        <ele>1263</ele>
        <time>2025-06-08T17:54:55.000Z</time>
      </trkpt>
      <trkpt lat="47.97555" lon="6.98938">
        <ele>1265</ele>
        <time>2025-06-08T17:54:59.000Z</time>
      </trkpt>
      <trkpt lat="47.97549" lon="6.98951">
        <ele>1267</ele>
        <time>2025-06-08T17:55:08.000Z</time>
      </trkpt>
      <trkpt lat="47.9754" lon="6.98966">
        <ele>1271</ele>
        <time>2025-06-08T17:55:20.000Z</time>
      </trkpt>
      <trkpt lat="47.97521" lon="6.98987">
        <ele>1276</ele>
        <time>2025-06-08T17:55:40.000Z</time>
      </trkpt>
      <trkpt lat="47.97514" lon="6.98997">
        <ele>1275</ele>
        <time>2025-06-08T17:55:48.000Z</time>
      </trkpt>
      <trkpt lat="47.97509" lon="6.99">
        <ele>1275</ele>
        <time>2025-06-08T17:55:52.000Z</time>
      </trkpt>
      <trkpt lat="47.975" lon="6.99007">
        <ele>1273</ele>
        <time>2025-06-08T17:56:00.000Z</time>
      </trkpt>
      <trkpt lat="47.97497" lon="6.99011">
        <ele>1273</ele>
        <time>2025-06-08T17:56:04.000Z</time>
      </trkpt>
      <trkpt lat="47.97476" lon="6.99036">
        <ele>1270</ele>
        <time>2025-06-08T17:56:25.000Z</time>
      </trkpt>
      <trkpt lat="47.97472" lon="6.99042">
        <ele>1270</ele>
        <time>2025-06-08T17:56:29.000Z</time>
      </trkpt>
      <trkpt lat="47.97462" lon="6.9905">
        <ele>1270</ele>
        <time>2025-06-08T17:56:37.000Z</time>
      </trkpt>
      <trkpt lat="47.97454" lon="6.99059">
        <ele>1272</ele>
        <time>2025-06-08T17:56:45.000Z</time>
      </trkpt>
      <trkpt lat="47.97445" lon="6.99065">
        <ele>1275</ele>
        <time>2025-06-08T17:56:54.000Z</time>
      </trkpt>
      <trkpt lat="47.97441" lon="6.99068">
        <ele>1275</ele>
        <time>2025-06-08T17:56:59.000Z</time>
      </trkpt>
      <trkpt lat="47.97432" lon="6.99072">
        <ele>1272</ele>
        <time>2025-06-08T17:57:07.000Z</time>
      </trkpt>
      <trkpt lat="47.97423" lon="6.99076">
        <ele>1272</ele>
        <time>2025-06-08T17:57:14.000Z</time>
      </trkpt>
      <trkpt lat="47.97413" lon="6.99081">
        <ele>1272</ele>
        <time>2025-06-08T17:57:22.000Z</time>
      </trkpt>
      <trkpt lat="47.97403" lon="6.99086">
        <ele>1270</ele>
        <time>2025-06-08T17:57:30.000Z</time>
      </trkpt>
      <trkpt lat="47.97399" lon="6.99088">
        <ele>1269</ele>
        <time>2025-06-08T17:57:33.000Z</time>
      </trkpt>
      <trkpt lat="47.97394" lon="6.9909">
        <ele>1270</ele>
        <time>2025-06-08T17:57:37.000Z</time>
      </trkpt>
      <trkpt lat="47.97384" lon="6.99094">
        <ele>1269</ele>
        <time>2025-06-08T17:57:45.000Z</time>
      </trkpt>
      <trkpt lat="47.97373" lon="6.99099">
        <ele>1270</ele>
        <time>2025-06-08T17:57:53.000Z</time>
      </trkpt>
      <trkpt lat="47.97343" lon="6.99115">
        <ele>1267</ele>
        <time>2025-06-08T17:58:17.000Z</time>
      </trkpt>
      <trkpt lat="47.97332" lon="6.9912">
        <ele>1267</ele>
        <time>2025-06-08T17:58:26.000Z</time>
      </trkpt>
      <trkpt lat="47.97327" lon="6.99122">
        <ele>1266</ele>
        <time>2025-06-08T17:58:30.000Z</time>
      </trkpt>
      <trkpt lat="47.97316" lon="6.99124">
        <ele>1266</ele>
        <time>2025-06-08T17:58:38.000Z</time>
      </trkpt>
      <trkpt lat="47.97271" lon="6.9913">
        <ele>1263</ele>
        <time>2025-06-08T17:59:11.000Z</time>
      </trkpt>
      <trkpt lat="47.97261" lon="6.99132">
        <ele>1262</ele>
        <time>2025-06-08T17:59:18.000Z</time>
      </trkpt>
      <trkpt lat="47.97256" lon="6.99132">
        <ele>1261</ele>
        <time>2025-06-08T17:59:21.000Z</time>
      </trkpt>
      <trkpt lat="47.97239" lon="6.99134">
        <ele>1260</ele>
        <time>2025-06-08T17:59:33.000Z</time>
      </trkpt>
      <trkpt lat="47.97205" lon="6.99137">
        <ele>1259</ele>
        <time>2025-06-08T17:59:57.000Z</time>
      </trkpt>
      <trkpt lat="47.972" lon="6.99137">
        <ele>1258</ele>
        <time>2025-06-08T18:00:01.000Z</time>
      </trkpt>
      <trkpt lat="47.97174" lon="6.99139">
        <ele>1256</ele>
        <time>2025-06-08T18:00:21.000Z</time>
      </trkpt>
      <trkpt lat="47.97168" lon="6.99139">
        <ele>1255</ele>
        <time>2025-06-08T18:00:25.000Z</time>
      </trkpt>
      <trkpt lat="47.97152" lon="6.99146">
        <ele>1254</ele>
        <time>2025-06-08T18:00:38.000Z</time>
      </trkpt>
      <trkpt lat="47.97139" lon="6.99153">
        <ele>1252</ele>
        <time>2025-06-08T18:00:48.000Z</time>
      </trkpt>
      <trkpt lat="47.97135" lon="6.99156">
        <ele>1252</ele>
        <time>2025-06-08T18:00:51.000Z</time>
      </trkpt>
      <trkpt lat="47.97092" lon="6.99181">
        <ele>1247</ele>
        <time>2025-06-08T18:01:24.000Z</time>
      </trkpt>
      <trkpt lat="47.97088" lon="6.99184">
        <ele>1247</ele>
        <time>2025-06-08T18:01:27.000Z</time>
      </trkpt>
      <trkpt lat="47.97084" lon="6.99187">
        <ele>1247</ele>
        <time>2025-06-08T18:01:30.000Z</time>
      </trkpt>
      <trkpt lat="47.9708" lon="6.99189">
        <ele>1247</ele>
        <time>2025-06-08T18:01:33.000Z</time>
      </trkpt>
      <trkpt lat="47.97067" lon="6.99197">
        <ele>1246</ele>
        <time>2025-06-08T18:01:43.000Z</time>
      </trkpt>
      <trkpt lat="47.97049" lon="6.99203">
        <ele>1246</ele>
        <time>2025-06-08T18:01:56.000Z</time>
      </trkpt>
      <trkpt lat="47.97032" lon="6.99205">
        <ele>1248</ele>
        <time>2025-06-08T18:02:08.000Z</time>
      </trkpt>
      <trkpt lat="47.97021" lon="6.99206">
        <ele>1248</ele>
        <time>2025-06-08T18:02:16.000Z</time>
      </trkpt>
      <trkpt lat="47.97016" lon="6.99207">
        <ele>1248</ele>
        <time>2025-06-08T18:02:20.000Z</time>
      </trkpt>
      <trkpt lat="47.97011" lon="6.99207">
        <ele>1247</ele>
        <time>2025-06-08T18:02:23.000Z</time>
      </trkpt>
      <trkpt lat="47.97006" lon="6.99209">
        <ele>1247</ele>
        <time>2025-06-08T18:02:27.000Z</time>
      </trkpt>
      <trkpt lat="47.96995" lon="6.99211">
        <ele>1247</ele>
        <time>2025-06-08T18:02:35.000Z</time>
      </trkpt>
      <trkpt lat="47.9699" lon="6.99211">
        <ele>1247</ele>
        <time>2025-06-08T18:02:40.000Z</time>
      </trkpt>
      <trkpt lat="47.96984" lon="6.99212">
        <ele>1247</ele>
        <time>2025-06-08T18:02:44.000Z</time>
      </trkpt>
      <trkpt lat="47.9698" lon="6.99213">
        <ele>1246</ele>
        <time>2025-06-08T18:02:47.000Z</time>
      </trkpt>
      <trkpt lat="47.96976" lon="6.99214">
        <ele>1246</ele>
        <time>2025-06-08T18:02:50.000Z</time>
      </trkpt>
      <trkpt lat="47.96971" lon="6.99215">
        <ele>1246</ele>
        <time>2025-06-08T18:02:53.000Z</time>
      </trkpt>
      <trkpt lat="47.9694" lon="6.99225">
        <ele>1246</ele>
        <time>2025-06-08T18:03:15.000Z</time>
      </trkpt>
      <trkpt lat="47.96936" lon="6.99229">
        <ele>1244</ele>
        <time>2025-06-08T18:03:19.000Z</time>
      </trkpt>
      <trkpt lat="47.96932" lon="6.99234">
        <ele>1245</ele>
        <time>2025-06-08T18:03:22.000Z</time>
      </trkpt>
      <trkpt lat="47.96929" lon="6.99239">
        <ele>1245</ele>
        <time>2025-06-08T18:03:25.000Z</time>
      </trkpt>
      <trkpt lat="47.96921" lon="6.9925">
        <ele>1243</ele>
        <time>2025-06-08T18:03:32.000Z</time>
      </trkpt>
      <trkpt lat="47.96893" lon="6.99293">
        <ele>1236</ele>
        <time>2025-06-08T18:04:04.000Z</time>
      </trkpt>
      <trkpt lat="47.96887" lon="6.99301">
        <ele>1233</ele>
        <time>2025-06-08T18:04:13.000Z</time>
      </trkpt>
      <trkpt lat="47.96885" lon="6.99308">
        <ele>1231</ele>
        <time>2025-06-08T18:04:18.000Z</time>
      </trkpt>
      <trkpt lat="47.96867" lon="6.99318">
        <ele>1226</ele>
        <time>2025-06-08T18:04:39.000Z</time>
      </trkpt>
      <trkpt lat="47.96858" lon="6.99327">
        <ele>1223</ele>
        <time>2025-06-08T18:04:48.000Z</time>
      </trkpt>
      <trkpt lat="47.96849" lon="6.99335">
        <ele>1220</ele>
        <time>2025-06-08T18:04:56.000Z</time>
      </trkpt>
      <trkpt lat="47.96848" lon="6.99341">
        <ele>1219</ele>
        <time>2025-06-08T18:04:59.000Z</time>
      </trkpt>
      <trkpt lat="47.96844" lon="6.99365">
        <ele>1216</ele>
        <time>2025-06-08T18:05:14.000Z</time>
      </trkpt>
      <trkpt lat="47.96842" lon="6.99372">
        <ele>1215</ele>
        <time>2025-06-08T18:05:19.000Z</time>
      </trkpt>
      <trkpt lat="47.96839" lon="6.99378">
        <ele>1213</ele>
        <time>2025-06-08T18:05:24.000Z</time>
      </trkpt>
      <trkpt lat="47.96812" lon="6.9941">
        <ele>1207</ele>
        <time>2025-06-08T18:06:12.000Z</time>
      </trkpt>
      <trkpt lat="47.96808" lon="6.99414">
        <ele>1206</ele>
        <time>2025-06-08T18:06:16.000Z</time>
      </trkpt>
      <trkpt lat="47.96805" lon="6.99418">
        <ele>1206</ele>
        <time>2025-06-08T18:06:20.000Z</time>
      </trkpt>
      <trkpt lat="47.96795" lon="6.99428">
        <ele>1205</ele>
        <time>2025-06-08T18:06:43.000Z</time>
      </trkpt>
      <trkpt lat="47.96771" lon="6.99457">
        <ele>1202</ele>
        <time>2025-06-08T18:07:15.000Z</time>
      </trkpt>
      <trkpt lat="47.96756" lon="6.99469">
        <ele>1202</ele>
        <time>2025-06-08T18:07:27.000Z</time>
      </trkpt>
      <trkpt lat="47.96746" lon="6.99475">
        <ele>1201</ele>
        <time>2025-06-08T18:07:35.000Z</time>
      </trkpt>
      <trkpt lat="47.96742" lon="6.99479">
        <ele>1201</ele>
        <time>2025-06-08T18:07:38.000Z</time>
      </trkpt>
      <trkpt lat="47.96733" lon="6.99487">
        <ele>1200</ele>
        <time>2025-06-08T18:07:46.000Z</time>
      </trkpt>
      <trkpt lat="47.96724" lon="6.99494">
        <ele>1200</ele>
        <time>2025-06-08T18:07:54.000Z</time>
      </trkpt>
      <trkpt lat="47.96719" lon="6.99497">
        <ele>1200</ele>
        <time>2025-06-08T18:07:58.000Z</time>
      </trkpt>
      <trkpt lat="47.9671" lon="6.99504">
        <ele>1201</ele>
        <time>2025-06-08T18:08:06.000Z</time>
      </trkpt>
      <trkpt lat="47.96696" lon="6.99513">
        <ele>1201</ele>
        <time>2025-06-08T18:08:18.000Z</time>
      </trkpt>
      <trkpt lat="47.96691" lon="6.99518">
        <ele>1201</ele>
        <time>2025-06-08T18:08:40.000Z</time>
      </trkpt>
      <trkpt lat="47.96684" lon="6.99527">
        <ele>1202</ele>
        <time>2025-06-08T18:08:49.000Z</time>
      </trkpt>
      <trkpt lat="47.96671" lon="6.99543">
        <ele>1201</ele>
        <time>2025-06-08T18:09:04.000Z</time>
      </trkpt>
      <trkpt lat="47.96668" lon="6.99547">
        <ele>1200</ele>
        <time>2025-06-08T18:09:08.000Z</time>
      </trkpt>
      <trkpt lat="47.96664" lon="6.99552">
        <ele>1201</ele>
        <time>2025-06-08T18:09:12.000Z</time>
      </trkpt>
      <trkpt lat="47.96661" lon="6.99557">
        <ele>1201</ele>
        <time>2025-06-08T18:09:16.000Z</time>
      </trkpt>
      <trkpt lat="47.96629" lon="6.99598">
        <ele>1202</ele>
        <time>2025-06-08T18:09:46.000Z</time>
      </trkpt>
      <trkpt lat="47.96619" lon="6.99605">
        <ele>1202</ele>
        <time>2025-06-08T18:09:54.000Z</time>
      </trkpt>
      <trkpt lat="47.96605" lon="6.99616">
        <ele>1203</ele>
        <time>2025-06-08T18:10:06.000Z</time>
      </trkpt>
      <trkpt lat="47.96601" lon="6.99621">
        <ele>1203</ele>
        <time>2025-06-08T18:10:10.000Z</time>
      </trkpt>
      <trkpt lat="47.96596" lon="6.99624">
        <ele>1204</ele>
        <time>2025-06-08T18:10:14.000Z</time>
      </trkpt>
      <trkpt lat="47.96592" lon="6.99626">
        <ele>1204</ele>
        <time>2025-06-08T18:10:18.000Z</time>
      </trkpt>
      <trkpt lat="47.96587" lon="6.99629">
        <ele>1205</ele>
        <time>2025-06-08T18:10:22.000Z</time>
      </trkpt>
      <trkpt lat="47.96582" lon="6.99633">
        <ele>1205</ele>
        <time>2025-06-08T18:10:26.000Z</time>
      </trkpt>
      <trkpt lat="47.96548" lon="6.99664">
        <ele>1210</ele>
        <time>2025-06-08T18:10:58.000Z</time>
      </trkpt>
      <trkpt lat="47.96511" lon="6.99692">
        <ele>1216</ele>
        <time>2025-06-08T18:11:31.000Z</time>
      </trkpt>
      <trkpt lat="47.96506" lon="6.99695">
        <ele>1217</ele>
        <time>2025-06-08T18:11:35.000Z</time>
      </trkpt>
      <trkpt lat="47.96502" lon="6.99699">
        <ele>1217</ele>
        <time>2025-06-08T18:11:39.000Z</time>
      </trkpt>
      <trkpt lat="47.96498" lon="6.99704">
        <ele>1217</ele>
        <time>2025-06-08T18:11:43.000Z</time>
      </trkpt>
      <trkpt lat="47.96494" lon="6.99707">
        <ele>1217</ele>
        <time>2025-06-08T18:11:47.000Z</time>
      </trkpt>
      <trkpt lat="47.96489" lon="6.9971">
        <ele>1218</ele>
        <time>2025-06-08T18:11:51.000Z</time>
      </trkpt>
      <trkpt lat="47.96485" lon="6.99712">
        <ele>1218</ele>
        <time>2025-06-08T18:11:55.000Z</time>
      </trkpt>
      <trkpt lat="47.96469" lon="6.99714">
        <ele>1220</ele>
        <time>2025-06-08T18:12:06.000Z</time>
      </trkpt>
      <trkpt lat="47.96464" lon="6.99716">
        <ele>1220</ele>
        <time>2025-06-08T18:12:10.000Z</time>
      </trkpt>
      <trkpt lat="47.96455" lon="6.99719">
        <ele>1221</ele>
        <time>2025-06-08T18:12:18.000Z</time>
      </trkpt>
      <trkpt lat="47.9645" lon="6.99722">
        <ele>1221</ele>
        <time>2025-06-08T18:12:22.000Z</time>
      </trkpt>
      <trkpt lat="47.96445" lon="6.99724">
        <ele>1221</ele>
        <time>2025-06-08T18:12:26.000Z</time>
      </trkpt>
      <trkpt lat="47.9644" lon="6.99726">
        <ele>1221</ele>
        <time>2025-06-08T18:12:30.000Z</time>
      </trkpt>
      <trkpt lat="47.96414" lon="6.99737">
        <ele>1221</ele>
        <time>2025-06-08T18:12:50.000Z</time>
      </trkpt>
      <trkpt lat="47.96408" lon="6.99738">
        <ele>1222</ele>
        <time>2025-06-08T18:12:54.000Z</time>
      </trkpt>
      <trkpt lat="47.96404" lon="6.9974">
        <ele>1222</ele>
        <time>2025-06-08T18:12:58.000Z</time>
      </trkpt>
      <trkpt lat="47.96398" lon="6.9974">
        <ele>1222</ele>
        <time>2025-06-08T18:13:02.000Z</time>
      </trkpt>
      <trkpt lat="47.96377" lon="6.99744">
        <ele>1221</ele>
        <time>2025-06-08T18:13:19.000Z</time>
      </trkpt>
      <trkpt lat="47.96372" lon="6.99745">
        <ele>1221</ele>
        <time>2025-06-08T18:13:23.000Z</time>
      </trkpt>
      <trkpt lat="47.96367" lon="6.99747">
        <ele>1221</ele>
        <time>2025-06-08T18:13:27.000Z</time>
      </trkpt>
      <trkpt lat="47.96353" lon="6.99755">
        <ele>1221</ele>
        <time>2025-06-08T18:13:39.000Z</time>
      </trkpt>
      <trkpt lat="47.96348" lon="6.99758">
        <ele>1222</ele>
        <time>2025-06-08T18:13:43.000Z</time>
      </trkpt>
      <trkpt lat="47.96344" lon="6.99762">
        <ele>1222</ele>
        <time>2025-06-08T18:13:47.000Z</time>
      </trkpt>
      <trkpt lat="47.9634" lon="6.99767">
        <ele>1222</ele>
        <time>2025-06-08T18:13:51.000Z</time>
      </trkpt>
      <trkpt lat="47.96336" lon="6.99771">
        <ele>1222</ele>
        <time>2025-06-08T18:13:55.000Z</time>
      </trkpt>
      <trkpt lat="47.9633" lon="6.99769">
        <ele>1222</ele>
        <time>2025-06-08T18:13:58.000Z</time>
      </trkpt>
      <trkpt lat="47.96325" lon="6.99772">
        <ele>1221</ele>
        <time>2025-06-08T18:14:02.000Z</time>
      </trkpt>
      <trkpt lat="47.96315" lon="6.99774">
        <ele>1221</ele>
        <time>2025-06-08T18:14:09.000Z</time>
      </trkpt>
      <trkpt lat="47.9631" lon="6.99778">
        <ele>1221</ele>
        <time>2025-06-08T18:14:13.000Z</time>
      </trkpt>
      <trkpt lat="47.96301" lon="6.99781">
        <ele>1221</ele>
        <time>2025-06-08T18:14:20.000Z</time>
      </trkpt>
      <trkpt lat="47.96291" lon="6.99787">
        <ele>1222</ele>
        <time>2025-06-08T18:14:28.000Z</time>
      </trkpt>
      <trkpt lat="47.96278" lon="6.998">
        <ele>1222</ele>
        <time>2025-06-08T18:14:39.000Z</time>
      </trkpt>
      <trkpt lat="47.96274" lon="6.99803">
        <ele>1222</ele>
        <time>2025-06-08T18:14:42.000Z</time>
      </trkpt>
      <trkpt lat="47.96266" lon="6.99813">
        <ele>1222</ele>
        <time>2025-06-08T18:14:51.000Z</time>
      </trkpt>
      <trkpt lat="47.96262" lon="6.99819">
        <ele>1222</ele>
        <time>2025-06-08T18:14:54.000Z</time>
      </trkpt>
      <trkpt lat="47.96259" lon="6.99823">
        <ele>1222</ele>
        <time>2025-06-08T18:14:57.000Z</time>
      </trkpt>
      <trkpt lat="47.96246" lon="6.99846">
        <ele>1223</ele>
        <time>2025-06-08T18:15:13.000Z</time>
      </trkpt>
      <trkpt lat="47.96225" lon="6.99904">
        <ele>1223</ele>
        <time>2025-06-08T18:15:44.000Z</time>
      </trkpt>
      <trkpt lat="47.96217" lon="6.99929">
        <ele>1222</ele>
        <time>2025-06-08T18:15:58.000Z</time>
      </trkpt>
      <trkpt lat="47.96208" lon="6.99985">
        <ele>1223</ele>
        <time>2025-06-08T18:16:23.000Z</time>
      </trkpt>
      <trkpt lat="47.96207" lon="6.99992">
        <ele>1223</ele>
        <time>2025-06-08T18:16:26.000Z</time>
      </trkpt>
      <trkpt lat="47.96205" lon="7.00013">
        <ele>1222</ele>
        <time>2025-06-08T18:16:36.000Z</time>
      </trkpt>
      <trkpt lat="47.96204" lon="7.00027">
        <ele>1222</ele>
        <time>2025-06-08T18:16:42.000Z</time>
      </trkpt>
      <trkpt lat="47.96201" lon="7.00068">
        <ele>1222</ele>
        <time>2025-06-08T18:17:02.000Z</time>
      </trkpt>
      <trkpt lat="47.96188" lon="7.00107">
        <ele>1221</ele>
        <time>2025-06-08T18:17:26.000Z</time>
      </trkpt>
      <trkpt lat="47.9618" lon="7.00128">
        <ele>1221</ele>
        <time>2025-06-08T18:17:38.000Z</time>
      </trkpt>
      <trkpt lat="47.96175" lon="7.00141">
        <ele>1221</ele>
        <time>2025-06-08T18:17:45.000Z</time>
      </trkpt>
      <trkpt lat="47.96172" lon="7.00147">
        <ele>1222</ele>
        <time>2025-06-08T18:17:49.000Z</time>
      </trkpt>
      <trkpt lat="47.96158" lon="7.00169">
        <ele>1222</ele>
        <time>2025-06-08T18:18:05.000Z</time>
      </trkpt>
      <trkpt lat="47.96144" lon="7.00202">
        <ele>1221</ele>
        <time>2025-06-08T18:18:23.000Z</time>
      </trkpt>
      <trkpt lat="47.9611" lon="7.00241">
        <ele>1217</ele>
        <time>2025-06-08T18:18:54.000Z</time>
      </trkpt>
      <trkpt lat="47.96086" lon="7.00268">
        <ele>1216</ele>
        <time>2025-06-08T18:19:16.000Z</time>
      </trkpt>
      <trkpt lat="47.96081" lon="7.00274">
        <ele>1216</ele>
        <time>2025-06-08T18:19:21.000Z</time>
      </trkpt>
      <trkpt lat="47.96052" lon="7.00318">
        <ele>1213</ele>
        <time>2025-06-08T18:19:56.000Z</time>
      </trkpt>
      <trkpt lat="47.96017" lon="7.00372">
        <ele>1209</ele>
        <time>2025-06-08T18:20:28.000Z</time>
      </trkpt>
      <trkpt lat="47.95994" lon="7.00409">
        <ele>1206</ele>
        <time>2025-06-08T18:20:53.000Z</time>
      </trkpt>
      <trkpt lat="47.95975" lon="7.0044">
        <ele>1205</ele>
        <time>2025-06-08T18:21:18.000Z</time>
      </trkpt>
      <trkpt lat="47.95969" lon="7.00448">
        <ele>1203</ele>
        <time>2025-06-08T18:21:27.000Z</time>
      </trkpt>
      <trkpt lat="47.95956" lon="7.0046">
        <ele>1203</ele>
        <time>2025-06-08T18:21:37.000Z</time>
      </trkpt>
      <trkpt lat="47.95951" lon="7.00465">
        <ele>1202</ele>
        <time>2025-06-08T18:21:41.000Z</time>
      </trkpt>
      <trkpt lat="47.95943" lon="7.00471">
        <ele>1202</ele>
        <time>2025-06-08T18:21:48.000Z</time>
      </trkpt>
      <trkpt lat="47.95938" lon="7.00475">
        <ele>1202</ele>
        <time>2025-06-08T18:21:52.000Z</time>
      </trkpt>
      <trkpt lat="47.95929" lon="7.0048">
        <ele>1202</ele>
        <time>2025-06-08T18:21:58.000Z</time>
      </trkpt>
      <trkpt lat="47.95893" lon="7.00511">
        <ele>1205</ele>
        <time>2025-06-08T18:22:28.000Z</time>
      </trkpt>
      <trkpt lat="47.95856" lon="7.00546">
        <ele>1208</ele>
        <time>2025-06-08T18:23:00.000Z</time>
      </trkpt>
      <trkpt lat="47.95852" lon="7.0055">
        <ele>1208</ele>
        <time>2025-06-08T18:23:04.000Z</time>
      </trkpt>
      <trkpt lat="47.95847" lon="7.00556">
        <ele>1208</ele>
        <time>2025-06-08T18:23:12.000Z</time>
      </trkpt>
      <trkpt lat="47.9582" lon="7.00585">
        <ele>1204</ele>
        <time>2025-06-08T18:23:53.000Z</time>
      </trkpt>
      <trkpt lat="47.95815" lon="7.0059">
        <ele>1204</ele>
        <time>2025-06-08T18:24:07.000Z</time>
      </trkpt>
      <trkpt lat="47.95783" lon="7.00626">
        <ele>1204</ele>
        <time>2025-06-08T18:24:38.000Z</time>
      </trkpt>
      <trkpt lat="47.95751" lon="7.00661">
        <ele>1204</ele>
        <time>2025-06-08T18:25:09.000Z</time>
      </trkpt>
      <trkpt lat="47.9572" lon="7.00696">
        <ele>1204</ele>
        <time>2025-06-08T18:25:40.000Z</time>
      </trkpt>
      <trkpt lat="47.95711" lon="7.00708">
        <ele>1205</ele>
        <time>2025-06-08T18:25:57.000Z</time>
      </trkpt>
      <trkpt lat="47.95701" lon="7.00721">
        <ele>1204</ele>
        <time>2025-06-08T18:26:14.000Z</time>
      </trkpt>
      <trkpt lat="47.95697" lon="7.00725">
        <ele>1204</ele>
        <time>2025-06-08T18:26:22.000Z</time>
      </trkpt>
      <trkpt lat="47.95693" lon="7.00729">
        <ele>1205</ele>
        <time>2025-06-08T18:26:28.000Z</time>
      </trkpt>
      <trkpt lat="47.95663" lon="7.00767">
        <ele>1206</ele>
        <time>2025-06-08T18:27:00.000Z</time>
      </trkpt>
      <trkpt lat="47.95635" lon="7.00796">
        <ele>1206</ele>
        <time>2025-06-08T18:27:24.000Z</time>
      </trkpt>
      <trkpt lat="47.95631" lon="7.00791">
        <ele>1205</ele>
        <time>2025-06-08T18:27:26.000Z</time>
      </trkpt>
      <trkpt lat="47.95607" lon="7.00784">
        <ele>1205</ele>
        <time>2025-06-08T18:27:32.000Z</time>
      </trkpt>
      <trkpt lat="47.95596" lon="7.00787">
        <ele>1205</ele>
        <time>2025-06-08T18:27:37.000Z</time>
      </trkpt>
      <trkpt lat="47.95547" lon="7.00785">
        <ele>1205</ele>
        <time>2025-06-08T18:27:52.000Z</time>
      </trkpt>
      <trkpt lat="47.95542" lon="7.00786">
        <ele>1205</ele>
        <time>2025-06-08T18:27:54.000Z</time>
      </trkpt>
      <trkpt lat="47.9553" lon="7.00799">
        <ele>1204</ele>
        <time>2025-06-08T18:28:03.000Z</time>
      </trkpt>
      <trkpt lat="47.95526" lon="7.00804">
        <ele>1204</ele>
        <time>2025-06-08T18:28:07.000Z</time>
      </trkpt>
      <trkpt lat="47.95521" lon="7.00818">
        <ele>1204</ele>
        <time>2025-06-08T18:28:13.000Z</time>
      </trkpt>
      <trkpt lat="47.9552" lon="7.00825">
        <ele>1204</ele>
        <time>2025-06-08T18:28:17.000Z</time>
      </trkpt>
      <trkpt lat="47.95519" lon="7.00831">
        <ele>1204</ele>
        <time>2025-06-08T18:28:21.000Z</time>
      </trkpt>
      <trkpt lat="47.95517" lon="7.00838">
        <ele>1203</ele>
        <time>2025-06-08T18:28:24.000Z</time>
      </trkpt>
      <trkpt lat="47.95516" lon="7.00845">
        <ele>1203</ele>
        <time>2025-06-08T18:28:27.000Z</time>
      </trkpt>
      <trkpt lat="47.95512" lon="7.00871">
        <ele>1203</ele>
        <time>2025-06-08T18:28:39.000Z</time>
      </trkpt>
      <trkpt lat="47.95509" lon="7.00883">
        <ele>1202</ele>
        <time>2025-06-08T18:28:47.000Z</time>
      </trkpt>
      <trkpt lat="47.95505" lon="7.00907">
        <ele>1202</ele>
        <time>2025-06-08T18:28:59.000Z</time>
      </trkpt>
      <trkpt lat="47.95504" lon="7.00914">
        <ele>1202</ele>
        <time>2025-06-08T18:29:03.000Z</time>
      </trkpt>
      <trkpt lat="47.95494" lon="7.00975">
        <ele>1199</ele>
        <time>2025-06-08T18:29:34.000Z</time>
      </trkpt>
      <trkpt lat="47.95482" lon="7.01041">
        <ele>1197</ele>
        <time>2025-06-08T18:30:06.000Z</time>
      </trkpt>
      <trkpt lat="47.95482" lon="7.0105">
        <ele>1197</ele>
        <time>2025-06-08T18:30:13.000Z</time>
      </trkpt>
      <trkpt lat="47.95483" lon="7.01058">
        <ele>1196</ele>
        <time>2025-06-08T18:30:17.000Z</time>
      </trkpt>
      <trkpt lat="47.95472" lon="7.0111">
        <ele>1193</ele>
        <time>2025-06-08T18:30:49.000Z</time>
      </trkpt>
      <trkpt lat="47.9547" lon="7.01117">
        <ele>1193</ele>
        <time>2025-06-08T18:30:52.000Z</time>
      </trkpt>
      <trkpt lat="47.95466" lon="7.01128">
        <ele>1193</ele>
        <time>2025-06-08T18:30:59.000Z</time>
      </trkpt>
      <trkpt lat="47.95467" lon="7.01136">
        <ele>1192</ele>
        <time>2025-06-08T18:31:03.000Z</time>
      </trkpt>
      <trkpt lat="47.95465" lon="7.01143">
        <ele>1192</ele>
        <time>2025-06-08T18:31:06.000Z</time>
      </trkpt>
      <trkpt lat="47.95465" lon="7.01149">
        <ele>1191</ele>
        <time>2025-06-08T18:31:10.000Z</time>
      </trkpt>
      <trkpt lat="47.95462" lon="7.01156">
        <ele>1191</ele>
        <time>2025-06-08T18:31:14.000Z</time>
      </trkpt>
      <trkpt lat="47.95456" lon="7.01176">
        <ele>1191</ele>
        <time>2025-06-08T18:31:21.000Z</time>
      </trkpt>
      <trkpt lat="47.95455" lon="7.01183">
        <ele>1190</ele>
        <time>2025-06-08T18:31:24.000Z</time>
      </trkpt>
      <trkpt lat="47.9544" lon="7.01244">
        <ele>1188</ele>
        <time>2025-06-08T18:31:56.000Z</time>
      </trkpt>
      <trkpt lat="47.95419" lon="7.01303">
        <ele>1185</ele>
        <time>2025-06-08T18:32:28.000Z</time>
      </trkpt>
      <trkpt lat="47.95403" lon="7.01366">
        <ele>1184</ele>
        <time>2025-06-08T18:32:58.000Z</time>
      </trkpt>
      <trkpt lat="47.95389" lon="7.01425">
        <ele>1182</ele>
        <time>2025-06-08T18:33:29.000Z</time>
      </trkpt>
      <trkpt lat="47.95387" lon="7.01433">
        <ele>1181</ele>
        <time>2025-06-08T18:33:33.000Z</time>
      </trkpt>
      <trkpt lat="47.95376" lon="7.01486">
        <ele>1180</ele>
        <time>2025-06-08T18:33:59.000Z</time>
      </trkpt>
      <trkpt lat="47.95375" lon="7.01513">
        <ele>1180</ele>
        <time>2025-06-08T18:34:12.000Z</time>
      </trkpt>
      <trkpt lat="47.95366" lon="7.01547">
        <ele>1179</ele>
        <time>2025-06-08T18:34:30.000Z</time>
      </trkpt>
      <trkpt lat="47.95365" lon="7.01554">
        <ele>1180</ele>
        <time>2025-06-08T18:34:34.000Z</time>
      </trkpt>
      <trkpt lat="47.95362" lon="7.01568">
        <ele>1180</ele>
        <time>2025-06-08T18:34:42.000Z</time>
      </trkpt>
      <trkpt lat="47.95356" lon="7.01589">
        <ele>1181</ele>
        <time>2025-06-08T18:34:54.000Z</time>
      </trkpt>
      <trkpt lat="47.9535" lon="7.016">
        <ele>1182</ele>
        <time>2025-06-08T18:35:02.000Z</time>
      </trkpt>
      <trkpt lat="47.95348" lon="7.01608">
        <ele>1182</ele>
        <time>2025-06-08T18:35:06.000Z</time>
      </trkpt>
      <trkpt lat="47.95349" lon="7.01616">
        <ele>1182</ele>
        <time>2025-06-08T18:35:09.000Z</time>
      </trkpt>
      <trkpt lat="47.95353" lon="7.01625">
        <ele>1182</ele>
        <time>2025-06-08T18:35:11.000Z</time>
      </trkpt>
      <trkpt lat="47.95353" lon="7.01648">
        <ele>1183</ele>
        <time>2025-06-08T18:35:22.000Z</time>
      </trkpt>
      <trkpt lat="47.95353" lon="7.01655">
        <ele>1183</ele>
        <time>2025-06-08T18:35:26.000Z</time>
      </trkpt>
      <trkpt lat="47.95347" lon="7.01685">
        <ele>1182</ele>
        <time>2025-06-08T18:35:42.000Z</time>
      </trkpt>
      <trkpt lat="47.95341" lon="7.01703">
        <ele>1183</ele>
        <time>2025-06-08T18:35:52.000Z</time>
      </trkpt>
      <trkpt lat="47.95321" lon="7.01748">
        <ele>1182</ele>
        <time>2025-06-08T18:36:23.000Z</time>
      </trkpt>
      <trkpt lat="47.95318" lon="7.01753">
        <ele>1182</ele>
        <time>2025-06-08T18:36:26.000Z</time>
      </trkpt>
      <trkpt lat="47.95308" lon="7.0178">
        <ele>1181</ele>
        <time>2025-06-08T18:36:47.000Z</time>
      </trkpt>
      <trkpt lat="47.95299" lon="7.01798">
        <ele>1181</ele>
        <time>2025-06-08T18:36:59.000Z</time>
      </trkpt>
      <trkpt lat="47.95296" lon="7.01805">
        <ele>1181</ele>
        <time>2025-06-08T18:37:02.000Z</time>
      </trkpt>
      <trkpt lat="47.95293" lon="7.01811">
        <ele>1181</ele>
        <time>2025-06-08T18:37:06.000Z</time>
      </trkpt>
      <trkpt lat="47.95291" lon="7.01816">
        <ele>1181</ele>
        <time>2025-06-08T18:37:10.000Z</time>
      </trkpt>
      <trkpt lat="47.95287" lon="7.01831">
        <ele>1181</ele>
        <time>2025-06-08T18:37:18.000Z</time>
      </trkpt>
      <trkpt lat="47.95284" lon="7.01837">
        <ele>1181</ele>
        <time>2025-06-08T18:37:22.000Z</time>
      </trkpt>
      <trkpt lat="47.95259" lon="7.01884">
        <ele>1183</ele>
        <time>2025-06-08T18:37:54.000Z</time>
      </trkpt>
      <trkpt lat="47.95247" lon="7.01898">
        <ele>1185</ele>
        <time>2025-06-08T18:38:08.000Z</time>
      </trkpt>
      <trkpt lat="47.95241" lon="7.01901">
        <ele>1185</ele>
        <time>2025-06-08T18:38:16.000Z</time>
      </trkpt>
      <trkpt lat="47.95237" lon="7.01902">
        <ele>1185</ele>
        <time>2025-06-08T18:38:21.000Z</time>
      </trkpt>
      <trkpt lat="47.95232" lon="7.01903">
        <ele>1185</ele>
        <time>2025-06-08T18:38:25.000Z</time>
      </trkpt>
      <trkpt lat="47.95227" lon="7.01908">
        <ele>1185</ele>
        <time>2025-06-08T18:38:29.000Z</time>
      </trkpt>
      <trkpt lat="47.95219" lon="7.01917">
        <ele>1186</ele>
        <time>2025-06-08T18:38:37.000Z</time>
      </trkpt>
      <trkpt lat="47.9521" lon="7.01922">
        <ele>1186</ele>
        <time>2025-06-08T18:38:45.000Z</time>
      </trkpt>
      <trkpt lat="47.95205" lon="7.01925">
        <ele>1186</ele>
        <time>2025-06-08T18:38:49.000Z</time>
      </trkpt>
      <trkpt lat="47.95202" lon="7.0193">
        <ele>1186</ele>
        <time>2025-06-08T18:38:53.000Z</time>
      </trkpt>
      <trkpt lat="47.95196" lon="7.01927">
        <ele>1187</ele>
        <time>2025-06-08T18:39:00.000Z</time>
      </trkpt>
      <trkpt lat="47.95191" lon="7.01932">
        <ele>1187</ele>
        <time>2025-06-08T18:39:04.000Z</time>
      </trkpt>
      <trkpt lat="47.95173" lon="7.01945">
        <ele>1188</ele>
        <time>2025-06-08T18:39:19.000Z</time>
      </trkpt>
      <trkpt lat="47.95161" lon="7.01956">
        <ele>1188</ele>
        <time>2025-06-08T18:39:31.000Z</time>
      </trkpt>
      <trkpt lat="47.95156" lon="7.0196">
        <ele>1189</ele>
        <time>2025-06-08T18:39:41.000Z</time>
      </trkpt>
      <trkpt lat="47.95151" lon="7.01963">
        <ele>1189</ele>
        <time>2025-06-08T18:39:52.000Z</time>
      </trkpt>
      <trkpt lat="47.95143" lon="7.01967">
        <ele>1191</ele>
        <time>2025-06-08T18:40:01.000Z</time>
      </trkpt>
      <trkpt lat="47.95128" lon="7.0197">
        <ele>1191</ele>
        <time>2025-06-08T18:40:15.000Z</time>
      </trkpt>
      <trkpt lat="47.95123" lon="7.0197">
        <ele>1191</ele>
        <time>2025-06-08T18:40:19.000Z</time>
      </trkpt>
      <trkpt lat="47.95119" lon="7.0197">
        <ele>1191</ele>
        <time>2025-06-08T18:40:23.000Z</time>
      </trkpt>
      <trkpt lat="47.95114" lon="7.01967">
        <ele>1191</ele>
        <time>2025-06-08T18:40:27.000Z</time>
      </trkpt>
      <trkpt lat="47.9511" lon="7.01969">
        <ele>1192</ele>
        <time>2025-06-08T18:40:32.000Z</time>
      </trkpt>
      <trkpt lat="47.95106" lon="7.01972">
        <ele>1192</ele>
        <time>2025-06-08T18:40:39.000Z</time>
      </trkpt>
      <trkpt lat="47.95097" lon="7.01974">
        <ele>1192</ele>
        <time>2025-06-08T18:40:47.000Z</time>
      </trkpt>
      <trkpt lat="47.95068" lon="7.01979">
        <ele>1196</ele>
        <time>2025-06-08T18:41:18.000Z</time>
      </trkpt>
      <trkpt lat="47.95059" lon="7.01982">
        <ele>1197</ele>
        <time>2025-06-08T18:41:26.000Z</time>
      </trkpt>
      <trkpt lat="47.95028" lon="7.01991">
        <ele>1201</ele>
        <time>2025-06-08T18:41:58.000Z</time>
      </trkpt>
      <trkpt lat="47.94999" lon="7.02004">
        <ele>1204</ele>
        <time>2025-06-08T18:42:33.000Z</time>
      </trkpt>
      <trkpt lat="47.94961" lon="7.02022">
        <ele>1208</ele>
        <time>2025-06-08T18:43:08.000Z</time>
      </trkpt>
      <trkpt lat="47.94934" lon="7.02033">
        <ele>1211</ele>
        <time>2025-06-08T18:43:32.000Z</time>
      </trkpt>
      <trkpt lat="47.9493" lon="7.02035">
        <ele>1211</ele>
        <time>2025-06-08T18:43:36.000Z</time>
      </trkpt>
      <trkpt lat="47.94916" lon="7.02041">
        <ele>1213</ele>
        <time>2025-06-08T18:43:48.000Z</time>
      </trkpt>
      <trkpt lat="47.94912" lon="7.02043">
        <ele>1213</ele>
        <time>2025-06-08T18:43:52.000Z</time>
      </trkpt>
      <trkpt lat="47.94907" lon="7.02045">
        <ele>1213</ele>
        <time>2025-06-08T18:43:57.000Z</time>
      </trkpt>
      <trkpt lat="47.94875" lon="7.02061">
        <ele>1219</ele>
        <time>2025-06-08T18:44:29.000Z</time>
      </trkpt>
      <trkpt lat="47.94838" lon="7.02077">
        <ele>1224</ele>
        <time>2025-06-08T18:45:03.000Z</time>
      </trkpt>
      <trkpt lat="47.94809" lon="7.02094">
        <ele>1227</ele>
        <time>2025-06-08T18:45:26.000Z</time>
      </trkpt>
      <trkpt lat="47.94775" lon="7.02126">
        <ele>1233</ele>
        <time>2025-06-08T18:45:57.000Z</time>
      </trkpt>
      <trkpt lat="47.94741" lon="7.02158">
        <ele>1238</ele>
        <time>2025-06-08T18:46:29.000Z</time>
      </trkpt>
      <trkpt lat="47.94737" lon="7.02161">
        <ele>1239</ele>
        <time>2025-06-08T18:46:32.000Z</time>
      </trkpt>
      <trkpt lat="47.94722" lon="7.02183">
        <ele>1242</ele>
        <time>2025-06-08T18:46:48.000Z</time>
      </trkpt>
      <trkpt lat="47.94709" lon="7.02194">
        <ele>1245</ele>
        <time>2025-06-08T18:47:00.000Z</time>
      </trkpt>
      <trkpt lat="47.94702" lon="7.02203">
        <ele>1247</ele>
        <time>2025-06-08T18:47:12.000Z</time>
      </trkpt>
      <trkpt lat="47.94698" lon="7.02206">
        <ele>1247</ele>
        <time>2025-06-08T18:47:15.000Z</time>
      </trkpt>
      <trkpt lat="47.94688" lon="7.02213">
        <ele>1250</ele>
        <time>2025-06-08T18:47:26.000Z</time>
      </trkpt>
      <trkpt lat="47.94684" lon="7.02217">
        <ele>1250</ele>
        <time>2025-06-08T18:47:29.000Z</time>
      </trkpt>
      <trkpt lat="47.9468" lon="7.02224">
        <ele>1250</ele>
        <time>2025-06-08T18:47:32.000Z</time>
      </trkpt>
      <trkpt lat="47.94675" lon="7.02226">
        <ele>1252</ele>
        <time>2025-06-08T18:47:37.000Z</time>
      </trkpt>
      <trkpt lat="47.94671" lon="7.02233">
        <ele>1253</ele>
        <time>2025-06-08T18:47:41.000Z</time>
      </trkpt>
      <trkpt lat="47.94653" lon="7.02249">
        <ele>1256</ele>
        <time>2025-06-08T18:47:57.000Z</time>
      </trkpt>
      <trkpt lat="47.94645" lon="7.0226">
        <ele>1257</ele>
        <time>2025-06-08T18:48:06.000Z</time>
      </trkpt>
      <trkpt lat="47.94639" lon="7.02272">
        <ele>1259</ele>
        <time>2025-06-08T18:48:14.000Z</time>
      </trkpt>
      <trkpt lat="47.94635" lon="7.02276">
        <ele>1259</ele>
        <time>2025-06-08T18:48:17.000Z</time>
      </trkpt>
      <trkpt lat="47.94629" lon="7.02286">
        <ele>1260</ele>
        <time>2025-06-08T18:48:24.000Z</time>
      </trkpt>
      <trkpt lat="47.94629" lon="7.02294">
        <ele>1261</ele>
        <time>2025-06-08T18:48:30.000Z</time>
      </trkpt>
      <trkpt lat="47.94625" lon="7.02302">
        <ele>1262</ele>
        <time>2025-06-08T18:48:35.000Z</time>
      </trkpt>
      <trkpt lat="47.9462" lon="7.02304">
        <ele>1263</ele>
        <time>2025-06-08T18:48:38.000Z</time>
      </trkpt>
      <trkpt lat="47.94611" lon="7.02305">
        <ele>1264</ele>
        <time>2025-06-08T18:48:44.000Z</time>
      </trkpt>
      <trkpt lat="47.94606" lon="7.02307">
        <ele>1264</ele>
        <time>2025-06-08T18:48:49.000Z</time>
      </trkpt>
      <trkpt lat="47.94598" lon="7.02314">
        <ele>1264</ele>
        <time>2025-06-08T18:48:56.000Z</time>
      </trkpt>
      <trkpt lat="47.94593" lon="7.02316">
        <ele>1265</ele>
        <time>2025-06-08T18:49:00.000Z</time>
      </trkpt>
      <trkpt lat="47.94584" lon="7.02316">
        <ele>1265</ele>
        <time>2025-06-08T18:49:06.000Z</time>
      </trkpt>
      <trkpt lat="47.9458" lon="7.02314">
        <ele>1265</ele>
        <time>2025-06-08T18:49:09.000Z</time>
      </trkpt>
      <trkpt lat="47.94575" lon="7.02315">
        <ele>1265</ele>
        <time>2025-06-08T18:49:13.000Z</time>
      </trkpt>
      <trkpt lat="47.9457" lon="7.02316">
        <ele>1266</ele>
        <time>2025-06-08T18:49:17.000Z</time>
      </trkpt>
      <trkpt lat="47.94565" lon="7.02315">
        <ele>1266</ele>
        <time>2025-06-08T18:49:21.000Z</time>
      </trkpt>
      <trkpt lat="47.9456" lon="7.02316">
        <ele>1267</ele>
        <time>2025-06-08T18:49:25.000Z</time>
      </trkpt>
      <trkpt lat="47.94555" lon="7.02314">
        <ele>1267</ele>
        <time>2025-06-08T18:49:29.000Z</time>
      </trkpt>
      <trkpt lat="47.94544" lon="7.02309">
        <ele>1267</ele>
        <time>2025-06-08T18:49:37.000Z</time>
      </trkpt>
      <trkpt lat="47.94539" lon="7.02309">
        <ele>1267</ele>
        <time>2025-06-08T18:49:41.000Z</time>
      </trkpt>
      <trkpt lat="47.94524" lon="7.02314">
        <ele>1267</ele>
        <time>2025-06-08T18:49:52.000Z</time>
      </trkpt>
      <trkpt lat="47.94514" lon="7.02322">
        <ele>1268</ele>
        <time>2025-06-08T18:50:03.000Z</time>
      </trkpt>
      <trkpt lat="47.94505" lon="7.02327">
        <ele>1266</ele>
        <time>2025-06-08T18:50:12.000Z</time>
      </trkpt>
      <trkpt lat="47.945" lon="7.0233">
        <ele>1266</ele>
        <time>2025-06-08T18:50:16.000Z</time>
      </trkpt>
      <trkpt lat="47.94495" lon="7.02331">
        <ele>1266</ele>
        <time>2025-06-08T18:50:19.000Z</time>
      </trkpt>
      <trkpt lat="47.94487" lon="7.02328">
        <ele>1265</ele>
        <time>2025-06-08T18:50:25.000Z</time>
      </trkpt>
      <trkpt lat="47.94481" lon="7.02324">
        <ele>1265</ele>
        <time>2025-06-08T18:50:29.000Z</time>
      </trkpt>
      <trkpt lat="47.94477" lon="7.0232">
        <ele>1264</ele>
        <time>2025-06-08T18:50:34.000Z</time>
      </trkpt>
      <trkpt lat="47.94473" lon="7.02318">
        <ele>1264</ele>
        <time>2025-06-08T18:50:38.000Z</time>
      </trkpt>
      <trkpt lat="47.94467" lon="7.02317">
        <ele>1263</ele>
        <time>2025-06-08T18:50:45.000Z</time>
      </trkpt>
      <trkpt lat="47.94458" lon="7.02321">
        <ele>1262</ele>
        <time>2025-06-08T18:50:56.000Z</time>
      </trkpt>
      <trkpt lat="47.9445" lon="7.02328">
        <ele>1260</ele>
        <time>2025-06-08T18:51:07.000Z</time>
      </trkpt>
      <trkpt lat="47.94422" lon="7.02342">
        <ele>1257</ele>
        <time>2025-06-08T18:51:30.000Z</time>
      </trkpt>
      <trkpt lat="47.94417" lon="7.02343">
        <ele>1257</ele>
        <time>2025-06-08T18:51:34.000Z</time>
      </trkpt>
      <trkpt lat="47.94412" lon="7.02342">
        <ele>1256</ele>
        <time>2025-06-08T18:51:38.000Z</time>
      </trkpt>
      <trkpt lat="47.94394" lon="7.02332">
        <ele>1255</ele>
        <time>2025-06-08T18:51:53.000Z</time>
      </trkpt>
      <trkpt lat="47.94356" lon="7.02328">
        <ele>1248</ele>
        <time>2025-06-08T18:52:25.000Z</time>
      </trkpt>
      <trkpt lat="47.94341" lon="7.02327">
        <ele>1245</ele>
        <time>2025-06-08T18:52:36.000Z</time>
      </trkpt>
      <trkpt lat="47.94323" lon="7.02332">
        <ele>1242</ele>
        <time>2025-06-08T18:52:54.000Z</time>
      </trkpt>
      <trkpt lat="47.94287" lon="7.02332">
        <ele>1235</ele>
        <time>2025-06-08T18:53:21.000Z</time>
      </trkpt>
      <trkpt lat="47.94278" lon="7.02335">
        <ele>1233</ele>
        <time>2025-06-08T18:53:29.000Z</time>
      </trkpt>
      <trkpt lat="47.94273" lon="7.02338">
        <ele>1232</ele>
        <time>2025-06-08T18:53:33.000Z</time>
      </trkpt>
      <trkpt lat="47.94263" lon="7.02345">
        <ele>1230</ele>
        <time>2025-06-08T18:53:41.000Z</time>
      </trkpt>
      <trkpt lat="47.94234" lon="7.02346">
        <ele>1227</ele>
        <time>2025-06-08T18:54:02.000Z</time>
      </trkpt>
      <trkpt lat="47.9419" lon="7.02344">
        <ele>1223</ele>
        <time>2025-06-08T18:54:34.000Z</time>
      </trkpt>
      <trkpt lat="47.94145" lon="7.02344">
        <ele>1220</ele>
        <time>2025-06-08T18:55:11.000Z</time>
      </trkpt>
      <trkpt lat="47.94139" lon="7.02344">
        <ele>1220</ele>
        <time>2025-06-08T18:55:15.000Z</time>
      </trkpt>
      <trkpt lat="47.94135" lon="7.02343">
        <ele>1219</ele>
        <time>2025-06-08T18:55:18.000Z</time>
      </trkpt>
      <trkpt lat="47.94118" lon="7.0234">
        <ele>1220</ele>
        <time>2025-06-08T18:55:30.000Z</time>
      </trkpt>
      <trkpt lat="47.94076" lon="7.02333">
        <ele>1224</ele>
        <time>2025-06-08T18:56:01.000Z</time>
      </trkpt>
      <trkpt lat="47.94065" lon="7.02331">
        <ele>1224</ele>
        <time>2025-06-08T18:56:08.000Z</time>
      </trkpt>
      <trkpt lat="47.9406" lon="7.02331">
        <ele>1225</ele>
        <time>2025-06-08T18:56:12.000Z</time>
      </trkpt>
      <trkpt lat="47.94015" lon="7.02326">
        <ele>1229</ele>
        <time>2025-06-08T18:56:46.000Z</time>
      </trkpt>
      <trkpt lat="47.9401" lon="7.02325">
        <ele>1229</ele>
        <time>2025-06-08T18:56:50.000Z</time>
      </trkpt>
      <trkpt lat="47.93966" lon="7.02316">
        <ele>1225</ele>
        <time>2025-06-08T18:57:23.000Z</time>
      </trkpt>
      <trkpt lat="47.93919" lon="7.02303">
        <ele>1222</ele>
        <time>2025-06-08T18:57:55.000Z</time>
      </trkpt>
      <trkpt lat="47.93871" lon="7.02287">
        <ele>1217</ele>
        <time>2025-06-08T18:58:28.000Z</time>
      </trkpt>
      <trkpt lat="47.93825" lon="7.02269">
        <ele>1213</ele>
        <time>2025-06-08T18:59:01.000Z</time>
      </trkpt>
      <trkpt lat="47.938" lon="7.02259">
        <ele>1212</ele>
        <time>2025-06-08T18:59:20.000Z</time>
      </trkpt>
      <trkpt lat="47.93795" lon="7.02257">
        <ele>1212</ele>
        <time>2025-06-08T18:59:24.000Z</time>
      </trkpt>
      <trkpt lat="47.93791" lon="7.02255">
        <ele>1211</ele>
        <time>2025-06-08T18:59:27.000Z</time>
      </trkpt>
      <trkpt lat="47.93786" lon="7.02253">
        <ele>1212</ele>
        <time>2025-06-08T18:59:30.000Z</time>
      </trkpt>
      <trkpt lat="47.93744" lon="7.02234">
        <ele>1212</ele>
        <time>2025-06-08T19:00:01.000Z</time>
      </trkpt>
      <trkpt lat="47.93699" lon="7.02214">
        <ele>1215</ele>
        <time>2025-06-08T19:00:33.000Z</time>
      </trkpt>
      <trkpt lat="47.93678" lon="7.02204">
        <ele>1215</ele>
        <time>2025-06-08T19:00:49.000Z</time>
      </trkpt>
      <trkpt lat="47.93669" lon="7.02199">
        <ele>1216</ele>
        <time>2025-06-08T19:00:56.000Z</time>
      </trkpt>
      <trkpt lat="47.93651" lon="7.0219">
        <ele>1216</ele>
        <time>2025-06-08T19:01:09.000Z</time>
      </trkpt>
      <trkpt lat="47.93643" lon="7.02184">
        <ele>1217</ele>
        <time>2025-06-08T19:01:15.000Z</time>
      </trkpt>
      <trkpt lat="47.93638" lon="7.0218">
        <ele>1216</ele>
        <time>2025-06-08T19:01:19.000Z</time>
      </trkpt>
      <trkpt lat="47.93633" lon="7.02175">
        <ele>1216</ele>
        <time>2025-06-08T19:01:23.000Z</time>
      </trkpt>
      <trkpt lat="47.93597" lon="7.02132">
        <ele>1214</ele>
        <time>2025-06-08T19:01:56.000Z</time>
      </trkpt>
      <trkpt lat="47.93559" lon="7.02088">
        <ele>1214</ele>
        <time>2025-06-08T19:02:29.000Z</time>
      </trkpt>
      <trkpt lat="47.93554" lon="7.02083">
        <ele>1214</ele>
        <time>2025-06-08T19:02:33.000Z</time>
      </trkpt>
      <trkpt lat="47.93545" lon="7.02073">
        <ele>1214</ele>
        <time>2025-06-08T19:02:41.000Z</time>
      </trkpt>
      <trkpt lat="47.93533" lon="7.0206">
        <ele>1216</ele>
        <time>2025-06-08T19:02:52.000Z</time>
      </trkpt>
      <trkpt lat="47.93524" lon="7.02052">
        <ele>1216</ele>
        <time>2025-06-08T19:03:00.000Z</time>
      </trkpt>
      <trkpt lat="47.9352" lon="7.02049">
        <ele>1216</ele>
        <time>2025-06-08T19:03:04.000Z</time>
      </trkpt>
      <trkpt lat="47.93516" lon="7.02045">
        <ele>1216</ele>
        <time>2025-06-08T19:03:08.000Z</time>
      </trkpt>
      <trkpt lat="47.9351" lon="7.02049">
        <ele>1217</ele>
        <time>2025-06-08T19:03:12.000Z</time>
      </trkpt>
      <trkpt lat="47.93506" lon="7.02056">
        <ele>1217</ele>
        <time>2025-06-08T19:03:15.000Z</time>
      </trkpt>
      <trkpt lat="47.93503" lon="7.02064">
        <ele>1217</ele>
        <time>2025-06-08T19:03:16.000Z</time>
      </trkpt>
      <trkpt lat="47.935" lon="7.02067">
        <ele>1218</ele>
        <time>2025-06-08T19:03:19.000Z</time>
      </trkpt>
      <trkpt lat="47.93494" lon="7.02068">
        <ele>1218</ele>
        <time>2025-06-08T19:03:23.000Z</time>
      </trkpt>
      <trkpt lat="47.9349" lon="7.02065">
        <ele>1218</ele>
        <time>2025-06-08T19:03:26.000Z</time>
      </trkpt>
      <trkpt lat="47.93485" lon="7.02061">
        <ele>1219</ele>
        <time>2025-06-08T19:03:31.000Z</time>
      </trkpt>
      <trkpt lat="47.93482" lon="7.02057">
        <ele>1220</ele>
        <time>2025-06-08T19:03:34.000Z</time>
      </trkpt>
      <trkpt lat="47.93468" lon="7.02045">
        <ele>1220</ele>
        <time>2025-06-08T19:03:46.000Z</time>
      </trkpt>
      <trkpt lat="47.93457" lon="7.0203">
        <ele>1221</ele>
        <time>2025-06-08T19:03:58.000Z</time>
      </trkpt>
      <trkpt lat="47.93449" lon="7.02021">
        <ele>1221</ele>
        <time>2025-06-08T19:04:05.000Z</time>
      </trkpt>
      <trkpt lat="47.93429" lon="7.02006">
        <ele>1221</ele>
        <time>2025-06-08T19:04:21.000Z</time>
      </trkpt>
      <trkpt lat="47.93387" lon="7.01992">
        <ele>1221</ele>
        <time>2025-06-08T19:04:51.000Z</time>
      </trkpt>
      <trkpt lat="47.93344" lon="7.01977">
        <ele>1217</ele>
        <time>2025-06-08T19:05:22.000Z</time>
      </trkpt>
      <trkpt lat="47.93314" lon="7.01969">
        <ele>1215</ele>
        <time>2025-06-08T19:05:45.000Z</time>
      </trkpt>
      <trkpt lat="47.93272" lon="7.01968">
        <ele>1212</ele>
        <time>2025-06-08T19:06:16.000Z</time>
      </trkpt>
      <trkpt lat="47.93267" lon="7.01968">
        <ele>1211</ele>
        <time>2025-06-08T19:06:20.000Z</time>
      </trkpt>
      <trkpt lat="47.93255" lon="7.01968">
        <ele>1211</ele>
        <time>2025-06-08T19:06:43.000Z</time>
      </trkpt>
      <trkpt lat="47.93245" lon="7.01968">
        <ele>1210</ele>
        <time>2025-06-08T19:06:52.000Z</time>
      </trkpt>
      <trkpt lat="47.93236" lon="7.01968">
        <ele>1210</ele>
        <time>2025-06-08T19:07:01.000Z</time>
      </trkpt>
      <trkpt lat="47.93231" lon="7.01968">
        <ele>1210</ele>
        <time>2025-06-08T19:07:05.000Z</time>
      </trkpt>
      <trkpt lat="47.93217" lon="7.01969">
        <ele>1210</ele>
        <time>2025-06-08T19:07:17.000Z</time>
      </trkpt>
      <trkpt lat="47.93199" lon="7.01969">
        <ele>1210</ele>
        <time>2025-06-08T19:07:33.000Z</time>
      </trkpt>
      <trkpt lat="47.93193" lon="7.01971">
        <ele>1210</ele>
        <time>2025-06-08T19:07:39.000Z</time>
      </trkpt>
      <trkpt lat="47.93188" lon="7.01969">
        <ele>1211</ele>
        <time>2025-06-08T19:07:44.000Z</time>
      </trkpt>
      <trkpt lat="47.93185" lon="7.01965">
        <ele>1211</ele>
        <time>2025-06-08T19:07:47.000Z</time>
      </trkpt>
      <trkpt lat="47.93183" lon="7.01959">
        <ele>1211</ele>
        <time>2025-06-08T19:07:50.000Z</time>
      </trkpt>
      <trkpt lat="47.93153" lon="7.0195">
        <ele>1213</ele>
        <time>2025-06-08T19:08:23.000Z</time>
      </trkpt>
      <trkpt lat="47.93118" lon="7.01943">
        <ele>1215</ele>
        <time>2025-06-08T19:08:50.000Z</time>
      </trkpt>
      <trkpt lat="47.93081" lon="7.0194">
        <ele>1219</ele>
        <time>2025-06-08T19:09:22.000Z</time>
      </trkpt>
      <trkpt lat="47.93044" lon="7.01939">
        <ele>1222</ele>
        <time>2025-06-08T19:09:56.000Z</time>
      </trkpt>
      <trkpt lat="47.93004" lon="7.01942">
        <ele>1225</ele>
        <time>2025-06-08T19:10:28.000Z</time>
      </trkpt>
      <trkpt lat="47.92984" lon="7.01944">
        <ele>1226</ele>
        <time>2025-06-08T19:10:43.000Z</time>
      </trkpt>
      <trkpt lat="47.92958" lon="7.01946">
        <ele>1228</ele>
        <time>2025-06-08T19:11:02.000Z</time>
      </trkpt>
      <trkpt lat="47.92933" lon="7.01958">
        <ele>1229</ele>
        <time>2025-06-08T19:11:22.000Z</time>
      </trkpt>
      <trkpt lat="47.92928" lon="7.01958">
        <ele>1229</ele>
        <time>2025-06-08T19:11:26.000Z</time>
      </trkpt>
      <trkpt lat="47.92923" lon="7.01959">
        <ele>1230</ele>
        <time>2025-06-08T19:11:30.000Z</time>
      </trkpt>
      <trkpt lat="47.92914" lon="7.01958">
        <ele>1230</ele>
        <time>2025-06-08T19:11:40.000Z</time>
      </trkpt>
      <trkpt lat="47.92894" lon="7.01948">
        <ele>1231</ele>
        <time>2025-06-08T19:11:57.000Z</time>
      </trkpt>
      <trkpt lat="47.92869" lon="7.01936">
        <ele>1231</ele>
        <time>2025-06-08T19:12:17.000Z</time>
      </trkpt>
      <trkpt lat="47.92859" lon="7.01935">
        <ele>1231</ele>
        <time>2025-06-08T19:12:24.000Z</time>
      </trkpt>
      <trkpt lat="47.92813" lon="7.01944">
        <ele>1231</ele>
        <time>2025-06-08T19:12:57.000Z</time>
      </trkpt>
      <trkpt lat="47.92772" lon="7.01953">
        <ele>1230</ele>
        <time>2025-06-08T19:13:28.000Z</time>
      </trkpt>
      <trkpt lat="47.92768" lon="7.01957">
        <ele>1229</ele>
        <time>2025-06-08T19:13:32.000Z</time>
      </trkpt>
      <trkpt lat="47.92765" lon="7.01963">
        <ele>1229</ele>
        <time>2025-06-08T19:13:36.000Z</time>
      </trkpt>
      <trkpt lat="47.92764" lon="7.0197">
        <ele>1230</ele>
        <time>2025-06-08T19:13:40.000Z</time>
      </trkpt>
      <trkpt lat="47.92765" lon="7.01977">
        <ele>1230</ele>
        <time>2025-06-08T19:13:44.000Z</time>
      </trkpt>
      <trkpt lat="47.9278" lon="7.02036">
        <ele>1229</ele>
        <time>2025-06-08T19:14:17.000Z</time>
      </trkpt>
      <trkpt lat="47.92797" lon="7.02097">
        <ele>1229</ele>
        <time>2025-06-08T19:14:50.000Z</time>
      </trkpt>
      <trkpt lat="47.92798" lon="7.02103">
        <ele>1229</ele>
        <time>2025-06-08T19:14:52.000Z</time>
      </trkpt>
      <trkpt lat="47.92803" lon="7.02134">
        <ele>1229</ele>
        <time>2025-06-08T19:15:08.000Z</time>
      </trkpt>
      <trkpt lat="47.92802" lon="7.0215">
        <ele>1229</ele>
        <time>2025-06-08T19:15:16.000Z</time>
      </trkpt>
      <trkpt lat="47.92793" lon="7.02193">
        <ele>1231</ele>
        <time>2025-06-08T19:15:40.000Z</time>
      </trkpt>
      <trkpt lat="47.92793" lon="7.022">
        <ele>1232</ele>
        <time>2025-06-08T19:15:43.000Z</time>
      </trkpt>
      <trkpt lat="47.92795" lon="7.02207">
        <ele>1232</ele>
        <time>2025-06-08T19:15:47.000Z</time>
      </trkpt>
      <trkpt lat="47.92799" lon="7.02214">
        <ele>1232</ele>
        <time>2025-06-08T19:15:51.000Z</time>
      </trkpt>
      <trkpt lat="47.92806" lon="7.02224">
        <ele>1231</ele>
        <time>2025-06-08T19:15:59.000Z</time>
      </trkpt>
      <trkpt lat="47.92809" lon="7.0223">
        <ele>1230</ele>
        <time>2025-06-08T19:16:03.000Z</time>
      </trkpt>
      <trkpt lat="47.9281" lon="7.02237">
        <ele>1229</ele>
        <time>2025-06-08T19:16:08.000Z</time>
      </trkpt>
      <trkpt lat="47.9281" lon="7.02245">
        <ele>1228</ele>
        <time>2025-06-08T19:16:12.000Z</time>
      </trkpt>
      <trkpt lat="47.92809" lon="7.02316">
        <ele>1227</ele>
        <time>2025-06-08T19:16:46.000Z</time>
      </trkpt>
      <trkpt lat="47.92808" lon="7.02364">
        <ele>1227</ele>
        <time>2025-06-08T19:17:09.000Z</time>
      </trkpt>
      <trkpt lat="47.92805" lon="7.02371">
        <ele>1227</ele>
        <time>2025-06-08T19:17:13.000Z</time>
      </trkpt>
      <trkpt lat="47.92804" lon="7.02386">
        <ele>1227</ele>
        <time>2025-06-08T19:17:20.000Z</time>
      </trkpt>
      <trkpt lat="47.928" lon="7.0244">
        <ele>1227</ele>
        <time>2025-06-08T19:17:48.000Z</time>
      </trkpt>
      <trkpt lat="47.92786" lon="7.025">
        <ele>1224</ele>
        <time>2025-06-08T19:18:20.000Z</time>
      </trkpt>
      <trkpt lat="47.92784" lon="7.02508">
        <ele>1224</ele>
        <time>2025-06-08T19:18:24.000Z</time>
      </trkpt>
      <trkpt lat="47.92772" lon="7.0254">
        <ele>1223</ele>
        <time>2025-06-08T19:18:43.000Z</time>
      </trkpt>
      <trkpt lat="47.92769" lon="7.02546">
        <ele>1223</ele>
        <time>2025-06-08T19:18:47.000Z</time>
      </trkpt>
      <trkpt lat="47.92764" lon="7.02559">
        <ele>1222</ele>
        <time>2025-06-08T19:18:55.000Z</time>
      </trkpt>
      <trkpt lat="47.92758" lon="7.02581">
        <ele>1220</ele>
        <time>2025-06-08T19:19:07.000Z</time>
      </trkpt>
      <trkpt lat="47.92756" lon="7.02587">
        <ele>1219</ele>
        <time>2025-06-08T19:19:10.000Z</time>
      </trkpt>
      <trkpt lat="47.92751" lon="7.02591">
        <ele>1219</ele>
        <time>2025-06-08T19:19:14.000Z</time>
      </trkpt>
      <trkpt lat="47.92734" lon="7.02605">
        <ele>1221</ele>
        <time>2025-06-08T19:19:30.000Z</time>
      </trkpt>
      <trkpt lat="47.92731" lon="7.02611">
        <ele>1221</ele>
        <time>2025-06-08T19:19:33.000Z</time>
      </trkpt>
      <trkpt lat="47.92729" lon="7.02618">
        <ele>1222</ele>
        <time>2025-06-08T19:19:38.000Z</time>
      </trkpt>
      <trkpt lat="47.92728" lon="7.02625">
        <ele>1222</ele>
        <time>2025-06-08T19:19:42.000Z</time>
      </trkpt>
      <trkpt lat="47.92725" lon="7.02631">
        <ele>1222</ele>
        <time>2025-06-08T19:19:46.000Z</time>
      </trkpt>
      <trkpt lat="47.92721" lon="7.02637">
        <ele>1222</ele>
        <time>2025-06-08T19:19:50.000Z</time>
      </trkpt>
      <trkpt lat="47.92717" lon="7.02642">
        <ele>1222</ele>
        <time>2025-06-08T19:19:54.000Z</time>
      </trkpt>
      <trkpt lat="47.92714" lon="7.02648">
        <ele>1222</ele>
        <time>2025-06-08T19:19:58.000Z</time>
      </trkpt>
      <trkpt lat="47.9271" lon="7.02652">
        <ele>1222</ele>
        <time>2025-06-08T19:20:01.000Z</time>
      </trkpt>
      <trkpt lat="47.92687" lon="7.0271">
        <ele>1222</ele>
        <time>2025-06-08T19:20:35.000Z</time>
      </trkpt>
      <trkpt lat="47.9267" lon="7.02762">
        <ele>1223</ele>
        <time>2025-06-08T19:21:03.000Z</time>
      </trkpt>
      <trkpt lat="47.92663" lon="7.02783">
        <ele>1223</ele>
        <time>2025-06-08T19:21:13.000Z</time>
      </trkpt>
      <trkpt lat="47.92656" lon="7.02795">
        <ele>1223</ele>
        <time>2025-06-08T19:21:21.000Z</time>
      </trkpt>
      <trkpt lat="47.92649" lon="7.02806">
        <ele>1223</ele>
        <time>2025-06-08T19:21:29.000Z</time>
      </trkpt>
      <trkpt lat="47.92616" lon="7.02839">
        <ele>1218</ele>
        <time>2025-06-08T19:22:00.000Z</time>
      </trkpt>
      <trkpt lat="47.9258" lon="7.02869">
        <ele>1214</ele>
        <time>2025-06-08T19:22:32.000Z</time>
      </trkpt>
      <trkpt lat="47.92539" lon="7.02902">
        <ele>1208</ele>
        <time>2025-06-08T19:23:06.000Z</time>
      </trkpt>
      <trkpt lat="47.92505" lon="7.02921">
        <ele>1204</ele>
        <time>2025-06-08T19:23:32.000Z</time>
      </trkpt>
      <trkpt lat="47.92459" lon="7.0293">
        <ele>1199</ele>
        <time>2025-06-08T19:24:05.000Z</time>
      </trkpt>
      <trkpt lat="47.92453" lon="7.02932">
        <ele>1199</ele>
        <time>2025-06-08T19:24:09.000Z</time>
      </trkpt>
      <trkpt lat="47.92445" lon="7.02936">
        <ele>1198</ele>
        <time>2025-06-08T19:24:15.000Z</time>
      </trkpt>
      <trkpt lat="47.92441" lon="7.02939">
        <ele>1198</ele>
        <time>2025-06-08T19:24:18.000Z</time>
      </trkpt>
      <trkpt lat="47.92428" lon="7.02953">
        <ele>1196</ele>
        <time>2025-06-08T19:24:32.000Z</time>
      </trkpt>
      <trkpt lat="47.92429" lon="7.02961">
        <ele>1195</ele>
        <time>2025-06-08T19:24:38.000Z</time>
      </trkpt>
      <trkpt lat="47.92431" lon="7.02971">
        <ele>1195</ele>
        <time>2025-06-08T19:24:41.000Z</time>
      </trkpt>
      <trkpt lat="47.92434" lon="7.02978">
        <ele>1195</ele>
        <time>2025-06-08T19:24:42.000Z</time>
      </trkpt>
      <trkpt lat="47.92434" lon="7.02985">
        <ele>1194</ele>
        <time>2025-06-08T19:24:45.000Z</time>
      </trkpt>
      <trkpt lat="47.92434" lon="7.03001">
        <ele>1193</ele>
        <time>2025-06-08T19:24:53.000Z</time>
      </trkpt>
      <trkpt lat="47.92429" lon="7.03013">
        <ele>1192</ele>
        <time>2025-06-08T19:25:01.000Z</time>
      </trkpt>
      <trkpt lat="47.92428" lon="7.03021">
        <ele>1191</ele>
        <time>2025-06-08T19:25:06.000Z</time>
      </trkpt>
      <trkpt lat="47.9243" lon="7.03028">
        <ele>1190</ele>
        <time>2025-06-08T19:25:09.000Z</time>
      </trkpt>
      <trkpt lat="47.92434" lon="7.03033">
        <ele>1190</ele>
        <time>2025-06-08T19:25:12.000Z</time>
      </trkpt>
      <trkpt lat="47.92433" lon="7.03042">
        <ele>1191</ele>
        <time>2025-06-08T19:25:24.000Z</time>
      </trkpt>
      <trkpt lat="47.92422" lon="7.03038">
        <ele>1191</ele>
        <time>2025-06-08T19:25:31.000Z</time>
      </trkpt>
      <trkpt lat="47.92422" lon="7.03051">
        <ele>1191</ele>
        <time>2025-06-08T19:25:52.000Z</time>
      </trkpt>
      <trkpt lat="47.92418" lon="7.03053">
        <ele>1191</ele>
        <time>2025-06-08T19:26:07.000Z</time>
      </trkpt>
      <trkpt lat="47.92413" lon="7.03053">
        <ele>1191</ele>
        <time>2025-06-08T19:26:11.000Z</time>
      </trkpt>
      <trkpt lat="47.9242" lon="7.03061">
        <ele>1189</ele>
        <time>2025-06-08T19:26:34.000Z</time>
      </trkpt>
      <trkpt lat="47.9242" lon="7.03052">
        <ele>1189</ele>
        <time>2025-06-08T19:26:39.000Z</time>
      </trkpt>
      <trkpt lat="47.92422" lon="7.03059">
        <ele>1189</ele>
        <time>2025-06-08T19:26:59.000Z</time>
      </trkpt>
      <trkpt lat="47.92426" lon="7.0307">
        <ele>1189</ele>
        <time>2025-06-08T19:27:03.000Z</time>
      </trkpt>
      <trkpt lat="47.92421" lon="7.03067">
        <ele>1189</ele>
        <time>2025-06-08T19:27:35.000Z</time>
      </trkpt>
      <trkpt lat="47.92413" lon="7.03062">
        <ele>1189</ele>
        <time>2025-06-08T19:27:41.000Z</time>
      </trkpt>
      <trkpt lat="47.92408" lon="7.03048">
        <ele>1190</ele>
        <time>2025-06-08T19:27:50.000Z</time>
      </trkpt>
      <trkpt lat="47.92407" lon="7.03042">
        <ele>1191</ele>
        <time>2025-06-08T19:27:54.000Z</time>
      </trkpt>
      <trkpt lat="47.92405" lon="7.03036">
        <ele>1191</ele>
        <time>2025-06-08T19:27:57.000Z</time>
      </trkpt>
      <trkpt lat="47.92406" lon="7.03028">
        <ele>1191</ele>
        <time>2025-06-08T19:28:01.000Z</time>
      </trkpt>
      <trkpt lat="47.92401" lon="7.03027">
        <ele>1192</ele>
        <time>2025-06-08T19:28:17.000Z</time>
      </trkpt>
      <trkpt lat="47.92397" lon="7.03031">
        <ele>1192</ele>
        <time>2025-06-08T19:28:21.000Z</time>
      </trkpt>
      <trkpt lat="47.92393" lon="7.0303">
        <ele>1192</ele>
        <time>2025-06-08T19:28:25.000Z</time>
      </trkpt>
      <trkpt lat="47.92387" lon="7.03023">
        <ele>1192</ele>
        <time>2025-06-08T19:28:39.000Z</time>
      </trkpt>
      <trkpt lat="47.92385" lon="7.03017">
        <ele>1192</ele>
        <time>2025-06-08T19:28:51.000Z</time>
      </trkpt>
      <trkpt lat="47.9238" lon="7.03018">
        <ele>1192</ele>
        <time>2025-06-08T19:29:02.000Z</time>
      </trkpt>
      <trkpt lat="47.92377" lon="7.03014">
        <ele>1192</ele>
        <time>2025-06-08T19:29:07.000Z</time>
      </trkpt>
      <trkpt lat="47.92381" lon="7.0301">
        <ele>1192</ele>
        <time>2025-06-08T19:29:11.000Z</time>
      </trkpt>
      <trkpt lat="47.92385" lon="7.02997">
        <ele>1194</ele>
        <time>2025-06-08T19:29:19.000Z</time>
      </trkpt>
      <trkpt lat="47.92379" lon="7.02994">
        <ele>1195</ele>
        <time>2025-06-08T19:29:24.000Z</time>
      </trkpt>
      <trkpt lat="47.92374" lon="7.02992">
        <ele>1195</ele>
        <time>2025-06-08T19:29:28.000Z</time>
      </trkpt>
      <trkpt lat="47.92365" lon="7.02984">
        <ele>1196</ele>
        <time>2025-06-08T19:29:35.000Z</time>
      </trkpt>
      <trkpt lat="47.92369" lon="7.02986">
        <ele>1196</ele>
        <time>2025-06-08T19:30:02.000Z</time>
      </trkpt>
      <trkpt lat="47.92375" lon="7.0299">
        <ele>1196</ele>
        <time>2025-06-08T19:30:09.000Z</time>
      </trkpt>
      <trkpt lat="47.92379" lon="7.02991">
        <ele>1195</ele>
        <time>2025-06-08T19:30:12.000Z</time>
      </trkpt>
      <trkpt lat="47.92383" lon="7.02995">
        <ele>1195</ele>
        <time>2025-06-08T19:30:16.000Z</time>
      </trkpt>
      <trkpt lat="47.92387" lon="7.02999">
        <ele>1195</ele>
        <time>2025-06-08T19:30:20.000Z</time>
      </trkpt>
      <trkpt lat="47.92385" lon="7.03007">
        <ele>1194</ele>
        <time>2025-06-08T19:30:25.000Z</time>
      </trkpt>
      <trkpt lat="47.9238" lon="7.03011">
        <ele>1193</ele>
        <time>2025-06-08T19:30:29.000Z</time>
      </trkpt>
      <trkpt lat="47.92379" lon="7.03018">
        <ele>1192</ele>
        <time>2025-06-08T19:30:34.000Z</time>
      </trkpt>
      <trkpt lat="47.92381" lon="7.03025">
        <ele>1192</ele>
        <time>2025-06-08T19:30:40.000Z</time>
      </trkpt>
      <trkpt lat="47.92386" lon="7.03022">
        <ele>1192</ele>
        <time>2025-06-08T19:30:49.000Z</time>
      </trkpt>
      <trkpt lat="47.92382" lon="7.03026">
        <ele>1192</ele>
        <time>2025-06-08T20:05:57.000Z</time>
      </trkpt>
      <trkpt lat="47.92378" lon="7.03031">
        <ele>1191</ele>
        <time>2025-06-08T20:06:02.000Z</time>
      </trkpt>
      <trkpt lat="47.92374" lon="7.03036">
        <ele>1191</ele>
        <time>2025-06-08T20:06:07.000Z</time>
      </trkpt>
      <trkpt lat="47.92372" lon="7.03042">
        <ele>1190</ele>
        <time>2025-06-08T20:06:12.000Z</time>
      </trkpt>
      <trkpt lat="47.92371" lon="7.03048">
        <ele>1190</ele>
        <time>2025-06-08T20:06:16.000Z</time>
      </trkpt>
      <trkpt lat="47.92368" lon="7.03054">
        <ele>1190</ele>
        <time>2025-06-08T20:06:20.000Z</time>
      </trkpt>
      <trkpt lat="47.92366" lon="7.03061">
        <ele>1189</ele>
        <time>2025-06-08T20:06:24.000Z</time>
      </trkpt>
      <trkpt lat="47.92363" lon="7.03066">
        <ele>1189</ele>
        <time>2025-06-08T20:06:28.000Z</time>
      </trkpt>
      <trkpt lat="47.9236" lon="7.03071">
        <ele>1189</ele>
        <time>2025-06-08T20:06:32.000Z</time>
      </trkpt>
      <trkpt lat="47.92357" lon="7.03077">
        <ele>1189</ele>
        <time>2025-06-08T20:06:36.000Z</time>
      </trkpt>
      <trkpt lat="47.92355" lon="7.03083">
        <ele>1188</ele>
        <time>2025-06-08T20:06:40.000Z</time>
      </trkpt>
      <trkpt lat="47.92352" lon="7.03091">
        <ele>1188</ele>
        <time>2025-06-08T20:06:44.000Z</time>
      </trkpt>
      <trkpt lat="47.92351" lon="7.03104">
        <ele>1188</ele>
        <time>2025-06-08T20:06:52.000Z</time>
      </trkpt>
      <trkpt lat="47.92346" lon="7.03118">
        <ele>1187</ele>
        <time>2025-06-08T20:06:59.000Z</time>
      </trkpt>
      <trkpt lat="47.92341" lon="7.03128">
        <ele>1187</ele>
        <time>2025-06-08T20:07:06.000Z</time>
      </trkpt>
      <trkpt lat="47.92338" lon="7.03135">
        <ele>1187</ele>
        <time>2025-06-08T20:07:10.000Z</time>
      </trkpt>
      <trkpt lat="47.92329" lon="7.03154">
        <ele>1186</ele>
        <time>2025-06-08T20:07:22.000Z</time>
      </trkpt>
      <trkpt lat="47.92327" lon="7.03161">
        <ele>1186</ele>
        <time>2025-06-08T20:07:26.000Z</time>
      </trkpt>
      <trkpt lat="47.92323" lon="7.03174">
        <ele>1186</ele>
        <time>2025-06-08T20:07:34.000Z</time>
      </trkpt>
      <trkpt lat="47.92315" lon="7.03208">
        <ele>1186</ele>
        <time>2025-06-08T20:07:54.000Z</time>
      </trkpt>
      <trkpt lat="47.92313" lon="7.03216">
        <ele>1185</ele>
        <time>2025-06-08T20:07:58.000Z</time>
      </trkpt>
      <trkpt lat="47.92312" lon="7.03223">
        <ele>1185</ele>
        <time>2025-06-08T20:08:03.000Z</time>
      </trkpt>
      <trkpt lat="47.92307" lon="7.03245">
        <ele>1185</ele>
        <time>2025-06-08T20:08:14.000Z</time>
      </trkpt>
      <trkpt lat="47.92306" lon="7.03252">
        <ele>1184</ele>
        <time>2025-06-08T20:08:18.000Z</time>
      </trkpt>
      <trkpt lat="47.92305" lon="7.03259">
        <ele>1185</ele>
        <time>2025-06-08T20:08:22.000Z</time>
      </trkpt>
      <trkpt lat="47.92303" lon="7.03267">
        <ele>1185</ele>
        <time>2025-06-08T20:08:26.000Z</time>
      </trkpt>
      <trkpt lat="47.92302" lon="7.03273">
        <ele>1184</ele>
        <time>2025-06-08T20:08:30.000Z</time>
      </trkpt>
      <trkpt lat="47.92301" lon="7.0328">
        <ele>1184</ele>
        <time>2025-06-08T20:08:34.000Z</time>
      </trkpt>
      <trkpt lat="47.92299" lon="7.03288">
        <ele>1184</ele>
        <time>2025-06-08T20:08:38.000Z</time>
      </trkpt>
      <trkpt lat="47.92297" lon="7.03294">
        <ele>1184</ele>
        <time>2025-06-08T20:08:42.000Z</time>
      </trkpt>
      <trkpt lat="47.92296" lon="7.03303">
        <ele>1183</ele>
        <time>2025-06-08T20:08:46.000Z</time>
      </trkpt>
      <trkpt lat="47.92284" lon="7.03358">
        <ele>1181</ele>
        <time>2025-06-08T20:09:16.000Z</time>
      </trkpt>
      <trkpt lat="47.92279" lon="7.03379">
        <ele>1179</ele>
        <time>2025-06-08T20:09:27.000Z</time>
      </trkpt>
      <trkpt lat="47.92277" lon="7.03387">
        <ele>1179</ele>
        <time>2025-06-08T20:09:31.000Z</time>
      </trkpt>
      <trkpt lat="47.92274" lon="7.03401">
        <ele>1178</ele>
        <time>2025-06-08T20:09:39.000Z</time>
      </trkpt>
      <trkpt lat="47.92274" lon="7.03416">
        <ele>1177</ele>
        <time>2025-06-08T20:09:47.000Z</time>
      </trkpt>
      <trkpt lat="47.92275" lon="7.0343">
        <ele>1177</ele>
        <time>2025-06-08T20:09:55.000Z</time>
      </trkpt>
      <trkpt lat="47.9228" lon="7.03443">
        <ele>1176</ele>
        <time>2025-06-08T20:10:04.000Z</time>
      </trkpt>
      <trkpt lat="47.92282" lon="7.0345">
        <ele>1177</ele>
        <time>2025-06-08T20:10:09.000Z</time>
      </trkpt>
      <trkpt lat="47.92281" lon="7.03457">
        <ele>1177</ele>
        <time>2025-06-08T20:10:13.000Z</time>
      </trkpt>
      <trkpt lat="47.92283" lon="7.03482">
        <ele>1177</ele>
        <time>2025-06-08T20:10:25.000Z</time>
      </trkpt>
      <trkpt lat="47.92284" lon="7.03489">
        <ele>1177</ele>
        <time>2025-06-08T20:10:28.000Z</time>
      </trkpt>
      <trkpt lat="47.92285" lon="7.03503">
        <ele>1177</ele>
        <time>2025-06-08T20:10:34.000Z</time>
      </trkpt>
      <trkpt lat="47.92288" lon="7.03534">
        <ele>1177</ele>
        <time>2025-06-08T20:10:49.000Z</time>
      </trkpt>
      <trkpt lat="47.92289" lon="7.0354">
        <ele>1178</ele>
        <time>2025-06-08T20:10:52.000Z</time>
      </trkpt>
      <trkpt lat="47.92294" lon="7.03592">
        <ele>1180</ele>
        <time>2025-06-08T20:11:16.000Z</time>
      </trkpt>
      <trkpt lat="47.92294" lon="7.03608">
        <ele>1180</ele>
        <time>2025-06-08T20:11:24.000Z</time>
      </trkpt>
      <trkpt lat="47.92293" lon="7.03639">
        <ele>1181</ele>
        <time>2025-06-08T20:11:40.000Z</time>
      </trkpt>
      <trkpt lat="47.92288" lon="7.03661">
        <ele>1182</ele>
        <time>2025-06-08T20:11:52.000Z</time>
      </trkpt>
      <trkpt lat="47.92276" lon="7.03687">
        <ele>1184</ele>
        <time>2025-06-08T20:12:08.000Z</time>
      </trkpt>
      <trkpt lat="47.92263" lon="7.0371">
        <ele>1183</ele>
        <time>2025-06-08T20:12:25.000Z</time>
      </trkpt>
      <trkpt lat="47.92237" lon="7.03757">
        <ele>1186</ele>
        <time>2025-06-08T20:12:56.000Z</time>
      </trkpt>
      <trkpt lat="47.92237" lon="7.03781">
        <ele>1187</ele>
        <time>2025-06-08T20:13:05.000Z</time>
      </trkpt>
      <trkpt lat="47.92232" lon="7.03794">
        <ele>1187</ele>
        <time>2025-06-08T20:13:10.000Z</time>
      </trkpt>
      <trkpt lat="47.92222" lon="7.03809">
        <ele>1187</ele>
        <time>2025-06-08T20:13:20.000Z</time>
      </trkpt>
      <trkpt lat="47.92192" lon="7.03847">
        <ele>1188</ele>
        <time>2025-06-08T20:13:47.000Z</time>
      </trkpt>
      <trkpt lat="47.92189" lon="7.03852">
        <ele>1188</ele>
        <time>2025-06-08T20:13:50.000Z</time>
      </trkpt>
      <trkpt lat="47.92184" lon="7.03857">
        <ele>1188</ele>
        <time>2025-06-08T20:13:54.000Z</time>
      </trkpt>
      <trkpt lat="47.92157" lon="7.03895">
        <ele>1188</ele>
        <time>2025-06-08T20:14:22.000Z</time>
      </trkpt>
      <trkpt lat="47.92142" lon="7.03921">
        <ele>1190</ele>
        <time>2025-06-08T20:14:39.000Z</time>
      </trkpt>
      <trkpt lat="47.9214" lon="7.03928">
        <ele>1190</ele>
        <time>2025-06-08T20:14:44.000Z</time>
      </trkpt>
      <trkpt lat="47.92137" lon="7.03933">
        <ele>1191</ele>
        <time>2025-06-08T20:14:48.000Z</time>
      </trkpt>
      <trkpt lat="47.92127" lon="7.03949">
        <ele>1191</ele>
        <time>2025-06-08T20:14:58.000Z</time>
      </trkpt>
      <trkpt lat="47.9212" lon="7.0396">
        <ele>1190</ele>
        <time>2025-06-08T20:15:06.000Z</time>
      </trkpt>
      <trkpt lat="47.92111" lon="7.03969">
        <ele>1190</ele>
        <time>2025-06-08T20:15:13.000Z</time>
      </trkpt>
      <trkpt lat="47.92088" lon="7.03985">
        <ele>1191</ele>
        <time>2025-06-08T20:15:31.000Z</time>
      </trkpt>
      <trkpt lat="47.92084" lon="7.03986">
        <ele>1191</ele>
        <time>2025-06-08T20:15:35.000Z</time>
      </trkpt>
      <trkpt lat="47.9208" lon="7.03989">
        <ele>1191</ele>
        <time>2025-06-08T20:15:38.000Z</time>
      </trkpt>
      <trkpt lat="47.92065" lon="7.03998">
        <ele>1192</ele>
        <time>2025-06-08T20:15:51.000Z</time>
      </trkpt>
      <trkpt lat="47.92061" lon="7.04001">
        <ele>1193</ele>
        <time>2025-06-08T20:15:56.000Z</time>
      </trkpt>
      <trkpt lat="47.92055" lon="7.04002">
        <ele>1193</ele>
        <time>2025-06-08T20:16:03.000Z</time>
      </trkpt>
      <trkpt lat="47.9205" lon="7.04003">
        <ele>1192</ele>
        <time>2025-06-08T20:16:07.000Z</time>
      </trkpt>
      <trkpt lat="47.92045" lon="7.0401">
        <ele>1192</ele>
        <time>2025-06-08T20:16:13.000Z</time>
      </trkpt>
      <trkpt lat="47.92035" lon="7.04017">
        <ele>1193</ele>
        <time>2025-06-08T20:16:28.000Z</time>
      </trkpt>
      <trkpt lat="47.92027" lon="7.04028">
        <ele>1195</ele>
        <time>2025-06-08T20:16:37.000Z</time>
      </trkpt>
      <trkpt lat="47.92022" lon="7.04032">
        <ele>1195</ele>
        <time>2025-06-08T20:16:41.000Z</time>
      </trkpt>
      <trkpt lat="47.92018" lon="7.04035">
        <ele>1195</ele>
        <time>2025-06-08T20:16:45.000Z</time>
      </trkpt>
      <trkpt lat="47.92012" lon="7.04037">
        <ele>1195</ele>
        <time>2025-06-08T20:16:49.000Z</time>
      </trkpt>
      <trkpt lat="47.92008" lon="7.04041">
        <ele>1195</ele>
        <time>2025-06-08T20:16:52.000Z</time>
      </trkpt>
      <trkpt lat="47.92004" lon="7.04042">
        <ele>1195</ele>
        <time>2025-06-08T20:16:55.000Z</time>
      </trkpt>
      <trkpt lat="47.91961" lon="7.04068">
        <ele>1193</ele>
        <time>2025-06-08T20:17:31.000Z</time>
      </trkpt>
      <trkpt lat="47.91957" lon="7.04073">
        <ele>1193</ele>
        <time>2025-06-08T20:17:35.000Z</time>
      </trkpt>
      <trkpt lat="47.91949" lon="7.0408">
        <ele>1193</ele>
        <time>2025-06-08T20:17:42.000Z</time>
      </trkpt>
      <trkpt lat="47.91944" lon="7.04082">
        <ele>1193</ele>
        <time>2025-06-08T20:17:45.000Z</time>
      </trkpt>
      <trkpt lat="47.91942" lon="7.04087">
        <ele>1193</ele>
        <time>2025-06-08T20:17:49.000Z</time>
      </trkpt>
      <trkpt lat="47.91921" lon="7.04098">
        <ele>1193</ele>
        <time>2025-06-08T20:18:07.000Z</time>
      </trkpt>
      <trkpt lat="47.91914" lon="7.041">
        <ele>1193</ele>
        <time>2025-06-08T20:18:13.000Z</time>
      </trkpt>
      <trkpt lat="47.91909" lon="7.04099">
        <ele>1193</ele>
        <time>2025-06-08T20:18:17.000Z</time>
      </trkpt>
      <trkpt lat="47.91904" lon="7.04101">
        <ele>1193</ele>
        <time>2025-06-08T20:18:21.000Z</time>
      </trkpt>
      <trkpt lat="47.91884" lon="7.04116">
        <ele>1193</ele>
        <time>2025-06-08T20:18:41.000Z</time>
      </trkpt>
      <trkpt lat="47.9184" lon="7.04133">
        <ele>1192</ele>
        <time>2025-06-08T20:19:11.000Z</time>
      </trkpt>
      <trkpt lat="47.91835" lon="7.04137">
        <ele>1192</ele>
        <time>2025-06-08T20:19:15.000Z</time>
      </trkpt>
      <trkpt lat="47.91818" lon="7.04145">
        <ele>1193</ele>
        <time>2025-06-08T20:19:26.000Z</time>
      </trkpt>
      <trkpt lat="47.91814" lon="7.04148">
        <ele>1193</ele>
        <time>2025-06-08T20:19:29.000Z</time>
      </trkpt>
      <trkpt lat="47.91809" lon="7.0415">
        <ele>1194</ele>
        <time>2025-06-08T20:19:33.000Z</time>
      </trkpt>
      <trkpt lat="47.91804" lon="7.04152">
        <ele>1193</ele>
        <time>2025-06-08T20:19:37.000Z</time>
      </trkpt>
      <trkpt lat="47.918" lon="7.04156">
        <ele>1193</ele>
        <time>2025-06-08T20:19:41.000Z</time>
      </trkpt>
      <trkpt lat="47.91792" lon="7.04165">
        <ele>1191</ele>
        <time>2025-06-08T20:19:52.000Z</time>
      </trkpt>
      <trkpt lat="47.91788" lon="7.04169">
        <ele>1191</ele>
        <time>2025-06-08T20:19:56.000Z</time>
      </trkpt>
      <trkpt lat="47.91759" lon="7.04193">
        <ele>1188</ele>
        <time>2025-06-08T20:20:27.000Z</time>
      </trkpt>
      <trkpt lat="47.91746" lon="7.0421">
        <ele>1187</ele>
        <time>2025-06-08T20:20:44.000Z</time>
      </trkpt>
      <trkpt lat="47.91741" lon="7.04211">
        <ele>1187</ele>
        <time>2025-06-08T20:20:47.000Z</time>
      </trkpt>
      <trkpt lat="47.91735" lon="7.04211">
        <ele>1186</ele>
        <time>2025-06-08T20:20:50.000Z</time>
      </trkpt>
      <trkpt lat="47.91731" lon="7.04215">
        <ele>1186</ele>
        <time>2025-06-08T20:20:53.000Z</time>
      </trkpt>
      <trkpt lat="47.91705" lon="7.04245">
        <ele>1192</ele>
        <time>2025-06-08T20:21:25.000Z</time>
      </trkpt>
      <trkpt lat="47.91706" lon="7.04256">
        <ele>1194</ele>
        <time>2025-06-08T20:21:30.000Z</time>
      </trkpt>
      <trkpt lat="47.91707" lon="7.04272">
        <ele>1194</ele>
        <time>2025-06-08T20:21:35.000Z</time>
      </trkpt>
      <trkpt lat="47.91705" lon="7.04279">
        <ele>1195</ele>
        <time>2025-06-08T20:21:39.000Z</time>
      </trkpt>
      <trkpt lat="47.91698" lon="7.04291">
        <ele>1196</ele>
        <time>2025-06-08T20:21:47.000Z</time>
      </trkpt>
      <trkpt lat="47.9169" lon="7.04299">
        <ele>1196</ele>
        <time>2025-06-08T20:21:55.000Z</time>
      </trkpt>
      <trkpt lat="47.91663" lon="7.04342">
        <ele>1201</ele>
        <time>2025-06-08T20:22:29.000Z</time>
      </trkpt>
      <trkpt lat="47.91658" lon="7.04345">
        <ele>1201</ele>
        <time>2025-06-08T20:22:33.000Z</time>
      </trkpt>
      <trkpt lat="47.91655" lon="7.04351">
        <ele>1202</ele>
        <time>2025-06-08T20:22:38.000Z</time>
      </trkpt>
      <trkpt lat="47.9165" lon="7.04355">
        <ele>1202</ele>
        <time>2025-06-08T20:22:42.000Z</time>
      </trkpt>
      <trkpt lat="47.91638" lon="7.04363">
        <ele>1202</ele>
        <time>2025-06-08T20:22:54.000Z</time>
      </trkpt>
      <trkpt lat="47.91635" lon="7.04368">
        <ele>1203</ele>
        <time>2025-06-08T20:22:57.000Z</time>
      </trkpt>
      <trkpt lat="47.91626" lon="7.04375">
        <ele>1203</ele>
        <time>2025-06-08T20:23:05.000Z</time>
      </trkpt>
      <trkpt lat="47.9162" lon="7.0438">
        <ele>1203</ele>
        <time>2025-06-08T20:23:14.000Z</time>
      </trkpt>
      <trkpt lat="47.91611" lon="7.04385">
        <ele>1202</ele>
        <time>2025-06-08T20:23:21.000Z</time>
      </trkpt>
      <trkpt lat="47.91607" lon="7.04387">
        <ele>1201</ele>
        <time>2025-06-08T20:23:25.000Z</time>
      </trkpt>
      <trkpt lat="47.91565" lon="7.04409">
        <ele>1200</ele>
        <time>2025-06-08T20:23:58.000Z</time>
      </trkpt>
      <trkpt lat="47.91556" lon="7.04414">
        <ele>1201</ele>
        <time>2025-06-08T20:24:06.000Z</time>
      </trkpt>
      <trkpt lat="47.91546" lon="7.04418">
        <ele>1202</ele>
        <time>2025-06-08T20:24:14.000Z</time>
      </trkpt>
      <trkpt lat="47.91541" lon="7.0442">
        <ele>1202</ele>
        <time>2025-06-08T20:24:18.000Z</time>
      </trkpt>
      <trkpt lat="47.91536" lon="7.04423">
        <ele>1202</ele>
        <time>2025-06-08T20:24:22.000Z</time>
      </trkpt>
      <trkpt lat="47.91532" lon="7.04422">
        <ele>1202</ele>
        <time>2025-06-08T20:24:26.000Z</time>
      </trkpt>
      <trkpt lat="47.91527" lon="7.04424">
        <ele>1202</ele>
        <time>2025-06-08T20:24:30.000Z</time>
      </trkpt>
      <trkpt lat="47.91523" lon="7.04427">
        <ele>1201</ele>
        <time>2025-06-08T20:24:34.000Z</time>
      </trkpt>
      <trkpt lat="47.91515" lon="7.04426">
        <ele>1202</ele>
        <time>2025-06-08T20:24:45.000Z</time>
      </trkpt>
      <trkpt lat="47.91504" lon="7.04425">
        <ele>1200</ele>
        <time>2025-06-08T20:24:54.000Z</time>
      </trkpt>
      <trkpt lat="47.91497" lon="7.04428">
        <ele>1200</ele>
        <time>2025-06-08T20:25:02.000Z</time>
      </trkpt>
      <trkpt lat="47.91492" lon="7.04428">
        <ele>1200</ele>
        <time>2025-06-08T20:25:06.000Z</time>
      </trkpt>
      <trkpt lat="47.91483" lon="7.04429">
        <ele>1199</ele>
        <time>2025-06-08T20:25:14.000Z</time>
      </trkpt>
      <trkpt lat="47.91478" lon="7.04429">
        <ele>1199</ele>
        <time>2025-06-08T20:25:19.000Z</time>
      </trkpt>
      <trkpt lat="47.91471" lon="7.04428">
        <ele>1198</ele>
        <time>2025-06-08T20:25:26.000Z</time>
      </trkpt>
      <trkpt lat="47.91467" lon="7.04428">
        <ele>1198</ele>
        <time>2025-06-08T20:25:30.000Z</time>
      </trkpt>
      <trkpt lat="47.91461" lon="7.04428">
        <ele>1197</ele>
        <time>2025-06-08T20:25:35.000Z</time>
      </trkpt>
      <trkpt lat="47.91456" lon="7.0443">
        <ele>1197</ele>
        <time>2025-06-08T20:25:40.000Z</time>
      </trkpt>
      <trkpt lat="47.91449" lon="7.04433">
        <ele>1197</ele>
        <time>2025-06-08T20:25:46.000Z</time>
      </trkpt>
      <trkpt lat="47.91445" lon="7.04435">
        <ele>1197</ele>
        <time>2025-06-08T20:25:51.000Z</time>
      </trkpt>
      <trkpt lat="47.91438" lon="7.04436">
        <ele>1196</ele>
        <time>2025-06-08T20:25:57.000Z</time>
      </trkpt>
      <trkpt lat="47.91431" lon="7.0444">
        <ele>1196</ele>
        <time>2025-06-08T20:26:04.000Z</time>
      </trkpt>
      <trkpt lat="47.91417" lon="7.04445">
        <ele>1193</ele>
        <time>2025-06-08T20:26:16.000Z</time>
      </trkpt>
      <trkpt lat="47.91414" lon="7.0445">
        <ele>1193</ele>
        <time>2025-06-08T20:26:20.000Z</time>
      </trkpt>
      <trkpt lat="47.9141" lon="7.04456">
        <ele>1193</ele>
        <time>2025-06-08T20:26:24.000Z</time>
      </trkpt>
      <trkpt lat="47.91406" lon="7.0446">
        <ele>1193</ele>
        <time>2025-06-08T20:26:27.000Z</time>
      </trkpt>
      <trkpt lat="47.91403" lon="7.04464">
        <ele>1193</ele>
        <time>2025-06-08T20:26:31.000Z</time>
      </trkpt>
      <trkpt lat="47.914" lon="7.0447">
        <ele>1192</ele>
        <time>2025-06-08T20:26:35.000Z</time>
      </trkpt>
      <trkpt lat="47.91395" lon="7.04475">
        <ele>1191</ele>
        <time>2025-06-08T20:26:39.000Z</time>
      </trkpt>
      <trkpt lat="47.91389" lon="7.04485">
        <ele>1191</ele>
        <time>2025-06-08T20:26:45.000Z</time>
      </trkpt>
      <trkpt lat="47.91385" lon="7.04491">
        <ele>1191</ele>
        <time>2025-06-08T20:26:49.000Z</time>
      </trkpt>
      <trkpt lat="47.91381" lon="7.04497">
        <ele>1191</ele>
        <time>2025-06-08T20:26:56.000Z</time>
      </trkpt>
      <trkpt lat="47.91378" lon="7.04504">
        <ele>1191</ele>
        <time>2025-06-08T20:27:00.000Z</time>
      </trkpt>
      <trkpt lat="47.91377" lon="7.0451">
        <ele>1191</ele>
        <time>2025-06-08T20:27:04.000Z</time>
      </trkpt>
      <trkpt lat="47.91373" lon="7.04516">
        <ele>1191</ele>
        <time>2025-06-08T20:27:09.000Z</time>
      </trkpt>
      <trkpt lat="47.91371" lon="7.04523">
        <ele>1191</ele>
        <time>2025-06-08T20:27:13.000Z</time>
      </trkpt>
      <trkpt lat="47.91363" lon="7.04535">
        <ele>1191</ele>
        <time>2025-06-08T20:27:21.000Z</time>
      </trkpt>
      <trkpt lat="47.9136" lon="7.04541">
        <ele>1190</ele>
        <time>2025-06-08T20:27:25.000Z</time>
      </trkpt>
      <trkpt lat="47.91335" lon="7.04591">
        <ele>1190</ele>
        <time>2025-06-08T20:28:01.000Z</time>
      </trkpt>
      <trkpt lat="47.91327" lon="7.04609">
        <ele>1190</ele>
        <time>2025-06-08T20:28:13.000Z</time>
      </trkpt>
      <trkpt lat="47.91321" lon="7.0462">
        <ele>1192</ele>
        <time>2025-06-08T20:28:22.000Z</time>
      </trkpt>
      <trkpt lat="47.91318" lon="7.04626">
        <ele>1192</ele>
        <time>2025-06-08T20:28:26.000Z</time>
      </trkpt>
      <trkpt lat="47.91315" lon="7.0463">
        <ele>1192</ele>
        <time>2025-06-08T20:28:30.000Z</time>
      </trkpt>
      <trkpt lat="47.91312" lon="7.04637">
        <ele>1192</ele>
        <time>2025-06-08T20:28:36.000Z</time>
      </trkpt>
      <trkpt lat="47.91309" lon="7.04644">
        <ele>1192</ele>
        <time>2025-06-08T20:28:41.000Z</time>
      </trkpt>
      <trkpt lat="47.91302" lon="7.04664">
        <ele>1193</ele>
        <time>2025-06-08T20:28:54.000Z</time>
      </trkpt>
      <trkpt lat="47.91295" lon="7.047">
        <ele>1197</ele>
        <time>2025-06-08T20:29:16.000Z</time>
      </trkpt>
      <trkpt lat="47.91292" lon="7.04708">
        <ele>1198</ele>
        <time>2025-06-08T20:29:21.000Z</time>
      </trkpt>
      <trkpt lat="47.9129" lon="7.04714">
        <ele>1198</ele>
        <time>2025-06-08T20:29:25.000Z</time>
      </trkpt>
      <trkpt lat="47.91283" lon="7.04732">
        <ele>1195</ele>
        <time>2025-06-08T20:29:38.000Z</time>
      </trkpt>
      <trkpt lat="47.91275" lon="7.04767">
        <ele>1190</ele>
        <time>2025-06-08T20:29:57.000Z</time>
      </trkpt>
      <trkpt lat="47.91272" lon="7.04772">
        <ele>1188</ele>
        <time>2025-06-08T20:30:01.000Z</time>
      </trkpt>
      <trkpt lat="47.91258" lon="7.04829">
        <ele>1182</ele>
        <time>2025-06-08T20:30:35.000Z</time>
      </trkpt>
      <trkpt lat="47.91256" lon="7.04835">
        <ele>1182</ele>
        <time>2025-06-08T20:30:39.000Z</time>
      </trkpt>
      <trkpt lat="47.91257" lon="7.04841">
        <ele>1182</ele>
        <time>2025-06-08T20:30:43.000Z</time>
      </trkpt>
      <trkpt lat="47.91254" lon="7.04846">
        <ele>1182</ele>
        <time>2025-06-08T20:30:47.000Z</time>
      </trkpt>
      <trkpt lat="47.9125" lon="7.04848">
        <ele>1182</ele>
        <time>2025-06-08T20:30:51.000Z</time>
      </trkpt>
      <trkpt lat="47.91245" lon="7.04853">
        <ele>1183</ele>
        <time>2025-06-08T20:30:55.000Z</time>
      </trkpt>
      <trkpt lat="47.91241" lon="7.04855">
        <ele>1183</ele>
        <time>2025-06-08T20:30:59.000Z</time>
      </trkpt>
      <trkpt lat="47.91238" lon="7.04861">
        <ele>1183</ele>
        <time>2025-06-08T20:31:02.000Z</time>
      </trkpt>
      <trkpt lat="47.91221" lon="7.04881">
        <ele>1182</ele>
        <time>2025-06-08T20:31:19.000Z</time>
      </trkpt>
      <trkpt lat="47.91219" lon="7.04888">
        <ele>1181</ele>
        <time>2025-06-08T20:31:23.000Z</time>
      </trkpt>
      <trkpt lat="47.91214" lon="7.04891">
        <ele>1181</ele>
        <time>2025-06-08T20:31:27.000Z</time>
      </trkpt>
      <trkpt lat="47.91203" lon="7.04909">
        <ele>1180</ele>
        <time>2025-06-08T20:31:42.000Z</time>
      </trkpt>
      <trkpt lat="47.91199" lon="7.04913">
        <ele>1180</ele>
        <time>2025-06-08T20:31:46.000Z</time>
      </trkpt>
      <trkpt lat="47.91197" lon="7.04919">
        <ele>1179</ele>
        <time>2025-06-08T20:31:50.000Z</time>
      </trkpt>
      <trkpt lat="47.9119" lon="7.04927">
        <ele>1179</ele>
        <time>2025-06-08T20:31:58.000Z</time>
      </trkpt>
      <trkpt lat="47.91187" lon="7.04932">
        <ele>1179</ele>
        <time>2025-06-08T20:32:01.000Z</time>
      </trkpt>
      <trkpt lat="47.91184" lon="7.04938">
        <ele>1179</ele>
        <time>2025-06-08T20:32:05.000Z</time>
      </trkpt>
      <trkpt lat="47.91179" lon="7.04942">
        <ele>1179</ele>
        <time>2025-06-08T20:32:09.000Z</time>
      </trkpt>
      <trkpt lat="47.91176" lon="7.04947">
        <ele>1179</ele>
        <time>2025-06-08T20:32:13.000Z</time>
      </trkpt>
      <trkpt lat="47.91169" lon="7.04958">
        <ele>1180</ele>
        <time>2025-06-08T20:32:21.000Z</time>
      </trkpt>
      <trkpt lat="47.91138" lon="7.0499">
        <ele>1184</ele>
        <time>2025-06-08T20:32:54.000Z</time>
      </trkpt>
      <trkpt lat="47.91114" lon="7.0502">
        <ele>1189</ele>
        <time>2025-06-08T20:33:25.000Z</time>
      </trkpt>
      <trkpt lat="47.91092" lon="7.05052">
        <ele>1193</ele>
        <time>2025-06-08T20:33:52.000Z</time>
      </trkpt>
      <trkpt lat="47.9109" lon="7.05057">
        <ele>1193</ele>
        <time>2025-06-08T20:33:55.000Z</time>
      </trkpt>
      <trkpt lat="47.91082" lon="7.05067">
        <ele>1193</ele>
        <time>2025-06-08T20:34:03.000Z</time>
      </trkpt>
      <trkpt lat="47.91074" lon="7.05087">
        <ele>1194</ele>
        <time>2025-06-08T20:34:14.000Z</time>
      </trkpt>
      <trkpt lat="47.91072" lon="7.05103">
        <ele>1194</ele>
        <time>2025-06-08T20:34:22.000Z</time>
      </trkpt>
      <trkpt lat="47.91071" lon="7.05118">
        <ele>1193</ele>
        <time>2025-06-08T20:34:30.000Z</time>
      </trkpt>
      <trkpt lat="47.91067" lon="7.05184">
        <ele>1187</ele>
        <time>2025-06-08T20:35:03.000Z</time>
      </trkpt>
      <trkpt lat="47.91067" lon="7.05207">
        <ele>1185</ele>
        <time>2025-06-08T20:35:15.000Z</time>
      </trkpt>
      <trkpt lat="47.91065" lon="7.05264">
        <ele>1187</ele>
        <time>2025-06-08T20:35:46.000Z</time>
      </trkpt>
      <trkpt lat="47.91067" lon="7.05316">
        <ele>1193</ele>
        <time>2025-06-08T20:36:17.000Z</time>
      </trkpt>
      <trkpt lat="47.91071" lon="7.05361">
        <ele>1200</ele>
        <time>2025-06-08T20:36:49.000Z</time>
      </trkpt>
      <trkpt lat="47.91071" lon="7.05369">
        <ele>1200</ele>
        <time>2025-06-08T20:36:53.000Z</time>
      </trkpt>
      <trkpt lat="47.91075" lon="7.05414">
        <ele>1206</ele>
        <time>2025-06-08T20:37:25.000Z</time>
      </trkpt>
      <trkpt lat="47.91079" lon="7.05472">
        <ele>1212</ele>
        <time>2025-06-08T20:37:57.000Z</time>
      </trkpt>
      <trkpt lat="47.91079" lon="7.05482">
        <ele>1212</ele>
        <time>2025-06-08T20:38:05.000Z</time>
      </trkpt>
      <trkpt lat="47.91081" lon="7.05498">
        <ele>1213</ele>
        <time>2025-06-08T20:38:13.000Z</time>
      </trkpt>
      <trkpt lat="47.91085" lon="7.05558">
        <ele>1211</ele>
        <time>2025-06-08T20:38:44.000Z</time>
      </trkpt>
      <trkpt lat="47.91084" lon="7.05592">
        <ele>1212</ele>
        <time>2025-06-08T20:39:01.000Z</time>
      </trkpt>
      <trkpt lat="47.91083" lon="7.05615">
        <ele>1213</ele>
        <time>2025-06-08T20:39:14.000Z</time>
      </trkpt>
      <trkpt lat="47.91084" lon="7.05629">
        <ele>1214</ele>
        <time>2025-06-08T20:39:22.000Z</time>
      </trkpt>
      <trkpt lat="47.91083" lon="7.05644">
        <ele>1214</ele>
        <time>2025-06-08T20:39:33.000Z</time>
      </trkpt>
      <trkpt lat="47.91083" lon="7.05659">
        <ele>1214</ele>
        <time>2025-06-08T20:39:41.000Z</time>
      </trkpt>
      <trkpt lat="47.91082" lon="7.05672">
        <ele>1213</ele>
        <time>2025-06-08T20:39:47.000Z</time>
      </trkpt>
      <trkpt lat="47.91083" lon="7.05687">
        <ele>1213</ele>
        <time>2025-06-08T20:39:54.000Z</time>
      </trkpt>
      <trkpt lat="47.91083" lon="7.05702">
        <ele>1214</ele>
        <time>2025-06-08T20:40:01.000Z</time>
      </trkpt>
      <trkpt lat="47.91083" lon="7.05709">
        <ele>1213</ele>
        <time>2025-06-08T20:40:05.000Z</time>
      </trkpt>
      <trkpt lat="47.91085" lon="7.05723">
        <ele>1213</ele>
        <time>2025-06-08T20:40:12.000Z</time>
      </trkpt>
      <trkpt lat="47.91086" lon="7.05731">
        <ele>1213</ele>
        <time>2025-06-08T20:40:16.000Z</time>
      </trkpt>
      <trkpt lat="47.91089" lon="7.05753">
        <ele>1212</ele>
        <time>2025-06-08T20:40:26.000Z</time>
      </trkpt>
      <trkpt lat="47.9109" lon="7.05761">
        <ele>1212</ele>
        <time>2025-06-08T20:40:29.000Z</time>
      </trkpt>
      <trkpt lat="47.91091" lon="7.05768">
        <ele>1212</ele>
        <time>2025-06-08T20:40:32.000Z</time>
      </trkpt>
      <trkpt lat="47.91092" lon="7.05775">
        <ele>1212</ele>
        <time>2025-06-08T20:40:35.000Z</time>
      </trkpt>
      <trkpt lat="47.91095" lon="7.05792">
        <ele>1214</ele>
        <time>2025-06-08T20:40:47.000Z</time>
      </trkpt>
      <trkpt lat="47.91096" lon="7.058">
        <ele>1214</ele>
        <time>2025-06-08T20:40:50.000Z</time>
      </trkpt>
      <trkpt lat="47.91104" lon="7.05854">
        <ele>1212</ele>
        <time>2025-06-08T20:41:17.000Z</time>
      </trkpt>
      <trkpt lat="47.91106" lon="7.0586">
        <ele>1212</ele>
        <time>2025-06-08T20:41:22.000Z</time>
      </trkpt>
      <trkpt lat="47.91108" lon="7.05866">
        <ele>1212</ele>
        <time>2025-06-08T20:41:28.000Z</time>
      </trkpt>
      <trkpt lat="47.91112" lon="7.05872">
        <ele>1212</ele>
        <time>2025-06-08T20:41:34.000Z</time>
      </trkpt>
      <trkpt lat="47.91134" lon="7.0592">
        <ele>1206</ele>
        <time>2025-06-08T20:42:10.000Z</time>
      </trkpt>
      <trkpt lat="47.91143" lon="7.05945">
        <ele>1203</ele>
        <time>2025-06-08T20:42:24.000Z</time>
      </trkpt>
      <trkpt lat="47.91145" lon="7.05959">
        <ele>1202</ele>
        <time>2025-06-08T20:42:31.000Z</time>
      </trkpt>
      <trkpt lat="47.91148" lon="7.05967">
        <ele>1202</ele>
        <time>2025-06-08T20:42:35.000Z</time>
      </trkpt>
      <trkpt lat="47.91156" lon="7.0602">
        <ele>1199</ele>
        <time>2025-06-08T20:42:59.000Z</time>
      </trkpt>
      <trkpt lat="47.91158" lon="7.06056">
        <ele>1200</ele>
        <time>2025-06-08T20:43:18.000Z</time>
      </trkpt>
      <trkpt lat="47.91154" lon="7.06092">
        <ele>1202</ele>
        <time>2025-06-08T20:43:40.000Z</time>
      </trkpt>
      <trkpt lat="47.91152" lon="7.06099">
        <ele>1202</ele>
        <time>2025-06-08T20:43:44.000Z</time>
      </trkpt>
      <trkpt lat="47.91151" lon="7.06105">
        <ele>1202</ele>
        <time>2025-06-08T20:43:48.000Z</time>
      </trkpt>
      <trkpt lat="47.9114" lon="7.06147">
        <ele>1203</ele>
        <time>2025-06-08T20:44:11.000Z</time>
      </trkpt>
      <trkpt lat="47.91136" lon="7.06161">
        <ele>1202</ele>
        <time>2025-06-08T20:44:19.000Z</time>
      </trkpt>
      <trkpt lat="47.91133" lon="7.06176">
        <ele>1204</ele>
        <time>2025-06-08T20:44:31.000Z</time>
      </trkpt>
      <trkpt lat="47.9113" lon="7.06186">
        <ele>1203</ele>
        <time>2025-06-08T20:44:36.000Z</time>
      </trkpt>
      <trkpt lat="47.91121" lon="7.0623">
        <ele>1204</ele>
        <time>2025-06-08T20:44:59.000Z</time>
      </trkpt>
      <trkpt lat="47.9112" lon="7.06239">
        <ele>1203</ele>
        <time>2025-06-08T20:45:07.000Z</time>
      </trkpt>
      <trkpt lat="47.91118" lon="7.0628">
        <ele>1205</ele>
        <time>2025-06-08T20:45:29.000Z</time>
      </trkpt>
      <trkpt lat="47.91118" lon="7.0629">
        <ele>1205</ele>
        <time>2025-06-08T20:45:35.000Z</time>
      </trkpt>
      <trkpt lat="47.91118" lon="7.06299">
        <ele>1205</ele>
        <time>2025-06-08T20:45:38.000Z</time>
      </trkpt>
      <trkpt lat="47.91115" lon="7.06322">
        <ele>1207</ele>
        <time>2025-06-08T20:45:55.000Z</time>
      </trkpt>
      <trkpt lat="47.91112" lon="7.06344">
        <ele>1207</ele>
        <time>2025-06-08T20:46:06.000Z</time>
      </trkpt>
      <trkpt lat="47.9111" lon="7.0635">
        <ele>1207</ele>
        <time>2025-06-08T20:46:09.000Z</time>
      </trkpt>
      <trkpt lat="47.91107" lon="7.06364">
        <ele>1207</ele>
        <time>2025-06-08T20:46:17.000Z</time>
      </trkpt>
      <trkpt lat="47.91101" lon="7.06387">
        <ele>1206</ele>
        <time>2025-06-08T20:46:33.000Z</time>
      </trkpt>
      <trkpt lat="47.91085" lon="7.06418">
        <ele>1205</ele>
        <time>2025-06-08T20:46:52.000Z</time>
      </trkpt>
      <trkpt lat="47.91081" lon="7.06429">
        <ele>1205</ele>
        <time>2025-06-08T20:47:01.000Z</time>
      </trkpt>
      <trkpt lat="47.91074" lon="7.06448">
        <ele>1205</ele>
        <time>2025-06-08T20:47:11.000Z</time>
      </trkpt>
      <trkpt lat="47.91067" lon="7.06467">
        <ele>1205</ele>
        <time>2025-06-08T20:47:22.000Z</time>
      </trkpt>
      <trkpt lat="47.91062" lon="7.06476">
        <ele>1206</ele>
        <time>2025-06-08T20:47:31.000Z</time>
      </trkpt>
      <trkpt lat="47.91039" lon="7.06522">
        <ele>1205</ele>
        <time>2025-06-08T20:48:05.000Z</time>
      </trkpt>
      <trkpt lat="47.91036" lon="7.06527">
        <ele>1205</ele>
        <time>2025-06-08T20:48:09.000Z</time>
      </trkpt>
      <trkpt lat="47.91026" lon="7.06543">
        <ele>1205</ele>
        <time>2025-06-08T20:48:22.000Z</time>
      </trkpt>
      <trkpt lat="47.9102" lon="7.06556">
        <ele>1205</ele>
        <time>2025-06-08T20:48:30.000Z</time>
      </trkpt>
      <trkpt lat="47.91017" lon="7.06562">
        <ele>1205</ele>
        <time>2025-06-08T20:48:34.000Z</time>
      </trkpt>
      <trkpt lat="47.91013" lon="7.06567">
        <ele>1205</ele>
        <time>2025-06-08T20:48:38.000Z</time>
      </trkpt>
      <trkpt lat="47.90992" lon="7.06606">
        <ele>1205</ele>
        <time>2025-06-08T20:49:05.000Z</time>
      </trkpt>
      <trkpt lat="47.90984" lon="7.06616">
        <ele>1204</ele>
        <time>2025-06-08T20:49:13.000Z</time>
      </trkpt>
      <trkpt lat="47.90978" lon="7.06628">
        <ele>1203</ele>
        <time>2025-06-08T20:49:21.000Z</time>
      </trkpt>
      <trkpt lat="47.90952" lon="7.06663">
        <ele>1199</ele>
        <time>2025-06-08T20:49:49.000Z</time>
      </trkpt>
      <trkpt lat="47.90947" lon="7.06669">
        <ele>1199</ele>
        <time>2025-06-08T20:49:55.000Z</time>
      </trkpt>
      <trkpt lat="47.90917" lon="7.06706">
        <ele>1198</ele>
        <time>2025-06-08T20:50:29.000Z</time>
      </trkpt>
      <trkpt lat="47.90905" lon="7.06718">
        <ele>1198</ele>
        <time>2025-06-08T20:50:41.000Z</time>
      </trkpt>
      <trkpt lat="47.90886" lon="7.0673">
        <ele>1198</ele>
        <time>2025-06-08T20:50:56.000Z</time>
      </trkpt>
      <trkpt lat="47.90873" lon="7.06744">
        <ele>1197</ele>
        <time>2025-06-08T20:51:08.000Z</time>
      </trkpt>
      <trkpt lat="47.90868" lon="7.06749">
        <ele>1197</ele>
        <time>2025-06-08T20:51:12.000Z</time>
      </trkpt>
      <trkpt lat="47.90864" lon="7.06754">
        <ele>1197</ele>
        <time>2025-06-08T20:51:16.000Z</time>
      </trkpt>
      <trkpt lat="47.90856" lon="7.06763">
        <ele>1196</ele>
        <time>2025-06-08T20:51:24.000Z</time>
      </trkpt>
      <trkpt lat="47.90852" lon="7.06768">
        <ele>1197</ele>
        <time>2025-06-08T20:51:28.000Z</time>
      </trkpt>
      <trkpt lat="47.90847" lon="7.0677">
        <ele>1197</ele>
        <time>2025-06-08T20:51:33.000Z</time>
      </trkpt>
      <trkpt lat="47.90842" lon="7.06764">
        <ele>1197</ele>
        <time>2025-06-08T20:51:35.000Z</time>
      </trkpt>
      <trkpt lat="47.90839" lon="7.06764">
        <ele>1197</ele>
        <time>2025-06-08T20:51:44.000Z</time>
      </trkpt>
      <trkpt lat="47.90835" lon="7.06769">
        <ele>1197</ele>
        <time>2025-06-08T20:51:48.000Z</time>
      </trkpt>
      <trkpt lat="47.9082" lon="7.06788">
        <ele>1198</ele>
        <time>2025-06-08T20:52:02.000Z</time>
      </trkpt>
      <trkpt lat="47.90814" lon="7.0679">
        <ele>1199</ele>
        <time>2025-06-08T20:52:08.000Z</time>
      </trkpt>
      <trkpt lat="47.9081" lon="7.06793">
        <ele>1199</ele>
        <time>2025-06-08T20:52:12.000Z</time>
      </trkpt>
      <trkpt lat="47.90799" lon="7.06808">
        <ele>1199</ele>
        <time>2025-06-08T20:52:24.000Z</time>
      </trkpt>
      <trkpt lat="47.90793" lon="7.06818">
        <ele>1199</ele>
        <time>2025-06-08T20:52:32.000Z</time>
      </trkpt>
      <trkpt lat="47.90787" lon="7.06821">
        <ele>1199</ele>
        <time>2025-06-08T20:52:37.000Z</time>
      </trkpt>
      <trkpt lat="47.90781" lon="7.06821">
        <ele>1199</ele>
        <time>2025-06-08T20:52:40.000Z</time>
      </trkpt>
      <trkpt lat="47.9077" lon="7.06836">
        <ele>1201</ele>
        <time>2025-06-08T20:52:51.000Z</time>
      </trkpt>
      <trkpt lat="47.90766" lon="7.06839">
        <ele>1201</ele>
        <time>2025-06-08T20:52:55.000Z</time>
      </trkpt>
      <trkpt lat="47.90743" lon="7.06862">
        <ele>1204</ele>
        <time>2025-06-08T20:53:18.000Z</time>
      </trkpt>
      <trkpt lat="47.90723" lon="7.06875">
        <ele>1208</ele>
        <time>2025-06-08T20:53:38.000Z</time>
      </trkpt>
      <trkpt lat="47.90702" lon="7.06903">
        <ele>1211</ele>
        <time>2025-06-08T20:54:01.000Z</time>
      </trkpt>
      <trkpt lat="47.90692" lon="7.06927">
        <ele>1213</ele>
        <time>2025-06-08T20:54:18.000Z</time>
      </trkpt>
      <trkpt lat="47.90672" lon="7.06961">
        <ele>1217</ele>
        <time>2025-06-08T20:54:43.000Z</time>
      </trkpt>
      <trkpt lat="47.90671" lon="7.06968">
        <ele>1218</ele>
        <time>2025-06-08T20:54:48.000Z</time>
      </trkpt>
      <trkpt lat="47.90668" lon="7.06973">
        <ele>1219</ele>
        <time>2025-06-08T20:54:52.000Z</time>
      </trkpt>
      <trkpt lat="47.90638" lon="7.06989">
        <ele>1225</ele>
        <time>2025-06-08T20:55:23.000Z</time>
      </trkpt>
      <trkpt lat="47.90634" lon="7.06993">
        <ele>1226</ele>
        <time>2025-06-08T20:55:27.000Z</time>
      </trkpt>
      <trkpt lat="47.90602" lon="7.07007">
        <ele>1230</ele>
        <time>2025-06-08T20:55:55.000Z</time>
      </trkpt>
      <trkpt lat="47.90587" lon="7.07008">
        <ele>1232</ele>
        <time>2025-06-08T20:56:07.000Z</time>
      </trkpt>
      <trkpt lat="47.9057" lon="7.07017">
        <ele>1235</ele>
        <time>2025-06-08T20:56:25.000Z</time>
      </trkpt>
      <trkpt lat="47.90565" lon="7.07022">
        <ele>1237</ele>
        <time>2025-06-08T20:56:31.000Z</time>
      </trkpt>
      <trkpt lat="47.9056" lon="7.07022">
        <ele>1239</ele>
        <time>2025-06-08T20:56:39.000Z</time>
      </trkpt>
      <trkpt lat="47.90548" lon="7.07025">
        <ele>1244</ele>
        <time>2025-06-08T20:56:58.000Z</time>
      </trkpt>
      <trkpt lat="47.90544" lon="7.07032">
        <ele>1247</ele>
        <time>2025-06-08T20:57:10.000Z</time>
      </trkpt>
      <trkpt lat="47.90541" lon="7.07044">
        <ele>1249</ele>
        <time>2025-06-08T20:57:21.000Z</time>
      </trkpt>
      <trkpt lat="47.90537" lon="7.07043">
        <ele>1251</ele>
        <time>2025-06-08T20:57:27.000Z</time>
      </trkpt>
      <trkpt lat="47.90531" lon="7.07042">
        <ele>1252</ele>
        <time>2025-06-08T20:57:31.000Z</time>
      </trkpt>
      <trkpt lat="47.90523" lon="7.07048">
        <ele>1255</ele>
        <time>2025-06-08T20:57:44.000Z</time>
      </trkpt>
      <trkpt lat="47.90521" lon="7.07058">
        <ele>1256</ele>
        <time>2025-06-08T20:57:50.000Z</time>
      </trkpt>
      <trkpt lat="47.90512" lon="7.07067">
        <ele>1258</ele>
        <time>2025-06-08T20:58:00.000Z</time>
      </trkpt>
      <trkpt lat="47.90513" lon="7.07076">
        <ele>1260</ele>
        <time>2025-06-08T20:58:09.000Z</time>
      </trkpt>
      <trkpt lat="47.90512" lon="7.07085">
        <ele>1261</ele>
        <time>2025-06-08T20:58:14.000Z</time>
      </trkpt>
      <trkpt lat="47.90515" lon="7.07094">
        <ele>1262</ele>
        <time>2025-06-08T20:58:22.000Z</time>
      </trkpt>
      <trkpt lat="47.90513" lon="7.07099">
        <ele>1263</ele>
        <time>2025-06-08T20:58:26.000Z</time>
      </trkpt>
      <trkpt lat="47.90509" lon="7.07105">
        <ele>1265</ele>
        <time>2025-06-08T20:58:34.000Z</time>
      </trkpt>
      <trkpt lat="47.90508" lon="7.07113">
        <ele>1266</ele>
        <time>2025-06-08T20:58:38.000Z</time>
      </trkpt>
      <trkpt lat="47.90505" lon="7.07121">
        <ele>1266</ele>
        <time>2025-06-08T20:58:45.000Z</time>
      </trkpt>
      <trkpt lat="47.90506" lon="7.07129">
        <ele>1267</ele>
        <time>2025-06-08T20:58:49.000Z</time>
      </trkpt>
      <trkpt lat="47.90506" lon="7.07135">
        <ele>1267</ele>
        <time>2025-06-08T20:58:53.000Z</time>
      </trkpt>
      <trkpt lat="47.9051" lon="7.07147">
        <ele>1269</ele>
        <time>2025-06-08T20:59:02.000Z</time>
      </trkpt>
      <trkpt lat="47.90506" lon="7.07163">
        <ele>1270</ele>
        <time>2025-06-08T20:59:15.000Z</time>
      </trkpt>
      <trkpt lat="47.90503" lon="7.07177">
        <ele>1271</ele>
        <time>2025-06-08T20:59:20.000Z</time>
      </trkpt>
      <trkpt lat="47.90503" lon="7.07184">
        <ele>1271</ele>
        <time>2025-06-08T20:59:24.000Z</time>
      </trkpt>
      <trkpt lat="47.90503" lon="7.07192">
        <ele>1272</ele>
        <time>2025-06-08T20:59:32.000Z</time>
      </trkpt>
      <trkpt lat="47.905" lon="7.072">
        <ele>1273</ele>
        <time>2025-06-08T20:59:37.000Z</time>
      </trkpt>
      <trkpt lat="47.90502" lon="7.07206">
        <ele>1273</ele>
        <time>2025-06-08T20:59:40.000Z</time>
      </trkpt>
      <trkpt lat="47.90501" lon="7.07225">
        <ele>1277</ele>
        <time>2025-06-08T20:59:55.000Z</time>
      </trkpt>
      <trkpt lat="47.90498" lon="7.07229">
        <ele>1278</ele>
        <time>2025-06-08T20:59:59.000Z</time>
      </trkpt>
      <trkpt lat="47.90494" lon="7.07232">
        <ele>1278</ele>
        <time>2025-06-08T21:00:04.000Z</time>
      </trkpt>
      <trkpt lat="47.90494" lon="7.07243">
        <ele>1279</ele>
        <time>2025-06-08T21:00:12.000Z</time>
      </trkpt>
      <trkpt lat="47.90492" lon="7.0725">
        <ele>1279</ele>
        <time>2025-06-08T21:00:17.000Z</time>
      </trkpt>
      <trkpt lat="47.90491" lon="7.07257">
        <ele>1279</ele>
        <time>2025-06-08T21:00:20.000Z</time>
      </trkpt>
      <trkpt lat="47.90493" lon="7.07265">
        <ele>1279</ele>
        <time>2025-06-08T21:00:24.000Z</time>
      </trkpt>
      <trkpt lat="47.9049" lon="7.07271">
        <ele>1279</ele>
        <time>2025-06-08T21:00:27.000Z</time>
      </trkpt>
      <trkpt lat="47.90486" lon="7.07275">
        <ele>1279</ele>
        <time>2025-06-08T21:00:31.000Z</time>
      </trkpt>
      <trkpt lat="47.90479" lon="7.07284">
        <ele>1280</ele>
        <time>2025-06-08T21:00:39.000Z</time>
      </trkpt>
      <trkpt lat="47.90477" lon="7.0729">
        <ele>1280</ele>
        <time>2025-06-08T21:00:43.000Z</time>
      </trkpt>
      <trkpt lat="47.90473" lon="7.07299">
        <ele>1280</ele>
        <time>2025-06-08T21:00:50.000Z</time>
      </trkpt>
      <trkpt lat="47.90471" lon="7.07305">
        <ele>1280</ele>
        <time>2025-06-08T21:00:54.000Z</time>
      </trkpt>
      <trkpt lat="47.90469" lon="7.07313">
        <ele>1281</ele>
        <time>2025-06-08T21:00:57.000Z</time>
      </trkpt>
      <trkpt lat="47.90467" lon="7.07318">
        <ele>1282</ele>
        <time>2025-06-08T21:01:08.000Z</time>
      </trkpt>
      <trkpt lat="47.90464" lon="7.07325">
        <ele>1283</ele>
        <time>2025-06-08T21:01:12.000Z</time>
      </trkpt>
      <trkpt lat="47.90455" lon="7.07366">
        <ele>1286</ele>
        <time>2025-06-08T21:01:40.000Z</time>
      </trkpt>
      <trkpt lat="47.90455" lon="7.07374">
        <ele>1287</ele>
        <time>2025-06-08T21:01:44.000Z</time>
      </trkpt>
      <trkpt lat="47.90453" lon="7.0738">
        <ele>1287</ele>
        <time>2025-06-08T21:01:47.000Z</time>
      </trkpt>
      <trkpt lat="47.90453" lon="7.07387">
        <ele>1287</ele>
        <time>2025-06-08T21:01:51.000Z</time>
      </trkpt>
      <trkpt lat="47.90451" lon="7.07402">
        <ele>1287</ele>
        <time>2025-06-08T21:01:59.000Z</time>
      </trkpt>
      <trkpt lat="47.9045" lon="7.07409">
        <ele>1286</ele>
        <time>2025-06-08T21:02:03.000Z</time>
      </trkpt>
      <trkpt lat="47.9045" lon="7.07418">
        <ele>1286</ele>
        <time>2025-06-08T21:02:11.000Z</time>
      </trkpt>
      <trkpt lat="47.90447" lon="7.0743">
        <ele>1285</ele>
        <time>2025-06-08T21:02:20.000Z</time>
      </trkpt>
      <trkpt lat="47.90444" lon="7.07438">
        <ele>1284</ele>
        <time>2025-06-08T21:02:24.000Z</time>
      </trkpt>
      <trkpt lat="47.90443" lon="7.07454">
        <ele>1283</ele>
        <time>2025-06-08T21:02:31.000Z</time>
      </trkpt>
      <trkpt lat="47.90444" lon="7.0746">
        <ele>1283</ele>
        <time>2025-06-08T21:02:35.000Z</time>
      </trkpt>
      <trkpt lat="47.90442" lon="7.07467">
        <ele>1283</ele>
        <time>2025-06-08T21:02:40.000Z</time>
      </trkpt>
      <trkpt lat="47.90433" lon="7.07525">
        <ele>1286</ele>
        <time>2025-06-08T21:03:15.000Z</time>
      </trkpt>
      <trkpt lat="47.90429" lon="7.0754">
        <ele>1288</ele>
        <time>2025-06-08T21:03:24.000Z</time>
      </trkpt>
      <trkpt lat="47.90429" lon="7.07547">
        <ele>1288</ele>
        <time>2025-06-08T21:03:28.000Z</time>
      </trkpt>
      <trkpt lat="47.90427" lon="7.07555">
        <ele>1289</ele>
        <time>2025-06-08T21:03:34.000Z</time>
      </trkpt>
      <trkpt lat="47.90414" lon="7.07614">
        <ele>1292</ele>
        <time>2025-06-08T21:04:07.000Z</time>
      </trkpt>
      <trkpt lat="47.90412" lon="7.0762">
        <ele>1293</ele>
        <time>2025-06-08T21:04:11.000Z</time>
      </trkpt>
      <trkpt lat="47.90411" lon="7.07631">
        <ele>1295</ele>
        <time>2025-06-08T21:04:21.000Z</time>
      </trkpt>
      <trkpt lat="47.90406" lon="7.07648">
        <ele>1300</ele>
        <time>2025-06-08T21:04:39.000Z</time>
      </trkpt>
      <trkpt lat="47.90403" lon="7.07652">
        <ele>1301</ele>
        <time>2025-06-08T21:04:44.000Z</time>
      </trkpt>
      <trkpt lat="47.90402" lon="7.07659">
        <ele>1302</ele>
        <time>2025-06-08T21:04:49.000Z</time>
      </trkpt>
      <trkpt lat="47.90397" lon="7.07664">
        <ele>1304</ele>
        <time>2025-06-08T21:05:00.000Z</time>
      </trkpt>
      <trkpt lat="47.90394" lon="7.07671">
        <ele>1304</ele>
        <time>2025-06-08T21:05:03.000Z</time>
      </trkpt>
      <trkpt lat="47.90391" lon="7.07681">
        <ele>1306</ele>
        <time>2025-06-08T21:05:12.000Z</time>
      </trkpt>
      <trkpt lat="47.90386" lon="7.07684">
        <ele>1306</ele>
        <time>2025-06-08T21:05:18.000Z</time>
      </trkpt>
      <trkpt lat="47.90381" lon="7.07683">
        <ele>1305</ele>
        <time>2025-06-08T21:05:22.000Z</time>
      </trkpt>
      <trkpt lat="47.90377" lon="7.07689">
        <ele>1304</ele>
        <time>2025-06-08T21:05:27.000Z</time>
      </trkpt>
      <trkpt lat="47.90376" lon="7.07696">
        <ele>1306</ele>
        <time>2025-06-08T21:05:35.000Z</time>
      </trkpt>
      <trkpt lat="47.90372" lon="7.077">
        <ele>1307</ele>
        <time>2025-06-08T21:05:39.000Z</time>
      </trkpt>
      <trkpt lat="47.9037" lon="7.07706">
        <ele>1308</ele>
        <time>2025-06-08T21:05:44.000Z</time>
      </trkpt>
      <trkpt lat="47.90365" lon="7.0771">
        <ele>1308</ele>
        <time>2025-06-08T21:05:51.000Z</time>
      </trkpt>
      <trkpt lat="47.90362" lon="7.07717">
        <ele>1308</ele>
        <time>2025-06-08T21:05:57.000Z</time>
      </trkpt>
      <trkpt lat="47.90358" lon="7.07727">
        <ele>1309</ele>
        <time>2025-06-08T21:06:05.000Z</time>
      </trkpt>
      <trkpt lat="47.90354" lon="7.07732">
        <ele>1309</ele>
        <time>2025-06-08T21:06:10.000Z</time>
      </trkpt>
      <trkpt lat="47.9035" lon="7.07736">
        <ele>1309</ele>
        <time>2025-06-08T21:06:14.000Z</time>
      </trkpt>
      <trkpt lat="47.90347" lon="7.07744">
        <ele>1311</ele>
        <time>2025-06-08T21:06:21.000Z</time>
      </trkpt>
      <trkpt lat="47.90343" lon="7.0776">
        <ele>1314</ele>
        <time>2025-06-08T21:06:33.000Z</time>
      </trkpt>
      <trkpt lat="47.90339" lon="7.07765">
        <ele>1315</ele>
        <time>2025-06-08T21:06:37.000Z</time>
      </trkpt>
      <trkpt lat="47.90335" lon="7.07777">
        <ele>1318</ele>
        <time>2025-06-08T21:06:49.000Z</time>
      </trkpt>
      <trkpt lat="47.90327" lon="7.07784">
        <ele>1319</ele>
        <time>2025-06-08T21:06:58.000Z</time>
      </trkpt>
      <trkpt lat="47.90324" lon="7.07793">
        <ele>1320</ele>
        <time>2025-06-08T21:07:04.000Z</time>
      </trkpt>
      <trkpt lat="47.90318" lon="7.07805">
        <ele>1323</ele>
        <time>2025-06-08T21:07:17.000Z</time>
      </trkpt>
      <trkpt lat="47.90317" lon="7.07817">
        <ele>1325</ele>
        <time>2025-06-08T21:07:29.000Z</time>
      </trkpt>
      <trkpt lat="47.90313" lon="7.07822">
        <ele>1327</ele>
        <time>2025-06-08T21:07:34.000Z</time>
      </trkpt>
      <trkpt lat="47.90304" lon="7.07845">
        <ele>1332</ele>
        <time>2025-06-08T21:07:57.000Z</time>
      </trkpt>
      <trkpt lat="47.90281" lon="7.07875">
        <ele>1338</ele>
        <time>2025-06-08T21:08:31.000Z</time>
      </trkpt>
      <trkpt lat="47.90269" lon="7.07889">
        <ele>1342</ele>
        <time>2025-06-08T21:08:50.000Z</time>
      </trkpt>
      <trkpt lat="47.90265" lon="7.07912">
        <ele>1344</ele>
        <time>2025-06-08T21:09:07.000Z</time>
      </trkpt>
      <trkpt lat="47.90264" lon="7.07921">
        <ele>1346</ele>
        <time>2025-06-08T21:09:17.000Z</time>
      </trkpt>
      <trkpt lat="47.90261" lon="7.07935">
        <ele>1346</ele>
        <time>2025-06-08T21:09:26.000Z</time>
      </trkpt>
      <trkpt lat="47.90262" lon="7.07951">
        <ele>1348</ele>
        <time>2025-06-08T21:09:37.000Z</time>
      </trkpt>
      <trkpt lat="47.90263" lon="7.07959">
        <ele>1349</ele>
        <time>2025-06-08T21:09:42.000Z</time>
      </trkpt>
      <trkpt lat="47.90263" lon="7.07966">
        <ele>1349</ele>
        <time>2025-06-08T21:09:45.000Z</time>
      </trkpt>
      <trkpt lat="47.90263" lon="7.07972">
        <ele>1349</ele>
        <time>2025-06-08T21:09:49.000Z</time>
      </trkpt>
      <trkpt lat="47.90263" lon="7.07987">
        <ele>1351</ele>
        <time>2025-06-08T21:09:58.000Z</time>
      </trkpt>
      <trkpt lat="47.90265" lon="7.07995">
        <ele>1351</ele>
        <time>2025-06-08T21:10:06.000Z</time>
      </trkpt>
      <trkpt lat="47.90272" lon="7.07995">
        <ele>1350</ele>
        <time>2025-06-08T21:10:18.000Z</time>
      </trkpt>
      <trkpt lat="47.90274" lon="7.08004">
        <ele>1350</ele>
        <time>2025-06-08T21:10:23.000Z</time>
      </trkpt>
      <trkpt lat="47.90277" lon="7.08018">
        <ele>1349</ele>
        <time>2025-06-08T21:10:30.000Z</time>
      </trkpt>
      <trkpt lat="47.90284" lon="7.08034">
        <ele>1348</ele>
        <time>2025-06-08T21:10:43.000Z</time>
      </trkpt>
      <trkpt lat="47.90287" lon="7.08041">
        <ele>1346</ele>
        <time>2025-06-08T21:10:50.000Z</time>
      </trkpt>
      <trkpt lat="47.90294" lon="7.08051">
        <ele>1347</ele>
        <time>2025-06-08T21:10:59.000Z</time>
      </trkpt>
      <trkpt lat="47.90312" lon="7.08075">
        <ele>1343</ele>
        <time>2025-06-08T21:11:20.000Z</time>
      </trkpt>
      <trkpt lat="47.90321" lon="7.08094">
        <ele>1342</ele>
        <time>2025-06-08T21:11:32.000Z</time>
      </trkpt>
      <trkpt lat="47.90333" lon="7.08142">
        <ele>1336</ele>
        <time>2025-06-08T21:12:03.000Z</time>
      </trkpt>
      <trkpt lat="47.90341" lon="7.08182">
        <ele>1326</ele>
        <time>2025-06-08T21:12:37.000Z</time>
      </trkpt>
      <trkpt lat="47.90347" lon="7.08232">
        <ele>1318</ele>
        <time>2025-06-08T21:13:09.000Z</time>
      </trkpt>
      <trkpt lat="47.90354" lon="7.08277">
        <ele>1308</ele>
        <time>2025-06-08T21:13:43.000Z</time>
      </trkpt>
      <trkpt lat="47.90359" lon="7.08332">
        <ele>1297</ele>
        <time>2025-06-08T21:14:17.000Z</time>
      </trkpt>
      <trkpt lat="47.90364" lon="7.08349">
        <ele>1292</ele>
        <time>2025-06-08T21:14:30.000Z</time>
      </trkpt>
      <trkpt lat="47.90365" lon="7.08358">
        <ele>1291</ele>
        <time>2025-06-08T21:14:32.000Z</time>
      </trkpt>
      <trkpt lat="47.90361" lon="7.08364">
        <ele>1290</ele>
        <time>2025-06-08T21:14:34.000Z</time>
      </trkpt>
      <trkpt lat="47.90367" lon="7.08427">
        <ele>1279</ele>
        <time>2025-06-08T21:15:08.000Z</time>
      </trkpt>
      <trkpt lat="47.90372" lon="7.08473">
        <ele>1271</ele>
        <time>2025-06-08T21:15:43.000Z</time>
      </trkpt>
      <trkpt lat="47.90378" lon="7.08519">
        <ele>1262</ele>
        <time>2025-06-08T21:16:12.000Z</time>
      </trkpt>
      <trkpt lat="47.90387" lon="7.08545">
        <ele>1257</ele>
        <time>2025-06-08T21:16:32.000Z</time>
      </trkpt>
      <trkpt lat="47.90389" lon="7.08553">
        <ele>1255</ele>
        <time>2025-06-08T21:16:44.000Z</time>
      </trkpt>
      <trkpt lat="47.904" lon="7.08583">
        <ele>1250</ele>
        <time>2025-06-08T21:17:08.000Z</time>
      </trkpt>
      <trkpt lat="47.90404" lon="7.08584">
        <ele>1251</ele>
        <time>2025-06-08T21:18:02.000Z</time>
      </trkpt>
      <trkpt lat="47.90411" lon="7.0858">
        <ele>1251</ele>
        <time>2025-06-08T21:18:04.000Z</time>
      </trkpt>
      <trkpt lat="47.9041" lon="7.08585">
        <ele>1250</ele>
        <time>2025-06-08T21:18:37.000Z</time>
      </trkpt>
      <trkpt lat="47.90406" lon="7.08588">
        <ele>1249</ele>
        <time>2025-06-08T21:18:43.000Z</time>
      </trkpt>
      <trkpt lat="47.90403" lon="7.08593">
        <ele>1248</ele>
        <time>2025-06-08T21:18:47.000Z</time>
      </trkpt>
      <trkpt lat="47.904" lon="7.08605">
        <ele>1245</ele>
        <time>2025-06-08T21:19:01.000Z</time>
      </trkpt>
      <trkpt lat="47.90399" lon="7.08617">
        <ele>1242</ele>
        <time>2025-06-08T21:19:13.000Z</time>
      </trkpt>
      <trkpt lat="47.904" lon="7.08624">
        <ele>1239</ele>
        <time>2025-06-08T21:19:37.000Z</time>
      </trkpt>
      <trkpt lat="47.90419" lon="7.08653">
        <ele>1238</ele>
        <time>2025-06-08T21:24:34.000Z</time>
      </trkpt>
      <trkpt lat="47.90419" lon="7.08654">
        <ele>1238</ele>
        <time>2025-06-08T21:24:35.000Z</time>
      </trkpt>
      <trkpt lat="47.90423" lon="7.08661">
        <ele>1239</ele>
        <time>2025-06-08T21:24:42.000Z</time>
      </trkpt>
      <trkpt lat="47.90425" lon="7.08666">
        <ele>1239</ele>
        <time>2025-06-08T21:24:46.000Z</time>
      </trkpt>
      <trkpt lat="47.90427" lon="7.08672">
        <ele>1238</ele>
        <time>2025-06-08T21:24:50.000Z</time>
      </trkpt>
      <trkpt lat="47.90429" lon="7.08679">
        <ele>1238</ele>
        <time>2025-06-08T21:24:55.000Z</time>
      </trkpt>
      <trkpt lat="47.90435" lon="7.08681">
        <ele>1238</ele>
        <time>2025-06-08T21:24:59.000Z</time>
      </trkpt>
      <trkpt lat="47.90438" lon="7.08686">
        <ele>1238</ele>
        <time>2025-06-08T21:25:03.000Z</time>
      </trkpt>
      <trkpt lat="47.90442" lon="7.08697">
        <ele>1239</ele>
        <time>2025-06-08T21:25:12.000Z</time>
      </trkpt>
      <trkpt lat="47.90445" lon="7.08704">
        <ele>1238</ele>
        <time>2025-06-08T21:25:17.000Z</time>
      </trkpt>
      <trkpt lat="47.90447" lon="7.08712">
        <ele>1238</ele>
        <time>2025-06-08T21:25:22.000Z</time>
      </trkpt>
      <trkpt lat="47.9045" lon="7.08718">
        <ele>1237</ele>
        <time>2025-06-08T21:25:26.000Z</time>
      </trkpt>
      <trkpt lat="47.90463" lon="7.08755">
        <ele>1236</ele>
        <time>2025-06-08T21:26:06.000Z</time>
      </trkpt>
      <trkpt lat="47.90465" lon="7.08761">
        <ele>1236</ele>
        <time>2025-06-08T21:26:10.000Z</time>
      </trkpt>
      <trkpt lat="47.90467" lon="7.08769">
        <ele>1236</ele>
        <time>2025-06-08T21:26:16.000Z</time>
      </trkpt>
      <trkpt lat="47.90471" lon="7.08783">
        <ele>1237</ele>
        <time>2025-06-08T21:26:24.000Z</time>
      </trkpt>
      <trkpt lat="47.90473" lon="7.08795">
        <ele>1236</ele>
        <time>2025-06-08T21:26:32.000Z</time>
      </trkpt>
      <trkpt lat="47.90473" lon="7.08802">
        <ele>1237</ele>
        <time>2025-06-08T21:26:35.000Z</time>
      </trkpt>
      <trkpt lat="47.90474" lon="7.08816">
        <ele>1237</ele>
        <time>2025-06-08T21:26:43.000Z</time>
      </trkpt>
      <trkpt lat="47.90475" lon="7.08823">
        <ele>1237</ele>
        <time>2025-06-08T21:26:48.000Z</time>
      </trkpt>
      <trkpt lat="47.90475" lon="7.08834">
        <ele>1237</ele>
        <time>2025-06-08T21:27:05.000Z</time>
      </trkpt>
      <trkpt lat="47.90476" lon="7.08841">
        <ele>1236</ele>
        <time>2025-06-08T21:27:09.000Z</time>
      </trkpt>
      <trkpt lat="47.90477" lon="7.08848">
        <ele>1236</ele>
        <time>2025-06-08T21:27:15.000Z</time>
      </trkpt>
      <trkpt lat="47.90471" lon="7.08856">
        <ele>1234</ele>
        <time>2025-06-08T21:27:39.000Z</time>
      </trkpt>
      <trkpt lat="47.90465" lon="7.08865">
        <ele>1232</ele>
        <time>2025-06-08T21:27:49.000Z</time>
      </trkpt>
      <trkpt lat="47.90463" lon="7.08878">
        <ele>1231</ele>
        <time>2025-06-08T21:27:58.000Z</time>
      </trkpt>
      <trkpt lat="47.90463" lon="7.0889">
        <ele>1231</ele>
        <time>2025-06-08T21:28:06.000Z</time>
      </trkpt>
      <trkpt lat="47.90467" lon="7.08898">
        <ele>1232</ele>
        <time>2025-06-08T21:28:17.000Z</time>
      </trkpt>
      <trkpt lat="47.9047" lon="7.08905">
        <ele>1231</ele>
        <time>2025-06-08T21:28:21.000Z</time>
      </trkpt>
      <trkpt lat="47.9047" lon="7.08911">
        <ele>1232</ele>
        <time>2025-06-08T21:28:26.000Z</time>
      </trkpt>
      <trkpt lat="47.90473" lon="7.08925">
        <ele>1231</ele>
        <time>2025-06-08T21:28:34.000Z</time>
      </trkpt>
      <trkpt lat="47.90473" lon="7.08931">
        <ele>1231</ele>
        <time>2025-06-08T21:28:38.000Z</time>
      </trkpt>
      <trkpt lat="47.90474" lon="7.08937">
        <ele>1231</ele>
        <time>2025-06-08T21:28:41.000Z</time>
      </trkpt>
      <trkpt lat="47.90474" lon="7.08944">
        <ele>1232</ele>
        <time>2025-06-08T21:28:45.000Z</time>
      </trkpt>
      <trkpt lat="47.90476" lon="7.08956">
        <ele>1231</ele>
        <time>2025-06-08T21:28:52.000Z</time>
      </trkpt>
      <trkpt lat="47.9048" lon="7.08961">
        <ele>1231</ele>
        <time>2025-06-08T21:28:56.000Z</time>
      </trkpt>
      <trkpt lat="47.90483" lon="7.08967">
        <ele>1231</ele>
        <time>2025-06-08T21:29:00.000Z</time>
      </trkpt>
      <trkpt lat="47.90484" lon="7.08974">
        <ele>1231</ele>
        <time>2025-06-08T21:29:04.000Z</time>
      </trkpt>
      <trkpt lat="47.90486" lon="7.08981">
        <ele>1232</ele>
        <time>2025-06-08T21:29:08.000Z</time>
      </trkpt>
      <trkpt lat="47.90487" lon="7.08989">
        <ele>1231</ele>
        <time>2025-06-08T21:29:12.000Z</time>
      </trkpt>
      <trkpt lat="47.90487" lon="7.08996">
        <ele>1232</ele>
        <time>2025-06-08T21:29:16.000Z</time>
      </trkpt>
      <trkpt lat="47.90502" lon="7.09024">
        <ele>1233</ele>
        <time>2025-06-08T21:29:37.000Z</time>
      </trkpt>
      <trkpt lat="47.90504" lon="7.0903">
        <ele>1233</ele>
        <time>2025-06-08T21:29:41.000Z</time>
      </trkpt>
      <trkpt lat="47.90499" lon="7.09036">
        <ele>1234</ele>
        <time>2025-06-08T21:29:51.000Z</time>
      </trkpt>
      <trkpt lat="47.90493" lon="7.09046">
        <ele>1234</ele>
        <time>2025-06-08T21:30:02.000Z</time>
      </trkpt>
      <trkpt lat="47.9049" lon="7.09051">
        <ele>1235</ele>
        <time>2025-06-08T21:30:06.000Z</time>
      </trkpt>
      <trkpt lat="47.90487" lon="7.09056">
        <ele>1234</ele>
        <time>2025-06-08T21:30:11.000Z</time>
      </trkpt>
      <trkpt lat="47.90483" lon="7.09062">
        <ele>1236</ele>
        <time>2025-06-08T21:30:16.000Z</time>
      </trkpt>
      <trkpt lat="47.90479" lon="7.09067">
        <ele>1236</ele>
        <time>2025-06-08T21:30:21.000Z</time>
      </trkpt>
      <trkpt lat="47.90465" lon="7.09089">
        <ele>1237</ele>
        <time>2025-06-08T21:30:39.000Z</time>
      </trkpt>
      <trkpt lat="47.90458" lon="7.09101">
        <ele>1237</ele>
        <time>2025-06-08T21:30:47.000Z</time>
      </trkpt>
      <trkpt lat="47.90456" lon="7.09107">
        <ele>1236</ele>
        <time>2025-06-08T21:30:51.000Z</time>
      </trkpt>
      <trkpt lat="47.90454" lon="7.09114">
        <ele>1236</ele>
        <time>2025-06-08T21:30:55.000Z</time>
      </trkpt>
      <trkpt lat="47.90452" lon="7.09128">
        <ele>1238</ele>
        <time>2025-06-08T21:31:06.000Z</time>
      </trkpt>
      <trkpt lat="47.90453" lon="7.09157">
        <ele>1241</ele>
        <time>2025-06-08T21:31:25.000Z</time>
      </trkpt>
      <trkpt lat="47.90451" lon="7.0917">
        <ele>1242</ele>
        <time>2025-06-08T21:31:33.000Z</time>
      </trkpt>
      <trkpt lat="47.90455" lon="7.0918">
        <ele>1244</ele>
        <time>2025-06-08T21:31:47.000Z</time>
      </trkpt>
      <trkpt lat="47.90454" lon="7.09204">
        <ele>1246</ele>
        <time>2025-06-08T21:32:05.000Z</time>
      </trkpt>
      <trkpt lat="47.9046" lon="7.09259">
        <ele>1251</ele>
        <time>2025-06-08T21:32:41.000Z</time>
      </trkpt>
      <trkpt lat="47.90468" lon="7.09309">
        <ele>1256</ele>
        <time>2025-06-08T21:33:12.000Z</time>
      </trkpt>
      <trkpt lat="47.90478" lon="7.09346">
        <ele>1260</ele>
        <time>2025-06-08T21:33:38.000Z</time>
      </trkpt>
      <trkpt lat="47.90481" lon="7.09351">
        <ele>1261</ele>
        <time>2025-06-08T21:33:41.000Z</time>
      </trkpt>
      <trkpt lat="47.90484" lon="7.09366">
        <ele>1262</ele>
        <time>2025-06-08T21:33:50.000Z</time>
      </trkpt>
      <trkpt lat="47.90483" lon="7.09372">
        <ele>1262</ele>
        <time>2025-06-08T21:33:55.000Z</time>
      </trkpt>
      <trkpt lat="47.90484" lon="7.09379">
        <ele>1263</ele>
        <time>2025-06-08T21:34:00.000Z</time>
      </trkpt>
      <trkpt lat="47.90487" lon="7.09394">
        <ele>1265</ele>
        <time>2025-06-08T21:34:11.000Z</time>
      </trkpt>
      <trkpt lat="47.90487" lon="7.09402">
        <ele>1266</ele>
        <time>2025-06-08T21:34:16.000Z</time>
      </trkpt>
      <trkpt lat="47.90487" lon="7.09409">
        <ele>1266</ele>
        <time>2025-06-08T21:34:21.000Z</time>
      </trkpt>
      <trkpt lat="47.90502" lon="7.09454">
        <ele>1271</ele>
        <time>2025-06-08T21:34:53.000Z</time>
      </trkpt>
      <trkpt lat="47.90505" lon="7.09483">
        <ele>1274</ele>
        <time>2025-06-08T21:35:12.000Z</time>
      </trkpt>
      <trkpt lat="47.90502" lon="7.09501">
        <ele>1279</ele>
        <time>2025-06-08T21:35:34.000Z</time>
      </trkpt>
      <trkpt lat="47.90507" lon="7.09505">
        <ele>1280</ele>
        <time>2025-06-08T21:35:39.000Z</time>
      </trkpt>
      <trkpt lat="47.90525" lon="7.09537">
        <ele>1279</ele>
        <time>2025-06-08T21:39:07.000Z</time>
      </trkpt>
      <trkpt lat="47.90528" lon="7.09584">
        <ele>1284</ele>
        <time>2025-06-08T21:39:24.000Z</time>
      </trkpt>
      <trkpt lat="47.90528" lon="7.09592">
        <ele>1284</ele>
        <time>2025-06-08T21:39:27.000Z</time>
      </trkpt>
      <trkpt lat="47.90529" lon="7.09623">
        <ele>1287</ele>
        <time>2025-06-08T21:39:39.000Z</time>
      </trkpt>
      <trkpt lat="47.90528" lon="7.09629">
        <ele>1287</ele>
        <time>2025-06-08T21:39:42.000Z</time>
      </trkpt>
      <trkpt lat="47.90517" lon="7.09662">
        <ele>1291</ele>
        <time>2025-06-08T21:40:08.000Z</time>
      </trkpt>
      <trkpt lat="47.90516" lon="7.09678">
        <ele>1293</ele>
        <time>2025-06-08T21:40:20.000Z</time>
      </trkpt>
      <trkpt lat="47.90522" lon="7.09727">
        <ele>1298</ele>
        <time>2025-06-08T21:40:54.000Z</time>
      </trkpt>
      <trkpt lat="47.90522" lon="7.09734">
        <ele>1299</ele>
        <time>2025-06-08T21:40:59.000Z</time>
      </trkpt>
      <trkpt lat="47.90531" lon="7.09784">
        <ele>1304</ele>
        <time>2025-06-08T21:41:26.000Z</time>
      </trkpt>
      <trkpt lat="47.90531" lon="7.09792">
        <ele>1305</ele>
        <time>2025-06-08T21:41:33.000Z</time>
      </trkpt>
      <trkpt lat="47.90535" lon="7.09832">
        <ele>1308</ele>
        <time>2025-06-08T21:41:57.000Z</time>
      </trkpt>
      <trkpt lat="47.90534" lon="7.09858">
        <ele>1311</ele>
        <time>2025-06-08T21:42:12.000Z</time>
      </trkpt>
      <trkpt lat="47.90534" lon="7.09864">
        <ele>1311</ele>
        <time>2025-06-08T21:42:16.000Z</time>
      </trkpt>
      <trkpt lat="47.90531" lon="7.09899">
        <ele>1314</ele>
        <time>2025-06-08T21:42:37.000Z</time>
      </trkpt>
      <trkpt lat="47.90524" lon="7.09946">
        <ele>1319</ele>
        <time>2025-06-08T21:43:09.000Z</time>
      </trkpt>
      <trkpt lat="47.90521" lon="7.09953">
        <ele>1320</ele>
        <time>2025-06-08T21:43:14.000Z</time>
      </trkpt>
      <trkpt lat="47.90519" lon="7.10008">
        <ele>1325</ele>
        <time>2025-06-08T21:43:45.000Z</time>
      </trkpt>
      <trkpt lat="47.90519" lon="7.10016">
        <ele>1326</ele>
        <time>2025-06-08T21:43:50.000Z</time>
      </trkpt>
      <trkpt lat="47.90517" lon="7.10025">
        <ele>1327</ele>
        <time>2025-06-08T21:44:00.000Z</time>
      </trkpt>
      <trkpt lat="47.90516" lon="7.10031">
        <ele>1328</ele>
        <time>2025-06-08T21:44:04.000Z</time>
      </trkpt>
      <trkpt lat="47.90517" lon="7.1004">
        <ele>1328</ele>
        <time>2025-06-08T21:44:08.000Z</time>
      </trkpt>
      <trkpt lat="47.90515" lon="7.10064">
        <ele>1330</ele>
        <time>2025-06-08T21:44:22.000Z</time>
      </trkpt>
      <trkpt lat="47.90513" lon="7.10073">
        <ele>1331</ele>
        <time>2025-06-08T21:44:29.000Z</time>
      </trkpt>
      <trkpt lat="47.90513" lon="7.10079">
        <ele>1332</ele>
        <time>2025-06-08T21:44:33.000Z</time>
      </trkpt>
      <trkpt lat="47.90513" lon="7.10093">
        <ele>1334</ele>
        <time>2025-06-08T21:44:47.000Z</time>
      </trkpt>
      <trkpt lat="47.90507" lon="7.10147">
        <ele>1338</ele>
        <time>2025-06-08T21:45:22.000Z</time>
      </trkpt>
      <trkpt lat="47.90504" lon="7.10169">
        <ele>1341</ele>
        <time>2025-06-08T21:45:36.000Z</time>
      </trkpt>
      <trkpt lat="47.90499" lon="7.10183">
        <ele>1342</ele>
        <time>2025-06-08T21:45:45.000Z</time>
      </trkpt>
      <trkpt lat="47.90498" lon="7.10191">
        <ele>1343</ele>
        <time>2025-06-08T21:45:51.000Z</time>
      </trkpt>
      <trkpt lat="47.90494" lon="7.10196">
        <ele>1344</ele>
        <time>2025-06-08T21:45:56.000Z</time>
      </trkpt>
      <trkpt lat="47.90489" lon="7.10209">
        <ele>1347</ele>
        <time>2025-06-08T21:46:08.000Z</time>
      </trkpt>
      <trkpt lat="47.90485" lon="7.10206">
        <ele>1348</ele>
        <time>2025-06-08T21:46:14.000Z</time>
      </trkpt>
      <trkpt lat="47.90478" lon="7.10185">
        <ele>1351</ele>
        <time>2025-06-08T21:46:31.000Z</time>
      </trkpt>
      <trkpt lat="47.90474" lon="7.10178">
        <ele>1352</ele>
        <time>2025-06-08T21:46:38.000Z</time>
      </trkpt>
      <trkpt lat="47.90467" lon="7.10174">
        <ele>1355</ele>
        <time>2025-06-08T21:46:49.000Z</time>
      </trkpt>
      <trkpt lat="47.90458" lon="7.10179">
        <ele>1356</ele>
        <time>2025-06-08T21:46:57.000Z</time>
      </trkpt>
      <trkpt lat="47.90453" lon="7.10181">
        <ele>1356</ele>
        <time>2025-06-08T21:47:02.000Z</time>
      </trkpt>
      <trkpt lat="47.90444" lon="7.10192">
        <ele>1358</ele>
        <time>2025-06-08T21:47:14.000Z</time>
      </trkpt>
      <trkpt lat="47.9044" lon="7.10196">
        <ele>1357</ele>
        <time>2025-06-08T21:47:18.000Z</time>
      </trkpt>
      <trkpt lat="47.90436" lon="7.10197">
        <ele>1357</ele>
        <time>2025-06-08T21:47:21.000Z</time>
      </trkpt>
      <trkpt lat="47.90431" lon="7.10202">
        <ele>1358</ele>
        <time>2025-06-08T21:47:25.000Z</time>
      </trkpt>
      <trkpt lat="47.90427" lon="7.10209">
        <ele>1357</ele>
        <time>2025-06-08T21:47:31.000Z</time>
      </trkpt>
      <trkpt lat="47.90421" lon="7.10222">
        <ele>1357</ele>
        <time>2025-06-08T21:47:37.000Z</time>
      </trkpt>
      <trkpt lat="47.9042" lon="7.10229">
        <ele>1357</ele>
        <time>2025-06-08T21:47:41.000Z</time>
      </trkpt>
      <trkpt lat="47.90416" lon="7.10233">
        <ele>1357</ele>
        <time>2025-06-08T21:47:45.000Z</time>
      </trkpt>
      <trkpt lat="47.90411" lon="7.10233">
        <ele>1357</ele>
        <time>2025-06-08T21:47:49.000Z</time>
      </trkpt>
      <trkpt lat="47.90409" lon="7.10226">
        <ele>1357</ele>
        <time>2025-06-08T21:47:57.000Z</time>
      </trkpt>
      <trkpt lat="47.90405" lon="7.10214">
        <ele>1360</ele>
        <time>2025-06-08T21:48:08.000Z</time>
      </trkpt>
      <trkpt lat="47.90409" lon="7.10196">
        <ele>1361</ele>
        <time>2025-06-08T21:48:19.000Z</time>
      </trkpt>
      <trkpt lat="47.9041" lon="7.10182">
        <ele>1364</ele>
        <time>2025-06-08T21:48:29.000Z</time>
      </trkpt>
      <trkpt lat="47.90415" lon="7.1016">
        <ele>1367</ele>
        <time>2025-06-08T21:48:45.000Z</time>
      </trkpt>
      <trkpt lat="47.90413" lon="7.10146">
        <ele>1368</ele>
        <time>2025-06-08T21:48:54.000Z</time>
      </trkpt>
      <trkpt lat="47.90415" lon="7.1014">
        <ele>1370</ele>
        <time>2025-06-08T21:49:00.000Z</time>
      </trkpt>
      <trkpt lat="47.90413" lon="7.10133">
        <ele>1371</ele>
        <time>2025-06-08T21:49:05.000Z</time>
      </trkpt>
      <trkpt lat="47.90415" lon="7.10126">
        <ele>1371</ele>
        <time>2025-06-08T21:49:10.000Z</time>
      </trkpt>
      <trkpt lat="47.90416" lon="7.10119">
        <ele>1371</ele>
        <time>2025-06-08T21:49:15.000Z</time>
      </trkpt>
      <trkpt lat="47.90418" lon="7.10112">
        <ele>1371</ele>
        <time>2025-06-08T21:49:19.000Z</time>
      </trkpt>
      <trkpt lat="47.90416" lon="7.10104">
        <ele>1371</ele>
        <time>2025-06-08T21:49:25.000Z</time>
      </trkpt>
      <trkpt lat="47.90417" lon="7.10094">
        <ele>1372</ele>
        <time>2025-06-08T21:49:33.000Z</time>
      </trkpt>
      <trkpt lat="47.90415" lon="7.10087">
        <ele>1373</ele>
        <time>2025-06-08T21:49:38.000Z</time>
      </trkpt>
      <trkpt lat="47.90411" lon="7.10084">
        <ele>1373</ele>
        <time>2025-06-08T21:49:42.000Z</time>
      </trkpt>
      <trkpt lat="47.90406" lon="7.10068">
        <ele>1376</ele>
        <time>2025-06-08T21:49:52.000Z</time>
      </trkpt>
      <trkpt lat="47.90405" lon="7.10061">
        <ele>1377</ele>
        <time>2025-06-08T21:49:57.000Z</time>
      </trkpt>
      <trkpt lat="47.90401" lon="7.10056">
        <ele>1378</ele>
        <time>2025-06-08T21:50:01.000Z</time>
      </trkpt>
      <trkpt lat="47.90396" lon="7.10029">
        <ele>1381</ele>
        <time>2025-06-08T21:50:20.000Z</time>
      </trkpt>
      <trkpt lat="47.90394" lon="7.10024">
        <ele>1382</ele>
        <time>2025-06-08T21:50:25.000Z</time>
      </trkpt>
      <trkpt lat="47.90385" lon="7.0998">
        <ele>1388</ele>
        <time>2025-06-08T21:51:00.000Z</time>
      </trkpt>
      <trkpt lat="47.9038" lon="7.09953">
        <ele>1392</ele>
        <time>2025-06-08T21:51:18.000Z</time>
      </trkpt>
      <trkpt lat="47.90372" lon="7.09941">
        <ele>1394</ele>
        <time>2025-06-08T21:51:28.000Z</time>
      </trkpt>
      <trkpt lat="47.90368" lon="7.0993">
        <ele>1394</ele>
        <time>2025-06-08T21:51:37.000Z</time>
      </trkpt>
      <trkpt lat="47.90366" lon="7.09925">
        <ele>1394</ele>
        <time>2025-06-08T21:51:42.000Z</time>
      </trkpt>
      <trkpt lat="47.90361" lon="7.09924">
        <ele>1395</ele>
        <time>2025-06-08T21:51:47.000Z</time>
      </trkpt>
      <trkpt lat="47.90338" lon="7.099">
        <ele>1402</ele>
        <time>2025-06-08T21:52:17.000Z</time>
      </trkpt>
      <trkpt lat="47.90315" lon="7.0989">
        <ele>1406</ele>
        <time>2025-06-08T21:52:38.000Z</time>
      </trkpt>
      <trkpt lat="47.90305" lon="7.09895">
        <ele>1407</ele>
        <time>2025-06-08T21:52:51.000Z</time>
      </trkpt>
      <trkpt lat="47.903" lon="7.09901">
        <ele>1408</ele>
        <time>2025-06-08T21:52:56.000Z</time>
      </trkpt>
      <trkpt lat="47.90277" lon="7.09916">
        <ele>1414</ele>
        <time>2025-06-08T21:53:22.000Z</time>
      </trkpt>
      <trkpt lat="47.90269" lon="7.09918">
        <ele>1416</ele>
        <time>2025-06-08T21:53:30.000Z</time>
      </trkpt>
      <trkpt lat="47.90264" lon="7.0992">
        <ele>1416</ele>
        <time>2025-06-08T21:53:34.000Z</time>
      </trkpt>
      <trkpt lat="47.90253" lon="7.09919">
        <ele>1415</ele>
        <time>2025-06-08T21:53:47.000Z</time>
      </trkpt>
      <trkpt lat="47.90249" lon="7.09917">
        <ele>1414</ele>
        <time>2025-06-08T21:53:51.000Z</time>
      </trkpt>
      <trkpt lat="47.90238" lon="7.09911">
        <ele>1414</ele>
        <time>2025-06-08T21:54:00.000Z</time>
      </trkpt>
      <trkpt lat="47.90214" lon="7.099">
        <ele>1416</ele>
        <time>2025-06-08T21:54:23.000Z</time>
      </trkpt>
      <trkpt lat="47.90208" lon="7.09896">
        <ele>1417</ele>
        <time>2025-06-08T21:54:30.000Z</time>
      </trkpt>
      <trkpt lat="47.90194" lon="7.09889">
        <ele>1419</ele>
        <time>2025-06-08T21:54:45.000Z</time>
      </trkpt>
      <trkpt lat="47.9019" lon="7.09885">
        <ele>1419</ele>
        <time>2025-06-08T21:54:50.000Z</time>
      </trkpt>
      <trkpt lat="47.90184" lon="7.09879">
        <ele>1420</ele>
        <time>2025-06-08T21:54:57.000Z</time>
      </trkpt>
      <trkpt lat="47.90175" lon="7.09873">
        <ele>1423</ele>
        <time>2025-06-08T21:55:09.000Z</time>
      </trkpt>
      <trkpt lat="47.9017" lon="7.0987">
        <ele>1423</ele>
        <time>2025-06-08T21:55:13.000Z</time>
      </trkpt>
      <trkpt lat="47.90135" lon="7.09848">
        <ele>1427</ele>
        <time>2025-06-08T21:55:48.000Z</time>
      </trkpt>
      <trkpt lat="47.90123" lon="7.09839">
        <ele>1429</ele>
        <time>2025-06-08T21:56:07.000Z</time>
      </trkpt>
      <trkpt lat="47.90118" lon="7.09837">
        <ele>1430</ele>
        <time>2025-06-08T21:56:11.000Z</time>
      </trkpt>
      <trkpt lat="47.90114" lon="7.09837">
        <ele>1428</ele>
        <time>2025-06-08T21:56:19.000Z</time>
      </trkpt>
      <trkpt lat="47.90105" lon="7.09835">
        <ele>1431</ele>
        <time>2025-06-08T21:56:30.000Z</time>
      </trkpt>
      <trkpt lat="47.901" lon="7.09829">
        <ele>1436</ele>
        <time>2025-06-08T21:56:51.000Z</time>
      </trkpt>
      <trkpt lat="47.90097" lon="7.0983">
        <ele>1436</ele>
        <time>2025-06-08T21:57:10.000Z</time>
      </trkpt>
      <trkpt lat="47.90101" lon="7.0982">
        <ele>1435</ele>
        <time>2025-06-08T21:57:17.000Z</time>
      </trkpt>
      <trkpt lat="47.90105" lon="7.09824">
        <ele>1433</ele>
        <time>2025-06-08T21:57:37.000Z</time>
      </trkpt>
      <trkpt lat="47.9011" lon="7.09828">
        <ele>1431</ele>
        <time>2025-06-08T21:58:10.000Z</time>
      </trkpt>
      <trkpt lat="47.90115" lon="7.09832">
        <ele>1429</ele>
        <time>2025-06-08T21:58:22.000Z</time>
      </trkpt>
      <trkpt lat="47.90118" lon="7.09836">
        <ele>1427</ele>
        <time>2025-06-08T21:58:26.000Z</time>
      </trkpt>
      <trkpt lat="47.90115" lon="7.09843">
        <ele>1427</ele>
        <time>2025-06-08T21:58:31.000Z</time>
      </trkpt>
      <trkpt lat="47.90106" lon="7.09844">
        <ele>1427</ele>
        <time>2025-06-08T21:58:41.000Z</time>
      </trkpt>
      <trkpt lat="47.90101" lon="7.09843">
        <ele>1426</ele>
        <time>2025-06-08T21:58:46.000Z</time>
      </trkpt>
      <trkpt lat="47.90097" lon="7.09846">
        <ele>1427</ele>
        <time>2025-06-08T21:58:51.000Z</time>
      </trkpt>
      <trkpt lat="47.90091" lon="7.09851">
        <ele>1427</ele>
        <time>2025-06-08T21:58:58.000Z</time>
      </trkpt>
      <trkpt lat="47.90087" lon="7.09862">
        <ele>1425</ele>
        <time>2025-06-08T21:59:12.000Z</time>
      </trkpt>
      <trkpt lat="47.90079" lon="7.09873">
        <ele>1422</ele>
        <time>2025-06-08T21:59:25.000Z</time>
      </trkpt>
      <trkpt lat="47.90057" lon="7.09888">
        <ele>1418</ele>
        <time>2025-06-08T21:59:55.000Z</time>
      </trkpt>
      <trkpt lat="47.90052" lon="7.09891">
        <ele>1418</ele>
        <time>2025-06-08T22:00:01.000Z</time>
      </trkpt>
      <trkpt lat="47.90048" lon="7.09897">
        <ele>1417</ele>
        <time>2025-06-08T22:00:08.000Z</time>
      </trkpt>
      <trkpt lat="47.90044" lon="7.09903">
        <ele>1417</ele>
        <time>2025-06-08T22:00:14.000Z</time>
      </trkpt>
      <trkpt lat="47.90043" lon="7.09909">
        <ele>1416</ele>
        <time>2025-06-08T22:00:18.000Z</time>
      </trkpt>
      <trkpt lat="47.90042" lon="7.09915">
        <ele>1416</ele>
        <time>2025-06-08T22:00:23.000Z</time>
      </trkpt>
      <trkpt lat="47.90044" lon="7.09921">
        <ele>1416</ele>
        <time>2025-06-08T22:00:28.000Z</time>
      </trkpt>
      <trkpt lat="47.9005" lon="7.0993">
        <ele>1413</ele>
        <time>2025-06-08T22:00:37.000Z</time>
      </trkpt>
      <trkpt lat="47.9006" lon="7.09939">
        <ele>1414</ele>
        <time>2025-06-08T22:00:51.000Z</time>
      </trkpt>
      <trkpt lat="47.90068" lon="7.09947">
        <ele>1413</ele>
        <time>2025-06-08T22:01:00.000Z</time>
      </trkpt>
      <trkpt lat="47.9008" lon="7.09955">
        <ele>1410</ele>
        <time>2025-06-08T22:01:14.000Z</time>
      </trkpt>
      <trkpt lat="47.90086" lon="7.09959">
        <ele>1410</ele>
        <time>2025-06-08T22:01:22.000Z</time>
      </trkpt>
      <trkpt lat="47.90092" lon="7.09963">
        <ele>1410</ele>
        <time>2025-06-08T22:01:30.000Z</time>
      </trkpt>
      <trkpt lat="47.90102" lon="7.09969">
        <ele>1409</ele>
        <time>2025-06-08T22:01:43.000Z</time>
      </trkpt>
      <trkpt lat="47.90106" lon="7.09971">
        <ele>1409</ele>
        <time>2025-06-08T22:01:48.000Z</time>
      </trkpt>
      <trkpt lat="47.90111" lon="7.09973">
        <ele>1407</ele>
        <time>2025-06-08T22:01:53.000Z</time>
      </trkpt>
      <trkpt lat="47.90119" lon="7.09976">
        <ele>1406</ele>
        <time>2025-06-08T22:02:23.000Z</time>
      </trkpt>
      <trkpt lat="47.90136" lon="7.09987">
        <ele>1404</ele>
        <time>2025-06-08T22:02:42.000Z</time>
      </trkpt>
      <trkpt lat="47.9014" lon="7.0999">
        <ele>1404</ele>
        <time>2025-06-08T22:02:53.000Z</time>
      </trkpt>
      <trkpt lat="47.9017" lon="7.10012">
        <ele>1400</ele>
        <time>2025-06-08T22:03:26.000Z</time>
      </trkpt>
      <trkpt lat="47.90183" lon="7.10023">
        <ele>1398</ele>
        <time>2025-06-08T22:03:41.000Z</time>
      </trkpt>
      <trkpt lat="47.90199" lon="7.10043">
        <ele>1394</ele>
        <time>2025-06-08T22:04:02.000Z</time>
      </trkpt>
      <trkpt lat="47.90203" lon="7.10046">
        <ele>1394</ele>
        <time>2025-06-08T22:04:06.000Z</time>
      </trkpt>
      <trkpt lat="47.90215" lon="7.10059">
        <ele>1393</ele>
        <time>2025-06-08T22:04:20.000Z</time>
      </trkpt>
      <trkpt lat="47.90217" lon="7.10067">
        <ele>1392</ele>
        <time>2025-06-08T22:04:26.000Z</time>
      </trkpt>
      <trkpt lat="47.90211" lon="7.1007">
        <ele>1390</ele>
        <time>2025-06-08T22:04:34.000Z</time>
      </trkpt>
      <trkpt lat="47.90205" lon="7.10069">
        <ele>1390</ele>
        <time>2025-06-08T22:04:36.000Z</time>
      </trkpt>
      <trkpt lat="47.902" lon="7.10068">
        <ele>1389</ele>
        <time>2025-06-08T22:04:40.000Z</time>
      </trkpt>
      <trkpt lat="47.90196" lon="7.10067">
        <ele>1389</ele>
        <time>2025-06-08T22:04:44.000Z</time>
      </trkpt>
      <trkpt lat="47.90168" lon="7.1007">
        <ele>1386</ele>
        <time>2025-06-08T22:05:12.000Z</time>
      </trkpt>
      <trkpt lat="47.90139" lon="7.10078">
        <ele>1381</ele>
        <time>2025-06-08T22:05:38.000Z</time>
      </trkpt>
      <trkpt lat="47.90109" lon="7.10097">
        <ele>1376</ele>
        <time>2025-06-08T22:06:11.000Z</time>
      </trkpt>
      <trkpt lat="47.90104" lon="7.10099">
        <ele>1375</ele>
        <time>2025-06-08T22:06:16.000Z</time>
      </trkpt>
      <trkpt lat="47.90085" lon="7.101">
        <ele>1371</ele>
        <time>2025-06-08T22:06:36.000Z</time>
      </trkpt>
      <trkpt lat="47.90053" lon="7.10114">
        <ele>1366</ele>
        <time>2025-06-08T22:07:07.000Z</time>
      </trkpt>
      <trkpt lat="47.90033" lon="7.1013">
        <ele>1362</ele>
        <time>2025-06-08T22:07:26.000Z</time>
      </trkpt>
      <trkpt lat="47.90029" lon="7.10134">
        <ele>1362</ele>
        <time>2025-06-08T22:07:29.000Z</time>
      </trkpt>
      <trkpt lat="47.9" lon="7.10159">
        <ele>1356</ele>
        <time>2025-06-08T22:08:01.000Z</time>
      </trkpt>
      <trkpt lat="47.89982" lon="7.10168">
        <ele>1352</ele>
        <time>2025-06-08T22:08:17.000Z</time>
      </trkpt>
      <trkpt lat="47.89968" lon="7.10169">
        <ele>1351</ele>
        <time>2025-06-08T22:08:29.000Z</time>
      </trkpt>
      <trkpt lat="47.89959" lon="7.10175">
        <ele>1350</ele>
        <time>2025-06-08T22:08:36.000Z</time>
      </trkpt>
      <trkpt lat="47.8995" lon="7.10178">
        <ele>1350</ele>
        <time>2025-06-08T22:08:44.000Z</time>
      </trkpt>
      <trkpt lat="47.89939" lon="7.1018">
        <ele>1350</ele>
        <time>2025-06-08T22:08:52.000Z</time>
      </trkpt>
      <trkpt lat="47.89927" lon="7.1019">
        <ele>1349</ele>
        <time>2025-06-08T22:09:04.000Z</time>
      </trkpt>
      <trkpt lat="47.89923" lon="7.10193">
        <ele>1349</ele>
        <time>2025-06-08T22:09:08.000Z</time>
      </trkpt>
      <trkpt lat="47.89917" lon="7.10195">
        <ele>1348</ele>
        <time>2025-06-08T22:09:14.000Z</time>
      </trkpt>
      <trkpt lat="47.89912" lon="7.10194">
        <ele>1348</ele>
        <time>2025-06-08T22:09:18.000Z</time>
      </trkpt>
      <trkpt lat="47.89904" lon="7.1019">
        <ele>1347</ele>
        <time>2025-06-08T22:09:26.000Z</time>
      </trkpt>
      <trkpt lat="47.89895" lon="7.10183">
        <ele>1346</ele>
        <time>2025-06-08T22:09:51.000Z</time>
      </trkpt>
      <trkpt lat="47.89876" lon="7.10186">
        <ele>1343</ele>
        <time>2025-06-08T22:10:14.000Z</time>
      </trkpt>
      <trkpt lat="47.89867" lon="7.10181">
        <ele>1341</ele>
        <time>2025-06-08T22:10:24.000Z</time>
      </trkpt>
      <trkpt lat="47.89863" lon="7.10178">
        <ele>1340</ele>
        <time>2025-06-08T22:10:28.000Z</time>
      </trkpt>
      <trkpt lat="47.89858" lon="7.10175">
        <ele>1338</ele>
        <time>2025-06-08T22:10:38.000Z</time>
      </trkpt>
      <trkpt lat="47.89856" lon="7.10199">
        <ele>1335</ele>
        <time>2025-06-08T22:10:54.000Z</time>
      </trkpt>
      <trkpt lat="47.89853" lon="7.10203">
        <ele>1334</ele>
        <time>2025-06-08T22:10:58.000Z</time>
      </trkpt>
      <trkpt lat="47.89848" lon="7.10206">
        <ele>1333</ele>
        <time>2025-06-08T22:11:03.000Z</time>
      </trkpt>
      <trkpt lat="47.89841" lon="7.10214">
        <ele>1331</ele>
        <time>2025-06-08T22:11:11.000Z</time>
      </trkpt>
      <trkpt lat="47.89838" lon="7.10225">
        <ele>1328</ele>
        <time>2025-06-08T22:11:20.000Z</time>
      </trkpt>
      <trkpt lat="47.89834" lon="7.1023">
        <ele>1327</ele>
        <time>2025-06-08T22:11:25.000Z</time>
      </trkpt>
      <trkpt lat="47.89818" lon="7.10226">
        <ele>1322</ele>
        <time>2025-06-08T22:11:45.000Z</time>
      </trkpt>
      <trkpt lat="47.89813" lon="7.10222">
        <ele>1320</ele>
        <time>2025-06-08T22:11:54.000Z</time>
      </trkpt>
      <trkpt lat="47.89808" lon="7.1022">
        <ele>1319</ele>
        <time>2025-06-08T22:12:01.000Z</time>
      </trkpt>
      <trkpt lat="47.89785" lon="7.10207">
        <ele>1313</ele>
        <time>2025-06-08T22:12:25.000Z</time>
      </trkpt>
      <trkpt lat="47.89781" lon="7.10195">
        <ele>1311</ele>
        <time>2025-06-08T22:12:33.000Z</time>
      </trkpt>
      <trkpt lat="47.89779" lon="7.10189">
        <ele>1311</ele>
        <time>2025-06-08T22:12:37.000Z</time>
      </trkpt>
      <trkpt lat="47.89777" lon="7.10175">
        <ele>1309</ele>
        <time>2025-06-08T22:12:45.000Z</time>
      </trkpt>
      <trkpt lat="47.89771" lon="7.10175">
        <ele>1307</ele>
        <time>2025-06-08T22:12:55.000Z</time>
      </trkpt>
      <trkpt lat="47.89767" lon="7.10188">
        <ele>1307</ele>
        <time>2025-06-08T22:13:03.000Z</time>
      </trkpt>
      <trkpt lat="47.89758" lon="7.10229">
        <ele>1302</ele>
        <time>2025-06-08T22:13:32.000Z</time>
      </trkpt>
      <trkpt lat="47.89752" lon="7.10263">
        <ele>1297</ele>
        <time>2025-06-08T22:14:00.000Z</time>
      </trkpt>
      <trkpt lat="47.8974" lon="7.10309">
        <ele>1291</ele>
        <time>2025-06-08T22:14:33.000Z</time>
      </trkpt>
      <trkpt lat="47.89738" lon="7.10318">
        <ele>1290</ele>
        <time>2025-06-08T22:14:39.000Z</time>
      </trkpt>
      <trkpt lat="47.89742" lon="7.10325">
        <ele>1289</ele>
        <time>2025-06-08T22:14:47.000Z</time>
      </trkpt>
      <trkpt lat="47.89749" lon="7.10328">
        <ele>1289</ele>
        <time>2025-06-08T22:14:50.000Z</time>
      </trkpt>
      <trkpt lat="47.89764" lon="7.10333">
        <ele>1291</ele>
        <time>2025-06-08T22:14:58.000Z</time>
      </trkpt>
      <trkpt lat="47.89768" lon="7.10337">
        <ele>1291</ele>
        <time>2025-06-08T22:15:02.000Z</time>
      </trkpt>
      <trkpt lat="47.89776" lon="7.10349">
        <ele>1291</ele>
        <time>2025-06-08T22:15:14.000Z</time>
      </trkpt>
      <trkpt lat="47.89798" lon="7.10382">
        <ele>1289</ele>
        <time>2025-06-08T22:15:45.000Z</time>
      </trkpt>
      <trkpt lat="47.89807" lon="7.10394">
        <ele>1288</ele>
        <time>2025-06-08T22:15:56.000Z</time>
      </trkpt>
      <trkpt lat="47.89817" lon="7.10412">
        <ele>1286</ele>
        <time>2025-06-08T22:16:11.000Z</time>
      </trkpt>
      <trkpt lat="47.89832" lon="7.10429">
        <ele>1284</ele>
        <time>2025-06-08T22:16:29.000Z</time>
      </trkpt>
      <trkpt lat="47.89839" lon="7.10439">
        <ele>1282</ele>
        <time>2025-06-08T22:16:38.000Z</time>
      </trkpt>
      <trkpt lat="47.89862" lon="7.10467">
        <ele>1278</ele>
        <time>2025-06-08T22:17:04.000Z</time>
      </trkpt>
      <trkpt lat="47.89869" lon="7.10479">
        <ele>1276</ele>
        <time>2025-06-08T22:17:14.000Z</time>
      </trkpt>
      <trkpt lat="47.89871" lon="7.10485">
        <ele>1275</ele>
        <time>2025-06-08T22:17:19.000Z</time>
      </trkpt>
      <trkpt lat="47.89873" lon="7.10492">
        <ele>1275</ele>
        <time>2025-06-08T22:17:24.000Z</time>
      </trkpt>
      <trkpt lat="47.89873" lon="7.1051">
        <ele>1271</ele>
        <time>2025-06-08T22:17:38.000Z</time>
      </trkpt>
      <trkpt lat="47.89868" lon="7.10539">
        <ele>1267</ele>
        <time>2025-06-08T22:17:54.000Z</time>
      </trkpt>
      <trkpt lat="47.89864" lon="7.10561">
        <ele>1265</ele>
        <time>2025-06-08T22:18:06.000Z</time>
      </trkpt>
      <trkpt lat="47.89862" lon="7.10602">
        <ele>1260</ele>
        <time>2025-06-08T22:18:32.000Z</time>
      </trkpt>
      <trkpt lat="47.89853" lon="7.10633">
        <ele>1254</ele>
        <time>2025-06-08T22:18:56.000Z</time>
      </trkpt>
      <trkpt lat="47.89828" lon="7.10679">
        <ele>1248</ele>
        <time>2025-06-08T22:19:28.000Z</time>
      </trkpt>
      <trkpt lat="47.89798" lon="7.10726">
        <ele>1242</ele>
        <time>2025-06-08T22:20:02.000Z</time>
      </trkpt>
      <trkpt lat="47.89769" lon="7.10762">
        <ele>1235</ele>
        <time>2025-06-08T22:20:35.000Z</time>
      </trkpt>
      <trkpt lat="47.89737" lon="7.10796">
        <ele>1227</ele>
        <time>2025-06-08T22:21:09.000Z</time>
      </trkpt>
      <trkpt lat="47.89717" lon="7.1082">
        <ele>1224</ele>
        <time>2025-06-08T22:21:27.000Z</time>
      </trkpt>
      <trkpt lat="47.89702" lon="7.10857">
        <ele>1216</ele>
        <time>2025-06-08T22:21:55.000Z</time>
      </trkpt>
      <trkpt lat="47.89679" lon="7.1089">
        <ele>1208</ele>
        <time>2025-06-08T22:22:39.000Z</time>
      </trkpt>
      <trkpt lat="47.89674" lon="7.10898">
        <ele>1206</ele>
        <time>2025-06-08T22:22:43.000Z</time>
      </trkpt>
      <trkpt lat="47.89667" lon="7.10904">
        <ele>1206</ele>
        <time>2025-06-08T22:22:51.000Z</time>
      </trkpt>
      <trkpt lat="47.89663" lon="7.10909">
        <ele>1205</ele>
        <time>2025-06-08T22:22:55.000Z</time>
      </trkpt>
      <trkpt lat="47.89641" lon="7.10936">
        <ele>1201</ele>
        <time>2025-06-08T22:23:16.000Z</time>
      </trkpt>
      <trkpt lat="47.89637" lon="7.10938">
        <ele>1200</ele>
        <time>2025-06-08T22:23:20.000Z</time>
      </trkpt>
      <trkpt lat="47.89607" lon="7.10981">
        <ele>1195</ele>
        <time>2025-06-08T22:23:52.000Z</time>
      </trkpt>
      <trkpt lat="47.89597" lon="7.10999">
        <ele>1193</ele>
        <time>2025-06-08T22:24:04.000Z</time>
      </trkpt>
      <trkpt lat="47.89572" lon="7.11053">
        <ele>1187</ele>
        <time>2025-06-08T22:24:37.000Z</time>
      </trkpt>
      <trkpt lat="47.89552" lon="7.11092">
        <ele>1185</ele>
        <time>2025-06-08T22:25:02.000Z</time>
      </trkpt>
      <trkpt lat="47.89544" lon="7.11103">
        <ele>1184</ele>
        <time>2025-06-08T22:25:10.000Z</time>
      </trkpt>
      <trkpt lat="47.89523" lon="7.1114">
        <ele>1180</ele>
        <time>2025-06-08T22:25:41.000Z</time>
      </trkpt>
      <trkpt lat="47.89495" lon="7.11194">
        <ele>1173</ele>
        <time>2025-06-08T22:26:15.000Z</time>
      </trkpt>
      <trkpt lat="47.89476" lon="7.11247">
        <ele>1170</ele>
        <time>2025-06-08T22:26:46.000Z</time>
      </trkpt>
      <trkpt lat="47.89457" lon="7.11301">
        <ele>1166</ele>
        <time>2025-06-08T22:27:18.000Z</time>
      </trkpt>
      <trkpt lat="47.89439" lon="7.11335">
        <ele>1163</ele>
        <time>2025-06-08T22:27:42.000Z</time>
      </trkpt>
      <trkpt lat="47.89412" lon="7.11373">
        <ele>1161</ele>
        <time>2025-06-08T22:28:10.000Z</time>
      </trkpt>
      <trkpt lat="47.89408" lon="7.11377">
        <ele>1161</ele>
        <time>2025-06-08T22:28:14.000Z</time>
      </trkpt>
      <trkpt lat="47.89393" lon="7.11383">
        <ele>1161</ele>
        <time>2025-06-08T22:28:25.000Z</time>
      </trkpt>
      <trkpt lat="47.89379" lon="7.11403">
        <ele>1159</ele>
        <time>2025-06-08T22:28:40.000Z</time>
      </trkpt>
      <trkpt lat="47.89352" lon="7.11446">
        <ele>1153</ele>
        <time>2025-06-08T22:29:13.000Z</time>
      </trkpt>
      <trkpt lat="47.89344" lon="7.11455">
        <ele>1152</ele>
        <time>2025-06-08T22:29:21.000Z</time>
      </trkpt>
      <trkpt lat="47.89342" lon="7.1146">
        <ele>1150</ele>
        <time>2025-06-08T22:29:26.000Z</time>
      </trkpt>
      <trkpt lat="47.89336" lon="7.11469">
        <ele>1148</ele>
        <time>2025-06-08T22:29:35.000Z</time>
      </trkpt>
      <trkpt lat="47.89328" lon="7.11485">
        <ele>1142</ele>
        <time>2025-06-08T22:29:51.000Z</time>
      </trkpt>
      <trkpt lat="47.89324" lon="7.11497">
        <ele>1140</ele>
        <time>2025-06-08T22:29:59.000Z</time>
      </trkpt>
      <trkpt lat="47.89313" lon="7.11523">
        <ele>1134</ele>
        <time>2025-06-08T22:30:17.000Z</time>
      </trkpt>
      <trkpt lat="47.89291" lon="7.11549">
        <ele>1127</ele>
        <time>2025-06-08T22:30:48.000Z</time>
      </trkpt>
      <trkpt lat="47.89288" lon="7.11555">
        <ele>1126</ele>
        <time>2025-06-08T22:30:55.000Z</time>
      </trkpt>
      <trkpt lat="47.89283" lon="7.11564">
        <ele>1124</ele>
        <time>2025-06-08T22:31:03.000Z</time>
      </trkpt>
      <trkpt lat="47.89257" lon="7.11583">
        <ele>1120</ele>
        <time>2025-06-08T22:31:39.000Z</time>
      </trkpt>
      <trkpt lat="47.89229" lon="7.11615">
        <ele>1115</ele>
        <time>2025-06-08T22:32:11.000Z</time>
      </trkpt>
      <trkpt lat="47.89221" lon="7.11625">
        <ele>1114</ele>
        <time>2025-06-08T22:32:19.000Z</time>
      </trkpt>
      <trkpt lat="47.89214" lon="7.11635">
        <ele>1114</ele>
        <time>2025-06-08T22:32:26.000Z</time>
      </trkpt>
      <trkpt lat="47.89201" lon="7.11644">
        <ele>1113</ele>
        <time>2025-06-08T22:32:38.000Z</time>
      </trkpt>
      <trkpt lat="47.89195" lon="7.11648">
        <ele>1112</ele>
        <time>2025-06-08T22:32:47.000Z</time>
      </trkpt>
      <trkpt lat="47.89192" lon="7.11671">
        <ele>1109</ele>
        <time>2025-06-08T22:33:00.000Z</time>
      </trkpt>
      <trkpt lat="47.89188" lon="7.1169">
        <ele>1107</ele>
        <time>2025-06-08T22:33:21.000Z</time>
      </trkpt>
      <trkpt lat="47.89166" lon="7.11726">
        <ele>1098</ele>
        <time>2025-06-08T22:33:52.000Z</time>
      </trkpt>
      <trkpt lat="47.89153" lon="7.11764">
        <ele>1093</ele>
        <time>2025-06-08T22:34:16.000Z</time>
      </trkpt>
      <trkpt lat="47.8915" lon="7.11769">
        <ele>1092</ele>
        <time>2025-06-08T22:34:21.000Z</time>
      </trkpt>
      <trkpt lat="47.89147" lon="7.11782">
        <ele>1091</ele>
        <time>2025-06-08T22:34:29.000Z</time>
      </trkpt>
      <trkpt lat="47.89141" lon="7.11819">
        <ele>1087</ele>
        <time>2025-06-08T22:34:49.000Z</time>
      </trkpt>
      <trkpt lat="47.89131" lon="7.11843">
        <ele>1085</ele>
        <time>2025-06-08T22:35:05.000Z</time>
      </trkpt>
      <trkpt lat="47.89126" lon="7.11848">
        <ele>1084</ele>
        <time>2025-06-08T22:35:09.000Z</time>
      </trkpt>
      <trkpt lat="47.89121" lon="7.11847">
        <ele>1084</ele>
        <time>2025-06-08T22:35:11.000Z</time>
      </trkpt>
      <trkpt lat="47.89117" lon="7.11851">
        <ele>1084</ele>
        <time>2025-06-08T22:35:14.000Z</time>
      </trkpt>
      <trkpt lat="47.89089" lon="7.11895">
        <ele>1081</ele>
        <time>2025-06-08T22:35:45.000Z</time>
      </trkpt>
      <trkpt lat="47.89085" lon="7.11898">
        <ele>1081</ele>
        <time>2025-06-08T22:35:49.000Z</time>
      </trkpt>
      <trkpt lat="47.89082" lon="7.11903">
        <ele>1080</ele>
        <time>2025-06-08T22:35:53.000Z</time>
      </trkpt>
      <trkpt lat="47.89073" lon="7.11912">
        <ele>1079</ele>
        <time>2025-06-08T22:36:01.000Z</time>
      </trkpt>
      <trkpt lat="47.89073" lon="7.11925">
        <ele>1078</ele>
        <time>2025-06-08T22:36:07.000Z</time>
      </trkpt>
      <trkpt lat="47.89074" lon="7.11933">
        <ele>1077</ele>
        <time>2025-06-08T22:36:10.000Z</time>
      </trkpt>
      <trkpt lat="47.89046" lon="7.11956">
        <ele>1071</ele>
        <time>2025-06-08T22:36:44.000Z</time>
      </trkpt>
      <trkpt lat="47.89018" lon="7.11978">
        <ele>1068</ele>
        <time>2025-06-08T22:37:16.000Z</time>
      </trkpt>
      <trkpt lat="47.89001" lon="7.11994">
        <ele>1066</ele>
        <time>2025-06-08T22:37:33.000Z</time>
      </trkpt>
      <trkpt lat="47.89" lon="7.12">
        <ele>1065</ele>
        <time>2025-06-08T22:37:38.000Z</time>
      </trkpt>
      <trkpt lat="47.88997" lon="7.12031">
        <ele>1060</ele>
        <time>2025-06-08T22:38:06.000Z</time>
      </trkpt>
      <trkpt lat="47.88995" lon="7.12037">
        <ele>1059</ele>
        <time>2025-06-08T22:38:14.000Z</time>
      </trkpt>
      <trkpt lat="47.88991" lon="7.12041">
        <ele>1059</ele>
        <time>2025-06-08T22:38:17.000Z</time>
      </trkpt>
      <trkpt lat="47.88977" lon="7.12047">
        <ele>1057</ele>
        <time>2025-06-08T22:38:27.000Z</time>
      </trkpt>
      <trkpt lat="47.88969" lon="7.12054">
        <ele>1055</ele>
        <time>2025-06-08T22:38:41.000Z</time>
      </trkpt>
      <trkpt lat="47.88944" lon="7.1207">
        <ele>1049</ele>
        <time>2025-06-08T22:39:13.000Z</time>
      </trkpt>
      <trkpt lat="47.8894" lon="7.12073">
        <ele>1048</ele>
        <time>2025-06-08T22:39:17.000Z</time>
      </trkpt>
      <trkpt lat="47.88905" lon="7.12105">
        <ele>1046</ele>
        <time>2025-06-08T22:39:48.000Z</time>
      </trkpt>
      <trkpt lat="47.88901" lon="7.12109">
        <ele>1045</ele>
        <time>2025-06-08T22:39:52.000Z</time>
      </trkpt>
      <trkpt lat="47.88897" lon="7.12113">
        <ele>1045</ele>
        <time>2025-06-08T22:39:55.000Z</time>
      </trkpt>
      <trkpt lat="47.88867" lon="7.12151">
        <ele>1040</ele>
        <time>2025-06-08T22:40:26.000Z</time>
      </trkpt>
      <trkpt lat="47.8885" lon="7.1218">
        <ele>1036</ele>
        <time>2025-06-08T22:40:45.000Z</time>
      </trkpt>
      <trkpt lat="47.88848" lon="7.1219">
        <ele>1035</ele>
        <time>2025-06-08T22:40:53.000Z</time>
      </trkpt>
      <trkpt lat="47.88846" lon="7.12216">
        <ele>1033</ele>
        <time>2025-06-08T22:41:04.000Z</time>
      </trkpt>
      <trkpt lat="47.88841" lon="7.12229">
        <ele>1031</ele>
        <time>2025-06-08T22:41:14.000Z</time>
      </trkpt>
      <trkpt lat="47.88823" lon="7.12291">
        <ele>1024</ele>
        <time>2025-06-08T22:41:47.000Z</time>
      </trkpt>
      <trkpt lat="47.88809" lon="7.1236">
        <ele>1019</ele>
        <time>2025-06-08T22:42:19.000Z</time>
      </trkpt>
      <trkpt lat="47.88796" lon="7.12416">
        <ele>1012</ele>
        <time>2025-06-08T22:42:51.000Z</time>
      </trkpt>
      <trkpt lat="47.88783" lon="7.12453">
        <ele>1009</ele>
        <time>2025-06-08T22:43:10.000Z</time>
      </trkpt>
      <trkpt lat="47.8878" lon="7.12458">
        <ele>1008</ele>
        <time>2025-06-08T22:43:14.000Z</time>
      </trkpt>
      <trkpt lat="47.88771" lon="7.12467">
        <ele>1006</ele>
        <time>2025-06-08T22:43:26.000Z</time>
      </trkpt>
      <trkpt lat="47.88753" lon="7.12481">
        <ele>1004</ele>
        <time>2025-06-08T22:43:39.000Z</time>
      </trkpt>
      <trkpt lat="47.88752" lon="7.12487">
        <ele>1003</ele>
        <time>2025-06-08T22:43:43.000Z</time>
      </trkpt>
      <trkpt lat="47.8875" lon="7.12494">
        <ele>1001</ele>
        <time>2025-06-08T22:43:55.000Z</time>
      </trkpt>
      <trkpt lat="47.88754" lon="7.12499">
        <ele>1000</ele>
        <time>2025-06-08T22:43:58.000Z</time>
      </trkpt>
      <trkpt lat="47.88774" lon="7.12544">
        <ele>992</ele>
        <time>2025-06-08T22:44:35.000Z</time>
      </trkpt>
      <trkpt lat="47.88788" lon="7.1256">
        <ele>987</ele>
        <time>2025-06-08T22:44:55.000Z</time>
      </trkpt>
      <trkpt lat="47.88816" lon="7.12576">
        <ele>978</ele>
        <time>2025-06-08T22:45:36.000Z</time>
      </trkpt>
      <trkpt lat="47.88823" lon="7.12581">
        <ele>976</ele>
        <time>2025-06-08T22:45:45.000Z</time>
      </trkpt>
      <trkpt lat="47.88824" lon="7.12592">
        <ele>975</ele>
        <time>2025-06-08T22:45:54.000Z</time>
      </trkpt>
      <trkpt lat="47.88814" lon="7.12606">
        <ele>974</ele>
        <time>2025-06-08T22:46:08.000Z</time>
      </trkpt>
      <trkpt lat="47.88777" lon="7.12628">
        <ele>969</ele>
        <time>2025-06-08T22:46:36.000Z</time>
      </trkpt>
      <trkpt lat="47.88739" lon="7.12668">
        <ele>962</ele>
        <time>2025-06-08T22:47:09.000Z</time>
      </trkpt>
      <trkpt lat="47.88721" lon="7.12699">
        <ele>958</ele>
        <time>2025-06-08T22:47:34.000Z</time>
      </trkpt>
      <trkpt lat="47.887" lon="7.12748">
        <ele>954</ele>
        <time>2025-06-08T22:48:06.000Z</time>
      </trkpt>
      <trkpt lat="47.88683" lon="7.12795">
        <ele>953</ele>
        <time>2025-06-08T22:48:37.000Z</time>
      </trkpt>
      <trkpt lat="47.8868" lon="7.12801">
        <ele>953</ele>
        <time>2025-06-08T22:48:41.000Z</time>
      </trkpt>
      <trkpt lat="47.88675" lon="7.12806">
        <ele>953</ele>
        <time>2025-06-08T22:48:49.000Z</time>
      </trkpt>
      <trkpt lat="47.88667" lon="7.1281">
        <ele>953</ele>
        <time>2025-06-08T22:48:55.000Z</time>
      </trkpt>
      <trkpt lat="47.88659" lon="7.12817">
        <ele>954</ele>
        <time>2025-06-08T22:49:03.000Z</time>
      </trkpt>
      <trkpt lat="47.88642" lon="7.12833">
        <ele>953</ele>
        <time>2025-06-08T22:49:22.000Z</time>
      </trkpt>
      <trkpt lat="47.88625" lon="7.12846">
        <ele>954</ele>
        <time>2025-06-08T22:49:41.000Z</time>
      </trkpt>
      <trkpt lat="47.88617" lon="7.12849">
        <ele>955</ele>
        <time>2025-06-08T22:49:49.000Z</time>
      </trkpt>
      <trkpt lat="47.8858" lon="7.12853">
        <ele>957</ele>
        <time>2025-06-08T22:50:20.000Z</time>
      </trkpt>
      <trkpt lat="47.8856" lon="7.12858">
        <ele>958</ele>
        <time>2025-06-08T22:50:35.000Z</time>
      </trkpt>
      <trkpt lat="47.88539" lon="7.12865">
        <ele>957</ele>
        <time>2025-06-08T22:50:47.000Z</time>
      </trkpt>
      <trkpt lat="47.88521" lon="7.12875">
        <ele>957</ele>
        <time>2025-06-08T22:51:02.000Z</time>
      </trkpt>
      <trkpt lat="47.88512" lon="7.1288">
        <ele>956</ele>
        <time>2025-06-08T22:51:10.000Z</time>
      </trkpt>
      <trkpt lat="47.88477" lon="7.12907">
        <ele>951</ele>
        <time>2025-06-08T22:51:41.000Z</time>
      </trkpt>
      <trkpt lat="47.88444" lon="7.12945">
        <ele>946</ele>
        <time>2025-06-08T22:52:18.000Z</time>
      </trkpt>
      <trkpt lat="47.8844" lon="7.12948">
        <ele>945</ele>
        <time>2025-06-08T22:52:23.000Z</time>
      </trkpt>
      <trkpt lat="47.88435" lon="7.12952">
        <ele>945</ele>
        <time>2025-06-08T22:52:30.000Z</time>
      </trkpt>
      <trkpt lat="47.88415" lon="7.12962">
        <ele>944</ele>
        <time>2025-06-08T22:52:41.000Z</time>
      </trkpt>
      <trkpt lat="47.88402" lon="7.12966">
        <ele>942</ele>
        <time>2025-06-08T22:52:55.000Z</time>
      </trkpt>
      <trkpt lat="47.88384" lon="7.12965">
        <ele>940</ele>
        <time>2025-06-08T22:53:07.000Z</time>
      </trkpt>
      <trkpt lat="47.88369" lon="7.12955">
        <ele>937</ele>
        <time>2025-06-08T22:53:23.000Z</time>
      </trkpt>
      <trkpt lat="47.88345" lon="7.12937">
        <ele>934</ele>
        <time>2025-06-08T22:53:50.000Z</time>
      </trkpt>
      <trkpt lat="47.88297" lon="7.12918">
        <ele>929</ele>
        <time>2025-06-08T22:54:24.000Z</time>
      </trkpt>
      <trkpt lat="47.88257" lon="7.12903">
        <ele>923</ele>
        <time>2025-06-08T22:55:01.000Z</time>
      </trkpt>
      <trkpt lat="47.88225" lon="7.1289">
        <ele>919</ele>
        <time>2025-06-08T22:55:32.000Z</time>
      </trkpt>
      <trkpt lat="47.88221" lon="7.12889">
        <ele>919</ele>
        <time>2025-06-08T22:55:36.000Z</time>
      </trkpt>
      <trkpt lat="47.88204" lon="7.12879">
        <ele>917</ele>
        <time>2025-06-08T22:55:53.000Z</time>
      </trkpt>
      <trkpt lat="47.88195" lon="7.12871">
        <ele>915</ele>
        <time>2025-06-08T22:56:05.000Z</time>
      </trkpt>
      <trkpt lat="47.8818" lon="7.12875">
        <ele>914</ele>
        <time>2025-06-08T22:56:15.000Z</time>
      </trkpt>
      <trkpt lat="47.88171" lon="7.12872">
        <ele>914</ele>
        <time>2025-06-08T22:56:22.000Z</time>
      </trkpt>
      <trkpt lat="47.88165" lon="7.12861">
        <ele>913</ele>
        <time>2025-06-08T22:56:30.000Z</time>
      </trkpt>
      <trkpt lat="47.88155" lon="7.12854">
        <ele>912</ele>
        <time>2025-06-08T22:56:38.000Z</time>
      </trkpt>
      <trkpt lat="47.88142" lon="7.1285">
        <ele>908</ele>
        <time>2025-06-08T22:56:56.000Z</time>
      </trkpt>
      <trkpt lat="47.8812" lon="7.12849">
        <ele>907</ele>
        <time>2025-06-08T22:57:16.000Z</time>
      </trkpt>
      <trkpt lat="47.88113" lon="7.12855">
        <ele>906</ele>
        <time>2025-06-08T22:57:21.000Z</time>
      </trkpt>
      <trkpt lat="47.88104" lon="7.12868">
        <ele>906</ele>
        <time>2025-06-08T22:57:25.000Z</time>
      </trkpt>
      <trkpt lat="47.88089" lon="7.12888">
        <ele>902</ele>
        <time>2025-06-08T22:57:38.000Z</time>
      </trkpt>
      <trkpt lat="47.88086" lon="7.12894">
        <ele>901</ele>
        <time>2025-06-08T22:57:42.000Z</time>
      </trkpt>
      <trkpt lat="47.88082" lon="7.12911">
        <ele>900</ele>
        <time>2025-06-08T22:57:48.000Z</time>
      </trkpt>
      <trkpt lat="47.8808" lon="7.12917">
        <ele>900</ele>
        <time>2025-06-08T22:57:51.000Z</time>
      </trkpt>
      <trkpt lat="47.88076" lon="7.12921">
        <ele>900</ele>
        <time>2025-06-08T22:57:54.000Z</time>
      </trkpt>
      <trkpt lat="47.88065" lon="7.12921">
        <ele>900</ele>
        <time>2025-06-08T22:58:01.000Z</time>
      </trkpt>
      <trkpt lat="47.88042" lon="7.12917">
        <ele>903</ele>
        <time>2025-06-08T22:58:21.000Z</time>
      </trkpt>
      <trkpt lat="47.88037" lon="7.12917">
        <ele>903</ele>
        <time>2025-06-08T22:58:23.000Z</time>
      </trkpt>
      <trkpt lat="47.88033" lon="7.12913">
        <ele>902</ele>
        <time>2025-06-08T22:58:26.000Z</time>
      </trkpt>
      <trkpt lat="47.8803" lon="7.12907">
        <ele>902</ele>
        <time>2025-06-08T22:58:30.000Z</time>
      </trkpt>
      <trkpt lat="47.8801" lon="7.12882">
        <ele>898</ele>
        <time>2025-06-08T22:58:50.000Z</time>
      </trkpt>
      <trkpt lat="47.87979" lon="7.12864">
        <ele>893</ele>
        <time>2025-06-08T22:59:18.000Z</time>
      </trkpt>
      <trkpt lat="47.87945" lon="7.12833">
        <ele>889</ele>
        <time>2025-06-08T22:59:50.000Z</time>
      </trkpt>
      <trkpt lat="47.87939" lon="7.12828">
        <ele>888</ele>
        <time>2025-06-08T22:59:55.000Z</time>
      </trkpt>
      <trkpt lat="47.87914" lon="7.12803">
        <ele>880</ele>
        <time>2025-06-08T23:00:28.000Z</time>
      </trkpt>
      <trkpt lat="47.87909" lon="7.12801">
        <ele>879</ele>
        <time>2025-06-08T23:00:31.000Z</time>
      </trkpt>
      <trkpt lat="47.87898" lon="7.12804">
        <ele>877</ele>
        <time>2025-06-08T23:00:37.000Z</time>
      </trkpt>
      <trkpt lat="47.87893" lon="7.12803">
        <ele>876</ele>
        <time>2025-06-08T23:00:40.000Z</time>
      </trkpt>
      <trkpt lat="47.87885" lon="7.12796">
        <ele>874</ele>
        <time>2025-06-08T23:00:48.000Z</time>
      </trkpt>
      <trkpt lat="47.87875" lon="7.1279">
        <ele>874</ele>
        <time>2025-06-08T23:00:55.000Z</time>
      </trkpt>
      <trkpt lat="47.87866" lon="7.12786">
        <ele>873</ele>
        <time>2025-06-08T23:01:02.000Z</time>
      </trkpt>
      <trkpt lat="47.87862" lon="7.12782">
        <ele>873</ele>
        <time>2025-06-08T23:01:05.000Z</time>
      </trkpt>
      <trkpt lat="47.87856" lon="7.12781">
        <ele>873</ele>
        <time>2025-06-08T23:01:09.000Z</time>
      </trkpt>
      <trkpt lat="47.87829" lon="7.12769">
        <ele>865</ele>
        <time>2025-06-08T23:01:40.000Z</time>
      </trkpt>
      <trkpt lat="47.87824" lon="7.12766">
        <ele>864</ele>
        <time>2025-06-08T23:01:44.000Z</time>
      </trkpt>
      <trkpt lat="47.8782" lon="7.12762">
        <ele>864</ele>
        <time>2025-06-08T23:01:47.000Z</time>
      </trkpt>
      <trkpt lat="47.87814" lon="7.12757">
        <ele>864</ele>
        <time>2025-06-08T23:01:53.000Z</time>
      </trkpt>
      <trkpt lat="47.87808" lon="7.12757">
        <ele>865</ele>
        <time>2025-06-08T23:02:00.000Z</time>
      </trkpt>
      <trkpt lat="47.87794" lon="7.12754">
        <ele>863</ele>
        <time>2025-06-08T23:02:11.000Z</time>
      </trkpt>
      <trkpt lat="47.87775" lon="7.12742">
        <ele>859</ele>
        <time>2025-06-08T23:02:29.000Z</time>
      </trkpt>
      <trkpt lat="47.8777" lon="7.12744">
        <ele>859</ele>
        <time>2025-06-08T23:02:32.000Z</time>
      </trkpt>
      <trkpt lat="47.8776" lon="7.12742">
        <ele>857</ele>
        <time>2025-06-08T23:02:39.000Z</time>
      </trkpt>
      <trkpt lat="47.8775" lon="7.12736">
        <ele>856</ele>
        <time>2025-06-08T23:02:47.000Z</time>
      </trkpt>
      <trkpt lat="47.87747" lon="7.1273">
        <ele>856</ele>
        <time>2025-06-08T23:02:51.000Z</time>
      </trkpt>
      <trkpt lat="47.87742" lon="7.12727">
        <ele>855</ele>
        <time>2025-06-08T23:02:57.000Z</time>
      </trkpt>
      <trkpt lat="47.87737" lon="7.12728">
        <ele>855</ele>
        <time>2025-06-08T23:03:00.000Z</time>
      </trkpt>
      <trkpt lat="47.87726" lon="7.12731">
        <ele>854</ele>
        <time>2025-06-08T23:03:09.000Z</time>
      </trkpt>
      <trkpt lat="47.87721" lon="7.12732">
        <ele>853</ele>
        <time>2025-06-08T23:03:11.000Z</time>
      </trkpt>
      <trkpt lat="47.87712" lon="7.12737">
        <ele>854</ele>
        <time>2025-06-08T23:03:17.000Z</time>
      </trkpt>
      <trkpt lat="47.87709" lon="7.1274">
        <ele>854</ele>
        <time>2025-06-08T23:03:20.000Z</time>
      </trkpt>
      <trkpt lat="47.87704" lon="7.12748">
        <ele>856</ele>
        <time>2025-06-08T23:03:30.000Z</time>
      </trkpt>
      <trkpt lat="47.877" lon="7.12755">
        <ele>856</ele>
        <time>2025-06-08T23:03:36.000Z</time>
      </trkpt>
      <trkpt lat="47.87686" lon="7.12764">
        <ele>856</ele>
        <time>2025-06-08T23:03:48.000Z</time>
      </trkpt>
      <trkpt lat="47.87671" lon="7.12765">
        <ele>852</ele>
        <time>2025-06-08T23:04:03.000Z</time>
      </trkpt>
      <trkpt lat="47.87663" lon="7.12762">
        <ele>850</ele>
        <time>2025-06-08T23:04:10.000Z</time>
      </trkpt>
      <trkpt lat="47.87659" lon="7.12756">
        <ele>848</ele>
        <time>2025-06-08T23:04:15.000Z</time>
      </trkpt>
      <trkpt lat="47.87642" lon="7.12745">
        <ele>845</ele>
        <time>2025-06-08T23:04:33.000Z</time>
      </trkpt>
      <trkpt lat="47.87638" lon="7.12742">
        <ele>845</ele>
        <time>2025-06-08T23:04:36.000Z</time>
      </trkpt>
      <trkpt lat="47.87626" lon="7.12733">
        <ele>843</ele>
        <time>2025-06-08T23:04:48.000Z</time>
      </trkpt>
      <trkpt lat="47.87622" lon="7.12728">
        <ele>842</ele>
        <time>2025-06-08T23:04:54.000Z</time>
      </trkpt>
      <trkpt lat="47.87619" lon="7.12722">
        <ele>842</ele>
        <time>2025-06-08T23:04:58.000Z</time>
      </trkpt>
      <trkpt lat="47.87616" lon="7.12717">
        <ele>842</ele>
        <time>2025-06-08T23:05:03.000Z</time>
      </trkpt>
      <trkpt lat="47.87612" lon="7.12713">
        <ele>842</ele>
        <time>2025-06-08T23:05:08.000Z</time>
      </trkpt>
      <trkpt lat="47.87601" lon="7.12711">
        <ele>840</ele>
        <time>2025-06-08T23:05:16.000Z</time>
      </trkpt>
      <trkpt lat="47.87576" lon="7.12715">
        <ele>835</ele>
        <time>2025-06-08T23:05:37.000Z</time>
      </trkpt>
      <trkpt lat="47.87553" lon="7.12722">
        <ele>832</ele>
        <time>2025-06-08T23:05:58.000Z</time>
      </trkpt>
      <trkpt lat="47.87549" lon="7.12726">
        <ele>832</ele>
        <time>2025-06-08T23:06:02.000Z</time>
      </trkpt>
      <trkpt lat="47.87542" lon="7.12736">
        <ele>831</ele>
        <time>2025-06-08T23:06:08.000Z</time>
      </trkpt>
      <trkpt lat="47.87537" lon="7.12737">
        <ele>831</ele>
        <time>2025-06-08T23:06:12.000Z</time>
      </trkpt>
      <trkpt lat="47.87533" lon="7.12737">
        <ele>831</ele>
        <time>2025-06-08T23:06:16.000Z</time>
      </trkpt>
      <trkpt lat="47.87528" lon="7.12733">
        <ele>829</ele>
        <time>2025-06-08T23:06:35.000Z</time>
      </trkpt>
      <trkpt lat="47.87523" lon="7.12727">
        <ele>828</ele>
        <time>2025-06-08T23:06:38.000Z</time>
      </trkpt>
      <trkpt lat="47.87514" lon="7.12721">
        <ele>828</ele>
        <time>2025-06-08T23:06:43.000Z</time>
      </trkpt>
      <trkpt lat="47.87498" lon="7.12714">
        <ele>829</ele>
        <time>2025-06-08T23:06:57.000Z</time>
      </trkpt>
      <trkpt lat="47.87472" lon="7.12699">
        <ele>834</ele>
        <time>2025-06-08T23:07:29.000Z</time>
      </trkpt>
      <trkpt lat="47.87467" lon="7.12696">
        <ele>834</ele>
        <time>2025-06-08T23:07:35.000Z</time>
      </trkpt>
      <trkpt lat="47.87462" lon="7.12693">
        <ele>835</ele>
        <time>2025-06-08T23:07:40.000Z</time>
      </trkpt>
      <trkpt lat="47.87458" lon="7.12691">
        <ele>836</ele>
        <time>2025-06-08T23:07:44.000Z</time>
      </trkpt>
      <trkpt lat="47.87424" lon="7.12676">
        <ele>840</ele>
        <time>2025-06-08T23:08:12.000Z</time>
      </trkpt>
      <trkpt lat="47.87405" lon="7.1267">
        <ele>842</ele>
        <time>2025-06-08T23:08:27.000Z</time>
      </trkpt>
      <trkpt lat="47.87372" lon="7.12647">
        <ele>845</ele>
        <time>2025-06-08T23:08:58.000Z</time>
      </trkpt>
      <trkpt lat="47.87357" lon="7.12643">
        <ele>846</ele>
        <time>2025-06-08T23:09:13.000Z</time>
      </trkpt>
      <trkpt lat="47.87346" lon="7.12644">
        <ele>847</ele>
        <time>2025-06-08T23:09:21.000Z</time>
      </trkpt>
      <trkpt lat="47.87342" lon="7.12646">
        <ele>847</ele>
        <time>2025-06-08T23:09:24.000Z</time>
      </trkpt>
      <trkpt lat="47.87329" lon="7.12654">
        <ele>849</ele>
        <time>2025-06-08T23:09:38.000Z</time>
      </trkpt>
      <trkpt lat="47.87324" lon="7.1266">
        <ele>849</ele>
        <time>2025-06-08T23:09:44.000Z</time>
      </trkpt>
      <trkpt lat="47.87321" lon="7.12666">
        <ele>850</ele>
        <time>2025-06-08T23:09:48.000Z</time>
      </trkpt>
      <trkpt lat="47.87316" lon="7.12684">
        <ele>852</ele>
        <time>2025-06-08T23:10:01.000Z</time>
      </trkpt>
      <trkpt lat="47.87313" lon="7.1274">
        <ele>856</ele>
        <time>2025-06-08T23:10:32.000Z</time>
      </trkpt>
      <trkpt lat="47.87312" lon="7.12747">
        <ele>856</ele>
        <time>2025-06-08T23:10:35.000Z</time>
      </trkpt>
      <trkpt lat="47.87312" lon="7.12755">
        <ele>857</ele>
        <time>2025-06-08T23:10:40.000Z</time>
      </trkpt>
      <trkpt lat="47.87312" lon="7.12764">
        <ele>857</ele>
        <time>2025-06-08T23:10:45.000Z</time>
      </trkpt>
      <trkpt lat="47.87311" lon="7.12772">
        <ele>858</ele>
        <time>2025-06-08T23:10:49.000Z</time>
      </trkpt>
      <trkpt lat="47.87308" lon="7.12778">
        <ele>858</ele>
        <time>2025-06-08T23:10:53.000Z</time>
      </trkpt>
      <trkpt lat="47.87302" lon="7.12778">
        <ele>860</ele>
        <time>2025-06-08T23:11:00.000Z</time>
      </trkpt>
      <trkpt lat="47.87276" lon="7.12753">
        <ele>861</ele>
        <time>2025-06-08T23:11:23.000Z</time>
      </trkpt>
      <trkpt lat="47.87257" lon="7.12745">
        <ele>861</ele>
        <time>2025-06-08T23:11:38.000Z</time>
      </trkpt>
      <trkpt lat="47.87253" lon="7.1275">
        <ele>861</ele>
        <time>2025-06-08T23:11:45.000Z</time>
      </trkpt>
      <trkpt lat="47.87247" lon="7.1275">
        <ele>861</ele>
        <time>2025-06-08T23:11:51.000Z</time>
      </trkpt>
      <trkpt lat="47.87225" lon="7.12741">
        <ele>866</ele>
        <time>2025-06-08T23:12:17.000Z</time>
      </trkpt>
      <trkpt lat="47.87191" lon="7.12714">
        <ele>870</ele>
        <time>2025-06-08T23:12:50.000Z</time>
      </trkpt>
      <trkpt lat="47.87179" lon="7.12702">
        <ele>872</ele>
        <time>2025-06-08T23:13:03.000Z</time>
      </trkpt>
      <trkpt lat="47.87159" lon="7.12672">
        <ele>873</ele>
        <time>2025-06-08T23:13:27.000Z</time>
      </trkpt>
      <trkpt lat="47.8715" lon="7.12651">
        <ele>875</ele>
        <time>2025-06-08T23:13:42.000Z</time>
      </trkpt>
      <trkpt lat="47.87146" lon="7.12637">
        <ele>875</ele>
        <time>2025-06-08T23:13:51.000Z</time>
      </trkpt>
      <trkpt lat="47.87124" lon="7.12592">
        <ele>876</ele>
        <time>2025-06-08T23:14:21.000Z</time>
      </trkpt>
      <trkpt lat="47.87105" lon="7.12562">
        <ele>880</ele>
        <time>2025-06-08T23:14:50.000Z</time>
      </trkpt>
      <trkpt lat="47.87091" lon="7.1255">
        <ele>884</ele>
        <time>2025-06-08T23:15:12.000Z</time>
      </trkpt>
      <trkpt lat="47.87084" lon="7.12548">
        <ele>886</ele>
        <time>2025-06-08T23:15:19.000Z</time>
      </trkpt>
      <trkpt lat="47.8708" lon="7.12545">
        <ele>887</ele>
        <time>2025-06-08T23:15:24.000Z</time>
      </trkpt>
      <trkpt lat="47.87078" lon="7.1254">
        <ele>887</ele>
        <time>2025-06-08T23:15:28.000Z</time>
      </trkpt>
      <trkpt lat="47.87076" lon="7.12532">
        <ele>888</ele>
        <time>2025-06-08T23:15:33.000Z</time>
      </trkpt>
      <trkpt lat="47.8707" lon="7.12515">
        <ele>891</ele>
        <time>2025-06-08T23:15:44.000Z</time>
      </trkpt>
      <trkpt lat="47.87062" lon="7.12509">
        <ele>893</ele>
        <time>2025-06-08T23:15:54.000Z</time>
      </trkpt>
      <trkpt lat="47.87051" lon="7.12495">
        <ele>896</ele>
        <time>2025-06-08T23:16:10.000Z</time>
      </trkpt>
      <trkpt lat="47.87044" lon="7.12474">
        <ele>900</ele>
        <time>2025-06-08T23:16:29.000Z</time>
      </trkpt>
      <trkpt lat="47.87037" lon="7.12474">
        <ele>903</ele>
        <time>2025-06-08T23:16:44.000Z</time>
      </trkpt>
      <trkpt lat="47.87035" lon="7.12466">
        <ele>904</ele>
        <time>2025-06-08T23:16:49.000Z</time>
      </trkpt>
      <trkpt lat="47.87032" lon="7.1246">
        <ele>906</ele>
        <time>2025-06-08T23:16:59.000Z</time>
      </trkpt>
      <trkpt lat="47.87025" lon="7.12459">
        <ele>908</ele>
        <time>2025-06-08T23:17:11.000Z</time>
      </trkpt>
      <trkpt lat="47.87022" lon="7.12453">
        <ele>907</ele>
        <time>2025-06-08T23:17:14.000Z</time>
      </trkpt>
      <trkpt lat="47.8702" lon="7.12446">
        <ele>907</ele>
        <time>2025-06-08T23:17:19.000Z</time>
      </trkpt>
      <trkpt lat="47.8702" lon="7.1244">
        <ele>905</ele>
        <time>2025-06-08T23:17:24.000Z</time>
      </trkpt>
      <trkpt lat="47.87025" lon="7.12422">
        <ele>903</ele>
        <time>2025-06-08T23:17:35.000Z</time>
      </trkpt>
      <trkpt lat="47.87023" lon="7.12402">
        <ele>901</ele>
        <time>2025-06-08T23:17:46.000Z</time>
      </trkpt>
      <trkpt lat="47.87022" lon="7.12394">
        <ele>901</ele>
        <time>2025-06-08T23:17:49.000Z</time>
      </trkpt>
      <trkpt lat="47.87013" lon="7.12377">
        <ele>900</ele>
        <time>2025-06-08T23:18:02.000Z</time>
      </trkpt>
      <trkpt lat="47.86984" lon="7.12342">
        <ele>893</ele>
        <time>2025-06-08T23:18:36.000Z</time>
      </trkpt>
      <trkpt lat="47.86957" lon="7.12311">
        <ele>886</ele>
        <time>2025-06-08T23:19:08.000Z</time>
      </trkpt>
      <trkpt lat="47.86929" lon="7.12284">
        <ele>879</ele>
        <time>2025-06-08T23:19:36.000Z</time>
      </trkpt>
      <trkpt lat="47.86908" lon="7.12273">
        <ele>874</ele>
        <time>2025-06-08T23:19:56.000Z</time>
      </trkpt>
      <trkpt lat="47.8689" lon="7.1227">
        <ele>869</ele>
        <time>2025-06-08T23:20:11.000Z</time>
      </trkpt>
      <trkpt lat="47.86851" lon="7.12278">
        <ele>862</ele>
        <time>2025-06-08T23:20:44.000Z</time>
      </trkpt>
      <trkpt lat="47.86836" lon="7.1228">
        <ele>858</ele>
        <time>2025-06-08T23:21:07.000Z</time>
      </trkpt>
      <trkpt lat="47.86832" lon="7.1229">
        <ele>858</ele>
        <time>2025-06-08T23:21:25.000Z</time>
      </trkpt>
      <trkpt lat="47.86827" lon="7.12296">
        <ele>858</ele>
        <time>2025-06-08T23:21:28.000Z</time>
      </trkpt>
      <trkpt lat="47.86822" lon="7.123">
        <ele>858</ele>
        <time>2025-06-08T23:21:30.000Z</time>
      </trkpt>
      <trkpt lat="47.86813" lon="7.12322">
        <ele>858</ele>
        <time>2025-06-08T23:21:45.000Z</time>
      </trkpt>
      <trkpt lat="47.86811" lon="7.12329">
        <ele>858</ele>
        <time>2025-06-08T23:22:01.000Z</time>
      </trkpt>
      <trkpt lat="47.86804" lon="7.12332">
        <ele>860</ele>
        <time>2025-06-08T23:22:14.000Z</time>
      </trkpt>
      <trkpt lat="47.86799" lon="7.12331">
        <ele>860</ele>
        <time>2025-06-08T23:22:16.000Z</time>
      </trkpt>
      <trkpt lat="47.86795" lon="7.12329">
        <ele>861</ele>
        <time>2025-06-08T23:22:20.000Z</time>
      </trkpt>
      <trkpt lat="47.86786" lon="7.12332">
        <ele>863</ele>
        <time>2025-06-08T23:22:30.000Z</time>
      </trkpt>
      <trkpt lat="47.86774" lon="7.12333">
        <ele>867</ele>
        <time>2025-06-08T23:22:46.000Z</time>
      </trkpt>
      <trkpt lat="47.86764" lon="7.12346">
        <ele>869</ele>
        <time>2025-06-08T23:22:59.000Z</time>
      </trkpt>
      <trkpt lat="47.86759" lon="7.12348">
        <ele>870</ele>
        <time>2025-06-08T23:23:03.000Z</time>
      </trkpt>
      <trkpt lat="47.86755" lon="7.1235">
        <ele>869</ele>
        <time>2025-06-08T23:23:07.000Z</time>
      </trkpt>
      <trkpt lat="47.86744" lon="7.12355">
        <ele>869</ele>
        <time>2025-06-08T23:23:17.000Z</time>
      </trkpt>
      <trkpt lat="47.86719" lon="7.12373">
        <ele>874</ele>
        <time>2025-06-08T23:23:46.000Z</time>
      </trkpt>
      <trkpt lat="47.86715" lon="7.12376">
        <ele>874</ele>
        <time>2025-06-08T23:23:50.000Z</time>
      </trkpt>
      <trkpt lat="47.86707" lon="7.12385">
        <ele>874</ele>
        <time>2025-06-08T23:23:58.000Z</time>
      </trkpt>
      <trkpt lat="47.86697" lon="7.12394">
        <ele>875</ele>
        <time>2025-06-08T23:24:07.000Z</time>
      </trkpt>
      <trkpt lat="47.86686" lon="7.12409">
        <ele>873</ele>
        <time>2025-06-08T23:24:19.000Z</time>
      </trkpt>
      <trkpt lat="47.86682" lon="7.12412">
        <ele>873</ele>
        <time>2025-06-08T23:24:23.000Z</time>
      </trkpt>
      <trkpt lat="47.86676" lon="7.12414">
        <ele>874</ele>
        <time>2025-06-08T23:24:33.000Z</time>
      </trkpt>
      <trkpt lat="47.86672" lon="7.12418">
        <ele>875</ele>
        <time>2025-06-08T23:24:49.000Z</time>
      </trkpt>
      <trkpt lat="47.86667" lon="7.12424">
        <ele>877</ele>
        <time>2025-06-08T23:24:57.000Z</time>
      </trkpt>
      <trkpt lat="47.86649" lon="7.12423">
        <ele>883</ele>
        <time>2025-06-08T23:25:20.000Z</time>
      </trkpt>
      <trkpt lat="47.86635" lon="7.12431">
        <ele>887</ele>
        <time>2025-06-08T23:25:40.000Z</time>
      </trkpt>
      <trkpt lat="47.86609" lon="7.12441">
        <ele>890</ele>
        <time>2025-06-08T23:26:07.000Z</time>
      </trkpt>
      <trkpt lat="47.86573" lon="7.12448">
        <ele>893</ele>
        <time>2025-06-08T23:26:37.000Z</time>
      </trkpt>
      <trkpt lat="47.86554" lon="7.1245">
        <ele>895</ele>
        <time>2025-06-08T23:26:52.000Z</time>
      </trkpt>
      <trkpt lat="47.8653" lon="7.1244">
        <ele>896</ele>
        <time>2025-06-08T23:27:12.000Z</time>
      </trkpt>
      <trkpt lat="47.86526" lon="7.12436">
        <ele>897</ele>
        <time>2025-06-08T23:27:16.000Z</time>
      </trkpt>
      <trkpt lat="47.86486" lon="7.1243">
        <ele>898</ele>
        <time>2025-06-08T23:27:49.000Z</time>
      </trkpt>
      <trkpt lat="47.86456" lon="7.12427">
        <ele>901</ele>
        <time>2025-06-08T23:28:15.000Z</time>
      </trkpt>
      <trkpt lat="47.86437" lon="7.12423">
        <ele>901</ele>
        <time>2025-06-08T23:28:29.000Z</time>
      </trkpt>
      <trkpt lat="47.86433" lon="7.1242">
        <ele>901</ele>
        <time>2025-06-08T23:28:33.000Z</time>
      </trkpt>
      <trkpt lat="47.8643" lon="7.12415">
        <ele>902</ele>
        <time>2025-06-08T23:28:37.000Z</time>
      </trkpt>
      <trkpt lat="47.86428" lon="7.12409">
        <ele>902</ele>
        <time>2025-06-08T23:28:41.000Z</time>
      </trkpt>
      <trkpt lat="47.86428" lon="7.12402">
        <ele>902</ele>
        <time>2025-06-08T23:28:46.000Z</time>
      </trkpt>
      <trkpt lat="47.86418" lon="7.12392">
        <ele>902</ele>
        <time>2025-06-08T23:28:55.000Z</time>
      </trkpt>
      <trkpt lat="47.86412" lon="7.12389">
        <ele>902</ele>
        <time>2025-06-08T23:28:57.000Z</time>
      </trkpt>
      <trkpt lat="47.864" lon="7.12377">
        <ele>904</ele>
        <time>2025-06-08T23:29:10.000Z</time>
      </trkpt>
      <trkpt lat="47.86397" lon="7.12372">
        <ele>905</ele>
        <time>2025-06-08T23:29:14.000Z</time>
      </trkpt>
      <trkpt lat="47.86384" lon="7.12345">
        <ele>907</ele>
        <time>2025-06-08T23:29:34.000Z</time>
      </trkpt>
      <trkpt lat="47.86381" lon="7.1234">
        <ele>907</ele>
        <time>2025-06-08T23:29:38.000Z</time>
      </trkpt>
      <trkpt lat="47.8637" lon="7.12332">
        <ele>909</ele>
        <time>2025-06-08T23:30:10.000Z</time>
      </trkpt>
      <trkpt lat="47.86365" lon="7.12328">
        <ele>909</ele>
        <time>2025-06-08T23:30:23.000Z</time>
      </trkpt>
      <trkpt lat="47.86361" lon="7.12325">
        <ele>910</ele>
        <time>2025-06-08T23:30:26.000Z</time>
      </trkpt>
      <trkpt lat="47.8635" lon="7.12323">
        <ele>911</ele>
        <time>2025-06-08T23:30:38.000Z</time>
      </trkpt>
      <trkpt lat="47.86345" lon="7.12324">
        <ele>912</ele>
        <time>2025-06-08T23:30:43.000Z</time>
      </trkpt>
      <trkpt lat="47.8634" lon="7.12326">
        <ele>913</ele>
        <time>2025-06-08T23:30:54.000Z</time>
      </trkpt>
      <trkpt lat="47.86333" lon="7.12324">
        <ele>914</ele>
        <time>2025-06-08T23:31:31.000Z</time>
      </trkpt>
      <trkpt lat="47.86325" lon="7.12321">
        <ele>915</ele>
        <time>2025-06-08T23:31:43.000Z</time>
      </trkpt>
      <trkpt lat="47.86303" lon="7.12304">
        <ele>916</ele>
        <time>2025-06-08T23:32:03.000Z</time>
      </trkpt>
      <trkpt lat="47.86298" lon="7.12303">
        <ele>917</ele>
        <time>2025-06-08T23:32:07.000Z</time>
      </trkpt>
      <trkpt lat="47.86273" lon="7.12303">
        <ele>919</ele>
        <time>2025-06-08T23:32:28.000Z</time>
      </trkpt>
      <trkpt lat="47.86257" lon="7.12291">
        <ele>921</ele>
        <time>2025-06-08T23:32:48.000Z</time>
      </trkpt>
      <trkpt lat="47.86235" lon="7.12259">
        <ele>922</ele>
        <time>2025-06-08T23:33:20.000Z</time>
      </trkpt>
      <trkpt lat="47.86228" lon="7.12249">
        <ele>922</ele>
        <time>2025-06-08T23:33:28.000Z</time>
      </trkpt>
      <trkpt lat="47.86221" lon="7.1224">
        <ele>922</ele>
        <time>2025-06-08T23:33:36.000Z</time>
      </trkpt>
      <trkpt lat="47.86216" lon="7.12234">
        <ele>922</ele>
        <time>2025-06-08T23:33:42.000Z</time>
      </trkpt>
      <trkpt lat="47.86213" lon="7.12229">
        <ele>922</ele>
        <time>2025-06-08T23:33:47.000Z</time>
      </trkpt>
      <trkpt lat="47.86209" lon="7.12225">
        <ele>922</ele>
        <time>2025-06-08T23:33:51.000Z</time>
      </trkpt>
      <trkpt lat="47.86175" lon="7.12179">
        <ele>921</ele>
        <time>2025-06-08T23:34:26.000Z</time>
      </trkpt>
      <trkpt lat="47.86159" lon="7.12155">
        <ele>921</ele>
        <time>2025-06-08T23:34:42.000Z</time>
      </trkpt>
      <trkpt lat="47.86155" lon="7.1215">
        <ele>921</ele>
        <time>2025-06-08T23:34:45.000Z</time>
      </trkpt>
      <trkpt lat="47.86152" lon="7.12144">
        <ele>921</ele>
        <time>2025-06-08T23:34:49.000Z</time>
      </trkpt>
      <trkpt lat="47.8612" lon="7.12097">
        <ele>921</ele>
        <time>2025-06-08T23:35:20.000Z</time>
      </trkpt>
      <trkpt lat="47.8609" lon="7.12048">
        <ele>922</ele>
        <time>2025-06-08T23:35:50.000Z</time>
      </trkpt>
      <trkpt lat="47.86085" lon="7.12036">
        <ele>922</ele>
        <time>2025-06-08T23:35:57.000Z</time>
      </trkpt>
      <trkpt lat="47.86084" lon="7.12028">
        <ele>922</ele>
        <time>2025-06-08T23:36:01.000Z</time>
      </trkpt>
      <trkpt lat="47.86084" lon="7.11994">
        <ele>921</ele>
        <time>2025-06-08T23:36:17.000Z</time>
      </trkpt>
      <trkpt lat="47.86083" lon="7.11987">
        <ele>921</ele>
        <time>2025-06-08T23:36:20.000Z</time>
      </trkpt>
      <trkpt lat="47.86081" lon="7.11979">
        <ele>921</ele>
        <time>2025-06-08T23:36:25.000Z</time>
      </trkpt>
      <trkpt lat="47.86074" lon="7.11951">
        <ele>920</ele>
        <time>2025-06-08T23:36:40.000Z</time>
      </trkpt>
      <trkpt lat="47.86075" lon="7.11916">
        <ele>919</ele>
        <time>2025-06-08T23:37:10.000Z</time>
      </trkpt>
      <trkpt lat="47.86073" lon="7.11897">
        <ele>918</ele>
        <time>2025-06-08T23:37:19.000Z</time>
      </trkpt>
      <trkpt lat="47.8607" lon="7.1189">
        <ele>918</ele>
        <time>2025-06-08T23:37:22.000Z</time>
      </trkpt>
      <trkpt lat="47.86061" lon="7.11882">
        <ele>917</ele>
        <time>2025-06-08T23:37:27.000Z</time>
      </trkpt>
      <trkpt lat="47.86055" lon="7.11881">
        <ele>917</ele>
        <time>2025-06-08T23:37:32.000Z</time>
      </trkpt>
      <trkpt lat="47.86016" lon="7.11893">
        <ele>912</ele>
        <time>2025-06-08T23:38:01.000Z</time>
      </trkpt>
      <trkpt lat="47.86011" lon="7.11898">
        <ele>912</ele>
        <time>2025-06-08T23:38:05.000Z</time>
      </trkpt>
      <trkpt lat="47.86002" lon="7.11905">
        <ele>912</ele>
        <time>2025-06-08T23:38:12.000Z</time>
      </trkpt>
      <trkpt lat="47.85994" lon="7.11921">
        <ele>912</ele>
        <time>2025-06-08T23:38:25.000Z</time>
      </trkpt>
      <trkpt lat="47.85992" lon="7.1193">
        <ele>913</ele>
        <time>2025-06-08T23:38:34.000Z</time>
      </trkpt>
      <trkpt lat="47.85987" lon="7.11995">
        <ele>915</ele>
        <time>2025-06-08T23:39:07.000Z</time>
      </trkpt>
      <trkpt lat="47.85984" lon="7.12009">
        <ele>916</ele>
        <time>2025-06-08T23:39:15.000Z</time>
      </trkpt>
      <trkpt lat="47.85968" lon="7.12059">
        <ele>919</ele>
        <time>2025-06-08T23:39:47.000Z</time>
      </trkpt>
      <trkpt lat="47.85957" lon="7.12108">
        <ele>924</ele>
        <time>2025-06-08T23:40:21.000Z</time>
      </trkpt>
      <trkpt lat="47.85953" lon="7.12131">
        <ele>926</ele>
        <time>2025-06-08T23:40:35.000Z</time>
      </trkpt>
      <trkpt lat="47.85954" lon="7.12163">
        <ele>928</ele>
        <time>2025-06-08T23:40:53.000Z</time>
      </trkpt>
      <trkpt lat="47.85953" lon="7.1217">
        <ele>929</ele>
        <time>2025-06-08T23:41:01.000Z</time>
      </trkpt>
      <trkpt lat="47.8595" lon="7.12177">
        <ele>930</ele>
        <time>2025-06-08T23:41:04.000Z</time>
      </trkpt>
      <trkpt lat="47.85946" lon="7.12191">
        <ele>931</ele>
        <time>2025-06-08T23:41:15.000Z</time>
      </trkpt>
      <trkpt lat="47.85948" lon="7.12199">
        <ele>932</ele>
        <time>2025-06-08T23:41:20.000Z</time>
      </trkpt>
      <trkpt lat="47.85947" lon="7.12206">
        <ele>932</ele>
        <time>2025-06-08T23:41:25.000Z</time>
      </trkpt>
      <trkpt lat="47.85942" lon="7.12214">
        <ele>932</ele>
        <time>2025-06-08T23:41:30.000Z</time>
      </trkpt>
      <trkpt lat="47.85935" lon="7.12226">
        <ele>932</ele>
        <time>2025-06-08T23:41:37.000Z</time>
      </trkpt>
      <trkpt lat="47.85933" lon="7.12233">
        <ele>931</ele>
        <time>2025-06-08T23:41:41.000Z</time>
      </trkpt>
      <trkpt lat="47.85928" lon="7.1227">
        <ele>930</ele>
        <time>2025-06-08T23:42:02.000Z</time>
      </trkpt>
      <trkpt lat="47.85928" lon="7.12278">
        <ele>930</ele>
        <time>2025-06-08T23:42:06.000Z</time>
      </trkpt>
      <trkpt lat="47.85926" lon="7.12285">
        <ele>930</ele>
        <time>2025-06-08T23:42:10.000Z</time>
      </trkpt>
      <trkpt lat="47.85923" lon="7.12291">
        <ele>930</ele>
        <time>2025-06-08T23:42:13.000Z</time>
      </trkpt>
      <trkpt lat="47.85913" lon="7.12297">
        <ele>930</ele>
        <time>2025-06-08T23:42:18.000Z</time>
      </trkpt>
      <trkpt lat="47.85911" lon="7.12304">
        <ele>930</ele>
        <time>2025-06-08T23:42:25.000Z</time>
      </trkpt>
      <trkpt lat="47.8591" lon="7.12318">
        <ele>929</ele>
        <time>2025-06-08T23:42:33.000Z</time>
      </trkpt>
      <trkpt lat="47.85911" lon="7.12326">
        <ele>929</ele>
        <time>2025-06-08T23:42:38.000Z</time>
      </trkpt>
      <trkpt lat="47.85911" lon="7.12333">
        <ele>930</ele>
        <time>2025-06-08T23:42:41.000Z</time>
      </trkpt>
      <trkpt lat="47.85912" lon="7.12348">
        <ele>930</ele>
        <time>2025-06-08T23:42:49.000Z</time>
      </trkpt>
      <trkpt lat="47.85909" lon="7.12355">
        <ele>930</ele>
        <time>2025-06-08T23:42:52.000Z</time>
      </trkpt>
      <trkpt lat="47.85907" lon="7.12368">
        <ele>930</ele>
        <time>2025-06-08T23:42:58.000Z</time>
      </trkpt>
      <trkpt lat="47.8591" lon="7.12376">
        <ele>930</ele>
        <time>2025-06-08T23:43:01.000Z</time>
      </trkpt>
      <trkpt lat="47.85908" lon="7.1239">
        <ele>930</ele>
        <time>2025-06-08T23:43:07.000Z</time>
      </trkpt>
      <trkpt lat="47.85909" lon="7.12397">
        <ele>929</ele>
        <time>2025-06-08T23:43:11.000Z</time>
      </trkpt>
      <trkpt lat="47.85901" lon="7.1242">
        <ele>929</ele>
        <time>2025-06-08T23:43:24.000Z</time>
      </trkpt>
      <trkpt lat="47.85898" lon="7.12426">
        <ele>929</ele>
        <time>2025-06-08T23:43:28.000Z</time>
      </trkpt>
      <trkpt lat="47.85899" lon="7.12432">
        <ele>929</ele>
        <time>2025-06-08T23:43:31.000Z</time>
      </trkpt>
      <trkpt lat="47.85897" lon="7.12441">
        <ele>929</ele>
        <time>2025-06-08T23:43:35.000Z</time>
      </trkpt>
      <trkpt lat="47.85893" lon="7.12453">
        <ele>929</ele>
        <time>2025-06-08T23:43:40.000Z</time>
      </trkpt>
      <trkpt lat="47.85893" lon="7.12459">
        <ele>929</ele>
        <time>2025-06-08T23:43:43.000Z</time>
      </trkpt>
      <trkpt lat="47.85891" lon="7.12465">
        <ele>929</ele>
        <time>2025-06-08T23:43:46.000Z</time>
      </trkpt>
      <trkpt lat="47.85889" lon="7.12474">
        <ele>929</ele>
        <time>2025-06-08T23:43:52.000Z</time>
      </trkpt>
      <trkpt lat="47.85885" lon="7.12478">
        <ele>929</ele>
        <time>2025-06-08T23:43:56.000Z</time>
      </trkpt>
      <trkpt lat="47.85882" lon="7.12485">
        <ele>929</ele>
        <time>2025-06-08T23:44:01.000Z</time>
      </trkpt>
      <trkpt lat="47.85879" lon="7.12491">
        <ele>929</ele>
        <time>2025-06-08T23:44:05.000Z</time>
      </trkpt>
      <trkpt lat="47.85876" lon="7.12498">
        <ele>929</ele>
        <time>2025-06-08T23:44:08.000Z</time>
      </trkpt>
      <trkpt lat="47.85874" lon="7.12506">
        <ele>929</ele>
        <time>2025-06-08T23:44:12.000Z</time>
      </trkpt>
      <trkpt lat="47.85873" lon="7.12515">
        <ele>929</ele>
        <time>2025-06-08T23:44:17.000Z</time>
      </trkpt>
      <trkpt lat="47.85871" lon="7.12522">
        <ele>928</ele>
        <time>2025-06-08T23:44:22.000Z</time>
      </trkpt>
      <trkpt lat="47.8587" lon="7.12529">
        <ele>928</ele>
        <time>2025-06-08T23:44:25.000Z</time>
      </trkpt>
      <trkpt lat="47.85855" lon="7.12546">
        <ele>928</ele>
        <time>2025-06-08T23:44:35.000Z</time>
      </trkpt>
      <trkpt lat="47.85854" lon="7.12561">
        <ele>928</ele>
        <time>2025-06-08T23:44:42.000Z</time>
      </trkpt>
      <trkpt lat="47.85847" lon="7.12566">
        <ele>928</ele>
        <time>2025-06-08T23:44:49.000Z</time>
      </trkpt>
      <trkpt lat="47.85828" lon="7.12572">
        <ele>929</ele>
        <time>2025-06-08T23:45:02.000Z</time>
      </trkpt>
      <trkpt lat="47.85824" lon="7.12571">
        <ele>929</ele>
        <time>2025-06-08T23:45:05.000Z</time>
      </trkpt>
      <trkpt lat="47.85819" lon="7.12572">
        <ele>929</ele>
        <time>2025-06-08T23:45:08.000Z</time>
      </trkpt>
      <trkpt lat="47.8579" lon="7.12569">
        <ele>930</ele>
        <time>2025-06-08T23:45:30.000Z</time>
      </trkpt>
      <trkpt lat="47.85783" lon="7.12562">
        <ele>929</ele>
        <time>2025-06-08T23:45:40.000Z</time>
      </trkpt>
      <trkpt lat="47.85779" lon="7.12562">
        <ele>929</ele>
        <time>2025-06-08T23:45:43.000Z</time>
      </trkpt>
      <trkpt lat="47.85776" lon="7.12568">
        <ele>929</ele>
        <time>2025-06-08T23:45:56.000Z</time>
      </trkpt>
      <trkpt lat="47.85763" lon="7.1256">
        <ele>929</ele>
        <time>2025-06-08T23:46:06.000Z</time>
      </trkpt>
      <trkpt lat="47.85749" lon="7.12539">
        <ele>929</ele>
        <time>2025-06-08T23:46:24.000Z</time>
      </trkpt>
      <trkpt lat="47.85744" lon="7.1254">
        <ele>929</ele>
        <time>2025-06-08T23:46:27.000Z</time>
      </trkpt>
      <trkpt lat="47.85739" lon="7.12538">
        <ele>929</ele>
        <time>2025-06-08T23:46:32.000Z</time>
      </trkpt>
      <trkpt lat="47.85727" lon="7.12537">
        <ele>929</ele>
        <time>2025-06-08T23:46:40.000Z</time>
      </trkpt>
      <trkpt lat="47.85712" lon="7.1254">
        <ele>930</ele>
        <time>2025-06-08T23:46:52.000Z</time>
      </trkpt>
      <trkpt lat="47.85679" lon="7.12526">
        <ele>930</ele>
        <time>2025-06-08T23:47:18.000Z</time>
      </trkpt>
      <trkpt lat="47.85655" lon="7.12499">
        <ele>929</ele>
        <time>2025-06-08T23:47:43.000Z</time>
      </trkpt>
      <trkpt lat="47.85649" lon="7.12498">
        <ele>929</ele>
        <time>2025-06-08T23:47:47.000Z</time>
      </trkpt>
      <trkpt lat="47.85646" lon="7.12495">
        <ele>929</ele>
        <time>2025-06-08T23:47:50.000Z</time>
      </trkpt>
      <trkpt lat="47.85639" lon="7.12495">
        <ele>930</ele>
        <time>2025-06-08T23:47:56.000Z</time>
      </trkpt>
      <trkpt lat="47.85629" lon="7.12493">
        <ele>931</ele>
        <time>2025-06-08T23:48:06.000Z</time>
      </trkpt>
      <trkpt lat="47.85625" lon="7.12491">
        <ele>931</ele>
        <time>2025-06-08T23:48:09.000Z</time>
      </trkpt>
      <trkpt lat="47.85612" lon="7.12477">
        <ele>929</ele>
        <time>2025-06-08T23:48:22.000Z</time>
      </trkpt>
      <trkpt lat="47.85606" lon="7.12473">
        <ele>929</ele>
        <time>2025-06-08T23:48:28.000Z</time>
      </trkpt>
      <trkpt lat="47.85602" lon="7.1247">
        <ele>929</ele>
        <time>2025-06-08T23:48:32.000Z</time>
      </trkpt>
      <trkpt lat="47.85596" lon="7.12462">
        <ele>930</ele>
        <time>2025-06-08T23:48:40.000Z</time>
      </trkpt>
      <trkpt lat="47.85594" lon="7.12456">
        <ele>930</ele>
        <time>2025-06-08T23:48:43.000Z</time>
      </trkpt>
      <trkpt lat="47.85588" lon="7.12443">
        <ele>930</ele>
        <time>2025-06-08T23:48:47.000Z</time>
      </trkpt>
      <trkpt lat="47.85591" lon="7.12432">
        <ele>930</ele>
        <time>2025-06-08T23:48:49.000Z</time>
      </trkpt>
      <trkpt lat="47.85587" lon="7.12427">
        <ele>929</ele>
        <time>2025-06-08T23:48:57.000Z</time>
      </trkpt>
      <trkpt lat="47.8558" lon="7.12419">
        <ele>930</ele>
        <time>2025-06-08T23:49:05.000Z</time>
      </trkpt>
      <trkpt lat="47.85556" lon="7.1239">
        <ele>929</ele>
        <time>2025-06-08T23:49:31.000Z</time>
      </trkpt>
      <trkpt lat="47.85553" lon="7.12386">
        <ele>929</ele>
        <time>2025-06-08T23:49:34.000Z</time>
      </trkpt>
      <trkpt lat="47.85545" lon="7.12376">
        <ele>928</ele>
        <time>2025-06-08T23:49:40.000Z</time>
      </trkpt>
      <trkpt lat="47.85532" lon="7.1236">
        <ele>929</ele>
        <time>2025-06-08T23:49:57.000Z</time>
      </trkpt>
      <trkpt lat="47.85526" lon="7.12353">
        <ele>929</ele>
        <time>2025-06-08T23:50:03.000Z</time>
      </trkpt>
      <trkpt lat="47.85518" lon="7.12344">
        <ele>929</ele>
        <time>2025-06-08T23:50:11.000Z</time>
      </trkpt>
      <trkpt lat="47.85498" lon="7.12323">
        <ele>929</ele>
        <time>2025-06-08T23:50:26.000Z</time>
      </trkpt>
      <trkpt lat="47.85494" lon="7.12317">
        <ele>929</ele>
        <time>2025-06-08T23:50:34.000Z</time>
      </trkpt>
      <trkpt lat="47.85489" lon="7.12313">
        <ele>928</ele>
        <time>2025-06-08T23:50:38.000Z</time>
      </trkpt>
      <trkpt lat="47.85457" lon="7.12283">
        <ele>927</ele>
        <time>2025-06-08T23:51:17.000Z</time>
      </trkpt>
      <trkpt lat="47.85451" lon="7.12277">
        <ele>927</ele>
        <time>2025-06-08T23:51:24.000Z</time>
      </trkpt>
      <trkpt lat="47.85436" lon="7.12261">
        <ele>927</ele>
        <time>2025-06-08T23:51:37.000Z</time>
      </trkpt>
      <trkpt lat="47.85429" lon="7.12252">
        <ele>926</ele>
        <time>2025-06-08T23:51:45.000Z</time>
      </trkpt>
      <trkpt lat="47.85425" lon="7.12248">
        <ele>926</ele>
        <time>2025-06-08T23:51:49.000Z</time>
      </trkpt>
      <trkpt lat="47.85422" lon="7.12244">
        <ele>926</ele>
        <time>2025-06-08T23:51:53.000Z</time>
      </trkpt>
      <trkpt lat="47.85399" lon="7.12215">
        <ele>926</ele>
        <time>2025-06-08T23:52:19.000Z</time>
      </trkpt>
      <trkpt lat="47.85371" lon="7.1218">
        <ele>926</ele>
        <time>2025-06-08T23:52:50.000Z</time>
      </trkpt>
      <trkpt lat="47.85358" lon="7.12162">
        <ele>926</ele>
        <time>2025-06-08T23:53:07.000Z</time>
      </trkpt>
      <trkpt lat="47.85352" lon="7.12153">
        <ele>926</ele>
        <time>2025-06-08T23:53:14.000Z</time>
      </trkpt>
      <trkpt lat="47.85346" lon="7.12145">
        <ele>925</ele>
        <time>2025-06-08T23:53:23.000Z</time>
      </trkpt>
      <trkpt lat="47.85334" lon="7.12125">
        <ele>925</ele>
        <time>2025-06-08T23:53:38.000Z</time>
      </trkpt>
      <trkpt lat="47.85325" lon="7.12113">
        <ele>923</ele>
        <time>2025-06-08T23:53:48.000Z</time>
      </trkpt>
      <trkpt lat="47.85315" lon="7.12096">
        <ele>925</ele>
        <time>2025-06-08T23:54:02.000Z</time>
      </trkpt>
      <trkpt lat="47.85311" lon="7.12089">
        <ele>925</ele>
        <time>2025-06-08T23:54:06.000Z</time>
      </trkpt>
      <trkpt lat="47.85309" lon="7.12084">
        <ele>925</ele>
        <time>2025-06-08T23:54:10.000Z</time>
      </trkpt>
      <trkpt lat="47.85305" lon="7.12076">
        <ele>924</ele>
        <time>2025-06-08T23:54:18.000Z</time>
      </trkpt>
      <trkpt lat="47.85301" lon="7.12067">
        <ele>925</ele>
        <time>2025-06-08T23:54:24.000Z</time>
      </trkpt>
      <trkpt lat="47.85278" lon="7.12021">
        <ele>924</ele>
        <time>2025-06-08T23:54:56.000Z</time>
      </trkpt>
      <trkpt lat="47.85262" lon="7.11993">
        <ele>925</ele>
        <time>2025-06-08T23:55:15.000Z</time>
      </trkpt>
      <trkpt lat="47.85255" lon="7.11984">
        <ele>923</ele>
        <time>2025-06-08T23:55:23.000Z</time>
      </trkpt>
      <trkpt lat="47.8525" lon="7.11979">
        <ele>923</ele>
        <time>2025-06-08T23:55:27.000Z</time>
      </trkpt>
      <trkpt lat="47.85245" lon="7.11975">
        <ele>924</ele>
        <time>2025-06-08T23:55:31.000Z</time>
      </trkpt>
      <trkpt lat="47.85231" lon="7.11966">
        <ele>923</ele>
        <time>2025-06-08T23:55:43.000Z</time>
      </trkpt>
      <trkpt lat="47.85222" lon="7.11963">
        <ele>924</ele>
        <time>2025-06-08T23:55:50.000Z</time>
      </trkpt>
      <trkpt lat="47.85212" lon="7.11961">
        <ele>923</ele>
        <time>2025-06-08T23:56:00.000Z</time>
      </trkpt>
      <trkpt lat="47.852" lon="7.11958">
        <ele>924</ele>
        <time>2025-06-08T23:56:12.000Z</time>
      </trkpt>
      <trkpt lat="47.85162" lon="7.11944">
        <ele>922</ele>
        <time>2025-06-08T23:56:43.000Z</time>
      </trkpt>
      <trkpt lat="47.8512" lon="7.11927">
        <ele>923</ele>
        <time>2025-06-08T23:57:17.000Z</time>
      </trkpt>
      <trkpt lat="47.85116" lon="7.11925">
        <ele>923</ele>
        <time>2025-06-08T23:57:21.000Z</time>
      </trkpt>
      <trkpt lat="47.85108" lon="7.11923">
        <ele>922</ele>
        <time>2025-06-08T23:57:29.000Z</time>
      </trkpt>
      <trkpt lat="47.851" lon="7.1192">
        <ele>922</ele>
        <time>2025-06-08T23:57:38.000Z</time>
      </trkpt>
      <trkpt lat="47.85095" lon="7.11918">
        <ele>922</ele>
        <time>2025-06-08T23:57:42.000Z</time>
      </trkpt>
      <trkpt lat="47.85077" lon="7.11912">
        <ele>922</ele>
        <time>2025-06-08T23:58:00.000Z</time>
      </trkpt>
      <trkpt lat="47.85073" lon="7.11911">
        <ele>923</ele>
        <time>2025-06-08T23:58:03.000Z</time>
      </trkpt>
      <trkpt lat="47.85061" lon="7.11906">
        <ele>922</ele>
        <time>2025-06-08T23:58:12.000Z</time>
      </trkpt>
      <trkpt lat="47.85057" lon="7.11901">
        <ele>922</ele>
        <time>2025-06-08T23:58:16.000Z</time>
      </trkpt>
      <trkpt lat="47.85051" lon="7.11889">
        <ele>922</ele>
        <time>2025-06-08T23:58:25.000Z</time>
      </trkpt>
      <trkpt lat="47.85047" lon="7.11885">
        <ele>922</ele>
        <time>2025-06-08T23:58:28.000Z</time>
      </trkpt>
      <trkpt lat="47.85038" lon="7.11884">
        <ele>923</ele>
        <time>2025-06-08T23:58:37.000Z</time>
      </trkpt>
      <trkpt lat="47.85014" lon="7.11896">
        <ele>919</ele>
        <time>2025-06-08T23:59:02.000Z</time>
      </trkpt>
      <trkpt lat="47.85009" lon="7.11897">
        <ele>919</ele>
        <time>2025-06-08T23:59:05.000Z</time>
      </trkpt>
      <trkpt lat="47.85007" lon="7.11904">
        <ele>919</ele>
        <time>2025-06-08T23:59:08.000Z</time>
      </trkpt>
      <trkpt lat="47.84997" lon="7.11907">
        <ele>920</ele>
        <time>2025-06-08T23:59:15.000Z</time>
      </trkpt>
      <trkpt lat="47.84977" lon="7.11909">
        <ele>921</ele>
        <time>2025-06-08T23:59:30.000Z</time>
      </trkpt>
      <trkpt lat="47.84973" lon="7.11909">
        <ele>921</ele>
        <time>2025-06-08T23:59:32.000Z</time>
      </trkpt>
      <trkpt lat="47.84966" lon="7.11904">
        <ele>922</ele>
        <time>2025-06-08T23:59:40.000Z</time>
      </trkpt>
      <trkpt lat="47.84958" lon="7.11894">
        <ele>924</ele>
        <time>2025-06-08T23:59:50.000Z</time>
      </trkpt>
      <trkpt lat="47.84952" lon="7.11883">
        <ele>927</ele>
        <time>2025-06-09T00:00:02.000Z</time>
      </trkpt>
      <trkpt lat="47.84949" lon="7.11874">
        <ele>927</ele>
        <time>2025-06-09T00:00:09.000Z</time>
      </trkpt>
      <trkpt lat="47.84947" lon="7.11867">
        <ele>926</ele>
        <time>2025-06-09T00:00:14.000Z</time>
      </trkpt>
      <trkpt lat="47.84943" lon="7.11863">
        <ele>925</ele>
        <time>2025-06-09T00:00:19.000Z</time>
      </trkpt>
      <trkpt lat="47.84939" lon="7.11861">
        <ele>925</ele>
        <time>2025-06-09T00:00:22.000Z</time>
      </trkpt>
      <trkpt lat="47.84923" lon="7.11844">
        <ele>922</ele>
        <time>2025-06-09T00:00:39.000Z</time>
      </trkpt>
      <trkpt lat="47.84915" lon="7.11832">
        <ele>921</ele>
        <time>2025-06-09T00:00:49.000Z</time>
      </trkpt>
      <trkpt lat="47.84909" lon="7.11815">
        <ele>919</ele>
        <time>2025-06-09T00:01:01.000Z</time>
      </trkpt>
      <trkpt lat="47.84906" lon="7.11809">
        <ele>918</ele>
        <time>2025-06-09T00:01:05.000Z</time>
      </trkpt>
      <trkpt lat="47.84902" lon="7.11795">
        <ele>917</ele>
        <time>2025-06-09T00:01:13.000Z</time>
      </trkpt>
      <trkpt lat="47.849" lon="7.11789">
        <ele>916</ele>
        <time>2025-06-09T00:01:17.000Z</time>
      </trkpt>
      <trkpt lat="47.84895" lon="7.11785">
        <ele>916</ele>
        <time>2025-06-09T00:01:21.000Z</time>
      </trkpt>
      <trkpt lat="47.84892" lon="7.11781">
        <ele>915</ele>
        <time>2025-06-09T00:01:24.000Z</time>
      </trkpt>
      <trkpt lat="47.84888" lon="7.11779">
        <ele>915</ele>
        <time>2025-06-09T00:01:27.000Z</time>
      </trkpt>
      <trkpt lat="47.84875" lon="7.11779">
        <ele>912</ele>
        <time>2025-06-09T00:01:41.000Z</time>
      </trkpt>
      <trkpt lat="47.8487" lon="7.11777">
        <ele>911</ele>
        <time>2025-06-09T00:01:45.000Z</time>
      </trkpt>
      <trkpt lat="47.84866" lon="7.1177">
        <ele>911</ele>
        <time>2025-06-09T00:01:50.000Z</time>
      </trkpt>
      <trkpt lat="47.84862" lon="7.11768">
        <ele>911</ele>
        <time>2025-06-09T00:02:03.000Z</time>
      </trkpt>
      <trkpt lat="47.84864" lon="7.1176">
        <ele>911</ele>
        <time>2025-06-09T00:02:08.000Z</time>
      </trkpt>
      <trkpt lat="47.84868" lon="7.1175">
        <ele>911</ele>
        <time>2025-06-09T00:02:10.000Z</time>
      </trkpt>
      <trkpt lat="47.84864" lon="7.11747">
        <ele>910</ele>
        <time>2025-06-09T00:02:20.000Z</time>
      </trkpt>
      <trkpt lat="47.84868" lon="7.1174">
        <ele>910</ele>
        <time>2025-06-09T00:02:23.000Z</time>
      </trkpt>
      <trkpt lat="47.84866" lon="7.11733">
        <ele>910</ele>
        <time>2025-06-09T00:02:28.000Z</time>
      </trkpt>
      <trkpt lat="47.84867" lon="7.11725">
        <ele>910</ele>
        <time>2025-06-09T00:02:32.000Z</time>
      </trkpt>
      <trkpt lat="47.84863" lon="7.11718">
        <ele>910</ele>
        <time>2025-06-09T00:02:40.000Z</time>
      </trkpt>
      <trkpt lat="47.84861" lon="7.11704">
        <ele>909</ele>
        <time>2025-06-09T00:02:47.000Z</time>
      </trkpt>
      <trkpt lat="47.84861" lon="7.11696">
        <ele>909</ele>
        <time>2025-06-09T00:02:51.000Z</time>
      </trkpt>
      <trkpt lat="47.84862" lon="7.1169">
        <ele>909</ele>
        <time>2025-06-09T00:02:55.000Z</time>
      </trkpt>
      <trkpt lat="47.84859" lon="7.11684">
        <ele>909</ele>
        <time>2025-06-09T00:02:58.000Z</time>
      </trkpt>
      <trkpt lat="47.84855" lon="7.11662">
        <ele>909</ele>
        <time>2025-06-09T00:03:11.000Z</time>
      </trkpt>
      <trkpt lat="47.84854" lon="7.11649">
        <ele>909</ele>
        <time>2025-06-09T00:03:19.000Z</time>
      </trkpt>
      <trkpt lat="47.84848" lon="7.11632">
        <ele>908</ele>
        <time>2025-06-09T00:03:31.000Z</time>
      </trkpt>
      <trkpt lat="47.84845" lon="7.11581">
        <ele>907</ele>
        <time>2025-06-09T00:04:01.000Z</time>
      </trkpt>
      <trkpt lat="47.84845" lon="7.11574">
        <ele>907</ele>
        <time>2025-06-09T00:04:03.000Z</time>
      </trkpt>
      <trkpt lat="47.8485" lon="7.11547">
        <ele>907</ele>
        <time>2025-06-09T00:04:18.000Z</time>
      </trkpt>
      <trkpt lat="47.84853" lon="7.1154">
        <ele>906</ele>
        <time>2025-06-09T00:04:22.000Z</time>
      </trkpt>
      <trkpt lat="47.84854" lon="7.11534">
        <ele>906</ele>
        <time>2025-06-09T00:04:25.000Z</time>
      </trkpt>
      <trkpt lat="47.84854" lon="7.11525">
        <ele>906</ele>
        <time>2025-06-09T00:04:32.000Z</time>
      </trkpt>
      <trkpt lat="47.84851" lon="7.11512">
        <ele>905</ele>
        <time>2025-06-09T00:04:40.000Z</time>
      </trkpt>
      <trkpt lat="47.84847" lon="7.11506">
        <ele>905</ele>
        <time>2025-06-09T00:04:45.000Z</time>
      </trkpt>
      <trkpt lat="47.84841" lon="7.11503">
        <ele>904</ele>
        <time>2025-06-09T00:04:48.000Z</time>
      </trkpt>
      <trkpt lat="47.84836" lon="7.11504">
        <ele>904</ele>
        <time>2025-06-09T00:04:52.000Z</time>
      </trkpt>
      <trkpt lat="47.84831" lon="7.11506">
        <ele>903</ele>
        <time>2025-06-09T00:04:55.000Z</time>
      </trkpt>
      <trkpt lat="47.84819" lon="7.11518">
        <ele>902</ele>
        <time>2025-06-09T00:05:04.000Z</time>
      </trkpt>
      <trkpt lat="47.84815" lon="7.11523">
        <ele>901</ele>
        <time>2025-06-09T00:05:08.000Z</time>
      </trkpt>
      <trkpt lat="47.84811" lon="7.11528">
        <ele>901</ele>
        <time>2025-06-09T00:05:12.000Z</time>
      </trkpt>
      <trkpt lat="47.84807" lon="7.11532">
        <ele>901</ele>
        <time>2025-06-09T00:05:17.000Z</time>
      </trkpt>
      <trkpt lat="47.84801" lon="7.11543">
        <ele>899</ele>
        <time>2025-06-09T00:05:25.000Z</time>
      </trkpt>
      <trkpt lat="47.84764" lon="7.11572">
        <ele>896</ele>
        <time>2025-06-09T00:05:58.000Z</time>
      </trkpt>
      <trkpt lat="47.8473" lon="7.11594">
        <ele>892</ele>
        <time>2025-06-09T00:06:29.000Z</time>
      </trkpt>
      <trkpt lat="47.84689" lon="7.11618">
        <ele>888</ele>
        <time>2025-06-09T00:07:01.000Z</time>
      </trkpt>
      <trkpt lat="47.84659" lon="7.11633">
        <ele>884</ele>
        <time>2025-06-09T00:07:25.000Z</time>
      </trkpt>
      <trkpt lat="47.84642" lon="7.11637">
        <ele>881</ele>
        <time>2025-06-09T00:07:41.000Z</time>
      </trkpt>
      <trkpt lat="47.84637" lon="7.11637">
        <ele>881</ele>
        <time>2025-06-09T00:07:45.000Z</time>
      </trkpt>
      <trkpt lat="47.84614" lon="7.11631">
        <ele>878</ele>
        <time>2025-06-09T00:08:04.000Z</time>
      </trkpt>
      <trkpt lat="47.84574" lon="7.11614">
        <ele>874</ele>
        <time>2025-06-09T00:08:35.000Z</time>
      </trkpt>
      <trkpt lat="47.84565" lon="7.11609">
        <ele>874</ele>
        <time>2025-06-09T00:08:44.000Z</time>
      </trkpt>
      <trkpt lat="47.84524" lon="7.11593">
        <ele>874</ele>
        <time>2025-06-09T00:09:19.000Z</time>
      </trkpt>
      <trkpt lat="47.84485" lon="7.11578">
        <ele>875</ele>
        <time>2025-06-09T00:09:52.000Z</time>
      </trkpt>
      <trkpt lat="47.84461" lon="7.1156">
        <ele>875</ele>
        <time>2025-06-09T00:10:14.000Z</time>
      </trkpt>
      <trkpt lat="47.84453" lon="7.11552">
        <ele>874</ele>
        <time>2025-06-09T00:10:22.000Z</time>
      </trkpt>
      <trkpt lat="47.8445" lon="7.11548">
        <ele>874</ele>
        <time>2025-06-09T00:10:26.000Z</time>
      </trkpt>
      <trkpt lat="47.84444" lon="7.11535">
        <ele>874</ele>
        <time>2025-06-09T00:10:35.000Z</time>
      </trkpt>
      <trkpt lat="47.84439" lon="7.11531">
        <ele>874</ele>
        <time>2025-06-09T00:10:40.000Z</time>
      </trkpt>
      <trkpt lat="47.84432" lon="7.11522">
        <ele>873</ele>
        <time>2025-06-09T00:10:46.000Z</time>
      </trkpt>
      <trkpt lat="47.84428" lon="7.1152">
        <ele>873</ele>
        <time>2025-06-09T00:10:49.000Z</time>
      </trkpt>
      <trkpt lat="47.84422" lon="7.1151">
        <ele>873</ele>
        <time>2025-06-09T00:10:57.000Z</time>
      </trkpt>
      <trkpt lat="47.8441" lon="7.11484">
        <ele>872</ele>
        <time>2025-06-09T00:11:13.000Z</time>
      </trkpt>
      <trkpt lat="47.84405" lon="7.11468">
        <ele>872</ele>
        <time>2025-06-09T00:11:22.000Z</time>
      </trkpt>
      <trkpt lat="47.84405" lon="7.11462">
        <ele>872</ele>
        <time>2025-06-09T00:11:24.000Z</time>
      </trkpt>
      <trkpt lat="47.84405" lon="7.11455">
        <ele>872</ele>
        <time>2025-06-09T00:11:28.000Z</time>
      </trkpt>
      <trkpt lat="47.84405" lon="7.11441">
        <ele>872</ele>
        <time>2025-06-09T00:11:36.000Z</time>
      </trkpt>
      <trkpt lat="47.84406" lon="7.11435">
        <ele>871</ele>
        <time>2025-06-09T00:11:40.000Z</time>
      </trkpt>
      <trkpt lat="47.84406" lon="7.11428">
        <ele>871</ele>
        <time>2025-06-09T00:11:43.000Z</time>
      </trkpt>
      <trkpt lat="47.84404" lon="7.11421">
        <ele>871</ele>
        <time>2025-06-09T00:11:47.000Z</time>
      </trkpt>
      <trkpt lat="47.844" lon="7.11414">
        <ele>870</ele>
        <time>2025-06-09T00:11:52.000Z</time>
      </trkpt>
      <trkpt lat="47.84398" lon="7.11407">
        <ele>870</ele>
        <time>2025-06-09T00:11:57.000Z</time>
      </trkpt>
      <trkpt lat="47.84395" lon="7.11402">
        <ele>870</ele>
        <time>2025-06-09T00:12:00.000Z</time>
      </trkpt>
      <trkpt lat="47.84392" lon="7.11389">
        <ele>870</ele>
        <time>2025-06-09T00:12:08.000Z</time>
      </trkpt>
      <trkpt lat="47.84392" lon="7.1138">
        <ele>869</ele>
        <time>2025-06-09T00:12:16.000Z</time>
      </trkpt>
      <trkpt lat="47.84389" lon="7.11374">
        <ele>869</ele>
        <time>2025-06-09T00:12:19.000Z</time>
      </trkpt>
      <trkpt lat="47.84387" lon="7.11366">
        <ele>868</ele>
        <time>2025-06-09T00:12:23.000Z</time>
      </trkpt>
      <trkpt lat="47.84384" lon="7.11325">
        <ele>866</ele>
        <time>2025-06-09T00:12:45.000Z</time>
      </trkpt>
      <trkpt lat="47.84382" lon="7.11319">
        <ele>866</ele>
        <time>2025-06-09T00:12:48.000Z</time>
      </trkpt>
      <trkpt lat="47.84381" lon="7.11312">
        <ele>866</ele>
        <time>2025-06-09T00:12:52.000Z</time>
      </trkpt>
      <trkpt lat="47.84375" lon="7.11297">
        <ele>865</ele>
        <time>2025-06-09T00:13:03.000Z</time>
      </trkpt>
      <trkpt lat="47.84372" lon="7.11293">
        <ele>865</ele>
        <time>2025-06-09T00:13:07.000Z</time>
      </trkpt>
      <trkpt lat="47.84363" lon="7.11275">
        <ele>864</ele>
        <time>2025-06-09T00:13:19.000Z</time>
      </trkpt>
      <trkpt lat="47.84348" lon="7.11267">
        <ele>863</ele>
        <time>2025-06-09T00:13:32.000Z</time>
      </trkpt>
      <trkpt lat="47.84315" lon="7.11268">
        <ele>862</ele>
        <time>2025-06-09T00:14:00.000Z</time>
      </trkpt>
      <trkpt lat="47.84308" lon="7.11272">
        <ele>861</ele>
        <time>2025-06-09T00:14:07.000Z</time>
      </trkpt>
      <trkpt lat="47.84302" lon="7.11271">
        <ele>861</ele>
        <time>2025-06-09T00:14:13.000Z</time>
      </trkpt>
      <trkpt lat="47.84299" lon="7.11277">
        <ele>861</ele>
        <time>2025-06-09T00:14:18.000Z</time>
      </trkpt>
      <trkpt lat="47.84263" lon="7.11305">
        <ele>859</ele>
        <time>2025-06-09T00:14:50.000Z</time>
      </trkpt>
      <trkpt lat="47.84227" lon="7.11338">
        <ele>857</ele>
        <time>2025-06-09T00:15:23.000Z</time>
      </trkpt>
      <trkpt lat="47.84193" lon="7.11364">
        <ele>856</ele>
        <time>2025-06-09T00:15:56.000Z</time>
      </trkpt>
      <trkpt lat="47.84188" lon="7.11367">
        <ele>856</ele>
        <time>2025-06-09T00:16:00.000Z</time>
      </trkpt>
      <trkpt lat="47.84169" lon="7.11379">
        <ele>855</ele>
        <time>2025-06-09T00:16:19.000Z</time>
      </trkpt>
      <trkpt lat="47.84157" lon="7.11384">
        <ele>855</ele>
        <time>2025-06-09T00:16:28.000Z</time>
      </trkpt>
      <trkpt lat="47.84134" lon="7.11397">
        <ele>854</ele>
        <time>2025-06-09T00:16:47.000Z</time>
      </trkpt>
      <trkpt lat="47.84126" lon="7.11403">
        <ele>854</ele>
        <time>2025-06-09T00:16:55.000Z</time>
      </trkpt>
      <trkpt lat="47.84093" lon="7.11416">
        <ele>853</ele>
        <time>2025-06-09T00:17:22.000Z</time>
      </trkpt>
      <trkpt lat="47.84066" lon="7.11416">
        <ele>853</ele>
        <time>2025-06-09T00:17:47.000Z</time>
      </trkpt>
      <trkpt lat="47.84048" lon="7.11407">
        <ele>852</ele>
        <time>2025-06-09T00:18:03.000Z</time>
      </trkpt>
      <trkpt lat="47.84041" lon="7.11399">
        <ele>851</ele>
        <time>2025-06-09T00:18:11.000Z</time>
      </trkpt>
      <trkpt lat="47.84037" lon="7.11395">
        <ele>851</ele>
        <time>2025-06-09T00:18:15.000Z</time>
      </trkpt>
      <trkpt lat="47.84023" lon="7.11371">
        <ele>849</ele>
        <time>2025-06-09T00:18:32.000Z</time>
      </trkpt>
      <trkpt lat="47.84022" lon="7.11362">
        <ele>849</ele>
        <time>2025-06-09T00:18:38.000Z</time>
      </trkpt>
      <trkpt lat="47.84015" lon="7.11343">
        <ele>847</ele>
        <time>2025-06-09T00:18:48.000Z</time>
      </trkpt>
      <trkpt lat="47.84014" lon="7.11337">
        <ele>847</ele>
        <time>2025-06-09T00:18:51.000Z</time>
      </trkpt>
      <trkpt lat="47.84012" lon="7.11322">
        <ele>846</ele>
        <time>2025-06-09T00:19:00.000Z</time>
      </trkpt>
      <trkpt lat="47.84012" lon="7.11316">
        <ele>846</ele>
        <time>2025-06-09T00:19:03.000Z</time>
      </trkpt>
      <trkpt lat="47.84002" lon="7.11291">
        <ele>844</ele>
        <time>2025-06-09T00:19:22.000Z</time>
      </trkpt>
      <trkpt lat="47.83981" lon="7.11258">
        <ele>841</ele>
        <time>2025-06-09T00:19:47.000Z</time>
      </trkpt>
      <trkpt lat="47.83973" lon="7.11224">
        <ele>840</ele>
        <time>2025-06-09T00:20:07.000Z</time>
      </trkpt>
      <trkpt lat="47.8397" lon="7.11204">
        <ele>839</ele>
        <time>2025-06-09T00:20:19.000Z</time>
      </trkpt>
      <trkpt lat="47.83972" lon="7.11196">
        <ele>838</ele>
        <time>2025-06-09T00:20:22.000Z</time>
      </trkpt>
      <trkpt lat="47.83971" lon="7.11182">
        <ele>838</ele>
        <time>2025-06-09T00:20:31.000Z</time>
      </trkpt>
      <trkpt lat="47.83967" lon="7.11178">
        <ele>837</ele>
        <time>2025-06-09T00:20:35.000Z</time>
      </trkpt>
      <trkpt lat="47.83942" lon="7.11116">
        <ele>832</ele>
        <time>2025-06-09T00:21:13.000Z</time>
      </trkpt>
      <trkpt lat="47.83937" lon="7.11104">
        <ele>831</ele>
        <time>2025-06-09T00:21:22.000Z</time>
      </trkpt>
      <trkpt lat="47.83934" lon="7.11092">
        <ele>830</ele>
        <time>2025-06-09T00:21:31.000Z</time>
      </trkpt>
      <trkpt lat="47.83931" lon="7.11088">
        <ele>830</ele>
        <time>2025-06-09T00:21:34.000Z</time>
      </trkpt>
      <trkpt lat="47.83929" lon="7.11082">
        <ele>829</ele>
        <time>2025-06-09T00:21:39.000Z</time>
      </trkpt>
      <trkpt lat="47.83926" lon="7.11076">
        <ele>829</ele>
        <time>2025-06-09T00:21:43.000Z</time>
      </trkpt>
      <trkpt lat="47.83908" lon="7.11025">
        <ele>824</ele>
        <time>2025-06-09T00:22:14.000Z</time>
      </trkpt>
      <trkpt lat="47.83902" lon="7.11014">
        <ele>824</ele>
        <time>2025-06-09T00:22:20.000Z</time>
      </trkpt>
      <trkpt lat="47.83888" lon="7.11002">
        <ele>821</ele>
        <time>2025-06-09T00:22:32.000Z</time>
      </trkpt>
      <trkpt lat="47.83884" lon="7.11002">
        <ele>821</ele>
        <time>2025-06-09T00:22:36.000Z</time>
      </trkpt>
      <trkpt lat="47.83875" lon="7.10998">
        <ele>819</ele>
        <time>2025-06-09T00:22:46.000Z</time>
      </trkpt>
      <trkpt lat="47.83854" lon="7.10967">
        <ele>816</ele>
        <time>2025-06-09T00:23:03.000Z</time>
      </trkpt>
      <trkpt lat="47.83846" lon="7.10953">
        <ele>814</ele>
        <time>2025-06-09T00:23:16.000Z</time>
      </trkpt>
      <trkpt lat="47.83834" lon="7.10937">
        <ele>811</ele>
        <time>2025-06-09T00:23:27.000Z</time>
      </trkpt>
      <trkpt lat="47.83805" lon="7.10896">
        <ele>804</ele>
        <time>2025-06-09T00:23:59.000Z</time>
      </trkpt>
      <trkpt lat="47.83794" lon="7.10876">
        <ele>800</ele>
        <time>2025-06-09T00:24:14.000Z</time>
      </trkpt>
      <trkpt lat="47.83792" lon="7.10869">
        <ele>800</ele>
        <time>2025-06-09T00:24:17.000Z</time>
      </trkpt>
      <trkpt lat="47.83785" lon="7.10859">
        <ele>798</ele>
        <time>2025-06-09T00:24:26.000Z</time>
      </trkpt>
      <trkpt lat="47.83782" lon="7.10855">
        <ele>798</ele>
        <time>2025-06-09T00:24:30.000Z</time>
      </trkpt>
      <trkpt lat="47.83777" lon="7.10852">
        <ele>797</ele>
        <time>2025-06-09T00:24:35.000Z</time>
      </trkpt>
      <trkpt lat="47.83767" lon="7.10857">
        <ele>795</ele>
        <time>2025-06-09T00:24:44.000Z</time>
      </trkpt>
      <trkpt lat="47.83758" lon="7.10851">
        <ele>793</ele>
        <time>2025-06-09T00:24:55.000Z</time>
      </trkpt>
      <trkpt lat="47.83754" lon="7.10848">
        <ele>792</ele>
        <time>2025-06-09T00:25:00.000Z</time>
      </trkpt>
      <trkpt lat="47.83747" lon="7.10837">
        <ele>791</ele>
        <time>2025-06-09T00:25:09.000Z</time>
      </trkpt>
      <trkpt lat="47.83737" lon="7.10807">
        <ele>788</ele>
        <time>2025-06-09T00:25:28.000Z</time>
      </trkpt>
      <trkpt lat="47.83736" lon="7.108">
        <ele>787</ele>
        <time>2025-06-09T00:25:32.000Z</time>
      </trkpt>
      <trkpt lat="47.83735" lon="7.10794">
        <ele>787</ele>
        <time>2025-06-09T00:25:35.000Z</time>
      </trkpt>
      <trkpt lat="47.83734" lon="7.10787">
        <ele>786</ele>
        <time>2025-06-09T00:25:38.000Z</time>
      </trkpt>
      <trkpt lat="47.83734" lon="7.10779">
        <ele>786</ele>
        <time>2025-06-09T00:25:42.000Z</time>
      </trkpt>
      <trkpt lat="47.83734" lon="7.10771">
        <ele>785</ele>
        <time>2025-06-09T00:25:46.000Z</time>
      </trkpt>
      <trkpt lat="47.83732" lon="7.10764">
        <ele>785</ele>
        <time>2025-06-09T00:25:50.000Z</time>
      </trkpt>
      <trkpt lat="47.83732" lon="7.10757">
        <ele>784</ele>
        <time>2025-06-09T00:25:53.000Z</time>
      </trkpt>
      <trkpt lat="47.83734" lon="7.10744">
        <ele>783</ele>
        <time>2025-06-09T00:25:59.000Z</time>
      </trkpt>
      <trkpt lat="47.83733" lon="7.10738">
        <ele>783</ele>
        <time>2025-06-09T00:26:03.000Z</time>
      </trkpt>
      <trkpt lat="47.8373" lon="7.10722">
        <ele>782</ele>
        <time>2025-06-09T00:26:11.000Z</time>
      </trkpt>
      <trkpt lat="47.83729" lon="7.10701">
        <ele>783</ele>
        <time>2025-06-09T00:26:22.000Z</time>
      </trkpt>
      <trkpt lat="47.83729" lon="7.10677">
        <ele>782</ele>
        <time>2025-06-09T00:26:37.000Z</time>
      </trkpt>
      <trkpt lat="47.83729" lon="7.10663">
        <ele>783</ele>
        <time>2025-06-09T00:26:43.000Z</time>
      </trkpt>
      <trkpt lat="47.83732" lon="7.1065">
        <ele>783</ele>
        <time>2025-06-09T00:26:51.000Z</time>
      </trkpt>
      <trkpt lat="47.8373" lon="7.10634">
        <ele>780</ele>
        <time>2025-06-09T00:27:02.000Z</time>
      </trkpt>
      <trkpt lat="47.83731" lon="7.10613">
        <ele>779</ele>
        <time>2025-06-09T00:27:13.000Z</time>
      </trkpt>
      <trkpt lat="47.83731" lon="7.10606">
        <ele>779</ele>
        <time>2025-06-09T00:27:17.000Z</time>
      </trkpt>
      <trkpt lat="47.83731" lon="7.10599">
        <ele>779</ele>
        <time>2025-06-09T00:27:21.000Z</time>
      </trkpt>
      <trkpt lat="47.83731" lon="7.10581">
        <ele>779</ele>
        <time>2025-06-09T00:27:31.000Z</time>
      </trkpt>
      <trkpt lat="47.83723" lon="7.1053">
        <ele>780</ele>
        <time>2025-06-09T00:27:58.000Z</time>
      </trkpt>
      <trkpt lat="47.83721" lon="7.10522">
        <ele>780</ele>
        <time>2025-06-09T00:28:03.000Z</time>
      </trkpt>
      <trkpt lat="47.83715" lon="7.10504">
        <ele>781</ele>
        <time>2025-06-09T00:28:16.000Z</time>
      </trkpt>
      <trkpt lat="47.83711" lon="7.10498">
        <ele>781</ele>
        <time>2025-06-09T00:28:22.000Z</time>
      </trkpt>
      <trkpt lat="47.83707" lon="7.10492">
        <ele>781</ele>
        <time>2025-06-09T00:28:29.000Z</time>
      </trkpt>
      <trkpt lat="47.83712" lon="7.10491">
        <ele>781</ele>
        <time>2025-06-09T00:28:36.000Z</time>
      </trkpt>
      <trkpt lat="47.83701" lon="7.10483">
        <ele>782</ele>
        <time>2025-06-09T00:28:54.000Z</time>
      </trkpt>
      <trkpt lat="47.83697" lon="7.10478">
        <ele>781</ele>
        <time>2025-06-09T00:28:59.000Z</time>
      </trkpt>
      <trkpt lat="47.8369" lon="7.10472">
        <ele>782</ele>
        <time>2025-06-09T00:29:08.000Z</time>
      </trkpt>
      <trkpt lat="47.83686" lon="7.10467">
        <ele>781</ele>
        <time>2025-06-09T00:29:13.000Z</time>
      </trkpt>
      <trkpt lat="47.83683" lon="7.10461">
        <ele>780</ele>
        <time>2025-06-09T00:29:18.000Z</time>
      </trkpt>
      <trkpt lat="47.83681" lon="7.10456">
        <ele>780</ele>
        <time>2025-06-09T00:29:21.000Z</time>
      </trkpt>
      <trkpt lat="47.83674" lon="7.10446">
        <ele>779</ele>
        <time>2025-06-09T00:29:34.000Z</time>
      </trkpt>
      <trkpt lat="47.83669" lon="7.10443">
        <ele>778</ele>
        <time>2025-06-09T00:29:38.000Z</time>
      </trkpt>
      <trkpt lat="47.83655" lon="7.10427">
        <ele>775</ele>
        <time>2025-06-09T00:29:56.000Z</time>
      </trkpt>
      <trkpt lat="47.8365" lon="7.10428">
        <ele>775</ele>
        <time>2025-06-09T00:30:01.000Z</time>
      </trkpt>
      <trkpt lat="47.83639" lon="7.10428">
        <ele>774</ele>
        <time>2025-06-09T00:30:14.000Z</time>
      </trkpt>
      <trkpt lat="47.83608" lon="7.10416">
        <ele>774</ele>
        <time>2025-06-09T00:30:43.000Z</time>
      </trkpt>
      <trkpt lat="47.83603" lon="7.10416">
        <ele>774</ele>
        <time>2025-06-09T00:30:47.000Z</time>
      </trkpt>
      <trkpt lat="47.83594" lon="7.10412">
        <ele>774</ele>
        <time>2025-06-09T00:30:55.000Z</time>
      </trkpt>
      <trkpt lat="47.8359" lon="7.10408">
        <ele>774</ele>
        <time>2025-06-09T00:30:59.000Z</time>
      </trkpt>
      <trkpt lat="47.83587" lon="7.10403">
        <ele>774</ele>
        <time>2025-06-09T00:31:03.000Z</time>
      </trkpt>
      <trkpt lat="47.83585" lon="7.10397">
        <ele>773</ele>
        <time>2025-06-09T00:31:07.000Z</time>
      </trkpt>
      <trkpt lat="47.83581" lon="7.10393">
        <ele>774</ele>
        <time>2025-06-09T00:31:12.000Z</time>
      </trkpt>
      <trkpt lat="47.83577" lon="7.10385">
        <ele>774</ele>
        <time>2025-06-09T00:31:18.000Z</time>
      </trkpt>
      <trkpt lat="47.83573" lon="7.10381">
        <ele>774</ele>
        <time>2025-06-09T00:31:22.000Z</time>
      </trkpt>
      <trkpt lat="47.83563" lon="7.10375">
        <ele>773</ele>
        <time>2025-06-09T00:31:32.000Z</time>
      </trkpt>
      <trkpt lat="47.83559" lon="7.10371">
        <ele>773</ele>
        <time>2025-06-09T00:31:36.000Z</time>
      </trkpt>
      <trkpt lat="47.83556" lon="7.10365">
        <ele>773</ele>
        <time>2025-06-09T00:31:43.000Z</time>
      </trkpt>
      <trkpt lat="47.83554" lon="7.10357">
        <ele>773</ele>
        <time>2025-06-09T00:31:47.000Z</time>
      </trkpt>
      <trkpt lat="47.83554" lon="7.10321">
        <ele>768</ele>
        <time>2025-06-09T00:32:08.000Z</time>
      </trkpt>
      <trkpt lat="47.83555" lon="7.10314">
        <ele>768</ele>
        <time>2025-06-09T00:32:12.000Z</time>
      </trkpt>
      <trkpt lat="47.83553" lon="7.10288">
        <ele>766</ele>
        <time>2025-06-09T00:32:27.000Z</time>
      </trkpt>
      <trkpt lat="47.83552" lon="7.10274">
        <ele>766</ele>
        <time>2025-06-09T00:32:36.000Z</time>
      </trkpt>
      <trkpt lat="47.83547" lon="7.10229">
        <ele>762</ele>
        <time>2025-06-09T00:33:03.000Z</time>
      </trkpt>
      <trkpt lat="47.83545" lon="7.10222">
        <ele>761</ele>
        <time>2025-06-09T00:33:07.000Z</time>
      </trkpt>
      <trkpt lat="47.83543" lon="7.10216">
        <ele>761</ele>
        <time>2025-06-09T00:33:11.000Z</time>
      </trkpt>
      <trkpt lat="47.83536" lon="7.10206">
        <ele>759</ele>
        <time>2025-06-09T00:33:18.000Z</time>
      </trkpt>
      <trkpt lat="47.83525" lon="7.10192">
        <ele>757</ele>
        <time>2025-06-09T00:33:29.000Z</time>
      </trkpt>
      <trkpt lat="47.83521" lon="7.10184">
        <ele>756</ele>
        <time>2025-06-09T00:33:36.000Z</time>
      </trkpt>
      <trkpt lat="47.83511" lon="7.10163">
        <ele>754</ele>
        <time>2025-06-09T00:33:47.000Z</time>
      </trkpt>
      <trkpt lat="47.83492" lon="7.10118">
        <ele>747</ele>
        <time>2025-06-09T00:34:20.000Z</time>
      </trkpt>
      <trkpt lat="47.83489" lon="7.1011">
        <ele>747</ele>
        <time>2025-06-09T00:34:24.000Z</time>
      </trkpt>
      <trkpt lat="47.8348" lon="7.10082">
        <ele>741</ele>
        <time>2025-06-09T00:34:45.000Z</time>
      </trkpt>
      <trkpt lat="47.83475" lon="7.10072">
        <ele>740</ele>
        <time>2025-06-09T00:34:53.000Z</time>
      </trkpt>
      <trkpt lat="47.83471" lon="7.10067">
        <ele>740</ele>
        <time>2025-06-09T00:34:58.000Z</time>
      </trkpt>
      <trkpt lat="47.83465" lon="7.10061">
        <ele>739</ele>
        <time>2025-06-09T00:35:08.000Z</time>
      </trkpt>
      <trkpt lat="47.83433" lon="7.10071">
        <ele>733</ele>
        <time>2025-06-09T00:35:37.000Z</time>
      </trkpt>
      <trkpt lat="47.83429" lon="7.10074">
        <ele>732</ele>
        <time>2025-06-09T00:35:40.000Z</time>
      </trkpt>
      <trkpt lat="47.83425" lon="7.10075">
        <ele>732</ele>
        <time>2025-06-09T00:35:44.000Z</time>
      </trkpt>
      <trkpt lat="47.83397" lon="7.10097">
        <ele>725</ele>
        <time>2025-06-09T00:36:16.000Z</time>
      </trkpt>
      <trkpt lat="47.83384" lon="7.10109">
        <ele>722</ele>
        <time>2025-06-09T00:36:31.000Z</time>
      </trkpt>
      <trkpt lat="47.8338" lon="7.10112">
        <ele>722</ele>
        <time>2025-06-09T00:36:36.000Z</time>
      </trkpt>
      <trkpt lat="47.83347" lon="7.10139">
        <ele>716</ele>
        <time>2025-06-09T00:37:08.000Z</time>
      </trkpt>
      <trkpt lat="47.83322" lon="7.10157">
        <ele>712</ele>
        <time>2025-06-09T00:37:42.000Z</time>
      </trkpt>
      <trkpt lat="47.83306" lon="7.10163">
        <ele>709</ele>
        <time>2025-06-09T00:37:58.000Z</time>
      </trkpt>
      <trkpt lat="47.83282" lon="7.10165">
        <ele>706</ele>
        <time>2025-06-09T00:38:19.000Z</time>
      </trkpt>
      <trkpt lat="47.83272" lon="7.10163">
        <ele>704</ele>
        <time>2025-06-09T00:38:27.000Z</time>
      </trkpt>
      <trkpt lat="47.83262" lon="7.10158">
        <ele>702</ele>
        <time>2025-06-09T00:38:37.000Z</time>
      </trkpt>
      <trkpt lat="47.83258" lon="7.10156">
        <ele>702</ele>
        <time>2025-06-09T00:38:41.000Z</time>
      </trkpt>
      <trkpt lat="47.83247" lon="7.1016">
        <ele>702</ele>
        <time>2025-06-09T00:38:50.000Z</time>
      </trkpt>
      <trkpt lat="47.83229" lon="7.10163">
        <ele>701</ele>
        <time>2025-06-09T00:39:06.000Z</time>
      </trkpt>
      <trkpt lat="47.83224" lon="7.10162">
        <ele>700</ele>
        <time>2025-06-09T00:39:11.000Z</time>
      </trkpt>
      <trkpt lat="47.83216" lon="7.10155">
        <ele>698</ele>
        <time>2025-06-09T00:39:18.000Z</time>
      </trkpt>
      <trkpt lat="47.832" lon="7.10127">
        <ele>695</ele>
        <time>2025-06-09T00:39:39.000Z</time>
      </trkpt>
      <trkpt lat="47.83174" lon="7.10084">
        <ele>689</ele>
        <time>2025-06-09T00:40:12.000Z</time>
      </trkpt>
      <trkpt lat="47.83171" lon="7.10078">
        <ele>688</ele>
        <time>2025-06-09T00:40:17.000Z</time>
      </trkpt>
      <trkpt lat="47.83167" lon="7.10073">
        <ele>688</ele>
        <time>2025-06-09T00:40:21.000Z</time>
      </trkpt>
      <trkpt lat="47.83163" lon="7.10068">
        <ele>688</ele>
        <time>2025-06-09T00:40:26.000Z</time>
      </trkpt>
      <trkpt lat="47.83158" lon="7.10061">
        <ele>688</ele>
        <time>2025-06-09T00:40:33.000Z</time>
      </trkpt>
      <trkpt lat="47.83153" lon="7.10056">
        <ele>687</ele>
        <time>2025-06-09T00:40:41.000Z</time>
      </trkpt>
      <trkpt lat="47.83152" lon="7.10049">
        <ele>686</ele>
        <time>2025-06-09T00:40:45.000Z</time>
      </trkpt>
      <trkpt lat="47.83149" lon="7.10041">
        <ele>686</ele>
        <time>2025-06-09T00:40:49.000Z</time>
      </trkpt>
      <trkpt lat="47.83145" lon="7.10041">
        <ele>685</ele>
        <time>2025-06-09T00:40:58.000Z</time>
      </trkpt>
      <trkpt lat="47.83141" lon="7.10045">
        <ele>684</ele>
        <time>2025-06-09T00:41:02.000Z</time>
      </trkpt>
      <trkpt lat="47.83136" lon="7.10045">
        <ele>683</ele>
        <time>2025-06-09T00:41:06.000Z</time>
      </trkpt>
      <trkpt lat="47.83121" lon="7.10043">
        <ele>683</ele>
        <time>2025-06-09T00:41:18.000Z</time>
      </trkpt>
      <trkpt lat="47.83113" lon="7.10036">
        <ele>683</ele>
        <time>2025-06-09T00:41:24.000Z</time>
      </trkpt>
      <trkpt lat="47.83106" lon="7.10041">
        <ele>684</ele>
        <time>2025-06-09T00:41:32.000Z</time>
      </trkpt>
      <trkpt lat="47.83104" lon="7.10048">
        <ele>683</ele>
        <time>2025-06-09T00:41:36.000Z</time>
      </trkpt>
      <trkpt lat="47.83068" lon="7.10078">
        <ele>678</ele>
        <time>2025-06-09T00:42:14.000Z</time>
      </trkpt>
      <trkpt lat="47.83064" lon="7.10081">
        <ele>678</ele>
        <time>2025-06-09T00:42:17.000Z</time>
      </trkpt>
      <trkpt lat="47.83059" lon="7.10086">
        <ele>678</ele>
        <time>2025-06-09T00:42:25.000Z</time>
      </trkpt>
      <trkpt lat="47.83054" lon="7.10091">
        <ele>678</ele>
        <time>2025-06-09T00:42:31.000Z</time>
      </trkpt>
      <trkpt lat="47.83025" lon="7.10108">
        <ele>674</ele>
        <time>2025-06-09T00:42:59.000Z</time>
      </trkpt>
      <trkpt lat="47.83021" lon="7.1011">
        <ele>672</ele>
        <time>2025-06-09T00:43:05.000Z</time>
      </trkpt>
      <trkpt lat="47.83015" lon="7.10111">
        <ele>672</ele>
        <time>2025-06-09T00:43:10.000Z</time>
      </trkpt>
      <trkpt lat="47.83011" lon="7.10113">
        <ele>671</ele>
        <time>2025-06-09T00:43:14.000Z</time>
      </trkpt>
      <trkpt lat="47.83002" lon="7.10115">
        <ele>669</ele>
        <time>2025-06-09T00:43:22.000Z</time>
      </trkpt>
      <trkpt lat="47.82967" lon="7.10135">
        <ele>664</ele>
        <time>2025-06-09T00:43:55.000Z</time>
      </trkpt>
      <trkpt lat="47.82962" lon="7.10137">
        <ele>662</ele>
        <time>2025-06-09T00:44:02.000Z</time>
      </trkpt>
      <trkpt lat="47.82937" lon="7.10142">
        <ele>657</ele>
        <time>2025-06-09T00:44:29.000Z</time>
      </trkpt>
      <trkpt lat="47.82933" lon="7.10146">
        <ele>657</ele>
        <time>2025-06-09T00:44:33.000Z</time>
      </trkpt>
      <trkpt lat="47.82929" lon="7.10152">
        <ele>656</ele>
        <time>2025-06-09T00:44:36.000Z</time>
      </trkpt>
      <trkpt lat="47.82926" lon="7.10159">
        <ele>656</ele>
        <time>2025-06-09T00:44:39.000Z</time>
      </trkpt>
      <trkpt lat="47.82912" lon="7.10163">
        <ele>656</ele>
        <time>2025-06-09T00:44:50.000Z</time>
      </trkpt>
      <trkpt lat="47.82907" lon="7.10165">
        <ele>655</ele>
        <time>2025-06-09T00:44:57.000Z</time>
      </trkpt>
      <trkpt lat="47.82897" lon="7.10163">
        <ele>652</ele>
        <time>2025-06-09T00:45:10.000Z</time>
      </trkpt>
      <trkpt lat="47.82866" lon="7.10176">
        <ele>648</ele>
        <time>2025-06-09T00:45:38.000Z</time>
      </trkpt>
      <trkpt lat="47.8286" lon="7.10181">
        <ele>648</ele>
        <time>2025-06-09T00:45:44.000Z</time>
      </trkpt>
      <trkpt lat="47.82832" lon="7.10209">
        <ele>643</ele>
        <time>2025-06-09T00:46:10.000Z</time>
      </trkpt>
      <trkpt lat="47.82829" lon="7.10213">
        <ele>643</ele>
        <time>2025-06-09T00:46:14.000Z</time>
      </trkpt>
      <trkpt lat="47.82798" lon="7.10241">
        <ele>634</ele>
        <time>2025-06-09T00:46:46.000Z</time>
      </trkpt>
      <trkpt lat="47.82768" lon="7.10266">
        <ele>627</ele>
        <time>2025-06-09T00:47:18.000Z</time>
      </trkpt>
      <trkpt lat="47.8276" lon="7.10272">
        <ele>626</ele>
        <time>2025-06-09T00:47:25.000Z</time>
      </trkpt>
      <trkpt lat="47.82756" lon="7.10274">
        <ele>625</ele>
        <time>2025-06-09T00:47:28.000Z</time>
      </trkpt>
      <trkpt lat="47.82751" lon="7.10277">
        <ele>625</ele>
        <time>2025-06-09T00:47:32.000Z</time>
      </trkpt>
      <trkpt lat="47.82716" lon="7.10301">
        <ele>619</ele>
        <time>2025-06-09T00:48:08.000Z</time>
      </trkpt>
      <trkpt lat="47.82704" lon="7.10314">
        <ele>617</ele>
        <time>2025-06-09T00:48:24.000Z</time>
      </trkpt>
      <trkpt lat="47.827" lon="7.10318">
        <ele>616</ele>
        <time>2025-06-09T00:48:28.000Z</time>
      </trkpt>
      <trkpt lat="47.82683" lon="7.1033">
        <ele>612</ele>
        <time>2025-06-09T00:48:49.000Z</time>
      </trkpt>
      <trkpt lat="47.82679" lon="7.10334">
        <ele>611</ele>
        <time>2025-06-09T00:48:53.000Z</time>
      </trkpt>
      <trkpt lat="47.82674" lon="7.10334">
        <ele>610</ele>
        <time>2025-06-09T00:49:00.000Z</time>
      </trkpt>
      <trkpt lat="47.82666" lon="7.10342">
        <ele>607</ele>
        <time>2025-06-09T00:49:12.000Z</time>
      </trkpt>
      <trkpt lat="47.8266" lon="7.10355">
        <ele>604</ele>
        <time>2025-06-09T00:49:25.000Z</time>
      </trkpt>
      <trkpt lat="47.82655" lon="7.10364">
        <ele>603</ele>
        <time>2025-06-09T00:49:34.000Z</time>
      </trkpt>
      <trkpt lat="47.8265" lon="7.10366">
        <ele>601</ele>
        <time>2025-06-09T00:49:43.000Z</time>
      </trkpt>
      <trkpt lat="47.82645" lon="7.10359">
        <ele>599</ele>
        <time>2025-06-09T00:49:50.000Z</time>
      </trkpt>
      <trkpt lat="47.82641" lon="7.10344">
        <ele>597</ele>
        <time>2025-06-09T00:50:02.000Z</time>
      </trkpt>
      <trkpt lat="47.82635" lon="7.10353">
        <ele>593</ele>
        <time>2025-06-09T00:50:18.000Z</time>
      </trkpt>
      <trkpt lat="47.82633" lon="7.10362">
        <ele>592</ele>
        <time>2025-06-09T00:50:24.000Z</time>
      </trkpt>
      <trkpt lat="47.82626" lon="7.10372">
        <ele>591</ele>
        <time>2025-06-09T00:50:33.000Z</time>
      </trkpt>
      <trkpt lat="47.82614" lon="7.10372">
        <ele>589</ele>
        <time>2025-06-09T00:50:43.000Z</time>
      </trkpt>
      <trkpt lat="47.82604" lon="7.10378">
        <ele>586</ele>
        <time>2025-06-09T00:50:51.000Z</time>
      </trkpt>
      <trkpt lat="47.82588" lon="7.10392">
        <ele>585</ele>
        <time>2025-06-09T00:51:07.000Z</time>
      </trkpt>
      <trkpt lat="47.82589" lon="7.10403">
        <ele>584</ele>
        <time>2025-06-09T00:51:19.000Z</time>
      </trkpt>
      <trkpt lat="47.82588" lon="7.1041">
        <ele>584</ele>
        <time>2025-06-09T00:51:22.000Z</time>
      </trkpt>
      <trkpt lat="47.82586" lon="7.10416">
        <ele>583</ele>
        <time>2025-06-09T00:51:25.000Z</time>
      </trkpt>
      <trkpt lat="47.82562" lon="7.10435">
        <ele>578</ele>
        <time>2025-06-09T00:51:50.000Z</time>
      </trkpt>
      <trkpt lat="47.82559" lon="7.1044">
        <ele>577</ele>
        <time>2025-06-09T00:51:54.000Z</time>
      </trkpt>
      <trkpt lat="47.8255" lon="7.10445">
        <ele>575</ele>
        <time>2025-06-09T00:52:03.000Z</time>
      </trkpt>
      <trkpt lat="47.82534" lon="7.10448">
        <ele>572</ele>
        <time>2025-06-09T00:52:17.000Z</time>
      </trkpt>
      <trkpt lat="47.8252" lon="7.10459">
        <ele>568</ele>
        <time>2025-06-09T00:52:35.000Z</time>
      </trkpt>
      <trkpt lat="47.82513" lon="7.10469">
        <ele>565</ele>
        <time>2025-06-09T00:52:44.000Z</time>
      </trkpt>
      <trkpt lat="47.8251" lon="7.10476">
        <ele>564</ele>
        <time>2025-06-09T00:52:51.000Z</time>
      </trkpt>
      <trkpt lat="47.82506" lon="7.10482">
        <ele>563</ele>
        <time>2025-06-09T00:52:56.000Z</time>
      </trkpt>
      <trkpt lat="47.82504" lon="7.1049">
        <ele>562</ele>
        <time>2025-06-09T00:53:01.000Z</time>
      </trkpt>
      <trkpt lat="47.82488" lon="7.10521">
        <ele>558</ele>
        <time>2025-06-09T00:53:24.000Z</time>
      </trkpt>
      <trkpt lat="47.82474" lon="7.10559">
        <ele>551</ele>
        <time>2025-06-09T00:53:55.000Z</time>
      </trkpt>
      <trkpt lat="47.82467" lon="7.10582">
        <ele>548</ele>
        <time>2025-06-09T00:54:11.000Z</time>
      </trkpt>
      <trkpt lat="47.82469" lon="7.10589">
        <ele>547</ele>
        <time>2025-06-09T00:54:15.000Z</time>
      </trkpt>
      <trkpt lat="47.82467" lon="7.10595">
        <ele>546</ele>
        <time>2025-06-09T00:54:19.000Z</time>
      </trkpt>
      <trkpt lat="47.8246" lon="7.10603">
        <ele>544</ele>
        <time>2025-06-09T00:54:27.000Z</time>
      </trkpt>
      <trkpt lat="47.82449" lon="7.10609">
        <ele>542</ele>
        <time>2025-06-09T00:54:37.000Z</time>
      </trkpt>
      <trkpt lat="47.82437" lon="7.10621">
        <ele>538</ele>
        <time>2025-06-09T00:54:50.000Z</time>
      </trkpt>
      <trkpt lat="47.82434" lon="7.10626">
        <ele>536</ele>
        <time>2025-06-09T00:54:56.000Z</time>
      </trkpt>
      <trkpt lat="47.82443" lon="7.10623">
        <ele>533</ele>
        <time>2025-06-09T00:55:10.000Z</time>
      </trkpt>
      <trkpt lat="47.82438" lon="7.10629">
        <ele>532</ele>
        <time>2025-06-09T00:55:13.000Z</time>
      </trkpt>
      <trkpt lat="47.82429" lon="7.1064">
        <ele>530</ele>
        <time>2025-06-09T00:55:26.000Z</time>
      </trkpt>
      <trkpt lat="47.82425" lon="7.10643">
        <ele>528</ele>
        <time>2025-06-09T00:55:32.000Z</time>
      </trkpt>
      <trkpt lat="47.82421" lon="7.10649">
        <ele>526</ele>
        <time>2025-06-09T00:55:37.000Z</time>
      </trkpt>
      <trkpt lat="47.82416" lon="7.10648">
        <ele>524</ele>
        <time>2025-06-09T00:55:45.000Z</time>
      </trkpt>
      <trkpt lat="47.82409" lon="7.10647">
        <ele>521</ele>
        <time>2025-06-09T00:55:57.000Z</time>
      </trkpt>
      <trkpt lat="47.82403" lon="7.10649">
        <ele>520</ele>
        <time>2025-06-09T00:56:03.000Z</time>
      </trkpt>
      <trkpt lat="47.82394" lon="7.10657">
        <ele>517</ele>
        <time>2025-06-09T00:56:12.000Z</time>
      </trkpt>
      <trkpt lat="47.82389" lon="7.10658">
        <ele>516</ele>
        <time>2025-06-09T00:56:17.000Z</time>
      </trkpt>
      <trkpt lat="47.82385" lon="7.10656">
        <ele>515</ele>
        <time>2025-06-09T00:56:22.000Z</time>
      </trkpt>
      <trkpt lat="47.82379" lon="7.10659">
        <ele>514</ele>
        <time>2025-06-09T00:56:29.000Z</time>
      </trkpt>
      <trkpt lat="47.82359" lon="7.10683">
        <ele>509</ele>
        <time>2025-06-09T00:56:52.000Z</time>
      </trkpt>
      <trkpt lat="47.82354" lon="7.10702">
        <ele>507</ele>
        <time>2025-06-09T00:57:03.000Z</time>
      </trkpt>
      <trkpt lat="47.82349" lon="7.10712">
        <ele>506</ele>
        <time>2025-06-09T00:57:10.000Z</time>
      </trkpt>
      <trkpt lat="47.82346" lon="7.10716">
        <ele>505</ele>
        <time>2025-06-09T00:57:15.000Z</time>
      </trkpt>
      <trkpt lat="47.82342" lon="7.10718">
        <ele>505</ele>
        <time>2025-06-09T00:57:19.000Z</time>
      </trkpt>
      <trkpt lat="47.82323" lon="7.10734">
        <ele>499</ele>
        <time>2025-06-09T00:57:47.000Z</time>
      </trkpt>
      <trkpt lat="47.82314" lon="7.10747">
        <ele>497</ele>
        <time>2025-06-09T00:58:03.000Z</time>
      </trkpt>
      <trkpt lat="47.82308" lon="7.1075">
        <ele>495</ele>
        <time>2025-06-09T00:58:10.000Z</time>
      </trkpt>
      <trkpt lat="47.82303" lon="7.10754">
        <ele>493</ele>
        <time>2025-06-09T00:58:18.000Z</time>
      </trkpt>
      <trkpt lat="47.82293" lon="7.10757">
        <ele>490</ele>
        <time>2025-06-09T00:58:28.000Z</time>
      </trkpt>
      <trkpt lat="47.82287" lon="7.10756">
        <ele>488</ele>
        <time>2025-06-09T00:58:35.000Z</time>
      </trkpt>
      <trkpt lat="47.82276" lon="7.10751">
        <ele>485</ele>
        <time>2025-06-09T00:58:47.000Z</time>
      </trkpt>
      <trkpt lat="47.82271" lon="7.10751">
        <ele>483</ele>
        <time>2025-06-09T00:58:52.000Z</time>
      </trkpt>
      <trkpt lat="47.82267" lon="7.10755">
        <ele>483</ele>
        <time>2025-06-09T00:58:56.000Z</time>
      </trkpt>
      <trkpt lat="47.8226" lon="7.10756">
        <ele>481</ele>
        <time>2025-06-09T00:59:03.000Z</time>
      </trkpt>
      <trkpt lat="47.82256" lon="7.10761">
        <ele>480</ele>
        <time>2025-06-09T00:59:08.000Z</time>
      </trkpt>
      <trkpt lat="47.8225" lon="7.10773">
        <ele>477</ele>
        <time>2025-06-09T00:59:18.000Z</time>
      </trkpt>
      <trkpt lat="47.82237" lon="7.10792">
        <ele>473</ele>
        <time>2025-06-09T00:59:37.000Z</time>
      </trkpt>
      <trkpt lat="47.82234" lon="7.10799">
        <ele>471</ele>
        <time>2025-06-09T00:59:45.000Z</time>
      </trkpt>
      <trkpt lat="47.82212" lon="7.1083">
        <ele>464</ele>
        <time>2025-06-09T01:00:15.000Z</time>
      </trkpt>
      <trkpt lat="47.82201" lon="7.10837">
        <ele>462</ele>
        <time>2025-06-09T01:00:28.000Z</time>
      </trkpt>
      <trkpt lat="47.8219" lon="7.10853">
        <ele>458</ele>
        <time>2025-06-09T01:00:43.000Z</time>
      </trkpt>
      <trkpt lat="47.82185" lon="7.10855">
        <ele>457</ele>
        <time>2025-06-09T01:00:47.000Z</time>
      </trkpt>
      <trkpt lat="47.8218" lon="7.10859">
        <ele>456</ele>
        <time>2025-06-09T01:00:51.000Z</time>
      </trkpt>
      <trkpt lat="47.82145" lon="7.10883">
        <ele>449</ele>
        <time>2025-06-09T01:01:26.000Z</time>
      </trkpt>
      <trkpt lat="47.82136" lon="7.10892">
        <ele>447</ele>
        <time>2025-06-09T01:01:35.000Z</time>
      </trkpt>
      <trkpt lat="47.8212" lon="7.10903">
        <ele>444</ele>
        <time>2025-06-09T01:01:54.000Z</time>
      </trkpt>
      <trkpt lat="47.82114" lon="7.10904">
        <ele>443</ele>
        <time>2025-06-09T01:02:00.000Z</time>
      </trkpt>
      <trkpt lat="47.821" lon="7.10912">
        <ele>440</ele>
        <time>2025-06-09T01:02:14.000Z</time>
      </trkpt>
      <trkpt lat="47.82071" lon="7.10906">
        <ele>434</ele>
        <time>2025-06-09T01:02:41.000Z</time>
      </trkpt>
      <trkpt lat="47.82046" lon="7.10892">
        <ele>425</ele>
        <time>2025-06-09T01:03:09.000Z</time>
      </trkpt>
      <trkpt lat="47.82046" lon="7.10885">
        <ele>425</ele>
        <time>2025-06-09T01:03:12.000Z</time>
      </trkpt>
      <trkpt lat="47.82017" lon="7.10868">
        <ele>418</ele>
        <time>2025-06-09T01:03:40.000Z</time>
      </trkpt>
      <trkpt lat="47.82006" lon="7.10866">
        <ele>414</ele>
        <time>2025-06-09T01:03:56.000Z</time>
      </trkpt>
      <trkpt lat="47.82" lon="7.10862">
        <ele>413</ele>
        <time>2025-06-09T01:04:00.000Z</time>
      </trkpt>
      <trkpt lat="47.81989" lon="7.10866">
        <ele>410</ele>
        <time>2025-06-09T01:04:15.000Z</time>
      </trkpt>
      <trkpt lat="47.81985" lon="7.1087">
        <ele>409</ele>
        <time>2025-06-09T01:04:19.000Z</time>
      </trkpt>
      <trkpt lat="47.81969" lon="7.10875">
        <ele>406</ele>
        <time>2025-06-09T01:04:39.000Z</time>
      </trkpt>
      <trkpt lat="47.8195" lon="7.10885">
        <ele>401</ele>
        <time>2025-06-09T01:04:58.000Z</time>
      </trkpt>
      <trkpt lat="47.81921" lon="7.10882">
        <ele>395</ele>
        <time>2025-06-09T01:05:31.000Z</time>
      </trkpt>
      <trkpt lat="47.8189" lon="7.1087">
        <ele>388</ele>
        <time>2025-06-09T01:06:05.000Z</time>
      </trkpt>
      <trkpt lat="47.81863" lon="7.10853">
        <ele>382</ele>
        <time>2025-06-09T01:06:38.000Z</time>
      </trkpt>
      <trkpt lat="47.81826" lon="7.10834">
        <ele>376</ele>
        <time>2025-06-09T01:07:10.000Z</time>
      </trkpt>
      <trkpt lat="47.8179" lon="7.10816">
        <ele>372</ele>
        <time>2025-06-09T01:07:44.000Z</time>
      </trkpt>
      <trkpt lat="47.81773" lon="7.10805">
        <ele>369</ele>
        <time>2025-06-09T01:08:02.000Z</time>
      </trkpt>
      <trkpt lat="47.81768" lon="7.10803">
        <ele>369</ele>
        <time>2025-06-09T01:08:05.000Z</time>
      </trkpt>
      <trkpt lat="47.81764" lon="7.10801">
        <ele>369</ele>
        <time>2025-06-09T01:08:08.000Z</time>
      </trkpt>
      <trkpt lat="47.81751" lon="7.10794">
        <ele>368</ele>
        <time>2025-06-09T01:08:21.000Z</time>
      </trkpt>
      <trkpt lat="47.81746" lon="7.10798">
        <ele>367</ele>
        <time>2025-06-09T01:08:25.000Z</time>
      </trkpt>
      <trkpt lat="47.81743" lon="7.10803">
        <ele>367</ele>
        <time>2025-06-09T01:08:27.000Z</time>
      </trkpt>
      <trkpt lat="47.81736" lon="7.10801">
        <ele>366</ele>
        <time>2025-06-09T01:08:34.000Z</time>
      </trkpt>
      <trkpt lat="47.81732" lon="7.10797">
        <ele>366</ele>
        <time>2025-06-09T01:08:38.000Z</time>
      </trkpt>
      <trkpt lat="47.81727" lon="7.10795">
        <ele>366</ele>
        <time>2025-06-09T01:08:42.000Z</time>
      </trkpt>
      <trkpt lat="47.81723" lon="7.10791">
        <ele>365</ele>
        <time>2025-06-09T01:08:45.000Z</time>
      </trkpt>
      <trkpt lat="47.81702" lon="7.10786">
        <ele>365</ele>
        <time>2025-06-09T01:09:01.000Z</time>
      </trkpt>
      <trkpt lat="47.81693" lon="7.10785">
        <ele>365</ele>
        <time>2025-06-09T01:09:08.000Z</time>
      </trkpt>
      <trkpt lat="47.81674" lon="7.10763">
        <ele>363</ele>
        <time>2025-06-09T01:09:27.000Z</time>
      </trkpt>
      <trkpt lat="47.81669" lon="7.10758">
        <ele>363</ele>
        <time>2025-06-09T01:09:31.000Z</time>
      </trkpt>
      <trkpt lat="47.81636" lon="7.1072">
        <ele>360</ele>
        <time>2025-06-09T01:10:02.000Z</time>
      </trkpt>
      <trkpt lat="47.81633" lon="7.10713">
        <ele>360</ele>
        <time>2025-06-09T01:10:07.000Z</time>
      </trkpt>
      <trkpt lat="47.81608" lon="7.10674">
        <ele>359</ele>
        <time>2025-06-09T01:10:36.000Z</time>
      </trkpt>
      <trkpt lat="47.81595" lon="7.10664">
        <ele>359</ele>
        <time>2025-06-09T01:10:45.000Z</time>
      </trkpt>
      <trkpt lat="47.81581" lon="7.10641">
        <ele>358</ele>
        <time>2025-06-09T01:11:02.000Z</time>
      </trkpt>
      <trkpt lat="47.81576" lon="7.10627">
        <ele>357</ele>
        <time>2025-06-09T01:11:12.000Z</time>
      </trkpt>
      <trkpt lat="47.81564" lon="7.10607">
        <ele>356</ele>
        <time>2025-06-09T01:11:25.000Z</time>
      </trkpt>
      <trkpt lat="47.81562" lon="7.106">
        <ele>356</ele>
        <time>2025-06-09T01:11:30.000Z</time>
      </trkpt>
      <trkpt lat="47.81534" lon="7.10557">
        <ele>354</ele>
        <time>2025-06-09T01:12:03.000Z</time>
      </trkpt>
      <trkpt lat="47.81527" lon="7.10549">
        <ele>354</ele>
        <time>2025-06-09T01:12:10.000Z</time>
      </trkpt>
      <trkpt lat="47.8149" lon="7.10519">
        <ele>352</ele>
        <time>2025-06-09T01:12:43.000Z</time>
      </trkpt>
      <trkpt lat="47.81476" lon="7.10513">
        <ele>351</ele>
        <time>2025-06-09T01:12:55.000Z</time>
      </trkpt>
      <trkpt lat="47.81471" lon="7.1051">
        <ele>351</ele>
        <time>2025-06-09T01:12:59.000Z</time>
      </trkpt>
      <trkpt lat="47.81467" lon="7.1051">
        <ele>351</ele>
        <time>2025-06-09T01:13:03.000Z</time>
      </trkpt>
      <trkpt lat="47.81456" lon="7.10509">
        <ele>351</ele>
        <time>2025-06-09T01:13:11.000Z</time>
      </trkpt>
      <trkpt lat="47.81452" lon="7.10508">
        <ele>351</ele>
        <time>2025-06-09T01:13:15.000Z</time>
      </trkpt>
      <trkpt lat="47.81447" lon="7.10509">
        <ele>350</ele>
        <time>2025-06-09T01:13:19.000Z</time>
      </trkpt>
      <trkpt lat="47.81428" lon="7.10504">
        <ele>349</ele>
        <time>2025-06-09T01:13:33.000Z</time>
      </trkpt>
      <trkpt lat="47.8142" lon="7.10497">
        <ele>349</ele>
        <time>2025-06-09T01:13:40.000Z</time>
      </trkpt>
      <trkpt lat="47.81407" lon="7.10485">
        <ele>348</ele>
        <time>2025-06-09T01:13:52.000Z</time>
      </trkpt>
      <trkpt lat="47.81383" lon="7.10466">
        <ele>346</ele>
        <time>2025-06-09T01:14:14.000Z</time>
      </trkpt>
      <trkpt lat="47.81379" lon="7.10463">
        <ele>346</ele>
        <time>2025-06-09T01:14:18.000Z</time>
      </trkpt>
      <trkpt lat="47.81371" lon="7.10454">
        <ele>346</ele>
        <time>2025-06-09T01:14:27.000Z</time>
      </trkpt>
      <trkpt lat="47.81366" lon="7.10451">
        <ele>346</ele>
        <time>2025-06-09T01:14:31.000Z</time>
      </trkpt>
      <trkpt lat="47.81357" lon="7.10442">
        <ele>347</ele>
        <time>2025-06-09T01:14:40.000Z</time>
      </trkpt>
      <trkpt lat="47.81352" lon="7.10439">
        <ele>346</ele>
        <time>2025-06-09T01:14:44.000Z</time>
      </trkpt>
      <trkpt lat="47.81347" lon="7.10437">
        <ele>346</ele>
        <time>2025-06-09T01:14:52.000Z</time>
      </trkpt>
      <trkpt lat="47.8134" lon="7.10445">
        <ele>345</ele>
        <time>2025-06-09T01:14:57.000Z</time>
      </trkpt>
      <trkpt lat="47.81337" lon="7.10446">
        <ele>345</ele>
        <time>2025-06-09T01:15:01.000Z</time>
      </trkpt>
      <trkpt lat="47.81326" lon="7.10461">
        <ele>344</ele>
        <time>2025-06-09T01:15:13.000Z</time>
      </trkpt>
      <trkpt lat="47.8132" lon="7.10474">
        <ele>343</ele>
        <time>2025-06-09T01:15:20.000Z</time>
      </trkpt>
      <trkpt lat="47.81313" lon="7.10483">
        <ele>343</ele>
        <time>2025-06-09T01:15:26.000Z</time>
      </trkpt>
      <trkpt lat="47.81308" lon="7.10487">
        <ele>343</ele>
        <time>2025-06-09T01:15:31.000Z</time>
      </trkpt>
      <trkpt lat="47.81303" lon="7.1049">
        <ele>343</ele>
        <time>2025-06-09T01:15:35.000Z</time>
      </trkpt>
      <trkpt lat="47.81299" lon="7.10494">
        <ele>342</ele>
        <time>2025-06-09T01:15:39.000Z</time>
      </trkpt>
      <trkpt lat="47.8129" lon="7.10496">
        <ele>342</ele>
        <time>2025-06-09T01:15:46.000Z</time>
      </trkpt>
      <trkpt lat="47.8127" lon="7.105">
        <ele>341</ele>
        <time>2025-06-09T01:16:02.000Z</time>
      </trkpt>
      <trkpt lat="47.81256" lon="7.10496">
        <ele>341</ele>
        <time>2025-06-09T01:16:14.000Z</time>
      </trkpt>
      <trkpt lat="47.81223" lon="7.10473">
        <ele>342</ele>
        <time>2025-06-09T01:16:45.000Z</time>
      </trkpt>
      <trkpt lat="47.81196" lon="7.10468">
        <ele>342</ele>
        <time>2025-06-09T01:17:18.000Z</time>
      </trkpt>
      <trkpt lat="47.81188" lon="7.10466">
        <ele>341</ele>
        <time>2025-06-09T01:17:26.000Z</time>
      </trkpt>
      <trkpt lat="47.81183" lon="7.10464">
        <ele>342</ele>
        <time>2025-06-09T01:17:30.000Z</time>
      </trkpt>
      <trkpt lat="47.81178" lon="7.10461">
        <ele>342</ele>
        <time>2025-06-09T01:17:34.000Z</time>
      </trkpt>
      <trkpt lat="47.81166" lon="7.10449">
        <ele>341</ele>
        <time>2025-06-09T01:17:47.000Z</time>
      </trkpt>
      <trkpt lat="47.81159" lon="7.10435">
        <ele>341</ele>
        <time>2025-06-09T01:17:57.000Z</time>
      </trkpt>
      <trkpt lat="47.81158" lon="7.10428">
        <ele>341</ele>
        <time>2025-06-09T01:18:02.000Z</time>
      </trkpt>
      <trkpt lat="47.81147" lon="7.10404">
        <ele>341</ele>
        <time>2025-06-09T01:18:18.000Z</time>
      </trkpt>
      <trkpt lat="47.81141" lon="7.10383">
        <ele>342</ele>
        <time>2025-06-09T01:18:30.000Z</time>
      </trkpt>
      <trkpt lat="47.81138" lon="7.10378">
        <ele>342</ele>
        <time>2025-06-09T01:18:35.000Z</time>
      </trkpt>
      <trkpt lat="47.81134" lon="7.10372">
        <ele>342</ele>
        <time>2025-06-09T01:18:40.000Z</time>
      </trkpt>
      <trkpt lat="47.81132" lon="7.10358">
        <ele>342</ele>
        <time>2025-06-09T01:18:48.000Z</time>
      </trkpt>
      <trkpt lat="47.81101" lon="7.10334">
        <ele>343</ele>
        <time>2025-06-09T01:19:19.000Z</time>
      </trkpt>
      <trkpt lat="47.81089" lon="7.10322">
        <ele>343</ele>
        <time>2025-06-09T01:19:32.000Z</time>
      </trkpt>
      <trkpt lat="47.81083" lon="7.10314">
        <ele>344</ele>
        <time>2025-06-09T01:19:40.000Z</time>
      </trkpt>
      <trkpt lat="47.81079" lon="7.1031">
        <ele>343</ele>
        <time>2025-06-09T01:19:44.000Z</time>
      </trkpt>
      <trkpt lat="47.81066" lon="7.10298">
        <ele>344</ele>
        <time>2025-06-09T01:19:55.000Z</time>
      </trkpt>
      <trkpt lat="47.81063" lon="7.10284">
        <ele>344</ele>
        <time>2025-06-09T01:20:03.000Z</time>
      </trkpt>
      <trkpt lat="47.8106" lon="7.10279">
        <ele>344</ele>
        <time>2025-06-09T01:20:07.000Z</time>
      </trkpt>
      <trkpt lat="47.81059" lon="7.10272">
        <ele>344</ele>
        <time>2025-06-09T01:20:33.000Z</time>
      </trkpt>
      <trkpt lat="47.81058" lon="7.10262">
        <ele>343</ele>
        <time>2025-06-09T01:21:04.000Z</time>
      </trkpt>
      <trkpt lat="47.81055" lon="7.1026">
        <ele>343</ele>
        <time>2025-06-09T01:21:38.000Z</time>
      </trkpt>
      <trkpt lat="47.8105" lon="7.10258">
        <ele>343</ele>
        <time>2025-06-09T01:21:42.000Z</time>
      </trkpt>
      <trkpt lat="47.81045" lon="7.10258">
        <ele>343</ele>
        <time>2025-06-09T01:21:45.000Z</time>
      </trkpt>
      <trkpt lat="47.81042" lon="7.10252">
        <ele>343</ele>
        <time>2025-06-09T01:21:49.000Z</time>
      </trkpt>
      <trkpt lat="47.81042" lon="7.10245">
        <ele>343</ele>
        <time>2025-06-09T01:21:51.000Z</time>
      </trkpt>
      <trkpt lat="47.81042" lon="7.10236">
        <ele>344</ele>
        <time>2025-06-09T01:22:15.000Z</time>
      </trkpt>
      <trkpt lat="47.8104" lon="7.10229">
        <ele>344</ele>
        <time>2025-06-09T01:22:20.000Z</time>
      </trkpt>
      <trkpt lat="47.81035" lon="7.10225">
        <ele>343</ele>
        <time>2025-06-09T01:22:24.000Z</time>
      </trkpt>
      <trkpt lat="47.81032" lon="7.1022">
        <ele>343</ele>
        <time>2025-06-09T01:22:29.000Z</time>
      </trkpt>
      <trkpt lat="47.81037" lon="7.10213">
        <ele>343</ele>
        <time>2025-06-09T01:22:49.000Z</time>
      </trkpt>
      <trkpt lat="47.81041" lon="7.10211">
        <ele>343</ele>
        <time>2025-06-09T01:22:52.000Z</time>
      </trkpt>
      <trkpt lat="47.81045" lon="7.10206">
        <ele>344</ele>
        <time>2025-06-09T01:22:58.000Z</time>
      </trkpt>
      <trkpt lat="47.81049" lon="7.10203">
        <ele>344</ele>
        <time>2025-06-09T01:23:02.000Z</time>
      </trkpt>
      <trkpt lat="47.81053" lon="7.10194">
        <ele>343</ele>
        <time>2025-06-09T01:23:11.000Z</time>
      </trkpt>
      <trkpt lat="47.81044" lon="7.10193">
        <ele>343</ele>
        <time>2025-06-09T01:23:22.000Z</time>
      </trkpt>
      <trkpt lat="47.81041" lon="7.10197">
        <ele>344</ele>
        <time>2025-06-09T01:23:26.000Z</time>
      </trkpt>
      <trkpt lat="47.81036" lon="7.102">
        <ele>343</ele>
        <time>2025-06-09T01:23:31.000Z</time>
      </trkpt>
      <trkpt lat="47.81042" lon="7.10215">
        <ele>344</ele>
        <time>2025-06-09T01:23:58.000Z</time>
      </trkpt>
      <trkpt lat="47.81038" lon="7.10227">
        <ele>344</ele>
        <time>2025-06-09T01:24:03.000Z</time>
      </trkpt>
      <trkpt lat="47.81037" lon="7.10225">
        <ele>342</ele>
        <time>2025-06-09T01:25:08.000Z</time>
      </trkpt>
      <trkpt lat="47.81043" lon="7.10231">
        <ele>342</ele>
        <time>2025-06-09T01:25:20.000Z</time>
      </trkpt>
      <trkpt lat="47.81043" lon="7.10224">
        <ele>342</ele>
        <time>2025-06-09T01:25:50.000Z</time>
      </trkpt>
      <trkpt lat="47.8116" lon="7.10148">
        <ele>338</ele>
        <time>2025-06-09T01:48:28.000Z</time>
      </trkpt>
      <trkpt lat="47.81175" lon="7.10155">
        <ele>339</ele>
        <time>2025-06-09T01:48:42.000Z</time>
      </trkpt>
      <trkpt lat="47.81179" lon="7.10159">
        <ele>338</ele>
        <time>2025-06-09T01:48:46.000Z</time>
      </trkpt>
      <trkpt lat="47.81187" lon="7.10161">
        <ele>339</ele>
        <time>2025-06-09T01:48:55.000Z</time>
      </trkpt>
      <trkpt lat="47.81191" lon="7.10162">
        <ele>339</ele>
        <time>2025-06-09T01:49:00.000Z</time>
      </trkpt>
      <trkpt lat="47.81197" lon="7.10162">
        <ele>338</ele>
        <time>2025-06-09T01:49:04.000Z</time>
      </trkpt>
      <trkpt lat="47.81207" lon="7.10151">
        <ele>339</ele>
        <time>2025-06-09T01:49:09.000Z</time>
      </trkpt>
      <trkpt lat="47.81213" lon="7.10151">
        <ele>339</ele>
        <time>2025-06-09T01:49:14.000Z</time>
      </trkpt>
      <trkpt lat="47.81222" lon="7.10154">
        <ele>339</ele>
        <time>2025-06-09T01:49:18.000Z</time>
      </trkpt>
      <trkpt lat="47.81226" lon="7.10155">
        <ele>339</ele>
        <time>2025-06-09T01:49:20.000Z</time>
      </trkpt>
      <trkpt lat="47.81233" lon="7.1016">
        <ele>339</ele>
        <time>2025-06-09T01:49:29.000Z</time>
      </trkpt>
      <trkpt lat="47.81238" lon="7.10162">
        <ele>339</ele>
        <time>2025-06-09T01:49:34.000Z</time>
      </trkpt>
      <trkpt lat="47.81241" lon="7.10166">
        <ele>340</ele>
        <time>2025-06-09T01:49:41.000Z</time>
      </trkpt>
      <trkpt lat="47.81235" lon="7.1017">
        <ele>341</ele>
        <time>2025-06-09T01:49:57.000Z</time>
      </trkpt>
      <trkpt lat="47.81226" lon="7.10169">
        <ele>340</ele>
        <time>2025-06-09T01:50:04.000Z</time>
      </trkpt>
      <trkpt lat="47.81216" lon="7.10173">
        <ele>339</ele>
        <time>2025-06-09T01:50:12.000Z</time>
      </trkpt>
      <trkpt lat="47.81205" lon="7.1017">
        <ele>339</ele>
        <time>2025-06-09T01:50:22.000Z</time>
      </trkpt>
      <trkpt lat="47.81199" lon="7.10167">
        <ele>340</ele>
        <time>2025-06-09T01:50:27.000Z</time>
      </trkpt>
      <trkpt lat="47.81188" lon="7.10163">
        <ele>340</ele>
        <time>2025-06-09T01:50:38.000Z</time>
      </trkpt>
      <trkpt lat="47.81177" lon="7.10164">
        <ele>340</ele>
        <time>2025-06-09T01:50:47.000Z</time>
      </trkpt>
      <trkpt lat="47.81169" lon="7.10162">
        <ele>340</ele>
        <time>2025-06-09T01:50:56.000Z</time>
      </trkpt>
      <trkpt lat="47.81164" lon="7.10165">
        <ele>340</ele>
        <time>2025-06-09T01:51:00.000Z</time>
      </trkpt>
      <trkpt lat="47.81156" lon="7.10166">
        <ele>340</ele>
        <time>2025-06-09T01:51:05.000Z</time>
      </trkpt>
      <trkpt lat="47.81146" lon="7.10165">
        <ele>340</ele>
        <time>2025-06-09T01:51:14.000Z</time>
      </trkpt>
      <trkpt lat="47.81139" lon="7.10159">
        <ele>340</ele>
        <time>2025-06-09T01:51:18.000Z</time>
      </trkpt>
      <trkpt lat="47.81135" lon="7.10158">
        <ele>340</ele>
        <time>2025-06-09T01:51:21.000Z</time>
      </trkpt>
      <trkpt lat="47.81129" lon="7.10162">
        <ele>341</ele>
        <time>2025-06-09T01:51:23.000Z</time>
      </trkpt>
      <trkpt lat="47.81126" lon="7.10167">
        <ele>341</ele>
        <time>2025-06-09T01:51:25.000Z</time>
      </trkpt>
      <trkpt lat="47.81118" lon="7.10167">
        <ele>341</ele>
        <time>2025-06-09T01:51:31.000Z</time>
      </trkpt>
      <trkpt lat="47.81115" lon="7.10176">
        <ele>341</ele>
        <time>2025-06-09T01:51:34.000Z</time>
      </trkpt>
      <trkpt lat="47.81115" lon="7.10191">
        <ele>342</ele>
        <time>2025-06-09T01:51:38.000Z</time>
      </trkpt>
      <trkpt lat="47.81116" lon="7.10197">
        <ele>342</ele>
        <time>2025-06-09T01:51:43.000Z</time>
      </trkpt>
      <trkpt lat="47.81109" lon="7.10196">
        <ele>342</ele>
        <time>2025-06-09T01:51:51.000Z</time>
      </trkpt>
      <trkpt lat="47.81105" lon="7.10199">
        <ele>342</ele>
        <time>2025-06-09T01:51:55.000Z</time>
      </trkpt>
      <trkpt lat="47.81101" lon="7.10204">
        <ele>342</ele>
        <time>2025-06-09T01:52:00.000Z</time>
      </trkpt>
      <trkpt lat="47.81094" lon="7.10212">
        <ele>342</ele>
        <time>2025-06-09T01:52:08.000Z</time>
      </trkpt>
      <trkpt lat="47.81089" lon="7.10211">
        <ele>342</ele>
        <time>2025-06-09T01:52:12.000Z</time>
      </trkpt>
      <trkpt lat="47.81071" lon="7.10199">
        <ele>343</ele>
        <time>2025-06-09T01:52:23.000Z</time>
      </trkpt>
      <trkpt lat="47.81065" lon="7.10198">
        <ele>344</ele>
        <time>2025-06-09T01:52:28.000Z</time>
      </trkpt>
      <trkpt lat="47.81061" lon="7.10199">
        <ele>344</ele>
        <time>2025-06-09T01:52:32.000Z</time>
      </trkpt>
      <trkpt lat="47.81056" lon="7.10203">
        <ele>344</ele>
        <time>2025-06-09T01:52:36.000Z</time>
      </trkpt>
      <trkpt lat="47.81051" lon="7.10204">
        <ele>344</ele>
        <time>2025-06-09T01:52:40.000Z</time>
      </trkpt>
      <trkpt lat="47.81047" lon="7.10207">
        <ele>344</ele>
        <time>2025-06-09T01:52:45.000Z</time>
      </trkpt>
      <trkpt lat="47.8104" lon="7.10219">
        <ele>345</ele>
        <time>2025-06-09T01:52:52.000Z</time>
      </trkpt>
      <trkpt lat="47.81035" lon="7.10219">
        <ele>344</ele>
        <time>2025-06-09T01:52:56.000Z</time>
      </trkpt>
      <trkpt lat="47.81032" lon="7.10223">
        <ele>345</ele>
        <time>2025-06-09T01:53:01.000Z</time>
      </trkpt>
      <trkpt lat="47.81029" lon="7.1023">
        <ele>345</ele>
        <time>2025-06-09T01:53:05.000Z</time>
      </trkpt>
      <trkpt lat="47.81013" lon="7.1022">
        <ele>345</ele>
        <time>2025-06-09T01:53:15.000Z</time>
      </trkpt>
      <trkpt lat="47.81009" lon="7.10218">
        <ele>345</ele>
        <time>2025-06-09T01:53:17.000Z</time>
      </trkpt>
      <trkpt lat="47.81004" lon="7.10217">
        <ele>344</ele>
        <time>2025-06-09T01:53:21.000Z</time>
      </trkpt>
      <trkpt lat="47.80999" lon="7.10216">
        <ele>344</ele>
        <time>2025-06-09T01:53:25.000Z</time>
      </trkpt>
      <trkpt lat="47.80992" lon="7.10209">
        <ele>344</ele>
        <time>2025-06-09T01:53:32.000Z</time>
      </trkpt>
      <trkpt lat="47.80982" lon="7.10207">
        <ele>345</ele>
        <time>2025-06-09T01:53:38.000Z</time>
      </trkpt>
      <trkpt lat="47.80984" lon="7.10198">
        <ele>345</ele>
        <time>2025-06-09T01:53:41.000Z</time>
      </trkpt>
      <trkpt lat="47.80973" lon="7.10191">
        <ele>344</ele>
        <time>2025-06-09T01:53:55.000Z</time>
      </trkpt>
      <trkpt lat="47.80968" lon="7.10198">
        <ele>344</ele>
        <time>2025-06-09T01:53:59.000Z</time>
      </trkpt>
      <trkpt lat="47.80965" lon="7.10204">
        <ele>344</ele>
        <time>2025-06-09T01:54:03.000Z</time>
      </trkpt>
      <trkpt lat="47.8096" lon="7.10203">
        <ele>344</ele>
        <time>2025-06-09T01:54:06.000Z</time>
      </trkpt>
      <trkpt lat="47.80955" lon="7.10197">
        <ele>344</ele>
        <time>2025-06-09T01:54:13.000Z</time>
      </trkpt>
      <trkpt lat="47.8095" lon="7.10196">
        <ele>344</ele>
        <time>2025-06-09T01:54:17.000Z</time>
      </trkpt>
      <trkpt lat="47.80918" lon="7.10187">
        <ele>345</ele>
        <time>2025-06-09T01:54:43.000Z</time>
      </trkpt>
      <trkpt lat="47.80913" lon="7.10188">
        <ele>345</ele>
        <time>2025-06-09T01:54:46.000Z</time>
      </trkpt>
      <trkpt lat="47.80902" lon="7.10188">
        <ele>345</ele>
        <time>2025-06-09T01:54:55.000Z</time>
      </trkpt>
      <trkpt lat="47.80889" lon="7.10183">
        <ele>345</ele>
        <time>2025-06-09T01:55:08.000Z</time>
      </trkpt>
      <trkpt lat="47.80884" lon="7.10184">
        <ele>345</ele>
        <time>2025-06-09T01:55:12.000Z</time>
      </trkpt>
      <trkpt lat="47.8088" lon="7.10183">
        <ele>345</ele>
        <time>2025-06-09T01:55:16.000Z</time>
      </trkpt>
      <trkpt lat="47.80875" lon="7.10181">
        <ele>344</ele>
        <time>2025-06-09T01:55:21.000Z</time>
      </trkpt>
      <trkpt lat="47.8087" lon="7.1018">
        <ele>345</ele>
        <time>2025-06-09T01:55:25.000Z</time>
      </trkpt>
      <trkpt lat="47.80865" lon="7.10178">
        <ele>345</ele>
        <time>2025-06-09T01:55:29.000Z</time>
      </trkpt>
      <trkpt lat="47.80855" lon="7.10176">
        <ele>345</ele>
        <time>2025-06-09T01:55:36.000Z</time>
      </trkpt>
      <trkpt lat="47.80846" lon="7.10174">
        <ele>345</ele>
        <time>2025-06-09T01:55:42.000Z</time>
      </trkpt>
      <trkpt lat="47.80841" lon="7.10175">
        <ele>345</ele>
        <time>2025-06-09T01:55:46.000Z</time>
      </trkpt>
      <trkpt lat="47.80833" lon="7.1018">
        <ele>345</ele>
        <time>2025-06-09T01:55:54.000Z</time>
      </trkpt>
      <trkpt lat="47.80827" lon="7.10178">
        <ele>345</ele>
        <time>2025-06-09T01:55:58.000Z</time>
      </trkpt>
      <trkpt lat="47.80822" lon="7.10171">
        <ele>345</ele>
        <time>2025-06-09T01:56:00.000Z</time>
      </trkpt>
      <trkpt lat="47.80818" lon="7.1017">
        <ele>345</ele>
        <time>2025-06-09T01:56:03.000Z</time>
      </trkpt>
      <trkpt lat="47.80814" lon="7.10169">
        <ele>346</ele>
        <time>2025-06-09T01:56:06.000Z</time>
      </trkpt>
      <trkpt lat="47.80804" lon="7.10168">
        <ele>345</ele>
        <time>2025-06-09T01:56:14.000Z</time>
      </trkpt>
      <trkpt lat="47.80794" lon="7.10165">
        <ele>346</ele>
        <time>2025-06-09T01:56:21.000Z</time>
      </trkpt>
      <trkpt lat="47.80789" lon="7.10163">
        <ele>346</ele>
        <time>2025-06-09T01:56:25.000Z</time>
      </trkpt>
      <trkpt lat="47.80784" lon="7.1016">
        <ele>346</ele>
        <time>2025-06-09T01:56:30.000Z</time>
      </trkpt>
      <trkpt lat="47.8078" lon="7.1016">
        <ele>346</ele>
        <time>2025-06-09T01:56:33.000Z</time>
      </trkpt>
      <trkpt lat="47.80775" lon="7.10158">
        <ele>346</ele>
        <time>2025-06-09T01:56:37.000Z</time>
      </trkpt>
      <trkpt lat="47.80765" lon="7.10154">
        <ele>346</ele>
        <time>2025-06-09T01:56:45.000Z</time>
      </trkpt>
      <trkpt lat="47.80736" lon="7.10151">
        <ele>347</ele>
        <time>2025-06-09T01:57:08.000Z</time>
      </trkpt>
      <trkpt lat="47.80717" lon="7.10146">
        <ele>347</ele>
        <time>2025-06-09T01:57:26.000Z</time>
      </trkpt>
      <trkpt lat="47.80698" lon="7.10142">
        <ele>348</ele>
        <time>2025-06-09T01:57:41.000Z</time>
      </trkpt>
      <trkpt lat="47.80693" lon="7.10138">
        <ele>348</ele>
        <time>2025-06-09T01:57:45.000Z</time>
      </trkpt>
      <trkpt lat="47.80689" lon="7.10134">
        <ele>348</ele>
        <time>2025-06-09T01:57:47.000Z</time>
      </trkpt>
      <trkpt lat="47.80688" lon="7.10127">
        <ele>349</ele>
        <time>2025-06-09T01:57:50.000Z</time>
      </trkpt>
      <trkpt lat="47.80686" lon="7.10118">
        <ele>348</ele>
        <time>2025-06-09T01:57:54.000Z</time>
      </trkpt>
      <trkpt lat="47.80685" lon="7.10112">
        <ele>349</ele>
        <time>2025-06-09T01:57:57.000Z</time>
      </trkpt>
      <trkpt lat="47.80684" lon="7.10106">
        <ele>348</ele>
        <time>2025-06-09T01:58:00.000Z</time>
      </trkpt>
      <trkpt lat="47.80681" lon="7.101">
        <ele>349</ele>
        <time>2025-06-09T01:58:03.000Z</time>
      </trkpt>
      <trkpt lat="47.80679" lon="7.10085">
        <ele>349</ele>
        <time>2025-06-09T01:58:11.000Z</time>
      </trkpt>
      <trkpt lat="47.80678" lon="7.10079">
        <ele>349</ele>
        <time>2025-06-09T01:58:14.000Z</time>
      </trkpt>
      <trkpt lat="47.80665" lon="7.10024">
        <ele>350</ele>
        <time>2025-06-09T01:58:41.000Z</time>
      </trkpt>
      <trkpt lat="47.80659" lon="7.10012">
        <ele>349</ele>
        <time>2025-06-09T01:58:49.000Z</time>
      </trkpt>
      <trkpt lat="47.80657" lon="7.10005">
        <ele>350</ele>
        <time>2025-06-09T01:58:53.000Z</time>
      </trkpt>
      <trkpt lat="47.80654" lon="7.09998">
        <ele>351</ele>
        <time>2025-06-09T01:58:58.000Z</time>
      </trkpt>
      <trkpt lat="47.80649" lon="7.09987">
        <ele>350</ele>
        <time>2025-06-09T01:59:07.000Z</time>
      </trkpt>
      <trkpt lat="47.80646" lon="7.09981">
        <ele>351</ele>
        <time>2025-06-09T01:59:11.000Z</time>
      </trkpt>
      <trkpt lat="47.80642" lon="7.09976">
        <ele>351</ele>
        <time>2025-06-09T01:59:15.000Z</time>
      </trkpt>
      <trkpt lat="47.80636" lon="7.09966">
        <ele>351</ele>
        <time>2025-06-09T01:59:23.000Z</time>
      </trkpt>
      <trkpt lat="47.80631" lon="7.09953">
        <ele>352</ele>
        <time>2025-06-09T01:59:31.000Z</time>
      </trkpt>
      <trkpt lat="47.80627" lon="7.09947">
        <ele>352</ele>
        <time>2025-06-09T01:59:35.000Z</time>
      </trkpt>
      <trkpt lat="47.80625" lon="7.0994">
        <ele>352</ele>
        <time>2025-06-09T01:59:39.000Z</time>
      </trkpt>
      <trkpt lat="47.80608" lon="7.09893">
        <ele>353</ele>
        <time>2025-06-09T02:00:06.000Z</time>
      </trkpt>
      <trkpt lat="47.80606" lon="7.09885">
        <ele>353</ele>
        <time>2025-06-09T02:00:10.000Z</time>
      </trkpt>
      <trkpt lat="47.80605" lon="7.09877">
        <ele>354</ele>
        <time>2025-06-09T02:00:14.000Z</time>
      </trkpt>
      <trkpt lat="47.80601" lon="7.09861">
        <ele>354</ele>
        <time>2025-06-09T02:00:22.000Z</time>
      </trkpt>
      <trkpt lat="47.806" lon="7.09853">
        <ele>355</ele>
        <time>2025-06-09T02:00:26.000Z</time>
      </trkpt>
      <trkpt lat="47.80599" lon="7.09845">
        <ele>354</ele>
        <time>2025-06-09T02:00:30.000Z</time>
      </trkpt>
      <trkpt lat="47.80592" lon="7.09777">
        <ele>356</ele>
        <time>2025-06-09T02:01:03.000Z</time>
      </trkpt>
      <trkpt lat="47.80585" lon="7.09718">
        <ele>358</ele>
        <time>2025-06-09T02:01:35.000Z</time>
      </trkpt>
      <trkpt lat="47.80583" lon="7.09704">
        <ele>358</ele>
        <time>2025-06-09T02:01:43.000Z</time>
      </trkpt>
      <trkpt lat="47.80581" lon="7.09697">
        <ele>358</ele>
        <time>2025-06-09T02:01:47.000Z</time>
      </trkpt>
      <trkpt lat="47.80579" lon="7.0969">
        <ele>359</ele>
        <time>2025-06-09T02:01:51.000Z</time>
      </trkpt>
      <trkpt lat="47.80577" lon="7.09675">
        <ele>359</ele>
        <time>2025-06-09T02:01:58.000Z</time>
      </trkpt>
      <trkpt lat="47.80576" lon="7.09667">
        <ele>359</ele>
        <time>2025-06-09T02:02:02.000Z</time>
      </trkpt>
      <trkpt lat="47.80574" lon="7.09661">
        <ele>360</ele>
        <time>2025-06-09T02:02:06.000Z</time>
      </trkpt>
      <trkpt lat="47.8057" lon="7.0964">
        <ele>360</ele>
        <time>2025-06-09T02:02:17.000Z</time>
      </trkpt>
      <trkpt lat="47.80563" lon="7.09603">
        <ele>361</ele>
        <time>2025-06-09T02:02:37.000Z</time>
      </trkpt>
      <trkpt lat="47.80561" lon="7.09587">
        <ele>361</ele>
        <time>2025-06-09T02:02:45.000Z</time>
      </trkpt>
      <trkpt lat="47.8056" lon="7.0958">
        <ele>362</ele>
        <time>2025-06-09T02:02:49.000Z</time>
      </trkpt>
      <trkpt lat="47.8056" lon="7.09572">
        <ele>362</ele>
        <time>2025-06-09T02:02:53.000Z</time>
      </trkpt>
      <trkpt lat="47.80559" lon="7.09565">
        <ele>363</ele>
        <time>2025-06-09T02:02:58.000Z</time>
      </trkpt>
      <trkpt lat="47.80558" lon="7.09558">
        <ele>363</ele>
        <time>2025-06-09T02:03:02.000Z</time>
      </trkpt>
      <trkpt lat="47.80561" lon="7.09551">
        <ele>363</ele>
        <time>2025-06-09T02:03:06.000Z</time>
      </trkpt>
      <trkpt lat="47.80563" lon="7.09483">
        <ele>364</ele>
        <time>2025-06-09T02:03:38.000Z</time>
      </trkpt>
      <trkpt lat="47.80563" lon="7.09461">
        <ele>364</ele>
        <time>2025-06-09T02:03:49.000Z</time>
      </trkpt>
      <trkpt lat="47.80567" lon="7.09398">
        <ele>365</ele>
        <time>2025-06-09T02:04:19.000Z</time>
      </trkpt>
      <trkpt lat="47.80567" lon="7.09383">
        <ele>365</ele>
        <time>2025-06-09T02:04:26.000Z</time>
      </trkpt>
      <trkpt lat="47.80568" lon="7.09376">
        <ele>366</ele>
        <time>2025-06-09T02:04:29.000Z</time>
      </trkpt>
      <trkpt lat="47.8057" lon="7.09362">
        <ele>366</ele>
        <time>2025-06-09T02:04:37.000Z</time>
      </trkpt>
      <trkpt lat="47.80583" lon="7.09305">
        <ele>367</ele>
        <time>2025-06-09T02:05:09.000Z</time>
      </trkpt>
      <trkpt lat="47.806" lon="7.09248">
        <ele>369</ele>
        <time>2025-06-09T02:05:41.000Z</time>
      </trkpt>
      <trkpt lat="47.80602" lon="7.09241">
        <ele>369</ele>
        <time>2025-06-09T02:05:45.000Z</time>
      </trkpt>
      <trkpt lat="47.80623" lon="7.09183">
        <ele>371</ele>
        <time>2025-06-09T02:06:17.000Z</time>
      </trkpt>
      <trkpt lat="47.80643" lon="7.09131">
        <ele>374</ele>
        <time>2025-06-09T02:06:48.000Z</time>
      </trkpt>
      <trkpt lat="47.80646" lon="7.09125">
        <ele>374</ele>
        <time>2025-06-09T02:06:52.000Z</time>
      </trkpt>
      <trkpt lat="47.80668" lon="7.09071">
        <ele>376</ele>
        <time>2025-06-09T02:07:25.000Z</time>
      </trkpt>
      <trkpt lat="47.80679" lon="7.09045">
        <ele>377</ele>
        <time>2025-06-09T02:07:41.000Z</time>
      </trkpt>
      <trkpt lat="47.80682" lon="7.09038">
        <ele>377</ele>
        <time>2025-06-09T02:07:45.000Z</time>
      </trkpt>
      <trkpt lat="47.80685" lon="7.09033">
        <ele>378</ele>
        <time>2025-06-09T02:07:49.000Z</time>
      </trkpt>
      <trkpt lat="47.80691" lon="7.09014">
        <ele>378</ele>
        <time>2025-06-09T02:08:00.000Z</time>
      </trkpt>
      <trkpt lat="47.80697" lon="7.09002">
        <ele>379</ele>
        <time>2025-06-09T02:08:08.000Z</time>
      </trkpt>
      <trkpt lat="47.80707" lon="7.08969">
        <ele>380</ele>
        <time>2025-06-09T02:08:27.000Z</time>
      </trkpt>
      <trkpt lat="47.80716" lon="7.0894">
        <ele>381</ele>
        <time>2025-06-09T02:08:43.000Z</time>
      </trkpt>
      <trkpt lat="47.80719" lon="7.08927">
        <ele>381</ele>
        <time>2025-06-09T02:08:50.000Z</time>
      </trkpt>
      <trkpt lat="47.80721" lon="7.08904">
        <ele>382</ele>
        <time>2025-06-09T02:09:02.000Z</time>
      </trkpt>
      <trkpt lat="47.80731" lon="7.08845">
        <ele>383</ele>
        <time>2025-06-09T02:09:35.000Z</time>
      </trkpt>
      <trkpt lat="47.80743" lon="7.08791">
        <ele>385</ele>
        <time>2025-06-09T02:10:06.000Z</time>
      </trkpt>
      <trkpt lat="47.80751" lon="7.08749">
        <ele>387</ele>
        <time>2025-06-09T02:10:30.000Z</time>
      </trkpt>
      <trkpt lat="47.80744" lon="7.08747">
        <ele>387</ele>
        <time>2025-06-09T02:10:36.000Z</time>
      </trkpt>
      <trkpt lat="47.80713" lon="7.08751">
        <ele>387</ele>
        <time>2025-06-09T02:10:59.000Z</time>
      </trkpt>
      <trkpt lat="47.80708" lon="7.0875">
        <ele>387</ele>
        <time>2025-06-09T02:11:03.000Z</time>
      </trkpt>
      <trkpt lat="47.80703" lon="7.08748">
        <ele>387</ele>
        <time>2025-06-09T02:11:08.000Z</time>
      </trkpt>
      <trkpt lat="47.80698" lon="7.08743">
        <ele>387</ele>
        <time>2025-06-09T02:11:13.000Z</time>
      </trkpt>
      <trkpt lat="47.80688" lon="7.0874">
        <ele>388</ele>
        <time>2025-06-09T02:11:22.000Z</time>
      </trkpt>
      <trkpt lat="47.80683" lon="7.08741">
        <ele>389</ele>
        <time>2025-06-09T02:11:26.000Z</time>
      </trkpt>
      <trkpt lat="47.80679" lon="7.0874">
        <ele>389</ele>
        <time>2025-06-09T02:11:30.000Z</time>
      </trkpt>
      <trkpt lat="47.80681" lon="7.08732">
        <ele>390</ele>
        <time>2025-06-09T02:12:14.000Z</time>
      </trkpt>
      <trkpt lat="47.80689" lon="7.08741">
        <ele>390</ele>
        <time>2025-06-09T02:12:45.000Z</time>
      </trkpt>
      <trkpt lat="47.80696" lon="7.08734">
        <ele>390</ele>
        <time>2025-06-09T02:12:51.000Z</time>
      </trkpt>
      <trkpt lat="47.80689" lon="7.08728">
        <ele>390</ele>
        <time>2025-06-09T02:12:54.000Z</time>
      </trkpt>
      <trkpt lat="47.80686" lon="7.08726">
        <ele>390</ele>
        <time>2025-06-09T02:13:03.000Z</time>
      </trkpt>
      <trkpt lat="47.80695" lon="7.08717">
        <ele>388</ele>
        <time>2025-06-09T02:13:26.000Z</time>
      </trkpt>
      <trkpt lat="47.80694" lon="7.08703">
        <ele>387</ele>
        <time>2025-06-09T02:13:34.000Z</time>
      </trkpt>
      <trkpt lat="47.80696" lon="7.08695">
        <ele>387</ele>
        <time>2025-06-09T02:13:39.000Z</time>
      </trkpt>
      <trkpt lat="47.80694" lon="7.08679">
        <ele>387</ele>
        <time>2025-06-09T02:13:52.000Z</time>
      </trkpt>
      <trkpt lat="47.80695" lon="7.08665">
        <ele>387</ele>
        <time>2025-06-09T02:14:01.000Z</time>
      </trkpt>
      <trkpt lat="47.80695" lon="7.08647">
        <ele>388</ele>
        <time>2025-06-09T02:14:13.000Z</time>
      </trkpt>
      <trkpt lat="47.80694" lon="7.08614">
        <ele>388</ele>
        <time>2025-06-09T02:14:35.000Z</time>
      </trkpt>
      <trkpt lat="47.80694" lon="7.08606">
        <ele>388</ele>
        <time>2025-06-09T02:14:43.000Z</time>
      </trkpt>
      <trkpt lat="47.80691" lon="7.08599">
        <ele>388</ele>
        <time>2025-06-09T02:14:56.000Z</time>
      </trkpt>
      <trkpt lat="47.80682" lon="7.08579">
        <ele>391</ele>
        <time>2025-06-09T02:15:18.000Z</time>
      </trkpt>
      <trkpt lat="47.8069" lon="7.08571">
        <ele>391</ele>
        <time>2025-06-09T02:15:23.000Z</time>
      </trkpt>
      <trkpt lat="47.80695" lon="7.08567">
        <ele>390</ele>
        <time>2025-06-09T02:15:39.000Z</time>
      </trkpt>
      <trkpt lat="47.8069" lon="7.08561">
        <ele>392</ele>
        <time>2025-06-09T02:15:52.000Z</time>
      </trkpt>
      <trkpt lat="47.80687" lon="7.08544">
        <ele>394</ele>
        <time>2025-06-09T02:16:06.000Z</time>
      </trkpt>
      <trkpt lat="47.80686" lon="7.08555">
        <ele>397</ele>
        <time>2025-06-09T02:16:23.000Z</time>
      </trkpt>
      <trkpt lat="47.80682" lon="7.08561">
        <ele>399</ele>
        <time>2025-06-09T02:16:31.000Z</time>
      </trkpt>
      <trkpt lat="47.80682" lon="7.08569">
        <ele>399</ele>
        <time>2025-06-09T02:16:37.000Z</time>
      </trkpt>
      <trkpt lat="47.8068" lon="7.08577">
        <ele>401</ele>
        <time>2025-06-09T02:16:43.000Z</time>
      </trkpt>
      <trkpt lat="47.80675" lon="7.08572">
        <ele>402</ele>
        <time>2025-06-09T02:16:54.000Z</time>
      </trkpt>
      <trkpt lat="47.80671" lon="7.08567">
        <ele>403</ele>
        <time>2025-06-09T02:16:57.000Z</time>
      </trkpt>
      <trkpt lat="47.80667" lon="7.08558">
        <ele>405</ele>
        <time>2025-06-09T02:17:07.000Z</time>
      </trkpt>
      <trkpt lat="47.80665" lon="7.08552">
        <ele>406</ele>
        <time>2025-06-09T02:17:22.000Z</time>
      </trkpt>
      <trkpt lat="47.80666" lon="7.08545">
        <ele>407</ele>
        <time>2025-06-09T02:17:27.000Z</time>
      </trkpt>
      <trkpt lat="47.8066" lon="7.08542">
        <ele>408</ele>
        <time>2025-06-09T02:17:32.000Z</time>
      </trkpt>
      <trkpt lat="47.80662" lon="7.08551">
        <ele>409</ele>
        <time>2025-06-09T02:17:38.000Z</time>
      </trkpt>
      <trkpt lat="47.80662" lon="7.08559">
        <ele>410</ele>
        <time>2025-06-09T02:17:43.000Z</time>
      </trkpt>
      <trkpt lat="47.80656" lon="7.08578">
        <ele>411</ele>
        <time>2025-06-09T02:17:58.000Z</time>
      </trkpt>
      <trkpt lat="47.80648" lon="7.08582">
        <ele>413</ele>
        <time>2025-06-09T02:18:08.000Z</time>
      </trkpt>
      <trkpt lat="47.80645" lon="7.08576">
        <ele>413</ele>
        <time>2025-06-09T02:18:11.000Z</time>
      </trkpt>
      <trkpt lat="47.80644" lon="7.08568">
        <ele>414</ele>
        <time>2025-06-09T02:18:14.000Z</time>
      </trkpt>
      <trkpt lat="47.80645" lon="7.08562">
        <ele>414</ele>
        <time>2025-06-09T02:18:18.000Z</time>
      </trkpt>
      <trkpt lat="47.8064" lon="7.0855">
        <ele>415</ele>
        <time>2025-06-09T02:18:27.000Z</time>
      </trkpt>
      <trkpt lat="47.80638" lon="7.08544">
        <ele>416</ele>
        <time>2025-06-09T02:18:32.000Z</time>
      </trkpt>
      <trkpt lat="47.80638" lon="7.08534">
        <ele>417</ele>
        <time>2025-06-09T02:18:39.000Z</time>
      </trkpt>
      <trkpt lat="47.80635" lon="7.08525">
        <ele>418</ele>
        <time>2025-06-09T02:18:45.000Z</time>
      </trkpt>
      <trkpt lat="47.80634" lon="7.08518">
        <ele>418</ele>
        <time>2025-06-09T02:18:48.000Z</time>
      </trkpt>
      <trkpt lat="47.80636" lon="7.08511">
        <ele>419</ele>
        <time>2025-06-09T02:18:52.000Z</time>
      </trkpt>
      <trkpt lat="47.80637" lon="7.08503">
        <ele>420</ele>
        <time>2025-06-09T02:18:57.000Z</time>
      </trkpt>
      <trkpt lat="47.80636" lon="7.08496">
        <ele>420</ele>
        <time>2025-06-09T02:19:01.000Z</time>
      </trkpt>
      <trkpt lat="47.80637" lon="7.08485">
        <ele>421</ele>
        <time>2025-06-09T02:19:10.000Z</time>
      </trkpt>
      <trkpt lat="47.80636" lon="7.08476">
        <ele>422</ele>
        <time>2025-06-09T02:19:13.000Z</time>
      </trkpt>
      <trkpt lat="47.80633" lon="7.08471">
        <ele>422</ele>
        <time>2025-06-09T02:19:15.000Z</time>
      </trkpt>
      <trkpt lat="47.80629" lon="7.08468">
        <ele>423</ele>
        <time>2025-06-09T02:19:19.000Z</time>
      </trkpt>
      <trkpt lat="47.80629" lon="7.08463">
        <ele>426</ele>
        <time>2025-06-09T02:19:46.000Z</time>
      </trkpt>
      <trkpt lat="47.80625" lon="7.08457">
        <ele>427</ele>
        <time>2025-06-09T02:19:52.000Z</time>
      </trkpt>
      <trkpt lat="47.80623" lon="7.0845">
        <ele>427</ele>
        <time>2025-06-09T02:19:56.000Z</time>
      </trkpt>
      <trkpt lat="47.80618" lon="7.08438">
        <ele>429</ele>
        <time>2025-06-09T02:20:05.000Z</time>
      </trkpt>
      <trkpt lat="47.80615" lon="7.08424">
        <ele>431</ele>
        <time>2025-06-09T02:20:14.000Z</time>
      </trkpt>
      <trkpt lat="47.80613" lon="7.08416">
        <ele>433</ele>
        <time>2025-06-09T02:20:23.000Z</time>
      </trkpt>
      <trkpt lat="47.80607" lon="7.08404">
        <ele>434</ele>
        <time>2025-06-09T02:20:31.000Z</time>
      </trkpt>
      <trkpt lat="47.80605" lon="7.0839">
        <ele>435</ele>
        <time>2025-06-09T02:20:41.000Z</time>
      </trkpt>
      <trkpt lat="47.80608" lon="7.08384">
        <ele>436</ele>
        <time>2025-06-09T02:20:45.000Z</time>
      </trkpt>
      <trkpt lat="47.8061" lon="7.08375">
        <ele>437</ele>
        <time>2025-06-09T02:20:48.000Z</time>
      </trkpt>
      <trkpt lat="47.80607" lon="7.08368">
        <ele>437</ele>
        <time>2025-06-09T02:20:52.000Z</time>
      </trkpt>
      <trkpt lat="47.80603" lon="7.08364">
        <ele>438</ele>
        <time>2025-06-09T02:20:54.000Z</time>
      </trkpt>
      <trkpt lat="47.806" lon="7.08356">
        <ele>439</ele>
        <time>2025-06-09T02:21:05.000Z</time>
      </trkpt>
      <trkpt lat="47.80602" lon="7.08346">
        <ele>440</ele>
        <time>2025-06-09T02:21:13.000Z</time>
      </trkpt>
      <trkpt lat="47.80605" lon="7.0834">
        <ele>440</ele>
        <time>2025-06-09T02:21:16.000Z</time>
      </trkpt>
      <trkpt lat="47.80609" lon="7.08333">
        <ele>441</ele>
        <time>2025-06-09T02:21:21.000Z</time>
      </trkpt>
      <trkpt lat="47.80609" lon="7.08321">
        <ele>443</ele>
        <time>2025-06-09T02:21:32.000Z</time>
      </trkpt>
      <trkpt lat="47.80604" lon="7.08307">
        <ele>445</ele>
        <time>2025-06-09T02:21:42.000Z</time>
      </trkpt>
      <trkpt lat="47.80605" lon="7.083">
        <ele>446</ele>
        <time>2025-06-09T02:21:47.000Z</time>
      </trkpt>
      <trkpt lat="47.80604" lon="7.08289">
        <ele>448</ele>
        <time>2025-06-09T02:21:57.000Z</time>
      </trkpt>
      <trkpt lat="47.80601" lon="7.08283">
        <ele>449</ele>
        <time>2025-06-09T02:22:07.000Z</time>
      </trkpt>
      <trkpt lat="47.8061" lon="7.08272">
        <ele>450</ele>
        <time>2025-06-09T02:22:14.000Z</time>
      </trkpt>
      <trkpt lat="47.80606" lon="7.08244">
        <ele>453</ele>
        <time>2025-06-09T02:22:35.000Z</time>
      </trkpt>
      <trkpt lat="47.8061" lon="7.08232">
        <ele>455</ele>
        <time>2025-06-09T02:22:47.000Z</time>
      </trkpt>
      <trkpt lat="47.80605" lon="7.08226">
        <ele>456</ele>
        <time>2025-06-09T02:22:52.000Z</time>
      </trkpt>
      <trkpt lat="47.80604" lon="7.08213">
        <ele>457</ele>
        <time>2025-06-09T02:23:03.000Z</time>
      </trkpt>
      <trkpt lat="47.80599" lon="7.0821">
        <ele>457</ele>
        <time>2025-06-09T02:23:05.000Z</time>
      </trkpt>
      <trkpt lat="47.80603" lon="7.08202">
        <ele>458</ele>
        <time>2025-06-09T02:23:13.000Z</time>
      </trkpt>
      <trkpt lat="47.80598" lon="7.08191">
        <ele>461</ele>
        <time>2025-06-09T02:23:26.000Z</time>
      </trkpt>
      <trkpt lat="47.80591" lon="7.08191">
        <ele>461</ele>
        <time>2025-06-09T02:23:28.000Z</time>
      </trkpt>
      <trkpt lat="47.80588" lon="7.08185">
        <ele>461</ele>
        <time>2025-06-09T02:23:31.000Z</time>
      </trkpt>
      <trkpt lat="47.80592" lon="7.08179">
        <ele>463</ele>
        <time>2025-06-09T02:23:39.000Z</time>
      </trkpt>
      <trkpt lat="47.80587" lon="7.08169">
        <ele>464</ele>
        <time>2025-06-09T02:23:49.000Z</time>
      </trkpt>
      <trkpt lat="47.80581" lon="7.08161">
        <ele>466</ele>
        <time>2025-06-09T02:24:03.000Z</time>
      </trkpt>
      <trkpt lat="47.80576" lon="7.08158">
        <ele>467</ele>
        <time>2025-06-09T02:24:06.000Z</time>
      </trkpt>
      <trkpt lat="47.8057" lon="7.08146">
        <ele>468</ele>
        <time>2025-06-09T02:24:20.000Z</time>
      </trkpt>
      <trkpt lat="47.80566" lon="7.0814">
        <ele>469</ele>
        <time>2025-06-09T02:24:32.000Z</time>
      </trkpt>
      <trkpt lat="47.80562" lon="7.08134">
        <ele>470</ele>
        <time>2025-06-09T02:24:37.000Z</time>
      </trkpt>
      <trkpt lat="47.80558" lon="7.0813">
        <ele>470</ele>
        <time>2025-06-09T02:24:41.000Z</time>
      </trkpt>
      <trkpt lat="47.80555" lon="7.08119">
        <ele>471</ele>
        <time>2025-06-09T02:24:48.000Z</time>
      </trkpt>
      <trkpt lat="47.80549" lon="7.08116">
        <ele>472</ele>
        <time>2025-06-09T02:24:51.000Z</time>
      </trkpt>
      <trkpt lat="47.80545" lon="7.08112">
        <ele>473</ele>
        <time>2025-06-09T02:25:00.000Z</time>
      </trkpt>
      <trkpt lat="47.80538" lon="7.08103">
        <ele>474</ele>
        <time>2025-06-09T02:25:07.000Z</time>
      </trkpt>
      <trkpt lat="47.80536" lon="7.08096">
        <ele>475</ele>
        <time>2025-06-09T02:25:12.000Z</time>
      </trkpt>
      <trkpt lat="47.80529" lon="7.0809">
        <ele>477</ele>
        <time>2025-06-09T02:25:21.000Z</time>
      </trkpt>
      <trkpt lat="47.8053" lon="7.0808">
        <ele>478</ele>
        <time>2025-06-09T02:25:30.000Z</time>
      </trkpt>
      <trkpt lat="47.80519" lon="7.0807">
        <ele>480</ele>
        <time>2025-06-09T02:25:47.000Z</time>
      </trkpt>
      <trkpt lat="47.80536" lon="7.0804">
        <ele>480</ele>
        <time>2025-06-09T02:26:05.000Z</time>
      </trkpt>
      <trkpt lat="47.80545" lon="7.08038">
        <ele>482</ele>
        <time>2025-06-09T02:26:14.000Z</time>
      </trkpt>
      <trkpt lat="47.80549" lon="7.08033">
        <ele>483</ele>
        <time>2025-06-09T02:26:22.000Z</time>
      </trkpt>
      <trkpt lat="47.80559" lon="7.08025">
        <ele>485</ele>
        <time>2025-06-09T02:26:33.000Z</time>
      </trkpt>
      <trkpt lat="47.80564" lon="7.08025">
        <ele>486</ele>
        <time>2025-06-09T02:26:36.000Z</time>
      </trkpt>
      <trkpt lat="47.8057" lon="7.08019">
        <ele>488</ele>
        <time>2025-06-09T02:26:50.000Z</time>
      </trkpt>
      <trkpt lat="47.80575" lon="7.08016">
        <ele>489</ele>
        <time>2025-06-09T02:26:56.000Z</time>
      </trkpt>
      <trkpt lat="47.80577" lon="7.08011">
        <ele>490</ele>
        <time>2025-06-09T02:27:01.000Z</time>
      </trkpt>
      <trkpt lat="47.80586" lon="7.08016">
        <ele>490</ele>
        <time>2025-06-09T02:27:08.000Z</time>
      </trkpt>
      <trkpt lat="47.80592" lon="7.08009">
        <ele>492</ele>
        <time>2025-06-09T02:27:18.000Z</time>
      </trkpt>
      <trkpt lat="47.80597" lon="7.08016">
        <ele>491</ele>
        <time>2025-06-09T02:27:24.000Z</time>
      </trkpt>
      <trkpt lat="47.80603" lon="7.08013">
        <ele>494</ele>
        <time>2025-06-09T02:27:33.000Z</time>
      </trkpt>
      <trkpt lat="47.80607" lon="7.08007">
        <ele>496</ele>
        <time>2025-06-09T02:27:45.000Z</time>
      </trkpt>
      <trkpt lat="47.8062" lon="7.07982">
        <ele>500</ele>
        <time>2025-06-09T02:28:11.000Z</time>
      </trkpt>
      <trkpt lat="47.80619" lon="7.07975">
        <ele>501</ele>
        <time>2025-06-09T02:28:16.000Z</time>
      </trkpt>
      <trkpt lat="47.80619" lon="7.07957">
        <ele>502</ele>
        <time>2025-06-09T02:28:31.000Z</time>
      </trkpt>
      <trkpt lat="47.80617" lon="7.0795">
        <ele>503</ele>
        <time>2025-06-09T02:28:36.000Z</time>
      </trkpt>
      <trkpt lat="47.80614" lon="7.07944">
        <ele>503</ele>
        <time>2025-06-09T02:28:41.000Z</time>
      </trkpt>
      <trkpt lat="47.80609" lon="7.07939">
        <ele>504</ele>
        <time>2025-06-09T02:28:48.000Z</time>
      </trkpt>
      <trkpt lat="47.80602" lon="7.07934">
        <ele>506</ele>
        <time>2025-06-09T02:28:57.000Z</time>
      </trkpt>
      <trkpt lat="47.8059" lon="7.07915">
        <ele>511</ele>
        <time>2025-06-09T02:29:31.000Z</time>
      </trkpt>
      <trkpt lat="47.80586" lon="7.0791">
        <ele>511</ele>
        <time>2025-06-09T02:29:35.000Z</time>
      </trkpt>
      <trkpt lat="47.80584" lon="7.07903">
        <ele>512</ele>
        <time>2025-06-09T02:29:40.000Z</time>
      </trkpt>
      <trkpt lat="47.8058" lon="7.07898">
        <ele>513</ele>
        <time>2025-06-09T02:29:45.000Z</time>
      </trkpt>
      <trkpt lat="47.80579" lon="7.07886">
        <ele>514</ele>
        <time>2025-06-09T02:29:52.000Z</time>
      </trkpt>
      <trkpt lat="47.80575" lon="7.07881">
        <ele>515</ele>
        <time>2025-06-09T02:29:57.000Z</time>
      </trkpt>
      <trkpt lat="47.80576" lon="7.07873">
        <ele>516</ele>
        <time>2025-06-09T02:30:02.000Z</time>
      </trkpt>
      <trkpt lat="47.80576" lon="7.07867">
        <ele>517</ele>
        <time>2025-06-09T02:30:06.000Z</time>
      </trkpt>
      <trkpt lat="47.80578" lon="7.07861">
        <ele>517</ele>
        <time>2025-06-09T02:30:10.000Z</time>
      </trkpt>
      <trkpt lat="47.80577" lon="7.07853">
        <ele>518</ele>
        <time>2025-06-09T02:30:18.000Z</time>
      </trkpt>
      <trkpt lat="47.80575" lon="7.07846">
        <ele>519</ele>
        <time>2025-06-09T02:30:22.000Z</time>
      </trkpt>
      <trkpt lat="47.80571" lon="7.07841">
        <ele>519</ele>
        <time>2025-06-09T02:30:25.000Z</time>
      </trkpt>
      <trkpt lat="47.80569" lon="7.07835">
        <ele>520</ele>
        <time>2025-06-09T02:30:29.000Z</time>
      </trkpt>
      <trkpt lat="47.80569" lon="7.07827">
        <ele>519</ele>
        <time>2025-06-09T02:30:34.000Z</time>
      </trkpt>
      <trkpt lat="47.80561" lon="7.07786">
        <ele>522</ele>
        <time>2025-06-09T02:31:03.000Z</time>
      </trkpt>
      <trkpt lat="47.80554" lon="7.07775">
        <ele>523</ele>
        <time>2025-06-09T02:31:10.000Z</time>
      </trkpt>
      <trkpt lat="47.80553" lon="7.07768">
        <ele>524</ele>
        <time>2025-06-09T02:31:15.000Z</time>
      </trkpt>
      <trkpt lat="47.80554" lon="7.0776">
        <ele>524</ele>
        <time>2025-06-09T02:31:19.000Z</time>
      </trkpt>
      <trkpt lat="47.80551" lon="7.07747">
        <ele>525</ele>
        <time>2025-06-09T02:31:27.000Z</time>
      </trkpt>
      <trkpt lat="47.80548" lon="7.07737">
        <ele>526</ele>
        <time>2025-06-09T02:31:34.000Z</time>
      </trkpt>
      <trkpt lat="47.80547" lon="7.07728">
        <ele>527</ele>
        <time>2025-06-09T02:31:42.000Z</time>
      </trkpt>
      <trkpt lat="47.80544" lon="7.07722">
        <ele>528</ele>
        <time>2025-06-09T02:31:46.000Z</time>
      </trkpt>
      <trkpt lat="47.8054" lon="7.07719">
        <ele>529</ele>
        <time>2025-06-09T02:31:50.000Z</time>
      </trkpt>
      <trkpt lat="47.80538" lon="7.07712">
        <ele>530</ele>
        <time>2025-06-09T02:31:55.000Z</time>
      </trkpt>
      <trkpt lat="47.80534" lon="7.07705">
        <ele>531</ele>
        <time>2025-06-09T02:32:03.000Z</time>
      </trkpt>
      <trkpt lat="47.80535" lon="7.07697">
        <ele>531</ele>
        <time>2025-06-09T02:32:08.000Z</time>
      </trkpt>
      <trkpt lat="47.8053" lon="7.07682">
        <ele>533</ele>
        <time>2025-06-09T02:32:22.000Z</time>
      </trkpt>
      <trkpt lat="47.80525" lon="7.07669">
        <ele>535</ele>
        <time>2025-06-09T02:32:32.000Z</time>
      </trkpt>
      <trkpt lat="47.80525" lon="7.0766">
        <ele>536</ele>
        <time>2025-06-09T02:32:38.000Z</time>
      </trkpt>
      <trkpt lat="47.80523" lon="7.07654">
        <ele>537</ele>
        <time>2025-06-09T02:32:42.000Z</time>
      </trkpt>
      <trkpt lat="47.80515" lon="7.07645">
        <ele>538</ele>
        <time>2025-06-09T02:32:48.000Z</time>
      </trkpt>
      <trkpt lat="47.80512" lon="7.0764">
        <ele>538</ele>
        <time>2025-06-09T02:32:53.000Z</time>
      </trkpt>
      <trkpt lat="47.80509" lon="7.07635">
        <ele>538</ele>
        <time>2025-06-09T02:32:57.000Z</time>
      </trkpt>
      <trkpt lat="47.80508" lon="7.07628">
        <ele>539</ele>
        <time>2025-06-09T02:33:02.000Z</time>
      </trkpt>
      <trkpt lat="47.80502" lon="7.07618">
        <ele>541</ele>
        <time>2025-06-09T02:33:12.000Z</time>
      </trkpt>
      <trkpt lat="47.80497" lon="7.07613">
        <ele>541</ele>
        <time>2025-06-09T02:33:16.000Z</time>
      </trkpt>
      <trkpt lat="47.80488" lon="7.07595">
        <ele>543</ele>
        <time>2025-06-09T02:33:28.000Z</time>
      </trkpt>
      <trkpt lat="47.80487" lon="7.07589">
        <ele>543</ele>
        <time>2025-06-09T02:33:31.000Z</time>
      </trkpt>
      <trkpt lat="47.8048" lon="7.07587">
        <ele>544</ele>
        <time>2025-06-09T02:33:38.000Z</time>
      </trkpt>
      <trkpt lat="47.80477" lon="7.07582">
        <ele>545</ele>
        <time>2025-06-09T02:33:41.000Z</time>
      </trkpt>
      <trkpt lat="47.80473" lon="7.07574">
        <ele>550</ele>
        <time>2025-06-09T02:34:02.000Z</time>
      </trkpt>
      <trkpt lat="47.80473" lon="7.07567">
        <ele>551</ele>
        <time>2025-06-09T02:34:08.000Z</time>
      </trkpt>
      <trkpt lat="47.8047" lon="7.07561">
        <ele>552</ele>
        <time>2025-06-09T02:34:14.000Z</time>
      </trkpt>
      <trkpt lat="47.80465" lon="7.07561">
        <ele>553</ele>
        <time>2025-06-09T02:34:17.000Z</time>
      </trkpt>
      <trkpt lat="47.80455" lon="7.07554">
        <ele>555</ele>
        <time>2025-06-09T02:34:28.000Z</time>
      </trkpt>
      <trkpt lat="47.80445" lon="7.07545">
        <ele>556</ele>
        <time>2025-06-09T02:34:34.000Z</time>
      </trkpt>
      <trkpt lat="47.80441" lon="7.07539">
        <ele>557</ele>
        <time>2025-06-09T02:34:40.000Z</time>
      </trkpt>
      <trkpt lat="47.8042" lon="7.07525">
        <ele>562</ele>
        <time>2025-06-09T02:35:09.000Z</time>
      </trkpt>
      <trkpt lat="47.80413" lon="7.07525">
        <ele>564</ele>
        <time>2025-06-09T02:35:17.000Z</time>
      </trkpt>
      <trkpt lat="47.80404" lon="7.07514">
        <ele>566</ele>
        <time>2025-06-09T02:35:29.000Z</time>
      </trkpt>
      <trkpt lat="47.80398" lon="7.07509">
        <ele>567</ele>
        <time>2025-06-09T02:35:37.000Z</time>
      </trkpt>
      <trkpt lat="47.80386" lon="7.07513">
        <ele>571</ele>
        <time>2025-06-09T02:35:55.000Z</time>
      </trkpt>
      <trkpt lat="47.80381" lon="7.07513">
        <ele>572</ele>
        <time>2025-06-09T02:36:03.000Z</time>
      </trkpt>
      <trkpt lat="47.80376" lon="7.07516">
        <ele>573</ele>
        <time>2025-06-09T02:36:08.000Z</time>
      </trkpt>
      <trkpt lat="47.80368" lon="7.07515">
        <ele>576</ele>
        <time>2025-06-09T02:36:21.000Z</time>
      </trkpt>
      <trkpt lat="47.80363" lon="7.07519">
        <ele>577</ele>
        <time>2025-06-09T02:36:28.000Z</time>
      </trkpt>
      <trkpt lat="47.80357" lon="7.0752">
        <ele>578</ele>
        <time>2025-06-09T02:36:34.000Z</time>
      </trkpt>
      <trkpt lat="47.80353" lon="7.07518">
        <ele>579</ele>
        <time>2025-06-09T02:36:43.000Z</time>
      </trkpt>
      <trkpt lat="47.80347" lon="7.0752">
        <ele>581</ele>
        <time>2025-06-09T02:36:49.000Z</time>
      </trkpt>
      <trkpt lat="47.80344" lon="7.07522">
        <ele>581</ele>
        <time>2025-06-09T02:36:53.000Z</time>
      </trkpt>
      <trkpt lat="47.80333" lon="7.07523">
        <ele>583</ele>
        <time>2025-06-09T02:37:00.000Z</time>
      </trkpt>
      <trkpt lat="47.80319" lon="7.07526">
        <ele>587</ele>
        <time>2025-06-09T02:37:20.000Z</time>
      </trkpt>
      <trkpt lat="47.80309" lon="7.07521">
        <ele>589</ele>
        <time>2025-06-09T02:37:33.000Z</time>
      </trkpt>
      <trkpt lat="47.80304" lon="7.07524">
        <ele>590</ele>
        <time>2025-06-09T02:37:40.000Z</time>
      </trkpt>
      <trkpt lat="47.80293" lon="7.07523">
        <ele>592</ele>
        <time>2025-06-09T02:37:51.000Z</time>
      </trkpt>
      <trkpt lat="47.80275" lon="7.07527">
        <ele>595</ele>
        <time>2025-06-09T02:38:13.000Z</time>
      </trkpt>
      <trkpt lat="47.80257" lon="7.07527">
        <ele>596</ele>
        <time>2025-06-09T02:38:22.000Z</time>
      </trkpt>
      <trkpt lat="47.80249" lon="7.07525">
        <ele>599</ele>
        <time>2025-06-09T02:38:33.000Z</time>
      </trkpt>
      <trkpt lat="47.80234" lon="7.07514">
        <ele>600</ele>
        <time>2025-06-09T02:38:47.000Z</time>
      </trkpt>
      <trkpt lat="47.80212" lon="7.07517">
        <ele>603</ele>
        <time>2025-06-09T02:39:17.000Z</time>
      </trkpt>
      <trkpt lat="47.80192" lon="7.07512">
        <ele>603</ele>
        <time>2025-06-09T02:39:33.000Z</time>
      </trkpt>
      <trkpt lat="47.80187" lon="7.07508">
        <ele>603</ele>
        <time>2025-06-09T02:39:36.000Z</time>
      </trkpt>
      <trkpt lat="47.80178" lon="7.075">
        <ele>604</ele>
        <time>2025-06-09T02:39:43.000Z</time>
      </trkpt>
      <trkpt lat="47.80177" lon="7.07491">
        <ele>605</ele>
        <time>2025-06-09T02:39:47.000Z</time>
      </trkpt>
      <trkpt lat="47.80176" lon="7.0748">
        <ele>606</ele>
        <time>2025-06-09T02:39:53.000Z</time>
      </trkpt>
      <trkpt lat="47.80168" lon="7.07454">
        <ele>607</ele>
        <time>2025-06-09T02:40:09.000Z</time>
      </trkpt>
      <trkpt lat="47.80169" lon="7.07446">
        <ele>608</ele>
        <time>2025-06-09T02:40:13.000Z</time>
      </trkpt>
      <trkpt lat="47.80167" lon="7.07432">
        <ele>609</ele>
        <time>2025-06-09T02:40:22.000Z</time>
      </trkpt>
      <trkpt lat="47.80168" lon="7.07418">
        <ele>610</ele>
        <time>2025-06-09T02:40:30.000Z</time>
      </trkpt>
      <trkpt lat="47.8016" lon="7.07368">
        <ele>615</ele>
        <time>2025-06-09T02:41:05.000Z</time>
      </trkpt>
      <trkpt lat="47.80158" lon="7.07356">
        <ele>616</ele>
        <time>2025-06-09T02:41:16.000Z</time>
      </trkpt>
      <trkpt lat="47.80159" lon="7.07343">
        <ele>618</ele>
        <time>2025-06-09T02:41:27.000Z</time>
      </trkpt>
      <trkpt lat="47.80157" lon="7.07337">
        <ele>619</ele>
        <time>2025-06-09T02:41:32.000Z</time>
      </trkpt>
      <trkpt lat="47.80156" lon="7.07321">
        <ele>619</ele>
        <time>2025-06-09T02:41:41.000Z</time>
      </trkpt>
      <trkpt lat="47.80153" lon="7.07314">
        <ele>619</ele>
        <time>2025-06-09T02:41:59.000Z</time>
      </trkpt>
      <trkpt lat="47.80152" lon="7.07306">
        <ele>620</ele>
        <time>2025-06-09T02:42:04.000Z</time>
      </trkpt>
      <trkpt lat="47.80152" lon="7.07298">
        <ele>620</ele>
        <time>2025-06-09T02:42:11.000Z</time>
      </trkpt>
      <trkpt lat="47.80141" lon="7.07258">
        <ele>622</ele>
        <time>2025-06-09T02:42:39.000Z</time>
      </trkpt>
      <trkpt lat="47.80142" lon="7.0725">
        <ele>622</ele>
        <time>2025-06-09T02:42:43.000Z</time>
      </trkpt>
      <trkpt lat="47.80144" lon="7.07221">
        <ele>621</ele>
        <time>2025-06-09T02:43:02.000Z</time>
      </trkpt>
      <trkpt lat="47.80145" lon="7.07214">
        <ele>621</ele>
        <time>2025-06-09T02:43:08.000Z</time>
      </trkpt>
      <trkpt lat="47.80158" lon="7.07186">
        <ele>625</ele>
        <time>2025-06-09T02:43:33.000Z</time>
      </trkpt>
      <trkpt lat="47.80161" lon="7.0718">
        <ele>626</ele>
        <time>2025-06-09T02:43:38.000Z</time>
      </trkpt>
      <trkpt lat="47.80165" lon="7.07174">
        <ele>626</ele>
        <time>2025-06-09T02:43:42.000Z</time>
      </trkpt>
      <trkpt lat="47.80169" lon="7.07168">
        <ele>627</ele>
        <time>2025-06-09T02:43:49.000Z</time>
      </trkpt>
      <trkpt lat="47.80174" lon="7.07162">
        <ele>628</ele>
        <time>2025-06-09T02:43:51.000Z</time>
      </trkpt>
      <trkpt lat="47.80179" lon="7.07157">
        <ele>630</ele>
        <time>2025-06-09T02:43:59.000Z</time>
      </trkpt>
      <trkpt lat="47.80185" lon="7.07157">
        <ele>632</ele>
        <time>2025-06-09T02:44:08.000Z</time>
      </trkpt>
      <trkpt lat="47.80191" lon="7.07161">
        <ele>632</ele>
        <time>2025-06-09T02:44:13.000Z</time>
      </trkpt>
      <trkpt lat="47.80197" lon="7.07161">
        <ele>632</ele>
        <time>2025-06-09T02:44:23.000Z</time>
      </trkpt>
      <trkpt lat="47.80201" lon="7.07154">
        <ele>633</ele>
        <time>2025-06-09T02:44:31.000Z</time>
      </trkpt>
      <trkpt lat="47.80204" lon="7.07143">
        <ele>634</ele>
        <time>2025-06-09T02:44:40.000Z</time>
      </trkpt>
      <trkpt lat="47.80207" lon="7.07134">
        <ele>635</ele>
        <time>2025-06-09T02:44:48.000Z</time>
      </trkpt>
      <trkpt lat="47.80217" lon="7.07114">
        <ele>638</ele>
        <time>2025-06-09T02:45:13.000Z</time>
      </trkpt>
      <trkpt lat="47.80226" lon="7.071">
        <ele>641</ele>
        <time>2025-06-09T02:45:28.000Z</time>
      </trkpt>
      <trkpt lat="47.80246" lon="7.07066">
        <ele>647</ele>
        <time>2025-06-09T02:46:03.000Z</time>
      </trkpt>
      <trkpt lat="47.80249" lon="7.07059">
        <ele>647</ele>
        <time>2025-06-09T02:46:09.000Z</time>
      </trkpt>
      <trkpt lat="47.8025" lon="7.07054">
        <ele>648</ele>
        <time>2025-06-09T02:46:14.000Z</time>
      </trkpt>
      <trkpt lat="47.80269" lon="7.0703">
        <ele>651</ele>
        <time>2025-06-09T02:46:37.000Z</time>
      </trkpt>
      <trkpt lat="47.80272" lon="7.07024">
        <ele>652</ele>
        <time>2025-06-09T02:46:43.000Z</time>
      </trkpt>
      <trkpt lat="47.80277" lon="7.06974">
        <ele>657</ele>
        <time>2025-06-09T02:47:20.000Z</time>
      </trkpt>
      <trkpt lat="47.80276" lon="7.06926">
        <ele>662</ele>
        <time>2025-06-09T02:47:58.000Z</time>
      </trkpt>
      <trkpt lat="47.80273" lon="7.06922">
        <ele>663</ele>
        <time>2025-06-09T02:48:03.000Z</time>
      </trkpt>
      <trkpt lat="47.80268" lon="7.06899">
        <ele>666</ele>
        <time>2025-06-09T02:48:22.000Z</time>
      </trkpt>
      <trkpt lat="47.80266" lon="7.06894">
        <ele>667</ele>
        <time>2025-06-09T02:48:27.000Z</time>
      </trkpt>
      <trkpt lat="47.80269" lon="7.06876">
        <ele>669</ele>
        <time>2025-06-09T02:48:41.000Z</time>
      </trkpt>
      <trkpt lat="47.80273" lon="7.06872">
        <ele>670</ele>
        <time>2025-06-09T02:48:45.000Z</time>
      </trkpt>
      <trkpt lat="47.80273" lon="7.06864">
        <ele>671</ele>
        <time>2025-06-09T02:48:50.000Z</time>
      </trkpt>
      <trkpt lat="47.80277" lon="7.06851">
        <ele>672</ele>
        <time>2025-06-09T02:49:00.000Z</time>
      </trkpt>
      <trkpt lat="47.80296" lon="7.06831">
        <ele>675</ele>
        <time>2025-06-09T02:49:20.000Z</time>
      </trkpt>
      <trkpt lat="47.80304" lon="7.06818">
        <ele>676</ele>
        <time>2025-06-09T02:49:33.000Z</time>
      </trkpt>
      <trkpt lat="47.80309" lon="7.06813">
        <ele>678</ele>
        <time>2025-06-09T02:49:42.000Z</time>
      </trkpt>
      <trkpt lat="47.80314" lon="7.06809">
        <ele>678</ele>
        <time>2025-06-09T02:49:46.000Z</time>
      </trkpt>
      <trkpt lat="47.80334" lon="7.06795">
        <ele>683</ele>
        <time>2025-06-09T02:50:06.000Z</time>
      </trkpt>
      <trkpt lat="47.80347" lon="7.06783">
        <ele>684</ele>
        <time>2025-06-09T02:50:22.000Z</time>
      </trkpt>
      <trkpt lat="47.80351" lon="7.06782">
        <ele>685</ele>
        <time>2025-06-09T02:50:25.000Z</time>
      </trkpt>
      <trkpt lat="47.80361" lon="7.06766">
        <ele>687</ele>
        <time>2025-06-09T02:50:43.000Z</time>
      </trkpt>
      <trkpt lat="47.80366" lon="7.06762">
        <ele>688</ele>
        <time>2025-06-09T02:50:51.000Z</time>
      </trkpt>
      <trkpt lat="47.80371" lon="7.06752">
        <ele>691</ele>
        <time>2025-06-09T02:51:02.000Z</time>
      </trkpt>
      <trkpt lat="47.80367" lon="7.06714">
        <ele>695</ele>
        <time>2025-06-09T02:51:33.000Z</time>
      </trkpt>
      <trkpt lat="47.80363" lon="7.06697">
        <ele>696</ele>
        <time>2025-06-09T02:51:45.000Z</time>
      </trkpt>
      <trkpt lat="47.80363" lon="7.06688">
        <ele>697</ele>
        <time>2025-06-09T02:51:52.000Z</time>
      </trkpt>
      <trkpt lat="47.80347" lon="7.06656">
        <ele>702</ele>
        <time>2025-06-09T02:52:20.000Z</time>
      </trkpt>
      <trkpt lat="47.80342" lon="7.06655">
        <ele>703</ele>
        <time>2025-06-09T02:52:24.000Z</time>
      </trkpt>
      <trkpt lat="47.80337" lon="7.0665">
        <ele>704</ele>
        <time>2025-06-09T02:52:28.000Z</time>
      </trkpt>
      <trkpt lat="47.8032" lon="7.06622">
        <ele>708</ele>
        <time>2025-06-09T02:52:55.000Z</time>
      </trkpt>
      <trkpt lat="47.80316" lon="7.06618">
        <ele>709</ele>
        <time>2025-06-09T02:53:00.000Z</time>
      </trkpt>
      <trkpt lat="47.80313" lon="7.06612">
        <ele>709</ele>
        <time>2025-06-09T02:53:03.000Z</time>
      </trkpt>
      <trkpt lat="47.80311" lon="7.06598">
        <ele>709</ele>
        <time>2025-06-09T02:53:11.000Z</time>
      </trkpt>
      <trkpt lat="47.80306" lon="7.06568">
        <ele>710</ele>
        <time>2025-06-09T02:53:24.000Z</time>
      </trkpt>
      <trkpt lat="47.80305" lon="7.06547">
        <ele>709</ele>
        <time>2025-06-09T02:53:34.000Z</time>
      </trkpt>
      <trkpt lat="47.80308" lon="7.0652">
        <ele>710</ele>
        <time>2025-06-09T02:53:51.000Z</time>
      </trkpt>
      <trkpt lat="47.80315" lon="7.06484">
        <ele>711</ele>
        <time>2025-06-09T02:54:10.000Z</time>
      </trkpt>
      <trkpt lat="47.80318" lon="7.06477">
        <ele>711</ele>
        <time>2025-06-09T02:54:14.000Z</time>
      </trkpt>
      <trkpt lat="47.80319" lon="7.0647">
        <ele>711</ele>
        <time>2025-06-09T02:54:18.000Z</time>
      </trkpt>
      <trkpt lat="47.80324" lon="7.06458">
        <ele>711</ele>
        <time>2025-06-09T02:54:26.000Z</time>
      </trkpt>
      <trkpt lat="47.80326" lon="7.06451">
        <ele>710</ele>
        <time>2025-06-09T02:54:30.000Z</time>
      </trkpt>
      <trkpt lat="47.80331" lon="7.06438">
        <ele>712</ele>
        <time>2025-06-09T02:54:37.000Z</time>
      </trkpt>
      <trkpt lat="47.80333" lon="7.06432">
        <ele>711</ele>
        <time>2025-06-09T02:54:41.000Z</time>
      </trkpt>
      <trkpt lat="47.80335" lon="7.06425">
        <ele>710</ele>
        <time>2025-06-09T02:54:45.000Z</time>
      </trkpt>
      <trkpt lat="47.80338" lon="7.06418">
        <ele>710</ele>
        <time>2025-06-09T02:54:49.000Z</time>
      </trkpt>
      <trkpt lat="47.80347" lon="7.06393">
        <ele>710</ele>
        <time>2025-06-09T02:55:03.000Z</time>
      </trkpt>
      <trkpt lat="47.80362" lon="7.06366">
        <ele>710</ele>
        <time>2025-06-09T02:55:23.000Z</time>
      </trkpt>
      <trkpt lat="47.80371" lon="7.06325">
        <ele>711</ele>
        <time>2025-06-09T02:55:49.000Z</time>
      </trkpt>
      <trkpt lat="47.8037" lon="7.06266">
        <ele>712</ele>
        <time>2025-06-09T02:56:25.000Z</time>
      </trkpt>
      <trkpt lat="47.8037" lon="7.06216">
        <ele>713</ele>
        <time>2025-06-09T02:56:53.000Z</time>
      </trkpt>
      <trkpt lat="47.80368" lon="7.06159">
        <ele>716</ele>
        <time>2025-06-09T02:57:26.000Z</time>
      </trkpt>
      <trkpt lat="47.80368" lon="7.06143">
        <ele>717</ele>
        <time>2025-06-09T02:57:34.000Z</time>
      </trkpt>
      <trkpt lat="47.80375" lon="7.06115">
        <ele>718</ele>
        <time>2025-06-09T02:57:50.000Z</time>
      </trkpt>
      <trkpt lat="47.80375" lon="7.06108">
        <ele>718</ele>
        <time>2025-06-09T02:57:55.000Z</time>
      </trkpt>
      <trkpt lat="47.80369" lon="7.06088">
        <ele>720</ele>
        <time>2025-06-09T02:58:08.000Z</time>
      </trkpt>
      <trkpt lat="47.80371" lon="7.0608">
        <ele>721</ele>
        <time>2025-06-09T02:58:15.000Z</time>
      </trkpt>
      <trkpt lat="47.80377" lon="7.06071">
        <ele>723</ele>
        <time>2025-06-09T02:58:29.000Z</time>
      </trkpt>
      <trkpt lat="47.80416" lon="7.06083">
        <ele>727</ele>
        <time>2025-06-09T02:59:04.000Z</time>
      </trkpt>
      <trkpt lat="47.80423" lon="7.06083">
        <ele>728</ele>
        <time>2025-06-09T02:59:11.000Z</time>
      </trkpt>
      <trkpt lat="47.80429" lon="7.06079">
        <ele>728</ele>
        <time>2025-06-09T02:59:19.000Z</time>
      </trkpt>
      <trkpt lat="47.80434" lon="7.06077">
        <ele>728</ele>
        <time>2025-06-09T02:59:23.000Z</time>
      </trkpt>
      <trkpt lat="47.80445" lon="7.06077">
        <ele>730</ele>
        <time>2025-06-09T02:59:35.000Z</time>
      </trkpt>
      <trkpt lat="47.80453" lon="7.06081">
        <ele>731</ele>
        <time>2025-06-09T02:59:44.000Z</time>
      </trkpt>
      <trkpt lat="47.80459" lon="7.06081">
        <ele>732</ele>
        <time>2025-06-09T02:59:49.000Z</time>
      </trkpt>
      <trkpt lat="47.80465" lon="7.06083">
        <ele>733</ele>
        <time>2025-06-09T02:59:57.000Z</time>
      </trkpt>
      <trkpt lat="47.8047" lon="7.06084">
        <ele>733</ele>
        <time>2025-06-09T03:00:03.000Z</time>
      </trkpt>
      <trkpt lat="47.80475" lon="7.06087">
        <ele>734</ele>
        <time>2025-06-09T03:00:07.000Z</time>
      </trkpt>
      <trkpt lat="47.805" lon="7.06084">
        <ele>737</ele>
        <time>2025-06-09T03:00:41.000Z</time>
      </trkpt>
      <trkpt lat="47.80506" lon="7.06083">
        <ele>738</ele>
        <time>2025-06-09T03:00:45.000Z</time>
      </trkpt>
      <trkpt lat="47.80511" lon="7.06086">
        <ele>738</ele>
        <time>2025-06-09T03:00:50.000Z</time>
      </trkpt>
      <trkpt lat="47.80516" lon="7.06085">
        <ele>739</ele>
        <time>2025-06-09T03:00:58.000Z</time>
      </trkpt>
      <trkpt lat="47.80532" lon="7.06075">
        <ele>741</ele>
        <time>2025-06-09T03:01:13.000Z</time>
      </trkpt>
      <trkpt lat="47.80548" lon="7.06049">
        <ele>745</ele>
        <time>2025-06-09T03:01:40.000Z</time>
      </trkpt>
      <trkpt lat="47.80556" lon="7.06008">
        <ele>748</ele>
        <time>2025-06-09T03:02:12.000Z</time>
      </trkpt>
      <trkpt lat="47.80562" lon="7.05996">
        <ele>749</ele>
        <time>2025-06-09T03:02:21.000Z</time>
      </trkpt>
      <trkpt lat="47.80567" lon="7.05993">
        <ele>749</ele>
        <time>2025-06-09T03:02:25.000Z</time>
      </trkpt>
      <trkpt lat="47.80572" lon="7.05987">
        <ele>749</ele>
        <time>2025-06-09T03:02:31.000Z</time>
      </trkpt>
      <trkpt lat="47.80576" lon="7.05984">
        <ele>749</ele>
        <time>2025-06-09T03:02:35.000Z</time>
      </trkpt>
      <trkpt lat="47.8058" lon="7.05979">
        <ele>749</ele>
        <time>2025-06-09T03:02:39.000Z</time>
      </trkpt>
      <trkpt lat="47.80585" lon="7.05972">
        <ele>750</ele>
        <time>2025-06-09T03:02:46.000Z</time>
      </trkpt>
      <trkpt lat="47.806" lon="7.05939">
        <ele>751</ele>
        <time>2025-06-09T03:03:14.000Z</time>
      </trkpt>
      <trkpt lat="47.806" lon="7.05931">
        <ele>751</ele>
        <time>2025-06-09T03:03:17.000Z</time>
      </trkpt>
      <trkpt lat="47.80595" lon="7.05917">
        <ele>751</ele>
        <time>2025-06-09T03:03:23.000Z</time>
      </trkpt>
      <trkpt lat="47.80596" lon="7.0591">
        <ele>752</ele>
        <time>2025-06-09T03:03:27.000Z</time>
      </trkpt>
      <trkpt lat="47.8061" lon="7.05916">
        <ele>753</ele>
        <time>2025-06-09T03:03:36.000Z</time>
      </trkpt>
      <trkpt lat="47.80614" lon="7.05919">
        <ele>753</ele>
        <time>2025-06-09T03:03:40.000Z</time>
      </trkpt>
      <trkpt lat="47.80638" lon="7.05928">
        <ele>756</ele>
        <time>2025-06-09T03:04:04.000Z</time>
      </trkpt>
      <trkpt lat="47.8065" lon="7.05929">
        <ele>756</ele>
        <time>2025-06-09T03:04:13.000Z</time>
      </trkpt>
      <trkpt lat="47.80679" lon="7.05927">
        <ele>761</ele>
        <time>2025-06-09T03:04:45.000Z</time>
      </trkpt>
      <trkpt lat="47.80689" lon="7.05923">
        <ele>762</ele>
        <time>2025-06-09T03:04:55.000Z</time>
      </trkpt>
      <trkpt lat="47.80691" lon="7.05918">
        <ele>763</ele>
        <time>2025-06-09T03:04:59.000Z</time>
      </trkpt>
      <trkpt lat="47.80697" lon="7.05914">
        <ele>765</ele>
        <time>2025-06-09T03:05:13.000Z</time>
      </trkpt>
      <trkpt lat="47.80704" lon="7.05906">
        <ele>767</ele>
        <time>2025-06-09T03:05:23.000Z</time>
      </trkpt>
      <trkpt lat="47.80702" lon="7.05896">
        <ele>768</ele>
        <time>2025-06-09T03:05:31.000Z</time>
      </trkpt>
      <trkpt lat="47.80702" lon="7.05889">
        <ele>768</ele>
        <time>2025-06-09T03:05:36.000Z</time>
      </trkpt>
      <trkpt lat="47.80698" lon="7.05884">
        <ele>769</ele>
        <time>2025-06-09T03:05:41.000Z</time>
      </trkpt>
      <trkpt lat="47.8069" lon="7.05857">
        <ele>772</ele>
        <time>2025-06-09T03:06:05.000Z</time>
      </trkpt>
      <trkpt lat="47.80689" lon="7.05826">
        <ele>774</ele>
        <time>2025-06-09T03:06:27.000Z</time>
      </trkpt>
      <trkpt lat="47.80687" lon="7.0582">
        <ele>775</ele>
        <time>2025-06-09T03:06:31.000Z</time>
      </trkpt>
      <trkpt lat="47.80685" lon="7.05812">
        <ele>776</ele>
        <time>2025-06-09T03:06:37.000Z</time>
      </trkpt>
      <trkpt lat="47.80684" lon="7.05804">
        <ele>776</ele>
        <time>2025-06-09T03:06:41.000Z</time>
      </trkpt>
      <trkpt lat="47.80684" lon="7.05797">
        <ele>777</ele>
        <time>2025-06-09T03:06:46.000Z</time>
      </trkpt>
      <trkpt lat="47.80683" lon="7.05788">
        <ele>777</ele>
        <time>2025-06-09T03:06:54.000Z</time>
      </trkpt>
      <trkpt lat="47.80681" lon="7.05782">
        <ele>778</ele>
        <time>2025-06-09T03:06:58.000Z</time>
      </trkpt>
      <trkpt lat="47.80675" lon="7.05745">
        <ele>781</ele>
        <time>2025-06-09T03:07:24.000Z</time>
      </trkpt>
      <trkpt lat="47.80668" lon="7.05726">
        <ele>783</ele>
        <time>2025-06-09T03:07:35.000Z</time>
      </trkpt>
      <trkpt lat="47.80667" lon="7.05718">
        <ele>784</ele>
        <time>2025-06-09T03:07:42.000Z</time>
      </trkpt>
      <trkpt lat="47.80664" lon="7.05674">
        <ele>789</ele>
        <time>2025-06-09T03:08:14.000Z</time>
      </trkpt>
      <trkpt lat="47.80658" lon="7.05626">
        <ele>793</ele>
        <time>2025-06-09T03:08:48.000Z</time>
      </trkpt>
      <trkpt lat="47.8066" lon="7.0562">
        <ele>793</ele>
        <time>2025-06-09T03:08:52.000Z</time>
      </trkpt>
      <trkpt lat="47.80658" lon="7.05614">
        <ele>794</ele>
        <time>2025-06-09T03:08:57.000Z</time>
      </trkpt>
      <trkpt lat="47.80661" lon="7.05595">
        <ele>796</ele>
        <time>2025-06-09T03:09:10.000Z</time>
      </trkpt>
      <trkpt lat="47.80666" lon="7.05588">
        <ele>797</ele>
        <time>2025-06-09T03:09:14.000Z</time>
      </trkpt>
      <trkpt lat="47.80667" lon="7.05581">
        <ele>797</ele>
        <time>2025-06-09T03:09:18.000Z</time>
      </trkpt>
      <trkpt lat="47.80672" lon="7.05531">
        <ele>801</ele>
        <time>2025-06-09T03:09:50.000Z</time>
      </trkpt>
      <trkpt lat="47.8068" lon="7.05486">
        <ele>806</ele>
        <time>2025-06-09T03:10:23.000Z</time>
      </trkpt>
      <trkpt lat="47.80677" lon="7.05471">
        <ele>808</ele>
        <time>2025-06-09T03:10:35.000Z</time>
      </trkpt>
      <trkpt lat="47.80677" lon="7.05464">
        <ele>809</ele>
        <time>2025-06-09T03:10:39.000Z</time>
      </trkpt>
      <trkpt lat="47.80679" lon="7.05457">
        <ele>809</ele>
        <time>2025-06-09T03:10:44.000Z</time>
      </trkpt>
      <trkpt lat="47.80683" lon="7.05448">
        <ele>810</ele>
        <time>2025-06-09T03:10:49.000Z</time>
      </trkpt>
      <trkpt lat="47.80688" lon="7.05444">
        <ele>811</ele>
        <time>2025-06-09T03:10:54.000Z</time>
      </trkpt>
      <trkpt lat="47.80691" lon="7.05421">
        <ele>813</ele>
        <time>2025-06-09T03:11:11.000Z</time>
      </trkpt>
      <trkpt lat="47.80703" lon="7.0538">
        <ele>819</ele>
        <time>2025-06-09T03:11:42.000Z</time>
      </trkpt>
      <trkpt lat="47.80706" lon="7.05371">
        <ele>820</ele>
        <time>2025-06-09T03:11:48.000Z</time>
      </trkpt>
      <trkpt lat="47.80717" lon="7.05351">
        <ele>823</ele>
        <time>2025-06-09T03:12:06.000Z</time>
      </trkpt>
      <trkpt lat="47.80721" lon="7.05345">
        <ele>823</ele>
        <time>2025-06-09T03:12:09.000Z</time>
      </trkpt>
      <trkpt lat="47.80725" lon="7.05339">
        <ele>823</ele>
        <time>2025-06-09T03:12:12.000Z</time>
      </trkpt>
      <trkpt lat="47.80748" lon="7.05325">
        <ele>826</ele>
        <time>2025-06-09T03:12:36.000Z</time>
      </trkpt>
      <trkpt lat="47.80757" lon="7.05315">
        <ele>828</ele>
        <time>2025-06-09T03:12:48.000Z</time>
      </trkpt>
      <trkpt lat="47.80766" lon="7.05299">
        <ele>831</ele>
        <time>2025-06-09T03:13:02.000Z</time>
      </trkpt>
      <trkpt lat="47.80772" lon="7.05297">
        <ele>831</ele>
        <time>2025-06-09T03:13:06.000Z</time>
      </trkpt>
      <trkpt lat="47.8078" lon="7.05294">
        <ele>832</ele>
        <time>2025-06-09T03:13:13.000Z</time>
      </trkpt>
      <trkpt lat="47.80784" lon="7.0529">
        <ele>833</ele>
        <time>2025-06-09T03:13:22.000Z</time>
      </trkpt>
      <trkpt lat="47.80796" lon="7.05287">
        <ele>835</ele>
        <time>2025-06-09T03:13:34.000Z</time>
      </trkpt>
      <trkpt lat="47.80799" lon="7.05283">
        <ele>835</ele>
        <time>2025-06-09T03:13:37.000Z</time>
      </trkpt>
      <trkpt lat="47.80804" lon="7.05278">
        <ele>835</ele>
        <time>2025-06-09T03:13:40.000Z</time>
      </trkpt>
      <trkpt lat="47.80808" lon="7.05275">
        <ele>836</ele>
        <time>2025-06-09T03:13:43.000Z</time>
      </trkpt>
      <trkpt lat="47.80833" lon="7.05241">
        <ele>840</ele>
        <time>2025-06-09T03:14:15.000Z</time>
      </trkpt>
      <trkpt lat="47.80855" lon="7.05212">
        <ele>845</ele>
        <time>2025-06-09T03:14:50.000Z</time>
      </trkpt>
      <trkpt lat="47.80857" lon="7.05206">
        <ele>846</ele>
        <time>2025-06-09T03:14:56.000Z</time>
      </trkpt>
      <trkpt lat="47.80858" lon="7.05199">
        <ele>847</ele>
        <time>2025-06-09T03:15:01.000Z</time>
      </trkpt>
      <trkpt lat="47.80861" lon="7.05195">
        <ele>847</ele>
        <time>2025-06-09T03:15:04.000Z</time>
      </trkpt>
      <trkpt lat="47.80867" lon="7.05179">
        <ele>850</ele>
        <time>2025-06-09T03:15:18.000Z</time>
      </trkpt>
      <trkpt lat="47.80872" lon="7.05175">
        <ele>850</ele>
        <time>2025-06-09T03:15:23.000Z</time>
      </trkpt>
      <trkpt lat="47.80876" lon="7.05173">
        <ele>850</ele>
        <time>2025-06-09T03:15:26.000Z</time>
      </trkpt>
      <trkpt lat="47.80881" lon="7.05169">
        <ele>850</ele>
        <time>2025-06-09T03:15:34.000Z</time>
      </trkpt>
      <trkpt lat="47.80886" lon="7.05164">
        <ele>851</ele>
        <time>2025-06-09T03:15:42.000Z</time>
      </trkpt>
      <trkpt lat="47.80891" lon="7.05153">
        <ele>853</ele>
        <time>2025-06-09T03:15:52.000Z</time>
      </trkpt>
      <trkpt lat="47.80898" lon="7.05141">
        <ele>855</ele>
        <time>2025-06-09T03:16:05.000Z</time>
      </trkpt>
      <trkpt lat="47.80908" lon="7.05103">
        <ele>857</ele>
        <time>2025-06-09T03:16:33.000Z</time>
      </trkpt>
      <trkpt lat="47.80907" lon="7.05089">
        <ele>858</ele>
        <time>2025-06-09T03:16:44.000Z</time>
      </trkpt>
      <trkpt lat="47.80903" lon="7.05082">
        <ele>859</ele>
        <time>2025-06-09T03:16:50.000Z</time>
      </trkpt>
      <trkpt lat="47.80901" lon="7.05076">
        <ele>859</ele>
        <time>2025-06-09T03:16:55.000Z</time>
      </trkpt>
      <trkpt lat="47.80897" lon="7.0507">
        <ele>858</ele>
        <time>2025-06-09T03:17:02.000Z</time>
      </trkpt>
      <trkpt lat="47.80892" lon="7.05068">
        <ele>857</ele>
        <time>2025-06-09T03:17:07.000Z</time>
      </trkpt>
      <trkpt lat="47.80877" lon="7.05059">
        <ele>856</ele>
        <time>2025-06-09T03:17:20.000Z</time>
      </trkpt>
      <trkpt lat="47.80871" lon="7.05047">
        <ele>856</ele>
        <time>2025-06-09T03:17:26.000Z</time>
      </trkpt>
      <trkpt lat="47.8087" lon="7.05041">
        <ele>856</ele>
        <time>2025-06-09T03:17:28.000Z</time>
      </trkpt>
      <trkpt lat="47.80866" lon="7.05037">
        <ele>856</ele>
        <time>2025-06-09T03:17:33.000Z</time>
      </trkpt>
      <trkpt lat="47.80853" lon="7.05025">
        <ele>853</ele>
        <time>2025-06-09T03:17:52.000Z</time>
      </trkpt>
      <trkpt lat="47.80826" lon="7.04986">
        <ele>846</ele>
        <time>2025-06-09T03:18:28.000Z</time>
      </trkpt>
      <trkpt lat="47.80815" lon="7.04962">
        <ele>843</ele>
        <time>2025-06-09T03:18:44.000Z</time>
      </trkpt>
      <trkpt lat="47.8081" lon="7.04941">
        <ele>840</ele>
        <time>2025-06-09T03:18:58.000Z</time>
      </trkpt>
      <trkpt lat="47.80809" lon="7.04932">
        <ele>839</ele>
        <time>2025-06-09T03:19:05.000Z</time>
      </trkpt>
      <trkpt lat="47.80805" lon="7.04926">
        <ele>839</ele>
        <time>2025-06-09T03:19:09.000Z</time>
      </trkpt>
      <trkpt lat="47.80805" lon="7.0491">
        <ele>837</ele>
        <time>2025-06-09T03:19:21.000Z</time>
      </trkpt>
      <trkpt lat="47.80808" lon="7.04904">
        <ele>836</ele>
        <time>2025-06-09T03:19:25.000Z</time>
      </trkpt>
      <trkpt lat="47.80808" lon="7.04898">
        <ele>836</ele>
        <time>2025-06-09T03:19:29.000Z</time>
      </trkpt>
      <trkpt lat="47.80805" lon="7.04889">
        <ele>835</ele>
        <time>2025-06-09T03:19:35.000Z</time>
      </trkpt>
      <trkpt lat="47.80809" lon="7.04883">
        <ele>834</ele>
        <time>2025-06-09T03:19:38.000Z</time>
      </trkpt>
      <trkpt lat="47.80818" lon="7.04834">
        <ele>830</ele>
        <time>2025-06-09T03:20:11.000Z</time>
      </trkpt>
      <trkpt lat="47.80829" lon="7.04787">
        <ele>824</ele>
        <time>2025-06-09T03:20:41.000Z</time>
      </trkpt>
      <trkpt lat="47.80835" lon="7.0476">
        <ele>819</ele>
        <time>2025-06-09T03:21:06.000Z</time>
      </trkpt>
      <trkpt lat="47.80835" lon="7.04753">
        <ele>818</ele>
        <time>2025-06-09T03:21:11.000Z</time>
      </trkpt>
      <trkpt lat="47.80834" lon="7.04743">
        <ele>817</ele>
        <time>2025-06-09T03:21:17.000Z</time>
      </trkpt>
      <trkpt lat="47.8083" lon="7.04732">
        <ele>815</ele>
        <time>2025-06-09T03:21:27.000Z</time>
      </trkpt>
      <trkpt lat="47.80814" lon="7.04708">
        <ele>812</ele>
        <time>2025-06-09T03:21:58.000Z</time>
      </trkpt>
      <trkpt lat="47.8081" lon="7.04703">
        <ele>811</ele>
        <time>2025-06-09T03:22:04.000Z</time>
      </trkpt>
      <trkpt lat="47.80798" lon="7.04686">
        <ele>809</ele>
        <time>2025-06-09T03:22:19.000Z</time>
      </trkpt>
      <trkpt lat="47.80801" lon="7.04689">
        <ele>803</ele>
        <time>2025-06-09T03:22:52.000Z</time>
      </trkpt>
      <trkpt lat="47.80785" lon="7.04669">
        <ele>797</ele>
        <time>2025-06-09T03:23:29.000Z</time>
      </trkpt>
      <trkpt lat="47.80767" lon="7.04648">
        <ele>788</ele>
        <time>2025-06-09T03:24:02.000Z</time>
      </trkpt>
      <trkpt lat="47.80762" lon="7.04647">
        <ele>787</ele>
        <time>2025-06-09T03:24:07.000Z</time>
      </trkpt>
      <trkpt lat="47.80754" lon="7.0464">
        <ele>786</ele>
        <time>2025-06-09T03:24:13.000Z</time>
      </trkpt>
      <trkpt lat="47.80751" lon="7.04634">
        <ele>785</ele>
        <time>2025-06-09T03:24:16.000Z</time>
      </trkpt>
      <trkpt lat="47.80749" lon="7.04629">
        <ele>785</ele>
        <time>2025-06-09T03:24:19.000Z</time>
      </trkpt>
      <trkpt lat="47.80748" lon="7.04621">
        <ele>784</ele>
        <time>2025-06-09T03:24:23.000Z</time>
      </trkpt>
      <trkpt lat="47.80742" lon="7.04608">
        <ele>782</ele>
        <time>2025-06-09T03:24:29.000Z</time>
      </trkpt>
      <trkpt lat="47.80742" lon="7.046">
        <ele>781</ele>
        <time>2025-06-09T03:24:33.000Z</time>
      </trkpt>
      <trkpt lat="47.80744" lon="7.04595">
        <ele>781</ele>
        <time>2025-06-09T03:24:37.000Z</time>
      </trkpt>
      <trkpt lat="47.80747" lon="7.0459">
        <ele>780</ele>
        <time>2025-06-09T03:24:41.000Z</time>
      </trkpt>
      <trkpt lat="47.80747" lon="7.04583">
        <ele>779</ele>
        <time>2025-06-09T03:24:45.000Z</time>
      </trkpt>
      <trkpt lat="47.80745" lon="7.04574">
        <ele>778</ele>
        <time>2025-06-09T03:24:52.000Z</time>
      </trkpt>
      <trkpt lat="47.80743" lon="7.04566">
        <ele>778</ele>
        <time>2025-06-09T03:25:01.000Z</time>
      </trkpt>
      <trkpt lat="47.80732" lon="7.04523">
        <ele>773</ele>
        <time>2025-06-09T03:25:34.000Z</time>
      </trkpt>
      <trkpt lat="47.80719" lon="7.04475">
        <ele>766</ele>
        <time>2025-06-09T03:26:08.000Z</time>
      </trkpt>
      <trkpt lat="47.80714" lon="7.04462">
        <ele>765</ele>
        <time>2025-06-09T03:26:18.000Z</time>
      </trkpt>
      <trkpt lat="47.80703" lon="7.04429">
        <ele>766</ele>
        <time>2025-06-09T03:26:40.000Z</time>
      </trkpt>
      <trkpt lat="47.807" lon="7.0442">
        <ele>766</ele>
        <time>2025-06-09T03:26:48.000Z</time>
      </trkpt>
      <trkpt lat="47.80686" lon="7.04375">
        <ele>768</ele>
        <time>2025-06-09T03:27:20.000Z</time>
      </trkpt>
      <trkpt lat="47.8068" lon="7.0436">
        <ele>766</ele>
        <time>2025-06-09T03:27:34.000Z</time>
      </trkpt>
      <trkpt lat="47.80676" lon="7.04337">
        <ele>761</ele>
        <time>2025-06-09T03:27:51.000Z</time>
      </trkpt>
      <trkpt lat="47.80667" lon="7.04314">
        <ele>758</ele>
        <time>2025-06-09T03:28:08.000Z</time>
      </trkpt>
      <trkpt lat="47.80659" lon="7.04297">
        <ele>756</ele>
        <time>2025-06-09T03:28:21.000Z</time>
      </trkpt>
      <trkpt lat="47.80656" lon="7.04283">
        <ele>755</ele>
        <time>2025-06-09T03:28:28.000Z</time>
      </trkpt>
      <trkpt lat="47.80654" lon="7.04275">
        <ele>755</ele>
        <time>2025-06-09T03:28:31.000Z</time>
      </trkpt>
      <trkpt lat="47.80652" lon="7.04269">
        <ele>755</ele>
        <time>2025-06-09T03:28:35.000Z</time>
      </trkpt>
      <trkpt lat="47.8065" lon="7.04263">
        <ele>755</ele>
        <time>2025-06-09T03:28:39.000Z</time>
      </trkpt>
      <trkpt lat="47.80648" lon="7.04257">
        <ele>756</ele>
        <time>2025-06-09T03:28:44.000Z</time>
      </trkpt>
      <trkpt lat="47.80652" lon="7.04251">
        <ele>756</ele>
        <time>2025-06-09T03:28:48.000Z</time>
      </trkpt>
      <trkpt lat="47.80658" lon="7.04249">
        <ele>756</ele>
        <time>2025-06-09T03:28:51.000Z</time>
      </trkpt>
      <trkpt lat="47.80662" lon="7.04248">
        <ele>756</ele>
        <time>2025-06-09T03:28:53.000Z</time>
      </trkpt>
      <trkpt lat="47.80668" lon="7.04249">
        <ele>757</ele>
        <time>2025-06-09T03:29:00.000Z</time>
      </trkpt>
      <trkpt lat="47.80685" lon="7.04242">
        <ele>760</ele>
        <time>2025-06-09T03:29:26.000Z</time>
      </trkpt>
      <trkpt lat="47.80689" lon="7.04235">
        <ele>761</ele>
        <time>2025-06-09T03:29:32.000Z</time>
      </trkpt>
      <trkpt lat="47.80693" lon="7.0422">
        <ele>762</ele>
        <time>2025-06-09T03:29:38.000Z</time>
      </trkpt>
      <trkpt lat="47.80709" lon="7.04201">
        <ele>765</ele>
        <time>2025-06-09T03:30:00.000Z</time>
      </trkpt>
      <trkpt lat="47.80716" lon="7.04188">
        <ele>767</ele>
        <time>2025-06-09T03:30:14.000Z</time>
      </trkpt>
      <trkpt lat="47.8072" lon="7.04173">
        <ele>769</ele>
        <time>2025-06-09T03:30:28.000Z</time>
      </trkpt>
      <trkpt lat="47.80727" lon="7.04159">
        <ele>770</ele>
        <time>2025-06-09T03:30:40.000Z</time>
      </trkpt>
      <trkpt lat="47.80731" lon="7.04155">
        <ele>771</ele>
        <time>2025-06-09T03:30:46.000Z</time>
      </trkpt>
      <trkpt lat="47.80733" lon="7.04147">
        <ele>772</ele>
        <time>2025-06-09T03:30:54.000Z</time>
      </trkpt>
      <trkpt lat="47.80738" lon="7.04143">
        <ele>773</ele>
        <time>2025-06-09T03:30:59.000Z</time>
      </trkpt>
      <trkpt lat="47.80744" lon="7.04134">
        <ele>773</ele>
        <time>2025-06-09T03:31:09.000Z</time>
      </trkpt>
      <trkpt lat="47.80749" lon="7.04131">
        <ele>773</ele>
        <time>2025-06-09T03:31:13.000Z</time>
      </trkpt>
      <trkpt lat="47.80768" lon="7.04099">
        <ele>777</ele>
        <time>2025-06-09T03:31:47.000Z</time>
      </trkpt>
      <trkpt lat="47.80782" lon="7.04078">
        <ele>780</ele>
        <time>2025-06-09T03:32:12.000Z</time>
      </trkpt>
      <trkpt lat="47.80791" lon="7.04067">
        <ele>781</ele>
        <time>2025-06-09T03:32:25.000Z</time>
      </trkpt>
      <trkpt lat="47.80791" lon="7.04058">
        <ele>781</ele>
        <time>2025-06-09T03:32:30.000Z</time>
      </trkpt>
      <trkpt lat="47.80806" lon="7.04052">
        <ele>783</ele>
        <time>2025-06-09T03:32:48.000Z</time>
      </trkpt>
      <trkpt lat="47.80809" lon="7.04048">
        <ele>784</ele>
        <time>2025-06-09T03:32:54.000Z</time>
      </trkpt>
      <trkpt lat="47.80812" lon="7.04043">
        <ele>784</ele>
        <time>2025-06-09T03:32:59.000Z</time>
      </trkpt>
      <trkpt lat="47.80817" lon="7.04041">
        <ele>785</ele>
        <time>2025-06-09T03:33:04.000Z</time>
      </trkpt>
      <trkpt lat="47.80826" lon="7.04032">
        <ele>787</ele>
        <time>2025-06-09T03:33:18.000Z</time>
      </trkpt>
      <trkpt lat="47.80848" lon="7.04002">
        <ele>789</ele>
        <time>2025-06-09T03:33:52.000Z</time>
      </trkpt>
      <trkpt lat="47.8085" lon="7.03996">
        <ele>792</ele>
        <time>2025-06-09T03:33:57.000Z</time>
      </trkpt>
      <trkpt lat="47.8085" lon="7.03986">
        <ele>791</ele>
        <time>2025-06-09T03:34:05.000Z</time>
      </trkpt>
      <trkpt lat="47.80849" lon="7.0394">
        <ele>795</ele>
        <time>2025-06-09T03:34:42.000Z</time>
      </trkpt>
      <trkpt lat="47.80851" lon="7.03918">
        <ele>796</ele>
        <time>2025-06-09T03:34:55.000Z</time>
      </trkpt>
      <trkpt lat="47.80852" lon="7.0391">
        <ele>797</ele>
        <time>2025-06-09T03:35:02.000Z</time>
      </trkpt>
      <trkpt lat="47.80851" lon="7.03901">
        <ele>798</ele>
        <time>2025-06-09T03:35:09.000Z</time>
      </trkpt>
      <trkpt lat="47.80854" lon="7.03884">
        <ele>801</ele>
        <time>2025-06-09T03:35:24.000Z</time>
      </trkpt>
      <trkpt lat="47.80869" lon="7.03855">
        <ele>805</ele>
        <time>2025-06-09T03:35:53.000Z</time>
      </trkpt>
      <trkpt lat="47.80875" lon="7.03837">
        <ele>806</ele>
        <time>2025-06-09T03:36:08.000Z</time>
      </trkpt>
      <trkpt lat="47.80884" lon="7.03817">
        <ele>806</ele>
        <time>2025-06-09T03:36:22.000Z</time>
      </trkpt>
      <trkpt lat="47.80884" lon="7.03808">
        <ele>807</ele>
        <time>2025-06-09T03:36:29.000Z</time>
      </trkpt>
      <trkpt lat="47.8089" lon="7.038">
        <ele>808</ele>
        <time>2025-06-09T03:36:38.000Z</time>
      </trkpt>
      <trkpt lat="47.80891" lon="7.03793">
        <ele>810</ele>
        <time>2025-06-09T03:36:44.000Z</time>
      </trkpt>
      <trkpt lat="47.80898" lon="7.03786">
        <ele>811</ele>
        <time>2025-06-09T03:36:55.000Z</time>
      </trkpt>
      <trkpt lat="47.80922" lon="7.0377">
        <ele>813</ele>
        <time>2025-06-09T03:37:19.000Z</time>
      </trkpt>
      <trkpt lat="47.80927" lon="7.03772">
        <ele>813</ele>
        <time>2025-06-09T03:37:24.000Z</time>
      </trkpt>
      <trkpt lat="47.80947" lon="7.03765">
        <ele>817</ele>
        <time>2025-06-09T03:37:51.000Z</time>
      </trkpt>
      <trkpt lat="47.80953" lon="7.03767">
        <ele>818</ele>
        <time>2025-06-09T03:37:59.000Z</time>
      </trkpt>
      <trkpt lat="47.80979" lon="7.03763">
        <ele>822</ele>
        <time>2025-06-09T03:38:31.000Z</time>
      </trkpt>
      <trkpt lat="47.80986" lon="7.03761">
        <ele>823</ele>
        <time>2025-06-09T03:38:39.000Z</time>
      </trkpt>
      <trkpt lat="47.81005" lon="7.03771">
        <ele>825</ele>
        <time>2025-06-09T03:39:02.000Z</time>
      </trkpt>
      <trkpt lat="47.81012" lon="7.03771">
        <ele>826</ele>
        <time>2025-06-09T03:39:15.000Z</time>
      </trkpt>
      <trkpt lat="47.81015" lon="7.03766">
        <ele>826</ele>
        <time>2025-06-09T03:39:21.000Z</time>
      </trkpt>
      <trkpt lat="47.8103" lon="7.03755">
        <ele>829</ele>
        <time>2025-06-09T03:39:43.000Z</time>
      </trkpt>
      <trkpt lat="47.81045" lon="7.03726">
        <ele>832</ele>
        <time>2025-06-09T03:40:13.000Z</time>
      </trkpt>
      <trkpt lat="47.81053" lon="7.03701">
        <ele>834</ele>
        <time>2025-06-09T03:40:33.000Z</time>
      </trkpt>
      <trkpt lat="47.81057" lon="7.03695">
        <ele>834</ele>
        <time>2025-06-09T03:40:40.000Z</time>
      </trkpt>
      <trkpt lat="47.81068" lon="7.03656">
        <ele>839</ele>
        <time>2025-06-09T03:41:14.000Z</time>
      </trkpt>
      <trkpt lat="47.81069" lon="7.03649">
        <ele>839</ele>
        <time>2025-06-09T03:41:19.000Z</time>
      </trkpt>
      <trkpt lat="47.81071" lon="7.03643">
        <ele>840</ele>
        <time>2025-06-09T03:41:23.000Z</time>
      </trkpt>
      <trkpt lat="47.81079" lon="7.03628">
        <ele>841</ele>
        <time>2025-06-09T03:41:36.000Z</time>
      </trkpt>
      <trkpt lat="47.81084" lon="7.03614">
        <ele>843</ele>
        <time>2025-06-09T03:41:49.000Z</time>
      </trkpt>
      <trkpt lat="47.81089" lon="7.03611">
        <ele>844</ele>
        <time>2025-06-09T03:41:53.000Z</time>
      </trkpt>
      <trkpt lat="47.81093" lon="7.03606">
        <ele>844</ele>
        <time>2025-06-09T03:41:59.000Z</time>
      </trkpt>
      <trkpt lat="47.81095" lon="7.03601">
        <ele>845</ele>
        <time>2025-06-09T03:42:03.000Z</time>
      </trkpt>
      <trkpt lat="47.81104" lon="7.03591">
        <ele>847</ele>
        <time>2025-06-09T03:42:17.000Z</time>
      </trkpt>
      <trkpt lat="47.81116" lon="7.0359">
        <ele>848</ele>
        <time>2025-06-09T03:42:29.000Z</time>
      </trkpt>
      <trkpt lat="47.81127" lon="7.03582">
        <ele>850</ele>
        <time>2025-06-09T03:42:42.000Z</time>
      </trkpt>
      <trkpt lat="47.81134" lon="7.03566">
        <ele>851</ele>
        <time>2025-06-09T03:42:58.000Z</time>
      </trkpt>
      <trkpt lat="47.81134" lon="7.03558">
        <ele>851</ele>
        <time>2025-06-09T03:43:05.000Z</time>
      </trkpt>
      <trkpt lat="47.81135" lon="7.03552">
        <ele>851</ele>
        <time>2025-06-09T03:43:10.000Z</time>
      </trkpt>
      <trkpt lat="47.81136" lon="7.03544">
        <ele>852</ele>
        <time>2025-06-09T03:43:16.000Z</time>
      </trkpt>
      <trkpt lat="47.81138" lon="7.03535">
        <ele>853</ele>
        <time>2025-06-09T03:43:24.000Z</time>
      </trkpt>
      <trkpt lat="47.81138" lon="7.03526">
        <ele>854</ele>
        <time>2025-06-09T03:43:31.000Z</time>
      </trkpt>
      <trkpt lat="47.81141" lon="7.03517">
        <ele>855</ele>
        <time>2025-06-09T03:43:39.000Z</time>
      </trkpt>
      <trkpt lat="47.81144" lon="7.03513">
        <ele>855</ele>
        <time>2025-06-09T03:43:43.000Z</time>
      </trkpt>
      <trkpt lat="47.81148" lon="7.03505">
        <ele>855</ele>
        <time>2025-06-09T03:43:51.000Z</time>
      </trkpt>
      <trkpt lat="47.8115" lon="7.03497">
        <ele>857</ele>
        <time>2025-06-09T03:44:01.000Z</time>
      </trkpt>
      <trkpt lat="47.81152" lon="7.0349">
        <ele>858</ele>
        <time>2025-06-09T03:44:07.000Z</time>
      </trkpt>
      <trkpt lat="47.81154" lon="7.03483">
        <ele>858</ele>
        <time>2025-06-09T03:44:12.000Z</time>
      </trkpt>
      <trkpt lat="47.81156" lon="7.03477">
        <ele>858</ele>
        <time>2025-06-09T03:44:16.000Z</time>
      </trkpt>
      <trkpt lat="47.81161" lon="7.03446">
        <ele>860</ele>
        <time>2025-06-09T03:44:38.000Z</time>
      </trkpt>
      <trkpt lat="47.81161" lon="7.03439">
        <ele>860</ele>
        <time>2025-06-09T03:44:42.000Z</time>
      </trkpt>
      <trkpt lat="47.81163" lon="7.03419">
        <ele>859</ele>
        <time>2025-06-09T03:44:57.000Z</time>
      </trkpt>
      <trkpt lat="47.81167" lon="7.03402">
        <ele>861</ele>
        <time>2025-06-09T03:45:13.000Z</time>
      </trkpt>
      <trkpt lat="47.81168" lon="7.03395">
        <ele>861</ele>
        <time>2025-06-09T03:45:17.000Z</time>
      </trkpt>
      <trkpt lat="47.81168" lon="7.03385">
        <ele>862</ele>
        <time>2025-06-09T03:45:26.000Z</time>
      </trkpt>
      <trkpt lat="47.81165" lon="7.03373">
        <ele>864</ele>
        <time>2025-06-09T03:45:37.000Z</time>
      </trkpt>
      <trkpt lat="47.81164" lon="7.03356">
        <ele>865</ele>
        <time>2025-06-09T03:45:49.000Z</time>
      </trkpt>
      <trkpt lat="47.81161" lon="7.0335">
        <ele>866</ele>
        <time>2025-06-09T03:45:54.000Z</time>
      </trkpt>
      <trkpt lat="47.81157" lon="7.03343">
        <ele>866</ele>
        <time>2025-06-09T03:46:03.000Z</time>
      </trkpt>
      <trkpt lat="47.81162" lon="7.03343">
        <ele>866</ele>
        <time>2025-06-09T03:46:26.000Z</time>
      </trkpt>
      <trkpt lat="47.81189" lon="7.03348">
        <ele>864</ele>
        <time>2025-06-09T03:53:37.000Z</time>
      </trkpt>
      <trkpt lat="47.8119" lon="7.03348">
        <ele>864</ele>
        <time>2025-06-09T03:53:38.000Z</time>
      </trkpt>
      <trkpt lat="47.81197" lon="7.03343">
        <ele>866</ele>
        <time>2025-06-09T03:53:45.000Z</time>
      </trkpt>
      <trkpt lat="47.81213" lon="7.03345">
        <ele>866</ele>
        <time>2025-06-09T03:54:02.000Z</time>
      </trkpt>
      <trkpt lat="47.81224" lon="7.0335">
        <ele>868</ele>
        <time>2025-06-09T03:54:20.000Z</time>
      </trkpt>
      <trkpt lat="47.81228" lon="7.03354">
        <ele>868</ele>
        <time>2025-06-09T03:54:25.000Z</time>
      </trkpt>
      <trkpt lat="47.81236" lon="7.03359">
        <ele>867</ele>
        <time>2025-06-09T03:54:37.000Z</time>
      </trkpt>
      <trkpt lat="47.81246" lon="7.0337">
        <ele>867</ele>
        <time>2025-06-09T03:55:00.000Z</time>
      </trkpt>
      <trkpt lat="47.81257" lon="7.03378">
        <ele>868</ele>
        <time>2025-06-09T03:55:19.000Z</time>
      </trkpt>
      <trkpt lat="47.81276" lon="7.0338">
        <ele>873</ele>
        <time>2025-06-09T03:55:50.000Z</time>
      </trkpt>
      <trkpt lat="47.81294" lon="7.03382">
        <ele>876</ele>
        <time>2025-06-09T03:56:13.000Z</time>
      </trkpt>
      <trkpt lat="47.81303" lon="7.03388">
        <ele>878</ele>
        <time>2025-06-09T03:56:24.000Z</time>
      </trkpt>
      <trkpt lat="47.81311" lon="7.03397">
        <ele>879</ele>
        <time>2025-06-09T03:56:33.000Z</time>
      </trkpt>
      <trkpt lat="47.81315" lon="7.03402">
        <ele>879</ele>
        <time>2025-06-09T03:56:38.000Z</time>
      </trkpt>
      <trkpt lat="47.8132" lon="7.03401">
        <ele>879</ele>
        <time>2025-06-09T03:56:41.000Z</time>
      </trkpt>
      <trkpt lat="47.81325" lon="7.03406">
        <ele>880</ele>
        <time>2025-06-09T03:56:48.000Z</time>
      </trkpt>
      <trkpt lat="47.81331" lon="7.03418">
        <ele>881</ele>
        <time>2025-06-09T03:56:56.000Z</time>
      </trkpt>
      <trkpt lat="47.81335" lon="7.03423">
        <ele>882</ele>
        <time>2025-06-09T03:57:02.000Z</time>
      </trkpt>
      <trkpt lat="47.81338" lon="7.03429">
        <ele>883</ele>
        <time>2025-06-09T03:57:08.000Z</time>
      </trkpt>
      <trkpt lat="47.81346" lon="7.03437">
        <ele>884</ele>
        <time>2025-06-09T03:57:16.000Z</time>
      </trkpt>
      <trkpt lat="47.81351" lon="7.0344">
        <ele>885</ele>
        <time>2025-06-09T03:57:21.000Z</time>
      </trkpt>
      <trkpt lat="47.81365" lon="7.03454">
        <ele>888</ele>
        <time>2025-06-09T03:57:40.000Z</time>
      </trkpt>
      <trkpt lat="47.81367" lon="7.03459">
        <ele>889</ele>
        <time>2025-06-09T03:57:45.000Z</time>
      </trkpt>
      <trkpt lat="47.81372" lon="7.03462">
        <ele>890</ele>
        <time>2025-06-09T03:57:50.000Z</time>
      </trkpt>
      <trkpt lat="47.81381" lon="7.03458">
        <ele>892</ele>
        <time>2025-06-09T03:57:59.000Z</time>
      </trkpt>
      <trkpt lat="47.81386" lon="7.03459">
        <ele>892</ele>
        <time>2025-06-09T03:58:03.000Z</time>
      </trkpt>
      <trkpt lat="47.81395" lon="7.03474">
        <ele>891</ele>
        <time>2025-06-09T03:58:15.000Z</time>
      </trkpt>
      <trkpt lat="47.81399" lon="7.03479">
        <ele>892</ele>
        <time>2025-06-09T03:58:19.000Z</time>
      </trkpt>
      <trkpt lat="47.81407" lon="7.03486">
        <ele>893</ele>
        <time>2025-06-09T03:58:27.000Z</time>
      </trkpt>
      <trkpt lat="47.81422" lon="7.03489">
        <ele>895</ele>
        <time>2025-06-09T03:58:44.000Z</time>
      </trkpt>
      <trkpt lat="47.81427" lon="7.0349">
        <ele>895</ele>
        <time>2025-06-09T03:58:48.000Z</time>
      </trkpt>
      <trkpt lat="47.81459" lon="7.035">
        <ele>900</ele>
        <time>2025-06-09T03:59:22.000Z</time>
      </trkpt>
      <trkpt lat="47.81465" lon="7.03502">
        <ele>901</ele>
        <time>2025-06-09T03:59:29.000Z</time>
      </trkpt>
      <trkpt lat="47.8148" lon="7.0351">
        <ele>904</ele>
        <time>2025-06-09T03:59:47.000Z</time>
      </trkpt>
      <trkpt lat="47.81489" lon="7.03511">
        <ele>904</ele>
        <time>2025-06-09T03:59:54.000Z</time>
      </trkpt>
      <trkpt lat="47.81495" lon="7.03511">
        <ele>906</ele>
        <time>2025-06-09T04:00:01.000Z</time>
      </trkpt>
      <trkpt lat="47.81499" lon="7.03514">
        <ele>906</ele>
        <time>2025-06-09T04:00:05.000Z</time>
      </trkpt>
      <trkpt lat="47.81517" lon="7.03516">
        <ele>907</ele>
        <time>2025-06-09T04:00:20.000Z</time>
      </trkpt>
      <trkpt lat="47.81522" lon="7.03519">
        <ele>908</ele>
        <time>2025-06-09T04:00:25.000Z</time>
      </trkpt>
      <trkpt lat="47.81529" lon="7.03522">
        <ele>909</ele>
        <time>2025-06-09T04:00:32.000Z</time>
      </trkpt>
      <trkpt lat="47.81536" lon="7.03518">
        <ele>910</ele>
        <time>2025-06-09T04:00:41.000Z</time>
      </trkpt>
      <trkpt lat="47.81547" lon="7.03518">
        <ele>911</ele>
        <time>2025-06-09T04:00:51.000Z</time>
      </trkpt>
      <trkpt lat="47.81552" lon="7.03512">
        <ele>913</ele>
        <time>2025-06-09T04:00:58.000Z</time>
      </trkpt>
      <trkpt lat="47.81561" lon="7.0351">
        <ele>914</ele>
        <time>2025-06-09T04:01:05.000Z</time>
      </trkpt>
      <trkpt lat="47.81566" lon="7.03506">
        <ele>915</ele>
        <time>2025-06-09T04:01:13.000Z</time>
      </trkpt>
      <trkpt lat="47.8157" lon="7.03509">
        <ele>915</ele>
        <time>2025-06-09T04:01:17.000Z</time>
      </trkpt>
      <trkpt lat="47.8158" lon="7.03509">
        <ele>916</ele>
        <time>2025-06-09T04:01:23.000Z</time>
      </trkpt>
      <trkpt lat="47.81587" lon="7.03504">
        <ele>918</ele>
        <time>2025-06-09T04:01:33.000Z</time>
      </trkpt>
      <trkpt lat="47.81589" lon="7.03495">
        <ele>918</ele>
        <time>2025-06-09T04:01:37.000Z</time>
      </trkpt>
      <trkpt lat="47.81595" lon="7.03489">
        <ele>919</ele>
        <time>2025-06-09T04:01:44.000Z</time>
      </trkpt>
      <trkpt lat="47.81607" lon="7.03489">
        <ele>920</ele>
        <time>2025-06-09T04:01:48.000Z</time>
      </trkpt>
      <trkpt lat="47.81611" lon="7.03487">
        <ele>920</ele>
        <time>2025-06-09T04:01:52.000Z</time>
      </trkpt>
      <trkpt lat="47.81618" lon="7.03477">
        <ele>921</ele>
        <time>2025-06-09T04:01:57.000Z</time>
      </trkpt>
      <trkpt lat="47.8163" lon="7.03469">
        <ele>923</ele>
        <time>2025-06-09T04:02:10.000Z</time>
      </trkpt>
      <trkpt lat="47.81634" lon="7.03467">
        <ele>924</ele>
        <time>2025-06-09T04:02:14.000Z</time>
      </trkpt>
      <trkpt lat="47.81647" lon="7.0346">
        <ele>927</ele>
        <time>2025-06-09T04:02:30.000Z</time>
      </trkpt>
      <trkpt lat="47.81679" lon="7.03458">
        <ele>930</ele>
        <time>2025-06-09T04:02:55.000Z</time>
      </trkpt>
      <trkpt lat="47.81682" lon="7.03454">
        <ele>931</ele>
        <time>2025-06-09T04:02:59.000Z</time>
      </trkpt>
      <trkpt lat="47.81688" lon="7.03452">
        <ele>932</ele>
        <time>2025-06-09T04:03:01.000Z</time>
      </trkpt>
      <trkpt lat="47.81695" lon="7.03452">
        <ele>933</ele>
        <time>2025-06-09T04:03:07.000Z</time>
      </trkpt>
      <trkpt lat="47.81701" lon="7.0345">
        <ele>934</ele>
        <time>2025-06-09T04:03:14.000Z</time>
      </trkpt>
      <trkpt lat="47.81705" lon="7.03448">
        <ele>934</ele>
        <time>2025-06-09T04:03:18.000Z</time>
      </trkpt>
      <trkpt lat="47.81711" lon="7.03445">
        <ele>935</ele>
        <time>2025-06-09T04:03:24.000Z</time>
      </trkpt>
      <trkpt lat="47.81727" lon="7.03454">
        <ele>937</ele>
        <time>2025-06-09T04:03:34.000Z</time>
      </trkpt>
      <trkpt lat="47.81734" lon="7.03455">
        <ele>938</ele>
        <time>2025-06-09T04:03:41.000Z</time>
      </trkpt>
      <trkpt lat="47.81741" lon="7.03449">
        <ele>939</ele>
        <time>2025-06-09T04:03:48.000Z</time>
      </trkpt>
      <trkpt lat="47.81746" lon="7.03452">
        <ele>940</ele>
        <time>2025-06-09T04:03:53.000Z</time>
      </trkpt>
      <trkpt lat="47.81752" lon="7.03462">
        <ele>941</ele>
        <time>2025-06-09T04:03:57.000Z</time>
      </trkpt>
      <trkpt lat="47.81756" lon="7.03465">
        <ele>940</ele>
        <time>2025-06-09T04:04:01.000Z</time>
      </trkpt>
      <trkpt lat="47.81762" lon="7.03466">
        <ele>941</ele>
        <time>2025-06-09T04:04:05.000Z</time>
      </trkpt>
      <trkpt lat="47.81782" lon="7.03487">
        <ele>946</ele>
        <time>2025-06-09T04:04:34.000Z</time>
      </trkpt>
      <trkpt lat="47.81791" lon="7.03498">
        <ele>947</ele>
        <time>2025-06-09T04:04:42.000Z</time>
      </trkpt>
      <trkpt lat="47.81797" lon="7.03503">
        <ele>948</ele>
        <time>2025-06-09T04:04:48.000Z</time>
      </trkpt>
      <trkpt lat="47.81802" lon="7.03509">
        <ele>950</ele>
        <time>2025-06-09T04:04:58.000Z</time>
      </trkpt>
      <trkpt lat="47.81805" lon="7.03515">
        <ele>950</ele>
        <time>2025-06-09T04:05:02.000Z</time>
      </trkpt>
      <trkpt lat="47.81809" lon="7.03518">
        <ele>950</ele>
        <time>2025-06-09T04:05:04.000Z</time>
      </trkpt>
      <trkpt lat="47.81815" lon="7.03522">
        <ele>952</ele>
        <time>2025-06-09T04:05:13.000Z</time>
      </trkpt>
      <trkpt lat="47.81818" lon="7.03528">
        <ele>952</ele>
        <time>2025-06-09T04:05:16.000Z</time>
      </trkpt>
      <trkpt lat="47.81823" lon="7.03528">
        <ele>953</ele>
        <time>2025-06-09T04:05:21.000Z</time>
      </trkpt>
      <trkpt lat="47.81825" lon="7.03536">
        <ele>953</ele>
        <time>2025-06-09T04:05:27.000Z</time>
      </trkpt>
      <trkpt lat="47.81829" lon="7.03541">
        <ele>954</ele>
        <time>2025-06-09T04:05:32.000Z</time>
      </trkpt>
      <trkpt lat="47.81833" lon="7.03544">
        <ele>955</ele>
        <time>2025-06-09T04:05:35.000Z</time>
      </trkpt>
      <trkpt lat="47.81839" lon="7.03543">
        <ele>956</ele>
        <time>2025-06-09T04:05:41.000Z</time>
      </trkpt>
      <trkpt lat="47.81841" lon="7.0355">
        <ele>957</ele>
        <time>2025-06-09T04:05:45.000Z</time>
      </trkpt>
      <trkpt lat="47.81844" lon="7.03555">
        <ele>957</ele>
        <time>2025-06-09T04:05:48.000Z</time>
      </trkpt>
      <trkpt lat="47.81848" lon="7.0356">
        <ele>957</ele>
        <time>2025-06-09T04:05:53.000Z</time>
      </trkpt>
      <trkpt lat="47.8185" lon="7.03567">
        <ele>957</ele>
        <time>2025-06-09T04:05:57.000Z</time>
      </trkpt>
      <trkpt lat="47.81854" lon="7.03571">
        <ele>958</ele>
        <time>2025-06-09T04:06:02.000Z</time>
      </trkpt>
      <trkpt lat="47.81865" lon="7.03599">
        <ele>961</ele>
        <time>2025-06-09T04:06:24.000Z</time>
      </trkpt>
      <trkpt lat="47.81872" lon="7.03607">
        <ele>962</ele>
        <time>2025-06-09T04:06:32.000Z</time>
      </trkpt>
      <trkpt lat="47.81871" lon="7.03615">
        <ele>961</ele>
        <time>2025-06-09T04:06:36.000Z</time>
      </trkpt>
      <trkpt lat="47.81874" lon="7.03623">
        <ele>962</ele>
        <time>2025-06-09T04:06:43.000Z</time>
      </trkpt>
      <trkpt lat="47.81878" lon="7.03628">
        <ele>963</ele>
        <time>2025-06-09T04:06:52.000Z</time>
      </trkpt>
      <trkpt lat="47.81884" lon="7.0364">
        <ele>962</ele>
        <time>2025-06-09T04:07:03.000Z</time>
      </trkpt>
      <trkpt lat="47.8189" lon="7.03645">
        <ele>962</ele>
        <time>2025-06-09T04:07:14.000Z</time>
      </trkpt>
      <trkpt lat="47.81896" lon="7.03642">
        <ele>962</ele>
        <time>2025-06-09T04:07:20.000Z</time>
      </trkpt>
      <trkpt lat="47.819" lon="7.03629">
        <ele>962</ele>
        <time>2025-06-09T04:07:30.000Z</time>
      </trkpt>
      <trkpt lat="47.81902" lon="7.0362">
        <ele>962</ele>
        <time>2025-06-09T04:07:37.000Z</time>
      </trkpt>
      <trkpt lat="47.81905" lon="7.03605">
        <ele>965</ele>
        <time>2025-06-09T04:07:48.000Z</time>
      </trkpt>
      <trkpt lat="47.81908" lon="7.03588">
        <ele>965</ele>
        <time>2025-06-09T04:08:01.000Z</time>
      </trkpt>
      <trkpt lat="47.81913" lon="7.03539">
        <ele>970</ele>
        <time>2025-06-09T04:08:32.000Z</time>
      </trkpt>
      <trkpt lat="47.81916" lon="7.03504">
        <ele>972</ele>
        <time>2025-06-09T04:08:49.000Z</time>
      </trkpt>
      <trkpt lat="47.8193" lon="7.03449">
        <ele>977</ele>
        <time>2025-06-09T04:09:22.000Z</time>
      </trkpt>
      <trkpt lat="47.81939" lon="7.03433">
        <ele>980</ele>
        <time>2025-06-09T04:09:40.000Z</time>
      </trkpt>
      <trkpt lat="47.81954" lon="7.03414">
        <ele>981</ele>
        <time>2025-06-09T04:09:54.000Z</time>
      </trkpt>
      <trkpt lat="47.81953" lon="7.034">
        <ele>982</ele>
        <time>2025-06-09T04:09:57.000Z</time>
      </trkpt>
      <trkpt lat="47.81959" lon="7.03401">
        <ele>983</ele>
        <time>2025-06-09T04:10:04.000Z</time>
      </trkpt>
      <trkpt lat="47.81964" lon="7.03397">
        <ele>985</ele>
        <time>2025-06-09T04:10:10.000Z</time>
      </trkpt>
      <trkpt lat="47.81969" lon="7.03395">
        <ele>986</ele>
        <time>2025-06-09T04:10:13.000Z</time>
      </trkpt>
      <trkpt lat="47.81972" lon="7.03392">
        <ele>986</ele>
        <time>2025-06-09T04:10:18.000Z</time>
      </trkpt>
      <trkpt lat="47.81997" lon="7.03381">
        <ele>989</ele>
        <time>2025-06-09T04:10:36.000Z</time>
      </trkpt>
      <trkpt lat="47.81996" lon="7.03378">
        <ele>991</ele>
        <time>2025-06-09T04:10:43.000Z</time>
      </trkpt>
      <trkpt lat="47.81982" lon="7.03381">
        <ele>992</ele>
        <time>2025-06-09T04:10:54.000Z</time>
      </trkpt>
      <trkpt lat="47.81978" lon="7.03385">
        <ele>992</ele>
        <time>2025-06-09T04:10:57.000Z</time>
      </trkpt>
      <trkpt lat="47.81972" lon="7.03385">
        <ele>992</ele>
        <time>2025-06-09T04:11:01.000Z</time>
      </trkpt>
      <trkpt lat="47.81965" lon="7.03386">
        <ele>993</ele>
        <time>2025-06-09T04:11:10.000Z</time>
      </trkpt>
      <trkpt lat="47.81941" lon="7.03396">
        <ele>1000</ele>
        <time>2025-06-09T04:11:38.000Z</time>
      </trkpt>
      <trkpt lat="47.8194" lon="7.0338">
        <ele>1003</ele>
        <time>2025-06-09T04:11:48.000Z</time>
      </trkpt>
      <trkpt lat="47.81943" lon="7.03366">
        <ele>1004</ele>
        <time>2025-06-09T04:11:50.000Z</time>
      </trkpt>
      <trkpt lat="47.81944" lon="7.03359">
        <ele>1004</ele>
        <time>2025-06-09T04:11:51.000Z</time>
      </trkpt>
      <trkpt lat="47.81949" lon="7.03345">
        <ele>1004</ele>
        <time>2025-06-09T04:11:56.000Z</time>
      </trkpt>
      <trkpt lat="47.81964" lon="7.03324">
        <ele>1006</ele>
        <time>2025-06-09T04:12:11.000Z</time>
      </trkpt>
      <trkpt lat="47.81968" lon="7.03322">
        <ele>1006</ele>
        <time>2025-06-09T04:12:13.000Z</time>
      </trkpt>
      <trkpt lat="47.81976" lon="7.03316">
        <ele>1007</ele>
        <time>2025-06-09T04:12:20.000Z</time>
      </trkpt>
      <trkpt lat="47.81983" lon="7.03307">
        <ele>1008</ele>
        <time>2025-06-09T04:12:28.000Z</time>
      </trkpt>
      <trkpt lat="47.82005" lon="7.03295">
        <ele>1012</ele>
        <time>2025-06-09T04:12:53.000Z</time>
      </trkpt>
      <trkpt lat="47.82009" lon="7.03291">
        <ele>1012</ele>
        <time>2025-06-09T04:12:56.000Z</time>
      </trkpt>
      <trkpt lat="47.82028" lon="7.03256">
        <ele>1017</ele>
        <time>2025-06-09T04:13:29.000Z</time>
      </trkpt>
      <trkpt lat="47.8203" lon="7.03251">
        <ele>1017</ele>
        <time>2025-06-09T04:13:33.000Z</time>
      </trkpt>
      <trkpt lat="47.82047" lon="7.03207">
        <ele>1021</ele>
        <time>2025-06-09T04:14:05.000Z</time>
      </trkpt>
      <trkpt lat="47.82064" lon="7.03165">
        <ele>1024</ele>
        <time>2025-06-09T04:14:35.000Z</time>
      </trkpt>
      <trkpt lat="47.82072" lon="7.03148">
        <ele>1025</ele>
        <time>2025-06-09T04:14:47.000Z</time>
      </trkpt>
      <trkpt lat="47.82076" lon="7.03143">
        <ele>1025</ele>
        <time>2025-06-09T04:14:51.000Z</time>
      </trkpt>
      <trkpt lat="47.82079" lon="7.03139">
        <ele>1025</ele>
        <time>2025-06-09T04:14:55.000Z</time>
      </trkpt>
      <trkpt lat="47.82083" lon="7.03134">
        <ele>1027</ele>
        <time>2025-06-09T04:15:00.000Z</time>
      </trkpt>
      <trkpt lat="47.82087" lon="7.03129">
        <ele>1027</ele>
        <time>2025-06-09T04:15:04.000Z</time>
      </trkpt>
      <trkpt lat="47.82115" lon="7.03097">
        <ele>1030</ele>
        <time>2025-06-09T04:15:37.000Z</time>
      </trkpt>
      <trkpt lat="47.82123" lon="7.03089">
        <ele>1031</ele>
        <time>2025-06-09T04:15:45.000Z</time>
      </trkpt>
      <trkpt lat="47.82137" lon="7.03082">
        <ele>1032</ele>
        <time>2025-06-09T04:15:58.000Z</time>
      </trkpt>
      <trkpt lat="47.8214" lon="7.03079">
        <ele>1032</ele>
        <time>2025-06-09T04:16:02.000Z</time>
      </trkpt>
      <trkpt lat="47.82138" lon="7.03072">
        <ele>1034</ele>
        <time>2025-06-09T04:16:09.000Z</time>
      </trkpt>
      <trkpt lat="47.82098" lon="7.03083">
        <ele>1038</ele>
        <time>2025-06-09T04:16:42.000Z</time>
      </trkpt>
      <trkpt lat="47.82061" lon="7.03107">
        <ele>1041</ele>
        <time>2025-06-09T04:17:14.000Z</time>
      </trkpt>
      <trkpt lat="47.82038" lon="7.03123">
        <ele>1044</ele>
        <time>2025-06-09T04:17:40.000Z</time>
      </trkpt>
      <trkpt lat="47.82034" lon="7.0312">
        <ele>1045</ele>
        <time>2025-06-09T04:17:45.000Z</time>
      </trkpt>
      <trkpt lat="47.82049" lon="7.03084">
        <ele>1049</ele>
        <time>2025-06-09T04:18:11.000Z</time>
      </trkpt>
      <trkpt lat="47.82067" lon="7.03047">
        <ele>1054</ele>
        <time>2025-06-09T04:18:41.000Z</time>
      </trkpt>
      <trkpt lat="47.82081" lon="7.03022">
        <ele>1059</ele>
        <time>2025-06-09T04:19:02.000Z</time>
      </trkpt>
      <trkpt lat="47.82086" lon="7.03016">
        <ele>1060</ele>
        <time>2025-06-09T04:19:10.000Z</time>
      </trkpt>
      <trkpt lat="47.82103" lon="7.02986">
        <ele>1064</ele>
        <time>2025-06-09T04:19:35.000Z</time>
      </trkpt>
      <trkpt lat="47.82124" lon="7.02956">
        <ele>1070</ele>
        <time>2025-06-09T04:20:07.000Z</time>
      </trkpt>
      <trkpt lat="47.82149" lon="7.02927">
        <ele>1076</ele>
        <time>2025-06-09T04:20:39.000Z</time>
      </trkpt>
      <trkpt lat="47.82158" lon="7.02916">
        <ele>1078</ele>
        <time>2025-06-09T04:20:51.000Z</time>
      </trkpt>
      <trkpt lat="47.82169" lon="7.02905">
        <ele>1081</ele>
        <time>2025-06-09T04:21:05.000Z</time>
      </trkpt>
      <trkpt lat="47.82193" lon="7.02887">
        <ele>1087</ele>
        <time>2025-06-09T04:21:37.000Z</time>
      </trkpt>
      <trkpt lat="47.82219" lon="7.02867">
        <ele>1092</ele>
        <time>2025-06-09T04:22:05.000Z</time>
      </trkpt>
      <trkpt lat="47.82224" lon="7.02867">
        <ele>1094</ele>
        <time>2025-06-09T04:22:12.000Z</time>
      </trkpt>
      <trkpt lat="47.82232" lon="7.02859">
        <ele>1095</ele>
        <time>2025-06-09T04:22:22.000Z</time>
      </trkpt>
      <trkpt lat="47.82264" lon="7.02842">
        <ele>1101</ele>
        <time>2025-06-09T04:22:56.000Z</time>
      </trkpt>
      <trkpt lat="47.82284" lon="7.0284">
        <ele>1104</ele>
        <time>2025-06-09T04:23:15.000Z</time>
      </trkpt>
      <trkpt lat="47.82289" lon="7.02838">
        <ele>1105</ele>
        <time>2025-06-09T04:23:20.000Z</time>
      </trkpt>
      <trkpt lat="47.82327" lon="7.0283">
        <ele>1110</ele>
        <time>2025-06-09T04:23:55.000Z</time>
      </trkpt>
      <trkpt lat="47.82353" lon="7.02828">
        <ele>1113</ele>
        <time>2025-06-09T04:24:17.000Z</time>
      </trkpt>
      <trkpt lat="47.82387" lon="7.02833">
        <ele>1117</ele>
        <time>2025-06-09T04:24:48.000Z</time>
      </trkpt>
      <trkpt lat="47.82391" lon="7.02835">
        <ele>1117</ele>
        <time>2025-06-09T04:24:51.000Z</time>
      </trkpt>
      <trkpt lat="47.82396" lon="7.02836">
        <ele>1118</ele>
        <time>2025-06-09T04:24:56.000Z</time>
      </trkpt>
      <trkpt lat="47.82402" lon="7.02834">
        <ele>1120</ele>
        <time>2025-06-09T04:25:05.000Z</time>
      </trkpt>
      <trkpt lat="47.82415" lon="7.02831">
        <ele>1123</ele>
        <time>2025-06-09T04:25:23.000Z</time>
      </trkpt>
      <trkpt lat="47.82426" lon="7.02828">
        <ele>1125</ele>
        <time>2025-06-09T04:25:35.000Z</time>
      </trkpt>
      <trkpt lat="47.8243" lon="7.02823">
        <ele>1126</ele>
        <time>2025-06-09T04:25:39.000Z</time>
      </trkpt>
      <trkpt lat="47.82431" lon="7.02814">
        <ele>1128</ele>
        <time>2025-06-09T04:25:52.000Z</time>
      </trkpt>
      <trkpt lat="47.82423" lon="7.02791">
        <ele>1132</ele>
        <time>2025-06-09T04:26:14.000Z</time>
      </trkpt>
      <trkpt lat="47.82419" lon="7.02785">
        <ele>1134</ele>
        <time>2025-06-09T04:26:20.000Z</time>
      </trkpt>
      <trkpt lat="47.82407" lon="7.02748">
        <ele>1140</ele>
        <time>2025-06-09T04:26:52.000Z</time>
      </trkpt>
      <trkpt lat="47.8238" lon="7.02713">
        <ele>1144</ele>
        <time>2025-06-09T04:27:26.000Z</time>
      </trkpt>
      <trkpt lat="47.82354" lon="7.02678">
        <ele>1148</ele>
        <time>2025-06-09T04:27:58.000Z</time>
      </trkpt>
      <trkpt lat="47.82335" lon="7.0264">
        <ele>1153</ele>
        <time>2025-06-09T04:28:31.000Z</time>
      </trkpt>
      <trkpt lat="47.82319" lon="7.02602">
        <ele>1158</ele>
        <time>2025-06-09T04:29:02.000Z</time>
      </trkpt>
      <trkpt lat="47.82317" lon="7.02596">
        <ele>1158</ele>
        <time>2025-06-09T04:29:06.000Z</time>
      </trkpt>
      <trkpt lat="47.82313" lon="7.0257">
        <ele>1161</ele>
        <time>2025-06-09T04:29:26.000Z</time>
      </trkpt>
      <trkpt lat="47.82315" lon="7.02553">
        <ele>1162</ele>
        <time>2025-06-09T04:29:42.000Z</time>
      </trkpt>
      <trkpt lat="47.82314" lon="7.02545">
        <ele>1161</ele>
        <time>2025-06-09T04:30:06.000Z</time>
      </trkpt>
      <trkpt lat="47.8231" lon="7.02495">
        <ele>1156</ele>
        <time>2025-06-09T04:30:41.000Z</time>
      </trkpt>
      <trkpt lat="47.8231" lon="7.02453">
        <ele>1148</ele>
        <time>2025-06-09T04:31:11.000Z</time>
      </trkpt>
      <trkpt lat="47.82311" lon="7.02406">
        <ele>1139</ele>
        <time>2025-06-09T04:31:46.000Z</time>
      </trkpt>
      <trkpt lat="47.82315" lon="7.02362">
        <ele>1131</ele>
        <time>2025-06-09T04:32:19.000Z</time>
      </trkpt>
      <trkpt lat="47.82316" lon="7.02355">
        <ele>1130</ele>
        <time>2025-06-09T04:32:23.000Z</time>
      </trkpt>
      <trkpt lat="47.82316" lon="7.02348">
        <ele>1130</ele>
        <time>2025-06-09T04:32:27.000Z</time>
      </trkpt>
      <trkpt lat="47.82321" lon="7.02307">
        <ele>1125</ele>
        <time>2025-06-09T04:32:55.000Z</time>
      </trkpt>
      <trkpt lat="47.82321" lon="7.023">
        <ele>1124</ele>
        <time>2025-06-09T04:33:03.000Z</time>
      </trkpt>
      <trkpt lat="47.82331" lon="7.02299">
        <ele>1124</ele>
        <time>2025-06-09T04:33:11.000Z</time>
      </trkpt>
      <trkpt lat="47.82325" lon="7.02299">
        <ele>1124</ele>
        <time>2025-06-09T04:34:28.000Z</time>
      </trkpt>
      <trkpt lat="47.82321" lon="7.02296">
        <ele>1123</ele>
        <time>2025-06-09T04:34:33.000Z</time>
      </trkpt>
      <trkpt lat="47.82313" lon="7.02272">
        <ele>1120</ele>
        <time>2025-06-09T04:34:50.000Z</time>
      </trkpt>
      <trkpt lat="47.82312" lon="7.02249">
        <ele>1118</ele>
        <time>2025-06-09T04:35:03.000Z</time>
      </trkpt>
      <trkpt lat="47.82312" lon="7.02235">
        <ele>1118</ele>
        <time>2025-06-09T04:35:11.000Z</time>
      </trkpt>
      <trkpt lat="47.823" lon="7.02179">
        <ele>1113</ele>
        <time>2025-06-09T04:35:43.000Z</time>
      </trkpt>
      <trkpt lat="47.82289" lon="7.02124">
        <ele>1108</ele>
        <time>2025-06-09T04:36:17.000Z</time>
      </trkpt>
      <trkpt lat="47.82279" lon="7.02066">
        <ele>1106</ele>
        <time>2025-06-09T04:36:50.000Z</time>
      </trkpt>
      <trkpt lat="47.82272" lon="7.02006">
        <ele>1106</ele>
        <time>2025-06-09T04:37:23.000Z</time>
      </trkpt>
      <trkpt lat="47.82271" lon="7.01992">
        <ele>1106</ele>
        <time>2025-06-09T04:37:30.000Z</time>
      </trkpt>
      <trkpt lat="47.82272" lon="7.01978">
        <ele>1106</ele>
        <time>2025-06-09T04:37:38.000Z</time>
      </trkpt>
      <trkpt lat="47.82267" lon="7.0195">
        <ele>1107</ele>
        <time>2025-06-09T04:37:55.000Z</time>
      </trkpt>
      <trkpt lat="47.82269" lon="7.01944">
        <ele>1107</ele>
        <time>2025-06-09T04:38:00.000Z</time>
      </trkpt>
      <trkpt lat="47.82265" lon="7.01928">
        <ele>1107</ele>
        <time>2025-06-09T04:38:13.000Z</time>
      </trkpt>
      <trkpt lat="47.82259" lon="7.0187">
        <ele>1108</ele>
        <time>2025-06-09T04:38:46.000Z</time>
      </trkpt>
      <trkpt lat="47.82252" lon="7.01811">
        <ele>1110</ele>
        <time>2025-06-09T04:39:18.000Z</time>
      </trkpt>
      <trkpt lat="47.82242" lon="7.01755">
        <ele>1111</ele>
        <time>2025-06-09T04:39:49.000Z</time>
      </trkpt>
      <trkpt lat="47.82238" lon="7.01726">
        <ele>1111</ele>
        <time>2025-06-09T04:40:07.000Z</time>
      </trkpt>
      <trkpt lat="47.82237" lon="7.01718">
        <ele>1111</ele>
        <time>2025-06-09T04:40:11.000Z</time>
      </trkpt>
      <trkpt lat="47.82236" lon="7.0171">
        <ele>1111</ele>
        <time>2025-06-09T04:40:15.000Z</time>
      </trkpt>
      <trkpt lat="47.82235" lon="7.01674">
        <ele>1111</ele>
        <time>2025-06-09T04:40:35.000Z</time>
      </trkpt>
      <trkpt lat="47.82236" lon="7.01667">
        <ele>1111</ele>
        <time>2025-06-09T04:40:39.000Z</time>
      </trkpt>
      <trkpt lat="47.82235" lon="7.01661">
        <ele>1111</ele>
        <time>2025-06-09T04:40:44.000Z</time>
      </trkpt>
      <trkpt lat="47.82236" lon="7.016">
        <ele>1110</ele>
        <time>2025-06-09T04:41:16.000Z</time>
      </trkpt>
      <trkpt lat="47.82236" lon="7.01541">
        <ele>1111</ele>
        <time>2025-06-09T04:41:47.000Z</time>
      </trkpt>
      <trkpt lat="47.82236" lon="7.01491">
        <ele>1115</ele>
        <time>2025-06-09T04:42:18.000Z</time>
      </trkpt>
      <trkpt lat="47.82236" lon="7.01468">
        <ele>1117</ele>
        <time>2025-06-09T04:42:33.000Z</time>
      </trkpt>
      <trkpt lat="47.82239" lon="7.01456">
        <ele>1118</ele>
        <time>2025-06-09T04:42:47.000Z</time>
      </trkpt>
      <trkpt lat="47.82247" lon="7.01452">
        <ele>1118</ele>
        <time>2025-06-09T04:42:51.000Z</time>
      </trkpt>
      <trkpt lat="47.82264" lon="7.01405">
        <ele>1122</ele>
        <time>2025-06-09T04:43:23.000Z</time>
      </trkpt>
      <trkpt lat="47.82267" lon="7.014">
        <ele>1122</ele>
        <time>2025-06-09T04:43:27.000Z</time>
      </trkpt>
      <trkpt lat="47.8227" lon="7.01396">
        <ele>1122</ele>
        <time>2025-06-09T04:43:31.000Z</time>
      </trkpt>
      <trkpt lat="47.82279" lon="7.0138">
        <ele>1123</ele>
        <time>2025-06-09T04:43:42.000Z</time>
      </trkpt>
      <trkpt lat="47.82289" lon="7.01326">
        <ele>1128</ele>
        <time>2025-06-09T04:44:17.000Z</time>
      </trkpt>
      <trkpt lat="47.82301" lon="7.0127">
        <ele>1131</ele>
        <time>2025-06-09T04:44:50.000Z</time>
      </trkpt>
      <trkpt lat="47.82305" lon="7.0125">
        <ele>1133</ele>
        <time>2025-06-09T04:45:04.000Z</time>
      </trkpt>
      <trkpt lat="47.82309" lon="7.01239">
        <ele>1134</ele>
        <time>2025-06-09T04:45:12.000Z</time>
      </trkpt>
      <trkpt lat="47.82311" lon="7.01232">
        <ele>1133</ele>
        <time>2025-06-09T04:45:16.000Z</time>
      </trkpt>
      <trkpt lat="47.82314" lon="7.01226">
        <ele>1134</ele>
        <time>2025-06-09T04:45:20.000Z</time>
      </trkpt>
      <trkpt lat="47.82315" lon="7.01205">
        <ele>1135</ele>
        <time>2025-06-09T04:45:32.000Z</time>
      </trkpt>
      <trkpt lat="47.82324" lon="7.01184">
        <ele>1134</ele>
        <time>2025-06-09T04:45:44.000Z</time>
      </trkpt>
      <trkpt lat="47.82326" lon="7.01179">
        <ele>1134</ele>
        <time>2025-06-09T04:45:47.000Z</time>
      </trkpt>
      <trkpt lat="47.82329" lon="7.01173">
        <ele>1134</ele>
        <time>2025-06-09T04:45:51.000Z</time>
      </trkpt>
      <trkpt lat="47.82336" lon="7.01156">
        <ele>1133</ele>
        <time>2025-06-09T04:46:03.000Z</time>
      </trkpt>
      <trkpt lat="47.82338" lon="7.0115">
        <ele>1134</ele>
        <time>2025-06-09T04:46:07.000Z</time>
      </trkpt>
      <trkpt lat="47.8234" lon="7.01144">
        <ele>1134</ele>
        <time>2025-06-09T04:46:11.000Z</time>
      </trkpt>
      <trkpt lat="47.82345" lon="7.01132">
        <ele>1134</ele>
        <time>2025-06-09T04:46:20.000Z</time>
      </trkpt>
      <trkpt lat="47.82349" lon="7.0112">
        <ele>1134</ele>
        <time>2025-06-09T04:46:28.000Z</time>
      </trkpt>
      <trkpt lat="47.82367" lon="7.01067">
        <ele>1136</ele>
        <time>2025-06-09T04:47:02.000Z</time>
      </trkpt>
      <trkpt lat="47.82369" lon="7.01062">
        <ele>1136</ele>
        <time>2025-06-09T04:47:06.000Z</time>
      </trkpt>
      <trkpt lat="47.82386" lon="7.01026">
        <ele>1138</ele>
        <time>2025-06-09T04:47:30.000Z</time>
      </trkpt>
      <trkpt lat="47.82389" lon="7.01019">
        <ele>1138</ele>
        <time>2025-06-09T04:47:34.000Z</time>
      </trkpt>
      <trkpt lat="47.82405" lon="7.00982">
        <ele>1140</ele>
        <time>2025-06-09T04:47:58.000Z</time>
      </trkpt>
      <trkpt lat="47.82406" lon="7.00974">
        <ele>1141</ele>
        <time>2025-06-09T04:48:04.000Z</time>
      </trkpt>
      <trkpt lat="47.82409" lon="7.00966">
        <ele>1142</ele>
        <time>2025-06-09T04:48:10.000Z</time>
      </trkpt>
      <trkpt lat="47.82416" lon="7.00964">
        <ele>1142</ele>
        <time>2025-06-09T04:48:13.000Z</time>
      </trkpt>
      <trkpt lat="47.82445" lon="7.00925">
        <ele>1145</ele>
        <time>2025-06-09T04:48:46.000Z</time>
      </trkpt>
      <trkpt lat="47.82469" lon="7.00888">
        <ele>1147</ele>
        <time>2025-06-09T04:49:18.000Z</time>
      </trkpt>
      <trkpt lat="47.82473" lon="7.00884">
        <ele>1147</ele>
        <time>2025-06-09T04:49:22.000Z</time>
      </trkpt>
      <trkpt lat="47.82494" lon="7.00855">
        <ele>1149</ele>
        <time>2025-06-09T04:49:46.000Z</time>
      </trkpt>
      <trkpt lat="47.82526" lon="7.00823">
        <ele>1151</ele>
        <time>2025-06-09T04:50:17.000Z</time>
      </trkpt>
      <trkpt lat="47.82556" lon="7.00786">
        <ele>1153</ele>
        <time>2025-06-09T04:50:50.000Z</time>
      </trkpt>
      <trkpt lat="47.82563" lon="7.00774">
        <ele>1153</ele>
        <time>2025-06-09T04:51:00.000Z</time>
      </trkpt>
      <trkpt lat="47.82566" lon="7.00767">
        <ele>1153</ele>
        <time>2025-06-09T04:51:05.000Z</time>
      </trkpt>
      <trkpt lat="47.82569" lon="7.00761">
        <ele>1153</ele>
        <time>2025-06-09T04:51:09.000Z</time>
      </trkpt>
      <trkpt lat="47.82579" lon="7.0074">
        <ele>1153</ele>
        <time>2025-06-09T04:51:25.000Z</time>
      </trkpt>
      <trkpt lat="47.82583" lon="7.00736">
        <ele>1153</ele>
        <time>2025-06-09T04:51:29.000Z</time>
      </trkpt>
      <trkpt lat="47.82587" lon="7.00732">
        <ele>1154</ele>
        <time>2025-06-09T04:51:33.000Z</time>
      </trkpt>
      <trkpt lat="47.82591" lon="7.00728">
        <ele>1153</ele>
        <time>2025-06-09T04:51:38.000Z</time>
      </trkpt>
      <trkpt lat="47.82596" lon="7.00722">
        <ele>1155</ele>
        <time>2025-06-09T04:51:44.000Z</time>
      </trkpt>
      <trkpt lat="47.82616" lon="7.007">
        <ele>1157</ele>
        <time>2025-06-09T04:52:07.000Z</time>
      </trkpt>
      <trkpt lat="47.82624" lon="7.00692">
        <ele>1158</ele>
        <time>2025-06-09T04:52:14.000Z</time>
      </trkpt>
      <trkpt lat="47.82651" lon="7.00658">
        <ele>1161</ele>
        <time>2025-06-09T04:52:47.000Z</time>
      </trkpt>
      <trkpt lat="47.82678" lon="7.00625">
        <ele>1165</ele>
        <time>2025-06-09T04:53:20.000Z</time>
      </trkpt>
      <trkpt lat="47.82708" lon="7.00615">
        <ele>1167</ele>
        <time>2025-06-09T04:53:51.000Z</time>
      </trkpt>
      <trkpt lat="47.82722" lon="7.00608">
        <ele>1168</ele>
        <time>2025-06-09T04:54:04.000Z</time>
      </trkpt>
      <trkpt lat="47.82739" lon="7.00596">
        <ele>1170</ele>
        <time>2025-06-09T04:54:20.000Z</time>
      </trkpt>
      <trkpt lat="47.82771" lon="7.00563">
        <ele>1171</ele>
        <time>2025-06-09T04:54:52.000Z</time>
      </trkpt>
      <trkpt lat="47.82775" lon="7.0056">
        <ele>1170</ele>
        <time>2025-06-09T04:54:56.000Z</time>
      </trkpt>
      <trkpt lat="47.82779" lon="7.00556">
        <ele>1171</ele>
        <time>2025-06-09T04:55:00.000Z</time>
      </trkpt>
      <trkpt lat="47.82792" lon="7.00545">
        <ele>1170</ele>
        <time>2025-06-09T04:55:12.000Z</time>
      </trkpt>
      <trkpt lat="47.82797" lon="7.00543">
        <ele>1171</ele>
        <time>2025-06-09T04:55:16.000Z</time>
      </trkpt>
      <trkpt lat="47.82801" lon="7.0054">
        <ele>1171</ele>
        <time>2025-06-09T04:55:20.000Z</time>
      </trkpt>
      <trkpt lat="47.82805" lon="7.00533">
        <ele>1171</ele>
        <time>2025-06-09T04:55:27.000Z</time>
      </trkpt>
      <trkpt lat="47.82822" lon="7.0052">
        <ele>1173</ele>
        <time>2025-06-09T04:55:45.000Z</time>
      </trkpt>
      <trkpt lat="47.82829" lon="7.00511">
        <ele>1174</ele>
        <time>2025-06-09T04:55:54.000Z</time>
      </trkpt>
      <trkpt lat="47.82838" lon="7.00505">
        <ele>1175</ele>
        <time>2025-06-09T04:56:04.000Z</time>
      </trkpt>
      <trkpt lat="47.82866" lon="7.00476">
        <ele>1179</ele>
        <time>2025-06-09T04:56:37.000Z</time>
      </trkpt>
      <trkpt lat="47.82888" lon="7.0046">
        <ele>1181</ele>
        <time>2025-06-09T04:57:01.000Z</time>
      </trkpt>
      <trkpt lat="47.82892" lon="7.00456">
        <ele>1182</ele>
        <time>2025-06-09T04:57:06.000Z</time>
      </trkpt>
      <trkpt lat="47.82896" lon="7.00452">
        <ele>1185</ele>
        <time>2025-06-09T04:57:56.000Z</time>
      </trkpt>
      <trkpt lat="47.82911" lon="7.00422">
        <ele>1175</ele>
        <time>2025-06-09T05:02:50.000Z</time>
      </trkpt>
      <trkpt lat="47.82911" lon="7.0042">
        <ele>1175</ele>
        <time>2025-06-09T05:02:51.000Z</time>
      </trkpt>
      <trkpt lat="47.82928" lon="7.0037">
        <ele>1170</ele>
        <time>2025-06-09T05:03:25.000Z</time>
      </trkpt>
      <trkpt lat="47.82945" lon="7.00327">
        <ele>1166</ele>
        <time>2025-06-09T05:03:56.000Z</time>
      </trkpt>
      <trkpt lat="47.82958" lon="7.00298">
        <ele>1164</ele>
        <time>2025-06-09T05:04:16.000Z</time>
      </trkpt>
      <trkpt lat="47.82965" lon="7.00288">
        <ele>1163</ele>
        <time>2025-06-09T05:04:24.000Z</time>
      </trkpt>
      <trkpt lat="47.82969" lon="7.00275">
        <ele>1163</ele>
        <time>2025-06-09T05:04:32.000Z</time>
      </trkpt>
      <trkpt lat="47.82982" lon="7.00245">
        <ele>1163</ele>
        <time>2025-06-09T05:04:51.000Z</time>
      </trkpt>
      <trkpt lat="47.82986" lon="7.00241">
        <ele>1163</ele>
        <time>2025-06-09T05:04:56.000Z</time>
      </trkpt>
      <trkpt lat="47.82988" lon="7.00235">
        <ele>1163</ele>
        <time>2025-06-09T05:05:02.000Z</time>
      </trkpt>
      <trkpt lat="47.83005" lon="7.00202">
        <ele>1164</ele>
        <time>2025-06-09T05:05:26.000Z</time>
      </trkpt>
      <trkpt lat="47.83014" lon="7.00175">
        <ele>1166</ele>
        <time>2025-06-09T05:05:47.000Z</time>
      </trkpt>
      <trkpt lat="47.83008" lon="7.00165">
        <ele>1166</ele>
        <time>2025-06-09T05:05:56.000Z</time>
      </trkpt>
      <trkpt lat="47.83011" lon="7.0016">
        <ele>1166</ele>
        <time>2025-06-09T05:06:23.000Z</time>
      </trkpt>
      <trkpt lat="47.83024" lon="7.00167">
        <ele>1163</ele>
        <time>2025-06-09T05:06:39.000Z</time>
      </trkpt>
      <trkpt lat="47.83026" lon="7.00158">
        <ele>1161</ele>
        <time>2025-06-09T05:06:46.000Z</time>
      </trkpt>
      <trkpt lat="47.83035" lon="7.00141">
        <ele>1160</ele>
        <time>2025-06-09T05:06:59.000Z</time>
      </trkpt>
      <trkpt lat="47.83038" lon="7.00133">
        <ele>1160</ele>
        <time>2025-06-09T05:07:06.000Z</time>
      </trkpt>
      <trkpt lat="47.83038" lon="7.00125">
        <ele>1162</ele>
        <time>2025-06-09T05:07:20.000Z</time>
      </trkpt>
      <trkpt lat="47.83062" lon="7.00148">
        <ele>1149</ele>
        <time>2025-06-09T05:11:45.000Z</time>
      </trkpt>
      <trkpt lat="47.83062" lon="7.00149">
        <ele>1149</ele>
        <time>2025-06-09T05:11:46.000Z</time>
      </trkpt>
      <trkpt lat="47.83066" lon="7.00171">
        <ele>1146</ele>
        <time>2025-06-09T05:12:01.000Z</time>
      </trkpt>
      <trkpt lat="47.83068" lon="7.00177">
        <ele>1145</ele>
        <time>2025-06-09T05:12:05.000Z</time>
      </trkpt>
      <trkpt lat="47.83071" lon="7.00174">
        <ele>1142</ele>
        <time>2025-06-09T05:12:21.000Z</time>
      </trkpt>
      <trkpt lat="47.83087" lon="7.00121">
        <ele>1135</ele>
        <time>2025-06-09T05:12:55.000Z</time>
      </trkpt>
      <trkpt lat="47.83096" lon="7.00074">
        <ele>1130</ele>
        <time>2025-06-09T05:13:28.000Z</time>
      </trkpt>
      <trkpt lat="47.83096" lon="7.00067">
        <ele>1129</ele>
        <time>2025-06-09T05:13:33.000Z</time>
      </trkpt>
      <trkpt lat="47.83094" lon="7.0006">
        <ele>1128</ele>
        <time>2025-06-09T05:13:38.000Z</time>
      </trkpt>
      <trkpt lat="47.83094" lon="7.00054">
        <ele>1128</ele>
        <time>2025-06-09T05:13:43.000Z</time>
      </trkpt>
      <trkpt lat="47.83091" lon="7.00048">
        <ele>1127</ele>
        <time>2025-06-09T05:13:49.000Z</time>
      </trkpt>
      <trkpt lat="47.83092" lon="7.00029">
        <ele>1123</ele>
        <time>2025-06-09T05:14:05.000Z</time>
      </trkpt>
      <trkpt lat="47.83095" lon="7.00016">
        <ele>1121</ele>
        <time>2025-06-09T05:14:14.000Z</time>
      </trkpt>
      <trkpt lat="47.83098" lon="7.00006">
        <ele>1118</ele>
        <time>2025-06-09T05:14:23.000Z</time>
      </trkpt>
      <trkpt lat="47.83097" lon="7">
        <ele>1117</ele>
        <time>2025-06-09T05:14:27.000Z</time>
      </trkpt>
      <trkpt lat="47.83102" lon="6.99994">
        <ele>1115</ele>
        <time>2025-06-09T05:14:34.000Z</time>
      </trkpt>
      <trkpt lat="47.83102" lon="6.99986">
        <ele>1113</ele>
        <time>2025-06-09T05:14:38.000Z</time>
      </trkpt>
      <trkpt lat="47.83101" lon="6.99977">
        <ele>1112</ele>
        <time>2025-06-09T05:14:45.000Z</time>
      </trkpt>
      <trkpt lat="47.83118" lon="6.99926">
        <ele>1103</ele>
        <time>2025-06-09T05:15:18.000Z</time>
      </trkpt>
      <trkpt lat="47.83127" lon="6.9991">
        <ele>1100</ele>
        <time>2025-06-09T05:15:32.000Z</time>
      </trkpt>
      <trkpt lat="47.83129" lon="6.99902">
        <ele>1100</ele>
        <time>2025-06-09T05:15:36.000Z</time>
      </trkpt>
      <trkpt lat="47.83136" lon="6.99891">
        <ele>1098</ele>
        <time>2025-06-09T05:15:45.000Z</time>
      </trkpt>
      <trkpt lat="47.83142" lon="6.99873">
        <ele>1096</ele>
        <time>2025-06-09T05:15:55.000Z</time>
      </trkpt>
      <trkpt lat="47.83145" lon="6.99868">
        <ele>1096</ele>
        <time>2025-06-09T05:15:59.000Z</time>
      </trkpt>
      <trkpt lat="47.83149" lon="6.99865">
        <ele>1095</ele>
        <time>2025-06-09T05:16:03.000Z</time>
      </trkpt>
      <trkpt lat="47.83154" lon="6.99853">
        <ele>1093</ele>
        <time>2025-06-09T05:16:11.000Z</time>
      </trkpt>
      <trkpt lat="47.8316" lon="6.99842">
        <ele>1091</ele>
        <time>2025-06-09T05:16:19.000Z</time>
      </trkpt>
      <trkpt lat="47.83165" lon="6.99838">
        <ele>1091</ele>
        <time>2025-06-09T05:16:23.000Z</time>
      </trkpt>
      <trkpt lat="47.83167" lon="6.99834">
        <ele>1090</ele>
        <time>2025-06-09T05:16:28.000Z</time>
      </trkpt>
      <trkpt lat="47.83174" lon="6.99829">
        <ele>1089</ele>
        <time>2025-06-09T05:16:35.000Z</time>
      </trkpt>
      <trkpt lat="47.83179" lon="6.99819">
        <ele>1087</ele>
        <time>2025-06-09T05:16:44.000Z</time>
      </trkpt>
      <trkpt lat="47.83186" lon="6.99798">
        <ele>1083</ele>
        <time>2025-06-09T05:16:59.000Z</time>
      </trkpt>
      <trkpt lat="47.83188" lon="6.99781">
        <ele>1080</ele>
        <time>2025-06-09T05:17:11.000Z</time>
      </trkpt>
      <trkpt lat="47.83186" lon="6.99764">
        <ele>1076</ele>
        <time>2025-06-09T05:17:22.000Z</time>
      </trkpt>
      <trkpt lat="47.83174" lon="6.99721">
        <ele>1070</ele>
        <time>2025-06-09T05:17:52.000Z</time>
      </trkpt>
      <trkpt lat="47.83168" lon="6.997">
        <ele>1067</ele>
        <time>2025-06-09T05:18:05.000Z</time>
      </trkpt>
      <trkpt lat="47.83168" lon="6.99692">
        <ele>1066</ele>
        <time>2025-06-09T05:18:09.000Z</time>
      </trkpt>
      <trkpt lat="47.83176" lon="6.99655">
        <ele>1062</ele>
        <time>2025-06-09T05:18:29.000Z</time>
      </trkpt>
      <trkpt lat="47.83181" lon="6.99641">
        <ele>1061</ele>
        <time>2025-06-09T05:18:38.000Z</time>
      </trkpt>
      <trkpt lat="47.8321" lon="6.99599">
        <ele>1060</ele>
        <time>2025-06-09T05:19:10.000Z</time>
      </trkpt>
      <trkpt lat="47.83218" lon="6.99588">
        <ele>1059</ele>
        <time>2025-06-09T05:19:18.000Z</time>
      </trkpt>
      <trkpt lat="47.83228" lon="6.99557">
        <ele>1058</ele>
        <time>2025-06-09T05:19:37.000Z</time>
      </trkpt>
      <trkpt lat="47.83243" lon="6.99537">
        <ele>1056</ele>
        <time>2025-06-09T05:19:53.000Z</time>
      </trkpt>
      <trkpt lat="47.83277" lon="6.99508">
        <ele>1054</ele>
        <time>2025-06-09T05:20:25.000Z</time>
      </trkpt>
      <trkpt lat="47.83292" lon="6.99499">
        <ele>1053</ele>
        <time>2025-06-09T05:20:37.000Z</time>
      </trkpt>
      <trkpt lat="47.83301" lon="6.99493">
        <ele>1052</ele>
        <time>2025-06-09T05:20:44.000Z</time>
      </trkpt>
      <trkpt lat="47.83305" lon="6.99491">
        <ele>1052</ele>
        <time>2025-06-09T05:20:47.000Z</time>
      </trkpt>
      <trkpt lat="47.83332" lon="6.99477">
        <ele>1051</ele>
        <time>2025-06-09T05:21:11.000Z</time>
      </trkpt>
      <trkpt lat="47.83352" lon="6.99455">
        <ele>1049</ele>
        <time>2025-06-09T05:21:31.000Z</time>
      </trkpt>
      <trkpt lat="47.83356" lon="6.99451">
        <ele>1049</ele>
        <time>2025-06-09T05:21:35.000Z</time>
      </trkpt>
      <trkpt lat="47.8336" lon="6.99447">
        <ele>1048</ele>
        <time>2025-06-09T05:21:38.000Z</time>
      </trkpt>
      <trkpt lat="47.83365" lon="6.99443">
        <ele>1049</ele>
        <time>2025-06-09T05:21:42.000Z</time>
      </trkpt>
      <trkpt lat="47.83374" lon="6.99436">
        <ele>1048</ele>
        <time>2025-06-09T05:21:50.000Z</time>
      </trkpt>
      <trkpt lat="47.83387" lon="6.99428">
        <ele>1047</ele>
        <time>2025-06-09T05:22:02.000Z</time>
      </trkpt>
      <trkpt lat="47.83401" lon="6.99423">
        <ele>1046</ele>
        <time>2025-06-09T05:22:13.000Z</time>
      </trkpt>
      <trkpt lat="47.83424" lon="6.99419">
        <ele>1044</ele>
        <time>2025-06-09T05:22:33.000Z</time>
      </trkpt>
      <trkpt lat="47.83429" lon="6.99417">
        <ele>1044</ele>
        <time>2025-06-09T05:22:36.000Z</time>
      </trkpt>
      <trkpt lat="47.83448" lon="6.99412">
        <ele>1042</ele>
        <time>2025-06-09T05:22:55.000Z</time>
      </trkpt>
      <trkpt lat="47.83459" lon="6.994">
        <ele>1041</ele>
        <time>2025-06-09T05:23:07.000Z</time>
      </trkpt>
      <trkpt lat="47.83467" lon="6.99381">
        <ele>1040</ele>
        <time>2025-06-09T05:23:19.000Z</time>
      </trkpt>
      <trkpt lat="47.83476" lon="6.99323">
        <ele>1037</ele>
        <time>2025-06-09T05:23:50.000Z</time>
      </trkpt>
      <trkpt lat="47.83475" lon="6.99263">
        <ele>1034</ele>
        <time>2025-06-09T05:24:22.000Z</time>
      </trkpt>
      <trkpt lat="47.83476" lon="6.99255">
        <ele>1034</ele>
        <time>2025-06-09T05:24:26.000Z</time>
      </trkpt>
      <trkpt lat="47.83482" lon="6.99242">
        <ele>1033</ele>
        <time>2025-06-09T05:24:34.000Z</time>
      </trkpt>
      <trkpt lat="47.83487" lon="6.99238">
        <ele>1033</ele>
        <time>2025-06-09T05:24:38.000Z</time>
      </trkpt>
      <trkpt lat="47.83492" lon="6.99236">
        <ele>1034</ele>
        <time>2025-06-09T05:24:42.000Z</time>
      </trkpt>
      <trkpt lat="47.83508" lon="6.99237">
        <ele>1034</ele>
        <time>2025-06-09T05:24:55.000Z</time>
      </trkpt>
      <trkpt lat="47.83513" lon="6.99236">
        <ele>1033</ele>
        <time>2025-06-09T05:24:59.000Z</time>
      </trkpt>
      <trkpt lat="47.83517" lon="6.99235">
        <ele>1033</ele>
        <time>2025-06-09T05:25:03.000Z</time>
      </trkpt>
      <trkpt lat="47.83521" lon="6.9923">
        <ele>1032</ele>
        <time>2025-06-09T05:25:07.000Z</time>
      </trkpt>
      <trkpt lat="47.83525" lon="6.99225">
        <ele>1032</ele>
        <time>2025-06-09T05:25:11.000Z</time>
      </trkpt>
      <trkpt lat="47.83532" lon="6.99199">
        <ele>1030</ele>
        <time>2025-06-09T05:25:27.000Z</time>
      </trkpt>
      <trkpt lat="47.83538" lon="6.99162">
        <ele>1028</ele>
        <time>2025-06-09T05:25:46.000Z</time>
      </trkpt>
      <trkpt lat="47.83543" lon="6.99149">
        <ele>1027</ele>
        <time>2025-06-09T05:25:54.000Z</time>
      </trkpt>
      <trkpt lat="47.83555" lon="6.99135">
        <ele>1026</ele>
        <time>2025-06-09T05:26:05.000Z</time>
      </trkpt>
      <trkpt lat="47.83591" lon="6.99102">
        <ele>1022</ele>
        <time>2025-06-09T05:26:37.000Z</time>
      </trkpt>
      <trkpt lat="47.83616" lon="6.9908">
        <ele>1021</ele>
        <time>2025-06-09T05:27:02.000Z</time>
      </trkpt>
      <trkpt lat="47.83626" lon="6.99063">
        <ele>1019</ele>
        <time>2025-06-09T05:27:14.000Z</time>
      </trkpt>
      <trkpt lat="47.83629" lon="6.99057">
        <ele>1018</ele>
        <time>2025-06-09T05:27:18.000Z</time>
      </trkpt>
      <trkpt lat="47.83648" lon="6.99003">
        <ele>1015</ele>
        <time>2025-06-09T05:27:50.000Z</time>
      </trkpt>
      <trkpt lat="47.83651" lon="6.98997">
        <ele>1014</ele>
        <time>2025-06-09T05:27:53.000Z</time>
      </trkpt>
      <trkpt lat="47.83667" lon="6.98977">
        <ele>1013</ele>
        <time>2025-06-09T05:28:09.000Z</time>
      </trkpt>
      <trkpt lat="47.83699" lon="6.98957">
        <ele>1011</ele>
        <time>2025-06-09T05:28:40.000Z</time>
      </trkpt>
      <trkpt lat="47.83737" lon="6.98941">
        <ele>1007</ele>
        <time>2025-06-09T05:29:13.000Z</time>
      </trkpt>
      <trkpt lat="47.83741" lon="6.9894">
        <ele>1007</ele>
        <time>2025-06-09T05:29:17.000Z</time>
      </trkpt>
      <trkpt lat="47.83755" lon="6.98942">
        <ele>1006</ele>
        <time>2025-06-09T05:29:29.000Z</time>
      </trkpt>
      <trkpt lat="47.83792" lon="6.98962">
        <ele>1003</ele>
        <time>2025-06-09T05:30:00.000Z</time>
      </trkpt>
      <trkpt lat="47.8382" lon="6.98976">
        <ele>1000</ele>
        <time>2025-06-09T05:30:24.000Z</time>
      </trkpt>
      <trkpt lat="47.8383" lon="6.98978">
        <ele>999</ele>
        <time>2025-06-09T05:30:32.000Z</time>
      </trkpt>
      <trkpt lat="47.83834" lon="6.98977">
        <ele>999</ele>
        <time>2025-06-09T05:30:36.000Z</time>
      </trkpt>
      <trkpt lat="47.8387" lon="6.98955">
        <ele>996</ele>
        <time>2025-06-09T05:31:09.000Z</time>
      </trkpt>
      <trkpt lat="47.83895" lon="6.98935">
        <ele>994</ele>
        <time>2025-06-09T05:31:32.000Z</time>
      </trkpt>
      <trkpt lat="47.839" lon="6.98934">
        <ele>993</ele>
        <time>2025-06-09T05:31:35.000Z</time>
      </trkpt>
      <trkpt lat="47.8391" lon="6.98935">
        <ele>992</ele>
        <time>2025-06-09T05:31:43.000Z</time>
      </trkpt>
      <trkpt lat="47.8395" lon="6.98941">
        <ele>990</ele>
        <time>2025-06-09T05:32:16.000Z</time>
      </trkpt>
      <trkpt lat="47.83955" lon="6.98942">
        <ele>989</ele>
        <time>2025-06-09T05:32:20.000Z</time>
      </trkpt>
      <trkpt lat="47.83974" lon="6.98946">
        <ele>987</ele>
        <time>2025-06-09T05:32:36.000Z</time>
      </trkpt>
      <trkpt lat="47.83984" lon="6.98943">
        <ele>987</ele>
        <time>2025-06-09T05:32:44.000Z</time>
      </trkpt>
      <trkpt lat="47.83988" lon="6.9894">
        <ele>986</ele>
        <time>2025-06-09T05:32:48.000Z</time>
      </trkpt>
      <trkpt lat="47.8401" lon="6.98923">
        <ele>986</ele>
        <time>2025-06-09T05:33:08.000Z</time>
      </trkpt>
      <trkpt lat="47.8403" lon="6.98916">
        <ele>986</ele>
        <time>2025-06-09T05:33:30.000Z</time>
      </trkpt>
      <trkpt lat="47.8403" lon="6.98877">
        <ele>986</ele>
        <time>2025-06-09T05:33:50.000Z</time>
      </trkpt>
      <trkpt lat="47.8403" lon="6.9887">
        <ele>986</ele>
        <time>2025-06-09T05:34:00.000Z</time>
      </trkpt>
      <trkpt lat="47.84067" lon="6.98832">
        <ele>984</ele>
        <time>2025-06-09T05:34:33.000Z</time>
      </trkpt>
      <trkpt lat="47.84083" lon="6.98803">
        <ele>983</ele>
        <time>2025-06-09T05:34:55.000Z</time>
      </trkpt>
      <trkpt lat="47.84086" lon="6.98783">
        <ele>982</ele>
        <time>2025-06-09T05:35:07.000Z</time>
      </trkpt>
      <trkpt lat="47.84089" lon="6.98755">
        <ele>980</ele>
        <time>2025-06-09T05:35:24.000Z</time>
      </trkpt>
      <trkpt lat="47.84089" lon="6.98747">
        <ele>981</ele>
        <time>2025-06-09T05:35:28.000Z</time>
      </trkpt>
      <trkpt lat="47.84096" lon="6.9869">
        <ele>979</ele>
        <time>2025-06-09T05:36:00.000Z</time>
      </trkpt>
      <trkpt lat="47.84098" lon="6.98676">
        <ele>978</ele>
        <time>2025-06-09T05:36:08.000Z</time>
      </trkpt>
      <trkpt lat="47.84106" lon="6.9865">
        <ele>979</ele>
        <time>2025-06-09T05:36:23.000Z</time>
      </trkpt>
      <trkpt lat="47.84123" lon="6.98616">
        <ele>980</ele>
        <time>2025-06-09T05:36:47.000Z</time>
      </trkpt>
      <trkpt lat="47.84133" lon="6.986">
        <ele>980</ele>
        <time>2025-06-09T05:36:59.000Z</time>
      </trkpt>
      <trkpt lat="47.84136" lon="6.98595">
        <ele>979</ele>
        <time>2025-06-09T05:37:03.000Z</time>
      </trkpt>
      <trkpt lat="47.84148" lon="6.98581">
        <ele>979</ele>
        <time>2025-06-09T05:37:16.000Z</time>
      </trkpt>
      <trkpt lat="47.84153" lon="6.98568">
        <ele>979</ele>
        <time>2025-06-09T05:37:25.000Z</time>
      </trkpt>
      <trkpt lat="47.84157" lon="6.98547">
        <ele>978</ele>
        <time>2025-06-09T05:37:38.000Z</time>
      </trkpt>
      <trkpt lat="47.84157" lon="6.98506">
        <ele>976</ele>
        <time>2025-06-09T05:38:02.000Z</time>
      </trkpt>
      <trkpt lat="47.84153" lon="6.98461">
        <ele>975</ele>
        <time>2025-06-09T05:38:26.000Z</time>
      </trkpt>
      <trkpt lat="47.84149" lon="6.98445">
        <ele>977</ele>
        <time>2025-06-09T05:38:38.000Z</time>
      </trkpt>
      <trkpt lat="47.84135" lon="6.98421">
        <ele>979</ele>
        <time>2025-06-09T05:38:58.000Z</time>
      </trkpt>
      <trkpt lat="47.84117" lon="6.984">
        <ele>982</ele>
        <time>2025-06-09T05:39:22.000Z</time>
      </trkpt>
      <trkpt lat="47.84117" lon="6.98392">
        <ele>983</ele>
        <time>2025-06-09T05:39:31.000Z</time>
      </trkpt>
      <trkpt lat="47.84115" lon="6.98384">
        <ele>983</ele>
        <time>2025-06-09T05:39:36.000Z</time>
      </trkpt>
      <trkpt lat="47.84108" lon="6.98325">
        <ele>980</ele>
        <time>2025-06-09T05:40:09.000Z</time>
      </trkpt>
      <trkpt lat="47.84108" lon="6.98308">
        <ele>980</ele>
        <time>2025-06-09T05:40:20.000Z</time>
      </trkpt>
      <trkpt lat="47.84108" lon="6.98295">
        <ele>980</ele>
        <time>2025-06-09T05:40:26.000Z</time>
      </trkpt>
      <trkpt lat="47.84111" lon="6.98258">
        <ele>979</ele>
        <time>2025-06-09T05:40:46.000Z</time>
      </trkpt>
      <trkpt lat="47.84112" lon="6.98235">
        <ele>980</ele>
        <time>2025-06-09T05:40:59.000Z</time>
      </trkpt>
      <trkpt lat="47.84109" lon="6.98214">
        <ele>981</ele>
        <time>2025-06-09T05:41:12.000Z</time>
      </trkpt>
      <trkpt lat="47.84107" lon="6.98207">
        <ele>981</ele>
        <time>2025-06-09T05:41:17.000Z</time>
      </trkpt>
      <trkpt lat="47.84106" lon="6.98201">
        <ele>982</ele>
        <time>2025-06-09T05:41:25.000Z</time>
      </trkpt>
      <trkpt lat="47.841" lon="6.98177">
        <ele>982</ele>
        <time>2025-06-09T05:41:45.000Z</time>
      </trkpt>
      <trkpt lat="47.84089" lon="6.98126">
        <ele>977</ele>
        <time>2025-06-09T05:42:19.000Z</time>
      </trkpt>
      <trkpt lat="47.84089" lon="6.98109">
        <ele>976</ele>
        <time>2025-06-09T05:42:29.000Z</time>
      </trkpt>
      <trkpt lat="47.84092" lon="6.98086">
        <ele>974</ele>
        <time>2025-06-09T05:42:41.000Z</time>
      </trkpt>
      <trkpt lat="47.84101" lon="6.98057">
        <ele>971</ele>
        <time>2025-06-09T05:43:01.000Z</time>
      </trkpt>
      <trkpt lat="47.84124" lon="6.98017">
        <ele>966</ele>
        <time>2025-06-09T05:43:33.000Z</time>
      </trkpt>
      <trkpt lat="47.84134" lon="6.98001">
        <ele>965</ele>
        <time>2025-06-09T05:43:45.000Z</time>
      </trkpt>
      <trkpt lat="47.84155" lon="6.9795">
        <ele>959</ele>
        <time>2025-06-09T05:44:19.000Z</time>
      </trkpt>
      <trkpt lat="47.84161" lon="6.97928">
        <ele>956</ele>
        <time>2025-06-09T05:44:34.000Z</time>
      </trkpt>
      <trkpt lat="47.84164" lon="6.97922">
        <ele>955</ele>
        <time>2025-06-09T05:44:38.000Z</time>
      </trkpt>
      <trkpt lat="47.84173" lon="6.97883">
        <ele>949</ele>
        <time>2025-06-09T05:45:09.000Z</time>
      </trkpt>
      <trkpt lat="47.84181" lon="6.97834">
        <ele>945</ele>
        <time>2025-06-09T05:45:41.000Z</time>
      </trkpt>
      <trkpt lat="47.84183" lon="6.97826">
        <ele>944</ele>
        <time>2025-06-09T05:45:49.000Z</time>
      </trkpt>
      <trkpt lat="47.84184" lon="6.97819">
        <ele>944</ele>
        <time>2025-06-09T05:45:52.000Z</time>
      </trkpt>
      <trkpt lat="47.84186" lon="6.97813">
        <ele>944</ele>
        <time>2025-06-09T05:45:56.000Z</time>
      </trkpt>
      <trkpt lat="47.8419" lon="6.97796">
        <ele>942</ele>
        <time>2025-06-09T05:46:09.000Z</time>
      </trkpt>
      <trkpt lat="47.84191" lon="6.97788">
        <ele>942</ele>
        <time>2025-06-09T05:46:14.000Z</time>
      </trkpt>
      <trkpt lat="47.84187" lon="6.97782">
        <ele>942</ele>
        <time>2025-06-09T05:46:17.000Z</time>
      </trkpt>
      <trkpt lat="47.84186" lon="6.97776">
        <ele>942</ele>
        <time>2025-06-09T05:46:21.000Z</time>
      </trkpt>
      <trkpt lat="47.84184" lon="6.97769">
        <ele>942</ele>
        <time>2025-06-09T05:46:25.000Z</time>
      </trkpt>
      <trkpt lat="47.84183" lon="6.97763">
        <ele>942</ele>
        <time>2025-06-09T05:46:29.000Z</time>
      </trkpt>
      <trkpt lat="47.84182" lon="6.97756">
        <ele>942</ele>
        <time>2025-06-09T05:46:33.000Z</time>
      </trkpt>
      <trkpt lat="47.84183" lon="6.97742">
        <ele>942</ele>
        <time>2025-06-09T05:46:41.000Z</time>
      </trkpt>
      <trkpt lat="47.84188" lon="6.97708">
        <ele>944</ele>
        <time>2025-06-09T05:47:04.000Z</time>
      </trkpt>
      <trkpt lat="47.84195" lon="6.9767">
        <ele>945</ele>
        <time>2025-06-09T05:47:24.000Z</time>
      </trkpt>
      <trkpt lat="47.84198" lon="6.9764">
        <ele>949</ele>
        <time>2025-06-09T05:47:51.000Z</time>
      </trkpt>
      <trkpt lat="47.84198" lon="6.97633">
        <ele>949</ele>
        <time>2025-06-09T05:47:56.000Z</time>
      </trkpt>
      <trkpt lat="47.84197" lon="6.97626">
        <ele>949</ele>
        <time>2025-06-09T05:47:59.000Z</time>
      </trkpt>
      <trkpt lat="47.84197" lon="6.9762">
        <ele>949</ele>
        <time>2025-06-09T05:48:02.000Z</time>
      </trkpt>
      <trkpt lat="47.84197" lon="6.97609">
        <ele>950</ele>
        <time>2025-06-09T05:48:09.000Z</time>
      </trkpt>
      <trkpt lat="47.84194" lon="6.97594">
        <ele>950</ele>
        <time>2025-06-09T05:48:18.000Z</time>
      </trkpt>
      <trkpt lat="47.8419" lon="6.97581">
        <ele>951</ele>
        <time>2025-06-09T05:48:28.000Z</time>
      </trkpt>
      <trkpt lat="47.84188" lon="6.97575">
        <ele>952</ele>
        <time>2025-06-09T05:48:32.000Z</time>
      </trkpt>
      <trkpt lat="47.84183" lon="6.97565">
        <ele>952</ele>
        <time>2025-06-09T05:48:40.000Z</time>
      </trkpt>
      <trkpt lat="47.84164" lon="6.97513">
        <ele>953</ele>
        <time>2025-06-09T05:49:12.000Z</time>
      </trkpt>
      <trkpt lat="47.84157" lon="6.97493">
        <ele>954</ele>
        <time>2025-06-09T05:49:25.000Z</time>
      </trkpt>
      <trkpt lat="47.84153" lon="6.97471">
        <ele>955</ele>
        <time>2025-06-09T05:49:40.000Z</time>
      </trkpt>
      <trkpt lat="47.84147" lon="6.97449">
        <ele>957</ele>
        <time>2025-06-09T05:49:53.000Z</time>
      </trkpt>
      <trkpt lat="47.8414" lon="6.97438">
        <ele>959</ele>
        <time>2025-06-09T05:50:02.000Z</time>
      </trkpt>
      <trkpt lat="47.84138" lon="6.97429">
        <ele>959</ele>
        <time>2025-06-09T05:50:08.000Z</time>
      </trkpt>
      <trkpt lat="47.84133" lon="6.97416">
        <ele>960</ele>
        <time>2025-06-09T05:50:16.000Z</time>
      </trkpt>
      <trkpt lat="47.84131" lon="6.97401">
        <ele>961</ele>
        <time>2025-06-09T05:50:27.000Z</time>
      </trkpt>
      <trkpt lat="47.84127" lon="6.97387">
        <ele>962</ele>
        <time>2025-06-09T05:50:36.000Z</time>
      </trkpt>
      <trkpt lat="47.84123" lon="6.97374">
        <ele>962</ele>
        <time>2025-06-09T05:50:44.000Z</time>
      </trkpt>
      <trkpt lat="47.84119" lon="6.97353">
        <ele>963</ele>
        <time>2025-06-09T05:50:56.000Z</time>
      </trkpt>
      <trkpt lat="47.84115" lon="6.9734">
        <ele>964</ele>
        <time>2025-06-09T05:51:04.000Z</time>
      </trkpt>
      <trkpt lat="47.84115" lon="6.97332">
        <ele>964</ele>
        <time>2025-06-09T05:51:09.000Z</time>
      </trkpt>
      <trkpt lat="47.84113" lon="6.9732">
        <ele>965</ele>
        <time>2025-06-09T05:51:18.000Z</time>
      </trkpt>
      <trkpt lat="47.84113" lon="6.97297">
        <ele>967</ele>
        <time>2025-06-09T05:51:33.000Z</time>
      </trkpt>
      <trkpt lat="47.84111" lon="6.97283">
        <ele>968</ele>
        <time>2025-06-09T05:51:41.000Z</time>
      </trkpt>
      <trkpt lat="47.84109" lon="6.97276">
        <ele>968</ele>
        <time>2025-06-09T05:51:48.000Z</time>
      </trkpt>
      <trkpt lat="47.8411" lon="6.97268">
        <ele>968</ele>
        <time>2025-06-09T05:51:52.000Z</time>
      </trkpt>
      <trkpt lat="47.84108" lon="6.97262">
        <ele>968</ele>
        <time>2025-06-09T05:51:55.000Z</time>
      </trkpt>
      <trkpt lat="47.84109" lon="6.97255">
        <ele>968</ele>
        <time>2025-06-09T05:52:00.000Z</time>
      </trkpt>
      <trkpt lat="47.84108" lon="6.97234">
        <ele>968</ele>
        <time>2025-06-09T05:52:13.000Z</time>
      </trkpt>
      <trkpt lat="47.84108" lon="6.97177">
        <ele>969</ele>
        <time>2025-06-09T05:52:47.000Z</time>
      </trkpt>
      <trkpt lat="47.84109" lon="6.97136">
        <ele>971</ele>
        <time>2025-06-09T05:53:10.000Z</time>
      </trkpt>
      <trkpt lat="47.84113" lon="6.9711">
        <ele>972</ele>
        <time>2025-06-09T05:53:27.000Z</time>
      </trkpt>
      <trkpt lat="47.84112" lon="6.97093">
        <ele>972</ele>
        <time>2025-06-09T05:53:35.000Z</time>
      </trkpt>
      <trkpt lat="47.84115" lon="6.97074">
        <ele>973</ele>
        <time>2025-06-09T05:53:47.000Z</time>
      </trkpt>
      <trkpt lat="47.84115" lon="6.9706">
        <ele>973</ele>
        <time>2025-06-09T05:53:56.000Z</time>
      </trkpt>
      <trkpt lat="47.84115" lon="6.97044">
        <ele>975</ele>
        <time>2025-06-09T05:54:07.000Z</time>
      </trkpt>
      <trkpt lat="47.84113" lon="6.97036">
        <ele>975</ele>
        <time>2025-06-09T05:54:15.000Z</time>
      </trkpt>
      <trkpt lat="47.84111" lon="6.97022">
        <ele>976</ele>
        <time>2025-06-09T05:54:23.000Z</time>
      </trkpt>
      <trkpt lat="47.84114" lon="6.96984">
        <ele>979</ele>
        <time>2025-06-09T05:54:46.000Z</time>
      </trkpt>
      <trkpt lat="47.84116" lon="6.96973">
        <ele>980</ele>
        <time>2025-06-09T05:54:56.000Z</time>
      </trkpt>
      <trkpt lat="47.84117" lon="6.96943">
        <ele>982</ele>
        <time>2025-06-09T05:55:15.000Z</time>
      </trkpt>
      <trkpt lat="47.84118" lon="6.96937">
        <ele>983</ele>
        <time>2025-06-09T05:55:20.000Z</time>
      </trkpt>
      <trkpt lat="47.84121" lon="6.96928">
        <ele>983</ele>
        <time>2025-06-09T05:55:29.000Z</time>
      </trkpt>
      <trkpt lat="47.84124" lon="6.96909">
        <ele>984</ele>
        <time>2025-06-09T05:55:42.000Z</time>
      </trkpt>
      <trkpt lat="47.84126" lon="6.96883">
        <ele>986</ele>
        <time>2025-06-09T05:55:59.000Z</time>
      </trkpt>
      <trkpt lat="47.84129" lon="6.9686">
        <ele>988</ele>
        <time>2025-06-09T05:56:19.000Z</time>
      </trkpt>
      <trkpt lat="47.84129" lon="6.96853">
        <ele>988</ele>
        <time>2025-06-09T05:56:24.000Z</time>
      </trkpt>
      <trkpt lat="47.84132" lon="6.96847">
        <ele>989</ele>
        <time>2025-06-09T05:56:29.000Z</time>
      </trkpt>
      <trkpt lat="47.84131" lon="6.96838">
        <ele>990</ele>
        <time>2025-06-09T05:56:35.000Z</time>
      </trkpt>
      <trkpt lat="47.84132" lon="6.96823">
        <ele>991</ele>
        <time>2025-06-09T05:56:44.000Z</time>
      </trkpt>
      <trkpt lat="47.84141" lon="6.96799">
        <ele>992</ele>
        <time>2025-06-09T05:57:02.000Z</time>
      </trkpt>
      <trkpt lat="47.84144" lon="6.96794">
        <ele>993</ele>
        <time>2025-06-09T05:57:07.000Z</time>
      </trkpt>
      <trkpt lat="47.84149" lon="6.96779">
        <ele>993</ele>
        <time>2025-06-09T05:57:17.000Z</time>
      </trkpt>
      <trkpt lat="47.8415" lon="6.96772">
        <ele>994</ele>
        <time>2025-06-09T05:57:20.000Z</time>
      </trkpt>
      <trkpt lat="47.84156" lon="6.96749">
        <ele>995</ele>
        <time>2025-06-09T05:57:38.000Z</time>
      </trkpt>
      <trkpt lat="47.84156" lon="6.96742">
        <ele>995</ele>
        <time>2025-06-09T05:57:43.000Z</time>
      </trkpt>
      <trkpt lat="47.84166" lon="6.96714">
        <ele>997</ele>
        <time>2025-06-09T05:58:00.000Z</time>
      </trkpt>
      <trkpt lat="47.84171" lon="6.96702">
        <ele>997</ele>
        <time>2025-06-09T05:58:08.000Z</time>
      </trkpt>
      <trkpt lat="47.84173" lon="6.96693">
        <ele>997</ele>
        <time>2025-06-09T05:58:15.000Z</time>
      </trkpt>
      <trkpt lat="47.84178" lon="6.9668">
        <ele>998</ele>
        <time>2025-06-09T05:58:26.000Z</time>
      </trkpt>
      <trkpt lat="47.84182" lon="6.96664">
        <ele>998</ele>
        <time>2025-06-09T05:58:36.000Z</time>
      </trkpt>
      <trkpt lat="47.84183" lon="6.96653">
        <ele>997</ele>
        <time>2025-06-09T05:58:45.000Z</time>
      </trkpt>
      <trkpt lat="47.84189" lon="6.96639">
        <ele>994</ele>
        <time>2025-06-09T05:58:58.000Z</time>
      </trkpt>
      <trkpt lat="47.84193" lon="6.96634">
        <ele>994</ele>
        <time>2025-06-09T05:59:02.000Z</time>
      </trkpt>
      <trkpt lat="47.84199" lon="6.9663">
        <ele>992</ele>
        <time>2025-06-09T05:59:09.000Z</time>
      </trkpt>
      <trkpt lat="47.84209" lon="6.9661">
        <ele>990</ele>
        <time>2025-06-09T05:59:24.000Z</time>
      </trkpt>
      <trkpt lat="47.84236" lon="6.96583">
        <ele>986</ele>
        <time>2025-06-09T05:59:55.000Z</time>
      </trkpt>
      <trkpt lat="47.8424" lon="6.9658">
        <ele>986</ele>
        <time>2025-06-09T05:59:59.000Z</time>
      </trkpt>
      <trkpt lat="47.84258" lon="6.96568">
        <ele>984</ele>
        <time>2025-06-09T06:00:18.000Z</time>
      </trkpt>
      <trkpt lat="47.84286" lon="6.96549">
        <ele>986</ele>
        <time>2025-06-09T06:00:42.000Z</time>
      </trkpt>
      <trkpt lat="47.84292" lon="6.96546">
        <ele>987</ele>
        <time>2025-06-09T06:00:51.000Z</time>
      </trkpt>
      <trkpt lat="47.843" lon="6.96539">
        <ele>988</ele>
        <time>2025-06-09T06:01:00.000Z</time>
      </trkpt>
      <trkpt lat="47.84307" lon="6.96535">
        <ele>989</ele>
        <time>2025-06-09T06:01:08.000Z</time>
      </trkpt>
      <trkpt lat="47.84311" lon="6.96532">
        <ele>989</ele>
        <time>2025-06-09T06:01:11.000Z</time>
      </trkpt>
      <trkpt lat="47.84333" lon="6.96517">
        <ele>991</ele>
        <time>2025-06-09T06:01:35.000Z</time>
      </trkpt>
      <trkpt lat="47.8434" lon="6.96515">
        <ele>993</ele>
        <time>2025-06-09T06:01:43.000Z</time>
      </trkpt>
      <trkpt lat="47.84345" lon="6.9651">
        <ele>994</ele>
        <time>2025-06-09T06:01:52.000Z</time>
      </trkpt>
      <trkpt lat="47.84348" lon="6.96505">
        <ele>995</ele>
        <time>2025-06-09T06:01:56.000Z</time>
      </trkpt>
      <trkpt lat="47.84353" lon="6.96496">
        <ele>997</ele>
        <time>2025-06-09T06:02:06.000Z</time>
      </trkpt>
      <trkpt lat="47.84357" lon="6.96492">
        <ele>998</ele>
        <time>2025-06-09T06:02:10.000Z</time>
      </trkpt>
      <trkpt lat="47.84366" lon="6.96459">
        <ele>1002</ele>
        <time>2025-06-09T06:02:43.000Z</time>
      </trkpt>
      <trkpt lat="47.84373" lon="6.96428">
        <ele>1005</ele>
        <time>2025-06-09T06:03:09.000Z</time>
      </trkpt>
      <trkpt lat="47.84375" lon="6.96421">
        <ele>1004</ele>
        <time>2025-06-09T06:03:14.000Z</time>
      </trkpt>
      <trkpt lat="47.84378" lon="6.96413">
        <ele>1005</ele>
        <time>2025-06-09T06:03:18.000Z</time>
      </trkpt>
      <trkpt lat="47.84378" lon="6.96396">
        <ele>1007</ele>
        <time>2025-06-09T06:03:26.000Z</time>
      </trkpt>
      <trkpt lat="47.8438" lon="6.9638">
        <ele>1008</ele>
        <time>2025-06-09T06:03:32.000Z</time>
      </trkpt>
      <trkpt lat="47.8438" lon="6.96366">
        <ele>1009</ele>
        <time>2025-06-09T06:03:40.000Z</time>
      </trkpt>
      <trkpt lat="47.84384" lon="6.9633">
        <ele>1012</ele>
        <time>2025-06-09T06:04:00.000Z</time>
      </trkpt>
      <trkpt lat="47.84389" lon="6.96315">
        <ele>1014</ele>
        <time>2025-06-09T06:04:13.000Z</time>
      </trkpt>
      <trkpt lat="47.84392" lon="6.96309">
        <ele>1014</ele>
        <time>2025-06-09T06:04:18.000Z</time>
      </trkpt>
      <trkpt lat="47.84396" lon="6.96306">
        <ele>1015</ele>
        <time>2025-06-09T06:04:24.000Z</time>
      </trkpt>
      <trkpt lat="47.84403" lon="6.9629">
        <ele>1017</ele>
        <time>2025-06-09T06:04:36.000Z</time>
      </trkpt>
      <trkpt lat="47.84403" lon="6.96282">
        <ele>1017</ele>
        <time>2025-06-09T06:04:40.000Z</time>
      </trkpt>
      <trkpt lat="47.84406" lon="6.96276">
        <ele>1018</ele>
        <time>2025-06-09T06:04:45.000Z</time>
      </trkpt>
      <trkpt lat="47.8441" lon="6.96274">
        <ele>1018</ele>
        <time>2025-06-09T06:04:48.000Z</time>
      </trkpt>
      <trkpt lat="47.84419" lon="6.9625">
        <ele>1020</ele>
        <time>2025-06-09T06:05:05.000Z</time>
      </trkpt>
      <trkpt lat="47.84421" lon="6.96243">
        <ele>1020</ele>
        <time>2025-06-09T06:05:09.000Z</time>
      </trkpt>
      <trkpt lat="47.84425" lon="6.96237">
        <ele>1021</ele>
        <time>2025-06-09T06:05:14.000Z</time>
      </trkpt>
      <trkpt lat="47.8443" lon="6.96238">
        <ele>1021</ele>
        <time>2025-06-09T06:05:16.000Z</time>
      </trkpt>
      <trkpt lat="47.84446" lon="6.96198">
        <ele>1026</ele>
        <time>2025-06-09T06:05:47.000Z</time>
      </trkpt>
      <trkpt lat="47.84465" lon="6.96154">
        <ele>1031</ele>
        <time>2025-06-09T06:06:24.000Z</time>
      </trkpt>
      <trkpt lat="47.84471" lon="6.96138">
        <ele>1033</ele>
        <time>2025-06-09T06:06:37.000Z</time>
      </trkpt>
      <trkpt lat="47.84471" lon="6.96125">
        <ele>1034</ele>
        <time>2025-06-09T06:06:46.000Z</time>
      </trkpt>
      <trkpt lat="47.84474" lon="6.96119">
        <ele>1034</ele>
        <time>2025-06-09T06:06:52.000Z</time>
      </trkpt>
      <trkpt lat="47.84479" lon="6.96114">
        <ele>1035</ele>
        <time>2025-06-09T06:06:56.000Z</time>
      </trkpt>
      <trkpt lat="47.84486" lon="6.96096">
        <ele>1036</ele>
        <time>2025-06-09T06:07:08.000Z</time>
      </trkpt>
      <trkpt lat="47.8449" lon="6.96091">
        <ele>1037</ele>
        <time>2025-06-09T06:07:12.000Z</time>
      </trkpt>
      <trkpt lat="47.84496" lon="6.96083">
        <ele>1039</ele>
        <time>2025-06-09T06:07:21.000Z</time>
      </trkpt>
      <trkpt lat="47.84502" lon="6.96083">
        <ele>1039</ele>
        <time>2025-06-09T06:07:24.000Z</time>
      </trkpt>
      <trkpt lat="47.84505" lon="6.96079">
        <ele>1039</ele>
        <time>2025-06-09T06:07:28.000Z</time>
      </trkpt>
      <trkpt lat="47.84524" lon="6.96079">
        <ele>1041</ele>
        <time>2025-06-09T06:07:43.000Z</time>
      </trkpt>
      <trkpt lat="47.84544" lon="6.96068">
        <ele>1046</ele>
        <time>2025-06-09T06:08:14.000Z</time>
      </trkpt>
      <trkpt lat="47.84548" lon="6.96068">
        <ele>1047</ele>
        <time>2025-06-09T06:08:20.000Z</time>
      </trkpt>
      <trkpt lat="47.84553" lon="6.96066">
        <ele>1047</ele>
        <time>2025-06-09T06:08:26.000Z</time>
      </trkpt>
      <trkpt lat="47.84557" lon="6.96062">
        <ele>1048</ele>
        <time>2025-06-09T06:08:30.000Z</time>
      </trkpt>
      <trkpt lat="47.84561" lon="6.96056">
        <ele>1048</ele>
        <time>2025-06-09T06:08:35.000Z</time>
      </trkpt>
      <trkpt lat="47.84579" lon="6.96046">
        <ele>1050</ele>
        <time>2025-06-09T06:08:54.000Z</time>
      </trkpt>
      <trkpt lat="47.84583" lon="6.96041">
        <ele>1050</ele>
        <time>2025-06-09T06:08:58.000Z</time>
      </trkpt>
      <trkpt lat="47.84588" lon="6.96037">
        <ele>1051</ele>
        <time>2025-06-09T06:09:05.000Z</time>
      </trkpt>
      <trkpt lat="47.84596" lon="6.96019">
        <ele>1052</ele>
        <time>2025-06-09T06:09:17.000Z</time>
      </trkpt>
      <trkpt lat="47.84607" lon="6.96005">
        <ele>1053</ele>
        <time>2025-06-09T06:09:28.000Z</time>
      </trkpt>
      <trkpt lat="47.84613" lon="6.95993">
        <ele>1053</ele>
        <time>2025-06-09T06:09:37.000Z</time>
      </trkpt>
      <trkpt lat="47.84615" lon="6.95987">
        <ele>1054</ele>
        <time>2025-06-09T06:09:41.000Z</time>
      </trkpt>
      <trkpt lat="47.8462" lon="6.9598">
        <ele>1055</ele>
        <time>2025-06-09T06:09:50.000Z</time>
      </trkpt>
      <trkpt lat="47.84621" lon="6.95973">
        <ele>1056</ele>
        <time>2025-06-09T06:09:54.000Z</time>
      </trkpt>
      <trkpt lat="47.84626" lon="6.95964">
        <ele>1057</ele>
        <time>2025-06-09T06:10:03.000Z</time>
      </trkpt>
      <trkpt lat="47.84629" lon="6.95957">
        <ele>1057</ele>
        <time>2025-06-09T06:10:07.000Z</time>
      </trkpt>
      <trkpt lat="47.84638" lon="6.95943">
        <ele>1058</ele>
        <time>2025-06-09T06:10:21.000Z</time>
      </trkpt>
      <trkpt lat="47.84646" lon="6.95934">
        <ele>1058</ele>
        <time>2025-06-09T06:10:29.000Z</time>
      </trkpt>
      <trkpt lat="47.84653" lon="6.95927">
        <ele>1059</ele>
        <time>2025-06-09T06:10:42.000Z</time>
      </trkpt>
      <trkpt lat="47.84658" lon="6.95924">
        <ele>1059</ele>
        <time>2025-06-09T06:10:46.000Z</time>
      </trkpt>
      <trkpt lat="47.84663" lon="6.9592">
        <ele>1059</ele>
        <time>2025-06-09T06:10:52.000Z</time>
      </trkpt>
      <trkpt lat="47.84674" lon="6.95914">
        <ele>1059</ele>
        <time>2025-06-09T06:11:03.000Z</time>
      </trkpt>
      <trkpt lat="47.8468" lon="6.95912">
        <ele>1060</ele>
        <time>2025-06-09T06:11:09.000Z</time>
      </trkpt>
      <trkpt lat="47.84691" lon="6.95906">
        <ele>1059</ele>
        <time>2025-06-09T06:11:20.000Z</time>
      </trkpt>
      <trkpt lat="47.84696" lon="6.95904">
        <ele>1060</ele>
        <time>2025-06-09T06:11:25.000Z</time>
      </trkpt>
      <trkpt lat="47.84702" lon="6.95902">
        <ele>1060</ele>
        <time>2025-06-09T06:11:32.000Z</time>
      </trkpt>
      <trkpt lat="47.84706" lon="6.959">
        <ele>1059</ele>
        <time>2025-06-09T06:11:40.000Z</time>
      </trkpt>
      <trkpt lat="47.84711" lon="6.95899">
        <ele>1058</ele>
        <time>2025-06-09T06:11:45.000Z</time>
      </trkpt>
      <trkpt lat="47.8472" lon="6.95901">
        <ele>1059</ele>
        <time>2025-06-09T06:11:55.000Z</time>
      </trkpt>
      <trkpt lat="47.84723" lon="6.95896">
        <ele>1059</ele>
        <time>2025-06-09T06:11:59.000Z</time>
      </trkpt>
      <trkpt lat="47.84735" lon="6.95892">
        <ele>1061</ele>
        <time>2025-06-09T06:12:15.000Z</time>
      </trkpt>
      <trkpt lat="47.84743" lon="6.95894">
        <ele>1061</ele>
        <time>2025-06-09T06:12:26.000Z</time>
      </trkpt>
      <trkpt lat="47.8475" lon="6.95873">
        <ele>1065</ele>
        <time>2025-06-09T06:12:56.000Z</time>
      </trkpt>
      <trkpt lat="47.84748" lon="6.95865">
        <ele>1065</ele>
        <time>2025-06-09T06:13:02.000Z</time>
      </trkpt>
      <trkpt lat="47.84748" lon="6.95858">
        <ele>1065</ele>
        <time>2025-06-09T06:13:10.000Z</time>
      </trkpt>
      <trkpt lat="47.84745" lon="6.95853">
        <ele>1065</ele>
        <time>2025-06-09T06:13:14.000Z</time>
      </trkpt>
      <trkpt lat="47.84744" lon="6.95845">
        <ele>1064</ele>
        <time>2025-06-09T06:13:19.000Z</time>
      </trkpt>
      <trkpt lat="47.84739" lon="6.95831">
        <ele>1065</ele>
        <time>2025-06-09T06:13:31.000Z</time>
      </trkpt>
      <trkpt lat="47.84733" lon="6.95818">
        <ele>1065</ele>
        <time>2025-06-09T06:13:41.000Z</time>
      </trkpt>
      <trkpt lat="47.84728" lon="6.95806">
        <ele>1067</ele>
        <time>2025-06-09T06:13:51.000Z</time>
      </trkpt>
      <trkpt lat="47.84715" lon="6.95781">
        <ele>1068</ele>
        <time>2025-06-09T06:14:11.000Z</time>
      </trkpt>
      <trkpt lat="47.84711" lon="6.9577">
        <ele>1067</ele>
        <time>2025-06-09T06:14:19.000Z</time>
      </trkpt>
      <trkpt lat="47.84708" lon="6.95764">
        <ele>1067</ele>
        <time>2025-06-09T06:14:23.000Z</time>
      </trkpt>
      <trkpt lat="47.847" lon="6.95741">
        <ele>1067</ele>
        <time>2025-06-09T06:14:41.000Z</time>
      </trkpt>
      <trkpt lat="47.8469" lon="6.95707">
        <ele>1070</ele>
        <time>2025-06-09T06:15:06.000Z</time>
      </trkpt>
      <trkpt lat="47.84689" lon="6.95701">
        <ele>1070</ele>
        <time>2025-06-09T06:15:12.000Z</time>
      </trkpt>
      <trkpt lat="47.84687" lon="6.95694">
        <ele>1070</ele>
        <time>2025-06-09T06:15:19.000Z</time>
      </trkpt>
      <trkpt lat="47.84689" lon="6.95688">
        <ele>1070</ele>
        <time>2025-06-09T06:15:24.000Z</time>
      </trkpt>
      <trkpt lat="47.84686" lon="6.95679">
        <ele>1070</ele>
        <time>2025-06-09T06:15:35.000Z</time>
      </trkpt>
      <trkpt lat="47.84682" lon="6.95674">
        <ele>1071</ele>
        <time>2025-06-09T06:15:41.000Z</time>
      </trkpt>
      <trkpt lat="47.8468" lon="6.95659">
        <ele>1072</ele>
        <time>2025-06-09T06:15:50.000Z</time>
      </trkpt>
      <trkpt lat="47.84674" lon="6.95645">
        <ele>1073</ele>
        <time>2025-06-09T06:16:03.000Z</time>
      </trkpt>
      <trkpt lat="47.84674" lon="6.95633">
        <ele>1074</ele>
        <time>2025-06-09T06:16:12.000Z</time>
      </trkpt>
      <trkpt lat="47.8467" lon="6.95617">
        <ele>1074</ele>
        <time>2025-06-09T06:16:22.000Z</time>
      </trkpt>
      <trkpt lat="47.84667" lon="6.95607">
        <ele>1075</ele>
        <time>2025-06-09T06:16:31.000Z</time>
      </trkpt>
      <trkpt lat="47.84666" lon="6.95599">
        <ele>1075</ele>
        <time>2025-06-09T06:16:36.000Z</time>
      </trkpt>
      <trkpt lat="47.84665" lon="6.95589">
        <ele>1074</ele>
        <time>2025-06-09T06:16:43.000Z</time>
      </trkpt>
      <trkpt lat="47.84667" lon="6.95583">
        <ele>1074</ele>
        <time>2025-06-09T06:16:47.000Z</time>
      </trkpt>
      <trkpt lat="47.84667" lon="6.95573">
        <ele>1073</ele>
        <time>2025-06-09T06:16:53.000Z</time>
      </trkpt>
      <trkpt lat="47.84668" lon="6.95563">
        <ele>1073</ele>
        <time>2025-06-09T06:17:01.000Z</time>
      </trkpt>
      <trkpt lat="47.84669" lon="6.95555">
        <ele>1073</ele>
        <time>2025-06-09T06:17:06.000Z</time>
      </trkpt>
      <trkpt lat="47.84671" lon="6.95548">
        <ele>1073</ele>
        <time>2025-06-09T06:17:10.000Z</time>
      </trkpt>
      <trkpt lat="47.84671" lon="6.95539">
        <ele>1072</ele>
        <time>2025-06-09T06:17:16.000Z</time>
      </trkpt>
      <trkpt lat="47.84672" lon="6.95523">
        <ele>1071</ele>
        <time>2025-06-09T06:17:37.000Z</time>
      </trkpt>
      <trkpt lat="47.8467" lon="6.95502">
        <ele>1069</ele>
        <time>2025-06-09T06:17:50.000Z</time>
      </trkpt>
      <trkpt lat="47.84667" lon="6.95489">
        <ele>1067</ele>
        <time>2025-06-09T06:17:58.000Z</time>
      </trkpt>
      <trkpt lat="47.84665" lon="6.95467">
        <ele>1064</ele>
        <time>2025-06-09T06:18:15.000Z</time>
      </trkpt>
      <trkpt lat="47.84664" lon="6.95461">
        <ele>1064</ele>
        <time>2025-06-09T06:18:19.000Z</time>
      </trkpt>
      <trkpt lat="47.84663" lon="6.95413">
        <ele>1058</ele>
        <time>2025-06-09T06:18:59.000Z</time>
      </trkpt>
      <trkpt lat="47.84665" lon="6.95385">
        <ele>1056</ele>
        <time>2025-06-09T06:19:13.000Z</time>
      </trkpt>
      <trkpt lat="47.84668" lon="6.95366">
        <ele>1055</ele>
        <time>2025-06-09T06:19:26.000Z</time>
      </trkpt>
      <trkpt lat="47.84671" lon="6.9536">
        <ele>1055</ele>
        <time>2025-06-09T06:19:30.000Z</time>
      </trkpt>
      <trkpt lat="47.84673" lon="6.95348">
        <ele>1054</ele>
        <time>2025-06-09T06:19:38.000Z</time>
      </trkpt>
      <trkpt lat="47.84673" lon="6.95338">
        <ele>1054</ele>
        <time>2025-06-09T06:19:47.000Z</time>
      </trkpt>
      <trkpt lat="47.84679" lon="6.95324">
        <ele>1055</ele>
        <time>2025-06-09T06:19:58.000Z</time>
      </trkpt>
      <trkpt lat="47.84682" lon="6.95314">
        <ele>1055</ele>
        <time>2025-06-09T06:20:05.000Z</time>
      </trkpt>
      <trkpt lat="47.84684" lon="6.95304">
        <ele>1055</ele>
        <time>2025-06-09T06:20:15.000Z</time>
      </trkpt>
      <trkpt lat="47.84685" lon="6.95296">
        <ele>1054</ele>
        <time>2025-06-09T06:20:21.000Z</time>
      </trkpt>
      <trkpt lat="47.84684" lon="6.95288">
        <ele>1054</ele>
        <time>2025-06-09T06:20:28.000Z</time>
      </trkpt>
      <trkpt lat="47.84685" lon="6.95278">
        <ele>1054</ele>
        <time>2025-06-09T06:20:36.000Z</time>
      </trkpt>
      <trkpt lat="47.84686" lon="6.95271">
        <ele>1054</ele>
        <time>2025-06-09T06:20:41.000Z</time>
      </trkpt>
      <trkpt lat="47.8469" lon="6.95258">
        <ele>1054</ele>
        <time>2025-06-09T06:20:50.000Z</time>
      </trkpt>
      <trkpt lat="47.8469" lon="6.95245">
        <ele>1054</ele>
        <time>2025-06-09T06:20:59.000Z</time>
      </trkpt>
      <trkpt lat="47.84694" lon="6.95224">
        <ele>1052</ele>
        <time>2025-06-09T06:21:13.000Z</time>
      </trkpt>
      <trkpt lat="47.84693" lon="6.95208">
        <ele>1053</ele>
        <time>2025-06-09T06:21:26.000Z</time>
      </trkpt>
      <trkpt lat="47.84696" lon="6.952">
        <ele>1052</ele>
        <time>2025-06-09T06:21:33.000Z</time>
      </trkpt>
      <trkpt lat="47.84694" lon="6.9519">
        <ele>1051</ele>
        <time>2025-06-09T06:21:40.000Z</time>
      </trkpt>
      <trkpt lat="47.84692" lon="6.95183">
        <ele>1051</ele>
        <time>2025-06-09T06:21:47.000Z</time>
      </trkpt>
      <trkpt lat="47.84695" lon="6.95169">
        <ele>1051</ele>
        <time>2025-06-09T06:21:54.000Z</time>
      </trkpt>
      <trkpt lat="47.84701" lon="6.95154">
        <ele>1050</ele>
        <time>2025-06-09T06:22:05.000Z</time>
      </trkpt>
      <trkpt lat="47.84716" lon="6.95122">
        <ele>1048</ele>
        <time>2025-06-09T06:22:31.000Z</time>
      </trkpt>
      <trkpt lat="47.84722" lon="6.95109">
        <ele>1048</ele>
        <time>2025-06-09T06:22:41.000Z</time>
      </trkpt>
      <trkpt lat="47.84726" lon="6.95099">
        <ele>1049</ele>
        <time>2025-06-09T06:22:52.000Z</time>
      </trkpt>
      <trkpt lat="47.84729" lon="6.95094">
        <ele>1049</ele>
        <time>2025-06-09T06:22:58.000Z</time>
      </trkpt>
      <trkpt lat="47.84731" lon="6.95088">
        <ele>1050</ele>
        <time>2025-06-09T06:23:06.000Z</time>
      </trkpt>
      <trkpt lat="47.84731" lon="6.95081">
        <ele>1051</ele>
        <time>2025-06-09T06:23:12.000Z</time>
      </trkpt>
      <trkpt lat="47.84733" lon="6.95074">
        <ele>1051</ele>
        <time>2025-06-09T06:23:17.000Z</time>
      </trkpt>
      <trkpt lat="47.84737" lon="6.95065">
        <ele>1050</ele>
        <time>2025-06-09T06:23:25.000Z</time>
      </trkpt>
      <trkpt lat="47.84746" lon="6.95042">
        <ele>1050</ele>
        <time>2025-06-09T06:23:44.000Z</time>
      </trkpt>
      <trkpt lat="47.84748" lon="6.95037">
        <ele>1050</ele>
        <time>2025-06-09T06:23:49.000Z</time>
      </trkpt>
      <trkpt lat="47.84749" lon="6.9503">
        <ele>1050</ele>
        <time>2025-06-09T06:23:51.000Z</time>
      </trkpt>
      <trkpt lat="47.84748" lon="6.95025">
        <ele>1050</ele>
        <time>2025-06-09T06:23:56.000Z</time>
      </trkpt>
      <trkpt lat="47.84748" lon="6.95017">
        <ele>1051</ele>
        <time>2025-06-09T06:24:02.000Z</time>
      </trkpt>
      <trkpt lat="47.84749" lon="6.95008">
        <ele>1051</ele>
        <time>2025-06-09T06:24:08.000Z</time>
      </trkpt>
      <trkpt lat="47.84746" lon="6.94992">
        <ele>1051</ele>
        <time>2025-06-09T06:24:21.000Z</time>
      </trkpt>
      <trkpt lat="47.84747" lon="6.94974">
        <ele>1052</ele>
        <time>2025-06-09T06:24:31.000Z</time>
      </trkpt>
      <trkpt lat="47.84747" lon="6.94961">
        <ele>1050</ele>
        <time>2025-06-09T06:24:40.000Z</time>
      </trkpt>
      <trkpt lat="47.84746" lon="6.94945">
        <ele>1050</ele>
        <time>2025-06-09T06:24:50.000Z</time>
      </trkpt>
      <trkpt lat="47.84745" lon="6.94936">
        <ele>1050</ele>
        <time>2025-06-09T06:24:56.000Z</time>
      </trkpt>
      <trkpt lat="47.84743" lon="6.94919">
        <ele>1050</ele>
        <time>2025-06-09T06:25:07.000Z</time>
      </trkpt>
      <trkpt lat="47.84742" lon="6.94909">
        <ele>1050</ele>
        <time>2025-06-09T06:25:14.000Z</time>
      </trkpt>
      <trkpt lat="47.84744" lon="6.94901">
        <ele>1049</ele>
        <time>2025-06-09T06:25:23.000Z</time>
      </trkpt>
      <trkpt lat="47.84745" lon="6.94894">
        <ele>1049</ele>
        <time>2025-06-09T06:25:29.000Z</time>
      </trkpt>
      <trkpt lat="47.84744" lon="6.94887">
        <ele>1049</ele>
        <time>2025-06-09T06:25:34.000Z</time>
      </trkpt>
      <trkpt lat="47.84743" lon="6.94878">
        <ele>1049</ele>
        <time>2025-06-09T06:25:42.000Z</time>
      </trkpt>
      <trkpt lat="47.84742" lon="6.94863">
        <ele>1049</ele>
        <time>2025-06-09T06:25:51.000Z</time>
      </trkpt>
      <trkpt lat="47.84741" lon="6.94853">
        <ele>1049</ele>
        <time>2025-06-09T06:25:59.000Z</time>
      </trkpt>
      <trkpt lat="47.84741" lon="6.94839">
        <ele>1050</ele>
        <time>2025-06-09T06:26:13.000Z</time>
      </trkpt>
      <trkpt lat="47.84743" lon="6.94835">
        <ele>1051</ele>
        <time>2025-06-09T06:26:18.000Z</time>
      </trkpt>
      <trkpt lat="47.84748" lon="6.94821">
        <ele>1049</ele>
        <time>2025-06-09T06:26:28.000Z</time>
      </trkpt>
      <trkpt lat="47.84763" lon="6.94792">
        <ele>1051</ele>
        <time>2025-06-09T06:26:50.000Z</time>
      </trkpt>
      <trkpt lat="47.84766" lon="6.94786">
        <ele>1052</ele>
        <time>2025-06-09T06:26:55.000Z</time>
      </trkpt>
      <trkpt lat="47.84767" lon="6.94776">
        <ele>1053</ele>
        <time>2025-06-09T06:27:03.000Z</time>
      </trkpt>
      <trkpt lat="47.8477" lon="6.94769">
        <ele>1053</ele>
        <time>2025-06-09T06:27:08.000Z</time>
      </trkpt>
      <trkpt lat="47.84774" lon="6.94755">
        <ele>1052</ele>
        <time>2025-06-09T06:27:19.000Z</time>
      </trkpt>
      <trkpt lat="47.84776" lon="6.94748">
        <ele>1052</ele>
        <time>2025-06-09T06:27:24.000Z</time>
      </trkpt>
      <trkpt lat="47.8478" lon="6.94739">
        <ele>1053</ele>
        <time>2025-06-09T06:27:32.000Z</time>
      </trkpt>
      <trkpt lat="47.8478" lon="6.94731">
        <ele>1053</ele>
        <time>2025-06-09T06:27:38.000Z</time>
      </trkpt>
      <trkpt lat="47.84779" lon="6.94724">
        <ele>1053</ele>
        <time>2025-06-09T06:27:42.000Z</time>
      </trkpt>
      <trkpt lat="47.8478" lon="6.94717">
        <ele>1054</ele>
        <time>2025-06-09T06:27:46.000Z</time>
      </trkpt>
      <trkpt lat="47.84779" lon="6.94708">
        <ele>1054</ele>
        <time>2025-06-09T06:27:54.000Z</time>
      </trkpt>
      <trkpt lat="47.84779" lon="6.94701">
        <ele>1054</ele>
        <time>2025-06-09T06:27:59.000Z</time>
      </trkpt>
      <trkpt lat="47.84777" lon="6.94688">
        <ele>1054</ele>
        <time>2025-06-09T06:28:10.000Z</time>
      </trkpt>
      <trkpt lat="47.84779" lon="6.94681">
        <ele>1055</ele>
        <time>2025-06-09T06:28:14.000Z</time>
      </trkpt>
      <trkpt lat="47.84784" lon="6.94666">
        <ele>1056</ele>
        <time>2025-06-09T06:28:30.000Z</time>
      </trkpt>
      <trkpt lat="47.84787" lon="6.94643">
        <ele>1059</ele>
        <time>2025-06-09T06:28:45.000Z</time>
      </trkpt>
      <trkpt lat="47.84785" lon="6.94645">
        <ele>1064</ele>
        <time>2025-06-09T06:29:13.000Z</time>
      </trkpt>
      <trkpt lat="47.84785" lon="6.94635">
        <ele>1066</ele>
        <time>2025-06-09T06:29:25.000Z</time>
      </trkpt>
      <trkpt lat="47.84785" lon="6.94621">
        <ele>1069</ele>
        <time>2025-06-09T06:29:36.000Z</time>
      </trkpt>
      <trkpt lat="47.84783" lon="6.94624">
        <ele>1073</ele>
        <time>2025-06-09T06:30:03.000Z</time>
      </trkpt>
      <trkpt lat="47.84777" lon="6.94632">
        <ele>1075</ele>
        <time>2025-06-09T06:30:14.000Z</time>
      </trkpt>
      <trkpt lat="47.8477" lon="6.94632">
        <ele>1077</ele>
        <time>2025-06-09T06:30:26.000Z</time>
      </trkpt>
      <trkpt lat="47.84776" lon="6.94608">
        <ele>1079</ele>
        <time>2025-06-09T06:30:40.000Z</time>
      </trkpt>
      <trkpt lat="47.84775" lon="6.94602">
        <ele>1081</ele>
        <time>2025-06-09T06:30:48.000Z</time>
      </trkpt>
      <trkpt lat="47.84767" lon="6.946">
        <ele>1085</ele>
        <time>2025-06-09T06:31:06.000Z</time>
      </trkpt>
      <trkpt lat="47.8477" lon="6.94595">
        <ele>1086</ele>
        <time>2025-06-09T06:31:10.000Z</time>
      </trkpt>
      <trkpt lat="47.84775" lon="6.94578">
        <ele>1089</ele>
        <time>2025-06-09T06:31:24.000Z</time>
      </trkpt>
      <trkpt lat="47.8478" lon="6.94573">
        <ele>1090</ele>
        <time>2025-06-09T06:31:34.000Z</time>
      </trkpt>
      <trkpt lat="47.84782" lon="6.94557">
        <ele>1092</ele>
        <time>2025-06-09T06:31:49.000Z</time>
      </trkpt>
      <trkpt lat="47.84793" lon="6.94528">
        <ele>1096</ele>
        <time>2025-06-09T06:32:20.000Z</time>
      </trkpt>
      <trkpt lat="47.84799" lon="6.94527">
        <ele>1097</ele>
        <time>2025-06-09T06:32:26.000Z</time>
      </trkpt>
      <trkpt lat="47.84802" lon="6.94522">
        <ele>1097</ele>
        <time>2025-06-09T06:32:35.000Z</time>
      </trkpt>
      <trkpt lat="47.84804" lon="6.94511">
        <ele>1099</ele>
        <time>2025-06-09T06:32:47.000Z</time>
      </trkpt>
      <trkpt lat="47.84825" lon="6.94473">
        <ele>1106</ele>
        <time>2025-06-09T06:33:20.000Z</time>
      </trkpt>
      <trkpt lat="47.84832" lon="6.94462">
        <ele>1108</ele>
        <time>2025-06-09T06:33:34.000Z</time>
      </trkpt>
      <trkpt lat="47.84835" lon="6.94455">
        <ele>1109</ele>
        <time>2025-06-09T06:33:48.000Z</time>
      </trkpt>
      <trkpt lat="47.84838" lon="6.9445">
        <ele>1109</ele>
        <time>2025-06-09T06:33:52.000Z</time>
      </trkpt>
      <trkpt lat="47.84844" lon="6.94445">
        <ele>1110</ele>
        <time>2025-06-09T06:33:59.000Z</time>
      </trkpt>
      <trkpt lat="47.84849" lon="6.94447">
        <ele>1111</ele>
        <time>2025-06-09T06:34:07.000Z</time>
      </trkpt>
      <trkpt lat="47.84852" lon="6.94451">
        <ele>1110</ele>
        <time>2025-06-09T06:34:13.000Z</time>
      </trkpt>
      <trkpt lat="47.84854" lon="6.94437">
        <ele>1110</ele>
        <time>2025-06-09T06:34:25.000Z</time>
      </trkpt>
      <trkpt lat="47.84855" lon="6.94424">
        <ele>1112</ele>
        <time>2025-06-09T06:34:34.000Z</time>
      </trkpt>
      <trkpt lat="47.84857" lon="6.94415">
        <ele>1113</ele>
        <time>2025-06-09T06:34:42.000Z</time>
      </trkpt>
      <trkpt lat="47.8486" lon="6.94407">
        <ele>1114</ele>
        <time>2025-06-09T06:34:47.000Z</time>
      </trkpt>
      <trkpt lat="47.84861" lon="6.944">
        <ele>1114</ele>
        <time>2025-06-09T06:34:51.000Z</time>
      </trkpt>
      <trkpt lat="47.8487" lon="6.94381">
        <ele>1114</ele>
        <time>2025-06-09T06:35:03.000Z</time>
      </trkpt>
      <trkpt lat="47.84882" lon="6.94343">
        <ele>1118</ele>
        <time>2025-06-09T06:35:35.000Z</time>
      </trkpt>
      <trkpt lat="47.84885" lon="6.94336">
        <ele>1119</ele>
        <time>2025-06-09T06:35:39.000Z</time>
      </trkpt>
      <trkpt lat="47.84903" lon="6.94305">
        <ele>1121</ele>
        <time>2025-06-09T06:36:06.000Z</time>
      </trkpt>
      <trkpt lat="47.84908" lon="6.94302">
        <ele>1122</ele>
        <time>2025-06-09T06:36:10.000Z</time>
      </trkpt>
      <trkpt lat="47.84913" lon="6.94292">
        <ele>1123</ele>
        <time>2025-06-09T06:36:25.000Z</time>
      </trkpt>
      <trkpt lat="47.84917" lon="6.94288">
        <ele>1124</ele>
        <time>2025-06-09T06:36:29.000Z</time>
      </trkpt>
      <trkpt lat="47.84922" lon="6.94274">
        <ele>1125</ele>
        <time>2025-06-09T06:36:40.000Z</time>
      </trkpt>
      <trkpt lat="47.84926" lon="6.9427">
        <ele>1125</ele>
        <time>2025-06-09T06:36:43.000Z</time>
      </trkpt>
      <trkpt lat="47.84928" lon="6.94264">
        <ele>1125</ele>
        <time>2025-06-09T06:36:47.000Z</time>
      </trkpt>
      <trkpt lat="47.84936" lon="6.94256">
        <ele>1126</ele>
        <time>2025-06-09T06:36:56.000Z</time>
      </trkpt>
      <trkpt lat="47.8494" lon="6.94251">
        <ele>1127</ele>
        <time>2025-06-09T06:37:01.000Z</time>
      </trkpt>
      <trkpt lat="47.84954" lon="6.9424">
        <ele>1128</ele>
        <time>2025-06-09T06:37:16.000Z</time>
      </trkpt>
      <trkpt lat="47.84968" lon="6.9423">
        <ele>1127</ele>
        <time>2025-06-09T06:37:30.000Z</time>
      </trkpt>
      <trkpt lat="47.84978" lon="6.94225">
        <ele>1128</ele>
        <time>2025-06-09T06:37:44.000Z</time>
      </trkpt>
      <trkpt lat="47.84983" lon="6.94221">
        <ele>1128</ele>
        <time>2025-06-09T06:37:48.000Z</time>
      </trkpt>
      <trkpt lat="47.85003" lon="6.9421">
        <ele>1130</ele>
        <time>2025-06-09T06:38:10.000Z</time>
      </trkpt>
      <trkpt lat="47.85007" lon="6.94209">
        <ele>1132</ele>
        <time>2025-06-09T06:38:24.000Z</time>
      </trkpt>
      <trkpt lat="47.85014" lon="6.94211">
        <ele>1133</ele>
        <time>2025-06-09T06:38:31.000Z</time>
      </trkpt>
      <trkpt lat="47.85039" lon="6.94199">
        <ele>1136</ele>
        <time>2025-06-09T06:38:54.000Z</time>
      </trkpt>
      <trkpt lat="47.85039" lon="6.94192">
        <ele>1138</ele>
        <time>2025-06-09T06:39:02.000Z</time>
      </trkpt>
      <trkpt lat="47.85044" lon="6.94186">
        <ele>1141</ele>
        <time>2025-06-09T06:39:15.000Z</time>
      </trkpt>
      <trkpt lat="47.8506" lon="6.94183">
        <ele>1144</ele>
        <time>2025-06-09T06:39:36.000Z</time>
      </trkpt>
      <trkpt lat="47.85065" lon="6.94186">
        <ele>1145</ele>
        <time>2025-06-09T06:39:41.000Z</time>
      </trkpt>
      <trkpt lat="47.85067" lon="6.94178">
        <ele>1148</ele>
        <time>2025-06-09T06:39:54.000Z</time>
      </trkpt>
      <trkpt lat="47.85072" lon="6.94174">
        <ele>1150</ele>
        <time>2025-06-09T06:40:06.000Z</time>
      </trkpt>
      <trkpt lat="47.85077" lon="6.94169">
        <ele>1150</ele>
        <time>2025-06-09T06:40:11.000Z</time>
      </trkpt>
      <trkpt lat="47.85085" lon="6.94147">
        <ele>1153</ele>
        <time>2025-06-09T06:40:32.000Z</time>
      </trkpt>
      <trkpt lat="47.85087" lon="6.94131">
        <ele>1154</ele>
        <time>2025-06-09T06:40:43.000Z</time>
      </trkpt>
      <trkpt lat="47.85092" lon="6.94118">
        <ele>1155</ele>
        <time>2025-06-09T06:40:54.000Z</time>
      </trkpt>
      <trkpt lat="47.85102" lon="6.94106">
        <ele>1158</ele>
        <time>2025-06-09T06:41:07.000Z</time>
      </trkpt>
      <trkpt lat="47.85105" lon="6.941">
        <ele>1158</ele>
        <time>2025-06-09T06:41:12.000Z</time>
      </trkpt>
      <trkpt lat="47.85111" lon="6.94093">
        <ele>1160</ele>
        <time>2025-06-09T06:41:22.000Z</time>
      </trkpt>
      <trkpt lat="47.85115" lon="6.9409">
        <ele>1161</ele>
        <time>2025-06-09T06:41:26.000Z</time>
      </trkpt>
      <trkpt lat="47.85121" lon="6.94084">
        <ele>1161</ele>
        <time>2025-06-09T06:41:36.000Z</time>
      </trkpt>
      <trkpt lat="47.85129" lon="6.94067">
        <ele>1164</ele>
        <time>2025-06-09T06:41:54.000Z</time>
      </trkpt>
      <trkpt lat="47.85135" lon="6.94067">
        <ele>1165</ele>
        <time>2025-06-09T06:41:57.000Z</time>
      </trkpt>
      <trkpt lat="47.85138" lon="6.94062">
        <ele>1166</ele>
        <time>2025-06-09T06:42:03.000Z</time>
      </trkpt>
      <trkpt lat="47.85143" lon="6.94062">
        <ele>1167</ele>
        <time>2025-06-09T06:42:12.000Z</time>
      </trkpt>
      <trkpt lat="47.85148" lon="6.94054">
        <ele>1169</ele>
        <time>2025-06-09T06:42:24.000Z</time>
      </trkpt>
      <trkpt lat="47.85152" lon="6.94049">
        <ele>1170</ele>
        <time>2025-06-09T06:42:30.000Z</time>
      </trkpt>
      <trkpt lat="47.85158" lon="6.94048">
        <ele>1171</ele>
        <time>2025-06-09T06:42:37.000Z</time>
      </trkpt>
      <trkpt lat="47.85165" lon="6.94027">
        <ele>1175</ele>
        <time>2025-06-09T06:42:55.000Z</time>
      </trkpt>
      <trkpt lat="47.85171" lon="6.93992">
        <ele>1178</ele>
        <time>2025-06-09T06:43:24.000Z</time>
      </trkpt>
      <trkpt lat="47.85165" lon="6.9397">
        <ele>1180</ele>
        <time>2025-06-09T06:43:41.000Z</time>
      </trkpt>
      <trkpt lat="47.85164" lon="6.93951">
        <ele>1181</ele>
        <time>2025-06-09T06:43:55.000Z</time>
      </trkpt>
      <trkpt lat="47.85161" lon="6.93938">
        <ele>1182</ele>
        <time>2025-06-09T06:44:06.000Z</time>
      </trkpt>
      <trkpt lat="47.8516" lon="6.93932">
        <ele>1182</ele>
        <time>2025-06-09T06:44:10.000Z</time>
      </trkpt>
      <trkpt lat="47.85156" lon="6.93922">
        <ele>1183</ele>
        <time>2025-06-09T06:44:16.000Z</time>
      </trkpt>
      <trkpt lat="47.85154" lon="6.93914">
        <ele>1183</ele>
        <time>2025-06-09T06:44:21.000Z</time>
      </trkpt>
      <trkpt lat="47.85145" lon="6.93901">
        <ele>1184</ele>
        <time>2025-06-09T06:44:33.000Z</time>
      </trkpt>
      <trkpt lat="47.85146" lon="6.93894">
        <ele>1184</ele>
        <time>2025-06-09T06:44:38.000Z</time>
      </trkpt>
      <trkpt lat="47.85143" lon="6.93887">
        <ele>1184</ele>
        <time>2025-06-09T06:44:42.000Z</time>
      </trkpt>
      <trkpt lat="47.85137" lon="6.93875">
        <ele>1184</ele>
        <time>2025-06-09T06:44:50.000Z</time>
      </trkpt>
      <trkpt lat="47.85128" lon="6.93859">
        <ele>1184</ele>
        <time>2025-06-09T06:45:03.000Z</time>
      </trkpt>
      <trkpt lat="47.85107" lon="6.93826">
        <ele>1188</ele>
        <time>2025-06-09T06:45:34.000Z</time>
      </trkpt>
      <trkpt lat="47.851" lon="6.93813">
        <ele>1189</ele>
        <time>2025-06-09T06:45:48.000Z</time>
      </trkpt>
      <trkpt lat="47.85096" lon="6.93804">
        <ele>1189</ele>
        <time>2025-06-09T06:45:57.000Z</time>
      </trkpt>
      <trkpt lat="47.85093" lon="6.93799">
        <ele>1190</ele>
        <time>2025-06-09T06:46:01.000Z</time>
      </trkpt>
      <trkpt lat="47.85081" lon="6.93774">
        <ele>1188</ele>
        <time>2025-06-09T06:46:24.000Z</time>
      </trkpt>
      <trkpt lat="47.85074" lon="6.93758">
        <ele>1187</ele>
        <time>2025-06-09T06:46:35.000Z</time>
      </trkpt>
      <trkpt lat="47.85071" lon="6.93753">
        <ele>1187</ele>
        <time>2025-06-09T06:46:38.000Z</time>
      </trkpt>
      <trkpt lat="47.85063" lon="6.93732">
        <ele>1187</ele>
        <time>2025-06-09T06:46:57.000Z</time>
      </trkpt>
      <trkpt lat="47.8506" lon="6.93727">
        <ele>1187</ele>
        <time>2025-06-09T06:47:02.000Z</time>
      </trkpt>
      <trkpt lat="47.85055" lon="6.93714">
        <ele>1187</ele>
        <time>2025-06-09T06:47:11.000Z</time>
      </trkpt>
      <trkpt lat="47.85052" lon="6.93709">
        <ele>1186</ele>
        <time>2025-06-09T06:47:15.000Z</time>
      </trkpt>
      <trkpt lat="47.85031" lon="6.93665">
        <ele>1184</ele>
        <time>2025-06-09T06:47:46.000Z</time>
      </trkpt>
      <trkpt lat="47.85023" lon="6.93648">
        <ele>1184</ele>
        <time>2025-06-09T06:47:57.000Z</time>
      </trkpt>
      <trkpt lat="47.8502" lon="6.93644">
        <ele>1184</ele>
        <time>2025-06-09T06:48:00.000Z</time>
      </trkpt>
      <trkpt lat="47.85013" lon="6.93628">
        <ele>1185</ele>
        <time>2025-06-09T06:48:12.000Z</time>
      </trkpt>
      <trkpt lat="47.85009" lon="6.93622">
        <ele>1185</ele>
        <time>2025-06-09T06:48:16.000Z</time>
      </trkpt>
      <trkpt lat="47.85003" lon="6.9361">
        <ele>1185</ele>
        <time>2025-06-09T06:48:26.000Z</time>
      </trkpt>
      <trkpt lat="47.84999" lon="6.93604">
        <ele>1185</ele>
        <time>2025-06-09T06:48:30.000Z</time>
      </trkpt>
      <trkpt lat="47.84993" lon="6.93593">
        <ele>1184</ele>
        <time>2025-06-09T06:48:39.000Z</time>
      </trkpt>
      <trkpt lat="47.84989" lon="6.93589">
        <ele>1184</ele>
        <time>2025-06-09T06:48:42.000Z</time>
      </trkpt>
      <trkpt lat="47.8498" lon="6.93573">
        <ele>1184</ele>
        <time>2025-06-09T06:48:54.000Z</time>
      </trkpt>
      <trkpt lat="47.84976" lon="6.93564">
        <ele>1185</ele>
        <time>2025-06-09T06:49:03.000Z</time>
      </trkpt>
      <trkpt lat="47.84976" lon="6.93557">
        <ele>1186</ele>
        <time>2025-06-09T06:49:09.000Z</time>
      </trkpt>
      <trkpt lat="47.84971" lon="6.93547">
        <ele>1187</ele>
        <time>2025-06-09T06:49:20.000Z</time>
      </trkpt>
      <trkpt lat="47.84969" lon="6.93541">
        <ele>1187</ele>
        <time>2025-06-09T06:49:25.000Z</time>
      </trkpt>
      <trkpt lat="47.84966" lon="6.93535">
        <ele>1187</ele>
        <time>2025-06-09T06:49:29.000Z</time>
      </trkpt>
      <trkpt lat="47.84962" lon="6.93526">
        <ele>1187</ele>
        <time>2025-06-09T06:49:37.000Z</time>
      </trkpt>
      <trkpt lat="47.84945" lon="6.9349">
        <ele>1182</ele>
        <time>2025-06-09T06:50:06.000Z</time>
      </trkpt>
      <trkpt lat="47.84942" lon="6.93481">
        <ele>1182</ele>
        <time>2025-06-09T06:50:12.000Z</time>
      </trkpt>
      <trkpt lat="47.84938" lon="6.93468">
        <ele>1182</ele>
        <time>2025-06-09T06:50:19.000Z</time>
      </trkpt>
      <trkpt lat="47.84925" lon="6.93422">
        <ele>1185</ele>
        <time>2025-06-09T06:50:56.000Z</time>
      </trkpt>
      <trkpt lat="47.84917" lon="6.93387">
        <ele>1186</ele>
        <time>2025-06-09T06:51:18.000Z</time>
      </trkpt>
      <trkpt lat="47.84917" lon="6.9338">
        <ele>1186</ele>
        <time>2025-06-09T06:51:22.000Z</time>
      </trkpt>
      <trkpt lat="47.84916" lon="6.93374">
        <ele>1186</ele>
        <time>2025-06-09T06:51:28.000Z</time>
      </trkpt>
      <trkpt lat="47.84914" lon="6.93366">
        <ele>1185</ele>
        <time>2025-06-09T06:51:32.000Z</time>
      </trkpt>
      <trkpt lat="47.84911" lon="6.93353">
        <ele>1185</ele>
        <time>2025-06-09T06:51:41.000Z</time>
      </trkpt>
      <trkpt lat="47.8491" lon="6.93339">
        <ele>1184</ele>
        <time>2025-06-09T06:51:50.000Z</time>
      </trkpt>
      <trkpt lat="47.84907" lon="6.93332">
        <ele>1184</ele>
        <time>2025-06-09T06:51:55.000Z</time>
      </trkpt>
      <trkpt lat="47.84904" lon="6.93309">
        <ele>1182</ele>
        <time>2025-06-09T06:52:08.000Z</time>
      </trkpt>
      <trkpt lat="47.84901" lon="6.93296">
        <ele>1182</ele>
        <time>2025-06-09T06:52:16.000Z</time>
      </trkpt>
      <trkpt lat="47.84899" lon="6.9329">
        <ele>1182</ele>
        <time>2025-06-09T06:52:20.000Z</time>
      </trkpt>
      <trkpt lat="47.84893" lon="6.93269">
        <ele>1181</ele>
        <time>2025-06-09T06:52:32.000Z</time>
      </trkpt>
      <trkpt lat="47.84892" lon="6.93263">
        <ele>1181</ele>
        <time>2025-06-09T06:52:36.000Z</time>
      </trkpt>
      <trkpt lat="47.8489" lon="6.93242">
        <ele>1179</ele>
        <time>2025-06-09T06:52:49.000Z</time>
      </trkpt>
      <trkpt lat="47.84887" lon="6.93229">
        <ele>1178</ele>
        <time>2025-06-09T06:52:57.000Z</time>
      </trkpt>
      <trkpt lat="47.84887" lon="6.93221">
        <ele>1178</ele>
        <time>2025-06-09T06:53:03.000Z</time>
      </trkpt>
      <trkpt lat="47.84886" lon="6.93214">
        <ele>1177</ele>
        <time>2025-06-09T06:53:08.000Z</time>
      </trkpt>
      <trkpt lat="47.84884" lon="6.93208">
        <ele>1177</ele>
        <time>2025-06-09T06:53:12.000Z</time>
      </trkpt>
      <trkpt lat="47.84882" lon="6.93193">
        <ele>1175</ele>
        <time>2025-06-09T06:53:25.000Z</time>
      </trkpt>
      <trkpt lat="47.84881" lon="6.93184">
        <ele>1174</ele>
        <time>2025-06-09T06:53:32.000Z</time>
      </trkpt>
      <trkpt lat="47.84877" lon="6.93179">
        <ele>1173</ele>
        <time>2025-06-09T06:53:36.000Z</time>
      </trkpt>
      <trkpt lat="47.84863" lon="6.93139">
        <ele>1168</ele>
        <time>2025-06-09T06:54:09.000Z</time>
      </trkpt>
      <trkpt lat="47.84857" lon="6.93123">
        <ele>1165</ele>
        <time>2025-06-09T06:54:24.000Z</time>
      </trkpt>
      <trkpt lat="47.84851" lon="6.93112">
        <ele>1163</ele>
        <time>2025-06-09T06:54:32.000Z</time>
      </trkpt>
      <trkpt lat="47.84849" lon="6.93104">
        <ele>1162</ele>
        <time>2025-06-09T06:54:41.000Z</time>
      </trkpt>
      <trkpt lat="47.84845" lon="6.93099">
        <ele>1160</ele>
        <time>2025-06-09T06:54:46.000Z</time>
      </trkpt>
      <trkpt lat="47.84839" lon="6.93096">
        <ele>1160</ele>
        <time>2025-06-09T06:54:51.000Z</time>
      </trkpt>
      <trkpt lat="47.84836" lon="6.93092">
        <ele>1159</ele>
        <time>2025-06-09T06:54:54.000Z</time>
      </trkpt>
      <trkpt lat="47.84834" lon="6.93083">
        <ele>1158</ele>
        <time>2025-06-09T06:55:02.000Z</time>
      </trkpt>
      <trkpt lat="47.84832" lon="6.93076">
        <ele>1157</ele>
        <time>2025-06-09T06:55:08.000Z</time>
      </trkpt>
      <trkpt lat="47.8483" lon="6.93062">
        <ele>1155</ele>
        <time>2025-06-09T06:55:17.000Z</time>
      </trkpt>
      <trkpt lat="47.84832" lon="6.93045">
        <ele>1153</ele>
        <time>2025-06-09T06:55:29.000Z</time>
      </trkpt>
      <trkpt lat="47.84833" lon="6.93028">
        <ele>1152</ele>
        <time>2025-06-09T06:55:40.000Z</time>
      </trkpt>
      <trkpt lat="47.84832" lon="6.93021">
        <ele>1152</ele>
        <time>2025-06-09T06:55:45.000Z</time>
      </trkpt>
      <trkpt lat="47.84836" lon="6.92999">
        <ele>1148</ele>
        <time>2025-06-09T06:56:00.000Z</time>
      </trkpt>
      <trkpt lat="47.84839" lon="6.92993">
        <ele>1147</ele>
        <time>2025-06-09T06:56:06.000Z</time>
      </trkpt>
      <trkpt lat="47.8484" lon="6.92986">
        <ele>1145</ele>
        <time>2025-06-09T06:56:12.000Z</time>
      </trkpt>
      <trkpt lat="47.84842" lon="6.92973">
        <ele>1142</ele>
        <time>2025-06-09T06:56:23.000Z</time>
      </trkpt>
      <trkpt lat="47.84839" lon="6.92964">
        <ele>1141</ele>
        <time>2025-06-09T06:56:30.000Z</time>
      </trkpt>
      <trkpt lat="47.84841" lon="6.92958">
        <ele>1140</ele>
        <time>2025-06-09T06:56:34.000Z</time>
      </trkpt>
      <trkpt lat="47.84844" lon="6.92953">
        <ele>1139</ele>
        <time>2025-06-09T06:56:38.000Z</time>
      </trkpt>
      <trkpt lat="47.84851" lon="6.9291">
        <ele>1131</ele>
        <time>2025-06-09T06:57:12.000Z</time>
      </trkpt>
      <trkpt lat="47.84855" lon="6.929">
        <ele>1129</ele>
        <time>2025-06-09T06:57:20.000Z</time>
      </trkpt>
      <trkpt lat="47.84857" lon="6.92886">
        <ele>1127</ele>
        <time>2025-06-09T06:57:28.000Z</time>
      </trkpt>
      <trkpt lat="47.84862" lon="6.92857">
        <ele>1124</ele>
        <time>2025-06-09T06:57:46.000Z</time>
      </trkpt>
      <trkpt lat="47.84857" lon="6.92813">
        <ele>1118</ele>
        <time>2025-06-09T06:58:18.000Z</time>
      </trkpt>
      <trkpt lat="47.84855" lon="6.9279">
        <ele>1115</ele>
        <time>2025-06-09T06:58:34.000Z</time>
      </trkpt>
      <trkpt lat="47.84853" lon="6.92779">
        <ele>1114</ele>
        <time>2025-06-09T06:58:42.000Z</time>
      </trkpt>
      <trkpt lat="47.84853" lon="6.92759">
        <ele>1112</ele>
        <time>2025-06-09T06:58:54.000Z</time>
      </trkpt>
      <trkpt lat="47.8485" lon="6.92746">
        <ele>1111</ele>
        <time>2025-06-09T06:59:03.000Z</time>
      </trkpt>
      <trkpt lat="47.84849" lon="6.92739">
        <ele>1111</ele>
        <time>2025-06-09T06:59:07.000Z</time>
      </trkpt>
      <trkpt lat="47.84847" lon="6.92733">
        <ele>1111</ele>
        <time>2025-06-09T06:59:12.000Z</time>
      </trkpt>
      <trkpt lat="47.84849" lon="6.92707">
        <ele>1108</ele>
        <time>2025-06-09T06:59:31.000Z</time>
      </trkpt>
      <trkpt lat="47.84848" lon="6.927">
        <ele>1108</ele>
        <time>2025-06-09T06:59:34.000Z</time>
      </trkpt>
      <trkpt lat="47.84848" lon="6.92692">
        <ele>1108</ele>
        <time>2025-06-09T06:59:38.000Z</time>
      </trkpt>
      <trkpt lat="47.84846" lon="6.92686">
        <ele>1108</ele>
        <time>2025-06-09T06:59:43.000Z</time>
      </trkpt>
      <trkpt lat="47.8485" lon="6.92661">
        <ele>1105</ele>
        <time>2025-06-09T07:00:02.000Z</time>
      </trkpt>
      <trkpt lat="47.8485" lon="6.9265">
        <ele>1104</ele>
        <time>2025-06-09T07:00:09.000Z</time>
      </trkpt>
      <trkpt lat="47.84852" lon="6.92641">
        <ele>1103</ele>
        <time>2025-06-09T07:00:15.000Z</time>
      </trkpt>
      <trkpt lat="47.84854" lon="6.92595">
        <ele>1102</ele>
        <time>2025-06-09T07:00:47.000Z</time>
      </trkpt>
      <trkpt lat="47.84854" lon="6.92587">
        <ele>1102</ele>
        <time>2025-06-09T07:00:52.000Z</time>
      </trkpt>
      <trkpt lat="47.84856" lon="6.9258">
        <ele>1102</ele>
        <time>2025-06-09T07:00:57.000Z</time>
      </trkpt>
      <trkpt lat="47.84854" lon="6.92568">
        <ele>1101</ele>
        <time>2025-06-09T07:01:06.000Z</time>
      </trkpt>
      <trkpt lat="47.84847" lon="6.92549">
        <ele>1100</ele>
        <time>2025-06-09T07:01:21.000Z</time>
      </trkpt>
      <trkpt lat="47.84832" lon="6.92536">
        <ele>1096</ele>
        <time>2025-06-09T07:01:49.000Z</time>
      </trkpt>
      <trkpt lat="47.84828" lon="6.9253">
        <ele>1093</ele>
        <time>2025-06-09T07:02:01.000Z</time>
      </trkpt>
      <trkpt lat="47.84826" lon="6.92522">
        <ele>1091</ele>
        <time>2025-06-09T07:02:13.000Z</time>
      </trkpt>
      <trkpt lat="47.84844" lon="6.9251">
        <ele>1087</ele>
        <time>2025-06-09T07:02:36.000Z</time>
      </trkpt>
      <trkpt lat="47.84863" lon="6.92515">
        <ele>1082</ele>
        <time>2025-06-09T07:03:02.000Z</time>
      </trkpt>
      <trkpt lat="47.84865" lon="6.92508">
        <ele>1079</ele>
        <time>2025-06-09T07:03:11.000Z</time>
      </trkpt>
      <trkpt lat="47.8486" lon="6.92499">
        <ele>1078</ele>
        <time>2025-06-09T07:03:22.000Z</time>
      </trkpt>
      <trkpt lat="47.84863" lon="6.92492">
        <ele>1077</ele>
        <time>2025-06-09T07:03:30.000Z</time>
      </trkpt>
      <trkpt lat="47.84864" lon="6.92474">
        <ele>1075</ele>
        <time>2025-06-09T07:03:41.000Z</time>
      </trkpt>
      <trkpt lat="47.84869" lon="6.92476">
        <ele>1074</ele>
        <time>2025-06-09T07:03:47.000Z</time>
      </trkpt>
      <trkpt lat="47.84872" lon="6.92481">
        <ele>1073</ele>
        <time>2025-06-09T07:03:52.000Z</time>
      </trkpt>
      <trkpt lat="47.84884" lon="6.9249">
        <ele>1071</ele>
        <time>2025-06-09T07:04:11.000Z</time>
      </trkpt>
      <trkpt lat="47.84904" lon="6.92505">
        <ele>1067</ele>
        <time>2025-06-09T07:04:33.000Z</time>
      </trkpt>
      <trkpt lat="47.84906" lon="6.92511">
        <ele>1066</ele>
        <time>2025-06-09T07:04:38.000Z</time>
      </trkpt>
      <trkpt lat="47.84911" lon="6.92518">
        <ele>1064</ele>
        <time>2025-06-09T07:04:47.000Z</time>
      </trkpt>
      <trkpt lat="47.84914" lon="6.92522">
        <ele>1063</ele>
        <time>2025-06-09T07:04:53.000Z</time>
      </trkpt>
      <trkpt lat="47.84919" lon="6.92529">
        <ele>1061</ele>
        <time>2025-06-09T07:05:03.000Z</time>
      </trkpt>
      <trkpt lat="47.84924" lon="6.9253">
        <ele>1059</ele>
        <time>2025-06-09T07:05:12.000Z</time>
      </trkpt>
      <trkpt lat="47.8494" lon="6.92554">
        <ele>1052</ele>
        <time>2025-06-09T07:05:44.000Z</time>
      </trkpt>
      <trkpt lat="47.8495" lon="6.9256">
        <ele>1048</ele>
        <time>2025-06-09T07:05:58.000Z</time>
      </trkpt>
      <trkpt lat="47.84954" lon="6.9256">
        <ele>1045</ele>
        <time>2025-06-09T07:06:11.000Z</time>
      </trkpt>
      <trkpt lat="47.84956" lon="6.92568">
        <ele>1043</ele>
        <time>2025-06-09T07:06:34.000Z</time>
      </trkpt>
      <trkpt lat="47.84963" lon="6.92573">
        <ele>1041</ele>
        <time>2025-06-09T07:06:45.000Z</time>
      </trkpt>
      <trkpt lat="47.84973" lon="6.92581">
        <ele>1037</ele>
        <time>2025-06-09T07:06:59.000Z</time>
      </trkpt>
      <trkpt lat="47.84979" lon="6.92583">
        <ele>1035</ele>
        <time>2025-06-09T07:07:08.000Z</time>
      </trkpt>
      <trkpt lat="47.84987" lon="6.92589">
        <ele>1032</ele>
        <time>2025-06-09T07:07:20.000Z</time>
      </trkpt>
      <trkpt lat="47.84994" lon="6.92595">
        <ele>1030</ele>
        <time>2025-06-09T07:07:31.000Z</time>
      </trkpt>
      <trkpt lat="47.84998" lon="6.92598">
        <ele>1028</ele>
        <time>2025-06-09T07:07:37.000Z</time>
      </trkpt>
      <trkpt lat="47.85032" lon="6.92597">
        <ele>1018</ele>
        <time>2025-06-09T07:08:15.000Z</time>
      </trkpt>
      <trkpt lat="47.85036" lon="6.926">
        <ele>1017</ele>
        <time>2025-06-09T07:08:20.000Z</time>
      </trkpt>
      <trkpt lat="47.85046" lon="6.92602">
        <ele>1014</ele>
        <time>2025-06-09T07:08:29.000Z</time>
      </trkpt>
      <trkpt lat="47.85069" lon="6.92618">
        <ele>1007</ele>
        <time>2025-06-09T07:09:08.000Z</time>
      </trkpt>
      <trkpt lat="47.85073" lon="6.92621">
        <ele>1006</ele>
        <time>2025-06-09T07:09:13.000Z</time>
      </trkpt>
      <trkpt lat="47.8508" lon="6.9262">
        <ele>1004</ele>
        <time>2025-06-09T07:09:25.000Z</time>
      </trkpt>
      <trkpt lat="47.85088" lon="6.92622">
        <ele>1001</ele>
        <time>2025-06-09T07:09:37.000Z</time>
      </trkpt>
      <trkpt lat="47.85116" lon="6.92617">
        <ele>991</ele>
        <time>2025-06-09T07:10:12.000Z</time>
      </trkpt>
      <trkpt lat="47.85122" lon="6.92615">
        <ele>990</ele>
        <time>2025-06-09T07:10:19.000Z</time>
      </trkpt>
      <trkpt lat="47.85141" lon="6.9263">
        <ele>982</ele>
        <time>2025-06-09T07:10:48.000Z</time>
      </trkpt>
      <trkpt lat="47.85154" lon="6.92654">
        <ele>976</ele>
        <time>2025-06-09T07:11:25.000Z</time>
      </trkpt>
      <trkpt lat="47.85179" lon="6.92686">
        <ele>968</ele>
        <time>2025-06-09T07:12:00.000Z</time>
      </trkpt>
      <trkpt lat="47.85184" lon="6.92695">
        <ele>968</ele>
        <time>2025-06-09T07:12:09.000Z</time>
      </trkpt>
      <trkpt lat="47.85186" lon="6.92701">
        <ele>968</ele>
        <time>2025-06-09T07:12:15.000Z</time>
      </trkpt>
      <trkpt lat="47.85195" lon="6.92707">
        <ele>965</ele>
        <time>2025-06-09T07:12:27.000Z</time>
      </trkpt>
      <trkpt lat="47.8519" lon="6.92714">
        <ele>962</ele>
        <time>2025-06-09T07:12:40.000Z</time>
      </trkpt>
      <trkpt lat="47.85186" lon="6.92719">
        <ele>961</ele>
        <time>2025-06-09T07:12:45.000Z</time>
      </trkpt>
      <trkpt lat="47.85213" lon="6.92727">
        <ele>956</ele>
        <time>2025-06-09T07:13:13.000Z</time>
      </trkpt>
      <trkpt lat="47.85225" lon="6.92723">
        <ele>954</ele>
        <time>2025-06-09T07:13:27.000Z</time>
      </trkpt>
      <trkpt lat="47.85217" lon="6.92737">
        <ele>951</ele>
        <time>2025-06-09T07:13:44.000Z</time>
      </trkpt>
      <trkpt lat="47.85213" lon="6.92743">
        <ele>950</ele>
        <time>2025-06-09T07:13:49.000Z</time>
      </trkpt>
      <trkpt lat="47.8521" lon="6.92746">
        <ele>948</ele>
        <time>2025-06-09T07:13:57.000Z</time>
      </trkpt>
      <trkpt lat="47.85241" lon="6.92724">
        <ele>949</ele>
        <time>2025-06-09T07:17:05.000Z</time>
      </trkpt>
      <trkpt lat="47.85242" lon="6.92724">
        <ele>949</ele>
        <time>2025-06-09T07:17:06.000Z</time>
      </trkpt>
      <trkpt lat="47.85241" lon="6.92708">
        <ele>946</ele>
        <time>2025-06-09T07:17:25.000Z</time>
      </trkpt>
      <trkpt lat="47.85232" lon="6.92678">
        <ele>940</ele>
        <time>2025-06-09T07:17:52.000Z</time>
      </trkpt>
      <trkpt lat="47.85224" lon="6.92669">
        <ele>939</ele>
        <time>2025-06-09T07:18:01.000Z</time>
      </trkpt>
      <trkpt lat="47.85225" lon="6.9266">
        <ele>938</ele>
        <time>2025-06-09T07:18:07.000Z</time>
      </trkpt>
      <trkpt lat="47.85218" lon="6.92657">
        <ele>937</ele>
        <time>2025-06-09T07:18:12.000Z</time>
      </trkpt>
      <trkpt lat="47.85218" lon="6.92648">
        <ele>936</ele>
        <time>2025-06-09T07:18:18.000Z</time>
      </trkpt>
      <trkpt lat="47.85222" lon="6.92639">
        <ele>935</ele>
        <time>2025-06-09T07:18:25.000Z</time>
      </trkpt>
      <trkpt lat="47.85217" lon="6.92631">
        <ele>936</ele>
        <time>2025-06-09T07:18:33.000Z</time>
      </trkpt>
      <trkpt lat="47.85221" lon="6.92621">
        <ele>936</ele>
        <time>2025-06-09T07:18:40.000Z</time>
      </trkpt>
      <trkpt lat="47.85225" lon="6.92616">
        <ele>937</ele>
        <time>2025-06-09T07:18:43.000Z</time>
      </trkpt>
      <trkpt lat="47.8523" lon="6.92613">
        <ele>937</ele>
        <time>2025-06-09T07:18:50.000Z</time>
      </trkpt>
      <trkpt lat="47.85234" lon="6.92603">
        <ele>936</ele>
        <time>2025-06-09T07:19:00.000Z</time>
      </trkpt>
      <trkpt lat="47.85245" lon="6.92583">
        <ele>936</ele>
        <time>2025-06-09T07:19:06.000Z</time>
      </trkpt>
      <trkpt lat="47.85247" lon="6.92578">
        <ele>937</ele>
        <time>2025-06-09T07:19:13.000Z</time>
      </trkpt>
      <trkpt lat="47.85258" lon="6.92561">
        <ele>938</ele>
        <time>2025-06-09T07:19:27.000Z</time>
      </trkpt>
      <trkpt lat="47.85262" lon="6.92556">
        <ele>939</ele>
        <time>2025-06-09T07:19:32.000Z</time>
      </trkpt>
      <trkpt lat="47.85265" lon="6.92552">
        <ele>939</ele>
        <time>2025-06-09T07:19:37.000Z</time>
      </trkpt>
      <trkpt lat="47.85271" lon="6.92546">
        <ele>938</ele>
        <time>2025-06-09T07:19:44.000Z</time>
      </trkpt>
      <trkpt lat="47.85279" lon="6.92535">
        <ele>937</ele>
        <time>2025-06-09T07:19:55.000Z</time>
      </trkpt>
      <trkpt lat="47.85307" lon="6.92514">
        <ele>930</ele>
        <time>2025-06-09T07:20:26.000Z</time>
      </trkpt>
      <trkpt lat="47.85341" lon="6.92492">
        <ele>925</ele>
        <time>2025-06-09T07:21:07.000Z</time>
      </trkpt>
      <trkpt lat="47.85356" lon="6.92478">
        <ele>924</ele>
        <time>2025-06-09T07:21:18.000Z</time>
      </trkpt>
      <trkpt lat="47.85361" lon="6.92474">
        <ele>924</ele>
        <time>2025-06-09T07:21:21.000Z</time>
      </trkpt>
      <trkpt lat="47.85378" lon="6.9246">
        <ele>922</ele>
        <time>2025-06-09T07:21:43.000Z</time>
      </trkpt>
      <trkpt lat="47.85382" lon="6.92455">
        <ele>923</ele>
        <time>2025-06-09T07:21:47.000Z</time>
      </trkpt>
      <trkpt lat="47.85387" lon="6.92451">
        <ele>923</ele>
        <time>2025-06-09T07:21:51.000Z</time>
      </trkpt>
      <trkpt lat="47.85392" lon="6.92445">
        <ele>922</ele>
        <time>2025-06-09T07:21:57.000Z</time>
      </trkpt>
      <trkpt lat="47.85412" lon="6.92423">
        <ele>925</ele>
        <time>2025-06-09T07:22:25.000Z</time>
      </trkpt>
      <trkpt lat="47.85434" lon="6.92388">
        <ele>925</ele>
        <time>2025-06-09T07:22:54.000Z</time>
      </trkpt>
      <trkpt lat="47.85453" lon="6.92368">
        <ele>929</ele>
        <time>2025-06-09T07:23:21.000Z</time>
      </trkpt>
      <trkpt lat="47.85468" lon="6.92357">
        <ele>933</ele>
        <time>2025-06-09T07:23:43.000Z</time>
      </trkpt>
      <trkpt lat="47.85474" lon="6.92361">
        <ele>933</ele>
        <time>2025-06-09T07:23:49.000Z</time>
      </trkpt>
      <trkpt lat="47.85477" lon="6.92353">
        <ele>933</ele>
        <time>2025-06-09T07:23:56.000Z</time>
      </trkpt>
      <trkpt lat="47.85476" lon="6.92347">
        <ele>933</ele>
        <time>2025-06-09T07:24:00.000Z</time>
      </trkpt>
      <trkpt lat="47.85474" lon="6.9234">
        <ele>933</ele>
        <time>2025-06-09T07:24:05.000Z</time>
      </trkpt>
      <trkpt lat="47.85475" lon="6.9234">
        <ele>935</ele>
        <time>2025-06-09T07:24:42.000Z</time>
      </trkpt>
      <trkpt lat="47.85477" lon="6.92346">
        <ele>935</ele>
        <time>2025-06-09T07:24:47.000Z</time>
      </trkpt>
      <trkpt lat="47.8548" lon="6.9234">
        <ele>933</ele>
        <time>2025-06-09T07:24:54.000Z</time>
      </trkpt>
      <trkpt lat="47.85485" lon="6.92337">
        <ele>933</ele>
        <time>2025-06-09T07:24:58.000Z</time>
      </trkpt>
      <trkpt lat="47.85488" lon="6.92331">
        <ele>933</ele>
        <time>2025-06-09T07:25:03.000Z</time>
      </trkpt>
      <trkpt lat="47.85492" lon="6.92328">
        <ele>933</ele>
        <time>2025-06-09T07:25:07.000Z</time>
      </trkpt>
      <trkpt lat="47.85501" lon="6.9232">
        <ele>933</ele>
        <time>2025-06-09T07:25:17.000Z</time>
      </trkpt>
      <trkpt lat="47.85504" lon="6.92315">
        <ele>933</ele>
        <time>2025-06-09T07:25:20.000Z</time>
      </trkpt>
      <trkpt lat="47.8551" lon="6.92312">
        <ele>933</ele>
        <time>2025-06-09T07:25:24.000Z</time>
      </trkpt>
      <trkpt lat="47.85514" lon="6.92307">
        <ele>932</ele>
        <time>2025-06-09T07:25:27.000Z</time>
      </trkpt>
      <trkpt lat="47.85518" lon="6.92303">
        <ele>932</ele>
        <time>2025-06-09T07:25:30.000Z</time>
      </trkpt>
      <trkpt lat="47.85533" lon="6.92286">
        <ele>932</ele>
        <time>2025-06-09T07:25:46.000Z</time>
      </trkpt>
      <trkpt lat="47.85537" lon="6.92282">
        <ele>932</ele>
        <time>2025-06-09T07:25:50.000Z</time>
      </trkpt>
      <trkpt lat="47.8555" lon="6.92273">
        <ele>932</ele>
        <time>2025-06-09T07:26:03.000Z</time>
      </trkpt>
      <trkpt lat="47.85555" lon="6.9227">
        <ele>931</ele>
        <time>2025-06-09T07:26:08.000Z</time>
      </trkpt>
      <trkpt lat="47.85564" lon="6.9227">
        <ele>931</ele>
        <time>2025-06-09T07:26:17.000Z</time>
      </trkpt>
      <trkpt lat="47.85569" lon="6.92271">
        <ele>931</ele>
        <time>2025-06-09T07:26:21.000Z</time>
      </trkpt>
      <trkpt lat="47.85574" lon="6.92273">
        <ele>931</ele>
        <time>2025-06-09T07:26:26.000Z</time>
      </trkpt>
      <trkpt lat="47.85579" lon="6.92275">
        <ele>932</ele>
        <time>2025-06-09T07:26:31.000Z</time>
      </trkpt>
      <trkpt lat="47.856" lon="6.92291">
        <ele>934</ele>
        <time>2025-06-09T07:26:55.000Z</time>
      </trkpt>
      <trkpt lat="47.85633" lon="6.92318">
        <ele>934</ele>
        <time>2025-06-09T07:27:26.000Z</time>
      </trkpt>
      <trkpt lat="47.85637" lon="6.92322">
        <ele>934</ele>
        <time>2025-06-09T07:27:29.000Z</time>
      </trkpt>
      <trkpt lat="47.85646" lon="6.92329">
        <ele>934</ele>
        <time>2025-06-09T07:27:37.000Z</time>
      </trkpt>
      <trkpt lat="47.85667" lon="6.92345">
        <ele>933</ele>
        <time>2025-06-09T07:27:57.000Z</time>
      </trkpt>
      <trkpt lat="47.85677" lon="6.92355">
        <ele>932</ele>
        <time>2025-06-09T07:28:07.000Z</time>
      </trkpt>
      <trkpt lat="47.85687" lon="6.92377">
        <ele>932</ele>
        <time>2025-06-09T07:28:22.000Z</time>
      </trkpt>
      <trkpt lat="47.85702" lon="6.92401">
        <ele>933</ele>
        <time>2025-06-09T07:28:42.000Z</time>
      </trkpt>
      <trkpt lat="47.85705" lon="6.92405">
        <ele>933</ele>
        <time>2025-06-09T07:28:45.000Z</time>
      </trkpt>
      <trkpt lat="47.85711" lon="6.92407">
        <ele>932</ele>
        <time>2025-06-09T07:28:49.000Z</time>
      </trkpt>
      <trkpt lat="47.85721" lon="6.92406">
        <ele>932</ele>
        <time>2025-06-09T07:28:59.000Z</time>
      </trkpt>
      <trkpt lat="47.85726" lon="6.92403">
        <ele>932</ele>
        <time>2025-06-09T07:29:03.000Z</time>
      </trkpt>
      <trkpt lat="47.85735" lon="6.92397">
        <ele>932</ele>
        <time>2025-06-09T07:29:11.000Z</time>
      </trkpt>
      <trkpt lat="47.85739" lon="6.92395">
        <ele>932</ele>
        <time>2025-06-09T07:29:15.000Z</time>
      </trkpt>
      <trkpt lat="47.85743" lon="6.92389">
        <ele>932</ele>
        <time>2025-06-09T07:29:19.000Z</time>
      </trkpt>
      <trkpt lat="47.85747" lon="6.92387">
        <ele>932</ele>
        <time>2025-06-09T07:29:23.000Z</time>
      </trkpt>
      <trkpt lat="47.85752" lon="6.92387">
        <ele>932</ele>
        <time>2025-06-09T07:29:27.000Z</time>
      </trkpt>
      <trkpt lat="47.85761" lon="6.92388">
        <ele>931</ele>
        <time>2025-06-09T07:29:35.000Z</time>
      </trkpt>
      <trkpt lat="47.85767" lon="6.92391">
        <ele>930</ele>
        <time>2025-06-09T07:29:44.000Z</time>
      </trkpt>
      <trkpt lat="47.85773" lon="6.92395">
        <ele>928</ele>
        <time>2025-06-09T07:29:56.000Z</time>
      </trkpt>
      <trkpt lat="47.8578" lon="6.92399">
        <ele>925</ele>
        <time>2025-06-09T07:30:09.000Z</time>
      </trkpt>
      <trkpt lat="47.85781" lon="6.92407">
        <ele>924</ele>
        <time>2025-06-09T07:30:12.000Z</time>
      </trkpt>
      <trkpt lat="47.85788" lon="6.92394">
        <ele>922</ele>
        <time>2025-06-09T07:30:21.000Z</time>
      </trkpt>
      <trkpt lat="47.85795" lon="6.92382">
        <ele>921</ele>
        <time>2025-06-09T07:30:29.000Z</time>
      </trkpt>
      <trkpt lat="47.85799" lon="6.92388">
        <ele>920</ele>
        <time>2025-06-09T07:30:34.000Z</time>
      </trkpt>
      <trkpt lat="47.85799" lon="6.92397">
        <ele>919</ele>
        <time>2025-06-09T07:30:38.000Z</time>
      </trkpt>
      <trkpt lat="47.85797" lon="6.92403">
        <ele>919</ele>
        <time>2025-06-09T07:30:41.000Z</time>
      </trkpt>
      <trkpt lat="47.85794" lon="6.92411">
        <ele>918</ele>
        <time>2025-06-09T07:30:45.000Z</time>
      </trkpt>
      <trkpt lat="47.8579" lon="6.92434">
        <ele>916</ele>
        <time>2025-06-09T07:30:57.000Z</time>
      </trkpt>
      <trkpt lat="47.85793" lon="6.92434">
        <ele>912</ele>
        <time>2025-06-09T07:31:17.000Z</time>
      </trkpt>
      <trkpt lat="47.85803" lon="6.92432">
        <ele>911</ele>
        <time>2025-06-09T07:31:22.000Z</time>
      </trkpt>
      <trkpt lat="47.85808" lon="6.92429">
        <ele>911</ele>
        <time>2025-06-09T07:31:24.000Z</time>
      </trkpt>
      <trkpt lat="47.85808" lon="6.92423">
        <ele>910</ele>
        <time>2025-06-09T07:31:28.000Z</time>
      </trkpt>
      <trkpt lat="47.85811" lon="6.92418">
        <ele>909</ele>
        <time>2025-06-09T07:31:36.000Z</time>
      </trkpt>
      <trkpt lat="47.85814" lon="6.92422">
        <ele>907</ele>
        <time>2025-06-09T07:31:41.000Z</time>
      </trkpt>
      <trkpt lat="47.85819" lon="6.9243">
        <ele>907</ele>
        <time>2025-06-09T07:31:45.000Z</time>
      </trkpt>
      <trkpt lat="47.85835" lon="6.92449">
        <ele>904</ele>
        <time>2025-06-09T07:32:03.000Z</time>
      </trkpt>
      <trkpt lat="47.85838" lon="6.92455">
        <ele>904</ele>
        <time>2025-06-09T07:32:07.000Z</time>
      </trkpt>
      <trkpt lat="47.85851" lon="6.92468">
        <ele>900</ele>
        <time>2025-06-09T07:32:28.000Z</time>
      </trkpt>
      <trkpt lat="47.85856" lon="6.92476">
        <ele>899</ele>
        <time>2025-06-09T07:32:35.000Z</time>
      </trkpt>
      <trkpt lat="47.85858" lon="6.92484">
        <ele>898</ele>
        <time>2025-06-09T07:32:39.000Z</time>
      </trkpt>
      <trkpt lat="47.85862" lon="6.92488">
        <ele>896</ele>
        <time>2025-06-09T07:32:42.000Z</time>
      </trkpt>
      <trkpt lat="47.85864" lon="6.92495">
        <ele>895</ele>
        <time>2025-06-09T07:32:46.000Z</time>
      </trkpt>
      <trkpt lat="47.8587" lon="6.92501">
        <ele>894</ele>
        <time>2025-06-09T07:32:49.000Z</time>
      </trkpt>
      <trkpt lat="47.85884" lon="6.92532">
        <ele>890</ele>
        <time>2025-06-09T07:33:09.000Z</time>
      </trkpt>
      <trkpt lat="47.85886" lon="6.92542">
        <ele>889</ele>
        <time>2025-06-09T07:33:16.000Z</time>
      </trkpt>
      <trkpt lat="47.85885" lon="6.9255">
        <ele>888</ele>
        <time>2025-06-09T07:33:22.000Z</time>
      </trkpt>
      <trkpt lat="47.8589" lon="6.92554">
        <ele>888</ele>
        <time>2025-06-09T07:33:26.000Z</time>
      </trkpt>
      <trkpt lat="47.85895" lon="6.92567">
        <ele>886</ele>
        <time>2025-06-09T07:33:35.000Z</time>
      </trkpt>
      <trkpt lat="47.85894" lon="6.92573">
        <ele>885</ele>
        <time>2025-06-09T07:33:39.000Z</time>
      </trkpt>
      <trkpt lat="47.85898" lon="6.9258">
        <ele>884</ele>
        <time>2025-06-09T07:33:43.000Z</time>
      </trkpt>
      <trkpt lat="47.85908" lon="6.92613">
        <ele>877</ele>
        <time>2025-06-09T07:34:14.000Z</time>
      </trkpt>
      <trkpt lat="47.85906" lon="6.92627">
        <ele>874</ele>
        <time>2025-06-09T07:34:22.000Z</time>
      </trkpt>
      <trkpt lat="47.85898" lon="6.92636">
        <ele>872</ele>
        <time>2025-06-09T07:34:30.000Z</time>
      </trkpt>
      <trkpt lat="47.85895" lon="6.92642">
        <ele>871</ele>
        <time>2025-06-09T07:34:33.000Z</time>
      </trkpt>
      <trkpt lat="47.85869" lon="6.92661">
        <ele>865</ele>
        <time>2025-06-09T07:35:00.000Z</time>
      </trkpt>
      <trkpt lat="47.85869" lon="6.92669">
        <ele>863</ele>
        <time>2025-06-09T07:35:06.000Z</time>
      </trkpt>
      <trkpt lat="47.85867" lon="6.92677">
        <ele>860</ele>
        <time>2025-06-09T07:35:15.000Z</time>
      </trkpt>
      <trkpt lat="47.8587" lon="6.92684">
        <ele>859</ele>
        <time>2025-06-09T07:35:21.000Z</time>
      </trkpt>
      <trkpt lat="47.8587" lon="6.92705">
        <ele>856</ele>
        <time>2025-06-09T07:35:36.000Z</time>
      </trkpt>
      <trkpt lat="47.85855" lon="6.9276">
        <ele>852</ele>
        <time>2025-06-09T07:36:06.000Z</time>
      </trkpt>
      <trkpt lat="47.85847" lon="6.92794">
        <ele>849</ele>
        <time>2025-06-09T07:36:33.000Z</time>
      </trkpt>
      <trkpt lat="47.85846" lon="6.92819">
        <ele>848</ele>
        <time>2025-06-09T07:36:52.000Z</time>
      </trkpt>
      <trkpt lat="47.85841" lon="6.92827">
        <ele>848</ele>
        <time>2025-06-09T07:36:55.000Z</time>
      </trkpt>
      <trkpt lat="47.8584" lon="6.92835">
        <ele>848</ele>
        <time>2025-06-09T07:37:08.000Z</time>
      </trkpt>
      <trkpt lat="47.85837" lon="6.92842">
        <ele>848</ele>
        <time>2025-06-09T07:37:11.000Z</time>
      </trkpt>
      <trkpt lat="47.85832" lon="6.92848">
        <ele>848</ele>
        <time>2025-06-09T07:37:13.000Z</time>
      </trkpt>
      <trkpt lat="47.8583" lon="6.92858">
        <ele>849</ele>
        <time>2025-06-09T07:37:22.000Z</time>
      </trkpt>
      <trkpt lat="47.85831" lon="6.92865">
        <ele>848</ele>
        <time>2025-06-09T07:37:26.000Z</time>
      </trkpt>
      <trkpt lat="47.85833" lon="6.92872">
        <ele>848</ele>
        <time>2025-06-09T07:37:29.000Z</time>
      </trkpt>
      <trkpt lat="47.85834" lon="6.92879">
        <ele>848</ele>
        <time>2025-06-09T07:37:33.000Z</time>
      </trkpt>
      <trkpt lat="47.85838" lon="6.92894">
        <ele>847</ele>
        <time>2025-06-09T07:37:40.000Z</time>
      </trkpt>
      <trkpt lat="47.85847" lon="6.92901">
        <ele>847</ele>
        <time>2025-06-09T07:37:48.000Z</time>
      </trkpt>
      <trkpt lat="47.85858" lon="6.92915">
        <ele>847</ele>
        <time>2025-06-09T07:38:02.000Z</time>
      </trkpt>
      <trkpt lat="47.85868" lon="6.92923">
        <ele>846</ele>
        <time>2025-06-09T07:38:10.000Z</time>
      </trkpt>
      <trkpt lat="47.85876" lon="6.92937">
        <ele>847</ele>
        <time>2025-06-09T07:38:19.000Z</time>
      </trkpt>
      <trkpt lat="47.85878" lon="6.92946">
        <ele>846</ele>
        <time>2025-06-09T07:38:25.000Z</time>
      </trkpt>
      <trkpt lat="47.85878" lon="6.92961">
        <ele>845</ele>
        <time>2025-06-09T07:38:33.000Z</time>
      </trkpt>
      <trkpt lat="47.85884" lon="6.92975">
        <ele>843</ele>
        <time>2025-06-09T07:38:45.000Z</time>
      </trkpt>
      <trkpt lat="47.85888" lon="6.92979">
        <ele>843</ele>
        <time>2025-06-09T07:38:50.000Z</time>
      </trkpt>
      <trkpt lat="47.85894" lon="6.92983">
        <ele>842</ele>
        <time>2025-06-09T07:39:25.000Z</time>
      </trkpt>
      <trkpt lat="47.85904" lon="6.93">
        <ele>840</ele>
        <time>2025-06-09T07:39:38.000Z</time>
      </trkpt>
      <trkpt lat="47.85907" lon="6.93006">
        <ele>840</ele>
        <time>2025-06-09T07:39:42.000Z</time>
      </trkpt>
      <trkpt lat="47.85912" lon="6.9301">
        <ele>838</ele>
        <time>2025-06-09T07:39:49.000Z</time>
      </trkpt>
      <trkpt lat="47.85914" lon="6.93018">
        <ele>837</ele>
        <time>2025-06-09T07:39:55.000Z</time>
      </trkpt>
      <trkpt lat="47.85921" lon="6.93029">
        <ele>835</ele>
        <time>2025-06-09T07:40:02.000Z</time>
      </trkpt>
      <trkpt lat="47.85928" lon="6.93039">
        <ele>835</ele>
        <time>2025-06-09T07:40:10.000Z</time>
      </trkpt>
      <trkpt lat="47.85932" lon="6.93044">
        <ele>835</ele>
        <time>2025-06-09T07:40:14.000Z</time>
      </trkpt>
      <trkpt lat="47.85939" lon="6.93062">
        <ele>837</ele>
        <time>2025-06-09T07:40:26.000Z</time>
      </trkpt>
      <trkpt lat="47.85942" lon="6.93066">
        <ele>838</ele>
        <time>2025-06-09T07:40:30.000Z</time>
      </trkpt>
      <trkpt lat="47.85948" lon="6.9307">
        <ele>838</ele>
        <time>2025-06-09T07:40:36.000Z</time>
      </trkpt>
      <trkpt lat="47.85954" lon="6.93066">
        <ele>838</ele>
        <time>2025-06-09T07:40:45.000Z</time>
      </trkpt>
      <trkpt lat="47.85959" lon="6.93067">
        <ele>838</ele>
        <time>2025-06-09T07:40:49.000Z</time>
      </trkpt>
      <trkpt lat="47.85964" lon="6.93069">
        <ele>838</ele>
        <time>2025-06-09T07:40:52.000Z</time>
      </trkpt>
      <trkpt lat="47.85969" lon="6.93069">
        <ele>838</ele>
        <time>2025-06-09T07:40:56.000Z</time>
      </trkpt>
      <trkpt lat="47.85988" lon="6.93076">
        <ele>839</ele>
        <time>2025-06-09T07:41:18.000Z</time>
      </trkpt>
      <trkpt lat="47.85992" lon="6.93081">
        <ele>839</ele>
        <time>2025-06-09T07:41:22.000Z</time>
      </trkpt>
      <trkpt lat="47.85997" lon="6.93085">
        <ele>839</ele>
        <time>2025-06-09T07:41:28.000Z</time>
      </trkpt>
      <trkpt lat="47.86001" lon="6.93092">
        <ele>838</ele>
        <time>2025-06-09T07:41:35.000Z</time>
      </trkpt>
      <trkpt lat="47.86008" lon="6.93103">
        <ele>839</ele>
        <time>2025-06-09T07:41:42.000Z</time>
      </trkpt>
      <trkpt lat="47.86009" lon="6.9311">
        <ele>839</ele>
        <time>2025-06-09T07:41:45.000Z</time>
      </trkpt>
      <trkpt lat="47.8601" lon="6.93118">
        <ele>839</ele>
        <time>2025-06-09T07:41:50.000Z</time>
      </trkpt>
      <trkpt lat="47.86015" lon="6.93122">
        <ele>839</ele>
        <time>2025-06-09T07:41:56.000Z</time>
      </trkpt>
      <trkpt lat="47.86018" lon="6.93128">
        <ele>839</ele>
        <time>2025-06-09T07:41:59.000Z</time>
      </trkpt>
      <trkpt lat="47.8602" lon="6.93135">
        <ele>838</ele>
        <time>2025-06-09T07:42:04.000Z</time>
      </trkpt>
      <trkpt lat="47.86024" lon="6.9314">
        <ele>838</ele>
        <time>2025-06-09T07:42:08.000Z</time>
      </trkpt>
      <trkpt lat="47.86027" lon="6.93149">
        <ele>838</ele>
        <time>2025-06-09T07:42:14.000Z</time>
      </trkpt>
      <trkpt lat="47.86027" lon="6.9317">
        <ele>839</ele>
        <time>2025-06-09T07:42:26.000Z</time>
      </trkpt>
      <trkpt lat="47.86029" lon="6.93176">
        <ele>839</ele>
        <time>2025-06-09T07:42:31.000Z</time>
      </trkpt>
      <trkpt lat="47.86034" lon="6.93185">
        <ele>837</ele>
        <time>2025-06-09T07:42:41.000Z</time>
      </trkpt>
      <trkpt lat="47.86035" lon="6.93195">
        <ele>837</ele>
        <time>2025-06-09T07:42:47.000Z</time>
      </trkpt>
      <trkpt lat="47.86035" lon="6.93203">
        <ele>837</ele>
        <time>2025-06-09T07:42:50.000Z</time>
      </trkpt>
      <trkpt lat="47.8604" lon="6.93207">
        <ele>837</ele>
        <time>2025-06-09T07:42:57.000Z</time>
      </trkpt>
      <trkpt lat="47.86043" lon="6.93211">
        <ele>836</ele>
        <time>2025-06-09T07:43:01.000Z</time>
      </trkpt>
      <trkpt lat="47.86057" lon="6.93212">
        <ele>836</ele>
        <time>2025-06-09T07:43:13.000Z</time>
      </trkpt>
      <trkpt lat="47.86063" lon="6.93216">
        <ele>837</ele>
        <time>2025-06-09T07:43:19.000Z</time>
      </trkpt>
      <trkpt lat="47.86075" lon="6.93224">
        <ele>837</ele>
        <time>2025-06-09T07:43:36.000Z</time>
      </trkpt>
      <trkpt lat="47.86079" lon="6.93225">
        <ele>836</ele>
        <time>2025-06-09T07:43:39.000Z</time>
      </trkpt>
      <trkpt lat="47.86083" lon="6.9323">
        <ele>836</ele>
        <time>2025-06-09T07:43:43.000Z</time>
      </trkpt>
      <trkpt lat="47.86088" lon="6.9323">
        <ele>836</ele>
        <time>2025-06-09T07:43:47.000Z</time>
      </trkpt>
      <trkpt lat="47.86098" lon="6.9324">
        <ele>835</ele>
        <time>2025-06-09T07:43:59.000Z</time>
      </trkpt>
      <trkpt lat="47.86102" lon="6.93243">
        <ele>836</ele>
        <time>2025-06-09T07:44:03.000Z</time>
      </trkpt>
      <trkpt lat="47.86111" lon="6.9325">
        <ele>835</ele>
        <time>2025-06-09T07:44:10.000Z</time>
      </trkpt>
      <trkpt lat="47.86116" lon="6.93251">
        <ele>835</ele>
        <time>2025-06-09T07:44:13.000Z</time>
      </trkpt>
      <trkpt lat="47.8612" lon="6.93254">
        <ele>835</ele>
        <time>2025-06-09T07:44:16.000Z</time>
      </trkpt>
      <trkpt lat="47.86124" lon="6.9326">
        <ele>835</ele>
        <time>2025-06-09T07:44:20.000Z</time>
      </trkpt>
      <trkpt lat="47.86128" lon="6.93264">
        <ele>835</ele>
        <time>2025-06-09T07:44:22.000Z</time>
      </trkpt>
      <trkpt lat="47.86136" lon="6.9327">
        <ele>835</ele>
        <time>2025-06-09T07:44:28.000Z</time>
      </trkpt>
      <trkpt lat="47.8614" lon="6.93275">
        <ele>835</ele>
        <time>2025-06-09T07:44:33.000Z</time>
      </trkpt>
      <trkpt lat="47.8615" lon="6.93285">
        <ele>834</ele>
        <time>2025-06-09T07:44:44.000Z</time>
      </trkpt>
      <trkpt lat="47.86153" lon="6.93291">
        <ele>834</ele>
        <time>2025-06-09T07:44:48.000Z</time>
      </trkpt>
      <trkpt lat="47.86162" lon="6.93296">
        <ele>834</ele>
        <time>2025-06-09T07:44:54.000Z</time>
      </trkpt>
      <trkpt lat="47.86167" lon="6.93303">
        <ele>834</ele>
        <time>2025-06-09T07:45:00.000Z</time>
      </trkpt>
      <trkpt lat="47.86174" lon="6.93319">
        <ele>834</ele>
        <time>2025-06-09T07:45:13.000Z</time>
      </trkpt>
      <trkpt lat="47.86192" lon="6.93338">
        <ele>832</ele>
        <time>2025-06-09T07:45:38.000Z</time>
      </trkpt>
      <trkpt lat="47.86203" lon="6.93345">
        <ele>830</ele>
        <time>2025-06-09T07:45:50.000Z</time>
      </trkpt>
      <trkpt lat="47.86208" lon="6.93351">
        <ele>829</ele>
        <time>2025-06-09T07:45:55.000Z</time>
      </trkpt>
      <trkpt lat="47.86215" lon="6.93362">
        <ele>831</ele>
        <time>2025-06-09T07:46:03.000Z</time>
      </trkpt>
      <trkpt lat="47.86222" lon="6.93379">
        <ele>834</ele>
        <time>2025-06-09T07:46:16.000Z</time>
      </trkpt>
      <trkpt lat="47.86228" lon="6.93383">
        <ele>836</ele>
        <time>2025-06-09T07:46:21.000Z</time>
      </trkpt>
      <trkpt lat="47.86231" lon="6.93388">
        <ele>837</ele>
        <time>2025-06-09T07:46:24.000Z</time>
      </trkpt>
      <trkpt lat="47.86235" lon="6.93391">
        <ele>837</ele>
        <time>2025-06-09T07:46:29.000Z</time>
      </trkpt>
      <trkpt lat="47.86238" lon="6.93395">
        <ele>837</ele>
        <time>2025-06-09T07:46:32.000Z</time>
      </trkpt>
      <trkpt lat="47.86243" lon="6.93398">
        <ele>837</ele>
        <time>2025-06-09T07:46:36.000Z</time>
      </trkpt>
      <trkpt lat="47.86253" lon="6.93405">
        <ele>836</ele>
        <time>2025-06-09T07:46:50.000Z</time>
      </trkpt>
      <trkpt lat="47.86258" lon="6.93408">
        <ele>837</ele>
        <time>2025-06-09T07:46:54.000Z</time>
      </trkpt>
      <trkpt lat="47.86264" lon="6.93412">
        <ele>838</ele>
        <time>2025-06-09T07:46:59.000Z</time>
      </trkpt>
      <trkpt lat="47.8627" lon="6.93422">
        <ele>839</ele>
        <time>2025-06-09T07:47:05.000Z</time>
      </trkpt>
      <trkpt lat="47.86272" lon="6.9343">
        <ele>839</ele>
        <time>2025-06-09T07:47:09.000Z</time>
      </trkpt>
      <trkpt lat="47.86267" lon="6.93436">
        <ele>840</ele>
        <time>2025-06-09T07:47:12.000Z</time>
      </trkpt>
      <trkpt lat="47.8627" lon="6.93442">
        <ele>841</ele>
        <time>2025-06-09T07:47:21.000Z</time>
      </trkpt>
      <trkpt lat="47.86278" lon="6.93453">
        <ele>843</ele>
        <time>2025-06-09T07:47:32.000Z</time>
      </trkpt>
      <trkpt lat="47.86289" lon="6.93485">
        <ele>850</ele>
        <time>2025-06-09T07:48:04.000Z</time>
      </trkpt>
      <trkpt lat="47.86293" lon="6.9349">
        <ele>851</ele>
        <time>2025-06-09T07:48:10.000Z</time>
      </trkpt>
      <trkpt lat="47.86301" lon="6.93487">
        <ele>851</ele>
        <time>2025-06-09T07:48:14.000Z</time>
      </trkpt>
      <trkpt lat="47.86301" lon="6.93503">
        <ele>853</ele>
        <time>2025-06-09T07:48:23.000Z</time>
      </trkpt>
      <trkpt lat="47.86324" lon="6.9354">
        <ele>860</ele>
        <time>2025-06-09T07:48:57.000Z</time>
      </trkpt>
      <trkpt lat="47.86328" lon="6.93546">
        <ele>862</ele>
        <time>2025-06-09T07:49:05.000Z</time>
      </trkpt>
      <trkpt lat="47.8633" lon="6.93553">
        <ele>862</ele>
        <time>2025-06-09T07:49:11.000Z</time>
      </trkpt>
      <trkpt lat="47.86343" lon="6.93575">
        <ele>865</ele>
        <time>2025-06-09T07:49:31.000Z</time>
      </trkpt>
      <trkpt lat="47.86352" lon="6.93581">
        <ele>866</ele>
        <time>2025-06-09T07:49:39.000Z</time>
      </trkpt>
      <trkpt lat="47.86365" lon="6.936">
        <ele>869</ele>
        <time>2025-06-09T07:49:58.000Z</time>
      </trkpt>
      <trkpt lat="47.86369" lon="6.93603">
        <ele>870</ele>
        <time>2025-06-09T07:50:02.000Z</time>
      </trkpt>
      <trkpt lat="47.86373" lon="6.93622">
        <ele>871</ele>
        <time>2025-06-09T07:50:15.000Z</time>
      </trkpt>
      <trkpt lat="47.86391" lon="6.93639">
        <ele>873</ele>
        <time>2025-06-09T07:50:35.000Z</time>
      </trkpt>
      <trkpt lat="47.86393" lon="6.93645">
        <ele>873</ele>
        <time>2025-06-09T07:50:39.000Z</time>
      </trkpt>
      <trkpt lat="47.86397" lon="6.93649">
        <ele>873</ele>
        <time>2025-06-09T07:50:45.000Z</time>
      </trkpt>
      <trkpt lat="47.86401" lon="6.93652">
        <ele>873</ele>
        <time>2025-06-09T07:50:49.000Z</time>
      </trkpt>
      <trkpt lat="47.86412" lon="6.93665">
        <ele>873</ele>
        <time>2025-06-09T07:51:03.000Z</time>
      </trkpt>
      <trkpt lat="47.86421" lon="6.93671">
        <ele>873</ele>
        <time>2025-06-09T07:51:09.000Z</time>
      </trkpt>
      <trkpt lat="47.86425" lon="6.93673">
        <ele>873</ele>
        <time>2025-06-09T07:51:13.000Z</time>
      </trkpt>
      <trkpt lat="47.8643" lon="6.93675">
        <ele>872</ele>
        <time>2025-06-09T07:51:18.000Z</time>
      </trkpt>
      <trkpt lat="47.86435" lon="6.93675">
        <ele>872</ele>
        <time>2025-06-09T07:51:23.000Z</time>
      </trkpt>
      <trkpt lat="47.86459" lon="6.93679">
        <ele>870</ele>
        <time>2025-06-09T07:51:44.000Z</time>
      </trkpt>
      <trkpt lat="47.86463" lon="6.93681">
        <ele>870</ele>
        <time>2025-06-09T07:51:48.000Z</time>
      </trkpt>
      <trkpt lat="47.86472" lon="6.93685">
        <ele>868</ele>
        <time>2025-06-09T07:51:57.000Z</time>
      </trkpt>
      <trkpt lat="47.86478" lon="6.93682">
        <ele>868</ele>
        <time>2025-06-09T07:52:01.000Z</time>
      </trkpt>
      <trkpt lat="47.86515" lon="6.93705">
        <ele>863</ele>
        <time>2025-06-09T07:52:33.000Z</time>
      </trkpt>
      <trkpt lat="47.86531" lon="6.93717">
        <ele>859</ele>
        <time>2025-06-09T07:52:49.000Z</time>
      </trkpt>
      <trkpt lat="47.86534" lon="6.93721">
        <ele>859</ele>
        <time>2025-06-09T07:52:53.000Z</time>
      </trkpt>
      <trkpt lat="47.86566" lon="6.93744">
        <ele>851</ele>
        <time>2025-06-09T07:53:26.000Z</time>
      </trkpt>
      <trkpt lat="47.86572" lon="6.93746">
        <ele>850</ele>
        <time>2025-06-09T07:53:32.000Z</time>
      </trkpt>
      <trkpt lat="47.86576" lon="6.93749">
        <ele>849</ele>
        <time>2025-06-09T07:53:36.000Z</time>
      </trkpt>
      <trkpt lat="47.86593" lon="6.93752">
        <ele>845</ele>
        <time>2025-06-09T07:53:54.000Z</time>
      </trkpt>
      <trkpt lat="47.86618" lon="6.93754">
        <ele>841</ele>
        <time>2025-06-09T07:54:14.000Z</time>
      </trkpt>
      <trkpt lat="47.86624" lon="6.93756">
        <ele>839</ele>
        <time>2025-06-09T07:54:23.000Z</time>
      </trkpt>
      <trkpt lat="47.86628" lon="6.9376">
        <ele>837</ele>
        <time>2025-06-09T07:54:29.000Z</time>
      </trkpt>
      <trkpt lat="47.86635" lon="6.93759">
        <ele>834</ele>
        <time>2025-06-09T07:54:41.000Z</time>
      </trkpt>
      <trkpt lat="47.8664" lon="6.93762">
        <ele>832</ele>
        <time>2025-06-09T07:54:47.000Z</time>
      </trkpt>
      <trkpt lat="47.86645" lon="6.93763">
        <ele>831</ele>
        <time>2025-06-09T07:54:51.000Z</time>
      </trkpt>
      <trkpt lat="47.8665" lon="6.93766">
        <ele>829</ele>
        <time>2025-06-09T07:54:58.000Z</time>
      </trkpt>
      <trkpt lat="47.86662" lon="6.93767">
        <ele>825</ele>
        <time>2025-06-09T07:55:10.000Z</time>
      </trkpt>
      <trkpt lat="47.86672" lon="6.93773">
        <ele>822</ele>
        <time>2025-06-09T07:55:24.000Z</time>
      </trkpt>
      <trkpt lat="47.86677" lon="6.93773">
        <ele>821</ele>
        <time>2025-06-09T07:55:29.000Z</time>
      </trkpt>
      <trkpt lat="47.86686" lon="6.93774">
        <ele>819</ele>
        <time>2025-06-09T07:55:42.000Z</time>
      </trkpt>
      <trkpt lat="47.86692" lon="6.93773">
        <ele>819</ele>
        <time>2025-06-09T07:55:44.000Z</time>
      </trkpt>
      <trkpt lat="47.86706" lon="6.93772">
        <ele>815</ele>
        <time>2025-06-09T07:56:01.000Z</time>
      </trkpt>
      <trkpt lat="47.86728" lon="6.9376">
        <ele>810</ele>
        <time>2025-06-09T07:56:28.000Z</time>
      </trkpt>
      <trkpt lat="47.86734" lon="6.9375">
        <ele>809</ele>
        <time>2025-06-09T07:56:37.000Z</time>
      </trkpt>
      <trkpt lat="47.86764" lon="6.93732">
        <ele>801</ele>
        <time>2025-06-09T07:57:10.000Z</time>
      </trkpt>
      <trkpt lat="47.86788" lon="6.93718">
        <ele>795</ele>
        <time>2025-06-09T07:57:41.000Z</time>
      </trkpt>
      <trkpt lat="47.86793" lon="6.93721">
        <ele>795</ele>
        <time>2025-06-09T07:57:47.000Z</time>
      </trkpt>
      <trkpt lat="47.86799" lon="6.93721">
        <ele>795</ele>
        <time>2025-06-09T07:57:52.000Z</time>
      </trkpt>
      <trkpt lat="47.86803" lon="6.93721">
        <ele>794</ele>
        <time>2025-06-09T07:57:55.000Z</time>
      </trkpt>
      <trkpt lat="47.86809" lon="6.93724">
        <ele>794</ele>
        <time>2025-06-09T07:58:02.000Z</time>
      </trkpt>
      <trkpt lat="47.86815" lon="6.93724">
        <ele>795</ele>
        <time>2025-06-09T07:58:09.000Z</time>
      </trkpt>
      <trkpt lat="47.8684" lon="6.93729">
        <ele>800</ele>
        <time>2025-06-09T07:58:40.000Z</time>
      </trkpt>
      <trkpt lat="47.86845" lon="6.9373">
        <ele>800</ele>
        <time>2025-06-09T07:58:44.000Z</time>
      </trkpt>
      <trkpt lat="47.86853" lon="6.93738">
        <ele>801</ele>
        <time>2025-06-09T07:58:53.000Z</time>
      </trkpt>
      <trkpt lat="47.86856" lon="6.93743">
        <ele>801</ele>
        <time>2025-06-09T07:58:59.000Z</time>
      </trkpt>
      <trkpt lat="47.86861" lon="6.93749">
        <ele>800</ele>
        <time>2025-06-09T07:59:06.000Z</time>
      </trkpt>
      <trkpt lat="47.86874" lon="6.93757">
        <ele>798</ele>
        <time>2025-06-09T07:59:18.000Z</time>
      </trkpt>
      <trkpt lat="47.86882" lon="6.9376">
        <ele>797</ele>
        <time>2025-06-09T07:59:26.000Z</time>
      </trkpt>
      <trkpt lat="47.86892" lon="6.93767">
        <ele>798</ele>
        <time>2025-06-09T07:59:38.000Z</time>
      </trkpt>
      <trkpt lat="47.86897" lon="6.93767">
        <ele>798</ele>
        <time>2025-06-09T07:59:42.000Z</time>
      </trkpt>
      <trkpt lat="47.8692" lon="6.93764">
        <ele>800</ele>
        <time>2025-06-09T08:00:05.000Z</time>
      </trkpt>
      <trkpt lat="47.86952" lon="6.93783">
        <ele>801</ele>
        <time>2025-06-09T08:00:38.000Z</time>
      </trkpt>
      <trkpt lat="47.8697" lon="6.93798">
        <ele>802</ele>
        <time>2025-06-09T08:00:58.000Z</time>
      </trkpt>
      <trkpt lat="47.86979" lon="6.93808">
        <ele>805</ele>
        <time>2025-06-09T08:01:13.000Z</time>
      </trkpt>
      <trkpt lat="47.86984" lon="6.93813">
        <ele>805</ele>
        <time>2025-06-09T08:01:20.000Z</time>
      </trkpt>
      <trkpt lat="47.86988" lon="6.93816">
        <ele>806</ele>
        <time>2025-06-09T08:01:24.000Z</time>
      </trkpt>
      <trkpt lat="47.86991" lon="6.93827">
        <ele>807</ele>
        <time>2025-06-09T08:01:31.000Z</time>
      </trkpt>
      <trkpt lat="47.86992" lon="6.93833">
        <ele>807</ele>
        <time>2025-06-09T08:01:35.000Z</time>
      </trkpt>
      <trkpt lat="47.86995" lon="6.93839">
        <ele>807</ele>
        <time>2025-06-09T08:01:39.000Z</time>
      </trkpt>
      <trkpt lat="47.87016" lon="6.9386">
        <ele>810</ele>
        <time>2025-06-09T08:02:06.000Z</time>
      </trkpt>
      <trkpt lat="47.87021" lon="6.9386">
        <ele>811</ele>
        <time>2025-06-09T08:02:10.000Z</time>
      </trkpt>
      <trkpt lat="47.87025" lon="6.93867">
        <ele>812</ele>
        <time>2025-06-09T08:02:18.000Z</time>
      </trkpt>
      <trkpt lat="47.87027" lon="6.93875">
        <ele>813</ele>
        <time>2025-06-09T08:02:25.000Z</time>
      </trkpt>
      <trkpt lat="47.87032" lon="6.93879">
        <ele>814</ele>
        <time>2025-06-09T08:02:31.000Z</time>
      </trkpt>
      <trkpt lat="47.87038" lon="6.93882">
        <ele>815</ele>
        <time>2025-06-09T08:02:35.000Z</time>
      </trkpt>
      <trkpt lat="47.87041" lon="6.93885">
        <ele>815</ele>
        <time>2025-06-09T08:02:39.000Z</time>
      </trkpt>
      <trkpt lat="47.87044" lon="6.93893">
        <ele>815</ele>
        <time>2025-06-09T08:02:48.000Z</time>
      </trkpt>
      <trkpt lat="47.87048" lon="6.939">
        <ele>816</ele>
        <time>2025-06-09T08:02:52.000Z</time>
      </trkpt>
      <trkpt lat="47.87052" lon="6.93905">
        <ele>816</ele>
        <time>2025-06-09T08:02:56.000Z</time>
      </trkpt>
      <trkpt lat="47.87056" lon="6.93913">
        <ele>817</ele>
        <time>2025-06-09T08:03:04.000Z</time>
      </trkpt>
      <trkpt lat="47.87063" lon="6.93924">
        <ele>818</ele>
        <time>2025-06-09T08:03:10.000Z</time>
      </trkpt>
      <trkpt lat="47.87065" lon="6.93933">
        <ele>819</ele>
        <time>2025-06-09T08:03:15.000Z</time>
      </trkpt>
      <trkpt lat="47.87076" lon="6.93949">
        <ele>821</ele>
        <time>2025-06-09T08:03:32.000Z</time>
      </trkpt>
      <trkpt lat="47.87084" lon="6.93953">
        <ele>821</ele>
        <time>2025-06-09T08:03:38.000Z</time>
      </trkpt>
      <trkpt lat="47.8709" lon="6.93959">
        <ele>822</ele>
        <time>2025-06-09T08:03:46.000Z</time>
      </trkpt>
      <trkpt lat="47.87104" lon="6.93964">
        <ele>824</ele>
        <time>2025-06-09T08:04:01.000Z</time>
      </trkpt>
      <trkpt lat="47.87108" lon="6.93967">
        <ele>824</ele>
        <time>2025-06-09T08:04:06.000Z</time>
      </trkpt>
      <trkpt lat="47.87119" lon="6.93969">
        <ele>825</ele>
        <time>2025-06-09T08:04:14.000Z</time>
      </trkpt>
      <trkpt lat="47.87131" lon="6.93971">
        <ele>826</ele>
        <time>2025-06-09T08:04:36.000Z</time>
      </trkpt>
      <trkpt lat="47.87141" lon="6.93969">
        <ele>826</ele>
        <time>2025-06-09T08:04:45.000Z</time>
      </trkpt>
      <trkpt lat="47.87156" lon="6.93968">
        <ele>825</ele>
        <time>2025-06-09T08:04:59.000Z</time>
      </trkpt>
      <trkpt lat="47.87169" lon="6.93966">
        <ele>825</ele>
        <time>2025-06-09T08:05:11.000Z</time>
      </trkpt>
      <trkpt lat="47.87175" lon="6.93965">
        <ele>825</ele>
        <time>2025-06-09T08:05:15.000Z</time>
      </trkpt>
      <trkpt lat="47.87179" lon="6.93964">
        <ele>825</ele>
        <time>2025-06-09T08:05:18.000Z</time>
      </trkpt>
      <trkpt lat="47.87189" lon="6.93964">
        <ele>825</ele>
        <time>2025-06-09T08:05:24.000Z</time>
      </trkpt>
      <trkpt lat="47.87218" lon="6.93967">
        <ele>825</ele>
        <time>2025-06-09T08:05:44.000Z</time>
      </trkpt>
      <trkpt lat="47.87222" lon="6.93974">
        <ele>825</ele>
        <time>2025-06-09T08:05:47.000Z</time>
      </trkpt>
      <trkpt lat="47.87257" lon="6.93988">
        <ele>826</ele>
        <time>2025-06-09T08:06:21.000Z</time>
      </trkpt>
      <trkpt lat="47.87287" lon="6.94005">
        <ele>826</ele>
        <time>2025-06-09T08:06:52.000Z</time>
      </trkpt>
      <trkpt lat="47.87326" lon="6.94031">
        <ele>825</ele>
        <time>2025-06-09T08:07:25.000Z</time>
      </trkpt>
      <trkpt lat="47.8733" lon="6.94035">
        <ele>825</ele>
        <time>2025-06-09T08:07:29.000Z</time>
      </trkpt>
      <trkpt lat="47.87359" lon="6.94063">
        <ele>822</ele>
        <time>2025-06-09T08:08:04.000Z</time>
      </trkpt>
      <trkpt lat="47.87371" lon="6.94077">
        <ele>821</ele>
        <time>2025-06-09T08:08:17.000Z</time>
      </trkpt>
      <trkpt lat="47.87375" lon="6.94081">
        <ele>821</ele>
        <time>2025-06-09T08:08:21.000Z</time>
      </trkpt>
      <trkpt lat="47.87404" lon="6.94112">
        <ele>817</ele>
        <time>2025-06-09T08:08:55.000Z</time>
      </trkpt>
      <trkpt lat="47.87407" lon="6.94117">
        <ele>817</ele>
        <time>2025-06-09T08:08:58.000Z</time>
      </trkpt>
      <trkpt lat="47.87416" lon="6.94133">
        <ele>815</ele>
        <time>2025-06-09T08:09:11.000Z</time>
      </trkpt>
      <trkpt lat="47.87422" lon="6.94138">
        <ele>815</ele>
        <time>2025-06-09T08:09:18.000Z</time>
      </trkpt>
      <trkpt lat="47.87435" lon="6.94173">
        <ele>809</ele>
        <time>2025-06-09T08:09:51.000Z</time>
      </trkpt>
      <trkpt lat="47.87438" lon="6.94181">
        <ele>808</ele>
        <time>2025-06-09T08:09:56.000Z</time>
      </trkpt>
      <trkpt lat="47.87442" lon="6.94187">
        <ele>807</ele>
        <time>2025-06-09T08:10:02.000Z</time>
      </trkpt>
      <trkpt lat="47.87449" lon="6.94192">
        <ele>806</ele>
        <time>2025-06-09T08:10:08.000Z</time>
      </trkpt>
      <trkpt lat="47.87456" lon="6.94203">
        <ele>804</ele>
        <time>2025-06-09T08:10:18.000Z</time>
      </trkpt>
      <trkpt lat="47.87463" lon="6.9422">
        <ele>802</ele>
        <time>2025-06-09T08:10:31.000Z</time>
      </trkpt>
      <trkpt lat="47.87461" lon="6.94237">
        <ele>801</ele>
        <time>2025-06-09T08:10:43.000Z</time>
      </trkpt>
      <trkpt lat="47.87462" lon="6.94244">
        <ele>800</ele>
        <time>2025-06-09T08:10:48.000Z</time>
      </trkpt>
      <trkpt lat="47.87466" lon="6.94256">
        <ele>798</ele>
        <time>2025-06-09T08:10:58.000Z</time>
      </trkpt>
      <trkpt lat="47.8747" lon="6.94274">
        <ele>795</ele>
        <time>2025-06-09T08:11:10.000Z</time>
      </trkpt>
      <trkpt lat="47.87473" lon="6.9428">
        <ele>795</ele>
        <time>2025-06-09T08:11:14.000Z</time>
      </trkpt>
      <trkpt lat="47.87475" lon="6.94294">
        <ele>794</ele>
        <time>2025-06-09T08:11:23.000Z</time>
      </trkpt>
      <trkpt lat="47.87476" lon="6.94303">
        <ele>794</ele>
        <time>2025-06-09T08:11:30.000Z</time>
      </trkpt>
      <trkpt lat="47.8748" lon="6.94307">
        <ele>793</ele>
        <time>2025-06-09T08:11:34.000Z</time>
      </trkpt>
      <trkpt lat="47.87484" lon="6.94317">
        <ele>792</ele>
        <time>2025-06-09T08:11:41.000Z</time>
      </trkpt>
      <trkpt lat="47.87487" lon="6.94331">
        <ele>789</ele>
        <time>2025-06-09T08:11:53.000Z</time>
      </trkpt>
      <trkpt lat="47.8749" lon="6.94338">
        <ele>787</ele>
        <time>2025-06-09T08:12:00.000Z</time>
      </trkpt>
      <trkpt lat="47.87492" lon="6.94345">
        <ele>786</ele>
        <time>2025-06-09T08:12:05.000Z</time>
      </trkpt>
      <trkpt lat="47.87501" lon="6.94361">
        <ele>781</ele>
        <time>2025-06-09T08:12:22.000Z</time>
      </trkpt>
      <trkpt lat="47.87504" lon="6.94369">
        <ele>779</ele>
        <time>2025-06-09T08:12:30.000Z</time>
      </trkpt>
      <trkpt lat="47.87507" lon="6.94374">
        <ele>777</ele>
        <time>2025-06-09T08:12:35.000Z</time>
      </trkpt>
      <trkpt lat="47.87508" lon="6.94381">
        <ele>777</ele>
        <time>2025-06-09T08:12:39.000Z</time>
      </trkpt>
      <trkpt lat="47.87514" lon="6.94395">
        <ele>774</ele>
        <time>2025-06-09T08:12:52.000Z</time>
      </trkpt>
      <trkpt lat="47.87513" lon="6.94402">
        <ele>773</ele>
        <time>2025-06-09T08:12:56.000Z</time>
      </trkpt>
      <trkpt lat="47.87516" lon="6.9441">
        <ele>771</ele>
        <time>2025-06-09T08:13:03.000Z</time>
      </trkpt>
      <trkpt lat="47.8752" lon="6.94416">
        <ele>769</ele>
        <time>2025-06-09T08:13:10.000Z</time>
      </trkpt>
      <trkpt lat="47.8753" lon="6.94446">
        <ele>763</ele>
        <time>2025-06-09T08:13:33.000Z</time>
      </trkpt>
      <trkpt lat="47.87533" lon="6.94451">
        <ele>762</ele>
        <time>2025-06-09T08:13:38.000Z</time>
      </trkpt>
      <trkpt lat="47.87537" lon="6.94462">
        <ele>760</ele>
        <time>2025-06-09T08:13:47.000Z</time>
      </trkpt>
      <trkpt lat="47.87538" lon="6.94476">
        <ele>757</ele>
        <time>2025-06-09T08:13:58.000Z</time>
      </trkpt>
      <trkpt lat="47.87549" lon="6.94511">
        <ele>748</ele>
        <time>2025-06-09T08:14:33.000Z</time>
      </trkpt>
      <trkpt lat="47.87554" lon="6.94523">
        <ele>745</ele>
        <time>2025-06-09T08:14:44.000Z</time>
      </trkpt>
      <trkpt lat="47.87557" lon="6.94532">
        <ele>743</ele>
        <time>2025-06-09T08:14:54.000Z</time>
      </trkpt>
      <trkpt lat="47.87561" lon="6.94538">
        <ele>742</ele>
        <time>2025-06-09T08:15:00.000Z</time>
      </trkpt>
      <trkpt lat="47.87565" lon="6.94542">
        <ele>740</ele>
        <time>2025-06-09T08:15:09.000Z</time>
      </trkpt>
      <trkpt lat="47.87568" lon="6.94547">
        <ele>739</ele>
        <time>2025-06-09T08:15:14.000Z</time>
      </trkpt>
      <trkpt lat="47.87571" lon="6.94564">
        <ele>736</ele>
        <time>2025-06-09T08:15:28.000Z</time>
      </trkpt>
      <trkpt lat="47.87573" lon="6.9457">
        <ele>735</ele>
        <time>2025-06-09T08:15:36.000Z</time>
      </trkpt>
      <trkpt lat="47.87575" lon="6.94562">
        <ele>732</ele>
        <time>2025-06-09T08:15:48.000Z</time>
      </trkpt>
      <trkpt lat="47.87578" lon="6.94555">
        <ele>732</ele>
        <time>2025-06-09T08:15:59.000Z</time>
      </trkpt>
      <trkpt lat="47.87581" lon="6.9454">
        <ele>729</ele>
        <time>2025-06-09T08:16:12.000Z</time>
      </trkpt>
      <trkpt lat="47.87585" lon="6.94533">
        <ele>727</ele>
        <time>2025-06-09T08:16:22.000Z</time>
      </trkpt>
      <trkpt lat="47.87587" lon="6.94522">
        <ele>724</ele>
        <time>2025-06-09T08:16:34.000Z</time>
      </trkpt>
      <trkpt lat="47.87593" lon="6.94519">
        <ele>722</ele>
        <time>2025-06-09T08:16:41.000Z</time>
      </trkpt>
      <trkpt lat="47.87599" lon="6.94504">
        <ele>719</ele>
        <time>2025-06-09T08:16:56.000Z</time>
      </trkpt>
      <trkpt lat="47.87604" lon="6.94498">
        <ele>717</ele>
        <time>2025-06-09T08:17:07.000Z</time>
      </trkpt>
      <trkpt lat="47.87608" lon="6.94495">
        <ele>716</ele>
        <time>2025-06-09T08:17:12.000Z</time>
      </trkpt>
      <trkpt lat="47.87609" lon="6.94486">
        <ele>716</ele>
        <time>2025-06-09T08:17:29.000Z</time>
      </trkpt>
      <trkpt lat="47.87611" lon="6.9448">
        <ele>714</ele>
        <time>2025-06-09T08:17:37.000Z</time>
      </trkpt>
      <trkpt lat="47.87613" lon="6.94474">
        <ele>713</ele>
        <time>2025-06-09T08:17:41.000Z</time>
      </trkpt>
      <trkpt lat="47.87613" lon="6.94465">
        <ele>712</ele>
        <time>2025-06-09T08:17:55.000Z</time>
      </trkpt>
      <trkpt lat="47.87625" lon="6.94439">
        <ele>705</ele>
        <time>2025-06-09T08:18:29.000Z</time>
      </trkpt>
      <trkpt lat="47.87623" lon="6.94432">
        <ele>704</ele>
        <time>2025-06-09T08:18:32.000Z</time>
      </trkpt>
      <trkpt lat="47.87626" lon="6.94426">
        <ele>703</ele>
        <time>2025-06-09T08:18:35.000Z</time>
      </trkpt>
      <trkpt lat="47.8763" lon="6.94433">
        <ele>702</ele>
        <time>2025-06-09T08:18:40.000Z</time>
      </trkpt>
      <trkpt lat="47.8763" lon="6.94439">
        <ele>702</ele>
        <time>2025-06-09T08:18:43.000Z</time>
      </trkpt>
      <trkpt lat="47.8764" lon="6.94456">
        <ele>699</ele>
        <time>2025-06-09T08:19:00.000Z</time>
      </trkpt>
      <trkpt lat="47.8765" lon="6.94481">
        <ele>694</ele>
        <time>2025-06-09T08:19:34.000Z</time>
      </trkpt>
      <trkpt lat="47.87654" lon="6.94497">
        <ele>690</ele>
        <time>2025-06-09T08:19:48.000Z</time>
      </trkpt>
      <trkpt lat="47.87655" lon="6.94479">
        <ele>688</ele>
        <time>2025-06-09T08:20:03.000Z</time>
      </trkpt>
      <trkpt lat="47.87655" lon="6.94472">
        <ele>688</ele>
        <time>2025-06-09T08:20:06.000Z</time>
      </trkpt>
      <trkpt lat="47.87659" lon="6.94467">
        <ele>686</ele>
        <time>2025-06-09T08:20:17.000Z</time>
      </trkpt>
      <trkpt lat="47.87666" lon="6.94495">
        <ele>683</ele>
        <time>2025-06-09T08:20:34.000Z</time>
      </trkpt>
      <trkpt lat="47.87664" lon="6.9451">
        <ele>681</ele>
        <time>2025-06-09T08:20:44.000Z</time>
      </trkpt>
      <trkpt lat="47.87663" lon="6.94516">
        <ele>681</ele>
        <time>2025-06-09T08:20:48.000Z</time>
      </trkpt>
      <trkpt lat="47.87662" lon="6.94522">
        <ele>681</ele>
        <time>2025-06-09T08:20:52.000Z</time>
      </trkpt>
      <trkpt lat="47.87663" lon="6.94545">
        <ele>677</ele>
        <time>2025-06-09T08:21:25.000Z</time>
      </trkpt>
      <trkpt lat="47.87665" lon="6.94559">
        <ele>676</ele>
        <time>2025-06-09T08:21:34.000Z</time>
      </trkpt>
      <trkpt lat="47.87665" lon="6.94566">
        <ele>675</ele>
        <time>2025-06-09T08:21:38.000Z</time>
      </trkpt>
      <trkpt lat="47.87666" lon="6.94575">
        <ele>675</ele>
        <time>2025-06-09T08:21:45.000Z</time>
      </trkpt>
      <trkpt lat="47.87671" lon="6.94624">
        <ele>670</ele>
        <time>2025-06-09T08:22:17.000Z</time>
      </trkpt>
      <trkpt lat="47.87674" lon="6.94651">
        <ele>667</ele>
        <time>2025-06-09T08:22:32.000Z</time>
      </trkpt>
      <trkpt lat="47.87675" lon="6.94666">
        <ele>667</ele>
        <time>2025-06-09T08:22:40.000Z</time>
      </trkpt>
      <trkpt lat="47.87683" lon="6.94721">
        <ele>664</ele>
        <time>2025-06-09T08:23:13.000Z</time>
      </trkpt>
      <trkpt lat="47.87687" lon="6.94745">
        <ele>664</ele>
        <time>2025-06-09T08:23:28.000Z</time>
      </trkpt>
      <trkpt lat="47.87701" lon="6.94793">
        <ele>661</ele>
        <time>2025-06-09T08:24:01.000Z</time>
      </trkpt>
      <trkpt lat="47.877" lon="6.9479">
        <ele>658</ele>
        <time>2025-06-09T08:24:21.000Z</time>
      </trkpt>
      <trkpt lat="47.87691" lon="6.94762">
        <ele>656</ele>
        <time>2025-06-09T08:24:37.000Z</time>
      </trkpt>
      <trkpt lat="47.87691" lon="6.94756">
        <ele>656</ele>
        <time>2025-06-09T08:24:42.000Z</time>
      </trkpt>
      <trkpt lat="47.877" lon="6.94733">
        <ele>655</ele>
        <time>2025-06-09T08:24:51.000Z</time>
      </trkpt>
      <trkpt lat="47.877" lon="6.94726">
        <ele>654</ele>
        <time>2025-06-09T08:24:58.000Z</time>
      </trkpt>
      <trkpt lat="47.877" lon="6.94719">
        <ele>654</ele>
        <time>2025-06-09T08:25:01.000Z</time>
      </trkpt>
      <trkpt lat="47.87697" lon="6.94712">
        <ele>653</ele>
        <time>2025-06-09T08:25:04.000Z</time>
      </trkpt>
      <trkpt lat="47.87696" lon="6.94707">
        <ele>653</ele>
        <time>2025-06-09T08:25:07.000Z</time>
      </trkpt>
      <trkpt lat="47.87699" lon="6.9469">
        <ele>653</ele>
        <time>2025-06-09T08:25:17.000Z</time>
      </trkpt>
      <trkpt lat="47.87707" lon="6.9466">
        <ele>650</ele>
        <time>2025-06-09T08:25:40.000Z</time>
      </trkpt>
      <trkpt lat="47.8771" lon="6.94657">
        <ele>647</ele>
        <time>2025-06-09T08:25:55.000Z</time>
      </trkpt>
      <trkpt lat="47.87716" lon="6.94661">
        <ele>645</ele>
        <time>2025-06-09T08:26:03.000Z</time>
      </trkpt>
      <trkpt lat="47.87724" lon="6.94681">
        <ele>644</ele>
        <time>2025-06-09T08:26:11.000Z</time>
      </trkpt>
      <trkpt lat="47.87731" lon="6.94692">
        <ele>641</ele>
        <time>2025-06-09T08:26:23.000Z</time>
      </trkpt>
      <trkpt lat="47.87748" lon="6.94729">
        <ele>634</ele>
        <time>2025-06-09T08:26:52.000Z</time>
      </trkpt>
      <trkpt lat="47.87767" lon="6.9475">
        <ele>627</ele>
        <time>2025-06-09T08:27:19.000Z</time>
      </trkpt>
      <trkpt lat="47.87769" lon="6.94757">
        <ele>626</ele>
        <time>2025-06-09T08:27:24.000Z</time>
      </trkpt>
      <trkpt lat="47.87782" lon="6.94817">
        <ele>621</ele>
        <time>2025-06-09T08:27:58.000Z</time>
      </trkpt>
      <trkpt lat="47.87792" lon="6.94871">
        <ele>613</ele>
        <time>2025-06-09T08:28:30.000Z</time>
      </trkpt>
      <trkpt lat="47.87798" lon="6.94917">
        <ele>601</ele>
        <time>2025-06-09T08:29:09.000Z</time>
      </trkpt>
      <trkpt lat="47.87803" lon="6.94911">
        <ele>600</ele>
        <time>2025-06-09T08:29:16.000Z</time>
      </trkpt>
      <trkpt lat="47.87808" lon="6.94911">
        <ele>600</ele>
        <time>2025-06-09T08:29:18.000Z</time>
      </trkpt>
      <trkpt lat="47.87819" lon="6.94904">
        <ele>600</ele>
        <time>2025-06-09T08:29:21.000Z</time>
      </trkpt>
      <trkpt lat="47.87824" lon="6.94897">
        <ele>599</ele>
        <time>2025-06-09T08:29:23.000Z</time>
      </trkpt>
      <trkpt lat="47.87829" lon="6.94883">
        <ele>598</ele>
        <time>2025-06-09T08:29:31.000Z</time>
      </trkpt>
      <trkpt lat="47.87835" lon="6.94888">
        <ele>597</ele>
        <time>2025-06-09T08:29:43.000Z</time>
      </trkpt>
      <trkpt lat="47.87841" lon="6.94903">
        <ele>597</ele>
        <time>2025-06-09T08:29:47.000Z</time>
      </trkpt>
      <trkpt lat="47.87843" lon="6.94914">
        <ele>597</ele>
        <time>2025-06-09T08:29:53.000Z</time>
      </trkpt>
      <trkpt lat="47.87846" lon="6.94923">
        <ele>596</ele>
        <time>2025-06-09T08:29:58.000Z</time>
      </trkpt>
      <trkpt lat="47.87853" lon="6.94932">
        <ele>593</ele>
        <time>2025-06-09T08:30:06.000Z</time>
      </trkpt>
      <trkpt lat="47.87858" lon="6.94937">
        <ele>591</ele>
        <time>2025-06-09T08:30:15.000Z</time>
      </trkpt>
      <trkpt lat="47.87867" lon="6.94946">
        <ele>590</ele>
        <time>2025-06-09T08:30:22.000Z</time>
      </trkpt>
      <trkpt lat="47.87868" lon="6.94954">
        <ele>590</ele>
        <time>2025-06-09T08:30:26.000Z</time>
      </trkpt>
      <trkpt lat="47.87871" lon="6.9496">
        <ele>590</ele>
        <time>2025-06-09T08:30:30.000Z</time>
      </trkpt>
      <trkpt lat="47.87873" lon="6.94969">
        <ele>590</ele>
        <time>2025-06-09T08:30:39.000Z</time>
      </trkpt>
      <trkpt lat="47.87878" lon="6.94968">
        <ele>590</ele>
        <time>2025-06-09T08:30:45.000Z</time>
      </trkpt>
      <trkpt lat="47.87886" lon="6.9498">
        <ele>588</ele>
        <time>2025-06-09T08:30:52.000Z</time>
      </trkpt>
      <trkpt lat="47.87892" lon="6.94974">
        <ele>585</ele>
        <time>2025-06-09T08:31:05.000Z</time>
      </trkpt>
      <trkpt lat="47.87896" lon="6.94969">
        <ele>585</ele>
        <time>2025-06-09T08:31:08.000Z</time>
      </trkpt>
      <trkpt lat="47.879" lon="6.94975">
        <ele>584</ele>
        <time>2025-06-09T08:31:12.000Z</time>
      </trkpt>
      <trkpt lat="47.87903" lon="6.94994">
        <ele>580</ele>
        <time>2025-06-09T08:31:24.000Z</time>
      </trkpt>
      <trkpt lat="47.87906" lon="6.95">
        <ele>579</ele>
        <time>2025-06-09T08:31:27.000Z</time>
      </trkpt>
      <trkpt lat="47.87907" lon="6.95008">
        <ele>578</ele>
        <time>2025-06-09T08:31:31.000Z</time>
      </trkpt>
      <trkpt lat="47.87907" lon="6.95018">
        <ele>575</ele>
        <time>2025-06-09T08:31:36.000Z</time>
      </trkpt>
      <trkpt lat="47.87914" lon="6.95034">
        <ele>572</ele>
        <time>2025-06-09T08:31:51.000Z</time>
      </trkpt>
      <trkpt lat="47.87915" lon="6.95041">
        <ele>571</ele>
        <time>2025-06-09T08:31:56.000Z</time>
      </trkpt>
      <trkpt lat="47.87919" lon="6.9503">
        <ele>568</ele>
        <time>2025-06-09T08:32:09.000Z</time>
      </trkpt>
      <trkpt lat="47.87926" lon="6.95031">
        <ele>566</ele>
        <time>2025-06-09T08:32:15.000Z</time>
      </trkpt>
      <trkpt lat="47.8793" lon="6.95036">
        <ele>565</ele>
        <time>2025-06-09T08:32:19.000Z</time>
      </trkpt>
      <trkpt lat="47.87931" lon="6.95047">
        <ele>562</ele>
        <time>2025-06-09T08:32:29.000Z</time>
      </trkpt>
      <trkpt lat="47.87935" lon="6.95041">
        <ele>559</ele>
        <time>2025-06-09T08:32:39.000Z</time>
      </trkpt>
      <trkpt lat="47.87938" lon="6.95047">
        <ele>558</ele>
        <time>2025-06-09T08:32:42.000Z</time>
      </trkpt>
      <trkpt lat="47.87939" lon="6.95054">
        <ele>558</ele>
        <time>2025-06-09T08:32:45.000Z</time>
      </trkpt>
      <trkpt lat="47.87941" lon="6.95069">
        <ele>556</ele>
        <time>2025-06-09T08:32:56.000Z</time>
      </trkpt>
      <trkpt lat="47.8794" lon="6.95079">
        <ele>554</ele>
        <time>2025-06-09T08:33:03.000Z</time>
      </trkpt>
      <trkpt lat="47.8794" lon="6.95096">
        <ele>553</ele>
        <time>2025-06-09T08:33:12.000Z</time>
      </trkpt>
      <trkpt lat="47.87938" lon="6.95102">
        <ele>553</ele>
        <time>2025-06-09T08:33:16.000Z</time>
      </trkpt>
      <trkpt lat="47.87939" lon="6.95109">
        <ele>552</ele>
        <time>2025-06-09T08:33:20.000Z</time>
      </trkpt>
      <trkpt lat="47.87941" lon="6.95116">
        <ele>551</ele>
        <time>2025-06-09T08:33:28.000Z</time>
      </trkpt>
      <trkpt lat="47.87948" lon="6.95125">
        <ele>550</ele>
        <time>2025-06-09T08:33:39.000Z</time>
      </trkpt>
      <trkpt lat="47.87953" lon="6.95128">
        <ele>549</ele>
        <time>2025-06-09T08:33:48.000Z</time>
      </trkpt>
      <trkpt lat="47.87956" lon="6.95134">
        <ele>548</ele>
        <time>2025-06-09T08:33:51.000Z</time>
      </trkpt>
      <trkpt lat="47.87969" lon="6.95149">
        <ele>545</ele>
        <time>2025-06-09T08:34:04.000Z</time>
      </trkpt>
      <trkpt lat="47.87976" lon="6.95167">
        <ele>541</ele>
        <time>2025-06-09T08:34:20.000Z</time>
      </trkpt>
      <trkpt lat="47.87974" lon="6.95174">
        <ele>540</ele>
        <time>2025-06-09T08:34:25.000Z</time>
      </trkpt>
      <trkpt lat="47.87972" lon="6.9518">
        <ele>540</ele>
        <time>2025-06-09T08:34:29.000Z</time>
      </trkpt>
      <trkpt lat="47.87973" lon="6.95196">
        <ele>536</ele>
        <time>2025-06-09T08:34:43.000Z</time>
      </trkpt>
      <trkpt lat="47.87975" lon="6.95205">
        <ele>535</ele>
        <time>2025-06-09T08:34:50.000Z</time>
      </trkpt>
      <trkpt lat="47.87976" lon="6.95212">
        <ele>533</ele>
        <time>2025-06-09T08:34:55.000Z</time>
      </trkpt>
      <trkpt lat="47.87975" lon="6.95228">
        <ele>530</ele>
        <time>2025-06-09T08:35:10.000Z</time>
      </trkpt>
      <trkpt lat="47.87972" lon="6.95235">
        <ele>529</ele>
        <time>2025-06-09T08:35:16.000Z</time>
      </trkpt>
      <trkpt lat="47.87974" lon="6.95258">
        <ele>524</ele>
        <time>2025-06-09T08:35:34.000Z</time>
      </trkpt>
      <trkpt lat="47.87973" lon="6.95265">
        <ele>523</ele>
        <time>2025-06-09T08:35:39.000Z</time>
      </trkpt>
      <trkpt lat="47.87977" lon="6.95273">
        <ele>521</ele>
        <time>2025-06-09T08:35:45.000Z</time>
      </trkpt>
      <trkpt lat="47.87982" lon="6.95274">
        <ele>520</ele>
        <time>2025-06-09T08:35:54.000Z</time>
      </trkpt>
      <trkpt lat="47.87985" lon="6.95268">
        <ele>519</ele>
        <time>2025-06-09T08:36:00.000Z</time>
      </trkpt>
      <trkpt lat="47.87989" lon="6.95256">
        <ele>516</ele>
        <time>2025-06-09T08:36:11.000Z</time>
      </trkpt>
      <trkpt lat="47.87996" lon="6.95243">
        <ele>515</ele>
        <time>2025-06-09T08:36:23.000Z</time>
      </trkpt>
      <trkpt lat="47.88004" lon="6.95221">
        <ele>514</ele>
        <time>2025-06-09T08:36:39.000Z</time>
      </trkpt>
      <trkpt lat="47.88007" lon="6.95214">
        <ele>515</ele>
        <time>2025-06-09T08:36:45.000Z</time>
      </trkpt>
      <trkpt lat="47.88009" lon="6.95201">
        <ele>514</ele>
        <time>2025-06-09T08:36:52.000Z</time>
      </trkpt>
      <trkpt lat="47.88012" lon="6.95195">
        <ele>514</ele>
        <time>2025-06-09T08:36:56.000Z</time>
      </trkpt>
      <trkpt lat="47.88018" lon="6.95193">
        <ele>514</ele>
        <time>2025-06-09T08:37:07.000Z</time>
      </trkpt>
      <trkpt lat="47.88021" lon="6.95188">
        <ele>512</ele>
        <time>2025-06-09T08:37:12.000Z</time>
      </trkpt>
      <trkpt lat="47.88026" lon="6.95184">
        <ele>512</ele>
        <time>2025-06-09T08:37:17.000Z</time>
      </trkpt>
      <trkpt lat="47.8803" lon="6.95184">
        <ele>510</ele>
        <time>2025-06-09T08:37:23.000Z</time>
      </trkpt>
      <trkpt lat="47.88035" lon="6.95179">
        <ele>510</ele>
        <time>2025-06-09T08:37:27.000Z</time>
      </trkpt>
      <trkpt lat="47.88041" lon="6.95173">
        <ele>510</ele>
        <time>2025-06-09T08:37:35.000Z</time>
      </trkpt>
      <trkpt lat="47.88059" lon="6.95168">
        <ele>510</ele>
        <time>2025-06-09T08:37:52.000Z</time>
      </trkpt>
      <trkpt lat="47.88064" lon="6.95166">
        <ele>509</ele>
        <time>2025-06-09T08:37:58.000Z</time>
      </trkpt>
      <trkpt lat="47.8807" lon="6.95167">
        <ele>509</ele>
        <time>2025-06-09T08:38:06.000Z</time>
      </trkpt>
      <trkpt lat="47.88076" lon="6.95168">
        <ele>507</ele>
        <time>2025-06-09T08:38:14.000Z</time>
      </trkpt>
      <trkpt lat="47.88078" lon="6.95128">
        <ele>501</ele>
        <time>2025-06-09T08:38:48.000Z</time>
      </trkpt>
      <trkpt lat="47.88079" lon="6.95115">
        <ele>500</ele>
        <time>2025-06-09T08:38:56.000Z</time>
      </trkpt>
      <trkpt lat="47.8808" lon="6.95103">
        <ele>499</ele>
        <time>2025-06-09T08:39:04.000Z</time>
      </trkpt>
      <trkpt lat="47.88082" lon="6.95097">
        <ele>498</ele>
        <time>2025-06-09T08:39:09.000Z</time>
      </trkpt>
      <trkpt lat="47.88087" lon="6.95092">
        <ele>497</ele>
        <time>2025-06-09T08:39:17.000Z</time>
      </trkpt>
      <trkpt lat="47.88094" lon="6.95084">
        <ele>495</ele>
        <time>2025-06-09T08:39:28.000Z</time>
      </trkpt>
      <trkpt lat="47.88101" lon="6.95087">
        <ele>494</ele>
        <time>2025-06-09T08:39:36.000Z</time>
      </trkpt>
      <trkpt lat="47.88104" lon="6.95091">
        <ele>493</ele>
        <time>2025-06-09T08:39:40.000Z</time>
      </trkpt>
      <trkpt lat="47.88122" lon="6.95102">
        <ele>489</ele>
        <time>2025-06-09T08:40:00.000Z</time>
      </trkpt>
      <trkpt lat="47.88132" lon="6.95113">
        <ele>485</ele>
        <time>2025-06-09T08:40:18.000Z</time>
      </trkpt>
      <trkpt lat="47.8814" lon="6.95119">
        <ele>482</ele>
        <time>2025-06-09T08:40:29.000Z</time>
      </trkpt>
      <trkpt lat="47.88148" lon="6.95129">
        <ele>479</ele>
        <time>2025-06-09T08:40:41.000Z</time>
      </trkpt>
      <trkpt lat="47.88159" lon="6.95155">
        <ele>473</ele>
        <time>2025-06-09T08:41:04.000Z</time>
      </trkpt>
      <trkpt lat="47.88162" lon="6.95179">
        <ele>470</ele>
        <time>2025-06-09T08:41:21.000Z</time>
      </trkpt>
      <trkpt lat="47.88162" lon="6.95189">
        <ele>469</ele>
        <time>2025-06-09T08:41:27.000Z</time>
      </trkpt>
      <trkpt lat="47.88166" lon="6.952">
        <ele>468</ele>
        <time>2025-06-09T08:41:35.000Z</time>
      </trkpt>
      <trkpt lat="47.88173" lon="6.95219">
        <ele>467</ele>
        <time>2025-06-09T08:41:49.000Z</time>
      </trkpt>
      <trkpt lat="47.88187" lon="6.95257">
        <ele>461</ele>
        <time>2025-06-09T08:42:20.000Z</time>
      </trkpt>
      <trkpt lat="47.88197" lon="6.95268">
        <ele>458</ele>
        <time>2025-06-09T08:42:36.000Z</time>
      </trkpt>
      <trkpt lat="47.88201" lon="6.95268">
        <ele>456</ele>
        <time>2025-06-09T08:42:42.000Z</time>
      </trkpt>
      <trkpt lat="47.8821" lon="6.95251">
        <ele>455</ele>
        <time>2025-06-09T08:42:56.000Z</time>
      </trkpt>
      <trkpt lat="47.88214" lon="6.95244">
        <ele>454</ele>
        <time>2025-06-09T08:43:02.000Z</time>
      </trkpt>
      <trkpt lat="47.88224" lon="6.9524">
        <ele>453</ele>
        <time>2025-06-09T08:43:10.000Z</time>
      </trkpt>
      <trkpt lat="47.88229" lon="6.95241">
        <ele>452</ele>
        <time>2025-06-09T08:43:15.000Z</time>
      </trkpt>
      <trkpt lat="47.88231" lon="6.95248">
        <ele>452</ele>
        <time>2025-06-09T08:43:18.000Z</time>
      </trkpt>
      <trkpt lat="47.88234" lon="6.95253">
        <ele>452</ele>
        <time>2025-06-09T08:43:22.000Z</time>
      </trkpt>
      <trkpt lat="47.88235" lon="6.9526">
        <ele>452</ele>
        <time>2025-06-09T08:43:25.000Z</time>
      </trkpt>
      <trkpt lat="47.88243" lon="6.95317">
        <ele>453</ele>
        <time>2025-06-09T08:43:58.000Z</time>
      </trkpt>
      <trkpt lat="47.88245" lon="6.95337">
        <ele>453</ele>
        <time>2025-06-09T08:44:10.000Z</time>
      </trkpt>
      <trkpt lat="47.88245" lon="6.95393">
        <ele>454</ele>
        <time>2025-06-09T08:44:44.000Z</time>
      </trkpt>
      <trkpt lat="47.88244" lon="6.95446">
        <ele>455</ele>
        <time>2025-06-09T08:45:15.000Z</time>
      </trkpt>
      <trkpt lat="47.88243" lon="6.95453">
        <ele>455</ele>
        <time>2025-06-09T08:45:18.000Z</time>
      </trkpt>
      <trkpt lat="47.8824" lon="6.95457">
        <ele>455</ele>
        <time>2025-06-09T08:45:22.000Z</time>
      </trkpt>
      <trkpt lat="47.88236" lon="6.9546">
        <ele>455</ele>
        <time>2025-06-09T08:45:26.000Z</time>
      </trkpt>
    </trkseg>
  </trk>
</gpx>